<?xml version="1.0" encoding="UTF-8"?>
<gpx version="1.1" creator="https://www.youtrack.es" xsi:schemaLocation="http://www.topografix.com/GPX/1/1 http://www.topografix.com/GPX/1/1/gpx.xsd http://www.garmin.com/xmlschemas/GpxExtensions/v3 http://www.garmin.com/xmlschemas/GpxExtensionsv3.xsd http://www.garmin.com/xmlschemas/TrackPointExtension/v1 http://www.garmin.com/xmlschemas/TrackPointExtensionv1.xsd" xmlns:gpxtpx="http://www.garmin.com/xmlschemas/TrackPointExtension/v1" xmlns:gpxx="http://www.garmin.com/xmlschemas/GpxExtensions/v3" xmlns:xsi="http://www.w3.org/2001/XMLSchema-instance">
  <metadata>
    <link href="https://www.youtrack.es">
      <text>YouTrack.es</text>
    </link>
    <time>2026-05-08T20:50:54Z</time>
  </metadata>
  <trk>
    <src>https://www.youtrack.es</src>
    <link href="https://www.youtrack.es/ruta/2976-jameshig">
      <text>YouTrack.es</text>
    </link>
    <trkseg>
      <trkpt lat="36.7762607429" lon="-2.6007055677">
        <ele>11.19</ele>
        <time>2018-11-05T06:25:28Z</time>
      </trkpt>
      <trkpt lat="36.7762469128" lon="-2.6007229183">
        <ele>9.27</ele>
        <time>2018-11-05T06:25:49Z</time>
      </trkpt>
      <trkpt lat="36.7762689572" lon="-2.6007457171">
        <ele>7.35</ele>
        <time>2018-11-05T06:26:08Z</time>
      </trkpt>
      <trkpt lat="36.7762552109" lon="-2.6007407717">
        <ele>8.79</ele>
        <time>2018-11-05T06:26:17Z</time>
      </trkpt>
      <trkpt lat="36.7762533668" lon="-2.6007359941">
        <ele>8.79</ele>
        <time>2018-11-05T06:26:28Z</time>
      </trkpt>
      <trkpt lat="36.7762500979" lon="-2.6007357426">
        <ele>8.79</ele>
        <time>2018-11-05T06:26:34Z</time>
      </trkpt>
      <trkpt lat="36.7762298975" lon="-2.6006360818">
        <ele>9.75</ele>
        <time>2018-11-05T06:26:39Z</time>
      </trkpt>
      <trkpt lat="36.7761190049" lon="-2.6003201678">
        <ele>9.27</ele>
        <time>2018-11-05T06:26:49Z</time>
      </trkpt>
      <trkpt lat="36.7761047557" lon="-2.6001392864">
        <ele>8.79</ele>
        <time>2018-11-05T06:26:55Z</time>
      </trkpt>
      <trkpt lat="36.7761030793" lon="-2.6001149788">
        <ele>8.79</ele>
        <time>2018-11-05T06:26:56Z</time>
      </trkpt>
      <trkpt lat="36.7760226969" lon="-2.6000729855">
        <ele>7.83</ele>
        <time>2018-11-05T06:27:03Z</time>
      </trkpt>
      <trkpt lat="36.7759864870" lon="-2.6000827085">
        <ele>6.87</ele>
        <time>2018-11-05T06:27:07Z</time>
      </trkpt>
      <trkpt lat="36.7759460025" lon="-2.6000141446">
        <ele>6.39</ele>
        <time>2018-11-05T06:27:12Z</time>
      </trkpt>
      <trkpt lat="36.7759178393" lon="-2.5999879092">
        <ele>5.91</ele>
        <time>2018-11-05T06:27:14Z</time>
      </trkpt>
      <trkpt lat="36.7759050149" lon="-2.5999449939">
        <ele>5.42</ele>
        <time>2018-11-05T06:27:21Z</time>
      </trkpt>
      <trkpt lat="36.7759237066" lon="-2.5999464188">
        <ele>4.46</ele>
        <time>2018-11-05T06:27:36Z</time>
      </trkpt>
      <trkpt lat="36.7759307474" lon="-2.5999407191">
        <ele>3.02</ele>
        <time>2018-11-05T06:27:52Z</time>
      </trkpt>
      <trkpt lat="36.7759148218" lon="-2.5999598298">
        <ele>3.98</ele>
        <time>2018-11-05T06:28:05Z</time>
      </trkpt>
      <trkpt lat="36.7759325914" lon="-2.5999506097">
        <ele>4.46</ele>
        <time>2018-11-05T06:28:15Z</time>
      </trkpt>
      <trkpt lat="36.7759765964" lon="-2.5999467541">
        <ele>4.46</ele>
        <time>2018-11-05T06:28:19Z</time>
      </trkpt>
      <trkpt lat="36.7761849705" lon="-2.5998807047">
        <ele>5.42</ele>
        <time>2018-11-05T06:28:30Z</time>
      </trkpt>
      <trkpt lat="36.7763402872" lon="-2.5997814629">
        <ele>5.42</ele>
        <time>2018-11-05T06:28:40Z</time>
      </trkpt>
      <trkpt lat="36.7763589788" lon="-2.5997793674">
        <ele>5.42</ele>
        <time>2018-11-05T06:28:45Z</time>
      </trkpt>
      <trkpt lat="36.7763580568" lon="-2.5997768529">
        <ele>5.42</ele>
        <time>2018-11-05T06:28:56Z</time>
      </trkpt>
      <trkpt lat="36.7763557099" lon="-2.5997716561">
        <ele>5.91</ele>
        <time>2018-11-05T06:29:05Z</time>
      </trkpt>
      <trkpt lat="36.7763672769" lon="-2.5997636933">
        <ele>5.42</ele>
        <time>2018-11-05T06:29:19Z</time>
      </trkpt>
      <trkpt lat="36.7764226813" lon="-2.5997240469">
        <ele>5.91</ele>
        <time>2018-11-05T06:29:26Z</time>
      </trkpt>
      <trkpt lat="36.7765695322" lon="-2.5996157527">
        <ele>4.94</ele>
        <time>2018-11-05T06:29:34Z</time>
      </trkpt>
      <trkpt lat="36.7767440435" lon="-2.5994851626">
        <ele>4.46</ele>
        <time>2018-11-05T06:29:43Z</time>
      </trkpt>
      <trkpt lat="36.7768786568" lon="-2.5993844122">
        <ele>4.94</ele>
        <time>2018-11-05T06:29:50Z</time>
      </trkpt>
      <trkpt lat="36.7770983465" lon="-2.5992334541">
        <ele>4.94</ele>
        <time>2018-11-05T06:29:58Z</time>
      </trkpt>
      <trkpt lat="36.7773480434" lon="-2.5990605354">
        <ele>5.42</ele>
        <time>2018-11-05T06:30:06Z</time>
      </trkpt>
      <trkpt lat="36.7777197808" lon="-2.5987996068">
        <ele>5.42</ele>
        <time>2018-11-05T06:30:16Z</time>
      </trkpt>
      <trkpt lat="36.7781019956" lon="-2.5985270273">
        <ele>5.42</ele>
        <time>2018-11-05T06:30:26Z</time>
      </trkpt>
      <trkpt lat="36.7784417979" lon="-2.5982800964">
        <ele>5.42</ele>
        <time>2018-11-05T06:30:35Z</time>
      </trkpt>
      <trkpt lat="36.7787416186" lon="-2.5980591495">
        <ele>4.94</ele>
        <time>2018-11-05T06:30:43Z</time>
      </trkpt>
      <trkpt lat="36.7790797446" lon="-2.5978077762">
        <ele>4.94</ele>
        <time>2018-11-05T06:30:52Z</time>
      </trkpt>
      <trkpt lat="36.7795457784" lon="-2.5974653754">
        <ele>4.94</ele>
        <time>2018-11-05T06:31:04Z</time>
      </trkpt>
      <trkpt lat="36.7799354531" lon="-2.5971836597">
        <ele>3.98</ele>
        <time>2018-11-05T06:31:14Z</time>
      </trkpt>
      <trkpt lat="36.7803252954" lon="-2.5968996808">
        <ele>4.46</ele>
        <time>2018-11-05T06:31:24Z</time>
      </trkpt>
      <trkpt lat="36.7806570511" lon="-2.5966637302">
        <ele>4.46</ele>
        <time>2018-11-05T06:31:33Z</time>
      </trkpt>
      <trkpt lat="36.7808747292" lon="-2.5965190586">
        <ele>4.46</ele>
        <time>2018-11-05T06:31:40Z</time>
      </trkpt>
      <trkpt lat="36.7810098454" lon="-2.5964836869">
        <ele>3.98</ele>
        <time>2018-11-05T06:31:45Z</time>
      </trkpt>
      <trkpt lat="36.7811524216" lon="-2.5963152945">
        <ele>3.98</ele>
        <time>2018-11-05T06:31:51Z</time>
      </trkpt>
      <trkpt lat="36.7814947385" lon="-2.5958599057">
        <ele>3.50</ele>
        <time>2018-11-05T06:32:03Z</time>
      </trkpt>
      <trkpt lat="36.7816163599" lon="-2.5957365241">
        <ele>3.50</ele>
        <time>2018-11-05T06:32:07Z</time>
      </trkpt>
      <trkpt lat="36.7816357221" lon="-2.5956999790">
        <ele>3.50</ele>
        <time>2018-11-05T06:32:08Z</time>
      </trkpt>
      <trkpt lat="36.7816584371" lon="-2.5956612546">
        <ele>3.50</ele>
        <time>2018-11-05T06:32:09Z</time>
      </trkpt>
      <trkpt lat="36.7816839181" lon="-2.5956249610">
        <ele>3.50</ele>
        <time>2018-11-05T06:32:10Z</time>
      </trkpt>
      <trkpt lat="36.7817134224" lon="-2.5955891702">
        <ele>3.50</ele>
        <time>2018-11-05T06:32:11Z</time>
      </trkpt>
      <trkpt lat="36.7817413341" lon="-2.5955557264">
        <ele>3.50</ele>
        <time>2018-11-05T06:32:12Z</time>
      </trkpt>
      <trkpt lat="36.7819985747" lon="-2.5952292513">
        <ele>3.02</ele>
        <time>2018-11-05T06:32:22Z</time>
      </trkpt>
      <trkpt lat="36.7823069450" lon="-2.5949299335">
        <ele>2.54</ele>
        <time>2018-11-05T06:32:33Z</time>
      </trkpt>
      <trkpt lat="36.7826137226" lon="-2.5946819969">
        <ele>2.06</ele>
        <time>2018-11-05T06:32:43Z</time>
      </trkpt>
      <trkpt lat="36.7828281317" lon="-2.5945095811">
        <ele>2.54</ele>
        <time>2018-11-05T06:32:51Z</time>
      </trkpt>
      <trkpt lat="36.7830213346" lon="-2.5943526719">
        <ele>2.54</ele>
        <time>2018-11-05T06:32:58Z</time>
      </trkpt>
      <trkpt lat="36.7833418585" lon="-2.5940994546">
        <ele>2.54</ele>
        <time>2018-11-05T06:33:08Z</time>
      </trkpt>
      <trkpt lat="36.7837222293" lon="-2.5938008074">
        <ele>3.02</ele>
        <time>2018-11-05T06:33:19Z</time>
      </trkpt>
      <trkpt lat="36.7841378041" lon="-2.5934601668">
        <ele>3.02</ele>
        <time>2018-11-05T06:33:31Z</time>
      </trkpt>
      <trkpt lat="36.7844507005" lon="-2.5932075363">
        <ele>3.50</ele>
        <time>2018-11-05T06:33:41Z</time>
      </trkpt>
      <trkpt lat="36.7847506888" lon="-2.5929632876">
        <ele>3.02</ele>
        <time>2018-11-05T06:33:51Z</time>
      </trkpt>
      <trkpt lat="36.7851510923" lon="-2.5926435180">
        <ele>2.54</ele>
        <time>2018-11-05T06:34:03Z</time>
      </trkpt>
      <trkpt lat="36.7853969336" lon="-2.5924413465">
        <ele>2.06</ele>
        <time>2018-11-05T06:34:12Z</time>
      </trkpt>
      <trkpt lat="36.7855651584" lon="-2.5923046377">
        <ele>1.58</ele>
        <time>2018-11-05T06:34:20Z</time>
      </trkpt>
      <trkpt lat="36.7855586205" lon="-2.5923101697">
        <ele>2.54</ele>
        <time>2018-11-05T06:34:31Z</time>
      </trkpt>
      <trkpt lat="36.7856017035" lon="-2.5922810845">
        <ele>2.54</ele>
        <time>2018-11-05T06:34:41Z</time>
      </trkpt>
      <trkpt lat="36.7857989296" lon="-2.5921198167">
        <ele>2.06</ele>
        <time>2018-11-05T06:34:50Z</time>
      </trkpt>
      <trkpt lat="36.7860689946" lon="-2.5919045694">
        <ele>2.06</ele>
        <time>2018-11-05T06:35:02Z</time>
      </trkpt>
      <trkpt lat="36.7862626165" lon="-2.5918055791">
        <ele>2.54</ele>
        <time>2018-11-05T06:35:10Z</time>
      </trkpt>
      <trkpt lat="36.7864290811" lon="-2.5917259511">
        <ele>3.02</ele>
        <time>2018-11-05T06:35:19Z</time>
      </trkpt>
      <trkpt lat="36.7865805421" lon="-2.5916550402">
        <ele>3.02</ele>
        <time>2018-11-05T06:35:26Z</time>
      </trkpt>
      <trkpt lat="36.7867404688" lon="-2.5915785134">
        <ele>3.50</ele>
        <time>2018-11-05T06:35:35Z</time>
      </trkpt>
      <trkpt lat="36.7868909240" lon="-2.5914977957">
        <ele>3.02</ele>
        <time>2018-11-05T06:35:45Z</time>
      </trkpt>
      <trkpt lat="36.7870048340" lon="-2.5914470013">
        <ele>3.02</ele>
        <time>2018-11-05T06:35:53Z</time>
      </trkpt>
      <trkpt lat="36.7872516811" lon="-2.5912914332">
        <ele>3.02</ele>
        <time>2018-11-05T06:36:06Z</time>
      </trkpt>
      <trkpt lat="36.7874437105" lon="-2.5911064446">
        <ele>3.02</ele>
        <time>2018-11-05T06:36:16Z</time>
      </trkpt>
      <trkpt lat="36.7876142822" lon="-2.5909321848">
        <ele>3.02</ele>
        <time>2018-11-05T06:36:23Z</time>
      </trkpt>
      <trkpt lat="36.7879187968" lon="-2.5905803125">
        <ele>3.02</ele>
        <time>2018-11-05T06:36:33Z</time>
      </trkpt>
      <trkpt lat="36.7882970721" lon="-2.5902022887">
        <ele>3.02</ele>
        <time>2018-11-05T06:36:44Z</time>
      </trkpt>
      <trkpt lat="36.7886564881" lon="-2.5898425374">
        <ele>3.02</ele>
        <time>2018-11-05T06:36:55Z</time>
      </trkpt>
      <trkpt lat="36.7890211008" lon="-2.5894775894">
        <ele>3.02</ele>
        <time>2018-11-05T06:37:05Z</time>
      </trkpt>
      <trkpt lat="36.7893836182" lon="-2.5891150720">
        <ele>3.02</ele>
        <time>2018-11-05T06:37:15Z</time>
      </trkpt>
      <trkpt lat="36.7896810919" lon="-2.5888189394">
        <ele>3.02</ele>
        <time>2018-11-05T06:37:24Z</time>
      </trkpt>
      <trkpt lat="36.7900671624" lon="-2.5884494651">
        <ele>3.02</ele>
        <time>2018-11-05T06:37:35Z</time>
      </trkpt>
      <trkpt lat="36.7902827449" lon="-2.5882503111">
        <ele>2.54</ele>
        <time>2018-11-05T06:37:41Z</time>
      </trkpt>
      <trkpt lat="36.7903510574" lon="-2.5881785620">
        <ele>2.54</ele>
        <time>2018-11-05T06:37:43Z</time>
      </trkpt>
      <trkpt lat="36.7906238046" lon="-2.5879260991">
        <ele>3.02</ele>
        <time>2018-11-05T06:37:51Z</time>
      </trkpt>
      <trkpt lat="36.7910161614" lon="-2.5875825249">
        <ele>3.02</ele>
        <time>2018-11-05T06:38:02Z</time>
      </trkpt>
      <trkpt lat="36.7913905811" lon="-2.5872998871">
        <ele>3.98</ele>
        <time>2018-11-05T06:38:12Z</time>
      </trkpt>
      <trkpt lat="36.7917730473" lon="-2.5870143156">
        <ele>3.98</ele>
        <time>2018-11-05T06:38:22Z</time>
      </trkpt>
      <trkpt lat="36.7921560165" lon="-2.5867179316">
        <ele>3.02</ele>
        <time>2018-11-05T06:38:32Z</time>
      </trkpt>
      <trkpt lat="36.7924994230" lon="-2.5864650495">
        <ele>3.02</ele>
        <time>2018-11-05T06:38:42Z</time>
      </trkpt>
      <trkpt lat="36.7927406542" lon="-2.5863207970">
        <ele>3.50</ele>
        <time>2018-11-05T06:38:50Z</time>
      </trkpt>
      <trkpt lat="36.7927555740" lon="-2.5862928852">
        <ele>3.50</ele>
        <time>2018-11-05T06:38:51Z</time>
      </trkpt>
      <trkpt lat="36.7927643750" lon="-2.5862618722">
        <ele>3.50</ele>
        <time>2018-11-05T06:38:52Z</time>
      </trkpt>
      <trkpt lat="36.7927881796" lon="-2.5860374887">
        <ele>3.50</ele>
        <time>2018-11-05T06:38:59Z</time>
      </trkpt>
      <trkpt lat="36.7928052787" lon="-2.5860006083">
        <ele>3.50</ele>
        <time>2018-11-05T06:39:00Z</time>
      </trkpt>
      <trkpt lat="36.7928227969" lon="-2.5859760493">
        <ele>3.50</ele>
        <time>2018-11-05T06:39:01Z</time>
      </trkpt>
      <trkpt lat="36.7928490322" lon="-2.5859482214">
        <ele>3.50</ele>
        <time>2018-11-05T06:39:02Z</time>
      </trkpt>
      <trkpt lat="36.7928777821" lon="-2.5859240815">
        <ele>3.50</ele>
        <time>2018-11-05T06:39:03Z</time>
      </trkpt>
      <trkpt lat="36.7931648623" lon="-2.5856724568">
        <ele>3.50</ele>
        <time>2018-11-05T06:39:12Z</time>
      </trkpt>
      <trkpt lat="36.7935154773" lon="-2.5853458140">
        <ele>3.98</ele>
        <time>2018-11-05T06:39:23Z</time>
      </trkpt>
      <trkpt lat="36.7936378531" lon="-2.5852174032">
        <ele>4.46</ele>
        <time>2018-11-05T06:39:29Z</time>
      </trkpt>
      <trkpt lat="36.7936490849" lon="-2.5852043275">
        <ele>4.46</ele>
        <time>2018-11-05T06:39:36Z</time>
      </trkpt>
      <trkpt lat="36.7936486658" lon="-2.5852029864">
        <ele>4.46</ele>
        <time>2018-11-05T06:39:49Z</time>
      </trkpt>
      <trkpt lat="36.7936886474" lon="-2.5851417147">
        <ele>4.46</ele>
        <time>2018-11-05T06:39:56Z</time>
      </trkpt>
      <trkpt lat="36.7936980352" lon="-2.5851372723">
        <ele>4.94</ele>
        <time>2018-11-05T06:40:04Z</time>
      </trkpt>
      <trkpt lat="36.7937025614" lon="-2.5851386134">
        <ele>3.98</ele>
        <time>2018-11-05T06:40:24Z</time>
      </trkpt>
      <trkpt lat="36.7937054113" lon="-2.5851333328">
        <ele>3.50</ele>
        <time>2018-11-05T06:40:40Z</time>
      </trkpt>
      <trkpt lat="36.7937168945" lon="-2.5851373561">
        <ele>3.02</ele>
        <time>2018-11-05T06:41:02Z</time>
      </trkpt>
      <trkpt lat="36.7937053274" lon="-2.5851317402">
        <ele>5.42</ele>
        <time>2018-11-05T06:41:24Z</time>
      </trkpt>
      <trkpt lat="36.7936992086" lon="-2.5851459894">
        <ele>5.42</ele>
        <time>2018-11-05T06:41:36Z</time>
      </trkpt>
      <trkpt lat="36.7936879769" lon="-2.5851385295">
        <ele>6.87</ele>
        <time>2018-11-05T06:41:51Z</time>
      </trkpt>
      <trkpt lat="36.7936955206" lon="-2.5851356797">
        <ele>6.87</ele>
        <time>2018-11-05T06:41:54Z</time>
      </trkpt>
      <trkpt lat="36.7938458081" lon="-2.5850210153">
        <ele>5.91</ele>
        <time>2018-11-05T06:42:02Z</time>
      </trkpt>
      <trkpt lat="36.7941325530" lon="-2.5848061871">
        <ele>5.42</ele>
        <time>2018-11-05T06:42:11Z</time>
      </trkpt>
      <trkpt lat="36.7942530010" lon="-2.5846908521">
        <ele>5.42</ele>
        <time>2018-11-05T06:42:16Z</time>
      </trkpt>
      <trkpt lat="36.7944479641" lon="-2.5844956376">
        <ele>5.42</ele>
        <time>2018-11-05T06:42:23Z</time>
      </trkpt>
      <trkpt lat="36.7947400734" lon="-2.5841983315">
        <ele>4.94</ele>
        <time>2018-11-05T06:42:34Z</time>
      </trkpt>
      <trkpt lat="36.7949605174" lon="-2.5839529932">
        <ele>4.94</ele>
        <time>2018-11-05T06:42:43Z</time>
      </trkpt>
      <trkpt lat="36.7951786984" lon="-2.5837365724">
        <ele>4.94</ele>
        <time>2018-11-05T06:42:51Z</time>
      </trkpt>
      <trkpt lat="36.7954299040" lon="-2.5835152064">
        <ele>5.91</ele>
        <time>2018-11-05T06:43:00Z</time>
      </trkpt>
      <trkpt lat="36.7957255337" lon="-2.5832816865">
        <ele>6.39</ele>
        <time>2018-11-05T06:43:10Z</time>
      </trkpt>
      <trkpt lat="36.7960743047" lon="-2.5829235278">
        <ele>5.91</ele>
        <time>2018-11-05T06:43:23Z</time>
      </trkpt>
      <trkpt lat="36.7962702736" lon="-2.5827484298">
        <ele>6.39</ele>
        <time>2018-11-05T06:43:31Z</time>
      </trkpt>
      <trkpt lat="36.7964785639" lon="-2.5825446658">
        <ele>6.39</ele>
        <time>2018-11-05T06:43:40Z</time>
      </trkpt>
      <trkpt lat="36.7967096530" lon="-2.5823295861">
        <ele>5.91</ele>
        <time>2018-11-05T06:43:49Z</time>
      </trkpt>
      <trkpt lat="36.7968554981" lon="-2.5821570866">
        <ele>5.91</ele>
        <time>2018-11-05T06:43:55Z</time>
      </trkpt>
      <trkpt lat="36.7970427498" lon="-2.5819940586">
        <ele>5.42</ele>
        <time>2018-11-05T06:44:02Z</time>
      </trkpt>
      <trkpt lat="36.7972403951" lon="-2.5818368141">
        <ele>5.42</ele>
        <time>2018-11-05T06:44:09Z</time>
      </trkpt>
      <trkpt lat="36.7973757628" lon="-2.5816892087">
        <ele>5.42</ele>
        <time>2018-11-05T06:44:16Z</time>
      </trkpt>
      <trkpt lat="36.7974726576" lon="-2.5814086664">
        <ele>4.94</ele>
        <time>2018-11-05T06:44:25Z</time>
      </trkpt>
      <trkpt lat="36.7975077778" lon="-2.5813407730">
        <ele>4.46</ele>
        <time>2018-11-05T06:44:27Z</time>
      </trkpt>
      <trkpt lat="36.7975361086" lon="-2.5813175552">
        <ele>4.46</ele>
        <time>2018-11-05T06:44:28Z</time>
      </trkpt>
      <trkpt lat="36.7975716479" lon="-2.5812995341">
        <ele>4.46</ele>
        <time>2018-11-05T06:44:29Z</time>
      </trkpt>
      <trkpt lat="36.7977931816" lon="-2.5811712909">
        <ele>3.98</ele>
        <time>2018-11-05T06:44:36Z</time>
      </trkpt>
      <trkpt lat="36.7980213370" lon="-2.5809317362">
        <ele>3.50</ele>
        <time>2018-11-05T06:44:45Z</time>
      </trkpt>
      <trkpt lat="36.7982251011" lon="-2.5807832088">
        <ele>3.50</ele>
        <time>2018-11-05T06:44:52Z</time>
      </trkpt>
      <trkpt lat="36.7985616345" lon="-2.5805286504">
        <ele>3.98</ele>
        <time>2018-11-05T06:45:02Z</time>
      </trkpt>
      <trkpt lat="36.7988197971" lon="-2.5803734176">
        <ele>4.46</ele>
        <time>2018-11-05T06:45:09Z</time>
      </trkpt>
      <trkpt lat="36.7990675662" lon="-2.5802363735">
        <ele>4.94</ele>
        <time>2018-11-05T06:45:17Z</time>
      </trkpt>
      <trkpt lat="36.7994814645" lon="-2.5799566694">
        <ele>6.39</ele>
        <time>2018-11-05T06:45:29Z</time>
      </trkpt>
      <trkpt lat="36.7996712308" lon="-2.5798572600">
        <ele>6.87</ele>
        <time>2018-11-05T06:45:36Z</time>
      </trkpt>
      <trkpt lat="36.7997010704" lon="-2.5798665639">
        <ele>6.87</ele>
        <time>2018-11-05T06:45:42Z</time>
      </trkpt>
      <trkpt lat="36.7997413874" lon="-2.5798870157">
        <ele>7.35</ele>
        <time>2018-11-05T06:45:48Z</time>
      </trkpt>
      <trkpt lat="36.7997525353" lon="-2.5798804779">
        <ele>7.83</ele>
        <time>2018-11-05T06:45:49Z</time>
      </trkpt>
      <trkpt lat="36.7997616716" lon="-2.5798716769">
        <ele>7.83</ele>
        <time>2018-11-05T06:45:50Z</time>
      </trkpt>
      <trkpt lat="36.7997730710" lon="-2.5798652228">
        <ele>7.83</ele>
        <time>2018-11-05T06:45:51Z</time>
      </trkpt>
      <trkpt lat="36.7997836322" lon="-2.5798576791">
        <ele>7.83</ele>
        <time>2018-11-05T06:45:52Z</time>
      </trkpt>
      <trkpt lat="36.7997935228" lon="-2.5798512250">
        <ele>7.83</ele>
        <time>2018-11-05T06:45:53Z</time>
      </trkpt>
      <trkpt lat="36.7998055927" lon="-2.5798444357">
        <ele>7.83</ele>
        <time>2018-11-05T06:45:54Z</time>
      </trkpt>
      <trkpt lat="36.7998361029" lon="-2.5798356347">
        <ele>7.83</ele>
        <time>2018-11-05T06:45:56Z</time>
      </trkpt>
      <trkpt lat="36.7998546269" lon="-2.5798374787">
        <ele>7.83</ele>
        <time>2018-11-05T06:45:57Z</time>
      </trkpt>
      <trkpt lat="36.7998736538" lon="-2.5798389036">
        <ele>7.35</ele>
        <time>2018-11-05T06:45:58Z</time>
      </trkpt>
      <trkpt lat="36.7999950238" lon="-2.5797880255">
        <ele>7.35</ele>
        <time>2018-11-05T06:46:07Z</time>
      </trkpt>
      <trkpt lat="36.8001052458" lon="-2.5796996802">
        <ele>6.39</ele>
        <time>2018-11-05T06:46:15Z</time>
      </trkpt>
      <trkpt lat="36.8002353329" lon="-2.5796168670">
        <ele>6.39</ele>
        <time>2018-11-05T06:46:22Z</time>
      </trkpt>
      <trkpt lat="36.8004309665" lon="-2.5794516597">
        <ele>5.91</ele>
        <time>2018-11-05T06:46:31Z</time>
      </trkpt>
      <trkpt lat="36.8004923221" lon="-2.5794127677">
        <ele>6.87</ele>
        <time>2018-11-05T06:46:36Z</time>
      </trkpt>
      <trkpt lat="36.8004878797" lon="-2.5794350635">
        <ele>8.31</ele>
        <time>2018-11-05T06:46:47Z</time>
      </trkpt>
      <trkpt lat="36.8004814256" lon="-2.5794325490">
        <ele>7.83</ele>
        <time>2018-11-05T06:46:57Z</time>
      </trkpt>
      <trkpt lat="36.8004834373" lon="-2.5794387516">
        <ele>10.71</ele>
        <time>2018-11-05T06:47:18Z</time>
      </trkpt>
      <trkpt lat="36.8004846107" lon="-2.5794293638">
        <ele>11.67</ele>
        <time>2018-11-05T06:47:27Z</time>
      </trkpt>
      <trkpt lat="36.8005269393" lon="-2.5793918129">
        <ele>10.23</ele>
        <time>2018-11-05T06:47:33Z</time>
      </trkpt>
      <trkpt lat="36.8005873729" lon="-2.5793316308">
        <ele>10.71</ele>
        <time>2018-11-05T06:47:39Z</time>
      </trkpt>
      <trkpt lat="36.8006374966" lon="-2.5793045573">
        <ele>9.75</ele>
        <time>2018-11-05T06:47:44Z</time>
      </trkpt>
      <trkpt lat="36.8007918075" lon="-2.5792727899">
        <ele>9.75</ele>
        <time>2018-11-05T06:47:49Z</time>
      </trkpt>
      <trkpt lat="36.8009787239" lon="-2.5791406911">
        <ele>9.75</ele>
        <time>2018-11-05T06:47:55Z</time>
      </trkpt>
      <trkpt lat="36.8012088072" lon="-2.5789562892">
        <ele>10.71</ele>
        <time>2018-11-05T06:48:03Z</time>
      </trkpt>
      <trkpt lat="36.8014719989" lon="-2.5787643436">
        <ele>10.23</ele>
        <time>2018-11-05T06:48:12Z</time>
      </trkpt>
      <trkpt lat="36.8015470169" lon="-2.5786993839">
        <ele>10.71</ele>
        <time>2018-11-05T06:48:15Z</time>
      </trkpt>
      <trkpt lat="36.8015724141" lon="-2.5785974599">
        <ele>10.71</ele>
        <time>2018-11-05T06:48:20Z</time>
      </trkpt>
      <trkpt lat="36.8015942071" lon="-2.5785662793">
        <ele>10.71</ele>
        <time>2018-11-05T06:48:21Z</time>
      </trkpt>
      <trkpt lat="36.8019433971" lon="-2.5782146584">
        <ele>10.23</ele>
        <time>2018-11-05T06:48:32Z</time>
      </trkpt>
      <trkpt lat="36.8021337502" lon="-2.5780388899">
        <ele>10.23</ele>
        <time>2018-11-05T06:48:39Z</time>
      </trkpt>
      <trkpt lat="36.8023387715" lon="-2.5779357087">
        <ele>10.23</ele>
        <time>2018-11-05T06:48:46Z</time>
      </trkpt>
      <trkpt lat="36.8024106044" lon="-2.5779391453">
        <ele>9.75</ele>
        <time>2018-11-05T06:48:48Z</time>
      </trkpt>
      <trkpt lat="36.8026681803" lon="-2.5777278375">
        <ele>9.75</ele>
        <time>2018-11-05T06:48:56Z</time>
      </trkpt>
      <trkpt lat="36.8029503990" lon="-2.5774819963">
        <ele>9.27</ele>
        <time>2018-11-05T06:49:04Z</time>
      </trkpt>
      <trkpt lat="36.8034338672" lon="-2.5770712830">
        <ele>8.79</ele>
        <time>2018-11-05T06:49:16Z</time>
      </trkpt>
      <trkpt lat="36.8038116395" lon="-2.5767330732">
        <ele>8.79</ele>
        <time>2018-11-05T06:49:26Z</time>
      </trkpt>
      <trkpt lat="36.8040963728" lon="-2.5763953663">
        <ele>8.79</ele>
        <time>2018-11-05T06:49:36Z</time>
      </trkpt>
      <trkpt lat="36.8041350972" lon="-2.5763226114">
        <ele>9.27</ele>
        <time>2018-11-05T06:49:38Z</time>
      </trkpt>
      <trkpt lat="36.8041372765" lon="-2.5762876589">
        <ele>9.75</ele>
        <time>2018-11-05T06:49:39Z</time>
      </trkpt>
      <trkpt lat="36.8041769229" lon="-2.5760365371">
        <ele>9.27</ele>
        <time>2018-11-05T06:49:45Z</time>
      </trkpt>
      <trkpt lat="36.8044085987" lon="-2.5757377222">
        <ele>9.27</ele>
        <time>2018-11-05T06:49:53Z</time>
      </trkpt>
      <trkpt lat="36.8046408612" lon="-2.5754209701">
        <ele>8.79</ele>
        <time>2018-11-05T06:50:02Z</time>
      </trkpt>
      <trkpt lat="36.8048671726" lon="-2.5751321297">
        <ele>9.27</ele>
        <time>2018-11-05T06:50:11Z</time>
      </trkpt>
      <trkpt lat="36.8051218987" lon="-2.5748106837">
        <ele>9.27</ele>
        <time>2018-11-05T06:50:21Z</time>
      </trkpt>
      <trkpt lat="36.8053848390" lon="-2.5744837057">
        <ele>9.27</ele>
        <time>2018-11-05T06:50:31Z</time>
      </trkpt>
      <trkpt lat="36.8056450970" lon="-2.5741574820">
        <ele>9.27</ele>
        <time>2018-11-05T06:50:41Z</time>
      </trkpt>
      <trkpt lat="36.8058742583" lon="-2.5738734193">
        <ele>9.75</ele>
        <time>2018-11-05T06:50:49Z</time>
      </trkpt>
      <trkpt lat="36.8061815389" lon="-2.5735694077">
        <ele>10.23</ele>
        <time>2018-11-05T06:50:58Z</time>
      </trkpt>
      <trkpt lat="36.8066090159" lon="-2.5731347222">
        <ele>11.19</ele>
        <time>2018-11-05T06:51:10Z</time>
      </trkpt>
      <trkpt lat="36.8068877142" lon="-2.5728558563">
        <ele>10.71</ele>
        <time>2018-11-05T06:51:19Z</time>
      </trkpt>
      <trkpt lat="36.8070041388" lon="-2.5727007072">
        <ele>12.15</ele>
        <time>2018-11-05T06:51:26Z</time>
      </trkpt>
      <trkpt lat="36.8070124369" lon="-2.5726758130">
        <ele>12.63</ele>
        <time>2018-11-05T06:51:27Z</time>
      </trkpt>
      <trkpt lat="36.8071223237" lon="-2.5724259485">
        <ele>12.63</ele>
        <time>2018-11-05T06:51:34Z</time>
      </trkpt>
      <trkpt lat="36.8073537480" lon="-2.5719076954">
        <ele>11.67</ele>
        <time>2018-11-05T06:51:45Z</time>
      </trkpt>
      <trkpt lat="36.8075297680" lon="-2.5716015045">
        <ele>11.67</ele>
        <time>2018-11-05T06:51:53Z</time>
      </trkpt>
      <trkpt lat="36.8077582587" lon="-2.5712530687">
        <ele>11.67</ele>
        <time>2018-11-05T06:52:03Z</time>
      </trkpt>
      <trkpt lat="36.8078527227" lon="-2.5711599458">
        <ele>12.15</ele>
        <time>2018-11-05T06:52:06Z</time>
      </trkpt>
      <trkpt lat="36.8081946205" lon="-2.5709413458">
        <ele>11.67</ele>
        <time>2018-11-05T06:52:15Z</time>
      </trkpt>
      <trkpt lat="36.8084920105" lon="-2.5707857776">
        <ele>11.67</ele>
        <time>2018-11-05T06:52:22Z</time>
      </trkpt>
      <trkpt lat="36.8088411167" lon="-2.5706350710">
        <ele>10.23</ele>
        <time>2018-11-05T06:52:31Z</time>
      </trkpt>
      <trkpt lat="36.8091913126" lon="-2.5704304688">
        <ele>9.75</ele>
        <time>2018-11-05T06:52:41Z</time>
      </trkpt>
      <trkpt lat="36.8093995191" lon="-2.5703378487">
        <ele>9.27</ele>
        <time>2018-11-05T06:52:48Z</time>
      </trkpt>
      <trkpt lat="36.8094907142" lon="-2.5702859648">
        <ele>9.27</ele>
        <time>2018-11-05T06:52:53Z</time>
      </trkpt>
      <trkpt lat="36.8097654730" lon="-2.5700856373">
        <ele>9.27</ele>
        <time>2018-11-05T06:53:00Z</time>
      </trkpt>
      <trkpt lat="36.8103056028" lon="-2.5697226170">
        <ele>9.75</ele>
        <time>2018-11-05T06:53:13Z</time>
      </trkpt>
      <trkpt lat="36.8103413098" lon="-2.5696912687">
        <ele>10.23</ele>
        <time>2018-11-05T06:53:14Z</time>
      </trkpt>
      <trkpt lat="36.8106009811" lon="-2.5694215391">
        <ele>10.23</ele>
        <time>2018-11-05T06:53:23Z</time>
      </trkpt>
      <trkpt lat="36.8108908273" lon="-2.5691264961">
        <ele>9.75</ele>
        <time>2018-11-05T06:53:32Z</time>
      </trkpt>
      <trkpt lat="36.8112268578" lon="-2.5688449480">
        <ele>11.19</ele>
        <time>2018-11-05T06:53:42Z</time>
      </trkpt>
      <trkpt lat="36.8114025425" lon="-2.5686945766">
        <ele>11.19</ele>
        <time>2018-11-05T06:53:48Z</time>
      </trkpt>
      <trkpt lat="36.8115910515" lon="-2.5684525073">
        <ele>12.63</ele>
        <time>2018-11-05T06:53:56Z</time>
      </trkpt>
      <trkpt lat="36.8117666524" lon="-2.5682161376">
        <ele>12.63</ele>
        <time>2018-11-05T06:54:04Z</time>
      </trkpt>
      <trkpt lat="36.8119743560" lon="-2.5679328293">
        <ele>13.12</ele>
        <time>2018-11-05T06:54:14Z</time>
      </trkpt>
      <trkpt lat="36.8121693190" lon="-2.5676782709">
        <ele>13.12</ele>
        <time>2018-11-05T06:54:22Z</time>
      </trkpt>
      <trkpt lat="36.8123877514" lon="-2.5673935376">
        <ele>12.63</ele>
        <time>2018-11-05T06:54:29Z</time>
      </trkpt>
      <trkpt lat="36.8126812857" lon="-2.5670088921">
        <ele>12.63</ele>
        <time>2018-11-05T06:54:39Z</time>
      </trkpt>
      <trkpt lat="36.8130061682" lon="-2.5665689260">
        <ele>12.15</ele>
        <time>2018-11-05T06:54:49Z</time>
      </trkpt>
      <trkpt lat="36.8133165501" lon="-2.5662003737">
        <ele>12.15</ele>
        <time>2018-11-05T06:54:58Z</time>
      </trkpt>
      <trkpt lat="36.8136834260" lon="-2.5658266246">
        <ele>12.15</ele>
        <time>2018-11-05T06:55:08Z</time>
      </trkpt>
      <trkpt lat="36.8137876969" lon="-2.5657126307">
        <ele>12.63</ele>
        <time>2018-11-05T06:55:11Z</time>
      </trkpt>
      <trkpt lat="36.8141355459" lon="-2.5653682183">
        <ele>12.63</ele>
        <time>2018-11-05T06:55:20Z</time>
      </trkpt>
      <trkpt lat="36.8144818023" lon="-2.5650219619">
        <ele>13.12</ele>
        <time>2018-11-05T06:55:30Z</time>
      </trkpt>
      <trkpt lat="36.8144984823" lon="-2.5649890210">
        <ele>13.60</ele>
        <time>2018-11-05T06:55:31Z</time>
      </trkpt>
      <trkpt lat="36.8145530485" lon="-2.5648746919">
        <ele>14.08</ele>
        <time>2018-11-05T06:55:34Z</time>
      </trkpt>
      <trkpt lat="36.8145837262" lon="-2.5648409966">
        <ele>14.08</ele>
        <time>2018-11-05T06:55:35Z</time>
      </trkpt>
      <trkpt lat="36.8146163318" lon="-2.5648042001">
        <ele>14.08</ele>
        <time>2018-11-05T06:55:36Z</time>
      </trkpt>
      <trkpt lat="36.8147556391" lon="-2.5646275096">
        <ele>14.08</ele>
        <time>2018-11-05T06:55:42Z</time>
      </trkpt>
      <trkpt lat="36.8149197567" lon="-2.5644281879">
        <ele>15.04</ele>
        <time>2018-11-05T06:55:49Z</time>
      </trkpt>
      <trkpt lat="36.8150929268" lon="-2.5642310455">
        <ele>15.04</ele>
        <time>2018-11-05T06:55:56Z</time>
      </trkpt>
      <trkpt lat="36.8152680248" lon="-2.5640600547">
        <ele>14.56</ele>
        <time>2018-11-05T06:56:03Z</time>
      </trkpt>
      <trkpt lat="36.8154779077" lon="-2.5638683606">
        <ele>15.52</ele>
        <time>2018-11-05T06:56:11Z</time>
      </trkpt>
      <trkpt lat="36.8155996967" lon="-2.5637674425">
        <ele>15.52</ele>
        <time>2018-11-05T06:56:15Z</time>
      </trkpt>
      <trkpt lat="36.8156231660" lon="-2.5637237728">
        <ele>16.00</ele>
        <time>2018-11-05T06:56:16Z</time>
      </trkpt>
      <trkpt lat="36.8156495690" lon="-2.5635188352">
        <ele>17.44</ele>
        <time>2018-11-05T06:56:21Z</time>
      </trkpt>
      <trkpt lat="36.8155818433" lon="-2.5633847248">
        <ele>16.48</ele>
        <time>2018-11-05T06:56:25Z</time>
      </trkpt>
      <trkpt lat="36.8155456334" lon="-2.5633520354">
        <ele>16.48</ele>
        <time>2018-11-05T06:56:26Z</time>
      </trkpt>
      <trkpt lat="36.8155106809" lon="-2.5633232016">
        <ele>16.00</ele>
        <time>2018-11-05T06:56:27Z</time>
      </trkpt>
      <trkpt lat="36.8154784944" lon="-2.5632826332">
        <ele>15.52</ele>
        <time>2018-11-05T06:56:28Z</time>
      </trkpt>
      <trkpt lat="36.8154608924" lon="-2.5632315874">
        <ele>14.56</ele>
        <time>2018-11-05T06:56:29Z</time>
      </trkpt>
      <trkpt lat="36.8154606409" lon="-2.5631634425">
        <ele>14.08</ele>
        <time>2018-11-05T06:56:30Z</time>
      </trkpt>
      <trkpt lat="36.8154827692" lon="-2.5630984828">
        <ele>13.60</ele>
        <time>2018-11-05T06:56:31Z</time>
      </trkpt>
      <trkpt lat="36.8155146204" lon="-2.5630454253">
        <ele>13.60</ele>
        <time>2018-11-05T06:56:32Z</time>
      </trkpt>
      <trkpt lat="36.8155366648" lon="-2.5629948825">
        <ele>13.60</ele>
        <time>2018-11-05T06:56:33Z</time>
      </trkpt>
      <trkpt lat="36.8155401852" lon="-2.5629437529">
        <ele>13.12</ele>
        <time>2018-11-05T06:56:34Z</time>
      </trkpt>
      <trkpt lat="36.8155364133" lon="-2.5628816430">
        <ele>13.12</ele>
        <time>2018-11-05T06:56:36Z</time>
      </trkpt>
      <trkpt lat="36.8155524228" lon="-2.5628187787">
        <ele>12.63</ele>
        <time>2018-11-05T06:56:37Z</time>
      </trkpt>
      <trkpt lat="36.8155640736" lon="-2.5627814792">
        <ele>12.15</ele>
        <time>2018-11-05T06:56:38Z</time>
      </trkpt>
      <trkpt lat="36.8155799992" lon="-2.5627528969">
        <ele>12.15</ele>
        <time>2018-11-05T06:56:39Z</time>
      </trkpt>
      <trkpt lat="36.8155986909" lon="-2.5627264101">
        <ele>12.15</ele>
        <time>2018-11-05T06:56:40Z</time>
      </trkpt>
      <trkpt lat="36.8156162091" lon="-2.5627039466">
        <ele>12.15</ele>
        <time>2018-11-05T06:56:41Z</time>
      </trkpt>
      <trkpt lat="36.8157813326" lon="-2.5625263341">
        <ele>11.67</ele>
        <time>2018-11-05T06:56:49Z</time>
      </trkpt>
      <trkpt lat="36.8160010222" lon="-2.5622638129">
        <ele>10.71</ele>
        <time>2018-11-05T06:56:57Z</time>
      </trkpt>
      <trkpt lat="36.8161571771" lon="-2.5619763974">
        <ele>10.71</ele>
        <time>2018-11-05T06:57:05Z</time>
      </trkpt>
      <trkpt lat="36.8161503877" lon="-2.5617073383">
        <ele>10.71</ele>
        <time>2018-11-05T06:57:12Z</time>
      </trkpt>
      <trkpt lat="36.8161404133" lon="-2.5616754871">
        <ele>10.71</ele>
        <time>2018-11-05T06:57:13Z</time>
      </trkpt>
      <trkpt lat="36.8161260802" lon="-2.5616505928">
        <ele>10.71</ele>
        <time>2018-11-05T06:57:14Z</time>
      </trkpt>
      <trkpt lat="36.8161092326" lon="-2.5616242737">
        <ele>10.71</ele>
        <time>2018-11-05T06:57:15Z</time>
      </trkpt>
      <trkpt lat="36.8160988390" lon="-2.5615925062">
        <ele>11.19</ele>
        <time>2018-11-05T06:57:16Z</time>
      </trkpt>
      <trkpt lat="36.8160965759" lon="-2.5615547877">
        <ele>11.19</ele>
        <time>2018-11-05T06:57:17Z</time>
      </trkpt>
      <trkpt lat="36.8160956539" lon="-2.5615189970">
        <ele>11.19</ele>
        <time>2018-11-05T06:57:18Z</time>
      </trkpt>
      <trkpt lat="36.8160917144" lon="-2.5614810269">
        <ele>11.19</ele>
        <time>2018-11-05T06:57:19Z</time>
      </trkpt>
      <trkpt lat="36.8160887808" lon="-2.5614416320">
        <ele>11.19</ele>
        <time>2018-11-05T06:57:20Z</time>
      </trkpt>
      <trkpt lat="36.8160838354" lon="-2.5614083558">
        <ele>11.19</ele>
        <time>2018-11-05T06:57:21Z</time>
      </trkpt>
      <trkpt lat="36.8160725199" lon="-2.5613760017">
        <ele>11.19</ele>
        <time>2018-11-05T06:57:22Z</time>
      </trkpt>
      <trkpt lat="36.8160602823" lon="-2.5613460783">
        <ele>11.19</ele>
        <time>2018-11-05T06:57:23Z</time>
      </trkpt>
      <trkpt lat="36.8160160258" lon="-2.5612000655">
        <ele>10.23</ele>
        <time>2018-11-05T06:57:28Z</time>
      </trkpt>
      <trkpt lat="36.8160015251" lon="-2.5611742493">
        <ele>10.23</ele>
        <time>2018-11-05T06:57:29Z</time>
      </trkpt>
      <trkpt lat="36.8159882817" lon="-2.5611503609">
        <ele>10.23</ele>
        <time>2018-11-05T06:57:30Z</time>
      </trkpt>
      <trkpt lat="36.8159747031" lon="-2.5611273944">
        <ele>10.23</ele>
        <time>2018-11-05T06:57:31Z</time>
      </trkpt>
      <trkpt lat="36.8159667403" lon="-2.5611002371">
        <ele>10.23</ele>
        <time>2018-11-05T06:57:32Z</time>
      </trkpt>
      <trkpt lat="36.8159607053" lon="-2.5610701460">
        <ele>9.75</ele>
        <time>2018-11-05T06:57:33Z</time>
      </trkpt>
      <trkpt lat="36.8159569334" lon="-2.5610382948">
        <ele>9.75</ele>
        <time>2018-11-05T06:57:34Z</time>
      </trkpt>
      <trkpt lat="36.8159538321" lon="-2.5610052701">
        <ele>9.75</ele>
        <time>2018-11-05T06:57:35Z</time>
      </trkpt>
      <trkpt lat="36.8159508146" lon="-2.5609724969">
        <ele>9.75</ele>
        <time>2018-11-05T06:57:36Z</time>
      </trkpt>
      <trkpt lat="36.8159151077" lon="-2.5607076287">
        <ele>9.27</ele>
        <time>2018-11-05T06:57:46Z</time>
      </trkpt>
      <trkpt lat="36.8159339670" lon="-2.5604814012">
        <ele>8.79</ele>
        <time>2018-11-05T06:57:55Z</time>
      </trkpt>
      <trkpt lat="36.8159337994" lon="-2.5602443609">
        <ele>8.79</ele>
        <time>2018-11-05T06:58:01Z</time>
      </trkpt>
      <trkpt lat="36.8159913830" lon="-2.5600285269">
        <ele>7.83</ele>
        <time>2018-11-05T06:58:07Z</time>
      </trkpt>
      <trkpt lat="36.8161795568" lon="-2.5596727151">
        <ele>7.35</ele>
        <time>2018-11-05T06:58:18Z</time>
      </trkpt>
      <trkpt lat="36.8162078876" lon="-2.5595935900">
        <ele>7.35</ele>
        <time>2018-11-05T06:58:20Z</time>
      </trkpt>
      <trkpt lat="36.8162082229" lon="-2.5595501717">
        <ele>7.35</ele>
        <time>2018-11-05T06:58:21Z</time>
      </trkpt>
      <trkpt lat="36.8162021879" lon="-2.5595080946">
        <ele>7.35</ele>
        <time>2018-11-05T06:58:22Z</time>
      </trkpt>
      <trkpt lat="36.8161930516" lon="-2.5594698731">
        <ele>7.35</ele>
        <time>2018-11-05T06:58:23Z</time>
      </trkpt>
      <trkpt lat="36.8161809817" lon="-2.5594314840">
        <ele>7.35</ele>
        <time>2018-11-05T06:58:24Z</time>
      </trkpt>
      <trkpt lat="36.8161741085" lon="-2.5593922567">
        <ele>7.35</ele>
        <time>2018-11-05T06:58:25Z</time>
      </trkpt>
      <trkpt lat="36.8161699176" lon="-2.5593567174">
        <ele>7.35</ele>
        <time>2018-11-05T06:58:26Z</time>
      </trkpt>
      <trkpt lat="36.8161637988" lon="-2.5593205076">
        <ele>7.35</ele>
        <time>2018-11-05T06:58:27Z</time>
      </trkpt>
      <trkpt lat="36.8161539081" lon="-2.5592870638">
        <ele>7.35</ele>
        <time>2018-11-05T06:58:28Z</time>
      </trkpt>
      <trkpt lat="36.8161391560" lon="-2.5592557993">
        <ele>7.35</ele>
        <time>2018-11-05T06:58:29Z</time>
      </trkpt>
      <trkpt lat="36.8161190394" lon="-2.5592326652">
        <ele>7.35</ele>
        <time>2018-11-05T06:58:30Z</time>
      </trkpt>
      <trkpt lat="36.8160919659" lon="-2.5592128001">
        <ele>6.87</ele>
        <time>2018-11-05T06:58:31Z</time>
      </trkpt>
      <trkpt lat="36.8160628807" lon="-2.5591927674">
        <ele>6.87</ele>
        <time>2018-11-05T06:58:32Z</time>
      </trkpt>
      <trkpt lat="36.8160304427" lon="-2.5591693819">
        <ele>6.87</ele>
        <time>2018-11-05T06:58:33Z</time>
      </trkpt>
      <trkpt lat="36.8158248346" lon="-2.5589369517">
        <ele>5.42</ele>
        <time>2018-11-05T06:58:42Z</time>
      </trkpt>
      <trkpt lat="36.8158567697" lon="-2.5587699004">
        <ele>5.42</ele>
        <time>2018-11-05T06:58:47Z</time>
      </trkpt>
      <trkpt lat="36.8160320353" lon="-2.5584015157">
        <ele>4.94</ele>
        <time>2018-11-05T06:58:57Z</time>
      </trkpt>
      <trkpt lat="36.8162277527" lon="-2.5581124239">
        <ele>5.42</ele>
        <time>2018-11-05T06:59:06Z</time>
      </trkpt>
      <trkpt lat="36.8162906170" lon="-2.5580493920">
        <ele>5.91</ele>
        <time>2018-11-05T06:59:08Z</time>
      </trkpt>
      <trkpt lat="36.8164284155" lon="-2.5580362324">
        <ele>7.35</ele>
        <time>2018-11-05T06:59:12Z</time>
      </trkpt>
      <trkpt lat="36.8164566625" lon="-2.5580322929">
        <ele>7.83</ele>
        <time>2018-11-05T06:59:13Z</time>
      </trkpt>
      <trkpt lat="36.8164818920" lon="-2.5580164511">
        <ele>8.31</ele>
        <time>2018-11-05T06:59:14Z</time>
      </trkpt>
      <trkpt lat="36.8165007513" lon="-2.5579971727">
        <ele>8.31</ele>
        <time>2018-11-05T06:59:15Z</time>
      </trkpt>
      <trkpt lat="36.8165158387" lon="-2.5579691771">
        <ele>8.79</ele>
        <time>2018-11-05T06:59:16Z</time>
      </trkpt>
      <trkpt lat="36.8165316805" lon="-2.5579352304">
        <ele>8.79</ele>
        <time>2018-11-05T06:59:17Z</time>
      </trkpt>
      <trkpt lat="36.8165471032" lon="-2.5579013675">
        <ele>8.79</ele>
        <time>2018-11-05T06:59:18Z</time>
      </trkpt>
      <trkpt lat="36.8165607657" lon="-2.5578626432">
        <ele>8.79</ele>
        <time>2018-11-05T06:59:19Z</time>
      </trkpt>
      <trkpt lat="36.8166346941" lon="-2.5576269440">
        <ele>9.75</ele>
        <time>2018-11-05T06:59:26Z</time>
      </trkpt>
      <trkpt lat="36.8167220335" lon="-2.5573236868">
        <ele>12.15</ele>
        <time>2018-11-05T06:59:35Z</time>
      </trkpt>
      <trkpt lat="36.8168088701" lon="-2.5569749996">
        <ele>15.04</ele>
        <time>2018-11-05T06:59:45Z</time>
      </trkpt>
      <trkpt lat="36.8168697227" lon="-2.5566807948">
        <ele>17.44</ele>
        <time>2018-11-05T06:59:54Z</time>
      </trkpt>
      <trkpt lat="36.8169337604" lon="-2.5563764479">
        <ele>19.84</ele>
        <time>2018-11-05T07:00:04Z</time>
      </trkpt>
      <trkpt lat="36.8170146458" lon="-2.5560953189">
        <ele>22.25</ele>
        <time>2018-11-05T07:00:14Z</time>
      </trkpt>
      <trkpt lat="36.8171128817" lon="-2.5559674948">
        <ele>23.21</ele>
        <time>2018-11-05T07:00:21Z</time>
      </trkpt>
      <trkpt lat="36.8171257060" lon="-2.5559581071">
        <ele>23.21</ele>
        <time>2018-11-05T07:00:22Z</time>
      </trkpt>
      <trkpt lat="36.8171311542" lon="-2.5559547544">
        <ele>23.69</ele>
        <time>2018-11-05T07:00:27Z</time>
      </trkpt>
      <trkpt lat="36.8171342555" lon="-2.5559431035">
        <ele>24.65</ele>
        <time>2018-11-05T07:00:42Z</time>
      </trkpt>
      <trkpt lat="36.8171466608" lon="-2.5559358113">
        <ele>22.73</ele>
        <time>2018-11-05T07:01:11Z</time>
      </trkpt>
      <trkpt lat="36.8171507679" lon="-2.5559402537">
        <ele>23.21</ele>
        <time>2018-11-05T07:01:30Z</time>
      </trkpt>
      <trkpt lat="36.8171335850" lon="-2.5559400022">
        <ele>22.73</ele>
        <time>2018-11-05T07:01:45Z</time>
      </trkpt>
      <trkpt lat="36.8171420507" lon="-2.5559512340">
        <ele>20.32</ele>
        <time>2018-11-05T07:02:02Z</time>
      </trkpt>
      <trkpt lat="36.8171331659" lon="-2.5559431873">
        <ele>21.77</ele>
        <time>2018-11-05T07:02:18Z</time>
      </trkpt>
      <trkpt lat="36.8171341717" lon="-2.5559306145">
        <ele>21.77</ele>
        <time>2018-11-05T07:02:29Z</time>
      </trkpt>
      <trkpt lat="36.8171023205" lon="-2.5559332967">
        <ele>21.77</ele>
        <time>2018-11-05T07:02:35Z</time>
      </trkpt>
      <trkpt lat="36.8170905858" lon="-2.5559418462">
        <ele>21.77</ele>
        <time>2018-11-05T07:02:36Z</time>
      </trkpt>
      <trkpt lat="36.8170608301" lon="-2.5559003558">
        <ele>21.77</ele>
        <time>2018-11-05T07:02:40Z</time>
      </trkpt>
      <trkpt lat="36.8170675356" lon="-2.5558770541">
        <ele>22.25</ele>
        <time>2018-11-05T07:02:41Z</time>
      </trkpt>
      <trkpt lat="36.8170705531" lon="-2.5558481365">
        <ele>22.25</ele>
        <time>2018-11-05T07:02:42Z</time>
      </trkpt>
      <trkpt lat="36.8170726486" lon="-2.5558270141">
        <ele>22.25</ele>
        <time>2018-11-05T07:02:43Z</time>
      </trkpt>
      <trkpt lat="36.8171148095" lon="-2.5556141976">
        <ele>24.17</ele>
        <time>2018-11-05T07:02:51Z</time>
      </trkpt>
      <trkpt lat="36.8172003049" lon="-2.5553484075">
        <ele>25.13</ele>
        <time>2018-11-05T07:03:01Z</time>
      </trkpt>
      <trkpt lat="36.8172456510" lon="-2.5551625807">
        <ele>26.57</ele>
        <time>2018-11-05T07:03:09Z</time>
      </trkpt>
      <trkpt lat="36.8173040729" lon="-2.5549063459">
        <ele>23.69</ele>
        <time>2018-11-05T07:03:15Z</time>
      </trkpt>
      <trkpt lat="36.8173164781" lon="-2.5548532885">
        <ele>22.73</ele>
        <time>2018-11-05T07:03:19Z</time>
      </trkpt>
      <trkpt lat="36.8173463177" lon="-2.5547511131">
        <ele>21.77</ele>
        <time>2018-11-05T07:03:23Z</time>
      </trkpt>
      <trkpt lat="36.8174398597" lon="-2.5544591714">
        <ele>18.88</ele>
        <time>2018-11-05T07:03:29Z</time>
      </trkpt>
      <trkpt lat="36.8175801728" lon="-2.5540718436">
        <ele>16.48</ele>
        <time>2018-11-05T07:03:37Z</time>
      </trkpt>
      <trkpt lat="36.8177379202" lon="-2.5539150182">
        <ele>16.00</ele>
        <time>2018-11-05T07:03:43Z</time>
      </trkpt>
      <trkpt lat="36.8179784808" lon="-2.5538376532">
        <ele>16.00</ele>
        <time>2018-11-05T07:03:50Z</time>
      </trkpt>
      <trkpt lat="36.8182737753" lon="-2.5537487213">
        <ele>18.88</ele>
        <time>2018-11-05T07:03:58Z</time>
      </trkpt>
      <trkpt lat="36.8182925507" lon="-2.5537078176">
        <ele>19.36</ele>
        <time>2018-11-05T07:03:59Z</time>
      </trkpt>
      <trkpt lat="36.8182959035" lon="-2.5536632258">
        <ele>19.84</ele>
        <time>2018-11-05T07:04:00Z</time>
      </trkpt>
      <trkpt lat="36.8182869349" lon="-2.5536173768">
        <ele>20.32</ele>
        <time>2018-11-05T07:04:01Z</time>
      </trkpt>
      <trkpt lat="36.8182660639" lon="-2.5535708573">
        <ele>20.81</ele>
        <time>2018-11-05T07:04:02Z</time>
      </trkpt>
      <trkpt lat="36.8182383198" lon="-2.5535409339">
        <ele>21.29</ele>
        <time>2018-11-05T07:04:03Z</time>
      </trkpt>
      <trkpt lat="36.8181993440" lon="-2.5535321329">
        <ele>21.29</ele>
        <time>2018-11-05T07:04:04Z</time>
      </trkpt>
      <trkpt lat="36.8181611225" lon="-2.5535361562">
        <ele>21.77</ele>
        <time>2018-11-05T07:04:05Z</time>
      </trkpt>
      <trkpt lat="36.8181240745" lon="-2.5535424426">
        <ele>22.25</ele>
        <time>2018-11-05T07:04:06Z</time>
      </trkpt>
      <trkpt lat="36.8179172929" lon="-2.5535418559">
        <ele>25.61</ele>
        <time>2018-11-05T07:04:13Z</time>
      </trkpt>
      <trkpt lat="36.8178756349" lon="-2.5534806680">
        <ele>26.57</ele>
        <time>2018-11-05T07:04:16Z</time>
      </trkpt>
      <trkpt lat="36.8178692646" lon="-2.5534588750">
        <ele>26.57</ele>
        <time>2018-11-05T07:04:17Z</time>
      </trkpt>
      <trkpt lat="36.8178565241" lon="-2.5533948373">
        <ele>27.53</ele>
        <time>2018-11-05T07:04:20Z</time>
      </trkpt>
      <trkpt lat="36.8178482261" lon="-2.5533820968">
        <ele>27.53</ele>
        <time>2018-11-05T07:04:21Z</time>
      </trkpt>
      <trkpt lat="36.8178540096" lon="-2.5533784088">
        <ele>28.02</ele>
        <time>2018-11-05T07:04:27Z</time>
      </trkpt>
      <trkpt lat="36.8178135250" lon="-2.5533349905">
        <ele>28.50</ele>
        <time>2018-11-05T07:04:34Z</time>
      </trkpt>
      <trkpt lat="36.8177711125" lon="-2.5530888140">
        <ele>27.53</ele>
        <time>2018-11-05T07:04:40Z</time>
      </trkpt>
      <trkpt lat="36.8177421950" lon="-2.5525090378">
        <ele>26.57</ele>
        <time>2018-11-05T07:04:50Z</time>
      </trkpt>
      <trkpt lat="36.8177514151" lon="-2.5518826582">
        <ele>25.61</ele>
        <time>2018-11-05T07:05:00Z</time>
      </trkpt>
      <trkpt lat="36.8177764770" lon="-2.5511615630">
        <ele>26.57</ele>
        <time>2018-11-05T07:05:12Z</time>
      </trkpt>
      <trkpt lat="36.8178476393" lon="-2.5503910147">
        <ele>27.05</ele>
        <time>2018-11-05T07:05:24Z</time>
      </trkpt>
      <trkpt lat="36.8179168738" lon="-2.5496346317">
        <ele>27.53</ele>
        <time>2018-11-05T07:05:36Z</time>
      </trkpt>
      <trkpt lat="36.8179291952" lon="-2.5489946734">
        <ele>28.02</ele>
        <time>2018-11-05T07:05:47Z</time>
      </trkpt>
      <trkpt lat="36.8178810831" lon="-2.5485184975">
        <ele>28.50</ele>
        <time>2018-11-05T07:05:55Z</time>
      </trkpt>
      <trkpt lat="36.8178111780" lon="-2.5479629450">
        <ele>29.94</ele>
        <time>2018-11-05T07:06:05Z</time>
      </trkpt>
      <trkpt lat="36.8178227451" lon="-2.5475416705">
        <ele>30.42</ele>
        <time>2018-11-05T07:06:13Z</time>
      </trkpt>
      <trkpt lat="36.8178972602" lon="-2.5470104255">
        <ele>30.90</ele>
        <time>2018-11-05T07:06:22Z</time>
      </trkpt>
      <trkpt lat="36.8179334700" lon="-2.5462598260">
        <ele>31.86</ele>
        <time>2018-11-05T07:06:34Z</time>
      </trkpt>
      <trkpt lat="36.8178867828" lon="-2.5456234720">
        <ele>32.34</ele>
        <time>2018-11-05T07:06:44Z</time>
      </trkpt>
      <trkpt lat="36.8178079091" lon="-2.5450075697">
        <ele>30.42</ele>
        <time>2018-11-05T07:06:54Z</time>
      </trkpt>
      <trkpt lat="36.8178468011" lon="-2.5444820244">
        <ele>29.46</ele>
        <time>2018-11-05T07:07:02Z</time>
      </trkpt>
      <trkpt lat="36.8179322965" lon="-2.5442002248">
        <ele>28.50</ele>
        <time>2018-11-05T07:07:06Z</time>
      </trkpt>
      <trkpt lat="36.8179624714" lon="-2.5441340078">
        <ele>28.02</ele>
        <time>2018-11-05T07:07:07Z</time>
      </trkpt>
      <trkpt lat="36.8179950770" lon="-2.5440700538">
        <ele>28.02</ele>
        <time>2018-11-05T07:07:08Z</time>
      </trkpt>
      <trkpt lat="36.8183393218" lon="-2.5435638707">
        <ele>26.09</ele>
        <time>2018-11-05T07:07:16Z</time>
      </trkpt>
      <trkpt lat="36.8186746817" lon="-2.5430835038">
        <ele>25.13</ele>
        <time>2018-11-05T07:07:24Z</time>
      </trkpt>
      <trkpt lat="36.8188875820" lon="-2.5426091719">
        <ele>25.13</ele>
        <time>2018-11-05T07:07:32Z</time>
      </trkpt>
      <trkpt lat="36.8189790286" lon="-2.5420270488">
        <ele>25.13</ele>
        <time>2018-11-05T07:07:41Z</time>
      </trkpt>
      <trkpt lat="36.8190287333" lon="-2.5414683949">
        <ele>26.57</ele>
        <time>2018-11-05T07:07:50Z</time>
      </trkpt>
      <trkpt lat="36.8190815393" lon="-2.5406997744">
        <ele>27.05</ele>
        <time>2018-11-05T07:08:02Z</time>
      </trkpt>
      <trkpt lat="36.8191019911" lon="-2.5399064273">
        <ele>27.53</ele>
        <time>2018-11-05T07:08:14Z</time>
      </trkpt>
      <trkpt lat="36.8191560544" lon="-2.5393071212">
        <ele>27.53</ele>
        <time>2018-11-05T07:08:23Z</time>
      </trkpt>
      <trkpt lat="36.8192915898" lon="-2.5387287699">
        <ele>27.05</ele>
        <time>2018-11-05T07:08:32Z</time>
      </trkpt>
      <trkpt lat="36.8194687832" lon="-2.5380683597">
        <ele>25.61</ele>
        <time>2018-11-05T07:08:42Z</time>
      </trkpt>
      <trkpt lat="36.8195504230" lon="-2.5375273079">
        <ele>26.09</ele>
        <time>2018-11-05T07:08:51Z</time>
      </trkpt>
      <trkpt lat="36.8195702881" lon="-2.5368985813">
        <ele>26.57</ele>
        <time>2018-11-05T07:09:01Z</time>
      </trkpt>
      <trkpt lat="36.8195631634" lon="-2.5368280057">
        <ele>26.57</ele>
        <time>2018-11-05T07:09:02Z</time>
      </trkpt>
      <trkpt lat="36.8195514288" lon="-2.5367702544">
        <ele>26.57</ele>
        <time>2018-11-05T07:09:03Z</time>
      </trkpt>
      <trkpt lat="36.8194551207" lon="-2.5363490637">
        <ele>28.02</ele>
        <time>2018-11-05T07:09:11Z</time>
      </trkpt>
      <trkpt lat="36.8193853833" lon="-2.5360458065">
        <ele>28.98</ele>
        <time>2018-11-05T07:09:19Z</time>
      </trkpt>
      <trkpt lat="36.8193672784" lon="-2.5358809344">
        <ele>29.94</ele>
        <time>2018-11-05T07:09:25Z</time>
      </trkpt>
      <trkpt lat="36.8193588965" lon="-2.5357495062">
        <ele>29.94</ele>
        <time>2018-11-05T07:09:32Z</time>
      </trkpt>
      <trkpt lat="36.8193636741" lon="-2.5357500091">
        <ele>29.46</ele>
        <time>2018-11-05T07:09:44Z</time>
      </trkpt>
      <trkpt lat="36.8193713017" lon="-2.5357533619">
        <ele>28.98</ele>
        <time>2018-11-05T07:09:59Z</time>
      </trkpt>
      <trkpt lat="36.8193872273" lon="-2.5357453991">
        <ele>28.02</ele>
        <time>2018-11-05T07:10:21Z</time>
      </trkpt>
      <trkpt lat="36.8194035720" lon="-2.5357371010">
        <ele>26.57</ele>
        <time>2018-11-05T07:10:36Z</time>
      </trkpt>
      <trkpt lat="36.8194301426" lon="-2.5357180741">
        <ele>25.13</ele>
        <time>2018-11-05T07:10:55Z</time>
      </trkpt>
      <trkpt lat="36.8194269575" lon="-2.5357165653">
        <ele>24.65</ele>
        <time>2018-11-05T07:11:11Z</time>
      </trkpt>
      <trkpt lat="36.8194108643" lon="-2.5357219297">
        <ele>25.13</ele>
        <time>2018-11-05T07:11:20Z</time>
      </trkpt>
      <trkpt lat="36.8193966150" lon="-2.5357215945">
        <ele>26.09</ele>
        <time>2018-11-05T07:11:29Z</time>
      </trkpt>
      <trkpt lat="36.8194003869" lon="-2.5357107818">
        <ele>26.09</ele>
        <time>2018-11-05T07:11:30Z</time>
      </trkpt>
      <trkpt lat="36.8193966150" lon="-2.5356019847">
        <ele>26.57</ele>
        <time>2018-11-05T07:11:35Z</time>
      </trkpt>
      <trkpt lat="36.8193723075" lon="-2.5353106298">
        <ele>26.57</ele>
        <time>2018-11-05T07:11:43Z</time>
      </trkpt>
      <trkpt lat="36.8193383608" lon="-2.5349111483">
        <ele>25.61</ele>
        <time>2018-11-05T07:11:52Z</time>
      </trkpt>
      <trkpt lat="36.8192702997" lon="-2.5344058033">
        <ele>25.13</ele>
        <time>2018-11-05T07:12:02Z</time>
      </trkpt>
      <trkpt lat="36.8191743270" lon="-2.5339259394">
        <ele>24.65</ele>
        <time>2018-11-05T07:12:12Z</time>
      </trkpt>
      <trkpt lat="36.8191780988" lon="-2.5338767376">
        <ele>25.13</ele>
        <time>2018-11-05T07:12:13Z</time>
      </trkpt>
      <trkpt lat="36.8191874865" lon="-2.5338246860">
        <ele>25.13</ele>
        <time>2018-11-05T07:12:14Z</time>
      </trkpt>
      <trkpt lat="36.8192018196" lon="-2.5337774120">
        <ele>25.61</ele>
        <time>2018-11-05T07:12:15Z</time>
      </trkpt>
      <trkpt lat="36.8192217685" lon="-2.5337248575">
        <ele>25.61</ele>
        <time>2018-11-05T07:12:16Z</time>
      </trkpt>
      <trkpt lat="36.8192427233" lon="-2.5336788408">
        <ele>25.61</ele>
        <time>2018-11-05T07:12:17Z</time>
      </trkpt>
      <trkpt lat="36.8192696292" lon="-2.5336281303">
        <ele>26.09</ele>
        <time>2018-11-05T07:12:18Z</time>
      </trkpt>
      <trkpt lat="36.8194497563" lon="-2.5332195964">
        <ele>26.09</ele>
        <time>2018-11-05T07:12:26Z</time>
      </trkpt>
      <trkpt lat="36.8194592278" lon="-2.5331657007">
        <ele>26.09</ele>
        <time>2018-11-05T07:12:27Z</time>
      </trkpt>
      <trkpt lat="36.8194705434" lon="-2.5328111462">
        <ele>26.57</ele>
        <time>2018-11-05T07:12:33Z</time>
      </trkpt>
      <trkpt lat="36.8194873910" lon="-2.5326318573">
        <ele>26.57</ele>
        <time>2018-11-05T07:12:36Z</time>
      </trkpt>
      <trkpt lat="36.8195008021" lon="-2.5325751957">
        <ele>26.57</ele>
        <time>2018-11-05T07:12:37Z</time>
      </trkpt>
      <trkpt lat="36.8195184041" lon="-2.5325229764">
        <ele>26.57</ele>
        <time>2018-11-05T07:12:38Z</time>
      </trkpt>
      <trkpt lat="36.8195471540" lon="-2.5324647222">
        <ele>26.57</ele>
        <time>2018-11-05T07:12:39Z</time>
      </trkpt>
      <trkpt lat="36.8195818551" lon="-2.5324195437">
        <ele>26.57</ele>
        <time>2018-11-05T07:12:40Z</time>
      </trkpt>
      <trkpt lat="36.8196224235" lon="-2.5323869381">
        <ele>26.57</ele>
        <time>2018-11-05T07:12:41Z</time>
      </trkpt>
      <trkpt lat="36.8196707033" lon="-2.5323612057">
        <ele>26.57</ele>
        <time>2018-11-05T07:12:42Z</time>
      </trkpt>
      <trkpt lat="36.8197142892" lon="-2.5323413406">
        <ele>26.57</ele>
        <time>2018-11-05T07:12:43Z</time>
      </trkpt>
      <trkpt lat="36.8197677657" lon="-2.5323140994">
        <ele>26.09</ele>
        <time>2018-11-05T07:12:44Z</time>
      </trkpt>
      <trkpt lat="36.8199115992" lon="-2.5322542526">
        <ele>26.57</ele>
        <time>2018-11-05T07:12:47Z</time>
      </trkpt>
      <trkpt lat="36.8199664168" lon="-2.5322431885">
        <ele>26.57</ele>
        <time>2018-11-05T07:12:48Z</time>
      </trkpt>
      <trkpt lat="36.8200089969" lon="-2.5322444458">
        <ele>27.05</ele>
        <time>2018-11-05T07:12:49Z</time>
      </trkpt>
      <trkpt lat="36.8200587854" lon="-2.5322612934">
        <ele>27.05</ele>
        <time>2018-11-05T07:12:50Z</time>
      </trkpt>
      <trkpt lat="36.8200982641" lon="-2.5322857685">
        <ele>27.53</ele>
        <time>2018-11-05T07:12:51Z</time>
      </trkpt>
      <trkpt lat="36.8201386649" lon="-2.5323177036">
        <ele>27.53</ele>
        <time>2018-11-05T07:12:52Z</time>
      </trkpt>
      <trkpt lat="36.8201717734" lon="-2.5323473755">
        <ele>28.02</ele>
        <time>2018-11-05T07:12:53Z</time>
      </trkpt>
      <trkpt lat="36.8203602824" lon="-2.5325438473">
        <ele>28.02</ele>
        <time>2018-11-05T07:13:00Z</time>
      </trkpt>
      <trkpt lat="36.8205932993" lon="-2.5326830707">
        <ele>28.50</ele>
        <time>2018-11-05T07:13:07Z</time>
      </trkpt>
      <trkpt lat="36.8207821436" lon="-2.5327447616">
        <ele>29.46</ele>
        <time>2018-11-05T07:13:12Z</time>
      </trkpt>
      <trkpt lat="36.8208189402" lon="-2.5327414088">
        <ele>29.94</ele>
        <time>2018-11-05T07:13:13Z</time>
      </trkpt>
      <trkpt lat="36.8208605982" lon="-2.5327336136">
        <ele>29.94</ele>
        <time>2018-11-05T07:13:14Z</time>
      </trkpt>
      <trkpt lat="36.8208951317" lon="-2.5327226333">
        <ele>29.94</ele>
        <time>2018-11-05T07:13:15Z</time>
      </trkpt>
      <trkpt lat="36.8209354486" lon="-2.5327058695">
        <ele>29.94</ele>
        <time>2018-11-05T07:13:16Z</time>
      </trkpt>
      <trkpt lat="36.8209762685" lon="-2.5326896925">
        <ele>29.46</ele>
        <time>2018-11-05T07:13:17Z</time>
      </trkpt>
      <trkpt lat="36.8210176751" lon="-2.5326758623">
        <ele>29.94</ele>
        <time>2018-11-05T07:13:18Z</time>
      </trkpt>
      <trkpt lat="36.8213611655" lon="-2.5325838290">
        <ele>30.42</ele>
        <time>2018-11-05T07:13:25Z</time>
      </trkpt>
      <trkpt lat="36.8217338249" lon="-2.5324233994">
        <ele>32.34</ele>
        <time>2018-11-05T07:13:32Z</time>
      </trkpt>
      <trkpt lat="36.8220538460" lon="-2.5321636442">
        <ele>31.86</ele>
        <time>2018-11-05T07:13:39Z</time>
      </trkpt>
      <trkpt lat="36.8224043772" lon="-2.5316440500">
        <ele>32.34</ele>
        <time>2018-11-05T07:13:49Z</time>
      </trkpt>
      <trkpt lat="36.8226683233" lon="-2.5310807023">
        <ele>33.78</ele>
        <time>2018-11-05T07:13:59Z</time>
      </trkpt>
      <trkpt lat="36.8229560740" lon="-2.5304559991">
        <ele>35.71</ele>
        <time>2018-11-05T07:14:11Z</time>
      </trkpt>
      <trkpt lat="36.8231927790" lon="-2.5299409311">
        <ele>37.15</ele>
        <time>2018-11-05T07:14:21Z</time>
      </trkpt>
      <trkpt lat="36.8234016560" lon="-2.5294816867">
        <ele>37.15</ele>
        <time>2018-11-05T07:14:31Z</time>
      </trkpt>
      <trkpt lat="36.8236496765" lon="-2.5289177522">
        <ele>37.63</ele>
        <time>2018-11-05T07:14:43Z</time>
      </trkpt>
      <trkpt lat="36.8236714695" lon="-2.5288677961">
        <ele>37.63</ele>
        <time>2018-11-05T07:14:44Z</time>
      </trkpt>
      <trkpt lat="36.8236942682" lon="-2.5288164988">
        <ele>37.63</ele>
        <time>2018-11-05T07:14:45Z</time>
      </trkpt>
      <trkpt lat="36.8238959368" lon="-2.5283037778">
        <ele>36.67</ele>
        <time>2018-11-05T07:14:55Z</time>
      </trkpt>
      <trkpt lat="36.8241614755" lon="-2.5276459660">
        <ele>35.23</ele>
        <time>2018-11-05T07:15:07Z</time>
      </trkpt>
      <trkpt lat="36.8244649842" lon="-2.5270251185">
        <ele>34.26</ele>
        <time>2018-11-05T07:15:17Z</time>
      </trkpt>
      <trkpt lat="36.8249124940" lon="-2.5262320228">
        <ele>33.30</ele>
        <time>2018-11-05T07:15:29Z</time>
      </trkpt>
      <trkpt lat="36.8251163419" lon="-2.5256969221">
        <ele>33.78</ele>
        <time>2018-11-05T07:15:37Z</time>
      </trkpt>
      <trkpt lat="36.8252096325" lon="-2.5251768250">
        <ele>33.78</ele>
        <time>2018-11-05T07:15:45Z</time>
      </trkpt>
      <trkpt lat="36.8252435792" lon="-2.5244615972">
        <ele>35.71</ele>
        <time>2018-11-05T07:15:56Z</time>
      </trkpt>
      <trkpt lat="36.8252640311" lon="-2.5239977427">
        <ele>36.67</ele>
        <time>2018-11-05T07:16:04Z</time>
      </trkpt>
      <trkpt lat="36.8253238779" lon="-2.5234232470">
        <ele>36.67</ele>
        <time>2018-11-05T07:16:14Z</time>
      </trkpt>
      <trkpt lat="36.8254549708" lon="-2.5227759965">
        <ele>37.15</ele>
        <time>2018-11-05T07:16:25Z</time>
      </trkpt>
      <trkpt lat="36.8255564757" lon="-2.5223976374">
        <ele>37.15</ele>
        <time>2018-11-05T07:16:31Z</time>
      </trkpt>
      <trkpt lat="36.8255662825" lon="-2.5223336834">
        <ele>37.15</ele>
        <time>2018-11-05T07:16:32Z</time>
      </trkpt>
      <trkpt lat="36.8256296497" lon="-2.5217899494">
        <ele>36.67</ele>
        <time>2018-11-05T07:16:41Z</time>
      </trkpt>
      <trkpt lat="36.8256505206" lon="-2.5214347243">
        <ele>39.55</ele>
        <time>2018-11-05T07:16:48Z</time>
      </trkpt>
      <trkpt lat="36.8255659472" lon="-2.5211441237">
        <ele>40.99</ele>
        <time>2018-11-05T07:16:54Z</time>
      </trkpt>
      <trkpt lat="36.8254935276" lon="-2.5209665950">
        <ele>41.95</ele>
        <time>2018-11-05T07:17:00Z</time>
      </trkpt>
      <trkpt lat="36.8254928570" lon="-2.5209629070">
        <ele>41.47</ele>
        <time>2018-11-05T07:17:06Z</time>
      </trkpt>
      <trkpt lat="36.8255268037" lon="-2.5209618174">
        <ele>39.55</ele>
        <time>2018-11-05T07:17:23Z</time>
      </trkpt>
      <trkpt lat="36.8255354371" lon="-2.5209619012">
        <ele>39.07</ele>
        <time>2018-11-05T07:17:36Z</time>
      </trkpt>
      <trkpt lat="36.8255408015" lon="-2.5209650025">
        <ele>39.07</ele>
        <time>2018-11-05T07:17:49Z</time>
      </trkpt>
      <trkpt lat="36.8255383708" lon="-2.5209662598">
        <ele>40.03</ele>
        <time>2018-11-05T07:18:03Z</time>
      </trkpt>
      <trkpt lat="36.8255246244" lon="-2.5209503341">
        <ele>39.55</ele>
        <time>2018-11-05T07:18:18Z</time>
      </trkpt>
      <trkpt lat="36.8255180027" lon="-2.5209438801">
        <ele>39.07</ele>
        <time>2018-11-05T07:18:33Z</time>
      </trkpt>
      <trkpt lat="36.8255190924" lon="-2.5209318940">
        <ele>38.59</ele>
        <time>2018-11-05T07:18:37Z</time>
      </trkpt>
      <trkpt lat="36.8255186733" lon="-2.5209163036">
        <ele>38.59</ele>
        <time>2018-11-05T07:18:38Z</time>
      </trkpt>
      <trkpt lat="36.8255168293" lon="-2.5208993722">
        <ele>38.59</ele>
        <time>2018-11-05T07:18:39Z</time>
      </trkpt>
      <trkpt lat="36.8255146500" lon="-2.5208811834">
        <ele>38.59</ele>
        <time>2018-11-05T07:18:40Z</time>
      </trkpt>
      <trkpt lat="36.8255091179" lon="-2.5208624918">
        <ele>38.59</ele>
        <time>2018-11-05T07:18:41Z</time>
      </trkpt>
      <trkpt lat="36.8255066872" lon="-2.5208371785">
        <ele>38.59</ele>
        <time>2018-11-05T07:18:42Z</time>
      </trkpt>
      <trkpt lat="36.8255017418" lon="-2.5208175648">
        <ele>38.59</ele>
        <time>2018-11-05T07:18:43Z</time>
      </trkpt>
      <trkpt lat="36.8254903425" lon="-2.5207940117">
        <ele>38.59</ele>
        <time>2018-11-05T07:18:44Z</time>
      </trkpt>
      <trkpt lat="36.8254128937" lon="-2.5205389503">
        <ele>37.15</ele>
        <time>2018-11-05T07:18:51Z</time>
      </trkpt>
      <trkpt lat="36.8253660388" lon="-2.5203868188">
        <ele>36.67</ele>
        <time>2018-11-05T07:18:57Z</time>
      </trkpt>
      <trkpt lat="36.8252734188" lon="-2.5201351941">
        <ele>35.71</ele>
        <time>2018-11-05T07:19:04Z</time>
      </trkpt>
      <trkpt lat="36.8250944652" lon="-2.5198745169">
        <ele>32.82</ele>
        <time>2018-11-05T07:19:11Z</time>
      </trkpt>
      <trkpt lat="36.8250622787" lon="-2.5198336132">
        <ele>32.34</ele>
        <time>2018-11-05T07:19:12Z</time>
      </trkpt>
      <trkpt lat="36.8249761127" lon="-2.5197195355">
        <ele>30.42</ele>
        <time>2018-11-05T07:19:15Z</time>
      </trkpt>
      <trkpt lat="36.8249452673" lon="-2.5196770392">
        <ele>29.94</ele>
        <time>2018-11-05T07:19:16Z</time>
      </trkpt>
      <trkpt lat="36.8247891124" lon="-2.5194393285">
        <ele>28.50</ele>
        <time>2018-11-05T07:19:21Z</time>
      </trkpt>
      <trkpt lat="36.8247638829" lon="-2.5193787273">
        <ele>28.02</ele>
        <time>2018-11-05T07:19:22Z</time>
      </trkpt>
      <trkpt lat="36.8247464485" lon="-2.5193085708">
        <ele>28.02</ele>
        <time>2018-11-05T07:19:23Z</time>
      </trkpt>
      <trkpt lat="36.8247389048" lon="-2.5192323793">
        <ele>27.53</ele>
        <time>2018-11-05T07:19:24Z</time>
      </trkpt>
      <trkpt lat="36.8247377314" lon="-2.5191481411">
        <ele>27.53</ele>
        <time>2018-11-05T07:19:25Z</time>
      </trkpt>
      <trkpt lat="36.8247369770" lon="-2.5190622266">
        <ele>27.05</ele>
        <time>2018-11-05T07:19:26Z</time>
      </trkpt>
      <trkpt lat="36.8247518968" lon="-2.5183709711">
        <ele>24.65</ele>
        <time>2018-11-05T07:19:33Z</time>
      </trkpt>
      <trkpt lat="36.8247621227" lon="-2.5181724876">
        <ele>24.17</ele>
        <time>2018-11-05T07:19:35Z</time>
      </trkpt>
      <trkpt lat="36.8247585185" lon="-2.5180762634">
        <ele>23.69</ele>
        <time>2018-11-05T07:19:36Z</time>
      </trkpt>
      <trkpt lat="36.8247484602" lon="-2.5179755967">
        <ele>23.21</ele>
        <time>2018-11-05T07:19:37Z</time>
      </trkpt>
      <trkpt lat="36.8247234821" lon="-2.5176290888">
        <ele>21.77</ele>
        <time>2018-11-05T07:19:41Z</time>
      </trkpt>
      <trkpt lat="36.8247370608" lon="-2.5175492931">
        <ele>21.29</ele>
        <time>2018-11-05T07:19:42Z</time>
      </trkpt>
      <trkpt lat="36.8247637153" lon="-2.5174738560">
        <ele>20.81</ele>
        <time>2018-11-05T07:19:43Z</time>
      </trkpt>
      <trkpt lat="36.8248081394" lon="-2.5174068008">
        <ele>20.32</ele>
        <time>2018-11-05T07:19:44Z</time>
      </trkpt>
      <trkpt lat="36.8248637114" lon="-2.5173594430">
        <ele>20.32</ele>
        <time>2018-11-05T07:19:45Z</time>
      </trkpt>
      <trkpt lat="36.8249323592" lon="-2.5173256639">
        <ele>19.84</ele>
        <time>2018-11-05T07:19:46Z</time>
      </trkpt>
      <trkpt lat="36.8250037730" lon="-2.5173055474">
        <ele>19.84</ele>
        <time>2018-11-05T07:19:47Z</time>
      </trkpt>
      <trkpt lat="36.8250877596" lon="-2.5172876101">
        <ele>19.36</ele>
        <time>2018-11-05T07:19:48Z</time>
      </trkpt>
      <trkpt lat="36.8254801165" lon="-2.5171817467">
        <ele>18.88</ele>
        <time>2018-11-05T07:19:53Z</time>
      </trkpt>
      <trkpt lat="36.8255443219" lon="-2.5171413459">
        <ele>18.88</ele>
        <time>2018-11-05T07:19:54Z</time>
      </trkpt>
      <trkpt lat="36.8255962897" lon="-2.5170882884">
        <ele>18.88</ele>
        <time>2018-11-05T07:19:55Z</time>
      </trkpt>
      <trkpt lat="36.8256495148" lon="-2.5170134380">
        <ele>18.88</ele>
        <time>2018-11-05T07:19:56Z</time>
      </trkpt>
      <trkpt lat="36.8256855570" lon="-2.5169527531">
        <ele>18.88</ele>
        <time>2018-11-05T07:19:57Z</time>
      </trkpt>
      <trkpt lat="36.8259480782" lon="-2.5164841209">
        <ele>19.36</ele>
        <time>2018-11-05T07:20:05Z</time>
      </trkpt>
      <trkpt lat="36.8261257745" lon="-2.5161532871">
        <ele>19.36</ele>
        <time>2018-11-05T07:20:12Z</time>
      </trkpt>
      <trkpt lat="36.8261795025" lon="-2.5160652772">
        <ele>19.36</ele>
        <time>2018-11-05T07:20:15Z</time>
      </trkpt>
      <trkpt lat="36.8262123596" lon="-2.5160560571">
        <ele>19.36</ele>
        <time>2018-11-05T07:20:16Z</time>
      </trkpt>
      <trkpt lat="36.8262381759" lon="-2.5160595775">
        <ele>19.36</ele>
        <time>2018-11-05T07:20:17Z</time>
      </trkpt>
      <trkpt lat="36.8262710329" lon="-2.5160772633">
        <ele>19.36</ele>
        <time>2018-11-05T07:20:18Z</time>
      </trkpt>
      <trkpt lat="36.8262954243" lon="-2.5160977151">
        <ele>19.36</ele>
        <time>2018-11-05T07:20:19Z</time>
      </trkpt>
      <trkpt lat="36.8263241742" lon="-2.5161253754">
        <ele>19.36</ele>
        <time>2018-11-05T07:20:21Z</time>
      </trkpt>
      <trkpt lat="36.8264690135" lon="-2.5163450651">
        <ele>21.77</ele>
        <time>2018-11-05T07:20:28Z</time>
      </trkpt>
      <trkpt lat="36.8266141042" lon="-2.5166675169">
        <ele>24.65</ele>
        <time>2018-11-05T07:20:38Z</time>
      </trkpt>
      <trkpt lat="36.8266678322" lon="-2.5168012083">
        <ele>27.53</ele>
        <time>2018-11-05T07:20:44Z</time>
      </trkpt>
      <trkpt lat="36.8266770523" lon="-2.5168156251">
        <ele>28.02</ele>
        <time>2018-11-05T07:20:45Z</time>
      </trkpt>
      <trkpt lat="36.8266970012" lon="-2.5168259349">
        <ele>28.02</ele>
        <time>2018-11-05T07:20:46Z</time>
      </trkpt>
      <trkpt lat="36.8267152738" lon="-2.5168239232">
        <ele>28.02</ele>
        <time>2018-11-05T07:20:47Z</time>
      </trkpt>
      <trkpt lat="36.8267323729" lon="-2.5168139488">
        <ele>28.50</ele>
        <time>2018-11-05T07:20:48Z</time>
      </trkpt>
      <trkpt lat="36.8267388269" lon="-2.5167965982">
        <ele>28.50</ele>
        <time>2018-11-05T07:20:49Z</time>
      </trkpt>
      <trkpt lat="36.8267432693" lon="-2.5167674292">
        <ele>28.98</ele>
        <time>2018-11-05T07:20:50Z</time>
      </trkpt>
      <trkpt lat="36.8267410900" lon="-2.5167431217">
        <ele>28.98</ele>
        <time>2018-11-05T07:20:51Z</time>
      </trkpt>
      <trkpt lat="36.8267320376" lon="-2.5167166349">
        <ele>28.98</ele>
        <time>2018-11-05T07:20:52Z</time>
      </trkpt>
      <trkpt lat="36.8267182913" lon="-2.5166877173">
        <ele>29.46</ele>
        <time>2018-11-05T07:20:53Z</time>
      </trkpt>
      <trkpt lat="36.8266086560" lon="-2.5164270401">
        <ele>28.98</ele>
        <time>2018-11-05T07:21:01Z</time>
      </trkpt>
      <trkpt lat="36.8263990246" lon="-2.5160682946">
        <ele>28.02</ele>
        <time>2018-11-05T07:21:10Z</time>
      </trkpt>
      <trkpt lat="36.8261072505" lon="-2.5156414881">
        <ele>25.13</ele>
        <time>2018-11-05T07:21:18Z</time>
      </trkpt>
      <trkpt lat="36.8257158995" lon="-2.5150643941">
        <ele>23.21</ele>
        <time>2018-11-05T07:21:27Z</time>
      </trkpt>
      <trkpt lat="36.8253558129" lon="-2.5144623220">
        <ele>24.17</ele>
        <time>2018-11-05T07:21:36Z</time>
      </trkpt>
      <trkpt lat="36.8252101354" lon="-2.5138901733">
        <ele>24.17</ele>
        <time>2018-11-05T07:21:43Z</time>
      </trkpt>
      <trkpt lat="36.8252268154" lon="-2.5133678131">
        <ele>23.69</ele>
        <time>2018-11-05T07:21:49Z</time>
      </trkpt>
      <trkpt lat="36.8253912684" lon="-2.5127720274">
        <ele>24.17</ele>
        <time>2018-11-05T07:21:56Z</time>
      </trkpt>
      <trkpt lat="36.8257210962" lon="-2.5118320808">
        <ele>23.21</ele>
        <time>2018-11-05T07:22:08Z</time>
      </trkpt>
      <trkpt lat="36.8258063402" lon="-2.5110739376">
        <ele>22.25</ele>
        <time>2018-11-05T07:22:19Z</time>
      </trkpt>
      <trkpt lat="36.8256791867" lon="-2.5105170440">
        <ele>21.77</ele>
        <time>2018-11-05T07:22:26Z</time>
      </trkpt>
      <trkpt lat="36.8254136480" lon="-2.5098643452">
        <ele>22.25</ele>
        <time>2018-11-05T07:22:36Z</time>
      </trkpt>
      <trkpt lat="36.8251350336" lon="-2.5092158373">
        <ele>21.29</ele>
        <time>2018-11-05T07:22:46Z</time>
      </trkpt>
      <trkpt lat="36.8248367216" lon="-2.5084863603">
        <ele>21.29</ele>
        <time>2018-11-05T07:22:57Z</time>
      </trkpt>
      <trkpt lat="36.8246650603" lon="-2.5078378525">
        <ele>20.32</ele>
        <time>2018-11-05T07:23:06Z</time>
      </trkpt>
      <trkpt lat="36.8246340472" lon="-2.5073925219">
        <ele>18.40</ele>
        <time>2018-11-05T07:23:12Z</time>
      </trkpt>
      <trkpt lat="36.8247064669" lon="-2.5066800602">
        <ele>19.36</ele>
        <time>2018-11-05T07:23:22Z</time>
      </trkpt>
      <trkpt lat="36.8248524796" lon="-2.5060103461">
        <ele>20.81</ele>
        <time>2018-11-05T07:23:32Z</time>
      </trkpt>
      <trkpt lat="36.8249497097" lon="-2.5055283867">
        <ele>20.81</ele>
        <time>2018-11-05T07:23:41Z</time>
      </trkpt>
      <trkpt lat="36.8250527233" lon="-2.5050380453">
        <ele>22.25</ele>
        <time>2018-11-05T07:23:50Z</time>
      </trkpt>
      <trkpt lat="36.8251228798" lon="-2.5044839177">
        <ele>24.17</ele>
        <time>2018-11-05T07:24:00Z</time>
      </trkpt>
      <trkpt lat="36.8251457624" lon="-2.5038490724">
        <ele>26.09</ele>
        <time>2018-11-05T07:24:12Z</time>
      </trkpt>
      <trkpt lat="36.8251674715" lon="-2.5033495110">
        <ele>28.02</ele>
        <time>2018-11-05T07:24:22Z</time>
      </trkpt>
      <trkpt lat="36.8252612650" lon="-2.5028478540">
        <ele>29.94</ele>
        <time>2018-11-05T07:24:32Z</time>
      </trkpt>
      <trkpt lat="36.8253924418" lon="-2.5024653878">
        <ele>31.38</ele>
        <time>2018-11-05T07:24:40Z</time>
      </trkpt>
      <trkpt lat="36.8256531190" lon="-2.5018826779">
        <ele>31.86</ele>
        <time>2018-11-05T07:24:52Z</time>
      </trkpt>
      <trkpt lat="36.8259132933" lon="-2.5012983754">
        <ele>33.30</ele>
        <time>2018-11-05T07:25:04Z</time>
      </trkpt>
      <trkpt lat="36.8261883035" lon="-2.5007271487">
        <ele>34.26</ele>
        <time>2018-11-05T07:25:16Z</time>
      </trkpt>
      <trkpt lat="36.8264989369" lon="-2.5001540780">
        <ele>34.74</ele>
        <time>2018-11-05T07:25:27Z</time>
      </trkpt>
      <trkpt lat="36.8268119171" lon="-2.4995235913">
        <ele>33.30</ele>
        <time>2018-11-05T07:25:38Z</time>
      </trkpt>
      <trkpt lat="36.8270145077" lon="-2.4988000654">
        <ele>31.86</ele>
        <time>2018-11-05T07:25:49Z</time>
      </trkpt>
      <trkpt lat="36.8271966465" lon="-2.4981518090">
        <ele>30.42</ele>
        <time>2018-11-05T07:25:58Z</time>
      </trkpt>
      <trkpt lat="36.8274481036" lon="-2.4974710308">
        <ele>28.98</ele>
        <time>2018-11-05T07:26:07Z</time>
      </trkpt>
      <trkpt lat="36.8278390355" lon="-2.4965928588">
        <ele>27.05</ele>
        <time>2018-11-05T07:26:18Z</time>
      </trkpt>
      <trkpt lat="36.8281480763" lon="-2.4959220551">
        <ele>27.53</ele>
        <time>2018-11-05T07:26:27Z</time>
      </trkpt>
      <trkpt lat="36.8284649123" lon="-2.4954866990">
        <ele>28.02</ele>
        <time>2018-11-05T07:26:35Z</time>
      </trkpt>
      <trkpt lat="36.8287747912" lon="-2.4950078409">
        <ele>28.98</ele>
        <time>2018-11-05T07:26:43Z</time>
      </trkpt>
      <trkpt lat="36.8289578520" lon="-2.4945251271">
        <ele>28.98</ele>
        <time>2018-11-05T07:26:51Z</time>
      </trkpt>
      <trkpt lat="36.8290884420" lon="-2.4939106498">
        <ele>28.02</ele>
        <time>2018-11-05T07:27:01Z</time>
      </trkpt>
      <trkpt lat="36.8291042000" lon="-2.4933265988">
        <ele>28.02</ele>
        <time>2018-11-05T07:27:10Z</time>
      </trkpt>
      <trkpt lat="36.8290472031" lon="-2.4926306494">
        <ele>28.50</ele>
        <time>2018-11-05T07:27:21Z</time>
      </trkpt>
      <trkpt lat="36.8290247396" lon="-2.4925747421">
        <ele>28.50</ele>
        <time>2018-11-05T07:27:22Z</time>
      </trkpt>
      <trkpt lat="36.8289995100" lon="-2.4925157335">
        <ele>28.50</ele>
        <time>2018-11-05T07:27:23Z</time>
      </trkpt>
      <trkpt lat="36.8289833330" lon="-2.4924542103">
        <ele>28.50</ele>
        <time>2018-11-05T07:27:24Z</time>
      </trkpt>
      <trkpt lat="36.8289817404" lon="-2.4923934415">
        <ele>28.50</ele>
        <time>2018-11-05T07:27:25Z</time>
      </trkpt>
      <trkpt lat="36.8290010188" lon="-2.4923294038">
        <ele>28.50</ele>
        <time>2018-11-05T07:27:26Z</time>
      </trkpt>
      <trkpt lat="36.8290300202" lon="-2.4922848120">
        <ele>28.50</ele>
        <time>2018-11-05T07:27:27Z</time>
      </trkpt>
      <trkpt lat="36.8290676549" lon="-2.4922429025">
        <ele>28.02</ele>
        <time>2018-11-05T07:27:28Z</time>
      </trkpt>
      <trkpt lat="36.8291094806" lon="-2.4921965506">
        <ele>28.02</ele>
        <time>2018-11-05T07:27:29Z</time>
      </trkpt>
      <trkpt lat="36.8291440140" lon="-2.4921447504">
        <ele>28.02</ele>
        <time>2018-11-05T07:27:30Z</time>
      </trkpt>
      <trkpt lat="36.8291759491" lon="-2.4920854066">
        <ele>27.53</ele>
        <time>2018-11-05T07:27:31Z</time>
      </trkpt>
      <trkpt lat="36.8292038608" lon="-2.4920227937">
        <ele>27.05</ele>
        <time>2018-11-05T07:27:32Z</time>
      </trkpt>
      <trkpt lat="36.8292326108" lon="-2.4919547327">
        <ele>27.05</ele>
        <time>2018-11-05T07:27:33Z</time>
      </trkpt>
      <trkpt lat="36.8294191081" lon="-2.4915021099">
        <ele>25.13</ele>
        <time>2018-11-05T07:27:40Z</time>
      </trkpt>
      <trkpt lat="36.8295527995" lon="-2.4912233278">
        <ele>24.17</ele>
        <time>2018-11-05T07:27:45Z</time>
      </trkpt>
      <trkpt lat="36.8295605108" lon="-2.4911613017">
        <ele>23.69</ele>
        <time>2018-11-05T07:27:46Z</time>
      </trkpt>
      <trkpt lat="36.8295596726" lon="-2.4911113456">
        <ele>23.69</ele>
        <time>2018-11-05T07:27:47Z</time>
      </trkpt>
      <trkpt lat="36.8295505363" lon="-2.4910543486">
        <ele>23.21</ele>
        <time>2018-11-05T07:27:48Z</time>
      </trkpt>
      <trkpt lat="36.8295311742" lon="-2.4909903109">
        <ele>22.73</ele>
        <time>2018-11-05T07:27:49Z</time>
      </trkpt>
      <trkpt lat="36.8295024242" lon="-2.4909264408">
        <ele>22.25</ele>
        <time>2018-11-05T07:27:50Z</time>
      </trkpt>
      <trkpt lat="36.8294664659" lon="-2.4908630736">
        <ele>21.29</ele>
        <time>2018-11-05T07:27:51Z</time>
      </trkpt>
      <trkpt lat="36.8294327706" lon="-2.4907926656">
        <ele>20.81</ele>
        <time>2018-11-05T07:27:52Z</time>
      </trkpt>
      <trkpt lat="36.8294103071" lon="-2.4907110259">
        <ele>20.32</ele>
        <time>2018-11-05T07:27:53Z</time>
      </trkpt>
      <trkpt lat="36.8294039369" lon="-2.4906213395">
        <ele>19.84</ele>
        <time>2018-11-05T07:27:54Z</time>
      </trkpt>
      <trkpt lat="36.8294134922" lon="-2.4905289710">
        <ele>19.84</ele>
        <time>2018-11-05T07:27:55Z</time>
      </trkpt>
      <trkpt lat="36.8294313457" lon="-2.4904415477">
        <ele>19.36</ele>
        <time>2018-11-05T07:27:56Z</time>
      </trkpt>
      <trkpt lat="36.8294570781" lon="-2.4903547112">
        <ele>19.36</ele>
        <time>2018-11-05T07:27:57Z</time>
      </trkpt>
      <trkpt lat="36.8294864148" lon="-2.4902812019">
        <ele>19.36</ele>
        <time>2018-11-05T07:27:58Z</time>
      </trkpt>
      <trkpt lat="36.8295231275" lon="-2.4902051780">
        <ele>19.36</ele>
        <time>2018-11-05T07:27:59Z</time>
      </trkpt>
      <trkpt lat="36.8295582477" lon="-2.4901459180">
        <ele>19.84</ele>
        <time>2018-11-05T07:28:00Z</time>
      </trkpt>
      <trkpt lat="36.8295982294" lon="-2.4900885858">
        <ele>20.32</ele>
        <time>2018-11-05T07:28:01Z</time>
      </trkpt>
      <trkpt lat="36.8296350259" lon="-2.4900449999">
        <ele>20.81</ele>
        <time>2018-11-05T07:28:02Z</time>
      </trkpt>
      <trkpt lat="36.8296723254" lon="-2.4900059402">
        <ele>21.29</ele>
        <time>2018-11-05T07:28:03Z</time>
      </trkpt>
      <trkpt lat="36.8297509477" lon="-2.4899405614">
        <ele>21.77</ele>
        <time>2018-11-05T07:28:05Z</time>
      </trkpt>
      <trkpt lat="36.8297967128" lon="-2.4899155833">
        <ele>22.25</ele>
        <time>2018-11-05T07:28:06Z</time>
      </trkpt>
      <trkpt lat="36.8298446573" lon="-2.4898943771">
        <ele>22.25</ele>
        <time>2018-11-05T07:28:07Z</time>
      </trkpt>
      <trkpt lat="36.8298920151" lon="-2.4898736738">
        <ele>22.73</ele>
        <time>2018-11-05T07:28:08Z</time>
      </trkpt>
      <trkpt lat="36.8299387023" lon="-2.4898487795">
        <ele>22.73</ele>
        <time>2018-11-05T07:28:09Z</time>
      </trkpt>
      <trkpt lat="36.8301913328" lon="-2.4897572491">
        <ele>24.17</ele>
        <time>2018-11-05T07:28:15Z</time>
      </trkpt>
      <trkpt lat="36.8302441388" lon="-2.4897431675">
        <ele>24.65</ele>
        <time>2018-11-05T07:28:17Z</time>
      </trkpt>
      <trkpt lat="36.8302498385" lon="-2.4897350371">
        <ele>25.13</ele>
        <time>2018-11-05T07:28:22Z</time>
      </trkpt>
      <trkpt lat="36.8302517664" lon="-2.4897369649">
        <ele>26.09</ele>
        <time>2018-11-05T07:28:29Z</time>
      </trkpt>
      <trkpt lat="36.8302471563" lon="-2.4897471070">
        <ele>25.13</ele>
        <time>2018-11-05T07:28:47Z</time>
      </trkpt>
      <trkpt lat="36.8302412890" lon="-2.4897305109">
        <ele>27.53</ele>
        <time>2018-11-05T07:29:11Z</time>
      </trkpt>
      <trkpt lat="36.8302480783" lon="-2.4897274934">
        <ele>28.50</ele>
        <time>2018-11-05T07:29:37Z</time>
      </trkpt>
      <trkpt lat="36.8302435521" lon="-2.4897194467">
        <ele>27.53</ele>
        <time>2018-11-05T07:29:58Z</time>
      </trkpt>
      <trkpt lat="36.8302422948" lon="-2.4897073768">
        <ele>27.53</ele>
        <time>2018-11-05T07:30:20Z</time>
      </trkpt>
      <trkpt lat="36.8302427139" lon="-2.4897116516">
        <ele>28.50</ele>
        <time>2018-11-05T07:30:48Z</time>
      </trkpt>
      <trkpt lat="36.8302354217" lon="-2.4897134118">
        <ele>28.50</ele>
        <time>2018-11-05T07:31:01Z</time>
      </trkpt>
      <trkpt lat="36.8302441388" lon="-2.4897172675">
        <ele>28.02</ele>
        <time>2018-11-05T07:31:13Z</time>
      </trkpt>
      <trkpt lat="36.8302586395" lon="-2.4897261523">
        <ele>27.53</ele>
        <time>2018-11-05T07:31:17Z</time>
      </trkpt>
      <trkpt lat="36.8302701227" lon="-2.4897347856">
        <ele>27.53</ele>
        <time>2018-11-05T07:31:18Z</time>
      </trkpt>
      <trkpt lat="36.8302851263" lon="-2.4897357076">
        <ele>27.53</ele>
        <time>2018-11-05T07:31:19Z</time>
      </trkpt>
      <trkpt lat="36.8303016387" lon="-2.4897296727">
        <ele>27.53</ele>
        <time>2018-11-05T07:31:20Z</time>
      </trkpt>
      <trkpt lat="36.8303183187" lon="-2.4897222966">
        <ele>27.53</ele>
        <time>2018-11-05T07:31:21Z</time>
      </trkpt>
      <trkpt lat="36.8303348310" lon="-2.4897141661">
        <ele>27.53</ele>
        <time>2018-11-05T07:31:22Z</time>
      </trkpt>
      <trkpt lat="36.8304576259" lon="-2.4896395672">
        <ele>28.02</ele>
        <time>2018-11-05T07:31:28Z</time>
      </trkpt>
      <trkpt lat="36.8307193927" lon="-2.4894776288">
        <ele>27.53</ele>
        <time>2018-11-05T07:31:38Z</time>
      </trkpt>
      <trkpt lat="36.8308720272" lon="-2.4893105775">
        <ele>27.05</ele>
        <time>2018-11-05T07:31:45Z</time>
      </trkpt>
      <trkpt lat="36.8310436886" lon="-2.4889641535">
        <ele>26.09</ele>
        <time>2018-11-05T07:31:54Z</time>
      </trkpt>
      <trkpt lat="36.8312748615" lon="-2.4885438010">
        <ele>22.73</ele>
        <time>2018-11-05T07:32:04Z</time>
      </trkpt>
      <trkpt lat="36.8314592633" lon="-2.4880957045">
        <ele>15.52</ele>
        <time>2018-11-05T07:32:14Z</time>
      </trkpt>
      <trkpt lat="36.8315854110" lon="-2.4878209457">
        <ele>11.19</ele>
        <time>2018-11-05T07:32:21Z</time>
      </trkpt>
      <trkpt lat="36.8316581659" lon="-2.4878388830">
        <ele>11.67</ele>
        <time>2018-11-05T07:32:26Z</time>
      </trkpt>
      <trkpt lat="36.8316631950" lon="-2.4878719915">
        <ele>12.15</ele>
        <time>2018-11-05T07:32:28Z</time>
      </trkpt>
      <trkpt lat="36.8315560743" lon="-2.4880362768">
        <ele>13.12</ele>
        <time>2018-11-05T07:32:37Z</time>
      </trkpt>
      <trkpt lat="36.8314705789" lon="-2.4882091116">
        <ele>16.48</ele>
        <time>2018-11-05T07:32:45Z</time>
      </trkpt>
      <trkpt lat="36.8315253966" lon="-2.4882408790">
        <ele>17.44</ele>
        <time>2018-11-05T07:32:50Z</time>
      </trkpt>
      <trkpt lat="36.8316354509" lon="-2.4881489296">
        <ele>19.84</ele>
        <time>2018-11-05T07:32:56Z</time>
      </trkpt>
      <trkpt lat="36.8317517918" lon="-2.4880779348">
        <ele>21.77</ele>
        <time>2018-11-05T07:33:04Z</time>
      </trkpt>
      <trkpt lat="36.8317766860" lon="-2.4880707264">
        <ele>21.29</ele>
        <time>2018-11-05T07:33:09Z</time>
      </trkpt>
      <trkpt lat="36.8318278994" lon="-2.4880549684">
        <ele>22.25</ele>
        <time>2018-11-05T07:33:17Z</time>
      </trkpt>
      <trkpt lat="36.8318403885" lon="-2.4880444072">
        <ele>22.73</ele>
        <time>2018-11-05T07:33:24Z</time>
      </trkpt>
      <trkpt lat="36.8318470940" lon="-2.4880404677">
        <ele>22.73</ele>
        <time>2018-11-05T07:33:28Z</time>
      </trkpt>
      <trkpt lat="36.8319138978" lon="-2.4879740831">
        <ele>22.73</ele>
        <time>2018-11-05T07:33:34Z</time>
      </trkpt>
      <trkpt lat="36.8320886604" lon="-2.4877967220">
        <ele>21.29</ele>
        <time>2018-11-05T07:33:42Z</time>
      </trkpt>
      <trkpt lat="36.8324530218" lon="-2.4875124078">
        <ele>19.36</ele>
        <time>2018-11-05T07:33:54Z</time>
      </trkpt>
      <trkpt lat="36.8328478094" lon="-2.4872498028">
        <ele>17.44</ele>
        <time>2018-11-05T07:34:04Z</time>
      </trkpt>
      <trkpt lat="36.8332615402" lon="-2.4869691767">
        <ele>16.96</ele>
        <time>2018-11-05T07:34:14Z</time>
      </trkpt>
      <trkpt lat="36.8336218782" lon="-2.4866520893">
        <ele>16.00</ele>
        <time>2018-11-05T07:34:23Z</time>
      </trkpt>
      <trkpt lat="36.8340248801" lon="-2.4861733988">
        <ele>14.56</ele>
        <time>2018-11-05T07:34:34Z</time>
      </trkpt>
      <trkpt lat="36.8342733197" lon="-2.4858674593">
        <ele>14.08</ele>
        <time>2018-11-05T07:34:42Z</time>
      </trkpt>
      <trkpt lat="36.8345265370" lon="-2.4855465163">
        <ele>14.08</ele>
        <time>2018-11-05T07:34:50Z</time>
      </trkpt>
      <trkpt lat="36.8345371820" lon="-2.4855399784">
        <ele>15.04</ele>
        <time>2018-11-05T07:34:55Z</time>
      </trkpt>
      <trkpt lat="36.8346324842" lon="-2.4854222126">
        <ele>16.00</ele>
        <time>2018-11-05T07:35:02Z</time>
      </trkpt>
      <trkpt lat="36.8348089233" lon="-2.4851690792">
        <ele>16.48</ele>
        <time>2018-11-05T07:35:11Z</time>
      </trkpt>
      <trkpt lat="36.8348543532" lon="-2.4851052929">
        <ele>16.00</ele>
        <time>2018-11-05T07:35:16Z</time>
      </trkpt>
      <trkpt lat="36.8348954245" lon="-2.4850502238">
        <ele>16.48</ele>
        <time>2018-11-05T07:35:23Z</time>
      </trkpt>
      <trkpt lat="36.8350129388" lon="-2.4848559313">
        <ele>16.00</ele>
        <time>2018-11-05T07:35:30Z</time>
      </trkpt>
      <trkpt lat="36.8351783976" lon="-2.4845981039">
        <ele>14.56</ele>
        <time>2018-11-05T07:35:37Z</time>
      </trkpt>
      <trkpt lat="36.8353830837" lon="-2.4843061622">
        <ele>14.08</ele>
        <time>2018-11-05T07:35:45Z</time>
      </trkpt>
      <trkpt lat="36.8354985863" lon="-2.4841271248">
        <ele>14.08</ele>
        <time>2018-11-05T07:35:51Z</time>
      </trkpt>
      <trkpt lat="36.8357407395" lon="-2.4837608356">
        <ele>12.15</ele>
        <time>2018-11-05T07:36:01Z</time>
      </trkpt>
      <trkpt lat="36.8360144924" lon="-2.4832891021">
        <ele>11.67</ele>
        <time>2018-11-05T07:36:13Z</time>
      </trkpt>
      <trkpt lat="36.8362532090" lon="-2.4828145187">
        <ele>10.23</ele>
        <time>2018-11-05T07:36:24Z</time>
      </trkpt>
      <trkpt lat="36.8363221921" lon="-2.4826450367">
        <ele>9.75</ele>
        <time>2018-11-05T07:36:29Z</time>
      </trkpt>
      <trkpt lat="36.8363257963" lon="-2.4826224893">
        <ele>9.27</ele>
        <time>2018-11-05T07:36:30Z</time>
      </trkpt>
      <trkpt lat="36.8363382015" lon="-2.4826010317">
        <ele>8.79</ele>
        <time>2018-11-05T07:36:36Z</time>
      </trkpt>
      <trkpt lat="36.8363400456" lon="-2.4825918954">
        <ele>9.27</ele>
        <time>2018-11-05T07:36:52Z</time>
      </trkpt>
      <trkpt lat="36.8363383692" lon="-2.4825810827">
        <ele>8.79</ele>
        <time>2018-11-05T07:37:07Z</time>
      </trkpt>
      <trkpt lat="36.8363627605" lon="-2.4825478066">
        <ele>8.31</ele>
        <time>2018-11-05T07:37:13Z</time>
      </trkpt>
      <trkpt lat="36.8363623414" lon="-2.4825509079">
        <ele>7.83</ele>
        <time>2018-11-05T07:37:22Z</time>
      </trkpt>
      <trkpt lat="36.8363893311" lon="-2.4825518299">
        <ele>8.31</ele>
        <time>2018-11-05T07:37:43Z</time>
      </trkpt>
      <trkpt lat="36.8364158180" lon="-2.4824888818">
        <ele>6.39</ele>
        <time>2018-11-05T07:37:56Z</time>
      </trkpt>
      <trkpt lat="36.8364913389" lon="-2.4822380114">
        <ele>8.31</ele>
        <time>2018-11-05T07:38:04Z</time>
      </trkpt>
      <trkpt lat="36.8366023153" lon="-2.4818804394">
        <ele>10.23</ele>
        <time>2018-11-05T07:38:13Z</time>
      </trkpt>
      <trkpt lat="36.8366920855" lon="-2.4815012421">
        <ele>11.19</ele>
        <time>2018-11-05T07:38:23Z</time>
      </trkpt>
      <trkpt lat="36.8367587216" lon="-2.4813245516">
        <ele>12.15</ele>
        <time>2018-11-05T07:38:30Z</time>
      </trkpt>
      <trkpt lat="36.8368261121" lon="-2.4810706638">
        <ele>12.15</ele>
        <time>2018-11-05T07:38:38Z</time>
      </trkpt>
      <trkpt lat="36.8368572090" lon="-2.4808311090">
        <ele>12.63</ele>
        <time>2018-11-05T07:38:45Z</time>
      </trkpt>
      <trkpt lat="36.8369209953" lon="-2.4805662408">
        <ele>11.67</ele>
        <time>2018-11-05T07:38:53Z</time>
      </trkpt>
      <trkpt lat="36.8370022159" lon="-2.4802420288">
        <ele>11.19</ele>
        <time>2018-11-05T07:39:03Z</time>
      </trkpt>
      <trkpt lat="36.8371020444" lon="-2.4799713772">
        <ele>11.67</ele>
        <time>2018-11-05T07:39:12Z</time>
      </trkpt>
      <trkpt lat="36.8371451274" lon="-2.4797524419">
        <ele>11.67</ele>
        <time>2018-11-05T07:39:18Z</time>
      </trkpt>
      <trkpt lat="36.8370463047" lon="-2.4794997275">
        <ele>12.15</ele>
        <time>2018-11-05T07:39:24Z</time>
      </trkpt>
      <trkpt lat="36.8370292895" lon="-2.4794462509">
        <ele>12.15</ele>
        <time>2018-11-05T07:39:25Z</time>
      </trkpt>
      <trkpt lat="36.8370202370" lon="-2.4793916009">
        <ele>12.15</ele>
        <time>2018-11-05T07:39:26Z</time>
      </trkpt>
      <trkpt lat="36.8370185606" lon="-2.4793480150">
        <ele>11.67</ele>
        <time>2018-11-05T07:39:27Z</time>
      </trkpt>
      <trkpt lat="36.8370226678" lon="-2.4792977236">
        <ele>11.67</ele>
        <time>2018-11-05T07:39:28Z</time>
      </trkpt>
      <trkpt lat="36.8370365817" lon="-2.4792458396">
        <ele>11.67</ele>
        <time>2018-11-05T07:39:29Z</time>
      </trkpt>
      <trkpt lat="36.8370572850" lon="-2.4791988172">
        <ele>11.67</ele>
        <time>2018-11-05T07:39:30Z</time>
      </trkpt>
      <trkpt lat="36.8370822631" lon="-2.4791541416">
        <ele>11.67</ele>
        <time>2018-11-05T07:39:31Z</time>
      </trkpt>
      <trkpt lat="36.8371108454" lon="-2.4791077897">
        <ele>11.19</ele>
        <time>2018-11-05T07:39:32Z</time>
      </trkpt>
      <trkpt lat="36.8371593766" lon="-2.4789963104">
        <ele>11.19</ele>
        <time>2018-11-05T07:39:34Z</time>
      </trkpt>
      <trkpt lat="36.8371669203" lon="-2.4789458513">
        <ele>11.19</ele>
        <time>2018-11-05T07:39:35Z</time>
      </trkpt>
      <trkpt lat="36.8371889647" lon="-2.4784772191">
        <ele>11.19</ele>
        <time>2018-11-05T07:39:43Z</time>
      </trkpt>
      <trkpt lat="36.8371694349" lon="-2.4782328866">
        <ele>11.19</ele>
        <time>2018-11-05T07:39:47Z</time>
      </trkpt>
      <trkpt lat="36.8371138629" lon="-2.4777155556">
        <ele>11.19</ele>
        <time>2018-11-05T07:39:56Z</time>
      </trkpt>
      <trkpt lat="36.8371113483" lon="-2.4776642583">
        <ele>11.19</ele>
        <time>2018-11-05T07:39:57Z</time>
      </trkpt>
      <trkpt lat="36.8371084984" lon="-2.4776135478">
        <ele>11.19</ele>
        <time>2018-11-05T07:39:58Z</time>
      </trkpt>
      <trkpt lat="36.8371141981" lon="-2.4771512859">
        <ele>11.19</ele>
        <time>2018-11-05T07:40:07Z</time>
      </trkpt>
      <trkpt lat="36.8371859472" lon="-2.4766496290">
        <ele>11.67</ele>
        <time>2018-11-05T07:40:16Z</time>
      </trkpt>
      <trkpt lat="36.8372905534" lon="-2.4760721158">
        <ele>11.67</ele>
        <time>2018-11-05T07:40:25Z</time>
      </trkpt>
      <trkpt lat="36.8373607099" lon="-2.4753266294">
        <ele>12.15</ele>
        <time>2018-11-05T07:40:35Z</time>
      </trkpt>
      <trkpt lat="36.8374383263" lon="-2.4744560011">
        <ele>12.15</ele>
        <time>2018-11-05T07:40:46Z</time>
      </trkpt>
      <trkpt lat="36.8374535814" lon="-2.4735782482">
        <ele>12.63</ele>
        <time>2018-11-05T07:40:57Z</time>
      </trkpt>
      <trkpt lat="36.8373239972" lon="-2.4728460051">
        <ele>12.63</ele>
        <time>2018-11-05T07:41:06Z</time>
      </trkpt>
      <trkpt lat="36.8370683491" lon="-2.4719970021">
        <ele>12.63</ele>
        <time>2018-11-05T07:41:17Z</time>
      </trkpt>
      <trkpt lat="36.8368282914" lon="-2.4712056667">
        <ele>12.63</ele>
        <time>2018-11-05T07:41:27Z</time>
      </trkpt>
      <trkpt lat="36.8365482520" lon="-2.4702875968">
        <ele>13.12</ele>
        <time>2018-11-05T07:41:38Z</time>
      </trkpt>
      <trkpt lat="36.8362437375" lon="-2.4692900665">
        <ele>13.60</ele>
        <time>2018-11-05T07:41:50Z</time>
      </trkpt>
      <trkpt lat="36.8359642848" lon="-2.4683866650">
        <ele>12.63</ele>
        <time>2018-11-05T07:42:01Z</time>
      </trkpt>
      <trkpt lat="36.8357207906" lon="-2.4678219762">
        <ele>12.63</ele>
        <time>2018-11-05T07:42:09Z</time>
      </trkpt>
      <trkpt lat="36.8354345486" lon="-2.4673221633">
        <ele>12.63</ele>
        <time>2018-11-05T07:42:18Z</time>
      </trkpt>
      <trkpt lat="36.8353865203" lon="-2.4672539346">
        <ele>11.67</ele>
        <time>2018-11-05T07:42:22Z</time>
      </trkpt>
      <trkpt lat="36.8353879452" lon="-2.4672472291">
        <ele>12.15</ele>
        <time>2018-11-05T07:42:30Z</time>
      </trkpt>
      <trkpt lat="36.8353849277" lon="-2.4672539346">
        <ele>12.63</ele>
        <time>2018-11-05T07:42:40Z</time>
      </trkpt>
      <trkpt lat="36.8353907112" lon="-2.4672522582">
        <ele>13.60</ele>
        <time>2018-11-05T07:43:01Z</time>
      </trkpt>
      <trkpt lat="36.8353984226" lon="-2.4672595505">
        <ele>9.27</ele>
        <time>2018-11-05T07:43:20Z</time>
      </trkpt>
      <trkpt lat="36.8354088161" lon="-2.4672577903">
        <ele>7.83</ele>
        <time>2018-11-05T07:43:44Z</time>
      </trkpt>
      <trkpt lat="36.8354139291" lon="-2.4672388472">
        <ele>7.35</ele>
        <time>2018-11-05T07:43:52Z</time>
      </trkpt>
      <trkpt lat="36.8354221433" lon="-2.4672259390">
        <ele>7.83</ele>
        <time>2018-11-05T07:43:53Z</time>
      </trkpt>
      <trkpt lat="36.8354867678" lon="-2.4671269488">
        <ele>8.31</ele>
        <time>2018-11-05T07:44:01Z</time>
      </trkpt>
      <trkpt lat="36.8355364725" lon="-2.4670775793">
        <ele>8.79</ele>
        <time>2018-11-05T07:44:06Z</time>
      </trkpt>
      <trkpt lat="36.8355520628" lon="-2.4670295510">
        <ele>9.27</ele>
        <time>2018-11-05T07:44:10Z</time>
      </trkpt>
      <trkpt lat="36.8355786335" lon="-2.4669046607">
        <ele>10.71</ele>
        <time>2018-11-05T07:44:19Z</time>
      </trkpt>
      <trkpt lat="36.8356905319" lon="-2.4668228533">
        <ele>10.71</ele>
        <time>2018-11-05T07:44:29Z</time>
      </trkpt>
      <trkpt lat="36.8357757758" lon="-2.4668258708">
        <ele>11.67</ele>
        <time>2018-11-05T07:44:36Z</time>
      </trkpt>
      <trkpt lat="36.8358145840" lon="-2.4668033235">
        <ele>12.15</ele>
        <time>2018-11-05T07:44:42Z</time>
      </trkpt>
      <trkpt lat="36.8358292524" lon="-2.4667827878">
        <ele>12.15</ele>
        <time>2018-11-05T07:44:47Z</time>
      </trkpt>
      <trkpt lat="36.8358247261" lon="-2.4667112902">
        <ele>9.75</ele>
        <time>2018-11-05T07:44:51Z</time>
      </trkpt>
      <trkpt lat="36.8357273284" lon="-2.4665074423">
        <ele>6.39</ele>
        <time>2018-11-05T07:45:00Z</time>
      </trkpt>
      <trkpt lat="36.8355933856" lon="-2.4662098847">
        <ele>5.42</ele>
        <time>2018-11-05T07:45:08Z</time>
      </trkpt>
      <trkpt lat="36.8354385719" lon="-2.4659174401">
        <ele>4.94</ele>
        <time>2018-11-05T07:45:14Z</time>
      </trkpt>
      <trkpt lat="36.8352925591" lon="-2.4655885343">
        <ele>3.98</ele>
        <time>2018-11-05T07:45:21Z</time>
      </trkpt>
      <trkpt lat="36.8350388389" lon="-2.4651610572">
        <ele>4.94</ele>
        <time>2018-11-05T07:45:30Z</time>
      </trkpt>
      <trkpt lat="36.8347869627" lon="-2.4647510145">
        <ele>6.39</ele>
        <time>2018-11-05T07:45:39Z</time>
      </trkpt>
      <trkpt lat="36.8345510121" lon="-2.4643553887">
        <ele>7.83</ele>
        <time>2018-11-05T07:45:49Z</time>
      </trkpt>
      <trkpt lat="36.8343403749" lon="-2.4640060309">
        <ele>8.79</ele>
        <time>2018-11-05T07:45:58Z</time>
      </trkpt>
      <trkpt lat="36.8342485931" lon="-2.4638175219">
        <ele>8.79</ele>
        <time>2018-11-05T07:46:05Z</time>
      </trkpt>
      <trkpt lat="36.8341900036" lon="-2.4638135824">
        <ele>10.23</ele>
        <time>2018-11-05T07:46:09Z</time>
      </trkpt>
      <trkpt lat="36.8340796139" lon="-2.4638687354">
        <ele>10.23</ele>
        <time>2018-11-05T07:46:14Z</time>
      </trkpt>
      <trkpt lat="36.8339113891" lon="-2.4640106410">
        <ele>9.75</ele>
        <time>2018-11-05T07:46:21Z</time>
      </trkpt>
      <trkpt lat="36.8339066114" lon="-2.4641518760">
        <ele>9.27</ele>
        <time>2018-11-05T07:46:27Z</time>
      </trkpt>
      <trkpt lat="36.8338957988" lon="-2.4641738366">
        <ele>9.27</ele>
        <time>2018-11-05T07:46:33Z</time>
      </trkpt>
      <trkpt lat="36.8338947929" lon="-2.4641747586">
        <ele>9.27</ele>
        <time>2018-11-05T07:46:37Z</time>
      </trkpt>
      <trkpt lat="36.8337590899" lon="-2.4642986432">
        <ele>9.27</ele>
        <time>2018-11-05T07:46:45Z</time>
      </trkpt>
      <trkpt lat="36.8337120675" lon="-2.4643460847">
        <ele>9.27</ele>
        <time>2018-11-05T07:46:48Z</time>
      </trkpt>
      <trkpt lat="36.8335047830" lon="-2.4644129723">
        <ele>8.79</ele>
        <time>2018-11-05T07:46:57Z</time>
      </trkpt>
      <trkpt lat="36.8334892765" lon="-2.4644004833">
        <ele>9.27</ele>
        <time>2018-11-05T07:46:58Z</time>
      </trkpt>
      <trkpt lat="36.8334736861" lon="-2.4643769301">
        <ele>9.27</ele>
        <time>2018-11-05T07:46:59Z</time>
      </trkpt>
      <trkpt lat="36.8333645537" lon="-2.4641711544">
        <ele>9.75</ele>
        <time>2018-11-05T07:47:08Z</time>
      </trkpt>
      <trkpt lat="36.8333051261" lon="-2.4640027620">
        <ele>9.75</ele>
        <time>2018-11-05T07:47:15Z</time>
      </trkpt>
      <trkpt lat="36.8332013581" lon="-2.4637690745">
        <ele>9.75</ele>
        <time>2018-11-05T07:47:25Z</time>
      </trkpt>
      <trkpt lat="36.8331686687" lon="-2.4636769574">
        <ele>9.75</ele>
        <time>2018-11-05T07:47:32Z</time>
      </trkpt>
      <trkpt lat="36.8331586942" lon="-2.4636529014">
        <ele>9.75</ele>
        <time>2018-11-05T07:47:33Z</time>
      </trkpt>
      <trkpt lat="36.8330586981" lon="-2.4634237401">
        <ele>9.27</ele>
        <time>2018-11-05T07:47:41Z</time>
      </trkpt>
      <trkpt lat="36.8330279365" lon="-2.4634143524">
        <ele>9.27</ele>
        <time>2018-11-05T07:47:42Z</time>
      </trkpt>
      <trkpt lat="36.8329989351" lon="-2.4634300265">
        <ele>9.27</ele>
        <time>2018-11-05T07:47:43Z</time>
      </trkpt>
      <trkpt lat="36.8329794891" lon="-2.4634451140">
        <ele>9.27</ele>
        <time>2018-11-05T07:47:44Z</time>
      </trkpt>
      <trkpt lat="36.8329566903" lon="-2.4634621292">
        <ele>9.27</ele>
        <time>2018-11-05T07:47:45Z</time>
      </trkpt>
      <trkpt lat="36.8329266831" lon="-2.4634833355">
        <ele>9.27</ele>
        <time>2018-11-05T07:47:46Z</time>
      </trkpt>
      <trkpt lat="36.8329049740" lon="-2.4634949025">
        <ele>9.27</ele>
        <time>2018-11-05T07:47:47Z</time>
      </trkpt>
      <trkpt lat="36.8328787386" lon="-2.4635017756">
        <ele>8.79</ele>
        <time>2018-11-05T07:47:48Z</time>
      </trkpt>
      <trkpt lat="36.8328587059" lon="-2.4635007698">
        <ele>9.27</ele>
        <time>2018-11-05T07:47:49Z</time>
      </trkpt>
      <trkpt lat="36.8328377511" lon="-2.4634945672">
        <ele>9.27</ele>
        <time>2018-11-05T07:47:50Z</time>
      </trkpt>
      <trkpt lat="36.8328229990" lon="-2.4634878617">
        <ele>9.27</ele>
        <time>2018-11-05T07:47:51Z</time>
      </trkpt>
      <trkpt lat="36.8327806704" lon="-2.4634440243">
        <ele>8.79</ele>
        <time>2018-11-05T07:47:57Z</time>
      </trkpt>
      <trkpt lat="36.8327812571" lon="-2.4634294398">
        <ele>10.23</ele>
        <time>2018-11-05T07:48:11Z</time>
      </trkpt>
      <trkpt lat="36.8327823468" lon="-2.4634436052">
        <ele>8.79</ele>
        <time>2018-11-05T07:48:21Z</time>
      </trkpt>
      <trkpt lat="36.8327577040" lon="-2.4634187110">
        <ele>11.67</ele>
        <time>2018-11-05T07:48:40Z</time>
      </trkpt>
      <trkpt lat="36.8327634037" lon="-2.4634551723">
        <ele>10.23</ele>
        <time>2018-11-05T07:49:02Z</time>
      </trkpt>
      <trkpt lat="36.8327650800" lon="-2.4634571001">
        <ele>9.27</ele>
        <time>2018-11-05T07:49:12Z</time>
      </trkpt>
      <trkpt lat="36.8327683490" lon="-2.4634368997">
        <ele>9.75</ele>
        <time>2018-11-05T07:49:19Z</time>
      </trkpt>
      <trkpt lat="36.8327665888" lon="-2.4634300265">
        <ele>9.27</ele>
        <time>2018-11-05T07:49:31Z</time>
      </trkpt>
      <trkpt lat="36.8327781558" lon="-2.4634306133">
        <ele>7.83</ele>
        <time>2018-11-05T07:49:46Z</time>
      </trkpt>
      <trkpt lat="36.8327261880" lon="-2.4633747060">
        <ele>7.83</ele>
        <time>2018-11-05T07:49:52Z</time>
      </trkpt>
      <trkpt lat="36.8326959293" lon="-2.4632285256">
        <ele>8.31</ele>
        <time>2018-11-05T07:49:58Z</time>
      </trkpt>
      <trkpt lat="36.8326742202" lon="-2.4630029686">
        <ele>8.31</ele>
        <time>2018-11-05T07:50:05Z</time>
      </trkpt>
      <trkpt lat="36.8325922452" lon="-2.4628124479">
        <ele>9.75</ele>
        <time>2018-11-05T07:50:12Z</time>
      </trkpt>
      <trkpt lat="36.8325764034" lon="-2.4627887271">
        <ele>10.71</ele>
        <time>2018-11-05T07:50:20Z</time>
      </trkpt>
      <trkpt lat="36.8325165566" lon="-2.4626221787">
        <ele>12.15</ele>
        <time>2018-11-05T07:50:26Z</time>
      </trkpt>
      <trkpt lat="36.8323904090" lon="-2.4622519501">
        <ele>12.63</ele>
        <time>2018-11-05T07:50:35Z</time>
      </trkpt>
      <trkpt lat="36.8322739843" lon="-2.4619445857">
        <ele>12.63</ele>
        <time>2018-11-05T07:50:42Z</time>
      </trkpt>
      <trkpt lat="36.8321314082" lon="-2.4615620356">
        <ele>12.15</ele>
        <time>2018-11-05T07:50:51Z</time>
      </trkpt>
      <trkpt lat="36.8319991417" lon="-2.4612213951">
        <ele>12.63</ele>
        <time>2018-11-05T07:51:00Z</time>
      </trkpt>
      <trkpt lat="36.8318951223" lon="-2.4609047268">
        <ele>11.67</ele>
        <time>2018-11-05T07:51:08Z</time>
      </trkpt>
      <trkpt lat="36.8318843935" lon="-2.4606105220">
        <ele>10.23</ele>
        <time>2018-11-05T07:51:14Z</time>
      </trkpt>
      <trkpt lat="36.8318651989" lon="-2.4603055045">
        <ele>9.27</ele>
        <time>2018-11-05T07:51:20Z</time>
      </trkpt>
      <trkpt lat="36.8318583257" lon="-2.4602553807">
        <ele>9.27</ele>
        <time>2018-11-05T07:51:21Z</time>
      </trkpt>
      <trkpt lat="36.8317390513" lon="-2.4598899297">
        <ele>8.79</ele>
        <time>2018-11-05T07:51:29Z</time>
      </trkpt>
      <trkpt lat="36.8315737601" lon="-2.4594590999">
        <ele>9.75</ele>
        <time>2018-11-05T07:51:39Z</time>
      </trkpt>
      <trkpt lat="36.8315577507" lon="-2.4594117422">
        <ele>9.75</ele>
        <time>2018-11-05T07:51:40Z</time>
      </trkpt>
      <trkpt lat="36.8314156774" lon="-2.4589835946">
        <ele>9.27</ele>
        <time>2018-11-05T07:51:48Z</time>
      </trkpt>
      <trkpt lat="36.8311904557" lon="-2.4584744778">
        <ele>10.23</ele>
        <time>2018-11-05T07:51:59Z</time>
      </trkpt>
      <trkpt lat="36.8309474643" lon="-2.4580456596">
        <ele>10.71</ele>
        <time>2018-11-05T07:52:09Z</time>
      </trkpt>
      <trkpt lat="36.8306983542" lon="-2.4575840682">
        <ele>10.23</ele>
        <time>2018-11-05T07:52:20Z</time>
      </trkpt>
      <trkpt lat="36.8304813467" lon="-2.4571829941">
        <ele>9.75</ele>
        <time>2018-11-05T07:52:30Z</time>
      </trkpt>
      <trkpt lat="36.8303135410" lon="-2.4568745401">
        <ele>10.23</ele>
        <time>2018-11-05T07:52:38Z</time>
      </trkpt>
      <trkpt lat="36.8301624991" lon="-2.4565706123">
        <ele>11.67</ele>
        <time>2018-11-05T07:52:45Z</time>
      </trkpt>
      <trkpt lat="36.8301409576" lon="-2.4565263558">
        <ele>11.67</ele>
        <time>2018-11-05T07:52:46Z</time>
      </trkpt>
      <trkpt lat="36.8299159035" lon="-2.4561451469">
        <ele>14.56</ele>
        <time>2018-11-05T07:52:56Z</time>
      </trkpt>
      <trkpt lat="36.8297736626" lon="-2.4560039956">
        <ele>16.00</ele>
        <time>2018-11-05T07:53:01Z</time>
      </trkpt>
      <trkpt lat="36.8297452480" lon="-2.4559575599">
        <ele>15.52</ele>
        <time>2018-11-05T07:53:02Z</time>
      </trkpt>
      <trkpt lat="36.8295252230" lon="-2.4555899296">
        <ele>15.04</ele>
        <time>2018-11-05T07:53:11Z</time>
      </trkpt>
      <trkpt lat="36.8295087107" lon="-2.4555680528">
        <ele>15.04</ele>
        <time>2018-11-05T07:53:16Z</time>
      </trkpt>
      <trkpt lat="36.8295077048" lon="-2.4555666279">
        <ele>15.52</ele>
        <time>2018-11-05T07:53:26Z</time>
      </trkpt>
      <trkpt lat="36.8294699863" lon="-2.4554978963">
        <ele>16.00</ele>
        <time>2018-11-05T07:53:31Z</time>
      </trkpt>
      <trkpt lat="36.8293337803" lon="-2.4552689865">
        <ele>15.52</ele>
        <time>2018-11-05T07:53:40Z</time>
      </trkpt>
      <trkpt lat="36.8291860074" lon="-2.4550151825">
        <ele>16.48</ele>
        <time>2018-11-05T07:53:50Z</time>
      </trkpt>
      <trkpt lat="36.8290575128" lon="-2.4547931459">
        <ele>16.48</ele>
        <time>2018-11-05T07:53:58Z</time>
      </trkpt>
      <trkpt lat="36.8288835883" lon="-2.4544754717">
        <ele>16.00</ele>
        <time>2018-11-05T07:54:08Z</time>
      </trkpt>
      <trkpt lat="36.8286897149" lon="-2.4541610666">
        <ele>17.44</ele>
        <time>2018-11-05T07:54:17Z</time>
      </trkpt>
      <trkpt lat="36.8285399303" lon="-2.4538827036">
        <ele>16.96</ele>
        <time>2018-11-05T07:54:25Z</time>
      </trkpt>
      <trkpt lat="36.8283035606" lon="-2.4534844793">
        <ele>17.92</ele>
        <time>2018-11-05T07:54:37Z</time>
      </trkpt>
      <trkpt lat="36.8281062506" lon="-2.4531586748">
        <ele>17.92</ele>
        <time>2018-11-05T07:54:46Z</time>
      </trkpt>
      <trkpt lat="36.8278729822" lon="-2.4527783878">
        <ele>18.88</ele>
        <time>2018-11-05T07:54:57Z</time>
      </trkpt>
      <trkpt lat="36.8275942001" lon="-2.4523104262">
        <ele>17.92</ele>
        <time>2018-11-05T07:55:08Z</time>
      </trkpt>
      <trkpt lat="36.8273067009" lon="-2.4518234376">
        <ele>17.44</ele>
        <time>2018-11-05T07:55:19Z</time>
      </trkpt>
      <trkpt lat="36.8270636257" lon="-2.4514332600">
        <ele>16.96</ele>
        <time>2018-11-05T07:55:28Z</time>
      </trkpt>
      <trkpt lat="36.8268418405" lon="-2.4510604329">
        <ele>14.56</ele>
        <time>2018-11-05T07:55:37Z</time>
      </trkpt>
      <trkpt lat="36.8265499827" lon="-2.4506068043">
        <ele>13.60</ele>
        <time>2018-11-05T07:55:48Z</time>
      </trkpt>
      <trkpt lat="36.8264388386" lon="-2.4504255876">
        <ele>13.12</ele>
        <time>2018-11-05T07:55:52Z</time>
      </trkpt>
      <trkpt lat="36.8264132738" lon="-2.4503803253">
        <ele>13.12</ele>
        <time>2018-11-05T07:55:53Z</time>
      </trkpt>
      <trkpt lat="36.8261366710" lon="-2.4499447178">
        <ele>13.12</ele>
        <time>2018-11-05T07:56:03Z</time>
      </trkpt>
      <trkpt lat="36.8258171529" lon="-2.4494038336">
        <ele>11.67</ele>
        <time>2018-11-05T07:56:15Z</time>
      </trkpt>
      <trkpt lat="36.8256475870" lon="-2.4491341878">
        <ele>11.67</ele>
        <time>2018-11-05T07:56:21Z</time>
      </trkpt>
      <trkpt lat="36.8253623508" lon="-2.4486922100">
        <ele>12.15</ele>
        <time>2018-11-05T07:56:30Z</time>
      </trkpt>
      <trkpt lat="36.8250966445" lon="-2.4482618831">
        <ele>12.15</ele>
        <time>2018-11-05T07:56:39Z</time>
      </trkpt>
      <trkpt lat="36.8248595204" lon="-2.4478880502">
        <ele>12.15</ele>
        <time>2018-11-05T07:56:47Z</time>
      </trkpt>
      <trkpt lat="36.8247959856" lon="-2.4477585498">
        <ele>12.63</ele>
        <time>2018-11-05T07:56:50Z</time>
      </trkpt>
      <trkpt lat="36.8247930519" lon="-2.4477180652">
        <ele>12.63</ele>
        <time>2018-11-05T07:56:51Z</time>
      </trkpt>
      <trkpt lat="36.8247781321" lon="-2.4476744793">
        <ele>13.12</ele>
        <time>2018-11-05T07:56:52Z</time>
      </trkpt>
      <trkpt lat="36.8247534893" lon="-2.4476377666">
        <ele>13.12</ele>
        <time>2018-11-05T07:56:53Z</time>
      </trkpt>
      <trkpt lat="36.8247244041" lon="-2.4475971982">
        <ele>13.12</ele>
        <time>2018-11-05T07:56:54Z</time>
      </trkpt>
      <trkpt lat="36.8244600389" lon="-2.4471683800">
        <ele>12.63</ele>
        <time>2018-11-05T07:57:03Z</time>
      </trkpt>
      <trkpt lat="36.8242115993" lon="-2.4467636179">
        <ele>12.63</ele>
        <time>2018-11-05T07:57:12Z</time>
      </trkpt>
      <trkpt lat="36.8239070848" lon="-2.4462962430">
        <ele>12.15</ele>
        <time>2018-11-05T07:57:22Z</time>
      </trkpt>
      <trkpt lat="36.8236530293" lon="-2.4459148664">
        <ele>11.67</ele>
        <time>2018-11-05T07:57:30Z</time>
      </trkpt>
      <trkpt lat="36.8233734090" lon="-2.4454816896">
        <ele>12.63</ele>
        <time>2018-11-05T07:57:40Z</time>
      </trkpt>
      <trkpt lat="36.8231392186" lon="-2.4451518618">
        <ele>12.15</ele>
        <time>2018-11-05T07:57:48Z</time>
      </trkpt>
      <trkpt lat="36.8228286691" lon="-2.4447020050">
        <ele>11.19</ele>
        <time>2018-11-05T07:57:58Z</time>
      </trkpt>
      <trkpt lat="36.8226638809" lon="-2.4444454350">
        <ele>10.23</ele>
        <time>2018-11-05T07:58:04Z</time>
      </trkpt>
      <trkpt lat="36.8226570915" lon="-2.4443896953">
        <ele>10.23</ele>
        <time>2018-11-05T07:58:05Z</time>
      </trkpt>
      <trkpt lat="36.8226622045" lon="-2.4443361349">
        <ele>9.75</ele>
        <time>2018-11-05T07:58:06Z</time>
      </trkpt>
      <trkpt lat="36.8226652220" lon="-2.4442801438">
        <ele>9.75</ele>
        <time>2018-11-05T07:58:07Z</time>
      </trkpt>
      <trkpt lat="36.8226480391" lon="-2.4442281760">
        <ele>9.75</ele>
        <time>2018-11-05T07:58:08Z</time>
      </trkpt>
      <trkpt lat="36.8226177804" lon="-2.4441856798">
        <ele>9.75</ele>
        <time>2018-11-05T07:58:09Z</time>
      </trkpt>
      <trkpt lat="36.8225851748" lon="-2.4441430997">
        <ele>9.27</ele>
        <time>2018-11-05T07:58:10Z</time>
      </trkpt>
      <trkpt lat="36.8225549161" lon="-2.4441006035">
        <ele>9.27</ele>
        <time>2018-11-05T07:58:11Z</time>
      </trkpt>
      <trkpt lat="36.8223782256" lon="-2.4438467994">
        <ele>9.27</ele>
        <time>2018-11-05T07:58:17Z</time>
      </trkpt>
      <trkpt lat="36.8223457038" lon="-2.4438044708">
        <ele>9.75</ele>
        <time>2018-11-05T07:58:18Z</time>
      </trkpt>
      <trkpt lat="36.8220776506" lon="-2.4434204958">
        <ele>9.75</ele>
        <time>2018-11-05T07:58:27Z</time>
      </trkpt>
      <trkpt lat="36.8217588030" lon="-2.4429629277">
        <ele>10.23</ele>
        <time>2018-11-05T07:58:37Z</time>
      </trkpt>
      <trkpt lat="36.8215464894" lon="-2.4426553957">
        <ele>10.23</ele>
        <time>2018-11-05T07:58:44Z</time>
      </trkpt>
      <trkpt lat="36.8215324916" lon="-2.4426055234">
        <ele>10.23</ele>
        <time>2018-11-05T07:58:45Z</time>
      </trkpt>
      <trkpt lat="36.8215273786" lon="-2.4425524659">
        <ele>10.23</ele>
        <time>2018-11-05T07:58:46Z</time>
      </trkpt>
      <trkpt lat="36.8215147220" lon="-2.4425086286">
        <ele>10.23</ele>
        <time>2018-11-05T07:58:47Z</time>
      </trkpt>
      <trkpt lat="36.8214868940" lon="-2.4424700718">
        <ele>9.75</ele>
        <time>2018-11-05T07:58:48Z</time>
      </trkpt>
      <trkpt lat="36.8214538693" lon="-2.4424290005">
        <ele>9.75</ele>
        <time>2018-11-05T07:58:49Z</time>
      </trkpt>
      <trkpt lat="36.8214252032" lon="-2.4423879292">
        <ele>10.23</ele>
        <time>2018-11-05T07:58:50Z</time>
      </trkpt>
      <trkpt lat="36.8214000575" lon="-2.4423509650">
        <ele>10.23</ele>
        <time>2018-11-05T07:58:51Z</time>
      </trkpt>
      <trkpt lat="36.8213670328" lon="-2.4423258193">
        <ele>10.71</ele>
        <time>2018-11-05T07:58:52Z</time>
      </trkpt>
      <trkpt lat="36.8212599121" lon="-2.4422658887">
        <ele>10.71</ele>
        <time>2018-11-05T07:58:55Z</time>
      </trkpt>
      <trkpt lat="36.8212291505" lon="-2.4422277510">
        <ele>10.71</ele>
        <time>2018-11-05T07:58:56Z</time>
      </trkpt>
      <trkpt lat="36.8209161703" lon="-2.4417849351">
        <ele>9.75</ele>
        <time>2018-11-05T07:59:06Z</time>
      </trkpt>
      <trkpt lat="36.8205995020" lon="-2.4413458072">
        <ele>9.75</ele>
        <time>2018-11-05T07:59:16Z</time>
      </trkpt>
      <trkpt lat="36.8203345500" lon="-2.4409738183">
        <ele>9.27</ele>
        <time>2018-11-05T07:59:24Z</time>
      </trkpt>
      <trkpt lat="36.8199315481" lon="-2.4404068664">
        <ele>8.79</ele>
        <time>2018-11-05T07:59:36Z</time>
      </trkpt>
      <trkpt lat="36.8198647443" lon="-2.4403256457">
        <ele>9.27</ele>
        <time>2018-11-05T07:59:38Z</time>
      </trkpt>
      <trkpt lat="36.8198249303" lon="-2.4402888492">
        <ele>9.27</ele>
        <time>2018-11-05T07:59:39Z</time>
      </trkpt>
      <trkpt lat="36.8197891396" lon="-2.4402476940">
        <ele>9.27</ele>
        <time>2018-11-05T07:59:40Z</time>
      </trkpt>
      <trkpt lat="36.8197575398" lon="-2.4402070418">
        <ele>9.27</ele>
        <time>2018-11-05T07:59:41Z</time>
      </trkpt>
      <trkpt lat="36.8197235093" lon="-2.4401584268">
        <ele>9.27</ele>
        <time>2018-11-05T07:59:42Z</time>
      </trkpt>
      <trkpt lat="36.8195049930" lon="-2.4398362264">
        <ele>9.27</ele>
        <time>2018-11-05T07:59:49Z</time>
      </trkpt>
      <trkpt lat="36.8194489181" lon="-2.4397327099">
        <ele>8.79</ele>
        <time>2018-11-05T07:59:51Z</time>
      </trkpt>
      <trkpt lat="36.8190691341" lon="-2.4391879700">
        <ele>8.31</ele>
        <time>2018-11-05T08:00:02Z</time>
      </trkpt>
      <trkpt lat="36.8186579179" lon="-2.4386050925">
        <ele>8.79</ele>
        <time>2018-11-05T08:00:14Z</time>
      </trkpt>
      <trkpt lat="36.8183389027" lon="-2.4381626956">
        <ele>8.31</ele>
        <time>2018-11-05T08:00:23Z</time>
      </trkpt>
      <trkpt lat="36.8180959113" lon="-2.4378140084">
        <ele>8.31</ele>
        <time>2018-11-05T08:00:30Z</time>
      </trkpt>
      <trkpt lat="36.8180775549" lon="-2.4377662316">
        <ele>8.31</ele>
        <time>2018-11-05T08:00:31Z</time>
      </trkpt>
      <trkpt lat="36.8180727772" lon="-2.4377100728">
        <ele>8.31</ele>
        <time>2018-11-05T08:00:32Z</time>
      </trkpt>
      <trkpt lat="36.8180674966" lon="-2.4376208894">
        <ele>8.31</ele>
        <time>2018-11-05T08:00:34Z</time>
      </trkpt>
      <trkpt lat="36.8180453684" lon="-2.4375871103">
        <ele>8.31</ele>
        <time>2018-11-05T08:00:35Z</time>
      </trkpt>
      <trkpt lat="36.8180161994" lon="-2.4375576060">
        <ele>8.31</ele>
        <time>2018-11-05T08:00:36Z</time>
      </trkpt>
      <trkpt lat="36.8179825041" lon="-2.4375312869">
        <ele>8.31</ele>
        <time>2018-11-05T08:00:37Z</time>
      </trkpt>
      <trkpt lat="36.8179449532" lon="-2.4375096615">
        <ele>8.79</ele>
        <time>2018-11-05T08:00:38Z</time>
      </trkpt>
      <trkpt lat="36.8179053068" lon="-2.4374928977">
        <ele>8.79</ele>
        <time>2018-11-05T08:00:39Z</time>
      </trkpt>
      <trkpt lat="36.8178663310" lon="-2.4374738708">
        <ele>8.79</ele>
        <time>2018-11-05T08:00:40Z</time>
      </trkpt>
      <trkpt lat="36.8178299535" lon="-2.4374495633">
        <ele>8.31</ele>
        <time>2018-11-05T08:00:41Z</time>
      </trkpt>
      <trkpt lat="36.8177986890" lon="-2.4374161195">
        <ele>8.31</ele>
        <time>2018-11-05T08:00:42Z</time>
      </trkpt>
      <trkpt lat="36.8177709449" lon="-2.4373687617">
        <ele>8.31</ele>
        <time>2018-11-05T08:00:43Z</time>
      </trkpt>
      <trkpt lat="36.8177458830" lon="-2.4373137765">
        <ele>8.79</ele>
        <time>2018-11-05T08:00:44Z</time>
      </trkpt>
      <trkpt lat="36.8177236710" lon="-2.4372701906">
        <ele>8.79</ele>
        <time>2018-11-05T08:00:45Z</time>
      </trkpt>
      <trkpt lat="36.8176954240" lon="-2.4372257665">
        <ele>8.79</ele>
        <time>2018-11-05T08:00:46Z</time>
      </trkpt>
      <trkpt lat="36.8174602278" lon="-2.4368826114">
        <ele>8.79</ele>
        <time>2018-11-05T08:00:53Z</time>
      </trkpt>
      <trkpt lat="36.8171125464" lon="-2.4363934435">
        <ele>8.79</ele>
        <time>2018-11-05T08:01:03Z</time>
      </trkpt>
      <trkpt lat="36.8168047629" lon="-2.4359488674">
        <ele>8.79</ele>
        <time>2018-11-05T08:01:12Z</time>
      </trkpt>
      <trkpt lat="36.8165109772" lon="-2.4355401658">
        <ele>9.27</ele>
        <time>2018-11-05T08:01:21Z</time>
      </trkpt>
      <trkpt lat="36.8161790539" lon="-2.4350692704">
        <ele>9.27</ele>
        <time>2018-11-05T08:01:32Z</time>
      </trkpt>
      <trkpt lat="36.8161218893" lon="-2.4349938333">
        <ele>9.27</ele>
        <time>2018-11-05T08:01:34Z</time>
      </trkpt>
      <trkpt lat="36.8160927203" lon="-2.4349579588">
        <ele>9.75</ele>
        <time>2018-11-05T08:01:35Z</time>
      </trkpt>
      <trkpt lat="36.8160711788" lon="-2.4349233415">
        <ele>9.75</ele>
        <time>2018-11-05T08:01:36Z</time>
      </trkpt>
      <trkpt lat="36.8160604499" lon="-2.4348859582">
        <ele>9.75</ele>
        <time>2018-11-05T08:01:37Z</time>
      </trkpt>
      <trkpt lat="36.8160681613" lon="-2.4348546099">
        <ele>9.75</ele>
        <time>2018-11-05T08:01:38Z</time>
      </trkpt>
      <trkpt lat="36.8160888646" lon="-2.4348325655">
        <ele>9.75</ele>
        <time>2018-11-05T08:01:39Z</time>
      </trkpt>
      <trkpt lat="36.8161103223" lon="-2.4348165561">
        <ele>9.75</ele>
        <time>2018-11-05T08:01:40Z</time>
      </trkpt>
      <trkpt lat="36.8161249068" lon="-2.4347971100">
        <ele>10.23</ele>
        <time>2018-11-05T08:01:41Z</time>
      </trkpt>
      <trkpt lat="36.8161264993" lon="-2.4347704556">
        <ele>10.23</ele>
        <time>2018-11-05T08:01:42Z</time>
      </trkpt>
      <trkpt lat="36.8161197938" lon="-2.4347345810">
        <ele>9.75</ele>
        <time>2018-11-05T08:01:43Z</time>
      </trkpt>
      <trkpt lat="36.8161114119" lon="-2.4346925877">
        <ele>9.75</ele>
        <time>2018-11-05T08:01:44Z</time>
      </trkpt>
      <trkpt lat="36.8161089811" lon="-2.4346429668">
        <ele>9.27</ele>
        <time>2018-11-05T08:01:45Z</time>
      </trkpt>
      <trkpt lat="36.8161130883" lon="-2.4345950224">
        <ele>9.27</ele>
        <time>2018-11-05T08:01:46Z</time>
      </trkpt>
      <trkpt lat="36.8161210511" lon="-2.4345438089">
        <ele>9.27</ele>
        <time>2018-11-05T08:01:47Z</time>
      </trkpt>
      <trkpt lat="36.8161298521" lon="-2.4344931822">
        <ele>9.27</ele>
        <time>2018-11-05T08:01:48Z</time>
      </trkpt>
      <trkpt lat="36.8161390722" lon="-2.4343931023">
        <ele>8.79</ele>
        <time>2018-11-05T08:01:50Z</time>
      </trkpt>
      <trkpt lat="36.8161332048" lon="-2.4343407992">
        <ele>8.79</ele>
        <time>2018-11-05T08:01:51Z</time>
      </trkpt>
      <trkpt lat="36.8161064666" lon="-2.4340351112">
        <ele>8.31</ele>
        <time>2018-11-05T08:01:57Z</time>
      </trkpt>
      <trkpt lat="36.8160763755" lon="-2.4334710930">
        <ele>7.35</ele>
        <time>2018-11-05T08:02:08Z</time>
      </trkpt>
      <trkpt lat="36.8160783872" lon="-2.4331246689">
        <ele>7.35</ele>
        <time>2018-11-05T08:02:16Z</time>
      </trkpt>
      <trkpt lat="36.8160800636" lon="-2.4330726173">
        <ele>6.87</ele>
        <time>2018-11-05T08:02:17Z</time>
      </trkpt>
      <trkpt lat="36.8160601985" lon="-2.4325969443">
        <ele>6.39</ele>
        <time>2018-11-05T08:02:25Z</time>
      </trkpt>
      <trkpt lat="36.8160188757" lon="-2.4320514500">
        <ele>5.91</ele>
        <time>2018-11-05T08:02:35Z</time>
      </trkpt>
      <trkpt lat="36.8159756251" lon="-2.4316044431">
        <ele>6.39</ele>
        <time>2018-11-05T08:02:44Z</time>
      </trkpt>
      <trkpt lat="36.8159522396" lon="-2.4310605414">
        <ele>6.39</ele>
        <time>2018-11-05T08:02:55Z</time>
      </trkpt>
      <trkpt lat="36.8159477133" lon="-2.4307527579">
        <ele>6.87</ele>
        <time>2018-11-05T08:03:02Z</time>
      </trkpt>
      <trkpt lat="36.8159312010" lon="-2.4303522706">
        <ele>7.83</ele>
        <time>2018-11-05T08:03:11Z</time>
      </trkpt>
      <trkpt lat="36.8159117550" lon="-2.4298706464">
        <ele>8.79</ele>
        <time>2018-11-05T08:03:21Z</time>
      </trkpt>
      <trkpt lat="36.8158861902" lon="-2.4295200314">
        <ele>8.79</ele>
        <time>2018-11-05T08:03:29Z</time>
      </trkpt>
      <trkpt lat="36.8158526625" lon="-2.4288659915">
        <ele>9.75</ele>
        <time>2018-11-05T08:03:42Z</time>
      </trkpt>
      <trkpt lat="36.8158317916" lon="-2.4283303041">
        <ele>9.75</ele>
        <time>2018-11-05T08:03:52Z</time>
      </trkpt>
      <trkpt lat="36.8157874513" lon="-2.4278067704">
        <ele>9.27</ele>
        <time>2018-11-05T08:04:02Z</time>
      </trkpt>
      <trkpt lat="36.8157675024" lon="-2.4273117352">
        <ele>6.87</ele>
        <time>2018-11-05T08:04:10Z</time>
      </trkpt>
      <trkpt lat="36.8157528341" lon="-2.4271614477">
        <ele>6.39</ele>
        <time>2018-11-05T08:04:12Z</time>
      </trkpt>
      <trkpt lat="36.8157328852" lon="-2.4270831607">
        <ele>5.91</ele>
        <time>2018-11-05T08:04:13Z</time>
      </trkpt>
      <trkpt lat="36.8157136068" lon="-2.4270163570">
        <ele>5.91</ele>
        <time>2018-11-05T08:04:14Z</time>
      </trkpt>
      <trkpt lat="36.8157037161" lon="-2.4269498885">
        <ele>5.91</ele>
        <time>2018-11-05T08:04:15Z</time>
      </trkpt>
      <trkpt lat="36.8156992737" lon="-2.4268840067">
        <ele>5.91</ele>
        <time>2018-11-05T08:04:16Z</time>
      </trkpt>
      <trkpt lat="36.8156610522" lon="-2.4263338186">
        <ele>5.91</ele>
        <time>2018-11-05T08:04:25Z</time>
      </trkpt>
      <trkpt lat="36.8156645726" lon="-2.4262693617">
        <ele>5.42</ele>
        <time>2018-11-05T08:04:26Z</time>
      </trkpt>
      <trkpt lat="36.8156681769" lon="-2.4262000434">
        <ele>5.91</ele>
        <time>2018-11-05T08:04:27Z</time>
      </trkpt>
      <trkpt lat="36.8156657461" lon="-2.4261364248">
        <ele>5.91</ele>
        <time>2018-11-05T08:04:28Z</time>
      </trkpt>
      <trkpt lat="36.8156345654" lon="-2.4255969655">
        <ele>5.91</ele>
        <time>2018-11-05T08:04:37Z</time>
      </trkpt>
      <trkpt lat="36.8155942485" lon="-2.4250553269">
        <ele>6.39</ele>
        <time>2018-11-05T08:04:46Z</time>
      </trkpt>
      <trkpt lat="36.8155519199" lon="-2.4244369939">
        <ele>5.91</ele>
        <time>2018-11-05T08:04:56Z</time>
      </trkpt>
      <trkpt lat="36.8155731261" lon="-2.4239319842">
        <ele>5.42</ele>
        <time>2018-11-05T08:05:04Z</time>
      </trkpt>
      <trkpt lat="36.8156713620" lon="-2.4233771861">
        <ele>5.42</ele>
        <time>2018-11-05T08:05:12Z</time>
      </trkpt>
      <trkpt lat="36.8158685043" lon="-2.4227275886">
        <ele>5.91</ele>
        <time>2018-11-05T08:05:22Z</time>
      </trkpt>
      <trkpt lat="36.8161048740" lon="-2.4221940804">
        <ele>5.91</ele>
        <time>2018-11-05T08:05:31Z</time>
      </trkpt>
      <trkpt lat="36.8163535651" lon="-2.4217507616">
        <ele>6.39</ele>
        <time>2018-11-05T08:05:39Z</time>
      </trkpt>
      <trkpt lat="36.8166782800" lon="-2.4211674649">
        <ele>7.83</ele>
        <time>2018-11-05T08:05:49Z</time>
      </trkpt>
      <trkpt lat="36.8168998137" lon="-2.4207745213">
        <ele>9.75</ele>
        <time>2018-11-05T08:05:56Z</time>
      </trkpt>
      <trkpt lat="36.8171467446" lon="-2.4201922305">
        <ele>10.23</ele>
        <time>2018-11-05T08:06:06Z</time>
      </trkpt>
      <trkpt lat="36.8173497543" lon="-2.4196077604">
        <ele>11.67</ele>
        <time>2018-11-05T08:06:16Z</time>
      </trkpt>
      <trkpt lat="36.8174974434" lon="-2.4191246275">
        <ele>11.67</ele>
        <time>2018-11-05T08:06:24Z</time>
      </trkpt>
      <trkpt lat="36.8176867906" lon="-2.4184354674">
        <ele>11.19</ele>
        <time>2018-11-05T08:06:34Z</time>
      </trkpt>
      <trkpt lat="36.8179161195" lon="-2.4176770728">
        <ele>10.71</ele>
        <time>2018-11-05T08:06:45Z</time>
      </trkpt>
      <trkpt lat="36.8181395810" lon="-2.4169152416">
        <ele>9.27</ele>
        <time>2018-11-05T08:06:56Z</time>
      </trkpt>
      <trkpt lat="36.8182892818" lon="-2.4162754510">
        <ele>8.79</ele>
        <time>2018-11-05T08:07:06Z</time>
      </trkpt>
      <trkpt lat="36.8184055388" lon="-2.4156258535">
        <ele>9.27</ele>
        <time>2018-11-05T08:07:16Z</time>
      </trkpt>
      <trkpt lat="36.8184960634" lon="-2.4151195027">
        <ele>8.79</ele>
        <time>2018-11-05T08:07:24Z</time>
      </trkpt>
      <trkpt lat="36.8186206184" lon="-2.4144344497">
        <ele>8.79</ele>
        <time>2018-11-05T08:07:34Z</time>
      </trkpt>
      <trkpt lat="36.8187372945" lon="-2.4138157815">
        <ele>8.31</ele>
        <time>2018-11-05T08:07:43Z</time>
      </trkpt>
      <trkpt lat="36.8189662881" lon="-2.4131559581">
        <ele>8.79</ele>
        <time>2018-11-05T08:07:53Z</time>
      </trkpt>
      <trkpt lat="36.8192650191" lon="-2.4125679675">
        <ele>8.31</ele>
        <time>2018-11-05T08:08:02Z</time>
      </trkpt>
      <trkpt lat="36.8195573799" lon="-2.4119931366">
        <ele>8.31</ele>
        <time>2018-11-05T08:08:11Z</time>
      </trkpt>
      <trkpt lat="36.8199005350" lon="-2.4113390129">
        <ele>9.27</ele>
        <time>2018-11-05T08:08:22Z</time>
      </trkpt>
      <trkpt lat="36.8201655708" lon="-2.4110083468">
        <ele>10.23</ele>
        <time>2018-11-05T08:08:29Z</time>
      </trkpt>
      <trkpt lat="36.8203756213" lon="-2.4107946921">
        <ele>9.75</ele>
        <time>2018-11-05T08:08:35Z</time>
      </trkpt>
      <trkpt lat="36.8203732744" lon="-2.4107604101">
        <ele>9.27</ele>
        <time>2018-11-05T08:08:36Z</time>
      </trkpt>
      <trkpt lat="36.8203689158" lon="-2.4107268825">
        <ele>9.27</ele>
        <time>2018-11-05T08:08:37Z</time>
      </trkpt>
      <trkpt lat="36.8203773815" lon="-2.4106920976">
        <ele>9.27</ele>
        <time>2018-11-05T08:08:38Z</time>
      </trkpt>
      <trkpt lat="36.8203986716" lon="-2.4106596597">
        <ele>9.27</ele>
        <time>2018-11-05T08:08:39Z</time>
      </trkpt>
      <trkpt lat="36.8204270024" lon="-2.4106304906">
        <ele>9.27</ele>
        <time>2018-11-05T08:08:40Z</time>
      </trkpt>
      <trkpt lat="36.8204595242" lon="-2.4105995614">
        <ele>9.27</ele>
        <time>2018-11-05T08:08:41Z</time>
      </trkpt>
      <trkpt lat="36.8208438344" lon="-2.4102586694">
        <ele>8.79</ele>
        <time>2018-11-05T08:08:52Z</time>
      </trkpt>
      <trkpt lat="36.8208777811" lon="-2.4102300033">
        <ele>8.79</ele>
        <time>2018-11-05T08:08:53Z</time>
      </trkpt>
      <trkpt lat="36.8210779410" lon="-2.4100686517">
        <ele>9.27</ele>
        <time>2018-11-05T08:08:59Z</time>
      </trkpt>
      <trkpt lat="36.8211053498" lon="-2.4100734293">
        <ele>9.27</ele>
        <time>2018-11-05T08:09:00Z</time>
      </trkpt>
      <trkpt lat="36.8211293221" lon="-2.4100870080">
        <ele>9.27</ele>
        <time>2018-11-05T08:09:01Z</time>
      </trkpt>
      <trkpt lat="36.8211568147" lon="-2.4100984912">
        <ele>9.27</ele>
        <time>2018-11-05T08:09:02Z</time>
      </trkpt>
      <trkpt lat="36.8211902585" lon="-2.4100932945">
        <ele>9.27</ele>
        <time>2018-11-05T08:09:03Z</time>
      </trkpt>
      <trkpt lat="36.8212242052" lon="-2.4100757763">
        <ele>9.27</ele>
        <time>2018-11-05T08:09:04Z</time>
      </trkpt>
      <trkpt lat="36.8212566432" lon="-2.4100509658">
        <ele>9.27</ele>
        <time>2018-11-05T08:09:05Z</time>
      </trkpt>
      <trkpt lat="36.8212915957" lon="-2.4100229703">
        <ele>9.27</ele>
        <time>2018-11-05T08:09:06Z</time>
      </trkpt>
      <trkpt lat="36.8216288835" lon="-2.4097494688">
        <ele>8.79</ele>
        <time>2018-11-05T08:09:15Z</time>
      </trkpt>
      <trkpt lat="36.8220017944" lon="-2.4094759673">
        <ele>8.79</ele>
        <time>2018-11-05T08:09:23Z</time>
      </trkpt>
      <trkpt lat="36.8223800696" lon="-2.4091797508">
        <ele>7.83</ele>
        <time>2018-11-05T08:09:31Z</time>
      </trkpt>
      <trkpt lat="36.8228968978" lon="-2.4087811913">
        <ele>7.83</ele>
        <time>2018-11-05T08:09:42Z</time>
      </trkpt>
      <trkpt lat="36.8233361095" lon="-2.4084506091">
        <ele>7.35</ele>
        <time>2018-11-05T08:09:52Z</time>
      </trkpt>
      <trkpt lat="36.8238629960" lon="-2.4079866707">
        <ele>6.39</ele>
        <time>2018-11-05T08:10:04Z</time>
      </trkpt>
      <trkpt lat="36.8243531696" lon="-2.4074919708">
        <ele>5.91</ele>
        <time>2018-11-05T08:10:15Z</time>
      </trkpt>
      <trkpt lat="36.8248601910" lon="-2.4069616478">
        <ele>5.42</ele>
        <time>2018-11-05T08:10:27Z</time>
      </trkpt>
      <trkpt lat="36.8252365384" lon="-2.4065835401">
        <ele>5.42</ele>
        <time>2018-11-05T08:10:36Z</time>
      </trkpt>
      <trkpt lat="36.8257480022" lon="-2.4060523789">
        <ele>5.91</ele>
        <time>2018-11-05T08:10:48Z</time>
      </trkpt>
      <trkpt lat="36.8260924984" lon="-2.4056920409">
        <ele>5.91</ele>
        <time>2018-11-05T08:10:57Z</time>
      </trkpt>
      <trkpt lat="36.8264815863" lon="-2.4052094948">
        <ele>5.91</ele>
        <time>2018-11-05T08:11:08Z</time>
      </trkpt>
      <trkpt lat="36.8268196285" lon="-2.4047701992">
        <ele>5.42</ele>
        <time>2018-11-05T08:11:17Z</time>
      </trkpt>
      <trkpt lat="36.8271893542" lon="-2.4042053428">
        <ele>4.94</ele>
        <time>2018-11-05T08:11:27Z</time>
      </trkpt>
      <trkpt lat="36.8275097944" lon="-2.4036389776">
        <ele>4.46</ele>
        <time>2018-11-05T08:11:36Z</time>
      </trkpt>
      <trkpt lat="36.8277686276" lon="-2.4031154439">
        <ele>4.46</ele>
        <time>2018-11-05T08:11:44Z</time>
      </trkpt>
      <trkpt lat="36.8280168995" lon="-2.4025464803">
        <ele>4.46</ele>
        <time>2018-11-05T08:11:54Z</time>
      </trkpt>
      <trkpt lat="36.8281432986" lon="-2.4022669438">
        <ele>4.46</ele>
        <time>2018-11-05T08:11:59Z</time>
      </trkpt>
      <trkpt lat="36.8281662650" lon="-2.4022045825">
        <ele>4.46</ele>
        <time>2018-11-05T08:12:00Z</time>
      </trkpt>
      <trkpt lat="36.8283832725" lon="-2.4016001634">
        <ele>4.46</ele>
        <time>2018-11-05T08:12:09Z</time>
      </trkpt>
      <trkpt lat="36.8286366574" lon="-2.4007974286">
        <ele>4.94</ele>
        <time>2018-11-05T08:12:21Z</time>
      </trkpt>
      <trkpt lat="36.8287690077" lon="-2.4003423750">
        <ele>4.94</ele>
        <time>2018-11-05T08:12:29Z</time>
      </trkpt>
      <trkpt lat="36.8289005198" lon="-2.3999604955">
        <ele>4.94</ele>
        <time>2018-11-05T08:12:38Z</time>
      </trkpt>
      <trkpt lat="36.8290035333" lon="-2.3996096291">
        <ele>4.46</ele>
        <time>2018-11-05T08:12:48Z</time>
      </trkpt>
      <trkpt lat="36.8290088978" lon="-2.3995768558">
        <ele>3.98</ele>
        <time>2018-11-05T08:12:55Z</time>
      </trkpt>
      <trkpt lat="36.8290067185" lon="-2.3995824717">
        <ele>3.50</ele>
        <time>2018-11-05T08:13:13Z</time>
      </trkpt>
      <trkpt lat="36.8290084787" lon="-2.3995745089">
        <ele>3.98</ele>
        <time>2018-11-05T08:13:36Z</time>
      </trkpt>
      <trkpt lat="36.8290106580" lon="-2.3995715752">
        <ele>3.50</ele>
        <time>2018-11-05T08:13:55Z</time>
      </trkpt>
      <trkpt lat="36.8290051259" lon="-2.3995720781">
        <ele>3.02</ele>
        <time>2018-11-05T08:14:13Z</time>
      </trkpt>
      <trkpt lat="36.8290115800" lon="-2.3995680548">
        <ele>3.50</ele>
        <time>2018-11-05T08:14:24Z</time>
      </trkpt>
      <trkpt lat="36.8290190399" lon="-2.3995566554">
        <ele>3.50</ele>
        <time>2018-11-05T08:14:25Z</time>
      </trkpt>
      <trkpt lat="36.8290279247" lon="-2.3995428253">
        <ele>3.98</ele>
        <time>2018-11-05T08:14:26Z</time>
      </trkpt>
      <trkpt lat="36.8290355522" lon="-2.3995261453">
        <ele>3.98</ele>
        <time>2018-11-05T08:14:27Z</time>
      </trkpt>
      <trkpt lat="36.8291125819" lon="-2.3992686532">
        <ele>3.50</ele>
        <time>2018-11-05T08:14:35Z</time>
      </trkpt>
      <trkpt lat="36.8292249832" lon="-2.3989028670">
        <ele>3.50</ele>
        <time>2018-11-05T08:14:44Z</time>
      </trkpt>
      <trkpt lat="36.8293413240" lon="-2.3985225800">
        <ele>3.50</ele>
        <time>2018-11-05T08:14:53Z</time>
      </trkpt>
      <trkpt lat="36.8294792064" lon="-2.3980866373">
        <ele>3.50</ele>
        <time>2018-11-05T08:15:03Z</time>
      </trkpt>
      <trkpt lat="36.8296110537" lon="-2.3976338468">
        <ele>3.50</ele>
        <time>2018-11-05T08:15:11Z</time>
      </trkpt>
      <trkpt lat="36.8297915161" lon="-2.3970384803">
        <ele>3.50</ele>
        <time>2018-11-05T08:15:20Z</time>
      </trkpt>
      <trkpt lat="36.8299777620" lon="-2.3964175489">
        <ele>3.50</ele>
        <time>2018-11-05T08:15:29Z</time>
      </trkpt>
      <trkpt lat="36.8302474078" lon="-2.3956246208">
        <ele>3.02</ele>
        <time>2018-11-05T08:15:41Z</time>
      </trkpt>
      <trkpt lat="36.8304521777" lon="-2.3950115684">
        <ele>2.54</ele>
        <time>2018-11-05T08:15:50Z</time>
      </trkpt>
      <trkpt lat="36.8307054788" lon="-2.3943434469">
        <ele>2.06</ele>
        <time>2018-11-05T08:16:00Z</time>
      </trkpt>
      <trkpt lat="36.8309337180" lon="-2.3937266227">
        <ele>1.58</ele>
        <time>2018-11-05T08:16:09Z</time>
      </trkpt>
      <trkpt lat="36.8312119134" lon="-2.3930268176">
        <ele>2.06</ele>
        <time>2018-11-05T08:16:19Z</time>
      </trkpt>
      <trkpt lat="36.8314829003" lon="-2.3923086561">
        <ele>2.06</ele>
        <time>2018-11-05T08:16:30Z</time>
      </trkpt>
      <trkpt lat="36.8317681365" lon="-2.3916418757">
        <ele>3.02</ele>
        <time>2018-11-05T08:16:40Z</time>
      </trkpt>
      <trkpt lat="36.8321131356" lon="-2.3909227923">
        <ele>2.54</ele>
        <time>2018-11-05T08:16:51Z</time>
      </trkpt>
      <trkpt lat="36.8325193226" lon="-2.3901033774">
        <ele>3.02</ele>
        <time>2018-11-05T08:17:04Z</time>
      </trkpt>
      <trkpt lat="36.8328276090" lon="-2.3894707952">
        <ele>3.02</ele>
        <time>2018-11-05T08:17:14Z</time>
      </trkpt>
      <trkpt lat="36.8330385815" lon="-2.3890552204">
        <ele>3.98</ele>
        <time>2018-11-05T08:17:21Z</time>
      </trkpt>
      <trkpt lat="36.8331675790" lon="-2.3887787852">
        <ele>3.02</ele>
        <time>2018-11-05T08:17:27Z</time>
      </trkpt>
      <trkpt lat="36.8331933953" lon="-2.3887281585">
        <ele>3.02</ele>
        <time>2018-11-05T08:17:28Z</time>
      </trkpt>
      <trkpt lat="36.8332239892" lon="-2.3886741791">
        <ele>2.54</ele>
        <time>2018-11-05T08:17:29Z</time>
      </trkpt>
      <trkpt lat="36.8332575168" lon="-2.3886244744">
        <ele>2.54</ele>
        <time>2018-11-05T08:17:30Z</time>
      </trkpt>
      <trkpt lat="36.8332995940" lon="-2.3885691538">
        <ele>2.54</ele>
        <time>2018-11-05T08:17:31Z</time>
      </trkpt>
      <trkpt lat="36.8334484566" lon="-2.3883944750">
        <ele>3.50</ele>
        <time>2018-11-05T08:17:36Z</time>
      </trkpt>
      <trkpt lat="36.8334596045" lon="-2.3883731849">
        <ele>3.50</ele>
        <time>2018-11-05T08:17:37Z</time>
      </trkpt>
      <trkpt lat="36.8334626220" lon="-2.3883492127">
        <ele>3.50</ele>
        <time>2018-11-05T08:17:38Z</time>
      </trkpt>
      <trkpt lat="36.8334579282" lon="-2.3883250728">
        <ele>3.98</ele>
        <time>2018-11-05T08:17:39Z</time>
      </trkpt>
      <trkpt lat="36.8334487919" lon="-2.3883021902">
        <ele>3.98</ele>
        <time>2018-11-05T08:17:40Z</time>
      </trkpt>
      <trkpt lat="36.8334395718" lon="-2.3882809002">
        <ele>3.98</ele>
        <time>2018-11-05T08:17:41Z</time>
      </trkpt>
      <trkpt lat="36.8334350456" lon="-2.3882531561">
        <ele>3.98</ele>
        <time>2018-11-05T08:17:42Z</time>
      </trkpt>
      <trkpt lat="36.8334412482" lon="-2.3882218916">
        <ele>3.98</ele>
        <time>2018-11-05T08:17:43Z</time>
      </trkpt>
      <trkpt lat="36.8334597722" lon="-2.3881916329">
        <ele>4.46</ele>
        <time>2018-11-05T08:17:44Z</time>
      </trkpt>
      <trkpt lat="36.8334834091" lon="-2.3881676607">
        <ele>4.46</ele>
        <time>2018-11-05T08:17:45Z</time>
      </trkpt>
      <trkpt lat="36.8335135840" lon="-2.3881422635">
        <ele>4.46</ele>
        <time>2018-11-05T08:17:46Z</time>
      </trkpt>
      <trkpt lat="36.8336322717" lon="-2.3879698478">
        <ele>4.46</ele>
        <time>2018-11-05T08:17:52Z</time>
      </trkpt>
      <trkpt lat="36.8336534780" lon="-2.3879302014">
        <ele>4.46</ele>
        <time>2018-11-05T08:17:54Z</time>
      </trkpt>
      <trkpt lat="36.8336558249" lon="-2.3879140243">
        <ele>4.46</ele>
        <time>2018-11-05T08:18:01Z</time>
      </trkpt>
      <trkpt lat="36.8336546514" lon="-2.3879010323">
        <ele>4.94</ele>
        <time>2018-11-05T08:18:26Z</time>
      </trkpt>
      <trkpt lat="36.8336623628" lon="-2.3878879566">
        <ele>4.94</ele>
        <time>2018-11-05T08:18:35Z</time>
      </trkpt>
      <trkpt lat="36.8336709961" lon="-2.3878745455">
        <ele>4.94</ele>
        <time>2018-11-05T08:18:36Z</time>
      </trkpt>
      <trkpt lat="36.8336812221" lon="-2.3878593743">
        <ele>5.42</ele>
        <time>2018-11-05T08:18:37Z</time>
      </trkpt>
      <trkpt lat="36.8337895162" lon="-2.3877142835">
        <ele>5.42</ele>
        <time>2018-11-05T08:18:44Z</time>
      </trkpt>
      <trkpt lat="36.8339691404" lon="-2.3874454759">
        <ele>4.94</ele>
        <time>2018-11-05T08:18:53Z</time>
      </trkpt>
      <trkpt lat="36.8341408018" lon="-2.3871338367">
        <ele>4.94</ele>
        <time>2018-11-05T08:19:03Z</time>
      </trkpt>
      <trkpt lat="36.8343253713" lon="-2.3867874127">
        <ele>4.94</ele>
        <time>2018-11-05T08:19:14Z</time>
      </trkpt>
      <trkpt lat="36.8344789278" lon="-2.3864652123">
        <ele>4.94</ele>
        <time>2018-11-05T08:19:24Z</time>
      </trkpt>
      <trkpt lat="36.8346361723" lon="-2.3861264158">
        <ele>5.42</ele>
        <time>2018-11-05T08:19:33Z</time>
      </trkpt>
      <trkpt lat="36.8348123599" lon="-2.3857208993">
        <ele>5.42</ele>
        <time>2018-11-05T08:19:43Z</time>
      </trkpt>
      <trkpt lat="36.8349662516" lon="-2.3853551131">
        <ele>4.94</ele>
        <time>2018-11-05T08:19:52Z</time>
      </trkpt>
      <trkpt lat="36.8350601289" lon="-2.3850067612">
        <ele>3.98</ele>
        <time>2018-11-05T08:20:00Z</time>
      </trkpt>
      <trkpt lat="36.8351535033" lon="-2.3847483471">
        <ele>3.02</ele>
        <time>2018-11-05T08:20:06Z</time>
      </trkpt>
      <trkpt lat="36.8353078980" lon="-2.3845162522">
        <ele>3.50</ele>
        <time>2018-11-05T08:20:13Z</time>
      </trkpt>
      <trkpt lat="36.8355472852" lon="-2.3843056988">
        <ele>3.98</ele>
        <time>2018-11-05T08:20:21Z</time>
      </trkpt>
      <trkpt lat="36.8356541544" lon="-2.3840793874">
        <ele>4.46</ele>
        <time>2018-11-05T08:20:28Z</time>
      </trkpt>
      <trkpt lat="36.8357930426" lon="-2.3837312870">
        <ele>3.50</ele>
        <time>2018-11-05T08:20:36Z</time>
      </trkpt>
      <trkpt lat="36.8359447550" lon="-2.3833449651">
        <ele>3.50</ele>
        <time>2018-11-05T08:20:43Z</time>
      </trkpt>
      <trkpt lat="36.8361699767" lon="-2.3827654403">
        <ele>3.50</ele>
        <time>2018-11-05T08:20:54Z</time>
      </trkpt>
      <trkpt lat="36.8363537919" lon="-2.3823117279">
        <ele>3.02</ele>
        <time>2018-11-05T08:21:03Z</time>
      </trkpt>
      <trkpt lat="36.8365326617" lon="-2.3818332888">
        <ele>2.54</ele>
        <time>2018-11-05T08:21:12Z</time>
      </trkpt>
      <trkpt lat="36.8366899062" lon="-2.3814089131">
        <ele>2.54</ele>
        <time>2018-11-05T08:21:20Z</time>
      </trkpt>
      <trkpt lat="36.8368659262" lon="-2.3809406161">
        <ele>3.98</ele>
        <time>2018-11-05T08:21:29Z</time>
      </trkpt>
      <trkpt lat="36.8369073328" lon="-2.3808455653">
        <ele>3.98</ele>
        <time>2018-11-05T08:21:31Z</time>
      </trkpt>
      <trkpt lat="36.8369244318" lon="-2.3807943519">
        <ele>3.98</ele>
        <time>2018-11-05T08:21:32Z</time>
      </trkpt>
      <trkpt lat="36.8369348254" lon="-2.3807479162">
        <ele>3.98</ele>
        <time>2018-11-05T08:21:33Z</time>
      </trkpt>
      <trkpt lat="36.8369412795" lon="-2.3806994688">
        <ele>3.98</ele>
        <time>2018-11-05T08:21:34Z</time>
      </trkpt>
      <trkpt lat="36.8369459733" lon="-2.3806505185">
        <ele>3.98</ele>
        <time>2018-11-05T08:21:35Z</time>
      </trkpt>
      <trkpt lat="36.8369566184" lon="-2.3805990536">
        <ele>3.98</ele>
        <time>2018-11-05T08:21:36Z</time>
      </trkpt>
      <trkpt lat="36.8369714543" lon="-2.3805533722">
        <ele>3.98</ele>
        <time>2018-11-05T08:21:37Z</time>
      </trkpt>
      <trkpt lat="36.8369883019" lon="-2.3805103730">
        <ele>3.50</ele>
        <time>2018-11-05T08:21:38Z</time>
      </trkpt>
      <trkpt lat="36.8371757213" lon="-2.3800980672">
        <ele>3.98</ele>
        <time>2018-11-05T08:21:47Z</time>
      </trkpt>
      <trkpt lat="36.8372783158" lon="-2.3799300101">
        <ele>3.98</ele>
        <time>2018-11-05T08:21:51Z</time>
      </trkpt>
      <trkpt lat="36.8372989353" lon="-2.3798760306">
        <ele>3.98</ele>
        <time>2018-11-05T08:21:52Z</time>
      </trkpt>
      <trkpt lat="36.8375472911" lon="-2.3792271037">
        <ele>3.98</ele>
        <time>2018-11-05T08:22:04Z</time>
      </trkpt>
      <trkpt lat="36.8376941420" lon="-2.3788401950">
        <ele>3.02</ele>
        <time>2018-11-05T08:22:11Z</time>
      </trkpt>
      <trkpt lat="36.8378843274" lon="-2.3783495184">
        <ele>3.02</ele>
        <time>2018-11-05T08:22:20Z</time>
      </trkpt>
      <trkpt lat="36.8379010912" lon="-2.3782972991">
        <ele>2.54</ele>
        <time>2018-11-05T08:22:21Z</time>
      </trkpt>
      <trkpt lat="36.8379036896" lon="-2.3782434035">
        <ele>2.54</ele>
        <time>2018-11-05T08:22:22Z</time>
      </trkpt>
      <trkpt lat="36.8378997501" lon="-2.3781936988">
        <ele>2.06</ele>
        <time>2018-11-05T08:22:23Z</time>
      </trkpt>
      <trkpt lat="36.8379034381" lon="-2.3781374563">
        <ele>2.06</ele>
        <time>2018-11-05T08:22:24Z</time>
      </trkpt>
      <trkpt lat="36.8379171006" lon="-2.3780801240">
        <ele>2.54</ele>
        <time>2018-11-05T08:22:25Z</time>
      </trkpt>
      <trkpt lat="36.8379370496" lon="-2.3780230433">
        <ele>2.54</ele>
        <time>2018-11-05T08:22:26Z</time>
      </trkpt>
      <trkpt lat="36.8379595131" lon="-2.3779644538">
        <ele>2.54</ele>
        <time>2018-11-05T08:22:27Z</time>
      </trkpt>
      <trkpt lat="36.8381468486" lon="-2.3775008507">
        <ele>2.06</ele>
        <time>2018-11-05T08:22:35Z</time>
      </trkpt>
      <trkpt lat="36.8382381275" lon="-2.3772728629">
        <ele>2.54</ele>
        <time>2018-11-05T08:22:39Z</time>
      </trkpt>
      <trkpt lat="36.8382512033" lon="-2.3772151954">
        <ele>2.54</ele>
        <time>2018-11-05T08:22:40Z</time>
      </trkpt>
      <trkpt lat="36.8382979743" lon="-2.3769360781">
        <ele>2.06</ele>
        <time>2018-11-05T08:22:45Z</time>
      </trkpt>
      <trkpt lat="36.8383786920" lon="-2.3767256923">
        <ele>2.06</ele>
        <time>2018-11-05T08:22:49Z</time>
      </trkpt>
      <trkpt lat="36.8385951966" lon="-2.3763685394">
        <ele>2.06</ele>
        <time>2018-11-05T08:22:57Z</time>
      </trkpt>
      <trkpt lat="36.8388383556" lon="-2.3759183474">
        <ele>2.54</ele>
        <time>2018-11-05T08:23:07Z</time>
      </trkpt>
      <trkpt lat="36.8389671016" lon="-2.3756604362">
        <ele>3.02</ele>
        <time>2018-11-05T08:23:14Z</time>
      </trkpt>
      <trkpt lat="36.8389853742" lon="-2.3755627871">
        <ele>2.54</ele>
        <time>2018-11-05T08:23:17Z</time>
      </trkpt>
      <trkpt lat="36.8390024733" lon="-2.3755400721">
        <ele>2.54</ele>
        <time>2018-11-05T08:23:18Z</time>
      </trkpt>
      <trkpt lat="36.8390186504" lon="-2.3755224701">
        <ele>2.54</ele>
        <time>2018-11-05T08:23:19Z</time>
      </trkpt>
      <trkpt lat="36.8391204905" lon="-2.3754166905">
        <ele>3.02</ele>
        <time>2018-11-05T08:23:26Z</time>
      </trkpt>
      <trkpt lat="36.8392666709" lon="-2.3752012756">
        <ele>3.98</ele>
        <time>2018-11-05T08:23:33Z</time>
      </trkpt>
      <trkpt lat="36.8394113425" lon="-2.3751156963">
        <ele>3.98</ele>
        <time>2018-11-05T08:23:38Z</time>
      </trkpt>
      <trkpt lat="36.8395179603" lon="-2.3750405107">
        <ele>3.98</ele>
        <time>2018-11-05T08:23:43Z</time>
      </trkpt>
      <trkpt lat="36.8396045454" lon="-2.3748279456">
        <ele>3.02</ele>
        <time>2018-11-05T08:23:48Z</time>
      </trkpt>
      <trkpt lat="36.8397525698" lon="-2.3745803442">
        <ele>3.02</ele>
        <time>2018-11-05T08:23:55Z</time>
      </trkpt>
      <trkpt lat="36.8399295118" lon="-2.3744046595">
        <ele>3.02</ele>
        <time>2018-11-05T08:24:01Z</time>
      </trkpt>
      <trkpt lat="36.8402345292" lon="-2.3740675393">
        <ele>3.98</ele>
        <time>2018-11-05T08:24:11Z</time>
      </trkpt>
      <trkpt lat="36.8402948789" lon="-2.3739863187">
        <ele>3.98</ele>
        <time>2018-11-05T08:24:13Z</time>
      </trkpt>
      <trkpt lat="36.8405358586" lon="-2.3735910282">
        <ele>3.50</ele>
        <time>2018-11-05T08:24:22Z</time>
      </trkpt>
      <trkpt lat="36.8406122178" lon="-2.3734639585">
        <ele>3.50</ele>
        <time>2018-11-05T08:24:25Z</time>
      </trkpt>
      <trkpt lat="36.8406331725" lon="-2.3734144215">
        <ele>3.50</ele>
        <time>2018-11-05T08:24:26Z</time>
      </trkpt>
      <trkpt lat="36.8406470865" lon="-2.3733707517">
        <ele>3.50</ele>
        <time>2018-11-05T08:24:27Z</time>
      </trkpt>
      <trkpt lat="36.8406543788" lon="-2.3733228073">
        <ele>3.50</ele>
        <time>2018-11-05T08:24:28Z</time>
      </trkpt>
      <trkpt lat="36.8406527024" lon="-2.3732793052">
        <ele>3.50</ele>
        <time>2018-11-05T08:24:29Z</time>
      </trkpt>
      <trkpt lat="36.8406488467" lon="-2.3732296005">
        <ele>3.02</ele>
        <time>2018-11-05T08:24:30Z</time>
      </trkpt>
      <trkpt lat="36.8406553008" lon="-2.3731856793">
        <ele>3.02</ele>
        <time>2018-11-05T08:24:31Z</time>
      </trkpt>
      <trkpt lat="36.8406663649" lon="-2.3731411714">
        <ele>3.02</ele>
        <time>2018-11-05T08:24:32Z</time>
      </trkpt>
      <trkpt lat="36.8407293130" lon="-2.3728871159">
        <ele>2.54</ele>
        <time>2018-11-05T08:24:39Z</time>
      </trkpt>
      <trkpt lat="36.8407876510" lon="-2.3727561906">
        <ele>2.54</ele>
        <time>2018-11-05T08:24:45Z</time>
      </trkpt>
      <trkpt lat="36.8408593163" lon="-2.3725885525">
        <ele>3.02</ele>
        <time>2018-11-05T08:24:51Z</time>
      </trkpt>
      <trkpt lat="36.8408831209" lon="-2.3723951820">
        <ele>3.02</ele>
        <time>2018-11-05T08:24:56Z</time>
      </trkpt>
      <trkpt lat="36.8410109449" lon="-2.3720992170">
        <ele>3.02</ele>
        <time>2018-11-05T08:25:04Z</time>
      </trkpt>
      <trkpt lat="36.8411456421" lon="-2.3719164077">
        <ele>2.54</ele>
        <time>2018-11-05T08:25:09Z</time>
      </trkpt>
      <trkpt lat="36.8411671836" lon="-2.3718727380">
        <ele>3.02</ele>
        <time>2018-11-05T08:25:10Z</time>
      </trkpt>
      <trkpt lat="36.8411898147" lon="-2.3718321696">
        <ele>2.54</ele>
        <time>2018-11-05T08:25:11Z</time>
      </trkpt>
      <trkpt lat="36.8412339874" lon="-2.3717429861">
        <ele>2.54</ele>
        <time>2018-11-05T08:25:13Z</time>
      </trkpt>
      <trkpt lat="36.8412473146" lon="-2.3716994841">
        <ele>2.54</ele>
        <time>2018-11-05T08:25:14Z</time>
      </trkpt>
      <trkpt lat="36.8412634917" lon="-2.3716534674">
        <ele>2.54</ele>
        <time>2018-11-05T08:25:15Z</time>
      </trkpt>
      <trkpt lat="36.8412805907" lon="-2.3716157489">
        <ele>2.54</ele>
        <time>2018-11-05T08:25:16Z</time>
      </trkpt>
      <trkpt lat="36.8412982766" lon="-2.3715758510">
        <ele>2.54</ele>
        <time>2018-11-05T08:25:17Z</time>
      </trkpt>
      <trkpt lat="36.8413152080" lon="-2.3715374619">
        <ele>2.54</ele>
        <time>2018-11-05T08:25:18Z</time>
      </trkpt>
      <trkpt lat="36.8413318042" lon="-2.3714996595">
        <ele>2.54</ele>
        <time>2018-11-05T08:25:19Z</time>
      </trkpt>
      <trkpt lat="36.8413500767" lon="-2.3714647908">
        <ele>2.54</ele>
        <time>2018-11-05T08:25:20Z</time>
      </trkpt>
      <trkpt lat="36.8413683493" lon="-2.3714325204">
        <ele>2.54</ele>
        <time>2018-11-05T08:25:21Z</time>
      </trkpt>
      <trkpt lat="36.8414554372" lon="-2.3712105677">
        <ele>3.02</ele>
        <time>2018-11-05T08:25:27Z</time>
      </trkpt>
      <trkpt lat="36.8414757214" lon="-2.3709417600">
        <ele>3.02</ele>
        <time>2018-11-05T08:25:34Z</time>
      </trkpt>
      <trkpt lat="36.8414535932" lon="-2.3706264328">
        <ele>2.54</ele>
        <time>2018-11-05T08:25:42Z</time>
      </trkpt>
      <trkpt lat="36.8414254300" lon="-2.3703279532">
        <ele>2.54</ele>
        <time>2018-11-05T08:25:49Z</time>
      </trkpt>
      <trkpt lat="36.8414960057" lon="-2.3700863868">
        <ele>2.54</ele>
        <time>2018-11-05T08:25:57Z</time>
      </trkpt>
      <trkpt lat="36.8415648211" lon="-2.3697860632">
        <ele>2.06</ele>
        <time>2018-11-05T08:26:04Z</time>
      </trkpt>
      <trkpt lat="36.8415850215" lon="-2.3695632722">
        <ele>2.06</ele>
        <time>2018-11-05T08:26:10Z</time>
      </trkpt>
      <trkpt lat="36.8416122627" lon="-2.3695219494">
        <ele>2.06</ele>
        <time>2018-11-05T08:26:12Z</time>
      </trkpt>
      <trkpt lat="36.8417230714" lon="-2.3691038601">
        <ele>1.58</ele>
        <time>2018-11-05T08:26:24Z</time>
      </trkpt>
      <trkpt lat="36.8417733628" lon="-2.3688405007">
        <ele>1.58</ele>
        <time>2018-11-05T08:26:30Z</time>
      </trkpt>
      <trkpt lat="36.8418823276" lon="-2.3686749581">
        <ele>2.06</ele>
        <time>2018-11-05T08:26:35Z</time>
      </trkpt>
      <trkpt lat="36.8418917991" lon="-2.3685245030">
        <ele>2.06</ele>
        <time>2018-11-05T08:26:39Z</time>
      </trkpt>
      <trkpt lat="36.8417989276" lon="-2.3683798313">
        <ele>2.06</ele>
        <time>2018-11-05T08:26:45Z</time>
      </trkpt>
      <trkpt lat="36.8417478818" lon="-2.3682572041">
        <ele>1.58</ele>
        <time>2018-11-05T08:26:50Z</time>
      </trkpt>
      <trkpt lat="36.8417303637" lon="-2.3680621572">
        <ele>2.06</ele>
        <time>2018-11-05T08:26:58Z</time>
      </trkpt>
      <trkpt lat="36.8417271785" lon="-2.3679643404">
        <ele>2.54</ele>
        <time>2018-11-05T08:27:04Z</time>
      </trkpt>
      <trkpt lat="36.8417323753" lon="-2.3679436371">
        <ele>3.02</ele>
        <time>2018-11-05T08:27:11Z</time>
      </trkpt>
      <trkpt lat="36.8417426012" lon="-2.3679420445">
        <ele>3.98</ele>
        <time>2018-11-05T08:27:30Z</time>
      </trkpt>
      <trkpt lat="36.8417413440" lon="-2.3679530248">
        <ele>3.50</ele>
        <time>2018-11-05T08:27:53Z</time>
      </trkpt>
      <trkpt lat="36.8417319562" lon="-2.3679448105">
        <ele>3.50</ele>
        <time>2018-11-05T08:28:10Z</time>
      </trkpt>
      <trkpt lat="36.8417327944" lon="-2.3679393623">
        <ele>3.50</ele>
        <time>2018-11-05T08:28:27Z</time>
      </trkpt>
      <trkpt lat="36.8417260889" lon="-2.3679030687">
        <ele>2.54</ele>
        <time>2018-11-05T08:28:34Z</time>
      </trkpt>
      <trkpt lat="36.8417230714" lon="-2.3678937647">
        <ele>2.06</ele>
        <time>2018-11-05T08:28:40Z</time>
      </trkpt>
      <trkpt lat="36.8417121749" lon="-2.3677473329">
        <ele>2.54</ele>
        <time>2018-11-05T08:28:47Z</time>
      </trkpt>
      <trkpt lat="36.8416630570" lon="-2.3674839735">
        <ele>3.02</ele>
        <time>2018-11-05T08:28:55Z</time>
      </trkpt>
      <trkpt lat="36.8416488916" lon="-2.3672636971">
        <ele>2.54</ele>
        <time>2018-11-05T08:29:03Z</time>
      </trkpt>
      <trkpt lat="36.8417068943" lon="-2.3669921234">
        <ele>2.06</ele>
        <time>2018-11-05T08:29:12Z</time>
      </trkpt>
      <trkpt lat="36.8417556770" lon="-2.3667642195">
        <ele>1.58</ele>
        <time>2018-11-05T08:29:21Z</time>
      </trkpt>
      <trkpt lat="36.8417742848" lon="-2.3666217271">
        <ele>2.06</ele>
        <time>2018-11-05T08:29:29Z</time>
      </trkpt>
      <trkpt lat="36.8417797331" lon="-2.3666244932">
        <ele>2.54</ele>
        <time>2018-11-05T08:29:45Z</time>
      </trkpt>
      <trkpt lat="36.8417749554" lon="-2.3666258343">
        <ele>1.58</ele>
        <time>2018-11-05T08:29:59Z</time>
      </trkpt>
      <trkpt lat="36.8417787272" lon="-2.3666109983">
        <ele>2.06</ele>
        <time>2018-11-05T08:30:00Z</time>
      </trkpt>
      <trkpt lat="36.8417809065" lon="-2.3665941507">
        <ele>2.06</ele>
        <time>2018-11-05T08:30:01Z</time>
      </trkpt>
      <trkpt lat="36.8417834211" lon="-2.3665733635">
        <ele>2.06</ele>
        <time>2018-11-05T08:30:02Z</time>
      </trkpt>
      <trkpt lat="36.8417886179" lon="-2.3665505648">
        <ele>2.06</ele>
        <time>2018-11-05T08:30:03Z</time>
      </trkpt>
      <trkpt lat="36.8418082315" lon="-2.3663227446">
        <ele>2.54</ele>
        <time>2018-11-05T08:30:10Z</time>
      </trkpt>
      <trkpt lat="36.8418751191" lon="-2.3659315612">
        <ele>2.06</ele>
        <time>2018-11-05T08:30:21Z</time>
      </trkpt>
      <trkpt lat="36.8419066351" lon="-2.3656454030">
        <ele>2.06</ele>
        <time>2018-11-05T08:30:29Z</time>
      </trkpt>
      <trkpt lat="36.8418828305" lon="-2.3652673792">
        <ele>2.54</ele>
        <time>2018-11-05T08:30:40Z</time>
      </trkpt>
      <trkpt lat="36.8419172801" lon="-2.3649367969">
        <ele>2.06</ele>
        <time>2018-11-05T08:30:49Z</time>
      </trkpt>
      <trkpt lat="36.8419782165" lon="-2.3647021037">
        <ele>1.58</ele>
        <time>2018-11-05T08:30:56Z</time>
      </trkpt>
      <trkpt lat="36.8421305157" lon="-2.3644194659">
        <ele>2.06</ele>
        <time>2018-11-05T08:31:04Z</time>
      </trkpt>
      <trkpt lat="36.8422079645" lon="-2.3641403485">
        <ele>2.54</ele>
        <time>2018-11-05T08:31:11Z</time>
      </trkpt>
      <trkpt lat="36.8422115687" lon="-2.3637898173">
        <ele>3.02</ele>
        <time>2018-11-05T08:31:19Z</time>
      </trkpt>
      <trkpt lat="36.8422103953" lon="-2.3635002226">
        <ele>3.02</ele>
        <time>2018-11-05T08:31:26Z</time>
      </trkpt>
      <trkpt lat="36.8421233911" lon="-2.3631874099">
        <ele>3.50</ele>
        <time>2018-11-05T08:31:34Z</time>
      </trkpt>
      <trkpt lat="36.8421373051" lon="-2.3628357053">
        <ele>3.50</ele>
        <time>2018-11-05T08:31:41Z</time>
      </trkpt>
      <trkpt lat="36.8421328627" lon="-2.3627849948">
        <ele>3.50</ele>
        <time>2018-11-05T08:31:42Z</time>
      </trkpt>
      <trkpt lat="36.8420437630" lon="-2.3622997664">
        <ele>3.02</ele>
        <time>2018-11-05T08:31:52Z</time>
      </trkpt>
      <trkpt lat="36.8420130014" lon="-2.3619486485">
        <ele>3.50</ele>
        <time>2018-11-05T08:32:01Z</time>
      </trkpt>
      <trkpt lat="36.8420263287" lon="-2.3616509233">
        <ele>3.02</ele>
        <time>2018-11-05T08:32:08Z</time>
      </trkpt>
      <trkpt lat="36.8420829903" lon="-2.3613045830">
        <ele>2.54</ele>
        <time>2018-11-05T08:32:17Z</time>
      </trkpt>
      <trkpt lat="36.8421993311" lon="-2.3608908523">
        <ele>1.58</ele>
        <time>2018-11-05T08:32:28Z</time>
      </trkpt>
      <trkpt lat="36.8422663864" lon="-2.3605607729">
        <ele>2.06</ele>
        <time>2018-11-05T08:32:36Z</time>
      </trkpt>
      <trkpt lat="36.8422787916" lon="-2.3602337949">
        <ele>2.06</ele>
        <time>2018-11-05T08:32:44Z</time>
      </trkpt>
      <trkpt lat="36.8422607705" lon="-2.3598626442">
        <ele>2.06</ele>
        <time>2018-11-05T08:32:53Z</time>
      </trkpt>
      <trkpt lat="36.8421910331" lon="-2.3595678527">
        <ele>2.06</ele>
        <time>2018-11-05T08:33:00Z</time>
      </trkpt>
      <trkpt lat="36.8421239778" lon="-2.3592980392">
        <ele>3.50</ele>
        <time>2018-11-05T08:33:07Z</time>
      </trkpt>
      <trkpt lat="36.8420449365" lon="-2.3589709774">
        <ele>3.02</ele>
        <time>2018-11-05T08:33:15Z</time>
      </trkpt>
      <trkpt lat="36.8419796415" lon="-2.3587042652">
        <ele>3.02</ele>
        <time>2018-11-05T08:33:22Z</time>
      </trkpt>
      <trkpt lat="36.8419768754" lon="-2.3583262414">
        <ele>3.02</ele>
        <time>2018-11-05T08:33:30Z</time>
      </trkpt>
      <trkpt lat="36.8419674039" lon="-2.3580542486">
        <ele>3.50</ele>
        <time>2018-11-05T08:33:37Z</time>
      </trkpt>
      <trkpt lat="36.8419098202" lon="-2.3577768076">
        <ele>3.50</ele>
        <time>2018-11-05T08:33:45Z</time>
      </trkpt>
      <trkpt lat="36.8418534100" lon="-2.3575458862">
        <ele>3.50</ele>
        <time>2018-11-05T08:33:52Z</time>
      </trkpt>
      <trkpt lat="36.8417038769" lon="-2.3572061677">
        <ele>3.02</ele>
        <time>2018-11-05T08:34:02Z</time>
      </trkpt>
      <trkpt lat="36.8416377436" lon="-2.3568057641">
        <ele>3.02</ele>
        <time>2018-11-05T08:34:11Z</time>
      </trkpt>
      <trkpt lat="36.8415969238" lon="-2.3564269859">
        <ele>3.50</ele>
        <time>2018-11-05T08:34:20Z</time>
      </trkpt>
      <trkpt lat="36.8415614683" lon="-2.3560892791">
        <ele>3.50</ele>
        <time>2018-11-05T08:34:28Z</time>
      </trkpt>
      <trkpt lat="36.8415345624" lon="-2.3558842577">
        <ele>3.02</ele>
        <time>2018-11-05T08:34:34Z</time>
      </trkpt>
      <trkpt lat="36.8415074050" lon="-2.3555923998">
        <ele>3.02</ele>
        <time>2018-11-05T08:34:41Z</time>
      </trkpt>
      <trkpt lat="36.8414779007" lon="-2.3552611470">
        <ele>3.02</ele>
        <time>2018-11-05T08:34:49Z</time>
      </trkpt>
      <trkpt lat="36.8414286990" lon="-2.3549043294">
        <ele>3.50</ele>
        <time>2018-11-05T08:34:58Z</time>
      </trkpt>
      <trkpt lat="36.8414582871" lon="-2.3545854818">
        <ele>3.02</ele>
        <time>2018-11-05T08:35:06Z</time>
      </trkpt>
      <trkpt lat="36.8415599596" lon="-2.3542805482">
        <ele>2.06</ele>
        <time>2018-11-05T08:35:14Z</time>
      </trkpt>
      <trkpt lat="36.8416384142" lon="-2.3539186176">
        <ele>2.06</ele>
        <time>2018-11-05T08:35:22Z</time>
      </trkpt>
      <trkpt lat="36.8417784758" lon="-2.3536881991">
        <ele>3.02</ele>
        <time>2018-11-05T08:35:29Z</time>
      </trkpt>
      <trkpt lat="36.8419466168" lon="-2.3535497300">
        <ele>4.46</ele>
        <time>2018-11-05T08:35:36Z</time>
      </trkpt>
      <trkpt lat="36.8419429287" lon="-2.3535179626">
        <ele>4.46</ele>
        <time>2018-11-05T08:35:37Z</time>
      </trkpt>
      <trkpt lat="36.8419299368" lon="-2.3534846865">
        <ele>4.46</ele>
        <time>2018-11-05T08:35:38Z</time>
      </trkpt>
      <trkpt lat="36.8419088982" lon="-2.3534615524">
        <ele>4.46</ele>
        <time>2018-11-05T08:35:39Z</time>
      </trkpt>
      <trkpt lat="36.8418925535" lon="-2.3534443695">
        <ele>3.98</ele>
        <time>2018-11-05T08:35:40Z</time>
      </trkpt>
      <trkpt lat="36.8418710958" lon="-2.3534284439">
        <ele>3.98</ele>
        <time>2018-11-05T08:35:41Z</time>
      </trkpt>
      <trkpt lat="36.8418477103" lon="-2.3534143623">
        <ele>3.98</ele>
        <time>2018-11-05T08:35:42Z</time>
      </trkpt>
      <trkpt lat="36.8418215588" lon="-2.3533990234">
        <ele>3.98</ele>
        <time>2018-11-05T08:35:43Z</time>
      </trkpt>
      <trkpt lat="36.8417940661" lon="-2.3533809185">
        <ele>3.98</ele>
        <time>2018-11-05T08:35:44Z</time>
      </trkpt>
      <trkpt lat="36.8417660706" lon="-2.3533601314">
        <ele>3.98</ele>
        <time>2018-11-05T08:35:45Z</time>
      </trkpt>
      <trkpt lat="36.8417357281" lon="-2.3533375002">
        <ele>3.50</ele>
        <time>2018-11-05T08:35:46Z</time>
      </trkpt>
      <trkpt lat="36.8417041283" lon="-2.3533103429">
        <ele>3.50</ele>
        <time>2018-11-05T08:35:47Z</time>
      </trkpt>
      <trkpt lat="36.8416744564" lon="-2.3532804195">
        <ele>3.98</ele>
        <time>2018-11-05T08:35:48Z</time>
      </trkpt>
      <trkpt lat="36.8416429404" lon="-2.3532484844">
        <ele>3.98</ele>
        <time>2018-11-05T08:35:49Z</time>
      </trkpt>
      <trkpt lat="36.8416129332" lon="-2.3532200698">
        <ele>3.50</ele>
        <time>2018-11-05T08:35:50Z</time>
      </trkpt>
      <trkpt lat="36.8413412757" lon="-2.3529887293">
        <ele>3.02</ele>
        <time>2018-11-05T08:35:59Z</time>
      </trkpt>
      <trkpt lat="36.8411421217" lon="-2.3528540321">
        <ele>2.54</ele>
        <time>2018-11-05T08:36:06Z</time>
      </trkpt>
      <trkpt lat="36.8409484159" lon="-2.3526468314">
        <ele>3.02</ele>
        <time>2018-11-05T08:36:14Z</time>
      </trkpt>
      <trkpt lat="36.8408359308" lon="-2.3523513693">
        <ele>2.54</ele>
        <time>2018-11-05T08:36:22Z</time>
      </trkpt>
      <trkpt lat="36.8407718092" lon="-2.3519279994">
        <ele>3.02</ele>
        <time>2018-11-05T08:36:32Z</time>
      </trkpt>
      <trkpt lat="36.8407233618" lon="-2.3515593633">
        <ele>3.50</ele>
        <time>2018-11-05T08:36:40Z</time>
      </trkpt>
      <trkpt lat="36.8406324182" lon="-2.3510180600">
        <ele>3.50</ele>
        <time>2018-11-05T08:36:51Z</time>
      </trkpt>
      <trkpt lat="36.8405605853" lon="-2.3506438918">
        <ele>3.98</ele>
        <time>2018-11-05T08:36:59Z</time>
      </trkpt>
      <trkpt lat="36.8404485192" lon="-2.3502507806">
        <ele>3.50</ele>
        <time>2018-11-05T08:37:08Z</time>
      </trkpt>
      <trkpt lat="36.8403316755" lon="-2.3498710804">
        <ele>3.50</ele>
        <time>2018-11-05T08:37:17Z</time>
      </trkpt>
      <trkpt lat="36.8401591759" lon="-2.3496181984">
        <ele>3.50</ele>
        <time>2018-11-05T08:37:24Z</time>
      </trkpt>
      <trkpt lat="36.8400487024" lon="-2.3493555095">
        <ele>3.02</ele>
        <time>2018-11-05T08:37:31Z</time>
      </trkpt>
      <trkpt lat="36.8399543222" lon="-2.3490647413">
        <ele>2.54</ele>
        <time>2018-11-05T08:37:38Z</time>
      </trkpt>
      <trkpt lat="36.8397734407" lon="-2.3489184771">
        <ele>2.54</ele>
        <time>2018-11-05T08:37:44Z</time>
      </trkpt>
      <trkpt lat="36.8396229856" lon="-2.3487875517">
        <ele>2.06</ele>
        <time>2018-11-05T08:37:51Z</time>
      </trkpt>
      <trkpt lat="36.8394798227" lon="-2.3485642578">
        <ele>2.06</ele>
        <time>2018-11-05T08:37:59Z</time>
      </trkpt>
      <trkpt lat="36.8393846042" lon="-2.3483036645">
        <ele>2.06</ele>
        <time>2018-11-05T08:38:07Z</time>
      </trkpt>
      <trkpt lat="36.8393614702" lon="-2.3480834719">
        <ele>1.58</ele>
        <time>2018-11-05T08:38:14Z</time>
      </trkpt>
      <trkpt lat="36.8393983506" lon="-2.3478843179">
        <ele>1.10</ele>
        <time>2018-11-05T08:38:21Z</time>
      </trkpt>
      <trkpt lat="36.8394111749" lon="-2.3477316834">
        <ele>1.58</ele>
        <time>2018-11-05T08:38:26Z</time>
      </trkpt>
      <trkpt lat="36.8394447863" lon="-2.3475279193">
        <ele>1.58</ele>
        <time>2018-11-05T08:38:33Z</time>
      </trkpt>
      <trkpt lat="36.8394247536" lon="-2.3472469579">
        <ele>3.02</ele>
        <time>2018-11-05T08:38:41Z</time>
      </trkpt>
      <trkpt lat="36.8393671699" lon="-2.3469605483">
        <ele>3.02</ele>
        <time>2018-11-05T08:38:49Z</time>
      </trkpt>
      <trkpt lat="36.8392947502" lon="-2.3467353266">
        <ele>3.02</ele>
        <time>2018-11-05T08:38:56Z</time>
      </trkpt>
      <trkpt lat="36.8392180558" lon="-2.3464257829">
        <ele>3.98</ele>
        <time>2018-11-05T08:39:05Z</time>
      </trkpt>
      <trkpt lat="36.8391335662" lon="-2.3460983858">
        <ele>3.98</ele>
        <time>2018-11-05T08:39:13Z</time>
      </trkpt>
      <trkpt lat="36.8390230089" lon="-2.3457831424">
        <ele>3.50</ele>
        <time>2018-11-05T08:39:21Z</time>
      </trkpt>
      <trkpt lat="36.8389137089" lon="-2.3453851696">
        <ele>3.50</ele>
        <time>2018-11-05T08:39:30Z</time>
      </trkpt>
      <trkpt lat="36.8387750722" lon="-2.3450652324">
        <ele>3.98</ele>
        <time>2018-11-05T08:39:38Z</time>
      </trkpt>
      <trkpt lat="36.8386685383" lon="-2.3447585385">
        <ele>3.98</ele>
        <time>2018-11-05T08:39:45Z</time>
      </trkpt>
      <trkpt lat="36.8386386149" lon="-2.3443905730">
        <ele>3.02</ele>
        <time>2018-11-05T08:39:53Z</time>
      </trkpt>
      <trkpt lat="36.8385587353" lon="-2.3440262116">
        <ele>3.50</ele>
        <time>2018-11-05T08:40:01Z</time>
      </trkpt>
      <trkpt lat="36.8384909257" lon="-2.3436687235">
        <ele>4.94</ele>
        <time>2018-11-05T08:40:09Z</time>
      </trkpt>
      <trkpt lat="36.8384006526" lon="-2.3432979081">
        <ele>4.94</ele>
        <time>2018-11-05T08:40:17Z</time>
      </trkpt>
      <trkpt lat="36.8383440748" lon="-2.3430334590">
        <ele>4.94</ele>
        <time>2018-11-05T08:40:23Z</time>
      </trkpt>
      <trkpt lat="36.8382622674" lon="-2.3427418526">
        <ele>4.46</ele>
        <time>2018-11-05T08:40:30Z</time>
      </trkpt>
      <trkpt lat="36.8381872494" lon="-2.3424472287">
        <ele>4.46</ele>
        <time>2018-11-05T08:40:37Z</time>
      </trkpt>
      <trkpt lat="36.8381488603" lon="-2.3421137966">
        <ele>3.98</ele>
        <time>2018-11-05T08:40:45Z</time>
      </trkpt>
      <trkpt lat="36.8380734231" lon="-2.3417858966">
        <ele>4.46</ele>
        <time>2018-11-05T08:40:53Z</time>
      </trkpt>
      <trkpt lat="36.8379602674" lon="-2.3415268958">
        <ele>4.94</ele>
        <time>2018-11-05T08:41:01Z</time>
      </trkpt>
      <trkpt lat="36.8378535658" lon="-2.3412953038">
        <ele>3.50</ele>
        <time>2018-11-05T08:41:09Z</time>
      </trkpt>
      <trkpt lat="36.8378244806" lon="-2.3409259133">
        <ele>3.02</ele>
        <time>2018-11-05T08:41:17Z</time>
      </trkpt>
      <trkpt lat="36.8378065433" lon="-2.3408009391">
        <ele>3.50</ele>
        <time>2018-11-05T08:41:23Z</time>
      </trkpt>
      <trkpt lat="36.8377844989" lon="-2.3406985961">
        <ele>3.50</ele>
        <time>2018-11-05T08:41:33Z</time>
      </trkpt>
      <trkpt lat="36.8377684895" lon="-2.3406627215">
        <ele>3.50</ele>
        <time>2018-11-05T08:41:39Z</time>
      </trkpt>
      <trkpt lat="36.8377634604" lon="-2.3406680860">
        <ele>3.02</ele>
        <time>2018-11-05T08:41:53Z</time>
      </trkpt>
      <trkpt lat="36.8377583474" lon="-2.3406560160">
        <ele>3.50</ele>
        <time>2018-11-05T08:42:06Z</time>
      </trkpt>
      <trkpt lat="36.8377014343" lon="-2.3404825944">
        <ele>3.50</ele>
        <time>2018-11-05T08:42:13Z</time>
      </trkpt>
      <trkpt lat="36.8376509752" lon="-2.3402857874">
        <ele>3.50</ele>
        <time>2018-11-05T08:42:20Z</time>
      </trkpt>
      <trkpt lat="36.8376500532" lon="-2.3400167283">
        <ele>3.98</ele>
        <time>2018-11-05T08:42:28Z</time>
      </trkpt>
      <trkpt lat="36.8376873527" lon="-2.3396770936">
        <ele>3.50</ele>
        <time>2018-11-05T08:42:37Z</time>
      </trkpt>
      <trkpt lat="36.8376860116" lon="-2.3393377103">
        <ele>3.98</ele>
        <time>2018-11-05T08:42:46Z</time>
      </trkpt>
      <trkpt lat="36.8376796413" lon="-2.3389901128">
        <ele>3.50</ele>
        <time>2018-11-05T08:42:55Z</time>
      </trkpt>
      <trkpt lat="36.8376789708" lon="-2.3386428505">
        <ele>3.50</ele>
        <time>2018-11-05T08:43:04Z</time>
      </trkpt>
      <trkpt lat="36.8376693316" lon="-2.3383618053">
        <ele>3.50</ele>
        <time>2018-11-05T08:43:11Z</time>
      </trkpt>
      <trkpt lat="36.8376615364" lon="-2.3380702827">
        <ele>3.98</ele>
        <time>2018-11-05T08:43:18Z</time>
      </trkpt>
      <trkpt lat="36.8376601953" lon="-2.3376924265">
        <ele>4.94</ele>
        <time>2018-11-05T08:43:27Z</time>
      </trkpt>
      <trkpt lat="36.8376490474" lon="-2.3373546358">
        <ele>5.91</ele>
        <time>2018-11-05T08:43:35Z</time>
      </trkpt>
      <trkpt lat="36.8376894481" lon="-2.3369834013">
        <ele>4.94</ele>
        <time>2018-11-05T08:43:44Z</time>
      </trkpt>
      <trkpt lat="36.8376969919" lon="-2.3367088102">
        <ele>3.98</ele>
        <time>2018-11-05T08:43:50Z</time>
      </trkpt>
      <trkpt lat="36.8376967404" lon="-2.3366570938">
        <ele>3.50</ele>
        <time>2018-11-05T08:43:51Z</time>
      </trkpt>
      <trkpt lat="36.8376957346" lon="-2.3366032820">
        <ele>3.50</ele>
        <time>2018-11-05T08:43:52Z</time>
      </trkpt>
      <trkpt lat="36.8376889452" lon="-2.3363519926">
        <ele>3.02</ele>
        <time>2018-11-05T08:43:57Z</time>
      </trkpt>
      <trkpt lat="36.8376847543" lon="-2.3363008630">
        <ele>3.02</ele>
        <time>2018-11-05T08:43:58Z</time>
      </trkpt>
      <trkpt lat="36.8376586027" lon="-2.3359991144">
        <ele>3.50</ele>
        <time>2018-11-05T08:44:05Z</time>
      </trkpt>
      <trkpt lat="36.8375814054" lon="-2.3355713859">
        <ele>3.98</ele>
        <time>2018-11-05T08:44:15Z</time>
      </trkpt>
      <trkpt lat="36.8376162741" lon="-2.3353503551">
        <ele>3.02</ele>
        <time>2018-11-05T08:44:22Z</time>
      </trkpt>
      <trkpt lat="36.8376808148" lon="-2.3351642769">
        <ele>3.02</ele>
        <time>2018-11-05T08:44:29Z</time>
      </trkpt>
      <trkpt lat="36.8376162741" lon="-2.3350687232">
        <ele>3.50</ele>
        <time>2018-11-05T08:44:34Z</time>
      </trkpt>
      <trkpt lat="36.8375275936" lon="-2.3349306732">
        <ele>3.50</ele>
        <time>2018-11-05T08:44:42Z</time>
      </trkpt>
      <trkpt lat="36.8375167809" lon="-2.3349154182">
        <ele>3.02</ele>
        <time>2018-11-05T08:44:43Z</time>
      </trkpt>
      <trkpt lat="36.8375050463" lon="-2.3349023424">
        <ele>3.02</ele>
        <time>2018-11-05T08:44:44Z</time>
      </trkpt>
      <trkpt lat="36.8374960776" lon="-2.3348852433">
        <ele>3.02</ele>
        <time>2018-11-05T08:44:45Z</time>
      </trkpt>
      <trkpt lat="36.8373939022" lon="-2.3346491251">
        <ele>2.06</ele>
        <time>2018-11-05T08:44:54Z</time>
      </trkpt>
      <trkpt lat="36.8373179622" lon="-2.3344487976">
        <ele>1.58</ele>
        <time>2018-11-05T08:45:00Z</time>
      </trkpt>
      <trkpt lat="36.8373223208" lon="-2.3344166111">
        <ele>1.58</ele>
        <time>2018-11-05T08:45:01Z</time>
      </trkpt>
      <trkpt lat="36.8373334687" lon="-2.3343868554">
        <ele>1.58</ele>
        <time>2018-11-05T08:45:02Z</time>
      </trkpt>
      <trkpt lat="36.8373459578" lon="-2.3343586922">
        <ele>1.58</ele>
        <time>2018-11-05T08:45:03Z</time>
      </trkpt>
      <trkpt lat="36.8373509031" lon="-2.3343291879">
        <ele>1.58</ele>
        <time>2018-11-05T08:45:04Z</time>
      </trkpt>
      <trkpt lat="36.8373478018" lon="-2.3342979234">
        <ele>1.58</ele>
        <time>2018-11-05T08:45:05Z</time>
      </trkpt>
      <trkpt lat="36.8373436108" lon="-2.3342665751">
        <ele>2.06</ele>
        <time>2018-11-05T08:45:06Z</time>
      </trkpt>
      <trkpt lat="36.8373284396" lon="-2.3340222426">
        <ele>3.02</ele>
        <time>2018-11-05T08:45:13Z</time>
      </trkpt>
      <trkpt lat="36.8372798245" lon="-2.3337618168">
        <ele>3.50</ele>
        <time>2018-11-05T08:45:20Z</time>
      </trkpt>
      <trkpt lat="36.8372602109" lon="-2.3334601521">
        <ele>4.46</ele>
        <time>2018-11-05T08:45:28Z</time>
      </trkpt>
      <trkpt lat="36.8373037130" lon="-2.3331559729">
        <ele>4.46</ele>
        <time>2018-11-05T08:45:36Z</time>
      </trkpt>
      <trkpt lat="36.8373982608" lon="-2.3328207806">
        <ele>3.50</ele>
        <time>2018-11-05T08:45:45Z</time>
      </trkpt>
      <trkpt lat="36.8375011068" lon="-2.3324575927">
        <ele>3.98</ele>
        <time>2018-11-05T08:45:54Z</time>
      </trkpt>
      <trkpt lat="36.8375592772" lon="-2.3321234062">
        <ele>5.91</ele>
        <time>2018-11-05T08:46:03Z</time>
      </trkpt>
      <trkpt lat="36.8376311101" lon="-2.3319641501">
        <ele>6.39</ele>
        <time>2018-11-05T08:46:09Z</time>
      </trkpt>
      <trkpt lat="36.8377092294" lon="-2.3318395112">
        <ele>7.35</ele>
        <time>2018-11-05T08:46:14Z</time>
      </trkpt>
      <trkpt lat="36.8378165178" lon="-2.3316690233">
        <ele>8.79</ele>
        <time>2018-11-05T08:46:21Z</time>
      </trkpt>
      <trkpt lat="36.8380249757" lon="-2.3314608168">
        <ele>9.75</ele>
        <time>2018-11-05T08:46:30Z</time>
      </trkpt>
      <trkpt lat="36.8381098006" lon="-2.3312126286">
        <ele>10.71</ele>
        <time>2018-11-05T08:46:38Z</time>
      </trkpt>
      <trkpt lat="36.8382262252" lon="-2.3310868163">
        <ele>10.71</ele>
        <time>2018-11-05T08:46:44Z</time>
      </trkpt>
      <trkpt lat="36.8383832183" lon="-2.3309607524">
        <ele>11.19</ele>
        <time>2018-11-05T08:46:50Z</time>
      </trkpt>
      <trkpt lat="36.8385906704" lon="-2.3308070283">
        <ele>12.63</ele>
        <time>2018-11-05T08:46:59Z</time>
      </trkpt>
      <trkpt lat="36.8387560453" lon="-2.3306521308">
        <ele>12.63</ele>
        <time>2018-11-05T08:47:06Z</time>
      </trkpt>
      <trkpt lat="36.8388645072" lon="-2.3304051161">
        <ele>13.12</ele>
        <time>2018-11-05T08:47:13Z</time>
      </trkpt>
      <trkpt lat="36.8390215002" lon="-2.3301167786">
        <ele>13.60</ele>
        <time>2018-11-05T08:47:22Z</time>
      </trkpt>
      <trkpt lat="36.8390289601" lon="-2.3298862763">
        <ele>14.08</ele>
        <time>2018-11-05T08:47:28Z</time>
      </trkpt>
      <trkpt lat="36.8389542773" lon="-2.3294389341">
        <ele>15.04</ele>
        <time>2018-11-05T08:47:39Z</time>
      </trkpt>
      <trkpt lat="36.8389298022" lon="-2.3291597329">
        <ele>15.52</ele>
        <time>2018-11-05T08:47:46Z</time>
      </trkpt>
      <trkpt lat="36.8388849590" lon="-2.3288087826">
        <ele>15.52</ele>
        <time>2018-11-05T08:47:54Z</time>
      </trkpt>
      <trkpt lat="36.8388572149" lon="-2.3285065312">
        <ele>16.00</ele>
        <time>2018-11-05T08:48:01Z</time>
      </trkpt>
      <trkpt lat="36.8388090190" lon="-2.3281813972">
        <ele>16.00</ele>
        <time>2018-11-05T08:48:09Z</time>
      </trkpt>
      <trkpt lat="36.8387713004" lon="-2.3278047144">
        <ele>16.48</ele>
        <time>2018-11-05T08:48:18Z</time>
      </trkpt>
      <trkpt lat="36.8387432210" lon="-2.3274658341">
        <ele>16.96</ele>
        <time>2018-11-05T08:48:26Z</time>
      </trkpt>
      <trkpt lat="36.8387128785" lon="-2.3271053284">
        <ele>16.00</ele>
        <time>2018-11-05T08:48:35Z</time>
      </trkpt>
      <trkpt lat="36.8386311550" lon="-2.3268211819">
        <ele>15.04</ele>
        <time>2018-11-05T08:48:42Z</time>
      </trkpt>
      <trkpt lat="36.8384885788" lon="-2.3267154023">
        <ele>15.04</ele>
        <time>2018-11-05T08:48:47Z</time>
      </trkpt>
      <trkpt lat="36.8382809591" lon="-2.3267506901">
        <ele>14.56</ele>
        <time>2018-11-05T08:48:53Z</time>
      </trkpt>
      <trkpt lat="36.8380668014" lon="-2.3268348444">
        <ele>14.08</ele>
        <time>2018-11-05T08:48:59Z</time>
      </trkpt>
      <trkpt lat="36.8378020171" lon="-2.3268756643">
        <ele>13.12</ele>
        <time>2018-11-05T08:49:06Z</time>
      </trkpt>
      <trkpt lat="36.8375045434" lon="-2.3268680368">
        <ele>12.15</ele>
        <time>2018-11-05T08:49:14Z</time>
      </trkpt>
      <trkpt lat="36.8372975104" lon="-2.3268243670">
        <ele>11.19</ele>
        <time>2018-11-05T08:49:19Z</time>
      </trkpt>
      <trkpt lat="36.8372554332" lon="-2.3268335033">
        <ele>11.19</ele>
        <time>2018-11-05T08:49:20Z</time>
      </trkpt>
      <trkpt lat="36.8370351568" lon="-2.3269901611">
        <ele>10.71</ele>
        <time>2018-11-05T08:49:27Z</time>
      </trkpt>
      <trkpt lat="36.8369548582" lon="-2.3271018919">
        <ele>11.19</ele>
        <time>2018-11-05T08:49:32Z</time>
      </trkpt>
      <trkpt lat="36.8369362503" lon="-2.3271026462">
        <ele>11.19</ele>
        <time>2018-11-05T08:49:33Z</time>
      </trkpt>
      <trkpt lat="36.8368855398" lon="-2.3269920889">
        <ele>10.71</ele>
        <time>2018-11-05T08:49:37Z</time>
      </trkpt>
      <trkpt lat="36.8367526028" lon="-2.3267710581">
        <ele>10.23</ele>
        <time>2018-11-05T08:49:44Z</time>
      </trkpt>
      <trkpt lat="36.8367463164" lon="-2.3267558869">
        <ele>10.23</ele>
        <time>2018-11-05T08:49:49Z</time>
      </trkpt>
      <trkpt lat="36.8367319833" lon="-2.3266667034">
        <ele>10.71</ele>
        <time>2018-11-05T08:49:55Z</time>
      </trkpt>
      <trkpt lat="36.8366702925" lon="-2.3263797909">
        <ele>10.23</ele>
        <time>2018-11-05T08:50:03Z</time>
      </trkpt>
      <trkpt lat="36.8366128765" lon="-2.3261218797">
        <ele>10.23</ele>
        <time>2018-11-05T08:50:10Z</time>
      </trkpt>
      <trkpt lat="36.8365286384" lon="-2.3258561734">
        <ele>9.75</ele>
        <time>2018-11-05T08:50:17Z</time>
      </trkpt>
      <trkpt lat="36.8364360183" lon="-2.3255438637">
        <ele>9.27</ele>
        <time>2018-11-05T08:50:25Z</time>
      </trkpt>
      <trkpt lat="36.8363727350" lon="-2.3252954241">
        <ele>9.27</ele>
        <time>2018-11-05T08:50:31Z</time>
      </trkpt>
      <trkpt lat="36.8362445757" lon="-2.3248712998">
        <ele>9.27</ele>
        <time>2018-11-05T08:50:42Z</time>
      </trkpt>
      <trkpt lat="36.8361491058" lon="-2.3245766759">
        <ele>8.79</ele>
        <time>2018-11-05T08:50:49Z</time>
      </trkpt>
      <trkpt lat="36.8360436615" lon="-2.3241812177">
        <ele>8.31</ele>
        <time>2018-11-05T08:50:58Z</time>
      </trkpt>
      <trkpt lat="36.8359088805" lon="-2.3237616196">
        <ele>8.31</ele>
        <time>2018-11-05T08:51:08Z</time>
      </trkpt>
      <trkpt lat="36.8358331081" lon="-2.3234813288">
        <ele>8.31</ele>
        <time>2018-11-05T08:51:15Z</time>
      </trkpt>
      <trkpt lat="36.8357462715" lon="-2.3231986910">
        <ele>8.31</ele>
        <time>2018-11-05T08:51:22Z</time>
      </trkpt>
      <trkpt lat="36.8356434256" lon="-2.3228966910">
        <ele>8.31</ele>
        <time>2018-11-05T08:51:30Z</time>
      </trkpt>
      <trkpt lat="36.8355254084" lon="-2.3226140533">
        <ele>8.79</ele>
        <time>2018-11-05T08:51:39Z</time>
      </trkpt>
      <trkpt lat="36.8354655616" lon="-2.3225018196">
        <ele>8.79</ele>
        <time>2018-11-05T08:51:46Z</time>
      </trkpt>
      <trkpt lat="36.8353985902" lon="-2.3224187549">
        <ele>8.79</ele>
        <time>2018-11-05T08:51:53Z</time>
      </trkpt>
      <trkpt lat="36.8352625519" lon="-2.3223527055">
        <ele>8.79</ele>
        <time>2018-11-05T08:52:01Z</time>
      </trkpt>
      <trkpt lat="36.8350248411" lon="-2.3223694693">
        <ele>7.83</ele>
        <time>2018-11-05T08:52:11Z</time>
      </trkpt>
      <trkpt lat="36.8348016310" lon="-2.3224262986">
        <ele>7.35</ele>
        <time>2018-11-05T08:52:19Z</time>
      </trkpt>
      <trkpt lat="36.8345993757" lon="-2.3224816192">
        <ele>6.87</ele>
        <time>2018-11-05T08:52:27Z</time>
      </trkpt>
      <trkpt lat="36.8345723022" lon="-2.3225239478">
        <ele>6.87</ele>
        <time>2018-11-05T08:52:35Z</time>
      </trkpt>
      <trkpt lat="36.8345620763" lon="-2.3225257918">
        <ele>6.87</ele>
        <time>2018-11-05T08:52:41Z</time>
      </trkpt>
      <trkpt lat="36.8345611542" lon="-2.3225316592">
        <ele>6.87</ele>
        <time>2018-11-05T08:52:57Z</time>
      </trkpt>
      <trkpt lat="36.8345647585" lon="-2.3225447349">
        <ele>6.39</ele>
        <time>2018-11-05T08:53:21Z</time>
      </trkpt>
      <trkpt lat="36.8345608190" lon="-2.3225564696">
        <ele>5.91</ele>
        <time>2018-11-05T08:53:45Z</time>
      </trkpt>
      <trkpt lat="36.8345616572" lon="-2.3225372750">
        <ele>5.91</ele>
        <time>2018-11-05T08:54:03Z</time>
      </trkpt>
      <trkpt lat="36.8345581368" lon="-2.3225468304">
        <ele>5.42</ele>
        <time>2018-11-05T08:54:27Z</time>
      </trkpt>
      <trkpt lat="36.8345554546" lon="-2.3225415498">
        <ele>5.42</ele>
        <time>2018-11-05T08:54:44Z</time>
      </trkpt>
      <trkpt lat="36.8345595617" lon="-2.3225476686">
        <ele>5.42</ele>
        <time>2018-11-05T08:55:07Z</time>
      </trkpt>
      <trkpt lat="36.8345576338" lon="-2.3225493450">
        <ele>6.87</ele>
        <time>2018-11-05T08:55:25Z</time>
      </trkpt>
      <trkpt lat="36.8345599808" lon="-2.3225504346">
        <ele>6.87</ele>
        <time>2018-11-05T08:55:50Z</time>
      </trkpt>
      <trkpt lat="36.8345650099" lon="-2.3225484230">
        <ele>7.35</ele>
        <time>2018-11-05T08:56:14Z</time>
      </trkpt>
      <trkpt lat="36.8345649261" lon="-2.3225532006">
        <ele>5.42</ele>
        <time>2018-11-05T08:56:44Z</time>
      </trkpt>
      <trkpt lat="36.8345735595" lon="-2.3225520272">
        <ele>5.91</ele>
        <time>2018-11-05T08:57:05Z</time>
      </trkpt>
      <trkpt lat="36.8345733080" lon="-2.3225468304">
        <ele>5.42</ele>
        <time>2018-11-05T08:57:32Z</time>
      </trkpt>
      <trkpt lat="36.8345717154" lon="-2.3225509375">
        <ele>3.02</ele>
        <time>2018-11-05T08:57:57Z</time>
      </trkpt>
      <trkpt lat="36.8345642556" lon="-2.3225376103">
        <ele>3.50</ele>
        <time>2018-11-05T08:58:28Z</time>
      </trkpt>
      <trkpt lat="36.8345630821" lon="-2.3225361854">
        <ele>3.50</ele>
        <time>2018-11-05T08:58:56Z</time>
      </trkpt>
      <trkpt lat="36.8345639203" lon="-2.3225242831">
        <ele>4.94</ele>
        <time>2018-11-05T08:59:17Z</time>
      </trkpt>
      <trkpt lat="36.8345624954" lon="-2.3225158174">
        <ele>6.87</ele>
        <time>2018-11-05T08:59:40Z</time>
      </trkpt>
      <trkpt lat="36.8345597293" lon="-2.3225236125">
        <ele>8.31</ele>
        <time>2018-11-05T09:00:12Z</time>
      </trkpt>
      <trkpt lat="36.8345562927" lon="-2.3225386161">
        <ele>9.27</ele>
        <time>2018-11-05T09:00:38Z</time>
      </trkpt>
      <trkpt lat="36.8345576338" lon="-2.3225227743">
        <ele>10.23</ele>
        <time>2018-11-05T09:00:59Z</time>
      </trkpt>
      <trkpt lat="36.8345492519" lon="-2.3225218523">
        <ele>9.75</ele>
        <time>2018-11-05T09:01:29Z</time>
      </trkpt>
      <trkpt lat="36.8345528562" lon="-2.3225164041">
        <ele>11.19</ele>
        <time>2018-11-05T09:01:49Z</time>
      </trkpt>
      <trkpt lat="36.8345508445" lon="-2.3225226067">
        <ele>10.71</ele>
        <time>2018-11-05T09:02:09Z</time>
      </trkpt>
      <trkpt lat="36.8345708773" lon="-2.3225250375">
        <ele>9.27</ele>
        <time>2018-11-05T09:02:24Z</time>
      </trkpt>
      <trkpt lat="36.8345842045" lon="-2.3225287255">
        <ele>9.27</ele>
        <time>2018-11-05T09:02:32Z</time>
      </trkpt>
      <trkpt lat="36.8345935922" lon="-2.3225174099">
        <ele>9.75</ele>
        <time>2018-11-05T09:02:42Z</time>
      </trkpt>
      <trkpt lat="36.8347196560" lon="-2.3224564735">
        <ele>9.75</ele>
        <time>2018-11-05T09:02:50Z</time>
      </trkpt>
      <trkpt lat="36.8348667584" lon="-2.3223828804">
        <ele>10.71</ele>
        <time>2018-11-05T09:02:58Z</time>
      </trkpt>
      <trkpt lat="36.8349238392" lon="-2.3222274799">
        <ele>11.19</ele>
        <time>2018-11-05T09:03:05Z</time>
      </trkpt>
      <trkpt lat="36.8349483144" lon="-2.3219547328">
        <ele>12.15</ele>
        <time>2018-11-05T09:03:14Z</time>
      </trkpt>
      <trkpt lat="36.8349269405" lon="-2.3217289243">
        <ele>12.63</ele>
        <time>2018-11-05T09:03:21Z</time>
      </trkpt>
      <trkpt lat="36.8348747212" lon="-2.3213876970">
        <ele>12.15</ele>
        <time>2018-11-05T09:03:31Z</time>
      </trkpt>
      <trkpt lat="36.8348349072" lon="-2.3210666701">
        <ele>12.15</ele>
        <time>2018-11-05T09:03:40Z</time>
      </trkpt>
      <trkpt lat="36.8347777426" lon="-2.3207126185">
        <ele>12.15</ele>
        <time>2018-11-05T09:03:49Z</time>
      </trkpt>
      <trkpt lat="36.8347580452" lon="-2.3205280490">
        <ele>11.19</ele>
        <time>2018-11-05T09:03:54Z</time>
      </trkpt>
      <trkpt lat="36.8347716238" lon="-2.3204702977">
        <ele>11.67</ele>
        <time>2018-11-05T09:03:56Z</time>
      </trkpt>
      <trkpt lat="36.8347630743" lon="-2.3204421345">
        <ele>12.15</ele>
        <time>2018-11-05T09:03:57Z</time>
      </trkpt>
      <trkpt lat="36.8347288761" lon="-2.3203031626">
        <ele>12.15</ele>
        <time>2018-11-05T09:04:01Z</time>
      </trkpt>
      <trkpt lat="36.8348007929" lon="-2.3202253785">
        <ele>11.67</ele>
        <time>2018-11-05T09:04:05Z</time>
      </trkpt>
      <trkpt lat="36.8348611426" lon="-2.3201744165">
        <ele>11.67</ele>
        <time>2018-11-05T09:04:10Z</time>
      </trkpt>
      <trkpt lat="36.8348473124" lon="-2.3201435711">
        <ele>11.67</ele>
        <time>2018-11-05T09:04:11Z</time>
      </trkpt>
      <trkpt lat="36.8346255273" lon="-2.3196947202">
        <ele>11.67</ele>
        <time>2018-11-05T09:04:22Z</time>
      </trkpt>
      <trkpt lat="36.8344223499" lon="-2.3192846775">
        <ele>11.19</ele>
        <time>2018-11-05T09:04:32Z</time>
      </trkpt>
      <trkpt lat="36.8342236988" lon="-2.3188481480">
        <ele>11.67</ele>
        <time>2018-11-05T09:04:42Z</time>
      </trkpt>
      <trkpt lat="36.8339817971" lon="-2.3183486704">
        <ele>11.67</ele>
        <time>2018-11-05T09:04:53Z</time>
      </trkpt>
      <trkpt lat="36.8338124827" lon="-2.3179966304">
        <ele>11.19</ele>
        <time>2018-11-05T09:05:01Z</time>
      </trkpt>
      <trkpt lat="36.8335433397" lon="-2.3175034393">
        <ele>11.67</ele>
        <time>2018-11-05T09:05:12Z</time>
      </trkpt>
      <trkpt lat="36.8333082274" lon="-2.3170374893">
        <ele>11.67</ele>
        <time>2018-11-05T09:05:21Z</time>
      </trkpt>
      <trkpt lat="36.8330431078" lon="-2.3164680228">
        <ele>11.19</ele>
        <time>2018-11-05T09:05:32Z</time>
      </trkpt>
      <trkpt lat="36.8328147847" lon="-2.3160148133">
        <ele>10.71</ele>
        <time>2018-11-05T09:05:41Z</time>
      </trkpt>
      <trkpt lat="36.8325900659" lon="-2.3155082110">
        <ele>10.71</ele>
        <time>2018-11-05T09:05:51Z</time>
      </trkpt>
      <trkpt lat="36.8324416224" lon="-2.3152146768">
        <ele>10.71</ele>
        <time>2018-11-05T09:05:57Z</time>
      </trkpt>
      <trkpt lat="36.8324144650" lon="-2.3151705880">
        <ele>10.23</ele>
        <time>2018-11-05T09:05:58Z</time>
      </trkpt>
      <trkpt lat="36.8321362697" lon="-2.3146477249">
        <ele>9.75</ele>
        <time>2018-11-05T09:06:09Z</time>
      </trkpt>
      <trkpt lat="36.8318846449" lon="-2.3141061701">
        <ele>8.79</ele>
        <time>2018-11-05T09:06:19Z</time>
      </trkpt>
      <trkpt lat="36.8316514604" lon="-2.3135891743">
        <ele>8.79</ele>
        <time>2018-11-05T09:06:28Z</time>
      </trkpt>
      <trkpt lat="36.8313707504" lon="-2.3129885271">
        <ele>7.83</ele>
        <time>2018-11-05T09:06:38Z</time>
      </trkpt>
      <trkpt lat="36.8312458601" lon="-2.3127506487">
        <ele>6.87</ele>
        <time>2018-11-05T09:06:42Z</time>
      </trkpt>
      <trkpt lat="36.8312230613" lon="-2.3126891255">
        <ele>6.87</ele>
        <time>2018-11-05T09:06:43Z</time>
      </trkpt>
      <trkpt lat="36.8311625440" lon="-2.3124982696">
        <ele>6.87</ele>
        <time>2018-11-05T09:06:46Z</time>
      </trkpt>
      <trkpt lat="36.8311314471" lon="-2.3124464694">
        <ele>6.87</ele>
        <time>2018-11-05T09:06:47Z</time>
      </trkpt>
      <trkpt lat="36.8310964946" lon="-2.3124022968">
        <ele>6.39</ele>
        <time>2018-11-05T09:06:48Z</time>
      </trkpt>
      <trkpt lat="36.8308948260" lon="-2.3121323995">
        <ele>5.91</ele>
        <time>2018-11-05T09:06:54Z</time>
      </trkpt>
      <trkpt lat="36.8307595421" lon="-2.3119048309">
        <ele>5.42</ele>
        <time>2018-11-05T09:06:59Z</time>
      </trkpt>
      <trkpt lat="36.8307494000" lon="-2.3118626699">
        <ele>5.42</ele>
        <time>2018-11-05T09:07:00Z</time>
      </trkpt>
      <trkpt lat="36.8307499867" lon="-2.3118265439">
        <ele>5.42</ele>
        <time>2018-11-05T09:07:01Z</time>
      </trkpt>
      <trkpt lat="36.8307588715" lon="-2.3117949441">
        <ele>5.42</ele>
        <time>2018-11-05T09:07:02Z</time>
      </trkpt>
      <trkpt lat="36.8307744619" lon="-2.3117754981">
        <ele>5.42</ele>
        <time>2018-11-05T09:07:03Z</time>
      </trkpt>
      <trkpt lat="36.8307909742" lon="-2.3117604945">
        <ele>5.42</ele>
        <time>2018-11-05T09:07:04Z</time>
      </trkpt>
      <trkpt lat="36.8308056425" lon="-2.3117374443">
        <ele>5.42</ele>
        <time>2018-11-05T09:07:05Z</time>
      </trkpt>
      <trkpt lat="36.8308193889" lon="-2.3117075209">
        <ele>5.42</ele>
        <time>2018-11-05T09:07:06Z</time>
      </trkpt>
      <trkpt lat="36.8308234122" lon="-2.3116850574">
        <ele>5.91</ele>
        <time>2018-11-05T09:07:07Z</time>
      </trkpt>
      <trkpt lat="36.8308183830" lon="-2.3116600793">
        <ele>5.42</ele>
        <time>2018-11-05T09:07:08Z</time>
      </trkpt>
      <trkpt lat="36.8308084924" lon="-2.3116353527">
        <ele>5.42</ele>
        <time>2018-11-05T09:07:09Z</time>
      </trkpt>
      <trkpt lat="36.8306904752" lon="-2.3114688043">
        <ele>4.94</ele>
        <time>2018-11-05T09:07:15Z</time>
      </trkpt>
      <trkpt lat="36.8304341566" lon="-2.3112118151">
        <ele>4.46</ele>
        <time>2018-11-05T09:07:24Z</time>
      </trkpt>
      <trkpt lat="36.8302556220" lon="-2.3109640460">
        <ele>5.42</ele>
        <time>2018-11-05T09:07:32Z</time>
      </trkpt>
      <trkpt lat="36.8300688732" lon="-2.3106414266">
        <ele>5.42</ele>
        <time>2018-11-05T09:07:41Z</time>
      </trkpt>
      <trkpt lat="36.8300203420" lon="-2.3105835076">
        <ele>5.42</ele>
        <time>2018-11-05T09:07:47Z</time>
      </trkpt>
      <trkpt lat="36.8299323320" lon="-2.3104742914">
        <ele>4.94</ele>
        <time>2018-11-05T09:07:57Z</time>
      </trkpt>
      <trkpt lat="36.8299224414" lon="-2.3104608804">
        <ele>5.42</ele>
        <time>2018-11-05T09:07:58Z</time>
      </trkpt>
      <trkpt lat="36.8299117964" lon="-2.3104470503">
        <ele>4.94</ele>
        <time>2018-11-05T09:07:59Z</time>
      </trkpt>
      <trkpt lat="36.8299014028" lon="-2.3104312085">
        <ele>4.94</ele>
        <time>2018-11-05T09:08:00Z</time>
      </trkpt>
      <trkpt lat="36.8298916798" lon="-2.3104164563">
        <ele>4.94</ele>
        <time>2018-11-05T09:08:01Z</time>
      </trkpt>
      <trkpt lat="36.8298825435" lon="-2.3104000278">
        <ele>4.94</ele>
        <time>2018-11-05T09:08:02Z</time>
      </trkpt>
      <trkpt lat="36.8298725691" lon="-2.3103816714">
        <ele>4.94</ele>
        <time>2018-11-05T09:08:03Z</time>
      </trkpt>
      <trkpt lat="36.8298615888" lon="-2.3103645723">
        <ele>4.94</ele>
        <time>2018-11-05T09:08:04Z</time>
      </trkpt>
      <trkpt lat="36.8297675438" lon="-2.3101778235">
        <ele>4.94</ele>
        <time>2018-11-05T09:08:12Z</time>
      </trkpt>
      <trkpt lat="36.8296170048" lon="-2.3099230975">
        <ele>4.46</ele>
        <time>2018-11-05T09:08:22Z</time>
      </trkpt>
      <trkpt lat="36.8294721656" lon="-2.3096862249">
        <ele>4.94</ele>
        <time>2018-11-05T09:08:31Z</time>
      </trkpt>
      <trkpt lat="36.8293082155" lon="-2.3094093706">
        <ele>4.46</ele>
        <time>2018-11-05T09:08:41Z</time>
      </trkpt>
      <trkpt lat="36.8291566707" lon="-2.3091572430">
        <ele>5.42</ele>
        <time>2018-11-05T09:08:50Z</time>
      </trkpt>
      <trkpt lat="36.8291157670" lon="-2.3088504653">
        <ele>6.39</ele>
        <time>2018-11-05T09:08:58Z</time>
      </trkpt>
      <trkpt lat="36.8291453552" lon="-2.3085241579">
        <ele>6.87</ele>
        <time>2018-11-05T09:09:06Z</time>
      </trkpt>
      <trkpt lat="36.8292236421" lon="-2.3081288673">
        <ele>7.35</ele>
        <time>2018-11-05T09:09:16Z</time>
      </trkpt>
      <trkpt lat="36.8292837404" lon="-2.3078478221">
        <ele>7.35</ele>
        <time>2018-11-05T09:09:24Z</time>
      </trkpt>
      <trkpt lat="36.8293360434" lon="-2.3075068463">
        <ele>8.31</ele>
        <time>2018-11-05T09:09:33Z</time>
      </trkpt>
      <trkpt lat="36.8293473590" lon="-2.3073362745">
        <ele>8.79</ele>
        <time>2018-11-05T09:09:41Z</time>
      </trkpt>
      <trkpt lat="36.8293492030" lon="-2.3070954625">
        <ele>8.79</ele>
        <time>2018-11-05T09:09:49Z</time>
      </trkpt>
      <trkpt lat="36.8292869255" lon="-2.3068243079">
        <ele>9.27</ele>
        <time>2018-11-05T09:09:56Z</time>
      </trkpt>
      <trkpt lat="36.8291305192" lon="-2.3064757884">
        <ele>9.27</ele>
        <time>2018-11-05T09:10:05Z</time>
      </trkpt>
      <trkpt lat="36.8291098159" lon="-2.3064315319">
        <ele>9.27</ele>
        <time>2018-11-05T09:10:06Z</time>
      </trkpt>
      <trkpt lat="36.8288971670" lon="-2.3060454614">
        <ele>8.79</ele>
        <time>2018-11-05T09:10:15Z</time>
      </trkpt>
      <trkpt lat="36.8286804948" lon="-2.3056805134">
        <ele>8.31</ele>
        <time>2018-11-05T09:10:24Z</time>
      </trkpt>
      <trkpt lat="36.8284437899" lon="-2.3053081054">
        <ele>7.35</ele>
        <time>2018-11-05T09:10:33Z</time>
      </trkpt>
      <trkpt lat="36.8281859625" lon="-2.3048207816">
        <ele>5.91</ele>
        <time>2018-11-05T09:10:43Z</time>
      </trkpt>
      <trkpt lat="36.8280050810" lon="-2.3044555821">
        <ele>6.39</ele>
        <time>2018-11-05T09:10:51Z</time>
      </trkpt>
      <trkpt lat="36.8279820308" lon="-2.3044119123">
        <ele>6.39</ele>
        <time>2018-11-05T09:10:52Z</time>
      </trkpt>
      <trkpt lat="36.8277273886" lon="-2.3039141111">
        <ele>6.39</ele>
        <time>2018-11-05T09:11:03Z</time>
      </trkpt>
      <trkpt lat="36.8274728302" lon="-2.3034202494">
        <ele>5.91</ele>
        <time>2018-11-05T09:11:14Z</time>
      </trkpt>
      <trkpt lat="36.8272327725" lon="-2.3029051814">
        <ele>5.91</ele>
        <time>2018-11-05T09:11:25Z</time>
      </trkpt>
      <trkpt lat="36.8269520625" lon="-2.3024131637">
        <ele>5.91</ele>
        <time>2018-11-05T09:11:36Z</time>
      </trkpt>
      <trkpt lat="36.8267249968" lon="-2.3020559270">
        <ele>6.39</ele>
        <time>2018-11-05T09:11:45Z</time>
      </trkpt>
      <trkpt lat="36.8264551833" lon="-2.3015617300">
        <ele>6.39</ele>
        <time>2018-11-05T09:11:57Z</time>
      </trkpt>
      <trkpt lat="36.8262336496" lon="-2.3010960314">
        <ele>6.87</ele>
        <time>2018-11-05T09:12:08Z</time>
      </trkpt>
      <trkpt lat="36.8261942547" lon="-2.3010056745">
        <ele>6.39</ele>
        <time>2018-11-05T09:12:10Z</time>
      </trkpt>
      <trkpt lat="36.8261738867" lon="-2.3009617534">
        <ele>6.39</ele>
        <time>2018-11-05T09:12:11Z</time>
      </trkpt>
      <trkpt lat="36.8261561170" lon="-2.3009137250">
        <ele>6.39</ele>
        <time>2018-11-05T09:12:12Z</time>
      </trkpt>
      <trkpt lat="36.8261426222" lon="-2.3008653615">
        <ele>6.39</ele>
        <time>2018-11-05T09:12:13Z</time>
      </trkpt>
      <trkpt lat="36.8261305522" lon="-2.3008137289">
        <ele>6.39</ele>
        <time>2018-11-05T09:12:14Z</time>
      </trkpt>
      <trkpt lat="36.8260988686" lon="-2.3007133976">
        <ele>6.39</ele>
        <time>2018-11-05T09:12:16Z</time>
      </trkpt>
      <trkpt lat="36.8258571345" lon="-2.3001201265">
        <ele>6.87</ele>
        <time>2018-11-05T09:12:28Z</time>
      </trkpt>
      <trkpt lat="36.8257126305" lon="-2.2997394204">
        <ele>7.35</ele>
        <time>2018-11-05T09:12:36Z</time>
      </trkpt>
      <trkpt lat="36.8255297374" lon="-2.2993164696">
        <ele>7.83</ele>
        <time>2018-11-05T09:12:45Z</time>
      </trkpt>
      <trkpt lat="36.8253545556" lon="-2.2989016492">
        <ele>8.31</ele>
        <time>2018-11-05T09:12:54Z</time>
      </trkpt>
      <trkpt lat="36.8251797929" lon="-2.2984913550">
        <ele>9.27</ele>
        <time>2018-11-05T09:13:04Z</time>
      </trkpt>
      <trkpt lat="36.8250116520" lon="-2.2982745152">
        <ele>8.79</ele>
        <time>2018-11-05T09:13:12Z</time>
      </trkpt>
      <trkpt lat="36.8248015177" lon="-2.2981712501">
        <ele>8.79</ele>
        <time>2018-11-05T09:13:20Z</time>
      </trkpt>
      <trkpt lat="36.8245581910" lon="-2.2979948111">
        <ele>7.83</ele>
        <time>2018-11-05T09:13:30Z</time>
      </trkpt>
      <trkpt lat="36.8245175388" lon="-2.2979913745">
        <ele>7.83</ele>
        <time>2018-11-05T09:13:32Z</time>
      </trkpt>
      <trkpt lat="36.8245027866" lon="-2.2980018519">
        <ele>7.83</ele>
        <time>2018-11-05T09:13:33Z</time>
      </trkpt>
      <trkpt lat="36.8244972546" lon="-2.2980192024">
        <ele>7.83</ele>
        <time>2018-11-05T09:13:38Z</time>
      </trkpt>
      <trkpt lat="36.8245054688" lon="-2.2980300989">
        <ele>7.83</ele>
        <time>2018-11-05T09:13:52Z</time>
      </trkpt>
      <trkpt lat="36.8245028704" lon="-2.2980338708">
        <ele>7.83</ele>
        <time>2018-11-05T09:14:05Z</time>
      </trkpt>
      <trkpt lat="36.8245031219" lon="-2.2980387323">
        <ele>8.31</ele>
        <time>2018-11-05T09:14:28Z</time>
      </trkpt>
      <trkpt lat="36.8244955782" lon="-2.2980387323">
        <ele>7.83</ele>
        <time>2018-11-05T09:14:36Z</time>
      </trkpt>
      <trkpt lat="36.8244822510" lon="-2.2980341222">
        <ele>7.83</ele>
        <time>2018-11-05T09:14:37Z</time>
      </trkpt>
      <trkpt lat="36.8244689237" lon="-2.2980235610">
        <ele>7.83</ele>
        <time>2018-11-05T09:14:38Z</time>
      </trkpt>
      <trkpt lat="36.8243223242" lon="-2.2978614550">
        <ele>7.35</ele>
        <time>2018-11-05T09:14:46Z</time>
      </trkpt>
      <trkpt lat="36.8240644969" lon="-2.2976659052">
        <ele>6.87</ele>
        <time>2018-11-05T09:14:55Z</time>
      </trkpt>
      <trkpt lat="36.8237828650" lon="-2.2974105924">
        <ele>6.87</ele>
        <time>2018-11-05T09:15:04Z</time>
      </trkpt>
      <trkpt lat="36.8236380257" lon="-2.2972398531">
        <ele>6.87</ele>
        <time>2018-11-05T09:15:09Z</time>
      </trkpt>
      <trkpt lat="36.8234569766" lon="-2.2969226819">
        <ele>6.87</ele>
        <time>2018-11-05T09:15:17Z</time>
      </trkpt>
      <trkpt lat="36.8233249616" lon="-2.2965286486">
        <ele>6.87</ele>
        <time>2018-11-05T09:15:26Z</time>
      </trkpt>
      <trkpt lat="36.8231333513" lon="-2.2961695679">
        <ele>7.35</ele>
        <time>2018-11-05T09:15:35Z</time>
      </trkpt>
      <trkpt lat="36.8230245542" lon="-2.2959211282">
        <ele>7.35</ele>
        <time>2018-11-05T09:15:43Z</time>
      </trkpt>
      <trkpt lat="36.8229474407" lon="-2.2956399154">
        <ele>6.87</ele>
        <time>2018-11-05T09:15:52Z</time>
      </trkpt>
      <trkpt lat="36.8228181079" lon="-2.2954668291">
        <ele>6.39</ele>
        <time>2018-11-05T09:15:58Z</time>
      </trkpt>
      <trkpt lat="36.8226723466" lon="-2.2955005243">
        <ele>5.91</ele>
        <time>2018-11-05T09:16:04Z</time>
      </trkpt>
      <trkpt lat="36.8225472886" lon="-2.2956114169">
        <ele>5.91</ele>
        <time>2018-11-05T09:16:12Z</time>
      </trkpt>
      <trkpt lat="36.8224292714" lon="-2.2956866864">
        <ele>5.91</ele>
        <time>2018-11-05T09:16:19Z</time>
      </trkpt>
      <trkpt lat="36.8223231565" lon="-2.2957195435">
        <ele>6.39</ele>
        <time>2018-11-05T09:16:26Z</time>
      </trkpt>
      <trkpt lat="36.8222481385" lon="-2.2956371494">
        <ele>6.87</ele>
        <time>2018-11-05T09:16:33Z</time>
      </trkpt>
      <trkpt lat="36.8223004416" lon="-2.2954948246">
        <ele>6.87</ele>
        <time>2018-11-05T09:16:42Z</time>
      </trkpt>
      <trkpt lat="36.8223724421" lon="-2.2954900470">
        <ele>6.87</ele>
        <time>2018-11-05T09:16:48Z</time>
      </trkpt>
      <trkpt lat="36.8224476278" lon="-2.2955492232">
        <ele>6.39</ele>
        <time>2018-11-05T09:16:55Z</time>
      </trkpt>
      <trkpt lat="36.8224983383" lon="-2.2955683339">
        <ele>6.39</ele>
        <time>2018-11-05T09:16:59Z</time>
      </trkpt>
      <trkpt lat="36.8225162756" lon="-2.2955850977">
        <ele>6.39</ele>
        <time>2018-11-05T09:17:07Z</time>
      </trkpt>
      <trkpt lat="36.8225175329" lon="-2.2955770511">
        <ele>6.39</ele>
        <time>2018-11-05T09:17:23Z</time>
      </trkpt>
      <trkpt lat="36.8225201312" lon="-2.2955699265">
        <ele>4.94</ele>
        <time>2018-11-05T09:17:42Z</time>
      </trkpt>
      <trkpt lat="36.8225132581" lon="-2.2955824155">
        <ele>4.46</ele>
        <time>2018-11-05T09:17:57Z</time>
      </trkpt>
      <trkpt lat="36.8225164432" lon="-2.2955809906">
        <ele>5.42</ele>
        <time>2018-11-05T09:18:11Z</time>
      </trkpt>
      <trkpt lat="36.8225069717" lon="-2.2955843434">
        <ele>7.35</ele>
        <time>2018-11-05T09:18:27Z</time>
      </trkpt>
      <trkpt lat="36.8225150183" lon="-2.2955759615">
        <ele>5.91</ele>
        <time>2018-11-05T09:18:45Z</time>
      </trkpt>
      <trkpt lat="36.8225210533" lon="-2.2955763806">
        <ele>5.91</ele>
        <time>2018-11-05T09:19:03Z</time>
      </trkpt>
      <trkpt lat="36.8225206342" lon="-2.2955725249">
        <ele>4.46</ele>
        <time>2018-11-05T09:19:19Z</time>
      </trkpt>
      <trkpt lat="36.8225095700" lon="-2.2955707647">
        <ele>5.42</ele>
        <time>2018-11-05T09:19:36Z</time>
      </trkpt>
      <trkpt lat="36.8225099053" lon="-2.2955793981">
        <ele>6.87</ele>
        <time>2018-11-05T09:19:50Z</time>
      </trkpt>
      <trkpt lat="36.8225165270" lon="-2.2955820803">
        <ele>6.87</ele>
        <time>2018-11-05T09:20:06Z</time>
      </trkpt>
      <trkpt lat="36.8226186186" lon="-2.2955152765">
        <ele>6.87</ele>
        <time>2018-11-05T09:20:13Z</time>
      </trkpt>
      <trkpt lat="36.8226416688" lon="-2.2954979260">
        <ele>6.87</ele>
        <time>2018-11-05T09:20:14Z</time>
      </trkpt>
      <trkpt lat="36.8228595145" lon="-2.2954415157">
        <ele>6.87</ele>
        <time>2018-11-05T09:20:21Z</time>
      </trkpt>
      <trkpt lat="36.8231019191" lon="-2.2954923939">
        <ele>7.35</ele>
        <time>2018-11-05T09:20:28Z</time>
      </trkpt>
      <trkpt lat="36.8232939485" lon="-2.2954785638">
        <ele>8.31</ele>
        <time>2018-11-05T09:20:34Z</time>
      </trkpt>
      <trkpt lat="36.8236386124" lon="-2.2953976784">
        <ele>9.27</ele>
        <time>2018-11-05T09:20:44Z</time>
      </trkpt>
      <trkpt lat="36.8240712862" lon="-2.2953380831">
        <ele>12.15</ele>
        <time>2018-11-05T09:20:56Z</time>
      </trkpt>
      <trkpt lat="36.8242809176" lon="-2.2953220736">
        <ele>13.12</ele>
        <time>2018-11-05T09:21:03Z</time>
      </trkpt>
      <trkpt lat="36.8245393317" lon="-2.2952777334">
        <ele>13.12</ele>
        <time>2018-11-05T09:21:11Z</time>
      </trkpt>
      <trkpt lat="36.8248766195" lon="-2.2952131089">
        <ele>14.08</ele>
        <time>2018-11-05T09:21:21Z</time>
      </trkpt>
      <trkpt lat="36.8251882587" lon="-2.2951602191">
        <ele>15.04</ele>
        <time>2018-11-05T09:21:30Z</time>
      </trkpt>
      <trkpt lat="36.8256038334" lon="-2.2950899787">
        <ele>16.00</ele>
        <time>2018-11-05T09:21:42Z</time>
      </trkpt>
      <trkpt lat="36.8259901553" lon="-2.2950240970">
        <ele>16.48</ele>
        <time>2018-11-05T09:21:53Z</time>
      </trkpt>
      <trkpt lat="36.8263960909" lon="-2.2949537728">
        <ele>16.96</ele>
        <time>2018-11-05T09:22:05Z</time>
      </trkpt>
      <trkpt lat="36.8267487176" lon="-2.2948929202">
        <ele>18.40</ele>
        <time>2018-11-05T09:22:16Z</time>
      </trkpt>
      <trkpt lat="36.8271152582" lon="-2.2948204167">
        <ele>19.36</ele>
        <time>2018-11-05T09:22:27Z</time>
      </trkpt>
      <trkpt lat="36.8274693936" lon="-2.2947627492">
        <ele>19.84</ele>
        <time>2018-11-05T09:22:37Z</time>
      </trkpt>
      <trkpt lat="36.8277439009" lon="-2.2947164811">
        <ele>21.29</ele>
        <time>2018-11-05T09:22:45Z</time>
      </trkpt>
      <trkpt lat="36.8281572964" lon="-2.2946509346">
        <ele>21.77</ele>
        <time>2018-11-05T09:22:57Z</time>
      </trkpt>
      <trkpt lat="36.8285141140" lon="-2.2945955303">
        <ele>22.25</ele>
        <time>2018-11-05T09:23:07Z</time>
      </trkpt>
      <trkpt lat="36.8288611248" lon="-2.2945206799">
        <ele>23.21</ele>
        <time>2018-11-05T09:23:17Z</time>
      </trkpt>
      <trkpt lat="36.8291590177" lon="-2.2944837995">
        <ele>23.69</ele>
        <time>2018-11-05T09:23:26Z</time>
      </trkpt>
      <trkpt lat="36.8294062838" lon="-2.2944490984">
        <ele>24.17</ele>
        <time>2018-11-05T09:23:33Z</time>
      </trkpt>
      <trkpt lat="36.8297383748" lon="-2.2943916824">
        <ele>24.65</ele>
        <time>2018-11-05T09:23:42Z</time>
      </trkpt>
      <trkpt lat="36.8300200067" lon="-2.2943371162">
        <ele>25.61</ele>
        <time>2018-11-05T09:23:50Z</time>
      </trkpt>
      <trkpt lat="36.8302688655" lon="-2.2942997329">
        <ele>26.09</ele>
        <time>2018-11-05T09:23:57Z</time>
      </trkpt>
      <trkpt lat="36.8306182232" lon="-2.2942439094">
        <ele>26.09</ele>
        <time>2018-11-05T09:24:07Z</time>
      </trkpt>
      <trkpt lat="36.8309292756" lon="-2.2941920254">
        <ele>26.09</ele>
        <time>2018-11-05T09:24:16Z</time>
      </trkpt>
      <trkpt lat="36.8312438484" lon="-2.2941392194">
        <ele>26.57</ele>
        <time>2018-11-05T09:24:25Z</time>
      </trkpt>
      <trkpt lat="36.8314891029" lon="-2.2940830607">
        <ele>27.53</ele>
        <time>2018-11-05T09:24:32Z</time>
      </trkpt>
      <trkpt lat="36.8318527937" lon="-2.2940261476">
        <ele>28.02</ele>
        <time>2018-11-05T09:24:42Z</time>
      </trkpt>
      <trkpt lat="36.8322878145" lon="-2.2939424962">
        <ele>28.98</ele>
        <time>2018-11-05T09:24:54Z</time>
      </trkpt>
      <trkpt lat="36.8325997889" lon="-2.2938943841">
        <ele>29.94</ele>
        <time>2018-11-05T09:25:03Z</time>
      </trkpt>
      <trkpt lat="36.8329441175" lon="-2.2938319389">
        <ele>30.90</ele>
        <time>2018-11-05T09:25:13Z</time>
      </trkpt>
      <trkpt lat="36.8332569301" lon="-2.2937906999">
        <ele>31.38</ele>
        <time>2018-11-05T09:25:22Z</time>
      </trkpt>
      <trkpt lat="36.8336003367" lon="-2.2937298473">
        <ele>31.38</ele>
        <time>2018-11-05T09:25:32Z</time>
      </trkpt>
      <trkpt lat="36.8338971399" lon="-2.2936903685">
        <ele>31.38</ele>
        <time>2018-11-05T09:25:40Z</time>
      </trkpt>
      <trkpt lat="36.8342730682" lon="-2.2936079744">
        <ele>31.38</ele>
        <time>2018-11-05T09:25:50Z</time>
      </trkpt>
      <trkpt lat="36.8343136366" lon="-2.2935982514">
        <ele>31.38</ele>
        <time>2018-11-05T09:25:51Z</time>
      </trkpt>
      <trkpt lat="36.8346567079" lon="-2.2935480438">
        <ele>32.34</ele>
        <time>2018-11-05T09:26:00Z</time>
      </trkpt>
      <trkpt lat="36.8349913135" lon="-2.2934893705">
        <ele>32.34</ele>
        <time>2018-11-05T09:26:08Z</time>
      </trkpt>
      <trkpt lat="36.8353600334" lon="-2.2934245784">
        <ele>32.34</ele>
        <time>2018-11-05T09:26:17Z</time>
      </trkpt>
      <trkpt lat="36.8357381411" lon="-2.2933640610">
        <ele>32.82</ele>
        <time>2018-11-05T09:26:26Z</time>
      </trkpt>
      <trkpt lat="36.8362974655" lon="-2.2932863608">
        <ele>33.30</ele>
        <time>2018-11-05T09:26:39Z</time>
      </trkpt>
      <trkpt lat="36.8367094360" lon="-2.2932239156">
        <ele>34.26</ele>
        <time>2018-11-05T09:26:49Z</time>
      </trkpt>
      <trkpt lat="36.8370319717" lon="-2.2931334749">
        <ele>35.23</ele>
        <time>2018-11-05T09:26:58Z</time>
      </trkpt>
      <trkpt lat="36.8373724446" lon="-2.2931087483">
        <ele>35.23</ele>
        <time>2018-11-05T09:27:07Z</time>
      </trkpt>
      <trkpt lat="36.8377347104" lon="-2.2931058984">
        <ele>35.71</ele>
        <time>2018-11-05T09:27:17Z</time>
      </trkpt>
      <trkpt lat="36.8380330224" lon="-2.2931127716">
        <ele>36.19</ele>
        <time>2018-11-05T09:27:25Z</time>
      </trkpt>
      <trkpt lat="36.8383682985" lon="-2.2930923197">
        <ele>35.71</ele>
        <time>2018-11-05T09:27:34Z</time>
      </trkpt>
      <trkpt lat="36.8386314064" lon="-2.2930754721">
        <ele>35.71</ele>
        <time>2018-11-05T09:27:42Z</time>
      </trkpt>
      <trkpt lat="36.8386867270" lon="-2.2930507455">
        <ele>35.71</ele>
        <time>2018-11-05T09:27:45Z</time>
      </trkpt>
      <trkpt lat="36.8386836257" lon="-2.2930331435">
        <ele>35.23</ele>
        <time>2018-11-05T09:27:50Z</time>
      </trkpt>
      <trkpt lat="36.8386721425" lon="-2.2930394299">
        <ele>36.19</ele>
        <time>2018-11-05T09:28:03Z</time>
      </trkpt>
      <trkpt lat="36.8386877328" lon="-2.2930271085">
        <ele>36.19</ele>
        <time>2018-11-05T09:28:11Z</time>
      </trkpt>
      <trkpt lat="36.8386922590" lon="-2.2930280305">
        <ele>35.23</ele>
        <time>2018-11-05T09:28:25Z</time>
      </trkpt>
      <trkpt lat="36.8386989646" lon="-2.2930390108">
        <ele>35.71</ele>
        <time>2018-11-05T09:28:40Z</time>
      </trkpt>
      <trkpt lat="36.8387139682" lon="-2.2930451296">
        <ele>35.23</ele>
        <time>2018-11-05T09:29:05Z</time>
      </trkpt>
      <trkpt lat="36.8386976235" lon="-2.2930350713">
        <ele>34.26</ele>
        <time>2018-11-05T09:29:20Z</time>
      </trkpt>
      <trkpt lat="36.8386921752" lon="-2.2930159606">
        <ele>36.19</ele>
        <time>2018-11-05T09:29:36Z</time>
      </trkpt>
      <trkpt lat="36.8387023173" lon="-2.2930117697">
        <ele>36.67</ele>
        <time>2018-11-05T09:29:46Z</time>
      </trkpt>
      <trkpt lat="36.8386948574" lon="-2.2930096742">
        <ele>36.19</ele>
        <time>2018-11-05T09:30:04Z</time>
      </trkpt>
      <trkpt lat="36.8387105316" lon="-2.2929660883">
        <ele>36.67</ele>
        <time>2018-11-05T09:30:15Z</time>
      </trkpt>
      <trkpt lat="36.8386984617" lon="-2.2929362487">
        <ele>36.67</ele>
        <time>2018-11-05T09:30:16Z</time>
      </trkpt>
      <trkpt lat="36.8386768363" lon="-2.2929106001">
        <ele>36.67</ele>
        <time>2018-11-05T09:30:17Z</time>
      </trkpt>
      <trkpt lat="36.8384240381" lon="-2.2926338296">
        <ele>37.15</ele>
        <time>2018-11-05T09:30:25Z</time>
      </trkpt>
      <trkpt lat="36.8383575696" lon="-2.2925417963">
        <ele>36.67</ele>
        <time>2018-11-05T09:30:27Z</time>
      </trkpt>
      <trkpt lat="36.8380436674" lon="-2.2920041811">
        <ele>36.19</ele>
        <time>2018-11-05T09:30:37Z</time>
      </trkpt>
      <trkpt lat="36.8378287554" lon="-2.2914595250">
        <ele>34.74</ele>
        <time>2018-11-05T09:30:45Z</time>
      </trkpt>
      <trkpt lat="36.8375275098" lon="-2.2906690277">
        <ele>32.34</ele>
        <time>2018-11-05T09:30:56Z</time>
      </trkpt>
      <trkpt lat="36.8371996097" lon="-2.2897998244">
        <ele>29.94</ele>
        <time>2018-11-05T09:31:07Z</time>
      </trkpt>
      <trkpt lat="36.8369046506" lon="-2.2890224028">
        <ele>28.50</ele>
        <time>2018-11-05T09:31:17Z</time>
      </trkpt>
      <trkpt lat="36.8366174866" lon="-2.2882980388">
        <ele>27.53</ele>
        <time>2018-11-05T09:31:27Z</time>
      </trkpt>
      <trkpt lat="36.8362960406" lon="-2.2875981499">
        <ele>26.09</ele>
        <time>2018-11-05T09:31:36Z</time>
      </trkpt>
      <trkpt lat="36.8358989898" lon="-2.2868651524">
        <ele>24.65</ele>
        <time>2018-11-05T09:31:46Z</time>
      </trkpt>
      <trkpt lat="36.8354302738" lon="-2.2859998047">
        <ele>22.73</ele>
        <time>2018-11-05T09:31:58Z</time>
      </trkpt>
      <trkpt lat="36.8349853624" lon="-2.2851743549">
        <ele>21.77</ele>
        <time>2018-11-05T09:32:10Z</time>
      </trkpt>
      <trkpt lat="36.8345419597" lon="-2.2843607236">
        <ele>22.73</ele>
        <time>2018-11-05T09:32:22Z</time>
      </trkpt>
      <trkpt lat="36.8341590744" lon="-2.2836576495">
        <ele>23.69</ele>
        <time>2018-11-05T09:32:33Z</time>
      </trkpt>
      <trkpt lat="36.8338064477" lon="-2.2829380631">
        <ele>25.13</ele>
        <time>2018-11-05T09:32:44Z</time>
      </trkpt>
      <trkpt lat="36.8335063756" lon="-2.2822264396">
        <ele>26.57</ele>
        <time>2018-11-05T09:32:55Z</time>
      </trkpt>
      <trkpt lat="36.8332544994" lon="-2.2816154826">
        <ele>27.05</ele>
        <time>2018-11-05T09:33:04Z</time>
      </trkpt>
      <trkpt lat="36.8329671677" lon="-2.2809233889">
        <ele>28.50</ele>
        <time>2018-11-05T09:33:15Z</time>
      </trkpt>
      <trkpt lat="36.8326914869" lon="-2.2802710254">
        <ele>29.46</ele>
        <time>2018-11-05T09:33:25Z</time>
      </trkpt>
      <trkpt lat="36.8323874753" lon="-2.2795508523">
        <ele>29.94</ele>
        <time>2018-11-05T09:33:36Z</time>
      </trkpt>
      <trkpt lat="36.8320957012" lon="-2.2788611054">
        <ele>29.46</ele>
        <time>2018-11-05T09:33:46Z</time>
      </trkpt>
      <trkpt lat="36.8317332678" lon="-2.2780087497">
        <ele>29.46</ele>
        <time>2018-11-05T09:33:58Z</time>
      </trkpt>
      <trkpt lat="36.8315079622" lon="-2.2774786782">
        <ele>29.94</ele>
        <time>2018-11-05T09:34:06Z</time>
      </trkpt>
      <trkpt lat="36.8312449381" lon="-2.2768470179">
        <ele>30.90</ele>
        <time>2018-11-05T09:34:16Z</time>
      </trkpt>
      <trkpt lat="36.8309996836" lon="-2.2761463746">
        <ele>31.86</ele>
        <time>2018-11-05T09:34:27Z</time>
      </trkpt>
      <trkpt lat="36.8308122642" lon="-2.2753744852">
        <ele>31.38</ele>
        <time>2018-11-05T09:34:38Z</time>
      </trkpt>
      <trkpt lat="36.8306993600" lon="-2.2748257220">
        <ele>31.86</ele>
        <time>2018-11-05T09:34:46Z</time>
      </trkpt>
      <trkpt lat="36.8305254355" lon="-2.2740012780">
        <ele>32.82</ele>
        <time>2018-11-05T09:34:58Z</time>
      </trkpt>
      <trkpt lat="36.8303719629" lon="-2.2732441407">
        <ele>31.86</ele>
        <time>2018-11-05T09:35:09Z</time>
      </trkpt>
      <trkpt lat="36.8302075099" lon="-2.2724445909">
        <ele>29.94</ele>
        <time>2018-11-05T09:35:20Z</time>
      </trkpt>
      <trkpt lat="36.8300522771" lon="-2.2716600448">
        <ele>28.50</ele>
        <time>2018-11-05T09:35:30Z</time>
      </trkpt>
      <trkpt lat="36.8298591580" lon="-2.2708204295">
        <ele>26.57</ele>
        <time>2018-11-05T09:35:41Z</time>
      </trkpt>
      <trkpt lat="36.8296191841" lon="-2.2700359672">
        <ele>24.65</ele>
        <time>2018-11-05T09:35:51Z</time>
      </trkpt>
      <trkpt lat="36.8293115683" lon="-2.2692433745">
        <ele>24.65</ele>
        <time>2018-11-05T09:36:02Z</time>
      </trkpt>
      <trkpt lat="36.8289739452" lon="-2.2684978042">
        <ele>25.13</ele>
        <time>2018-11-05T09:36:13Z</time>
      </trkpt>
      <trkpt lat="36.8287037965" lon="-2.2679765336">
        <ele>26.09</ele>
        <time>2018-11-05T09:36:22Z</time>
      </trkpt>
      <trkpt lat="36.8284222484" lon="-2.2674814984">
        <ele>27.05</ele>
        <time>2018-11-05T09:36:31Z</time>
      </trkpt>
      <trkpt lat="36.8281597272" lon="-2.2670228407">
        <ele>27.05</ele>
        <time>2018-11-05T09:36:40Z</time>
      </trkpt>
      <trkpt lat="36.8278936017" lon="-2.2665657755">
        <ele>28.02</ele>
        <time>2018-11-05T09:36:49Z</time>
      </trkpt>
      <trkpt lat="36.8275841419" lon="-2.2660252266">
        <ele>28.98</ele>
        <time>2018-11-05T09:37:00Z</time>
      </trkpt>
      <trkpt lat="36.8272762746" lon="-2.2654926404">
        <ele>30.42</ele>
        <time>2018-11-05T09:37:11Z</time>
      </trkpt>
      <trkpt lat="36.8269153498" lon="-2.2648662608">
        <ele>30.90</ele>
        <time>2018-11-05T09:37:23Z</time>
      </trkpt>
      <trkpt lat="36.8265771400" lon="-2.2642905079">
        <ele>30.90</ele>
        <time>2018-11-05T09:37:33Z</time>
      </trkpt>
      <trkpt lat="36.8262093421" lon="-2.2636385635">
        <ele>29.94</ele>
        <time>2018-11-05T09:37:43Z</time>
      </trkpt>
      <trkpt lat="36.8257231079" lon="-2.2627832741">
        <ele>28.50</ele>
        <time>2018-11-05T09:37:55Z</time>
      </trkpt>
      <trkpt lat="36.8254025839" lon="-2.2622164059">
        <ele>27.53</ele>
        <time>2018-11-05T09:38:03Z</time>
      </trkpt>
      <trkpt lat="36.8248918746" lon="-2.2613135912">
        <ele>26.57</ele>
        <time>2018-11-05T09:38:15Z</time>
      </trkpt>
      <trkpt lat="36.8244036287" lon="-2.2604574636">
        <ele>26.09</ele>
        <time>2018-11-05T09:38:27Z</time>
      </trkpt>
      <trkpt lat="36.8240018003" lon="-2.2597470973">
        <ele>25.61</ele>
        <time>2018-11-05T09:38:37Z</time>
      </trkpt>
      <trkpt lat="36.8234726507" lon="-2.2588155326">
        <ele>25.13</ele>
        <time>2018-11-05T09:38:50Z</time>
      </trkpt>
      <trkpt lat="36.8229740951" lon="-2.2579353489">
        <ele>25.13</ele>
        <time>2018-11-05T09:39:02Z</time>
      </trkpt>
      <trkpt lat="36.8226044532" lon="-2.2572703287">
        <ele>26.09</ele>
        <time>2018-11-05T09:39:12Z</time>
      </trkpt>
      <trkpt lat="36.8222490605" lon="-2.2566014528">
        <ele>26.09</ele>
        <time>2018-11-05T09:39:23Z</time>
      </trkpt>
      <trkpt lat="36.8219313025" lon="-2.2559494246">
        <ele>26.09</ele>
        <time>2018-11-05T09:39:34Z</time>
      </trkpt>
      <trkpt lat="36.8216336612" lon="-2.2553437483">
        <ele>27.05</ele>
        <time>2018-11-05T09:39:45Z</time>
      </trkpt>
      <trkpt lat="36.8213804439" lon="-2.2548115812">
        <ele>27.53</ele>
        <time>2018-11-05T09:39:54Z</time>
      </trkpt>
      <trkpt lat="36.8211331777" lon="-2.2542608064">
        <ele>27.05</ele>
        <time>2018-11-05T09:40:03Z</time>
      </trkpt>
      <trkpt lat="36.8209730834" lon="-2.2536743246">
        <ele>26.09</ele>
        <time>2018-11-05T09:40:11Z</time>
      </trkpt>
      <trkpt lat="36.8207432516" lon="-2.2527047899">
        <ele>25.13</ele>
        <time>2018-11-05T09:40:23Z</time>
      </trkpt>
      <trkpt lat="36.8205478694" lon="-2.2519179806">
        <ele>23.21</ele>
        <time>2018-11-05T09:40:32Z</time>
      </trkpt>
      <trkpt lat="36.8202492222" lon="-2.2510087956">
        <ele>22.73</ele>
        <time>2018-11-05T09:40:43Z</time>
      </trkpt>
      <trkpt lat="36.8200580310" lon="-2.2504624631">
        <ele>23.21</ele>
        <time>2018-11-05T09:40:51Z</time>
      </trkpt>
      <trkpt lat="36.8197958451" lon="-2.2500102594">
        <ele>23.21</ele>
        <time>2018-11-05T09:40:59Z</time>
      </trkpt>
      <trkpt lat="36.8197603058" lon="-2.2499632370">
        <ele>23.21</ele>
        <time>2018-11-05T09:41:00Z</time>
      </trkpt>
      <trkpt lat="36.8193330802" lon="-2.2493846342">
        <ele>21.77</ele>
        <time>2018-11-05T09:41:10Z</time>
      </trkpt>
      <trkpt lat="36.8188748416" lon="-2.2487710789">
        <ele>20.81</ele>
        <time>2018-11-05T09:41:21Z</time>
      </trkpt>
      <trkpt lat="36.8182845041" lon="-2.2479760554">
        <ele>20.81</ele>
        <time>2018-11-05T09:41:35Z</time>
      </trkpt>
      <trkpt lat="36.8178289477" lon="-2.2473587282">
        <ele>19.84</ele>
        <time>2018-11-05T09:41:46Z</time>
      </trkpt>
      <trkpt lat="36.8173759058" lon="-2.2467528842">
        <ele>19.36</ele>
        <time>2018-11-05T09:41:57Z</time>
      </trkpt>
      <trkpt lat="36.8170053419" lon="-2.2462175321">
        <ele>18.40</ele>
        <time>2018-11-05T09:42:06Z</time>
      </trkpt>
      <trkpt lat="36.8165816367" lon="-2.2454719618">
        <ele>17.44</ele>
        <time>2018-11-05T09:42:17Z</time>
      </trkpt>
      <trkpt lat="36.8162343744" lon="-2.2447061073">
        <ele>16.48</ele>
        <time>2018-11-05T09:42:28Z</time>
      </trkpt>
      <trkpt lat="36.8160332926" lon="-2.2441530693">
        <ele>15.52</ele>
        <time>2018-11-05T09:42:36Z</time>
      </trkpt>
      <trkpt lat="36.8157663289" lon="-2.2434292920">
        <ele>15.52</ele>
        <time>2018-11-05T09:42:46Z</time>
      </trkpt>
      <trkpt lat="36.8155060709" lon="-2.2427046765">
        <ele>15.04</ele>
        <time>2018-11-05T09:42:56Z</time>
      </trkpt>
      <trkpt lat="36.8152176496" lon="-2.2419296857">
        <ele>15.52</ele>
        <time>2018-11-05T09:43:08Z</time>
      </trkpt>
      <trkpt lat="36.8149368558" lon="-2.2411622386">
        <ele>15.52</ele>
        <time>2018-11-05T09:43:20Z</time>
      </trkpt>
      <trkpt lat="36.8147130590" lon="-2.2405493539">
        <ele>16.00</ele>
        <time>2018-11-05T09:43:30Z</time>
      </trkpt>
      <trkpt lat="36.8144461792" lon="-2.2398260795">
        <ele>16.00</ele>
        <time>2018-11-05T09:43:42Z</time>
      </trkpt>
      <trkpt lat="36.8141820654" lon="-2.2390988655">
        <ele>16.48</ele>
        <time>2018-11-05T09:43:54Z</time>
      </trkpt>
      <trkpt lat="36.8139195442" lon="-2.2383921035">
        <ele>16.48</ele>
        <time>2018-11-05T09:44:05Z</time>
      </trkpt>
      <trkpt lat="36.8136314582" lon="-2.2376151010">
        <ele>16.96</ele>
        <time>2018-11-05T09:44:17Z</time>
      </trkpt>
      <trkpt lat="36.8133747205" lon="-2.2369360831">
        <ele>16.96</ele>
        <time>2018-11-05T09:44:28Z</time>
      </trkpt>
      <trkpt lat="36.8131111097" lon="-2.2362087853">
        <ele>16.96</ele>
        <time>2018-11-05T09:44:40Z</time>
      </trkpt>
      <trkpt lat="36.8129213434" lon="-2.2354865167">
        <ele>17.44</ele>
        <time>2018-11-05T09:44:51Z</time>
      </trkpt>
      <trkpt lat="36.8127419706" lon="-2.2349224146">
        <ele>17.92</ele>
        <time>2018-11-05T09:45:00Z</time>
      </trkpt>
      <trkpt lat="36.8124829698" lon="-2.2345758229">
        <ele>17.92</ele>
        <time>2018-11-05T09:45:07Z</time>
      </trkpt>
      <trkpt lat="36.8121484481" lon="-2.2343349271">
        <ele>16.96</ele>
        <time>2018-11-05T09:45:14Z</time>
      </trkpt>
      <trkpt lat="36.8116406724" lon="-2.2340180911">
        <ele>15.52</ele>
        <time>2018-11-05T09:45:24Z</time>
      </trkpt>
      <trkpt lat="36.8109888118" lon="-2.2336680628">
        <ele>14.56</ele>
        <time>2018-11-05T09:45:36Z</time>
      </trkpt>
      <trkpt lat="36.8104044255" lon="-2.2333362233">
        <ele>13.12</ele>
        <time>2018-11-05T09:45:47Z</time>
      </trkpt>
      <trkpt lat="36.8098231405" lon="-2.2330011986">
        <ele>12.63</ele>
        <time>2018-11-05T09:45:58Z</time>
      </trkpt>
      <trkpt lat="36.8093518261" lon="-2.2327331454">
        <ele>12.63</ele>
        <time>2018-11-05T09:46:07Z</time>
      </trkpt>
      <trkpt lat="36.8088986166" lon="-2.2324867174">
        <ele>12.63</ele>
        <time>2018-11-05T09:46:16Z</time>
      </trkpt>
      <trkpt lat="36.8083421420" lon="-2.2321977932">
        <ele>13.12</ele>
        <time>2018-11-05T09:46:28Z</time>
      </trkpt>
      <trkpt lat="36.8079296686" lon="-2.2319844738">
        <ele>13.12</ele>
        <time>2018-11-05T09:46:38Z</time>
      </trkpt>
      <trkpt lat="36.8075801432" lon="-2.2318083700">
        <ele>13.12</ele>
        <time>2018-11-05T09:46:47Z</time>
      </trkpt>
      <trkpt lat="36.8071855232" lon="-2.2316142451">
        <ele>13.12</ele>
        <time>2018-11-05T09:46:56Z</time>
      </trkpt>
      <trkpt lat="36.8068748899" lon="-2.2314497083">
        <ele>13.60</ele>
        <time>2018-11-05T09:47:03Z</time>
      </trkpt>
      <trkpt lat="36.8062931020" lon="-2.2311540786">
        <ele>13.60</ele>
        <time>2018-11-05T09:47:15Z</time>
      </trkpt>
      <trkpt lat="36.8057193607" lon="-2.2308706027">
        <ele>13.60</ele>
        <time>2018-11-05T09:47:26Z</time>
      </trkpt>
      <trkpt lat="36.8051241618" lon="-2.2306474764">
        <ele>13.60</ele>
        <time>2018-11-05T09:47:37Z</time>
      </trkpt>
      <trkpt lat="36.8044510949" lon="-2.2304985300">
        <ele>13.12</ele>
        <time>2018-11-05T09:47:49Z</time>
      </trkpt>
      <trkpt lat="36.8039777689" lon="-2.2304054908">
        <ele>12.63</ele>
        <time>2018-11-05T09:47:57Z</time>
      </trkpt>
      <trkpt lat="36.8035103101" lon="-2.2304363362">
        <ele>12.63</ele>
        <time>2018-11-05T09:48:05Z</time>
      </trkpt>
      <trkpt lat="36.8030123413" lon="-2.2305604722">
        <ele>12.15</ele>
        <time>2018-11-05T09:48:14Z</time>
      </trkpt>
      <trkpt lat="36.8025867920" lon="-2.2306797467">
        <ele>12.15</ele>
        <time>2018-11-05T09:48:22Z</time>
      </trkpt>
      <trkpt lat="36.8020043336" lon="-2.2308440320">
        <ele>12.15</ele>
        <time>2018-11-05T09:48:33Z</time>
      </trkpt>
      <trkpt lat="36.8015216198" lon="-2.2310136817">
        <ele>11.67</ele>
        <time>2018-11-05T09:48:43Z</time>
      </trkpt>
      <trkpt lat="36.8009663187" lon="-2.2312332038">
        <ele>11.19</ele>
        <time>2018-11-05T09:48:54Z</time>
      </trkpt>
      <trkpt lat="36.8003800884" lon="-2.2314676456">
        <ele>10.71</ele>
        <time>2018-11-05T09:49:05Z</time>
      </trkpt>
      <trkpt lat="36.7997977976" lon="-2.2316962201">
        <ele>10.23</ele>
        <time>2018-11-05T09:49:16Z</time>
      </trkpt>
      <trkpt lat="36.7992626131" lon="-2.2319148201">
        <ele>9.75</ele>
        <time>2018-11-05T09:49:26Z</time>
      </trkpt>
      <trkpt lat="36.7987685837" lon="-2.2321246192">
        <ele>9.75</ele>
        <time>2018-11-05T09:49:36Z</time>
      </trkpt>
      <trkpt lat="36.7983093392" lon="-2.2322306503">
        <ele>9.27</ele>
        <time>2018-11-05T09:49:45Z</time>
      </trkpt>
      <trkpt lat="36.7977331672" lon="-2.2322423011">
        <ele>9.27</ele>
        <time>2018-11-05T09:49:56Z</time>
      </trkpt>
      <trkpt lat="36.7971738428" lon="-2.2322550416">
        <ele>9.27</ele>
        <time>2018-11-05T09:50:07Z</time>
      </trkpt>
      <trkpt lat="36.7966922186" lon="-2.2322598193">
        <ele>9.27</ele>
        <time>2018-11-05T09:50:17Z</time>
      </trkpt>
      <trkpt lat="36.7964415159" lon="-2.2322521918">
        <ele>8.79</ele>
        <time>2018-11-05T09:50:22Z</time>
      </trkpt>
      <trkpt lat="36.7962866183" lon="-2.2322096955">
        <ele>8.79</ele>
        <time>2018-11-05T09:50:25Z</time>
      </trkpt>
      <trkpt lat="36.7962418590" lon="-2.2321873996">
        <ele>8.79</ele>
        <time>2018-11-05T09:50:26Z</time>
      </trkpt>
      <trkpt lat="36.7960271984" lon="-2.2320373636">
        <ele>8.79</ele>
        <time>2018-11-05T09:50:31Z</time>
      </trkpt>
      <trkpt lat="36.7957285512" lon="-2.2317168396">
        <ele>8.31</ele>
        <time>2018-11-05T09:50:40Z</time>
      </trkpt>
      <trkpt lat="36.7955299001" lon="-2.2315191943">
        <ele>9.27</ele>
        <time>2018-11-05T09:50:47Z</time>
      </trkpt>
      <trkpt lat="36.7955016531" lon="-2.2315038554">
        <ele>9.27</ele>
        <time>2018-11-05T09:50:49Z</time>
      </trkpt>
      <trkpt lat="36.7954893317" lon="-2.2315134108">
        <ele>9.27</ele>
        <time>2018-11-05T09:50:50Z</time>
      </trkpt>
      <trkpt lat="36.7954808660" lon="-2.2315240558">
        <ele>8.79</ele>
        <time>2018-11-05T09:50:51Z</time>
      </trkpt>
      <trkpt lat="36.7954791896" lon="-2.2315323539">
        <ele>8.31</ele>
        <time>2018-11-05T09:50:58Z</time>
      </trkpt>
      <trkpt lat="36.7954494338" lon="-2.2315081302">
        <ele>7.35</ele>
        <time>2018-11-05T09:51:04Z</time>
      </trkpt>
      <trkpt lat="36.7954080272" lon="-2.2314526420">
        <ele>9.27</ele>
        <time>2018-11-05T09:51:11Z</time>
      </trkpt>
      <trkpt lat="36.7954138108" lon="-2.2314437572">
        <ele>10.23</ele>
        <time>2018-11-05T09:51:19Z</time>
      </trkpt>
      <trkpt lat="36.7954231985" lon="-2.2314356267">
        <ele>12.63</ele>
        <time>2018-11-05T09:51:35Z</time>
      </trkpt>
      <trkpt lat="36.7954272218" lon="-2.2314335313">
        <ele>14.08</ele>
        <time>2018-11-05T09:51:52Z</time>
      </trkpt>
      <trkpt lat="36.7954164930" lon="-2.2314367164">
        <ele>14.56</ele>
        <time>2018-11-05T09:52:08Z</time>
      </trkpt>
      <trkpt lat="36.7954208516" lon="-2.2314414103">
        <ele>15.52</ele>
        <time>2018-11-05T09:52:22Z</time>
      </trkpt>
      <trkpt lat="36.7954249587" lon="-2.2314475290">
        <ele>16.48</ele>
        <time>2018-11-05T09:52:36Z</time>
      </trkpt>
      <trkpt lat="36.7954196781" lon="-2.2314435057">
        <ele>16.48</ele>
        <time>2018-11-05T09:52:58Z</time>
      </trkpt>
      <trkpt lat="36.7954204325" lon="-2.2314479481">
        <ele>16.48</ele>
        <time>2018-11-05T09:53:17Z</time>
      </trkpt>
      <trkpt lat="36.7954114638" lon="-2.2314520553">
        <ele>16.00</ele>
        <time>2018-11-05T09:53:35Z</time>
      </trkpt>
      <trkpt lat="36.7954102904" lon="-2.2314541508">
        <ele>16.00</ele>
        <time>2018-11-05T09:53:51Z</time>
      </trkpt>
      <trkpt lat="36.7954141460" lon="-2.2314601019">
        <ele>15.04</ele>
        <time>2018-11-05T09:54:09Z</time>
      </trkpt>
      <trkpt lat="36.7954155710" lon="-2.2314637061">
        <ele>15.04</ele>
        <time>2018-11-05T09:54:24Z</time>
      </trkpt>
      <trkpt lat="36.7954150680" lon="-2.2314635385">
        <ele>15.52</ele>
        <time>2018-11-05T09:54:38Z</time>
      </trkpt>
      <trkpt lat="36.7954180855" lon="-2.2314649634">
        <ele>14.08</ele>
        <time>2018-11-05T09:54:53Z</time>
      </trkpt>
      <trkpt lat="36.7954241205" lon="-2.2314698249">
        <ele>12.63</ele>
        <time>2018-11-05T09:55:09Z</time>
      </trkpt>
      <trkpt lat="36.7954260483" lon="-2.2314667236">
        <ele>11.67</ele>
        <time>2018-11-05T09:55:23Z</time>
      </trkpt>
      <trkpt lat="36.7954304907" lon="-2.2314596828">
        <ele>11.67</ele>
        <time>2018-11-05T09:55:40Z</time>
      </trkpt>
      <trkpt lat="36.7954326700" lon="-2.2314602695">
        <ele>12.15</ele>
        <time>2018-11-05T09:55:54Z</time>
      </trkpt>
      <trkpt lat="36.7954300717" lon="-2.2314606048">
        <ele>12.15</ele>
        <time>2018-11-05T09:56:07Z</time>
      </trkpt>
      <trkpt lat="36.7954288144" lon="-2.2314568330">
        <ele>11.67</ele>
        <time>2018-11-05T09:56:32Z</time>
      </trkpt>
      <trkpt lat="36.7954335921" lon="-2.2314595152">
        <ele>12.63</ele>
        <time>2018-11-05T09:56:48Z</time>
      </trkpt>
      <trkpt lat="36.7954342626" lon="-2.2314519715">
        <ele>13.60</ele>
        <time>2018-11-05T09:57:05Z</time>
      </trkpt>
      <trkpt lat="36.7954329215" lon="-2.2314606886">
        <ele>13.60</ele>
        <time>2018-11-05T09:57:23Z</time>
      </trkpt>
      <trkpt lat="36.7954361066" lon="-2.2314713337">
        <ele>12.63</ele>
        <time>2018-11-05T09:57:42Z</time>
      </trkpt>
      <trkpt lat="36.7954413034" lon="-2.2314704116">
        <ele>11.67</ele>
        <time>2018-11-05T09:57:58Z</time>
      </trkpt>
      <trkpt lat="36.7954465002" lon="-2.2314773686">
        <ele>11.19</ele>
        <time>2018-11-05T09:58:11Z</time>
      </trkpt>
      <trkpt lat="36.7954494338" lon="-2.2314789612">
        <ele>12.15</ele>
        <time>2018-11-05T09:58:27Z</time>
      </trkpt>
      <trkpt lat="36.7954505235" lon="-2.2314712498">
        <ele>13.60</ele>
        <time>2018-11-05T09:58:45Z</time>
      </trkpt>
      <trkpt lat="36.7954360228" lon="-2.2314606886">
        <ele>14.08</ele>
        <time>2018-11-05T09:59:13Z</time>
      </trkpt>
      <trkpt lat="36.7954209354" lon="-2.2314547375">
        <ele>12.63</ele>
        <time>2018-11-05T09:59:30Z</time>
      </trkpt>
      <trkpt lat="36.7954141460" lon="-2.2314533126">
        <ele>11.67</ele>
        <time>2018-11-05T09:59:45Z</time>
      </trkpt>
      <trkpt lat="36.7954180017" lon="-2.2314479481">
        <ele>12.15</ele>
        <time>2018-11-05T09:59:59Z</time>
      </trkpt>
      <trkpt lat="36.7954133917" lon="-2.2314471100">
        <ele>12.15</ele>
        <time>2018-11-05T10:00:11Z</time>
      </trkpt>
      <trkpt lat="36.7954100389" lon="-2.2314443439">
        <ele>12.63</ele>
        <time>2018-11-05T10:00:24Z</time>
      </trkpt>
      <trkpt lat="36.7954128888" lon="-2.2314502951">
        <ele>13.60</ele>
        <time>2018-11-05T10:00:46Z</time>
      </trkpt>
      <trkpt lat="36.7954195105" lon="-2.2314493731">
        <ele>14.08</ele>
        <time>2018-11-05T10:01:00Z</time>
      </trkpt>
      <trkpt lat="36.7954245396" lon="-2.2314490378">
        <ele>15.04</ele>
        <time>2018-11-05T10:01:16Z</time>
      </trkpt>
      <trkpt lat="36.7954283115" lon="-2.2314499598">
        <ele>15.04</ele>
        <time>2018-11-05T10:01:33Z</time>
      </trkpt>
      <trkpt lat="36.7954295687" lon="-2.2314445954">
        <ele>15.04</ele>
        <time>2018-11-05T10:01:51Z</time>
      </trkpt>
      <trkpt lat="36.7954346817" lon="-2.2314442601">
        <ele>16.00</ele>
        <time>2018-11-05T10:02:10Z</time>
      </trkpt>
      <trkpt lat="36.7954402138" lon="-2.2314466909">
        <ele>17.92</ele>
        <time>2018-11-05T10:02:34Z</time>
      </trkpt>
      <trkpt lat="36.7954402976" lon="-2.2314480320">
        <ele>18.88</ele>
        <time>2018-11-05T10:02:47Z</time>
      </trkpt>
      <trkpt lat="36.7954373639" lon="-2.2314463556">
        <ele>18.88</ele>
        <time>2018-11-05T10:03:02Z</time>
      </trkpt>
      <trkpt lat="36.7954296526" lon="-2.2314430866">
        <ele>17.44</ele>
        <time>2018-11-05T10:03:21Z</time>
      </trkpt>
      <trkpt lat="36.7954311613" lon="-2.2314440086">
        <ele>16.96</ele>
        <time>2018-11-05T10:03:40Z</time>
      </trkpt>
      <trkpt lat="36.7954236176" lon="-2.2314414941">
        <ele>16.00</ele>
        <time>2018-11-05T10:03:58Z</time>
      </trkpt>
      <trkpt lat="36.7954212707" lon="-2.2314395662">
        <ele>15.04</ele>
        <time>2018-11-05T10:04:16Z</time>
      </trkpt>
      <trkpt lat="36.7954270542" lon="-2.2314413264">
        <ele>16.00</ele>
        <time>2018-11-05T10:04:28Z</time>
      </trkpt>
      <trkpt lat="36.7954329215" lon="-2.2314380575">
        <ele>16.48</ele>
        <time>2018-11-05T10:04:45Z</time>
      </trkpt>
      <trkpt lat="36.7954500206" lon="-2.2314344533">
        <ele>17.92</ele>
        <time>2018-11-05T10:04:59Z</time>
      </trkpt>
      <trkpt lat="36.7954641860" lon="-2.2314300109">
        <ele>19.84</ele>
        <time>2018-11-05T10:05:19Z</time>
      </trkpt>
      <trkpt lat="36.7954671197" lon="-2.2314307652">
        <ele>20.81</ele>
        <time>2018-11-05T10:05:39Z</time>
      </trkpt>
      <trkpt lat="36.7954665329" lon="-2.2314299271">
        <ele>20.81</ele>
        <time>2018-11-05T10:05:49Z</time>
      </trkpt>
      <trkpt lat="36.7954742443" lon="-2.2314383928">
        <ele>21.77</ele>
        <time>2018-11-05T10:06:11Z</time>
      </trkpt>
      <trkpt lat="36.7954753339" lon="-2.2314379737">
        <ele>20.81</ele>
        <time>2018-11-05T10:06:30Z</time>
      </trkpt>
      <trkpt lat="36.7954753339" lon="-2.2314446792">
        <ele>20.32</ele>
        <time>2018-11-05T10:06:43Z</time>
      </trkpt>
      <trkpt lat="36.7954705562" lon="-2.2314493731">
        <ele>19.84</ele>
        <time>2018-11-05T10:06:53Z</time>
      </trkpt>
      <trkpt lat="36.7954613362" lon="-2.2314571682">
        <ele>18.40</ele>
        <time>2018-11-05T10:07:14Z</time>
      </trkpt>
      <trkpt lat="36.7954475898" lon="-2.2314606886">
        <ele>16.96</ele>
        <time>2018-11-05T10:07:30Z</time>
      </trkpt>
      <trkpt lat="36.7954353523" lon="-2.2314747702">
        <ele>16.00</ele>
        <time>2018-11-05T10:07:49Z</time>
      </trkpt>
      <trkpt lat="36.7954346817" lon="-2.2314774524">
        <ele>16.00</ele>
        <time>2018-11-05T10:08:06Z</time>
      </trkpt>
      <trkpt lat="36.7954306584" lon="-2.2314656340">
        <ele>16.00</ele>
        <time>2018-11-05T10:08:25Z</time>
      </trkpt>
      <trkpt lat="36.7954283953" lon="-2.2314604372">
        <ele>15.52</ele>
        <time>2018-11-05T10:08:43Z</time>
      </trkpt>
      <trkpt lat="36.7954266351" lon="-2.2314536478">
        <ele>15.52</ele>
        <time>2018-11-05T10:09:01Z</time>
      </trkpt>
      <trkpt lat="36.7954294011" lon="-2.2314450145">
        <ele>15.52</ele>
        <time>2018-11-05T10:09:14Z</time>
      </trkpt>
      <trkpt lat="36.7954330053" lon="-2.2314387280">
        <ele>16.00</ele>
        <time>2018-11-05T10:09:32Z</time>
      </trkpt>
      <trkpt lat="36.7954349332" lon="-2.2314332798">
        <ele>16.48</ele>
        <time>2018-11-05T10:09:48Z</time>
      </trkpt>
      <trkpt lat="36.7954329215" lon="-2.2314295918">
        <ele>17.44</ele>
        <time>2018-11-05T10:10:02Z</time>
      </trkpt>
      <trkpt lat="36.7954330053" lon="-2.2314308491">
        <ele>18.88</ele>
        <time>2018-11-05T10:10:19Z</time>
      </trkpt>
      <trkpt lat="36.7954288144" lon="-2.2314388119">
        <ele>17.92</ele>
        <time>2018-11-05T10:10:39Z</time>
      </trkpt>
      <trkpt lat="36.7954317480" lon="-2.2314361297">
        <ele>17.92</ele>
        <time>2018-11-05T10:10:55Z</time>
      </trkpt>
      <trkpt lat="36.7954222765" lon="-2.2314317711">
        <ele>17.92</ele>
        <time>2018-11-05T10:11:15Z</time>
      </trkpt>
      <trkpt lat="36.7954270542" lon="-2.2314346209">
        <ele>17.44</ele>
        <time>2018-11-05T10:11:36Z</time>
      </trkpt>
      <trkpt lat="36.7954319157" lon="-2.2314356267">
        <ele>16.48</ele>
        <time>2018-11-05T10:11:53Z</time>
      </trkpt>
      <trkpt lat="36.7954320833" lon="-2.2314397339">
        <ele>16.00</ele>
        <time>2018-11-05T10:12:11Z</time>
      </trkpt>
      <trkpt lat="36.7954354361" lon="-2.2314408235">
        <ele>15.52</ele>
        <time>2018-11-05T10:12:27Z</time>
      </trkpt>
      <trkpt lat="36.7954314966" lon="-2.2314462718">
        <ele>15.04</ele>
        <time>2018-11-05T10:12:41Z</time>
      </trkpt>
      <trkpt lat="36.7954298202" lon="-2.2314490378">
        <ele>14.56</ele>
        <time>2018-11-05T10:12:58Z</time>
      </trkpt>
      <trkpt lat="36.7954312451" lon="-2.2314473614">
        <ele>14.56</ele>
        <time>2018-11-05T10:13:16Z</time>
      </trkpt>
      <trkpt lat="36.7954336759" lon="-2.2314297594">
        <ele>14.08</ele>
        <time>2018-11-05T10:13:34Z</time>
      </trkpt>
      <trkpt lat="36.7954347655" lon="-2.2314252332">
        <ele>12.63</ele>
        <time>2018-11-05T10:13:56Z</time>
      </trkpt>
      <trkpt lat="36.7954264674" lon="-2.2314266581">
        <ele>11.19</ele>
        <time>2018-11-05T10:14:15Z</time>
      </trkpt>
      <trkpt lat="36.7954170797" lon="-2.2314233892">
        <ele>12.15</ele>
        <time>2018-11-05T10:14:32Z</time>
      </trkpt>
      <trkpt lat="36.7954071052" lon="-2.2314272448">
        <ele>11.67</ele>
        <time>2018-11-05T10:14:54Z</time>
      </trkpt>
      <trkpt lat="36.7954043392" lon="-2.2314303461">
        <ele>11.67</ele>
        <time>2018-11-05T10:15:10Z</time>
      </trkpt>
      <trkpt lat="36.7954035848" lon="-2.2314269934">
        <ele>12.15</ele>
        <time>2018-11-05T10:15:28Z</time>
      </trkpt>
      <trkpt lat="36.7954105418" lon="-2.2314243112">
        <ele>12.63</ele>
        <time>2018-11-05T10:15:53Z</time>
      </trkpt>
      <trkpt lat="36.7954171635" lon="-2.2314241435">
        <ele>14.08</ele>
        <time>2018-11-05T10:16:13Z</time>
      </trkpt>
      <trkpt lat="36.7954159901" lon="-2.2314227186">
        <ele>14.56</ele>
        <time>2018-11-05T10:16:29Z</time>
      </trkpt>
      <trkpt lat="36.7954158224" lon="-2.2314292565">
        <ele>14.56</ele>
        <time>2018-11-05T10:16:46Z</time>
      </trkpt>
      <trkpt lat="36.7954139784" lon="-2.2314357944">
        <ele>14.56</ele>
        <time>2018-11-05T10:17:05Z</time>
      </trkpt>
      <trkpt lat="36.7954138108" lon="-2.2314368002">
        <ele>14.08</ele>
        <time>2018-11-05T10:17:21Z</time>
      </trkpt>
      <trkpt lat="36.7954092845" lon="-2.2314343695">
        <ele>13.60</ele>
        <time>2018-11-05T10:17:39Z</time>
      </trkpt>
      <trkpt lat="36.7954127211" lon="-2.2314402368">
        <ele>14.56</ele>
        <time>2018-11-05T10:17:55Z</time>
      </trkpt>
      <trkpt lat="36.7954174150" lon="-2.2314361297">
        <ele>14.08</ele>
        <time>2018-11-05T10:18:14Z</time>
      </trkpt>
      <trkpt lat="36.7954277247" lon="-2.2314367164">
        <ele>14.56</ele>
        <time>2018-11-05T10:18:30Z</time>
      </trkpt>
      <trkpt lat="36.7954299878" lon="-2.2314300947">
        <ele>14.56</ele>
        <time>2018-11-05T10:18:46Z</time>
      </trkpt>
      <trkpt lat="36.7954270542" lon="-2.2314261552">
        <ele>14.08</ele>
        <time>2018-11-05T10:19:03Z</time>
      </trkpt>
      <trkpt lat="36.7954351008" lon="-2.2314363811">
        <ele>15.04</ele>
        <time>2018-11-05T10:19:23Z</time>
      </trkpt>
      <trkpt lat="36.7954303231" lon="-2.2314336151">
        <ele>15.04</ele>
        <time>2018-11-05T10:19:38Z</time>
      </trkpt>
      <trkpt lat="36.7954276409" lon="-2.2314303461">
        <ele>13.60</ele>
        <time>2018-11-05T10:19:57Z</time>
      </trkpt>
      <trkpt lat="36.7954283115" lon="-2.2314357944">
        <ele>12.63</ele>
        <time>2018-11-05T10:20:16Z</time>
      </trkpt>
      <trkpt lat="36.7954226956" lon="-2.2314308491">
        <ele>12.63</ele>
        <time>2018-11-05T10:20:38Z</time>
      </trkpt>
      <trkpt lat="36.7954202648" lon="-2.2314241435">
        <ele>12.63</ele>
        <time>2018-11-05T10:20:58Z</time>
      </trkpt>
      <trkpt lat="36.7954218574" lon="-2.2314254008">
        <ele>13.12</ele>
        <time>2018-11-05T10:21:14Z</time>
      </trkpt>
      <trkpt lat="36.7954264674" lon="-2.2314300947">
        <ele>12.63</ele>
        <time>2018-11-05T10:21:32Z</time>
      </trkpt>
      <trkpt lat="36.7954346817" lon="-2.2314275801">
        <ele>12.63</ele>
        <time>2018-11-05T10:21:50Z</time>
      </trkpt>
      <trkpt lat="36.7954394594" lon="-2.2314200364">
        <ele>12.15</ele>
        <time>2018-11-05T10:22:03Z</time>
      </trkpt>
      <trkpt lat="36.7954492662" lon="-2.2314175218">
        <ele>12.15</ele>
        <time>2018-11-05T10:22:19Z</time>
      </trkpt>
      <trkpt lat="36.7954468355" lon="-2.2314119060">
        <ele>12.15</ele>
        <time>2018-11-05T10:22:42Z</time>
      </trkpt>
      <trkpt lat="36.7954402138" lon="-2.2314178571">
        <ele>11.67</ele>
        <time>2018-11-05T10:23:12Z</time>
      </trkpt>
      <trkpt lat="36.7954376154" lon="-2.2314157616">
        <ele>11.67</ele>
        <time>2018-11-05T10:23:37Z</time>
      </trkpt>
      <trkpt lat="36.7954382859" lon="-2.2314176057">
        <ele>11.67</ele>
        <time>2018-11-05T10:23:53Z</time>
      </trkpt>
      <trkpt lat="36.7954433989" lon="-2.2314060386">
        <ele>12.15</ele>
        <time>2018-11-05T10:24:19Z</time>
      </trkpt>
      <trkpt lat="36.7954396270" lon="-2.2313988302">
        <ele>10.71</ele>
        <time>2018-11-05T10:24:35Z</time>
      </trkpt>
      <trkpt lat="36.7954422254" lon="-2.2314053681">
        <ele>11.19</ele>
        <time>2018-11-05T10:24:54Z</time>
      </trkpt>
      <trkpt lat="36.7954388727" lon="-2.2314134985">
        <ele>12.15</ele>
        <time>2018-11-05T10:25:08Z</time>
      </trkpt>
      <trkpt lat="36.7954289820" lon="-2.2314277478">
        <ele>12.63</ele>
        <time>2018-11-05T10:25:23Z</time>
      </trkpt>
      <trkpt lat="36.7954299878" lon="-2.2314307652">
        <ele>12.15</ele>
        <time>2018-11-05T10:25:45Z</time>
      </trkpt>
      <trkpt lat="36.7954360228" lon="-2.2314284183">
        <ele>12.15</ele>
        <time>2018-11-05T10:26:02Z</time>
      </trkpt>
      <trkpt lat="36.7954354361" lon="-2.2314185277">
        <ele>12.15</ele>
        <time>2018-11-05T10:26:18Z</time>
      </trkpt>
      <trkpt lat="36.7954401299" lon="-2.2314118221">
        <ele>13.12</ele>
        <time>2018-11-05T10:26:33Z</time>
      </trkpt>
      <trkpt lat="36.7954433151" lon="-2.2314201202">
        <ele>14.56</ele>
        <time>2018-11-05T10:26:55Z</time>
      </trkpt>
      <trkpt lat="36.7954439018" lon="-2.2314238083">
        <ele>15.04</ele>
        <time>2018-11-05T10:27:10Z</time>
      </trkpt>
      <trkpt lat="36.7954463325" lon="-2.2314412426">
        <ele>16.96</ele>
        <time>2018-11-05T10:27:28Z</time>
      </trkpt>
      <trkpt lat="36.7954467516" lon="-2.2314450145">
        <ele>17.44</ele>
        <time>2018-11-05T10:27:49Z</time>
      </trkpt>
      <trkpt lat="36.7954368610" lon="-2.2314448468">
        <ele>16.48</ele>
        <time>2018-11-05T10:28:09Z</time>
      </trkpt>
      <trkpt lat="36.7954308260" lon="-2.2314490378">
        <ele>16.00</ele>
        <time>2018-11-05T10:28:30Z</time>
      </trkpt>
      <trkpt lat="36.7954222765" lon="-2.2314518876">
        <ele>15.52</ele>
        <time>2018-11-05T10:28:51Z</time>
      </trkpt>
      <trkpt lat="36.7954268027" lon="-2.2314540669">
        <ele>15.04</ele>
        <time>2018-11-05T10:29:15Z</time>
      </trkpt>
      <trkpt lat="36.7954364419" lon="-2.2314546537">
        <ele>15.04</ele>
        <time>2018-11-05T10:29:29Z</time>
      </trkpt>
      <trkpt lat="36.7954385374" lon="-2.2314575035">
        <ele>15.52</ele>
        <time>2018-11-05T10:29:47Z</time>
      </trkpt>
      <trkpt lat="36.7954371963" lon="-2.2314596828">
        <ele>16.00</ele>
        <time>2018-11-05T10:29:57Z</time>
      </trkpt>
      <trkpt lat="36.7954317480" lon="-2.2314514685">
        <ele>15.04</ele>
        <time>2018-11-05T10:30:21Z</time>
      </trkpt>
      <trkpt lat="36.7954355199" lon="-2.2314526420">
        <ele>14.56</ele>
        <time>2018-11-05T10:30:41Z</time>
      </trkpt>
      <trkpt lat="36.7954288144" lon="-2.2314524744">
        <ele>13.12</ele>
        <time>2018-11-05T10:31:05Z</time>
      </trkpt>
      <trkpt lat="36.7954281438" lon="-2.2314473614">
        <ele>13.12</ele>
        <time>2018-11-05T10:31:28Z</time>
      </trkpt>
      <trkpt lat="36.7954189237" lon="-2.2314443439">
        <ele>12.15</ele>
        <time>2018-11-05T10:31:48Z</time>
      </trkpt>
      <trkpt lat="36.7954266351" lon="-2.2314407397">
        <ele>12.15</ele>
        <time>2018-11-05T10:32:10Z</time>
      </trkpt>
      <trkpt lat="36.7954379506" lon="-2.2314335313">
        <ele>13.12</ele>
        <time>2018-11-05T10:32:32Z</time>
      </trkpt>
      <trkpt lat="36.7954423930" lon="-2.2314287536">
        <ele>14.08</ele>
        <time>2018-11-05T10:32:59Z</time>
      </trkpt>
      <trkpt lat="36.7954373639" lon="-2.2314231377">
        <ele>13.60</ele>
        <time>2018-11-05T10:33:22Z</time>
      </trkpt>
      <trkpt lat="36.7954398785" lon="-2.2314321902">
        <ele>14.08</ele>
        <time>2018-11-05T10:33:42Z</time>
      </trkpt>
      <trkpt lat="36.7954294849" lon="-2.2314391471">
        <ele>13.60</ele>
        <time>2018-11-05T10:34:02Z</time>
      </trkpt>
      <trkpt lat="36.7954266351" lon="-2.2314367164">
        <ele>12.63</ele>
        <time>2018-11-05T10:34:20Z</time>
      </trkpt>
      <trkpt lat="36.7954119667" lon="-2.2314332798">
        <ele>11.19</ele>
        <time>2018-11-05T10:34:42Z</time>
      </trkpt>
      <trkpt lat="36.7954053450" lon="-2.2314352915">
        <ele>11.67</ele>
        <time>2018-11-05T10:35:01Z</time>
      </trkpt>
      <trkpt lat="36.7954174988" lon="-2.2314462718">
        <ele>11.67</ele>
        <time>2018-11-05T10:35:26Z</time>
      </trkpt>
      <trkpt lat="36.7954143137" lon="-2.2314505465">
        <ele>11.67</ele>
        <time>2018-11-05T10:35:46Z</time>
      </trkpt>
      <trkpt lat="36.7954185884" lon="-2.2314478643">
        <ele>12.15</ele>
        <time>2018-11-05T10:36:08Z</time>
      </trkpt>
      <trkpt lat="36.7954299040" lon="-2.2314260714">
        <ele>12.63</ele>
        <time>2018-11-05T10:36:39Z</time>
      </trkpt>
      <trkpt lat="36.7954319995" lon="-2.2314136662">
        <ele>13.60</ele>
        <time>2018-11-05T10:37:05Z</time>
      </trkpt>
      <trkpt lat="36.7954237014" lon="-2.2314024344">
        <ele>13.12</ele>
        <time>2018-11-05T10:37:29Z</time>
      </trkpt>
      <trkpt lat="36.7954170797" lon="-2.2314098943">
        <ele>13.60</ele>
        <time>2018-11-05T10:37:47Z</time>
      </trkpt>
      <trkpt lat="36.7954182532" lon="-2.2314151749">
        <ele>14.08</ele>
        <time>2018-11-05T10:37:55Z</time>
      </trkpt>
      <trkpt lat="36.7954221927" lon="-2.2314223833">
        <ele>14.56</ele>
        <time>2018-11-05T10:38:05Z</time>
      </trkpt>
      <trkpt lat="36.7954273056" lon="-2.2314177733">
        <ele>15.04</ele>
        <time>2018-11-05T10:38:16Z</time>
      </trkpt>
      <trkpt lat="36.7954273056" lon="-2.2314069606">
        <ele>15.04</ele>
        <time>2018-11-05T10:38:26Z</time>
      </trkpt>
      <trkpt lat="36.7954237014" lon="-2.2314085532">
        <ele>15.52</ele>
        <time>2018-11-05T10:38:37Z</time>
      </trkpt>
      <trkpt lat="36.7954077758" lon="-2.2314097267">
        <ele>15.52</ele>
        <time>2018-11-05T10:38:51Z</time>
      </trkpt>
      <trkpt lat="36.7954094522" lon="-2.2314064577">
        <ele>14.56</ele>
        <time>2018-11-05T10:39:01Z</time>
      </trkpt>
      <trkpt lat="36.7954067700" lon="-2.2314044461">
        <ele>14.56</ele>
        <time>2018-11-05T10:39:19Z</time>
      </trkpt>
      <trkpt lat="36.7954066861" lon="-2.2313966509">
        <ele>14.56</ele>
        <time>2018-11-05T10:39:20Z</time>
      </trkpt>
      <trkpt lat="36.7954045068" lon="-2.2313837428">
        <ele>14.08</ele>
        <time>2018-11-05T10:39:21Z</time>
      </trkpt>
      <trkpt lat="36.7953258846" lon="-2.2312719282">
        <ele>14.56</ele>
        <time>2018-11-05T10:39:29Z</time>
      </trkpt>
      <trkpt lat="36.7951418180" lon="-2.2311213054">
        <ele>15.04</ele>
        <time>2018-11-05T10:39:39Z</time>
      </trkpt>
      <trkpt lat="36.7948598508" lon="-2.2309365682">
        <ele>13.60</ele>
        <time>2018-11-05T10:39:50Z</time>
      </trkpt>
      <trkpt lat="36.7946435977" lon="-2.2308020387">
        <ele>11.67</ele>
        <time>2018-11-05T10:39:58Z</time>
      </trkpt>
      <trkpt lat="36.7942953296" lon="-2.2306406870">
        <ele>9.75</ele>
        <time>2018-11-05T10:40:09Z</time>
      </trkpt>
      <trkpt lat="36.7941515800" lon="-2.2305762302">
        <ele>9.75</ele>
        <time>2018-11-05T10:40:13Z</time>
      </trkpt>
      <trkpt lat="36.7937704548" lon="-2.2303789202">
        <ele>10.23</ele>
        <time>2018-11-05T10:40:23Z</time>
      </trkpt>
      <trkpt lat="36.7932554707" lon="-2.2301276308">
        <ele>10.71</ele>
        <time>2018-11-05T10:40:36Z</time>
      </trkpt>
      <trkpt lat="36.7927990761" lon="-2.2299144790">
        <ele>11.67</ele>
        <time>2018-11-05T10:40:47Z</time>
      </trkpt>
      <trkpt lat="36.7923483811" lon="-2.2296952922">
        <ele>12.15</ele>
        <time>2018-11-05T10:40:57Z</time>
      </trkpt>
      <trkpt lat="36.7917489074" lon="-2.2294217907">
        <ele>12.15</ele>
        <time>2018-11-05T10:41:10Z</time>
      </trkpt>
      <trkpt lat="36.7911981326" lon="-2.2291746084">
        <ele>11.67</ele>
        <time>2018-11-05T10:41:22Z</time>
      </trkpt>
      <trkpt lat="36.7906233855" lon="-2.2289158590">
        <ele>12.15</ele>
        <time>2018-11-05T10:41:34Z</time>
      </trkpt>
      <trkpt lat="36.7899290286" lon="-2.2286032978">
        <ele>11.67</ele>
        <time>2018-11-05T10:41:48Z</time>
      </trkpt>
      <trkpt lat="36.7892972846" lon="-2.2283239290">
        <ele>12.15</ele>
        <time>2018-11-05T10:42:01Z</time>
      </trkpt>
      <trkpt lat="36.7887925263" lon="-2.2281016409">
        <ele>12.63</ele>
        <time>2018-11-05T10:42:12Z</time>
      </trkpt>
      <trkpt lat="36.7882136721" lon="-2.2278434783">
        <ele>12.15</ele>
        <time>2018-11-05T10:42:25Z</time>
      </trkpt>
      <trkpt lat="36.7875906453" lon="-2.2275644448">
        <ele>11.19</ele>
        <time>2018-11-05T10:42:38Z</time>
      </trkpt>
      <trkpt lat="36.7870224360" lon="-2.2273122333">
        <ele>11.67</ele>
        <time>2018-11-05T10:42:50Z</time>
      </trkpt>
      <trkpt lat="36.7864159215" lon="-2.2270487063">
        <ele>11.67</ele>
        <time>2018-11-05T10:43:03Z</time>
      </trkpt>
      <trkpt lat="36.7858850118" lon="-2.2268103249">
        <ele>11.67</ele>
        <time>2018-11-05T10:43:15Z</time>
      </trkpt>
      <trkpt lat="36.7852577101" lon="-2.2265430260">
        <ele>11.67</ele>
        <time>2018-11-05T10:43:29Z</time>
      </trkpt>
      <trkpt lat="36.7848195881" lon="-2.2263504937">
        <ele>13.12</ele>
        <time>2018-11-05T10:43:40Z</time>
      </trkpt>
      <trkpt lat="36.7843815498" lon="-2.2261577100">
        <ele>13.60</ele>
        <time>2018-11-05T10:43:51Z</time>
      </trkpt>
      <trkpt lat="36.7838895321" lon="-2.2259300575">
        <ele>11.67</ele>
        <time>2018-11-05T10:44:02Z</time>
      </trkpt>
      <trkpt lat="36.7833501566" lon="-2.2256811988">
        <ele>11.19</ele>
        <time>2018-11-05T10:44:14Z</time>
      </trkpt>
      <trkpt lat="36.7828334123" lon="-2.2254634369">
        <ele>10.71</ele>
        <time>2018-11-05T10:44:25Z</time>
      </trkpt>
      <trkpt lat="36.7823734134" lon="-2.2253388818">
        <ele>9.75</ele>
        <time>2018-11-05T10:44:35Z</time>
      </trkpt>
      <trkpt lat="36.7820063699" lon="-2.2253533825">
        <ele>8.79</ele>
        <time>2018-11-05T10:44:43Z</time>
      </trkpt>
      <trkpt lat="36.7815244943" lon="-2.2254636884">
        <ele>7.83</ele>
        <time>2018-11-05T10:44:53Z</time>
      </trkpt>
      <trkpt lat="36.7814803217" lon="-2.2254916839">
        <ele>7.35</ele>
        <time>2018-11-05T10:44:54Z</time>
      </trkpt>
      <trkpt lat="36.7814431060" lon="-2.2255226132">
        <ele>7.35</ele>
        <time>2018-11-05T10:44:55Z</time>
      </trkpt>
      <trkpt lat="36.7811064050" lon="-2.2258787602">
        <ele>7.35</ele>
        <time>2018-11-05T10:45:04Z</time>
      </trkpt>
      <trkpt lat="36.7805972882" lon="-2.2263654973">
        <ele>6.39</ele>
        <time>2018-11-05T10:45:16Z</time>
      </trkpt>
      <trkpt lat="36.7799685616" lon="-2.2269194573">
        <ele>6.39</ele>
        <time>2018-11-05T10:45:31Z</time>
      </trkpt>
      <trkpt lat="36.7795114126" lon="-2.2273339424">
        <ele>5.91</ele>
        <time>2018-11-05T10:45:43Z</time>
      </trkpt>
      <trkpt lat="36.7794110812" lon="-2.2274620179">
        <ele>5.91</ele>
        <time>2018-11-05T10:45:46Z</time>
      </trkpt>
      <trkpt lat="36.7793814093" lon="-2.2275148239">
        <ele>5.91</ele>
        <time>2018-11-05T10:45:47Z</time>
      </trkpt>
      <trkpt lat="36.7793594487" lon="-2.2275677975">
        <ele>5.91</ele>
        <time>2018-11-05T10:45:48Z</time>
      </trkpt>
      <trkpt lat="36.7793401703" lon="-2.2276261356">
        <ele>5.91</ele>
        <time>2018-11-05T10:45:49Z</time>
      </trkpt>
      <trkpt lat="36.7793257535" lon="-2.2276813723">
        <ele>5.91</ele>
        <time>2018-11-05T10:45:50Z</time>
      </trkpt>
      <trkpt lat="36.7793138511" lon="-2.2277419735">
        <ele>6.39</ele>
        <time>2018-11-05T10:45:51Z</time>
      </trkpt>
      <trkpt lat="36.7793071456" lon="-2.2277977131">
        <ele>6.39</ele>
        <time>2018-11-05T10:45:52Z</time>
      </trkpt>
      <trkpt lat="36.7793030385" lon="-2.2278594878">
        <ele>6.39</ele>
        <time>2018-11-05T10:45:53Z</time>
      </trkpt>
      <trkpt lat="36.7792715225" lon="-2.2285038885">
        <ele>7.35</ele>
        <time>2018-11-05T10:46:05Z</time>
      </trkpt>
      <trkpt lat="36.7792438623" lon="-2.2290891130">
        <ele>6.87</ele>
        <time>2018-11-05T10:46:16Z</time>
      </trkpt>
      <trkpt lat="36.7792152800" lon="-2.2297362797">
        <ele>6.87</ele>
        <time>2018-11-05T10:46:28Z</time>
      </trkpt>
      <trkpt lat="36.7791924812" lon="-2.2303025611">
        <ele>6.87</ele>
        <time>2018-11-05T10:46:39Z</time>
      </trkpt>
      <trkpt lat="36.7791664973" lon="-2.2308875341">
        <ele>7.35</ele>
        <time>2018-11-05T10:46:51Z</time>
      </trkpt>
      <trkpt lat="36.7791398428" lon="-2.2314424999">
        <ele>7.35</ele>
        <time>2018-11-05T10:47:03Z</time>
      </trkpt>
      <trkpt lat="36.7791184690" lon="-2.2319729906">
        <ele>7.35</ele>
        <time>2018-11-05T10:47:14Z</time>
      </trkpt>
      <trkpt lat="36.7791140266" lon="-2.2325122822">
        <ele>6.87</ele>
        <time>2018-11-05T10:47:25Z</time>
      </trkpt>
      <trkpt lat="36.7792265117" lon="-2.2327976860">
        <ele>6.87</ele>
        <time>2018-11-05T10:47:32Z</time>
      </trkpt>
      <trkpt lat="36.7795075569" lon="-2.2331581917">
        <ele>6.87</ele>
        <time>2018-11-05T10:47:43Z</time>
      </trkpt>
      <trkpt lat="36.7798172683" lon="-2.2335973196">
        <ele>7.35</ele>
        <time>2018-11-05T10:47:55Z</time>
      </trkpt>
      <trkpt lat="36.7799227126" lon="-2.2339094616">
        <ele>7.35</ele>
        <time>2018-11-05T10:48:03Z</time>
      </trkpt>
      <trkpt lat="36.7800219543" lon="-2.2343887389">
        <ele>7.35</ele>
        <time>2018-11-05T10:48:14Z</time>
      </trkpt>
      <trkpt lat="36.7801346071" lon="-2.2349857818">
        <ele>7.35</ele>
        <time>2018-11-05T10:48:27Z</time>
      </trkpt>
      <trkpt lat="36.7802439071" lon="-2.2355150990">
        <ele>7.83</ele>
        <time>2018-11-05T10:48:38Z</time>
      </trkpt>
      <trkpt lat="36.7803069390" lon="-2.2360853199">
        <ele>7.35</ele>
        <time>2018-11-05T10:48:50Z</time>
      </trkpt>
      <trkpt lat="36.7803449929" lon="-2.2366267070">
        <ele>6.87</ele>
        <time>2018-11-05T10:49:01Z</time>
      </trkpt>
      <trkpt lat="36.7804231122" lon="-2.2370925732">
        <ele>7.35</ele>
        <time>2018-11-05T10:49:10Z</time>
      </trkpt>
      <trkpt lat="36.7805791833" lon="-2.2376340441">
        <ele>7.83</ele>
        <time>2018-11-05T10:49:21Z</time>
      </trkpt>
      <trkpt lat="36.7806573026" lon="-2.2381421551">
        <ele>7.35</ele>
        <time>2018-11-05T10:49:32Z</time>
      </trkpt>
      <trkpt lat="36.7806801852" lon="-2.2386761662">
        <ele>7.35</ele>
        <time>2018-11-05T10:49:43Z</time>
      </trkpt>
      <trkpt lat="36.7806532793" lon="-2.2391422000">
        <ele>8.31</ele>
        <time>2018-11-05T10:49:52Z</time>
      </trkpt>
      <trkpt lat="36.7806407064" lon="-2.2392913979">
        <ele>8.31</ele>
        <time>2018-11-05T10:49:55Z</time>
      </trkpt>
      <trkpt lat="36.7806189135" lon="-2.2396835871">
        <ele>9.75</ele>
        <time>2018-11-05T10:50:03Z</time>
      </trkpt>
      <trkpt lat="36.7806613259" lon="-2.2401859984">
        <ele>9.27</ele>
        <time>2018-11-05T10:50:13Z</time>
      </trkpt>
      <trkpt lat="36.7807010561" lon="-2.2405741643">
        <ele>9.27</ele>
        <time>2018-11-05T10:50:22Z</time>
      </trkpt>
      <trkpt lat="36.7807378527" lon="-2.2410065867">
        <ele>9.27</ele>
        <time>2018-11-05T10:50:32Z</time>
      </trkpt>
      <trkpt lat="36.7807844561" lon="-2.2413370013">
        <ele>9.75</ele>
        <time>2018-11-05T10:50:40Z</time>
      </trkpt>
      <trkpt lat="36.7808138765" lon="-2.2415638994">
        <ele>10.71</ele>
        <time>2018-11-05T10:50:46Z</time>
      </trkpt>
      <trkpt lat="36.7806635052" lon="-2.2416369058">
        <ele>11.19</ele>
        <time>2018-11-05T10:50:51Z</time>
      </trkpt>
      <trkpt lat="36.7805095296" lon="-2.2415736225">
        <ele>10.71</ele>
        <time>2018-11-05T10:50:55Z</time>
      </trkpt>
      <trkpt lat="36.7804666981" lon="-2.2415664978">
        <ele>10.71</ele>
        <time>2018-11-05T10:50:56Z</time>
      </trkpt>
      <trkpt lat="36.7804298177" lon="-2.2415680066">
        <ele>10.71</ele>
        <time>2018-11-05T10:50:57Z</time>
      </trkpt>
      <trkpt lat="36.7803908419" lon="-2.2415762208">
        <ele>10.23</ele>
        <time>2018-11-05T10:50:58Z</time>
      </trkpt>
      <trkpt lat="36.7803522851" lon="-2.2415895481">
        <ele>9.75</ele>
        <time>2018-11-05T10:50:59Z</time>
      </trkpt>
      <trkpt lat="36.7803107947" lon="-2.2416050546">
        <ele>9.75</ele>
        <time>2018-11-05T10:51:00Z</time>
      </trkpt>
      <trkpt lat="36.7799018417" lon="-2.2417910490">
        <ele>8.31</ele>
        <time>2018-11-05T10:51:10Z</time>
      </trkpt>
      <trkpt lat="36.7795476224" lon="-2.2419618722">
        <ele>6.87</ele>
        <time>2018-11-05T10:51:19Z</time>
      </trkpt>
      <trkpt lat="36.7794603668" lon="-2.2421236429">
        <ele>6.87</ele>
        <time>2018-11-05T10:51:24Z</time>
      </trkpt>
      <trkpt lat="36.7792335525" lon="-2.2425123118">
        <ele>7.35</ele>
        <time>2018-11-05T10:51:36Z</time>
      </trkpt>
      <trkpt lat="36.7790276930" lon="-2.2428366076">
        <ele>7.83</ele>
        <time>2018-11-05T10:51:46Z</time>
      </trkpt>
      <trkpt lat="36.7789344024" lon="-2.2429658566">
        <ele>8.31</ele>
        <time>2018-11-05T10:51:52Z</time>
      </trkpt>
      <trkpt lat="36.7787873838" lon="-2.2431785893">
        <ele>8.31</ele>
        <time>2018-11-05T10:52:01Z</time>
      </trkpt>
      <trkpt lat="36.7786757369" lon="-2.2432416212">
        <ele>7.83</ele>
        <time>2018-11-05T10:52:06Z</time>
      </trkpt>
      <trkpt lat="36.7785288859" lon="-2.2432196606">
        <ele>7.35</ele>
        <time>2018-11-05T10:52:13Z</time>
      </trkpt>
      <trkpt lat="36.7785208393" lon="-2.2432035673">
        <ele>7.83</ele>
        <time>2018-11-05T10:52:19Z</time>
      </trkpt>
      <trkpt lat="36.7785181571" lon="-2.2432046570">
        <ele>6.87</ele>
        <time>2018-11-05T10:52:31Z</time>
      </trkpt>
      <trkpt lat="36.7785235215" lon="-2.2432157211">
        <ele>6.39</ele>
        <time>2018-11-05T10:52:55Z</time>
      </trkpt>
      <trkpt lat="36.7785233539" lon="-2.2432251088">
        <ele>7.35</ele>
        <time>2018-11-05T10:53:09Z</time>
      </trkpt>
      <trkpt lat="36.7785165645" lon="-2.2432087641">
        <ele>7.35</ele>
        <time>2018-11-05T10:53:24Z</time>
      </trkpt>
      <trkpt lat="36.7785145529" lon="-2.2432049923">
        <ele>5.91</ele>
        <time>2018-11-05T10:53:42Z</time>
      </trkpt>
      <trkpt lat="36.7785206717" lon="-2.2431975324">
        <ele>6.39</ele>
        <time>2018-11-05T10:53:55Z</time>
      </trkpt>
      <trkpt lat="36.7785298917" lon="-2.2431651782">
        <ele>6.39</ele>
        <time>2018-11-05T10:54:01Z</time>
      </trkpt>
      <trkpt lat="36.7785353400" lon="-2.2431511804">
        <ele>6.39</ele>
        <time>2018-11-05T10:54:02Z</time>
      </trkpt>
      <trkpt lat="36.7785452306" lon="-2.2431378532">
        <ele>6.39</ele>
        <time>2018-11-05T10:54:03Z</time>
      </trkpt>
      <trkpt lat="36.7785613239" lon="-2.2431278788">
        <ele>6.39</ele>
        <time>2018-11-05T10:54:04Z</time>
      </trkpt>
      <trkpt lat="36.7785797641" lon="-2.2431272082">
        <ele>6.39</ele>
        <time>2018-11-05T10:54:05Z</time>
      </trkpt>
      <trkpt lat="36.7787379306" lon="-2.2431992088">
        <ele>6.87</ele>
        <time>2018-11-05T10:54:12Z</time>
      </trkpt>
      <trkpt lat="36.7788026389" lon="-2.2431264538">
        <ele>6.87</ele>
        <time>2018-11-05T10:54:16Z</time>
      </trkpt>
      <trkpt lat="36.7789562792" lon="-2.2428759187">
        <ele>7.35</ele>
        <time>2018-11-05T10:54:26Z</time>
      </trkpt>
      <trkpt lat="36.7791816685" lon="-2.2425330989">
        <ele>6.87</ele>
        <time>2018-11-05T10:54:36Z</time>
      </trkpt>
      <trkpt lat="36.7794254143" lon="-2.2421771195">
        <ele>6.39</ele>
        <time>2018-11-05T10:54:46Z</time>
      </trkpt>
      <trkpt lat="36.7794912960" lon="-2.2420213837">
        <ele>6.87</ele>
        <time>2018-11-05T10:54:51Z</time>
      </trkpt>
      <trkpt lat="36.7794819083" lon="-2.2419968247">
        <ele>6.87</ele>
        <time>2018-11-05T10:54:52Z</time>
      </trkpt>
      <trkpt lat="36.7794615403" lon="-2.2419796418">
        <ele>6.87</ele>
        <time>2018-11-05T10:54:53Z</time>
      </trkpt>
      <trkpt lat="36.7794327904" lon="-2.2419798095">
        <ele>6.87</ele>
        <time>2018-11-05T10:54:54Z</time>
      </trkpt>
      <trkpt lat="36.7794006877" lon="-2.2419886105">
        <ele>6.87</ele>
        <time>2018-11-05T10:54:55Z</time>
      </trkpt>
      <trkpt lat="36.7793719377" lon="-2.2419995070">
        <ele>6.87</ele>
        <time>2018-11-05T10:54:56Z</time>
      </trkpt>
      <trkpt lat="36.7790603824" lon="-2.2420308553">
        <ele>6.39</ele>
        <time>2018-11-05T10:55:04Z</time>
      </trkpt>
      <trkpt lat="36.7786197457" lon="-2.2419249918">
        <ele>5.91</ele>
        <time>2018-11-05T10:55:15Z</time>
      </trkpt>
      <trkpt lat="36.7783085257" lon="-2.2417714354">
        <ele>5.91</ele>
        <time>2018-11-05T10:55:23Z</time>
      </trkpt>
      <trkpt lat="36.7778559867" lon="-2.2414053977">
        <ele>5.91</ele>
        <time>2018-11-05T10:55:35Z</time>
      </trkpt>
      <trkpt lat="36.7775026057" lon="-2.2410964407">
        <ele>5.91</ele>
        <time>2018-11-05T10:55:45Z</time>
      </trkpt>
      <trkpt lat="36.7771369033" lon="-2.2407827061">
        <ele>5.91</ele>
        <time>2018-11-05T10:55:55Z</time>
      </trkpt>
      <trkpt lat="36.7766054068" lon="-2.2403512895">
        <ele>4.94</ele>
        <time>2018-11-05T10:56:07Z</time>
      </trkpt>
      <trkpt lat="36.7762044165" lon="-2.2400322743">
        <ele>5.42</ele>
        <time>2018-11-05T10:56:15Z</time>
      </trkpt>
      <trkpt lat="36.7757486086" lon="-2.2396523226">
        <ele>5.42</ele>
        <time>2018-11-05T10:56:25Z</time>
      </trkpt>
      <trkpt lat="36.7752280924" lon="-2.2391920723">
        <ele>5.91</ele>
        <time>2018-11-05T10:56:36Z</time>
      </trkpt>
      <trkpt lat="36.7747638188" lon="-2.2387705464">
        <ele>5.42</ele>
        <time>2018-11-05T10:56:46Z</time>
      </trkpt>
      <trkpt lat="36.7741989624" lon="-2.2382497787">
        <ele>4.94</ele>
        <time>2018-11-05T10:56:58Z</time>
      </trkpt>
      <trkpt lat="36.7736793682" lon="-2.2377689090">
        <ele>4.94</ele>
        <time>2018-11-05T10:57:09Z</time>
      </trkpt>
      <trkpt lat="36.7732534837" lon="-2.2373661585">
        <ele>5.42</ele>
        <time>2018-11-05T10:57:18Z</time>
      </trkpt>
      <trkpt lat="36.7727053072" lon="-2.2368475702">
        <ele>5.42</ele>
        <time>2018-11-05T10:57:30Z</time>
      </trkpt>
      <trkpt lat="36.7722799256" lon="-2.2364503518">
        <ele>5.42</ele>
        <time>2018-11-05T10:57:40Z</time>
      </trkpt>
      <trkpt lat="36.7717897519" lon="-2.2359944601">
        <ele>5.91</ele>
        <time>2018-11-05T10:57:51Z</time>
      </trkpt>
      <trkpt lat="36.7713399790" lon="-2.2355857585">
        <ele>4.94</ele>
        <time>2018-11-05T10:58:01Z</time>
      </trkpt>
      <trkpt lat="36.7707959935" lon="-2.2350941598">
        <ele>5.42</ele>
        <time>2018-11-05T10:58:13Z</time>
      </trkpt>
      <trkpt lat="36.7702305503" lon="-2.2345971968">
        <ele>5.42</ele>
        <time>2018-11-05T10:58:25Z</time>
      </trkpt>
      <trkpt lat="36.7696459126" lon="-2.2340869065">
        <ele>4.94</ele>
        <time>2018-11-05T10:58:38Z</time>
      </trkpt>
      <trkpt lat="36.7691573314" lon="-2.2336546518">
        <ele>4.94</ele>
        <time>2018-11-05T10:58:49Z</time>
      </trkpt>
      <trkpt lat="36.7685442790" lon="-2.2331202216">
        <ele>4.94</ele>
        <time>2018-11-05T10:59:02Z</time>
      </trkpt>
      <trkpt lat="36.7680597212" lon="-2.2326997854">
        <ele>5.42</ele>
        <time>2018-11-05T10:59:13Z</time>
      </trkpt>
      <trkpt lat="36.7676257063" lon="-2.2323255334">
        <ele>5.91</ele>
        <time>2018-11-05T10:59:24Z</time>
      </trkpt>
      <trkpt lat="36.7671133205" lon="-2.2318815440">
        <ele>5.42</ele>
        <time>2018-11-05T10:59:36Z</time>
      </trkpt>
      <trkpt lat="36.7665247433" lon="-2.2313696612">
        <ele>5.42</ele>
        <time>2018-11-05T10:59:49Z</time>
      </trkpt>
      <trkpt lat="36.7659886368" lon="-2.2309069801">
        <ele>5.91</ele>
        <time>2018-11-05T11:00:01Z</time>
      </trkpt>
      <trkpt lat="36.7655288056" lon="-2.2305080853">
        <ele>5.91</ele>
        <time>2018-11-05T11:00:13Z</time>
      </trkpt>
      <trkpt lat="36.7654106207" lon="-2.2304132022">
        <ele>5.91</ele>
        <time>2018-11-05T11:00:19Z</time>
      </trkpt>
      <trkpt lat="36.7653981317" lon="-2.2304205783">
        <ele>5.42</ele>
        <time>2018-11-05T11:00:24Z</time>
      </trkpt>
      <trkpt lat="36.7653851397" lon="-2.2304210812">
        <ele>5.42</ele>
        <time>2018-11-05T11:00:25Z</time>
      </trkpt>
      <trkpt lat="36.7653692979" lon="-2.2304168902">
        <ele>4.94</ele>
        <time>2018-11-05T11:00:26Z</time>
      </trkpt>
      <trkpt lat="36.7652998120" lon="-2.2303885594">
        <ele>4.94</ele>
        <time>2018-11-05T11:00:33Z</time>
      </trkpt>
      <trkpt lat="36.7652988899" lon="-2.2303971089">
        <ele>4.46</ele>
        <time>2018-11-05T11:00:50Z</time>
      </trkpt>
      <trkpt lat="36.7652995605" lon="-2.2303958517">
        <ele>3.98</ele>
        <time>2018-11-05T11:01:13Z</time>
      </trkpt>
      <trkpt lat="36.7653009854" lon="-2.2303894814">
        <ele>3.98</ele>
        <time>2018-11-05T11:01:28Z</time>
      </trkpt>
      <trkpt lat="36.7652980518" lon="-2.2303907387">
        <ele>3.98</ele>
        <time>2018-11-05T11:01:52Z</time>
      </trkpt>
      <trkpt lat="36.7652957886" lon="-2.2303894814">
        <ele>3.98</ele>
        <time>2018-11-05T11:02:14Z</time>
      </trkpt>
      <trkpt lat="36.7652956210" lon="-2.2303924151">
        <ele>3.50</ele>
        <time>2018-11-05T11:02:36Z</time>
      </trkpt>
      <trkpt lat="36.7652966268" lon="-2.2303909902">
        <ele>3.98</ele>
        <time>2018-11-05T11:02:59Z</time>
      </trkpt>
      <trkpt lat="36.7652987223" lon="-2.2303923313">
        <ele>3.98</ele>
        <time>2018-11-05T11:03:23Z</time>
      </trkpt>
      <trkpt lat="36.7653010692" lon="-2.2303941753">
        <ele>4.46</ele>
        <time>2018-11-05T11:03:41Z</time>
      </trkpt>
      <trkpt lat="36.7652993090" lon="-2.2303932533">
        <ele>3.98</ele>
        <time>2018-11-05T11:03:59Z</time>
      </trkpt>
      <trkpt lat="36.7652972136" lon="-2.2303928342">
        <ele>3.98</ele>
        <time>2018-11-05T11:04:18Z</time>
      </trkpt>
      <trkpt lat="36.7652988899" lon="-2.2303949296">
        <ele>4.46</ele>
        <time>2018-11-05T11:04:36Z</time>
      </trkpt>
      <trkpt lat="36.7652965430" lon="-2.2303944267">
        <ele>4.46</ele>
        <time>2018-11-05T11:05:01Z</time>
      </trkpt>
      <trkpt lat="36.7652983870" lon="-2.2303928342">
        <ele>3.98</ele>
        <time>2018-11-05T11:05:24Z</time>
      </trkpt>
      <trkpt lat="36.7653001472" lon="-2.2303643357">
        <ele>4.46</ele>
        <time>2018-11-05T11:05:35Z</time>
      </trkpt>
      <trkpt lat="36.7653027456" lon="-2.2303477395">
        <ele>4.94</ele>
        <time>2018-11-05T11:05:45Z</time>
      </trkpt>
      <trkpt lat="36.7652974650" lon="-2.2303123679">
        <ele>4.94</ele>
        <time>2018-11-05T11:05:53Z</time>
      </trkpt>
      <trkpt lat="36.7652887478" lon="-2.2303145472">
        <ele>5.42</ele>
        <time>2018-11-05T11:06:05Z</time>
      </trkpt>
      <trkpt lat="36.7652749177" lon="-2.2303045727">
        <ele>5.42</ele>
        <time>2018-11-05T11:06:06Z</time>
      </trkpt>
      <trkpt lat="36.7651143204" lon="-2.2301576380">
        <ele>4.94</ele>
        <time>2018-11-05T11:06:14Z</time>
      </trkpt>
      <trkpt lat="36.7647621967" lon="-2.2298491001">
        <ele>4.94</ele>
        <time>2018-11-05T11:06:25Z</time>
      </trkpt>
      <trkpt lat="36.7643224820" lon="-2.2294623591">
        <ele>4.46</ele>
        <time>2018-11-05T11:06:37Z</time>
      </trkpt>
      <trkpt lat="36.7639063206" lon="-2.2291038651">
        <ele>4.94</ele>
        <time>2018-11-05T11:06:49Z</time>
      </trkpt>
      <trkpt lat="36.7635295540" lon="-2.2287762165">
        <ele>5.42</ele>
        <time>2018-11-05T11:06:59Z</time>
      </trkpt>
      <trkpt lat="36.7629868258" lon="-2.2283068299">
        <ele>5.42</ele>
        <time>2018-11-05T11:07:12Z</time>
      </trkpt>
      <trkpt lat="36.7624553293" lon="-2.2278456576">
        <ele>4.94</ele>
        <time>2018-11-05T11:07:24Z</time>
      </trkpt>
      <trkpt lat="36.7618497368" lon="-2.2273157537">
        <ele>4.94</ele>
        <time>2018-11-05T11:07:37Z</time>
      </trkpt>
      <trkpt lat="36.7612154782" lon="-2.2267611232">
        <ele>4.94</ele>
        <time>2018-11-05T11:07:50Z</time>
      </trkpt>
      <trkpt lat="36.7607204430" lon="-2.2263333108">
        <ele>5.42</ele>
        <time>2018-11-05T11:08:01Z</time>
      </trkpt>
      <trkpt lat="36.7601966579" lon="-2.2258737311">
        <ele>5.42</ele>
        <time>2018-11-05T11:08:13Z</time>
      </trkpt>
      <trkpt lat="36.7595810071" lon="-2.2253321763">
        <ele>5.42</ele>
        <time>2018-11-05T11:08:26Z</time>
      </trkpt>
      <trkpt lat="36.7589287274" lon="-2.2247683257">
        <ele>5.42</ele>
        <time>2018-11-05T11:08:39Z</time>
      </trkpt>
      <trkpt lat="36.7583146691" lon="-2.2242310457">
        <ele>4.94</ele>
        <time>2018-11-05T11:08:51Z</time>
      </trkpt>
      <trkpt lat="36.7577346414" lon="-2.2237410396">
        <ele>4.94</ele>
        <time>2018-11-05T11:09:03Z</time>
      </trkpt>
      <trkpt lat="36.7571938410" lon="-2.2232899256">
        <ele>5.42</ele>
        <time>2018-11-05T11:09:15Z</time>
      </trkpt>
      <trkpt lat="36.7566921003" lon="-2.2228624485">
        <ele>5.42</ele>
        <time>2018-11-05T11:09:26Z</time>
      </trkpt>
      <trkpt lat="36.7562277429" lon="-2.2224904597">
        <ele>5.42</ele>
        <time>2018-11-05T11:09:36Z</time>
      </trkpt>
      <trkpt lat="36.7557836697" lon="-2.2221519984">
        <ele>5.42</ele>
        <time>2018-11-05T11:09:46Z</time>
      </trkpt>
      <trkpt lat="36.7552675959" lon="-2.2217779979">
        <ele>5.42</ele>
        <time>2018-11-05T11:09:57Z</time>
      </trkpt>
      <trkpt lat="36.7547018174" lon="-2.2213739064">
        <ele>5.91</ele>
        <time>2018-11-05T11:10:10Z</time>
      </trkpt>
      <trkpt lat="36.7544843070" lon="-2.2212159913">
        <ele>5.91</ele>
        <time>2018-11-05T11:10:17Z</time>
      </trkpt>
      <trkpt lat="36.7544428166" lon="-2.2211900912">
        <ele>5.91</ele>
        <time>2018-11-05T11:10:22Z</time>
      </trkpt>
      <trkpt lat="36.7544321716" lon="-2.2211933602">
        <ele>5.91</ele>
        <time>2018-11-05T11:10:31Z</time>
      </trkpt>
      <trkpt lat="36.7544146534" lon="-2.2211806197">
        <ele>5.91</ele>
        <time>2018-11-05T11:10:39Z</time>
      </trkpt>
      <trkpt lat="36.7543620151" lon="-2.2211402189">
        <ele>5.42</ele>
        <time>2018-11-05T11:10:48Z</time>
      </trkpt>
      <trkpt lat="36.7541812174" lon="-2.2210057732">
        <ele>5.42</ele>
        <time>2018-11-05T11:10:56Z</time>
      </trkpt>
      <trkpt lat="36.7539668083" lon="-2.2208800446">
        <ele>5.42</ele>
        <time>2018-11-05T11:11:04Z</time>
      </trkpt>
      <trkpt lat="36.7538647167" lon="-2.2208245564">
        <ele>5.91</ele>
        <time>2018-11-05T11:11:11Z</time>
      </trkpt>
      <trkpt lat="36.7538375594" lon="-2.2207784560">
        <ele>5.91</ele>
        <time>2018-11-05T11:11:17Z</time>
      </trkpt>
      <trkpt lat="36.7538229749" lon="-2.2207678948">
        <ele>5.91</ele>
        <time>2018-11-05T11:11:18Z</time>
      </trkpt>
      <trkpt lat="36.7536241561" lon="-2.2206280008">
        <ele>5.91</ele>
        <time>2018-11-05T11:11:26Z</time>
      </trkpt>
      <trkpt lat="36.7532818392" lon="-2.2203850932">
        <ele>5.91</ele>
        <time>2018-11-05T11:11:38Z</time>
      </trkpt>
      <trkpt lat="36.7529989500" lon="-2.2201813292">
        <ele>5.91</ele>
        <time>2018-11-05T11:11:47Z</time>
      </trkpt>
      <trkpt lat="36.7525418848" lon="-2.2198696062">
        <ele>5.42</ele>
        <time>2018-11-05T11:11:59Z</time>
      </trkpt>
      <trkpt lat="36.7521990649" lon="-2.2196274530">
        <ele>5.91</ele>
        <time>2018-11-05T11:12:09Z</time>
      </trkpt>
      <trkpt lat="36.7517571710" lon="-2.2193003912">
        <ele>6.39</ele>
        <time>2018-11-05T11:12:23Z</time>
      </trkpt>
      <trkpt lat="36.7514353059" lon="-2.2190454975">
        <ele>6.87</ele>
        <time>2018-11-05T11:12:34Z</time>
      </trkpt>
      <trkpt lat="36.7511870340" lon="-2.2188482713">
        <ele>6.87</ele>
        <time>2018-11-05T11:12:43Z</time>
      </trkpt>
      <trkpt lat="36.7510934081" lon="-2.2187424079">
        <ele>6.39</ele>
        <time>2018-11-05T11:12:48Z</time>
      </trkpt>
      <trkpt lat="36.7510684300" lon="-2.2187322658">
        <ele>5.91</ele>
        <time>2018-11-05T11:12:49Z</time>
      </trkpt>
      <trkpt lat="36.7509842757" lon="-2.2187040187">
        <ele>5.42</ele>
        <time>2018-11-05T11:12:54Z</time>
      </trkpt>
      <trkpt lat="36.7509715352" lon="-2.2187132388">
        <ele>5.42</ele>
        <time>2018-11-05T11:13:00Z</time>
      </trkpt>
      <trkpt lat="36.7509637401" lon="-2.2187117301">
        <ele>5.42</ele>
        <time>2018-11-05T11:13:07Z</time>
      </trkpt>
      <trkpt lat="36.7509623151" lon="-2.2187141608">
        <ele>5.42</ele>
        <time>2018-11-05T11:13:42Z</time>
      </trkpt>
      <trkpt lat="36.7509627342" lon="-2.2187068686">
        <ele>5.42</ele>
        <time>2018-11-05T11:14:06Z</time>
      </trkpt>
      <trkpt lat="36.7509630695" lon="-2.2187076230">
        <ele>5.42</ele>
        <time>2018-11-05T11:14:35Z</time>
      </trkpt>
      <trkpt lat="36.7509636562" lon="-2.2187167592">
        <ele>4.94</ele>
        <time>2018-11-05T11:14:54Z</time>
      </trkpt>
      <trkpt lat="36.7509605549" lon="-2.2187003307">
        <ele>7.35</ele>
        <time>2018-11-05T11:15:17Z</time>
      </trkpt>
      <trkpt lat="36.7509646621" lon="-2.2187159210">
        <ele>6.39</ele>
        <time>2018-11-05T11:15:32Z</time>
      </trkpt>
      <trkpt lat="36.7509701941" lon="-2.2187155858">
        <ele>4.46</ele>
        <time>2018-11-05T11:15:49Z</time>
      </trkpt>
      <trkpt lat="36.7509700265" lon="-2.2187195253">
        <ele>3.98</ele>
        <time>2018-11-05T11:16:13Z</time>
      </trkpt>
      <trkpt lat="36.7509587109" lon="-2.2187127359">
        <ele>4.94</ele>
        <time>2018-11-05T11:16:37Z</time>
      </trkpt>
      <trkpt lat="36.7509662546" lon="-2.2187186033">
        <ele>4.46</ele>
        <time>2018-11-05T11:16:53Z</time>
      </trkpt>
      <trkpt lat="36.7509465571" lon="-2.2186704911">
        <ele>4.94</ele>
        <time>2018-11-05T11:17:00Z</time>
      </trkpt>
      <trkpt lat="36.7509404384" lon="-2.2186631989">
        <ele>5.42</ele>
        <time>2018-11-05T11:17:08Z</time>
      </trkpt>
      <trkpt lat="36.7509271950" lon="-2.2186524700">
        <ele>4.94</ele>
        <time>2018-11-05T11:17:09Z</time>
      </trkpt>
      <trkpt lat="36.7507693637" lon="-2.2185193654">
        <ele>4.94</ele>
        <time>2018-11-05T11:17:18Z</time>
      </trkpt>
      <trkpt lat="36.7505442258" lon="-2.2183402441">
        <ele>4.94</ele>
        <time>2018-11-05T11:17:26Z</time>
      </trkpt>
      <trkpt lat="36.7502340954" lon="-2.2180887032">
        <ele>4.46</ele>
        <time>2018-11-05T11:17:36Z</time>
      </trkpt>
      <trkpt lat="36.7499588337" lon="-2.2178782336">
        <ele>4.94</ele>
        <time>2018-11-05T11:17:44Z</time>
      </trkpt>
      <trkpt lat="36.7495979927" lon="-2.2175892256">
        <ele>4.46</ele>
        <time>2018-11-05T11:17:53Z</time>
      </trkpt>
      <trkpt lat="36.7491363175" lon="-2.2172221821">
        <ele>4.46</ele>
        <time>2018-11-05T11:18:04Z</time>
      </trkpt>
      <trkpt lat="36.7486293800" lon="-2.2168088704">
        <ele>4.94</ele>
        <time>2018-11-05T11:18:16Z</time>
      </trkpt>
      <trkpt lat="36.7484128755" lon="-2.2166169249">
        <ele>4.94</ele>
        <time>2018-11-05T11:18:21Z</time>
      </trkpt>
      <trkpt lat="36.7481070198" lon="-2.2161664814">
        <ele>4.94</ele>
        <time>2018-11-05T11:18:30Z</time>
      </trkpt>
      <trkpt lat="36.7477825563" lon="-2.2156848572">
        <ele>5.42</ele>
        <time>2018-11-05T11:18:40Z</time>
      </trkpt>
      <trkpt lat="36.7474176921" lon="-2.2154255211">
        <ele>5.42</ele>
        <time>2018-11-05T11:18:49Z</time>
      </trkpt>
      <trkpt lat="36.7470793985" lon="-2.2152390238">
        <ele>5.42</ele>
        <time>2018-11-05T11:18:58Z</time>
      </trkpt>
      <trkpt lat="36.7466332298" lon="-2.2149856389">
        <ele>5.42</ele>
        <time>2018-11-05T11:19:09Z</time>
      </trkpt>
      <trkpt lat="36.7463681940" lon="-2.2147548012">
        <ele>5.91</ele>
        <time>2018-11-05T11:19:17Z</time>
      </trkpt>
      <trkpt lat="36.7462372687" lon="-2.2146605887">
        <ele>5.42</ele>
        <time>2018-11-05T11:19:22Z</time>
      </trkpt>
      <trkpt lat="36.7460742407" lon="-2.2144842334">
        <ele>4.94</ele>
        <time>2018-11-05T11:19:29Z</time>
      </trkpt>
      <trkpt lat="36.7457851488" lon="-2.2142807208">
        <ele>5.42</ele>
        <time>2018-11-05T11:19:38Z</time>
      </trkpt>
      <trkpt lat="36.7454891838" lon="-2.2141266614">
        <ele>6.39</ele>
        <time>2018-11-05T11:19:47Z</time>
      </trkpt>
      <trkpt lat="36.7451785505" lon="-2.2139451094">
        <ele>6.87</ele>
        <time>2018-11-05T11:19:56Z</time>
      </trkpt>
      <trkpt lat="36.7448515724" lon="-2.2136053070">
        <ele>6.87</ele>
        <time>2018-11-05T11:20:07Z</time>
      </trkpt>
      <trkpt lat="36.7445652466" lon="-2.2133069951">
        <ele>6.39</ele>
        <time>2018-11-05T11:20:18Z</time>
      </trkpt>
      <trkpt lat="36.7442523502" lon="-2.2130657639">
        <ele>5.42</ele>
        <time>2018-11-05T11:20:30Z</time>
      </trkpt>
      <trkpt lat="36.7442491651" lon="-2.2130683623">
        <ele>5.42</ele>
        <time>2018-11-05T11:20:36Z</time>
      </trkpt>
      <trkpt lat="36.7442521825" lon="-2.2130694520">
        <ele>5.42</ele>
        <time>2018-11-05T11:20:46Z</time>
      </trkpt>
      <trkpt lat="36.7442485783" lon="-2.2130677756">
        <ele>5.42</ele>
        <time>2018-11-05T11:21:04Z</time>
      </trkpt>
      <trkpt lat="36.7442508414" lon="-2.2130681109">
        <ele>5.42</ele>
        <time>2018-11-05T11:21:22Z</time>
      </trkpt>
      <trkpt lat="36.7442490812" lon="-2.2130693682">
        <ele>4.46</ele>
        <time>2018-11-05T11:21:39Z</time>
      </trkpt>
      <trkpt lat="36.7442349158" lon="-2.2130564600">
        <ele>4.46</ele>
        <time>2018-11-05T11:21:54Z</time>
      </trkpt>
      <trkpt lat="36.7442313116" lon="-2.2130557895">
        <ele>4.94</ele>
        <time>2018-11-05T11:22:10Z</time>
      </trkpt>
      <trkpt lat="36.7442262825" lon="-2.2130560409">
        <ele>4.46</ele>
        <time>2018-11-05T11:22:23Z</time>
      </trkpt>
      <trkpt lat="36.7442290485" lon="-2.2130583879">
        <ele>3.02</ele>
        <time>2018-11-05T11:22:40Z</time>
      </trkpt>
      <trkpt lat="36.7442250252" lon="-2.2130526882">
        <ele>3.02</ele>
        <time>2018-11-05T11:22:48Z</time>
      </trkpt>
      <trkpt lat="36.7442184035" lon="-2.2130353376">
        <ele>3.02</ele>
        <time>2018-11-05T11:22:49Z</time>
      </trkpt>
      <trkpt lat="36.7442114465" lon="-2.2130186576">
        <ele>3.50</ele>
        <time>2018-11-05T11:22:50Z</time>
      </trkpt>
      <trkpt lat="36.7442046572" lon="-2.2130072583">
        <ele>3.50</ele>
        <time>2018-11-05T11:22:51Z</time>
      </trkpt>
      <trkpt lat="36.7441957723" lon="-2.2129972000">
        <ele>3.98</ele>
        <time>2018-11-05T11:22:52Z</time>
      </trkpt>
      <trkpt lat="36.7440417130" lon="-2.2128745727">
        <ele>3.98</ele>
        <time>2018-11-05T11:23:01Z</time>
      </trkpt>
      <trkpt lat="36.7438613344" lon="-2.2127262130">
        <ele>4.46</ele>
        <time>2018-11-05T11:23:11Z</time>
      </trkpt>
      <trkpt lat="36.7436996475" lon="-2.2125517018">
        <ele>4.94</ele>
        <time>2018-11-05T11:23:22Z</time>
      </trkpt>
      <trkpt lat="36.7435486056" lon="-2.2123682220">
        <ele>5.42</ele>
        <time>2018-11-05T11:23:33Z</time>
      </trkpt>
      <trkpt lat="36.7433449253" lon="-2.2121535614">
        <ele>5.42</ele>
        <time>2018-11-05T11:23:46Z</time>
      </trkpt>
      <trkpt lat="36.7432067078" lon="-2.2120013461">
        <ele>4.94</ele>
        <time>2018-11-05T11:23:56Z</time>
      </trkpt>
      <trkpt lat="36.7430255748" lon="-2.2118353844">
        <ele>4.46</ele>
        <time>2018-11-05T11:24:07Z</time>
      </trkpt>
      <trkpt lat="36.7427984253" lon="-2.2116245795">
        <ele>4.94</ele>
        <time>2018-11-05T11:24:20Z</time>
      </trkpt>
      <trkpt lat="36.7426079884" lon="-2.2114551812">
        <ele>5.42</ele>
        <time>2018-11-05T11:24:29Z</time>
      </trkpt>
      <trkpt lat="36.7423080001" lon="-2.2111798357">
        <ele>4.46</ele>
        <time>2018-11-05T11:24:38Z</time>
      </trkpt>
      <trkpt lat="36.7418787628" lon="-2.2107943520">
        <ele>4.46</ele>
        <time>2018-11-05T11:24:49Z</time>
      </trkpt>
      <trkpt lat="36.7414023355" lon="-2.2103776038">
        <ele>4.46</ele>
        <time>2018-11-05T11:25:00Z</time>
      </trkpt>
      <trkpt lat="36.7409433424" lon="-2.2099622805">
        <ele>5.42</ele>
        <time>2018-11-05T11:25:11Z</time>
      </trkpt>
      <trkpt lat="36.7404655740" lon="-2.2095381562">
        <ele>5.42</ele>
        <time>2018-11-05T11:25:22Z</time>
      </trkpt>
      <trkpt lat="36.7399405316" lon="-2.2090644948">
        <ele>5.42</ele>
        <time>2018-11-05T11:25:35Z</time>
      </trkpt>
      <trkpt lat="36.7395804450" lon="-2.2086662706">
        <ele>5.42</ele>
        <time>2018-11-05T11:25:45Z</time>
      </trkpt>
      <trkpt lat="36.7393636052" lon="-2.2084347624">
        <ele>4.94</ele>
        <time>2018-11-05T11:25:51Z</time>
      </trkpt>
      <trkpt lat="36.7392858211" lon="-2.2083702218">
        <ele>4.94</ele>
        <time>2018-11-05T11:25:53Z</time>
      </trkpt>
      <trkpt lat="36.7392544728" lon="-2.2083309945">
        <ele>4.94</ele>
        <time>2018-11-05T11:25:54Z</time>
      </trkpt>
      <trkpt lat="36.7392310034" lon="-2.2082832176">
        <ele>4.94</ele>
        <time>2018-11-05T11:25:55Z</time>
      </trkpt>
      <trkpt lat="36.7392201070" lon="-2.2082322557">
        <ele>4.94</ele>
        <time>2018-11-05T11:25:56Z</time>
      </trkpt>
      <trkpt lat="36.7392226215" lon="-2.2081758454">
        <ele>5.42</ele>
        <time>2018-11-05T11:25:57Z</time>
      </trkpt>
      <trkpt lat="36.7392339371" lon="-2.2081170883">
        <ele>5.42</ele>
        <time>2018-11-05T11:25:58Z</time>
      </trkpt>
      <trkpt lat="36.7392431572" lon="-2.2080698982">
        <ele>5.42</ele>
        <time>2018-11-05T11:25:59Z</time>
      </trkpt>
      <trkpt lat="36.7392472643" lon="-2.2080120631">
        <ele>5.91</ele>
        <time>2018-11-05T11:26:00Z</time>
      </trkpt>
      <trkpt lat="36.7392416485" lon="-2.2079585027">
        <ele>5.91</ele>
        <time>2018-11-05T11:26:01Z</time>
      </trkpt>
      <trkpt lat="36.7392281536" lon="-2.2079062834">
        <ele>5.91</ele>
        <time>2018-11-05T11:26:02Z</time>
      </trkpt>
      <trkpt lat="36.7392093781" lon="-2.2078560758">
        <ele>6.39</ele>
        <time>2018-11-05T11:26:03Z</time>
      </trkpt>
      <trkpt lat="36.7391882557" lon="-2.2078077123">
        <ele>6.39</ele>
        <time>2018-11-05T11:26:04Z</time>
      </trkpt>
      <trkpt lat="36.7389461864" lon="-2.2073035408">
        <ele>8.31</ele>
        <time>2018-11-05T11:26:16Z</time>
      </trkpt>
      <trkpt lat="36.7387807276" lon="-2.2069570329">
        <ele>9.75</ele>
        <time>2018-11-05T11:26:26Z</time>
      </trkpt>
      <trkpt lat="36.7386272550" lon="-2.2066445556">
        <ele>11.67</ele>
        <time>2018-11-05T11:26:36Z</time>
      </trkpt>
      <trkpt lat="36.7384679150" lon="-2.2063313238">
        <ele>14.08</ele>
        <time>2018-11-05T11:26:47Z</time>
      </trkpt>
      <trkpt lat="36.7383296136" lon="-2.2060794476">
        <ele>15.04</ele>
        <time>2018-11-05T11:26:56Z</time>
      </trkpt>
      <trkpt lat="36.7382165417" lon="-2.2058852389">
        <ele>16.00</ele>
        <time>2018-11-05T11:27:04Z</time>
      </trkpt>
      <trkpt lat="36.7380401865" lon="-2.2056531440">
        <ele>17.44</ele>
        <time>2018-11-05T11:27:14Z</time>
      </trkpt>
      <trkpt lat="36.7378722131" lon="-2.2054810636">
        <ele>18.40</ele>
        <time>2018-11-05T11:27:23Z</time>
      </trkpt>
      <trkpt lat="36.7376961932" lon="-2.2053477075">
        <ele>19.84</ele>
        <time>2018-11-05T11:27:31Z</time>
      </trkpt>
      <trkpt lat="36.7375027388" lon="-2.2051984258">
        <ele>20.32</ele>
        <time>2018-11-05T11:27:40Z</time>
      </trkpt>
      <trkpt lat="36.7372974660" lon="-2.2050431091">
        <ele>21.29</ele>
        <time>2018-11-05T11:27:49Z</time>
      </trkpt>
      <trkpt lat="36.7370357830" lon="-2.2048742976">
        <ele>21.77</ele>
        <time>2018-11-05T11:28:00Z</time>
      </trkpt>
      <trkpt lat="36.7368053645" lon="-2.2047658358">
        <ele>22.25</ele>
        <time>2018-11-05T11:28:09Z</time>
      </trkpt>
      <trkpt lat="36.7365063820" lon="-2.2046565358">
        <ele>23.69</ele>
        <time>2018-11-05T11:28:20Z</time>
      </trkpt>
      <trkpt lat="36.7362163682" lon="-2.2045681067">
        <ele>25.13</ele>
        <time>2018-11-05T11:28:30Z</time>
      </trkpt>
      <trkpt lat="36.7359870393" lon="-2.2045030631">
        <ele>25.13</ele>
        <time>2018-11-05T11:28:40Z</time>
      </trkpt>
      <trkpt lat="36.7359190620" lon="-2.2045130376">
        <ele>24.65</ele>
        <time>2018-11-05T11:28:45Z</time>
      </trkpt>
      <trkpt lat="36.7359230015" lon="-2.2045170609">
        <ele>25.13</ele>
        <time>2018-11-05T11:28:54Z</time>
      </trkpt>
      <trkpt lat="36.7359386757" lon="-2.2045234311">
        <ele>26.57</ele>
        <time>2018-11-05T11:29:22Z</time>
      </trkpt>
      <trkpt lat="36.7359233368" lon="-2.2045090143">
        <ele>25.61</ele>
        <time>2018-11-05T11:29:48Z</time>
      </trkpt>
      <trkpt lat="36.7359368317" lon="-2.2045091819">
        <ele>26.09</ele>
        <time>2018-11-05T11:30:13Z</time>
      </trkpt>
      <trkpt lat="36.7359265219" lon="-2.2045184020">
        <ele>26.09</ele>
        <time>2018-11-05T11:30:29Z</time>
      </trkpt>
      <trkpt lat="36.7358974367" lon="-2.2044899035">
        <ele>25.61</ele>
        <time>2018-11-05T11:30:35Z</time>
      </trkpt>
      <trkpt lat="36.7358845286" lon="-2.2044852935">
        <ele>25.61</ele>
        <time>2018-11-05T11:30:36Z</time>
      </trkpt>
      <trkpt lat="36.7358719558" lon="-2.2044801805">
        <ele>25.61</ele>
        <time>2018-11-05T11:30:37Z</time>
      </trkpt>
      <trkpt lat="36.7358587123" lon="-2.2044761572">
        <ele>25.61</ele>
        <time>2018-11-05T11:30:38Z</time>
      </trkpt>
      <trkpt lat="36.7358422838" lon="-2.2044698708">
        <ele>25.61</ele>
        <time>2018-11-05T11:30:39Z</time>
      </trkpt>
      <trkpt lat="36.7358204070" lon="-2.2044575494">
        <ele>25.61</ele>
        <time>2018-11-05T11:30:40Z</time>
      </trkpt>
      <trkpt lat="36.7356286291" lon="-2.2043910809">
        <ele>25.61</ele>
        <time>2018-11-05T11:30:47Z</time>
      </trkpt>
      <trkpt lat="36.7353645992" lon="-2.2042838763">
        <ele>26.09</ele>
        <time>2018-11-05T11:30:57Z</time>
      </trkpt>
      <trkpt lat="36.7351022456" lon="-2.2041457426">
        <ele>25.61</ele>
        <time>2018-11-05T11:31:07Z</time>
      </trkpt>
      <trkpt lat="36.7348648701" lon="-2.2040062677">
        <ele>26.57</ele>
        <time>2018-11-05T11:31:17Z</time>
      </trkpt>
      <trkpt lat="36.7345941346" lon="-2.2038380429">
        <ele>28.02</ele>
        <time>2018-11-05T11:31:28Z</time>
      </trkpt>
      <trkpt lat="36.7344041169" lon="-2.2037206963">
        <ele>28.02</ele>
        <time>2018-11-05T11:31:36Z</time>
      </trkpt>
      <trkpt lat="36.7341948207" lon="-2.2036005836">
        <ele>29.94</ele>
        <time>2018-11-05T11:31:46Z</time>
      </trkpt>
      <trkpt lat="36.7339859437" lon="-2.2034792136">
        <ele>31.86</ele>
        <time>2018-11-05T11:31:56Z</time>
      </trkpt>
      <trkpt lat="36.7337929923" lon="-2.2033578437">
        <ele>32.82</ele>
        <time>2018-11-05T11:32:06Z</time>
      </trkpt>
      <trkpt lat="36.7336624861" lon="-2.2032599431">
        <ele>34.26</ele>
        <time>2018-11-05T11:32:13Z</time>
      </trkpt>
      <trkpt lat="36.7335234303" lon="-2.2031757049">
        <ele>34.74</ele>
        <time>2018-11-05T11:32:21Z</time>
      </trkpt>
      <trkpt lat="36.7333441414" lon="-2.2030541673">
        <ele>34.74</ele>
        <time>2018-11-05T11:32:31Z</time>
      </trkpt>
      <trkpt lat="36.7332153115" lon="-2.2029538359">
        <ele>36.19</ele>
        <time>2018-11-05T11:32:39Z</time>
      </trkpt>
      <trkpt lat="36.7330985516" lon="-2.2028809134">
        <ele>36.67</ele>
        <time>2018-11-05T11:32:46Z</time>
      </trkpt>
      <trkpt lat="36.7330818716" lon="-2.2028686758">
        <ele>37.15</ele>
        <time>2018-11-05T11:32:47Z</time>
      </trkpt>
      <trkpt lat="36.7330647726" lon="-2.2028584499">
        <ele>37.15</ele>
        <time>2018-11-05T11:32:48Z</time>
      </trkpt>
      <trkpt lat="36.7330473382" lon="-2.2028492298">
        <ele>37.15</ele>
        <time>2018-11-05T11:32:49Z</time>
      </trkpt>
      <trkpt lat="36.7330301553" lon="-2.2028400935">
        <ele>37.15</ele>
        <time>2018-11-05T11:32:50Z</time>
      </trkpt>
      <trkpt lat="36.7330131400" lon="-2.2028311249">
        <ele>37.15</ele>
        <time>2018-11-05T11:32:51Z</time>
      </trkpt>
      <trkpt lat="36.7329525389" lon="-2.2027830966">
        <ele>37.63</ele>
        <time>2018-11-05T11:32:55Z</time>
      </trkpt>
      <trkpt lat="36.7329337634" lon="-2.2027773969">
        <ele>37.63</ele>
        <time>2018-11-05T11:32:56Z</time>
      </trkpt>
      <trkpt lat="36.7329172511" lon="-2.2027703561">
        <ele>37.63</ele>
        <time>2018-11-05T11:32:57Z</time>
      </trkpt>
      <trkpt lat="36.7329006549" lon="-2.2027603816">
        <ele>38.11</ele>
        <time>2018-11-05T11:32:58Z</time>
      </trkpt>
      <trkpt lat="36.7328864057" lon="-2.2027476411">
        <ele>38.11</ele>
        <time>2018-11-05T11:32:59Z</time>
      </trkpt>
      <trkpt lat="36.7328711506" lon="-2.2027375828">
        <ele>38.59</ele>
        <time>2018-11-05T11:33:00Z</time>
      </trkpt>
      <trkpt lat="36.7328536324" lon="-2.2027323861">
        <ele>38.59</ele>
        <time>2018-11-05T11:33:01Z</time>
      </trkpt>
      <trkpt lat="36.7328336835" lon="-2.2027275246">
        <ele>38.59</ele>
        <time>2018-11-05T11:33:02Z</time>
      </trkpt>
      <trkpt lat="36.7328165844" lon="-2.2027196456">
        <ele>38.59</ele>
        <time>2018-11-05T11:33:03Z</time>
      </trkpt>
      <trkpt lat="36.7327988148" lon="-2.2027098387">
        <ele>39.07</ele>
        <time>2018-11-05T11:33:04Z</time>
      </trkpt>
      <trkpt lat="36.7327813804" lon="-2.2026976850">
        <ele>39.07</ele>
        <time>2018-11-05T11:33:05Z</time>
      </trkpt>
      <trkpt lat="36.7327650357" lon="-2.2026899736">
        <ele>39.55</ele>
        <time>2018-11-05T11:33:06Z</time>
      </trkpt>
      <trkpt lat="36.7327478528" lon="-2.2026814241">
        <ele>39.55</ele>
        <time>2018-11-05T11:33:07Z</time>
      </trkpt>
      <trkpt lat="36.7327291612" lon="-2.2026729584">
        <ele>40.03</ele>
        <time>2018-11-05T11:33:08Z</time>
      </trkpt>
      <trkpt lat="36.7327142414" lon="-2.2026640736">
        <ele>40.03</ele>
        <time>2018-11-05T11:33:09Z</time>
      </trkpt>
      <trkpt lat="36.7325707432" lon="-2.2026163805">
        <ele>40.99</ele>
        <time>2018-11-05T11:33:17Z</time>
      </trkpt>
      <trkpt lat="36.7324257363" lon="-2.2025551088">
        <ele>42.92</ele>
        <time>2018-11-05T11:33:26Z</time>
      </trkpt>
      <trkpt lat="36.7322943918" lon="-2.2024682723">
        <ele>45.32</ele>
        <time>2018-11-05T11:33:35Z</time>
      </trkpt>
      <trkpt lat="36.7322026100" lon="-2.2023722995">
        <ele>47.72</ele>
        <time>2018-11-05T11:33:43Z</time>
      </trkpt>
      <trkpt lat="36.7321971618" lon="-2.2023617383">
        <ele>48.20</ele>
        <time>2018-11-05T11:33:44Z</time>
      </trkpt>
      <trkpt lat="36.7321196292" lon="-2.2022425476">
        <ele>48.68</ele>
        <time>2018-11-05T11:33:52Z</time>
      </trkpt>
      <trkpt lat="36.7320458684" lon="-2.2021066770">
        <ele>50.13</ele>
        <time>2018-11-05T11:34:01Z</time>
      </trkpt>
      <trkpt lat="36.7319770530" lon="-2.2019851394">
        <ele>51.57</ele>
        <time>2018-11-05T11:34:09Z</time>
      </trkpt>
      <trkpt lat="36.7319075670" lon="-2.2018875740">
        <ele>52.53</ele>
        <time>2018-11-05T11:34:16Z</time>
      </trkpt>
      <trkpt lat="36.7318986822" lon="-2.2018732410">
        <ele>52.53</ele>
        <time>2018-11-05T11:34:17Z</time>
      </trkpt>
      <trkpt lat="36.7318866961" lon="-2.2018649429">
        <ele>53.01</ele>
        <time>2018-11-05T11:34:18Z</time>
      </trkpt>
      <trkpt lat="36.7318771407" lon="-2.2018516157">
        <ele>53.49</ele>
        <time>2018-11-05T11:34:19Z</time>
      </trkpt>
      <trkpt lat="36.7318667471" lon="-2.2018408030">
        <ele>53.49</ele>
        <time>2018-11-05T11:34:20Z</time>
      </trkpt>
      <trkpt lat="36.7318576109" lon="-2.2018282302">
        <ele>53.49</ele>
        <time>2018-11-05T11:34:21Z</time>
      </trkpt>
      <trkpt lat="36.7318483908" lon="-2.2018143162">
        <ele>53.97</ele>
        <time>2018-11-05T11:34:22Z</time>
      </trkpt>
      <trkpt lat="36.7318386678" lon="-2.2017993126">
        <ele>53.97</ele>
        <time>2018-11-05T11:34:23Z</time>
      </trkpt>
      <trkpt lat="36.7318271846" lon="-2.2017863207">
        <ele>53.97</ele>
        <time>2018-11-05T11:34:24Z</time>
      </trkpt>
      <trkpt lat="36.7317245901" lon="-2.2016738355">
        <ele>55.41</ele>
        <time>2018-11-05T11:34:33Z</time>
      </trkpt>
      <trkpt lat="36.7316251807" lon="-2.2015789524">
        <ele>57.34</ele>
        <time>2018-11-05T11:34:41Z</time>
      </trkpt>
      <trkpt lat="36.7315391824" lon="-2.2014935408">
        <ele>58.78</ele>
        <time>2018-11-05T11:34:49Z</time>
      </trkpt>
      <trkpt lat="36.7314215843" lon="-2.2013841569">
        <ele>59.26</ele>
        <time>2018-11-05T11:34:58Z</time>
      </trkpt>
      <trkpt lat="36.7312925868" lon="-2.2012767848">
        <ele>61.18</ele>
        <time>2018-11-05T11:35:08Z</time>
      </trkpt>
      <trkpt lat="36.7311898246" lon="-2.2011905350">
        <ele>62.14</ele>
        <time>2018-11-05T11:35:16Z</time>
      </trkpt>
      <trkpt lat="36.7311112862" lon="-2.2011239827">
        <ele>62.14</ele>
        <time>2018-11-05T11:35:23Z</time>
      </trkpt>
      <trkpt lat="36.7309938557" lon="-2.2010228969">
        <ele>63.10</ele>
        <time>2018-11-05T11:35:33Z</time>
      </trkpt>
      <trkpt lat="36.7309090309" lon="-2.2009431012">
        <ele>64.55</ele>
        <time>2018-11-05T11:35:40Z</time>
      </trkpt>
      <trkpt lat="36.7307855655" lon="-2.2008559294">
        <ele>65.03</ele>
        <time>2018-11-05T11:35:49Z</time>
      </trkpt>
      <trkpt lat="36.7307743337" lon="-2.2008441109">
        <ele>65.03</ele>
        <time>2018-11-05T11:35:50Z</time>
      </trkpt>
      <trkpt lat="36.7307620123" lon="-2.2008370701">
        <ele>65.03</ele>
        <time>2018-11-05T11:35:51Z</time>
      </trkpt>
      <trkpt lat="36.7307481822" lon="-2.2008289397">
        <ele>65.51</ele>
        <time>2018-11-05T11:35:52Z</time>
      </trkpt>
      <trkpt lat="36.7307340167" lon="-2.2008199710">
        <ele>65.51</ele>
        <time>2018-11-05T11:35:53Z</time>
      </trkpt>
      <trkpt lat="36.7305824719" lon="-2.2007486410">
        <ele>66.95</ele>
        <time>2018-11-05T11:36:03Z</time>
      </trkpt>
      <trkpt lat="36.7304319330" lon="-2.2006768081">
        <ele>67.91</ele>
        <time>2018-11-05T11:36:13Z</time>
      </trkpt>
      <trkpt lat="36.7303085513" lon="-2.2006284446">
        <ele>68.87</ele>
        <time>2018-11-05T11:36:22Z</time>
      </trkpt>
      <trkpt lat="36.7301513907" lon="-2.2005759738">
        <ele>69.35</ele>
        <time>2018-11-05T11:36:32Z</time>
      </trkpt>
      <trkpt lat="36.7300783843" lon="-2.2005452123">
        <ele>70.79</ele>
        <time>2018-11-05T11:36:38Z</time>
      </trkpt>
      <trkpt lat="36.7300654761" lon="-2.2005375009">
        <ele>70.79</ele>
        <time>2018-11-05T11:36:39Z</time>
      </trkpt>
      <trkpt lat="36.7300520651" lon="-2.2005335614">
        <ele>71.27</ele>
        <time>2018-11-05T11:36:40Z</time>
      </trkpt>
      <trkpt lat="36.7300388217" lon="-2.2005328909">
        <ele>71.27</ele>
        <time>2018-11-05T11:36:41Z</time>
      </trkpt>
      <trkpt lat="36.7300249077" lon="-2.2005325556">
        <ele>71.27</ele>
        <time>2018-11-05T11:36:42Z</time>
      </trkpt>
      <trkpt lat="36.7300118320" lon="-2.2005298734">
        <ele>71.27</ele>
        <time>2018-11-05T11:36:43Z</time>
      </trkpt>
      <trkpt lat="36.7299980856" lon="-2.2005255986">
        <ele>71.27</ele>
        <time>2018-11-05T11:36:44Z</time>
      </trkpt>
      <trkpt lat="36.7298990954" lon="-2.2004932445">
        <ele>72.24</ele>
        <time>2018-11-05T11:36:51Z</time>
      </trkpt>
      <trkpt lat="36.7298846785" lon="-2.2004831862">
        <ele>72.24</ele>
        <time>2018-11-05T11:36:52Z</time>
      </trkpt>
      <trkpt lat="36.7297364864" lon="-2.2004213277">
        <ele>72.72</ele>
        <time>2018-11-05T11:37:01Z</time>
      </trkpt>
      <trkpt lat="36.7296054773" lon="-2.2003325634">
        <ele>73.20</ele>
        <time>2018-11-05T11:37:09Z</time>
      </trkpt>
      <trkpt lat="36.7294619791" lon="-2.2002144624">
        <ele>74.64</ele>
        <time>2018-11-05T11:37:18Z</time>
      </trkpt>
      <trkpt lat="36.7293851171" lon="-2.2001298890">
        <ele>75.12</ele>
        <time>2018-11-05T11:37:25Z</time>
      </trkpt>
      <trkpt lat="36.7293872964" lon="-2.2001168132">
        <ele>75.60</ele>
        <time>2018-11-05T11:37:33Z</time>
      </trkpt>
      <trkpt lat="36.7294035573" lon="-2.2001242731">
        <ele>75.12</ele>
        <time>2018-11-05T11:37:46Z</time>
      </trkpt>
      <trkpt lat="36.7293943372" lon="-2.2001355048">
        <ele>76.56</ele>
        <time>2018-11-05T11:38:00Z</time>
      </trkpt>
      <trkpt lat="36.7293778248" lon="-2.2001251113">
        <ele>78.97</ele>
        <time>2018-11-05T11:38:15Z</time>
      </trkpt>
      <trkpt lat="36.7293915711" lon="-2.2001139633">
        <ele>78.00</ele>
        <time>2018-11-05T11:38:32Z</time>
      </trkpt>
      <trkpt lat="36.7293847818" lon="-2.2001176514">
        <ele>77.04</ele>
        <time>2018-11-05T11:38:50Z</time>
      </trkpt>
      <trkpt lat="36.7293871287" lon="-2.2000911646">
        <ele>78.00</ele>
        <time>2018-11-05T11:39:07Z</time>
      </trkpt>
      <trkpt lat="36.7293723766" lon="-2.2001030669">
        <ele>78.48</ele>
        <time>2018-11-05T11:39:14Z</time>
      </trkpt>
      <trkpt lat="36.7293739691" lon="-2.2001215909">
        <ele>78.00</ele>
        <time>2018-11-05T11:39:30Z</time>
      </trkpt>
      <trkpt lat="36.7293884698" lon="-2.2001317330">
        <ele>76.56</ele>
        <time>2018-11-05T11:39:45Z</time>
      </trkpt>
      <trkpt lat="36.7293934990" lon="-2.2000961937">
        <ele>78.48</ele>
        <time>2018-11-05T11:39:56Z</time>
      </trkpt>
      <trkpt lat="36.7293861229" lon="-2.2001069225">
        <ele>76.08</ele>
        <time>2018-11-05T11:40:16Z</time>
      </trkpt>
      <trkpt lat="36.7293525953" lon="-2.2000530269">
        <ele>76.08</ele>
        <time>2018-11-05T11:40:23Z</time>
      </trkpt>
      <trkpt lat="36.7292916588" lon="-2.1999100316">
        <ele>76.56</ele>
        <time>2018-11-05T11:40:30Z</time>
      </trkpt>
      <trkpt lat="36.7292207479" lon="-2.1997219417">
        <ele>76.56</ele>
        <time>2018-11-05T11:40:38Z</time>
      </trkpt>
      <trkpt lat="36.7290970311" lon="-2.1994972229">
        <ele>78.48</ele>
        <time>2018-11-05T11:40:48Z</time>
      </trkpt>
      <trkpt lat="36.7289671954" lon="-2.1993185207">
        <ele>79.45</ele>
        <time>2018-11-05T11:40:57Z</time>
      </trkpt>
      <trkpt lat="36.7287770100" lon="-2.1991234738">
        <ele>81.85</ele>
        <time>2018-11-05T11:41:08Z</time>
      </trkpt>
      <trkpt lat="36.7285473458" lon="-2.1990027744">
        <ele>82.81</ele>
        <time>2018-11-05T11:41:19Z</time>
      </trkpt>
      <trkpt lat="36.7283398937" lon="-2.1990595199">
        <ele>83.77</ele>
        <time>2018-11-05T11:41:28Z</time>
      </trkpt>
      <trkpt lat="36.7281392310" lon="-2.1991450153">
        <ele>85.69</ele>
        <time>2018-11-05T11:41:37Z</time>
      </trkpt>
      <trkpt lat="36.7280134186" lon="-2.1991047822">
        <ele>86.66</ele>
        <time>2018-11-05T11:41:43Z</time>
      </trkpt>
      <trkpt lat="36.7279924639" lon="-2.1989313606">
        <ele>87.62</ele>
        <time>2018-11-05T11:41:50Z</time>
      </trkpt>
      <trkpt lat="36.7280183639" lon="-2.1987068933">
        <ele>90.02</ele>
        <time>2018-11-05T11:41:59Z</time>
      </trkpt>
      <trkpt lat="36.7280501314" lon="-2.1984080784">
        <ele>93.39</ele>
        <time>2018-11-05T11:42:11Z</time>
      </trkpt>
      <trkpt lat="36.7280503828" lon="-2.1981591359">
        <ele>95.31</ele>
        <time>2018-11-05T11:42:21Z</time>
      </trkpt>
      <trkpt lat="36.7280253209" lon="-2.1980177332">
        <ele>96.75</ele>
        <time>2018-11-05T11:42:28Z</time>
      </trkpt>
      <trkpt lat="36.7279543262" lon="-2.1978267934">
        <ele>98.19</ele>
        <time>2018-11-05T11:42:37Z</time>
      </trkpt>
      <trkpt lat="36.7279693298" lon="-2.1976533718">
        <ele>99.15</ele>
        <time>2018-11-05T11:42:44Z</time>
      </trkpt>
      <trkpt lat="36.7279823218" lon="-2.1975897532">
        <ele>99.63</ele>
        <time>2018-11-05T11:42:48Z</time>
      </trkpt>
      <trkpt lat="36.7280316073" lon="-2.1974111348">
        <ele>100.60</ele>
        <time>2018-11-05T11:42:57Z</time>
      </trkpt>
      <trkpt lat="36.7280351277" lon="-2.1972657088">
        <ele>102.04</ele>
        <time>2018-11-05T11:43:05Z</time>
      </trkpt>
      <trkpt lat="36.7280430067" lon="-2.1970361285">
        <ele>104.92</ele>
        <time>2018-11-05T11:43:15Z</time>
      </trkpt>
      <trkpt lat="36.7280287575" lon="-2.1968263295">
        <ele>105.40</ele>
        <time>2018-11-05T11:43:24Z</time>
      </trkpt>
      <trkpt lat="36.7280207947" lon="-2.1967277583">
        <ele>104.92</ele>
        <time>2018-11-05T11:43:31Z</time>
      </trkpt>
      <trkpt lat="36.7280225549" lon="-2.1967120841">
        <ele>104.92</ele>
        <time>2018-11-05T11:43:38Z</time>
      </trkpt>
      <trkpt lat="36.7280199565" lon="-2.1966949012">
        <ele>104.92</ele>
        <time>2018-11-05T11:43:39Z</time>
      </trkpt>
      <trkpt lat="36.7280181125" lon="-2.1966763772">
        <ele>105.40</ele>
        <time>2018-11-05T11:43:40Z</time>
      </trkpt>
      <trkpt lat="36.7280146759" lon="-2.1966561768">
        <ele>105.40</ele>
        <time>2018-11-05T11:43:41Z</time>
      </trkpt>
      <trkpt lat="36.7280083895" lon="-2.1966337133">
        <ele>105.40</ele>
        <time>2018-11-05T11:43:42Z</time>
      </trkpt>
      <trkpt lat="36.7279807292" lon="-2.1965482179">
        <ele>104.92</ele>
        <time>2018-11-05T11:43:48Z</time>
      </trkpt>
      <trkpt lat="36.7279731017" lon="-2.1965498943">
        <ele>103.96</ele>
        <time>2018-11-05T11:44:01Z</time>
      </trkpt>
      <trkpt lat="36.7279745266" lon="-2.1965224016">
        <ele>102.04</ele>
        <time>2018-11-05T11:44:16Z</time>
      </trkpt>
      <trkpt lat="36.7279311083" lon="-2.1963799093">
        <ele>101.08</ele>
        <time>2018-11-05T11:44:24Z</time>
      </trkpt>
      <trkpt lat="36.7279094830" lon="-2.1963544283">
        <ele>101.08</ele>
        <time>2018-11-05T11:44:30Z</time>
      </trkpt>
      <trkpt lat="36.7279054597" lon="-2.1963665821">
        <ele>100.60</ele>
        <time>2018-11-05T11:44:46Z</time>
      </trkpt>
      <trkpt lat="36.7279010173" lon="-2.1963379160">
        <ele>102.52</ele>
        <time>2018-11-05T11:44:59Z</time>
      </trkpt>
      <trkpt lat="36.7279014364" lon="-2.1963334735">
        <ele>103.48</ele>
        <time>2018-11-05T11:45:03Z</time>
      </trkpt>
      <trkpt lat="36.7278989218" lon="-2.1963193920">
        <ele>103.48</ele>
        <time>2018-11-05T11:45:04Z</time>
      </trkpt>
      <trkpt lat="36.7278945632" lon="-2.1963010356">
        <ele>103.48</ele>
        <time>2018-11-05T11:45:05Z</time>
      </trkpt>
      <trkpt lat="36.7278708424" lon="-2.1960935835">
        <ele>101.56</ele>
        <time>2018-11-05T11:45:10Z</time>
      </trkpt>
      <trkpt lat="36.7278311960" lon="-2.1956816129">
        <ele>99.15</ele>
        <time>2018-11-05T11:45:16Z</time>
      </trkpt>
      <trkpt lat="36.7278560903" lon="-2.1954378672">
        <ele>96.27</ele>
        <time>2018-11-05T11:45:20Z</time>
      </trkpt>
      <trkpt lat="36.7278739437" lon="-2.1953808703">
        <ele>95.79</ele>
        <time>2018-11-05T11:45:21Z</time>
      </trkpt>
      <trkpt lat="36.7278990056" lon="-2.1953276452">
        <ele>95.79</ele>
        <time>2018-11-05T11:45:22Z</time>
      </trkpt>
      <trkpt lat="36.7279319465" lon="-2.1952734143">
        <ele>95.31</ele>
        <time>2018-11-05T11:45:23Z</time>
      </trkpt>
      <trkpt lat="36.7279668991" lon="-2.1952230390">
        <ele>94.35</ele>
        <time>2018-11-05T11:45:24Z</time>
      </trkpt>
      <trkpt lat="36.7283087131" lon="-2.1948638745">
        <ele>89.06</ele>
        <time>2018-11-05T11:45:31Z</time>
      </trkpt>
      <trkpt lat="36.7283692304" lon="-2.1948340349">
        <ele>88.10</ele>
        <time>2018-11-05T11:45:32Z</time>
      </trkpt>
      <trkpt lat="36.7284319270" lon="-2.1948086377">
        <ele>87.14</ele>
        <time>2018-11-05T11:45:33Z</time>
      </trkpt>
      <trkpt lat="36.7288398743" lon="-2.1947387327">
        <ele>81.85</ele>
        <time>2018-11-05T11:45:39Z</time>
      </trkpt>
      <trkpt lat="36.7289081868" lon="-2.1947494615">
        <ele>80.89</ele>
        <time>2018-11-05T11:45:40Z</time>
      </trkpt>
      <trkpt lat="36.7291354202" lon="-2.1948041953">
        <ele>77.04</ele>
        <time>2018-11-05T11:45:44Z</time>
      </trkpt>
      <trkpt lat="36.7291780841" lon="-2.1947986633">
        <ele>76.56</ele>
        <time>2018-11-05T11:45:45Z</time>
      </trkpt>
      <trkpt lat="36.7292140424" lon="-2.1947745234">
        <ele>75.60</ele>
        <time>2018-11-05T11:45:46Z</time>
      </trkpt>
      <trkpt lat="36.7292425409" lon="-2.1947347093">
        <ele>75.12</ele>
        <time>2018-11-05T11:45:47Z</time>
      </trkpt>
      <trkpt lat="36.7292619031" lon="-2.1946756169">
        <ele>74.16</ele>
        <time>2018-11-05T11:45:48Z</time>
      </trkpt>
      <trkpt lat="36.7292704526" lon="-2.1946066339">
        <ele>73.68</ele>
        <time>2018-11-05T11:45:49Z</time>
      </trkpt>
      <trkpt lat="36.7292763200" lon="-2.1945327893">
        <ele>72.72</ele>
        <time>2018-11-05T11:45:50Z</time>
      </trkpt>
      <trkpt lat="36.7292891443" lon="-2.1944546700">
        <ele>72.24</ele>
        <time>2018-11-05T11:45:51Z</time>
      </trkpt>
      <trkpt lat="36.7293123621" lon="-2.1943826694">
        <ele>71.27</ele>
        <time>2018-11-05T11:45:52Z</time>
      </trkpt>
      <trkpt lat="36.7293430399" lon="-2.1943133511">
        <ele>70.31</ele>
        <time>2018-11-05T11:45:53Z</time>
      </trkpt>
      <trkpt lat="36.7296058964" lon="-2.1936650947">
        <ele>64.07</ele>
        <time>2018-11-05T11:46:01Z</time>
      </trkpt>
      <trkpt lat="36.7297210637" lon="-2.1931585763">
        <ele>59.74</ele>
        <time>2018-11-05T11:46:07Z</time>
      </trkpt>
      <trkpt lat="36.7297336366" lon="-2.1929858252">
        <ele>58.30</ele>
        <time>2018-11-05T11:46:09Z</time>
      </trkpt>
      <trkpt lat="36.7297278531" lon="-2.1929065324">
        <ele>57.34</ele>
        <time>2018-11-05T11:46:10Z</time>
      </trkpt>
      <trkpt lat="36.7297117598" lon="-2.1928310953">
        <ele>56.86</ele>
        <time>2018-11-05T11:46:11Z</time>
      </trkpt>
      <trkpt lat="36.7296862788" lon="-2.1927562449">
        <ele>55.89</ele>
        <time>2018-11-05T11:46:12Z</time>
      </trkpt>
      <trkpt lat="36.7296581157" lon="-2.1926892735">
        <ele>55.41</ele>
        <time>2018-11-05T11:46:13Z</time>
      </trkpt>
      <trkpt lat="36.7296263482" lon="-2.1926216315">
        <ele>54.45</ele>
        <time>2018-11-05T11:46:14Z</time>
      </trkpt>
      <trkpt lat="36.7293493263" lon="-2.1921263449">
        <ele>49.16</ele>
        <time>2018-11-05T11:46:21Z</time>
      </trkpt>
      <trkpt lat="36.7292455584" lon="-2.1920065675">
        <ele>47.24</ele>
        <time>2018-11-05T11:46:23Z</time>
      </trkpt>
      <trkpt lat="36.7291914113" lon="-2.1919622272">
        <ele>46.28</ele>
        <time>2018-11-05T11:46:24Z</time>
      </trkpt>
      <trkpt lat="36.7291343305" lon="-2.1919266880">
        <ele>45.32</ele>
        <time>2018-11-05T11:46:25Z</time>
      </trkpt>
      <trkpt lat="36.7290709633" lon="-2.1919013746">
        <ele>44.36</ele>
        <time>2018-11-05T11:46:26Z</time>
      </trkpt>
      <trkpt lat="36.7290026508" lon="-2.1918882988">
        <ele>43.40</ele>
        <time>2018-11-05T11:46:27Z</time>
      </trkpt>
      <trkpt lat="36.7289376073" lon="-2.1918899752">
        <ele>42.44</ele>
        <time>2018-11-05T11:46:28Z</time>
      </trkpt>
      <trkpt lat="36.7288735695" lon="-2.1919055656">
        <ele>41.95</ele>
        <time>2018-11-05T11:46:29Z</time>
      </trkpt>
      <trkpt lat="36.7288040835" lon="-2.1919365786">
        <ele>40.99</ele>
        <time>2018-11-05T11:46:30Z</time>
      </trkpt>
      <trkpt lat="36.7287340946" lon="-2.1919748839">
        <ele>40.03</ele>
        <time>2018-11-05T11:46:31Z</time>
      </trkpt>
      <trkpt lat="36.7282549851" lon="-2.1922403388">
        <ele>33.30</ele>
        <time>2018-11-05T11:46:37Z</time>
      </trkpt>
      <trkpt lat="36.7279978283" lon="-2.1923884470">
        <ele>34.74</ele>
        <time>2018-11-05T11:46:41Z</time>
      </trkpt>
      <trkpt lat="36.7276634742" lon="-2.1925094817">
        <ele>34.26</ele>
        <time>2018-11-05T11:46:48Z</time>
      </trkpt>
      <trkpt lat="36.7272548564" lon="-2.1925686579">
        <ele>30.90</ele>
        <time>2018-11-05T11:46:54Z</time>
      </trkpt>
      <trkpt lat="36.7265363596" lon="-2.1926138364">
        <ele>26.57</ele>
        <time>2018-11-05T11:47:03Z</time>
      </trkpt>
      <trkpt lat="36.7260490358" lon="-2.1926516388">
        <ele>23.69</ele>
        <time>2018-11-05T11:47:10Z</time>
      </trkpt>
      <trkpt lat="36.7256271746" lon="-2.1926741023">
        <ele>21.29</ele>
        <time>2018-11-05T11:47:18Z</time>
      </trkpt>
      <trkpt lat="36.7255741172" lon="-2.1926688217">
        <ele>20.81</ele>
        <time>2018-11-05T11:47:19Z</time>
      </trkpt>
      <trkpt lat="36.7255230714" lon="-2.1926540695">
        <ele>20.32</ele>
        <time>2018-11-05T11:47:20Z</time>
      </trkpt>
      <trkpt lat="36.7254661582" lon="-2.1926267445">
        <ele>20.32</ele>
        <time>2018-11-05T11:47:21Z</time>
      </trkpt>
      <trkpt lat="36.7254119273" lon="-2.1925927978">
        <ele>20.32</ele>
        <time>2018-11-05T11:47:22Z</time>
      </trkpt>
      <trkpt lat="36.7253692634" lon="-2.1925642993">
        <ele>19.84</ele>
        <time>2018-11-05T11:47:23Z</time>
      </trkpt>
      <trkpt lat="36.7251292896" lon="-2.1923734434">
        <ele>19.84</ele>
        <time>2018-11-05T11:47:29Z</time>
      </trkpt>
      <trkpt lat="36.7250135355" lon="-2.1922572702">
        <ele>20.32</ele>
        <time>2018-11-05T11:47:35Z</time>
      </trkpt>
      <trkpt lat="36.7248030659" lon="-2.1920478903">
        <ele>21.29</ele>
        <time>2018-11-05T11:47:46Z</time>
      </trkpt>
      <trkpt lat="36.7245828733" lon="-2.1918495744">
        <ele>22.73</ele>
        <time>2018-11-05T11:47:57Z</time>
      </trkpt>
      <trkpt lat="36.7243630160" lon="-2.1916649211">
        <ele>23.21</ele>
        <time>2018-11-05T11:48:08Z</time>
      </trkpt>
      <trkpt lat="36.7241701484" lon="-2.1914943494">
        <ele>24.65</ele>
        <time>2018-11-05T11:48:18Z</time>
      </trkpt>
      <trkpt lat="36.7240110599" lon="-2.1913363505">
        <ele>26.09</ele>
        <time>2018-11-05T11:48:27Z</time>
      </trkpt>
      <trkpt lat="36.7239178531" lon="-2.1912212670">
        <ele>27.05</ele>
        <time>2018-11-05T11:48:34Z</time>
      </trkpt>
      <trkpt lat="36.7237884365" lon="-2.1910268068">
        <ele>28.50</ele>
        <time>2018-11-05T11:48:43Z</time>
      </trkpt>
      <trkpt lat="36.7237255722" lon="-2.1908909362">
        <ele>29.46</ele>
        <time>2018-11-05T11:48:50Z</time>
      </trkpt>
      <trkpt lat="36.7236703355" lon="-2.1907864138">
        <ele>29.94</ele>
        <time>2018-11-05T11:48:56Z</time>
      </trkpt>
      <trkpt lat="36.7236567568" lon="-2.1907846536">
        <ele>29.46</ele>
        <time>2018-11-05T11:48:57Z</time>
      </trkpt>
      <trkpt lat="36.7236445192" lon="-2.1907864138">
        <ele>29.46</ele>
        <time>2018-11-05T11:48:58Z</time>
      </trkpt>
      <trkpt lat="36.7236301862" lon="-2.1907915268">
        <ele>29.94</ele>
        <time>2018-11-05T11:48:59Z</time>
      </trkpt>
      <trkpt lat="36.7236130871" lon="-2.1908037644">
        <ele>29.94</ele>
        <time>2018-11-05T11:49:00Z</time>
      </trkpt>
      <trkpt lat="36.7235966586" lon="-2.1908205282">
        <ele>29.94</ele>
        <time>2018-11-05T11:49:01Z</time>
      </trkpt>
      <trkpt lat="36.7235777993" lon="-2.1908424050">
        <ele>29.94</ele>
        <time>2018-11-05T11:49:02Z</time>
      </trkpt>
      <trkpt lat="36.7235625442" lon="-2.1908638626">
        <ele>29.94</ele>
        <time>2018-11-05T11:49:03Z</time>
      </trkpt>
      <trkpt lat="36.7235487141" lon="-2.1908891760">
        <ele>30.42</ele>
        <time>2018-11-05T11:49:04Z</time>
      </trkpt>
      <trkpt lat="36.7235364765" lon="-2.1909097116">
        <ele>30.42</ele>
        <time>2018-11-05T11:49:05Z</time>
      </trkpt>
      <trkpt lat="36.7235219758" lon="-2.1909310855">
        <ele>30.42</ele>
        <time>2018-11-05T11:49:06Z</time>
      </trkpt>
      <trkpt lat="36.7234267574" lon="-2.1910330094">
        <ele>30.42</ele>
        <time>2018-11-05T11:49:13Z</time>
      </trkpt>
      <trkpt lat="36.7234229017" lon="-2.1910470910">
        <ele>30.42</ele>
        <time>2018-11-05T11:49:14Z</time>
      </trkpt>
      <trkpt lat="36.7233783100" lon="-2.1910631843">
        <ele>30.90</ele>
        <time>2018-11-05T11:49:21Z</time>
      </trkpt>
      <trkpt lat="36.7233733647" lon="-2.1910527069">
        <ele>30.42</ele>
        <time>2018-11-05T11:49:31Z</time>
      </trkpt>
      <trkpt lat="36.7233804055" lon="-2.1910736617">
        <ele>31.38</ele>
        <time>2018-11-05T11:49:45Z</time>
      </trkpt>
      <trkpt lat="36.7234161962" lon="-2.1910148207">
        <ele>28.02</ele>
        <time>2018-11-05T11:50:01Z</time>
      </trkpt>
      <trkpt lat="36.7234146036" lon="-2.1910121385">
        <ele>24.65</ele>
        <time>2018-11-05T11:50:20Z</time>
      </trkpt>
      <trkpt lat="36.7234136816" lon="-2.1910142340">
        <ele>24.65</ele>
        <time>2018-11-05T11:50:39Z</time>
      </trkpt>
      <trkpt lat="36.7234191298" lon="-2.1910100430">
        <ele>26.57</ele>
        <time>2018-11-05T11:51:00Z</time>
      </trkpt>
      <trkpt lat="36.7233989295" lon="-2.1910636872">
        <ele>25.61</ele>
        <time>2018-11-05T11:51:17Z</time>
      </trkpt>
      <trkpt lat="36.7233975884" lon="-2.1910879947">
        <ele>28.50</ele>
        <time>2018-11-05T11:51:39Z</time>
      </trkpt>
      <trkpt lat="36.7234201357" lon="-2.1910696384">
        <ele>35.23</ele>
        <time>2018-11-05T11:52:00Z</time>
      </trkpt>
      <trkpt lat="36.7233846802" lon="-2.1910638548">
        <ele>32.34</ele>
        <time>2018-11-05T11:52:21Z</time>
      </trkpt>
      <trkpt lat="36.7234160285" lon="-2.1910491027">
        <ele>40.03</ele>
        <time>2018-11-05T11:52:44Z</time>
      </trkpt>
      <trkpt lat="36.7234534118" lon="-2.1910058521">
        <ele>37.15</ele>
        <time>2018-11-05T11:53:05Z</time>
      </trkpt>
      <trkpt lat="36.7235674057" lon="-2.1909769345">
        <ele>40.03</ele>
        <time>2018-11-05T11:53:26Z</time>
      </trkpt>
      <trkpt lat="36.7235372309" lon="-2.1909992304">
        <ele>36.67</ele>
        <time>2018-11-05T11:53:40Z</time>
      </trkpt>
      <trkpt lat="36.7235423438" lon="-2.1910147369">
        <ele>28.50</ele>
        <time>2018-11-05T11:54:03Z</time>
      </trkpt>
      <trkpt lat="36.7235519830" lon="-2.1910094563">
        <ele>22.73</ele>
        <time>2018-11-05T11:54:23Z</time>
      </trkpt>
      <trkpt lat="36.7235885281" lon="-2.1910099592">
        <ele>20.81</ele>
        <time>2018-11-05T11:54:44Z</time>
      </trkpt>
      <trkpt lat="36.7236646358" lon="-2.1909867413">
        <ele>14.56</ele>
        <time>2018-11-05T11:55:05Z</time>
      </trkpt>
      <trkpt lat="36.7236494645" lon="-2.1909977216">
        <ele>10.71</ele>
        <time>2018-11-05T11:55:20Z</time>
      </trkpt>
      <trkpt lat="36.7236164398" lon="-2.1909595840">
        <ele>0.62</ele>
        <time>2018-11-05T11:55:41Z</time>
      </trkpt>
      <trkpt lat="36.7236482911" lon="-2.1909670439">
        <ele>1.58</ele>
        <time>2018-11-05T11:55:59Z</time>
      </trkpt>
      <trkpt lat="36.7236046214" lon="-2.1910103783">
        <ele>2.54</ele>
        <time>2018-11-05T11:56:22Z</time>
      </trkpt>
      <trkpt lat="36.7236146796" lon="-2.1909818798">
        <ele>2.54</ele>
        <time>2018-11-05T11:56:41Z</time>
      </trkpt>
      <trkpt lat="36.7236128356" lon="-2.1909896750">
        <ele>2.06</ele>
        <time>2018-11-05T11:57:03Z</time>
      </trkpt>
      <trkpt lat="36.7236222234" lon="-2.1910062712">
        <ele>0.14</ele>
        <time>2018-11-05T11:57:25Z</time>
      </trkpt>
      <trkpt lat="36.7237260751" lon="-2.1909320913">
        <ele>-9.48</ele>
        <time>2018-11-05T11:57:44Z</time>
      </trkpt>
      <trkpt lat="36.7237947229" lon="-2.1908817999">
        <ele>-10.44</ele>
        <time>2018-11-05T11:58:02Z</time>
      </trkpt>
      <trkpt lat="36.7237882689" lon="-2.1908910200">
        <ele>-5.15</ele>
        <time>2018-11-05T11:58:24Z</time>
      </trkpt>
      <trkpt lat="36.7237885203" lon="-2.1909304988">
        <ele>-6.11</ele>
        <time>2018-11-05T11:58:44Z</time>
      </trkpt>
      <trkpt lat="36.7238137498" lon="-2.1909303311">
        <ele>3.02</ele>
        <time>2018-11-05T11:59:08Z</time>
      </trkpt>
      <trkpt lat="36.7238308489" lon="-2.1909133159">
        <ele>7.35</ele>
        <time>2018-11-05T11:59:25Z</time>
      </trkpt>
      <trkpt lat="36.7238026857" lon="-2.1909284871">
        <ele>9.27</ele>
        <time>2018-11-05T11:59:44Z</time>
      </trkpt>
      <trkpt lat="36.7237930465" lon="-2.1909392159">
        <ele>10.23</ele>
        <time>2018-11-05T11:59:57Z</time>
      </trkpt>
      <trkpt lat="36.7237870954" lon="-2.1909610089">
        <ele>12.63</ele>
        <time>2018-11-05T12:00:09Z</time>
      </trkpt>
      <trkpt lat="36.7237784620" lon="-2.1909865737">
        <ele>14.08</ele>
        <time>2018-11-05T12:00:20Z</time>
      </trkpt>
      <trkpt lat="36.7237814795" lon="-2.1909672115">
        <ele>14.08</ele>
        <time>2018-11-05T12:00:39Z</time>
      </trkpt>
      <trkpt lat="36.7237865087" lon="-2.1909561474">
        <ele>16.00</ele>
        <time>2018-11-05T12:00:52Z</time>
      </trkpt>
      <trkpt lat="36.7237759475" lon="-2.1909649484">
        <ele>16.00</ele>
        <time>2018-11-05T12:01:13Z</time>
      </trkpt>
      <trkpt lat="36.7237488739" lon="-2.1910244599">
        <ele>17.92</ele>
        <time>2018-11-05T12:01:31Z</time>
      </trkpt>
      <trkpt lat="36.7237150948" lon="-2.1909983084">
        <ele>13.12</ele>
        <time>2018-11-05T12:01:48Z</time>
      </trkpt>
      <trkpt lat="36.7237746064" lon="-2.1909750905">
        <ele>10.71</ele>
        <time>2018-11-05T12:02:09Z</time>
      </trkpt>
      <trkpt lat="36.7237656377" lon="-2.1910110489">
        <ele>11.19</ele>
        <time>2018-11-05T12:02:27Z</time>
      </trkpt>
      <trkpt lat="36.7238062061" lon="-2.1909708995">
        <ele>9.27</ele>
        <time>2018-11-05T12:02:45Z</time>
      </trkpt>
      <trkpt lat="36.7237928789" lon="-2.1909561474">
        <ele>3.98</ele>
        <time>2018-11-05T12:03:05Z</time>
      </trkpt>
      <trkpt lat="36.7237986624" lon="-2.1909701452">
        <ele>6.39</ele>
        <time>2018-11-05T12:03:23Z</time>
      </trkpt>
      <trkpt lat="36.7238768656" lon="-2.1909231227">
        <ele>6.39</ele>
        <time>2018-11-05T12:03:41Z</time>
      </trkpt>
      <trkpt lat="36.7238392308" lon="-2.1909370366">
        <ele>3.98</ele>
        <time>2018-11-05T12:03:58Z</time>
      </trkpt>
      <trkpt lat="36.7237708345" lon="-2.1909506153">
        <ele>0.62</ele>
        <time>2018-11-05T12:04:17Z</time>
      </trkpt>
      <trkpt lat="36.7237347923" lon="-2.1909691393">
        <ele>-5.15</ele>
        <time>2018-11-05T12:04:40Z</time>
      </trkpt>
      <trkpt lat="36.7237616144" lon="-2.1909481008">
        <ele>-6.59</ele>
        <time>2018-11-05T12:04:58Z</time>
      </trkpt>
      <trkpt lat="36.7237008456" lon="-2.1909700613">
        <ele>-4.19</ele>
        <time>2018-11-05T12:05:15Z</time>
      </trkpt>
      <trkpt lat="36.7237162683" lon="-2.1909396350">
        <ele>-10.92</ele>
        <time>2018-11-05T12:05:39Z</time>
      </trkpt>
      <trkpt lat="36.7237724271" lon="-2.1909056045">
        <ele>-9.00</ele>
        <time>2018-11-05T12:05:59Z</time>
      </trkpt>
      <trkpt lat="36.7237516399" lon="-2.1909408085">
        <ele>-10.44</ele>
        <time>2018-11-05T12:06:18Z</time>
      </trkpt>
      <trkpt lat="36.7237544060" lon="-2.1909283195">
        <ele>-9.00</ele>
        <time>2018-11-05T12:06:38Z</time>
      </trkpt>
      <trkpt lat="36.7237354629" lon="-2.1909396350">
        <ele>-6.11</ele>
        <time>2018-11-05T12:07:01Z</time>
      </trkpt>
      <trkpt lat="36.7237228900" lon="-2.1909341868">
        <ele>-6.59</ele>
        <time>2018-11-05T12:07:20Z</time>
      </trkpt>
      <trkpt lat="36.7237189505" lon="-2.1909237094">
        <ele>-3.71</ele>
        <time>2018-11-05T12:07:43Z</time>
      </trkpt>
      <trkpt lat="36.7237286735" lon="-2.1909438260">
        <ele>-3.71</ele>
        <time>2018-11-05T12:08:03Z</time>
      </trkpt>
      <trkpt lat="36.7237016000" lon="-2.1909506992">
        <ele>0.62</ele>
        <time>2018-11-05T12:08:22Z</time>
      </trkpt>
      <trkpt lat="36.7236487940" lon="-2.1910230350">
        <ele>0.14</ele>
        <time>2018-11-05T12:08:45Z</time>
      </trkpt>
      <trkpt lat="36.7236315273" lon="-2.1909766831">
        <ele>2.54</ele>
        <time>2018-11-05T12:09:07Z</time>
      </trkpt>
      <trkpt lat="36.7236352991" lon="-2.1909807064">
        <ele>6.87</ele>
        <time>2018-11-05T12:09:29Z</time>
      </trkpt>
      <trkpt lat="36.7236323655" lon="-2.1909839753">
        <ele>4.46</ele>
        <time>2018-11-05T12:09:48Z</time>
      </trkpt>
      <trkpt lat="36.7236440163" lon="-2.1909683011">
        <ele>2.06</ele>
        <time>2018-11-05T12:10:09Z</time>
      </trkpt>
      <trkpt lat="36.7236397415" lon="-2.1909672115">
        <ele>4.46</ele>
        <time>2018-11-05T12:10:28Z</time>
      </trkpt>
      <trkpt lat="36.7236530688" lon="-2.1909269784">
        <ele>5.91</ele>
        <time>2018-11-05T12:10:52Z</time>
      </trkpt>
      <trkpt lat="36.7236444354" lon="-2.1908895951">
        <ele>8.79</ele>
        <time>2018-11-05T12:11:13Z</time>
      </trkpt>
      <trkpt lat="36.7236803100" lon="-2.1908981446">
        <ele>6.39</ele>
        <time>2018-11-05T12:11:37Z</time>
      </trkpt>
      <trkpt lat="36.7236960679" lon="-2.1909489390">
        <ele>0.14</ele>
        <time>2018-11-05T12:11:59Z</time>
      </trkpt>
      <trkpt lat="36.7237622850" lon="-2.1909267269">
        <ele>-1.79</ele>
        <time>2018-11-05T12:12:24Z</time>
      </trkpt>
      <trkpt lat="36.7237959802" lon="-2.1909168363">
        <ele>-6.11</ele>
        <time>2018-11-05T12:12:43Z</time>
      </trkpt>
      <trkpt lat="36.7238200363" lon="-2.1909134835">
        <ele>-10.44</ele>
        <time>2018-11-05T12:13:06Z</time>
      </trkpt>
      <trkpt lat="36.7238136660" lon="-2.1909243800">
        <ele>-14.76</ele>
        <time>2018-11-05T12:13:29Z</time>
      </trkpt>
      <trkpt lat="36.7237872630" lon="-2.1909153275">
        <ele>-18.13</ele>
        <time>2018-11-05T12:13:51Z</time>
      </trkpt>
      <trkpt lat="36.7237931304" lon="-2.1909118071">
        <ele>-18.61</ele>
        <time>2018-11-05T12:14:10Z</time>
      </trkpt>
      <trkpt lat="36.7238041945" lon="-2.1909175068">
        <ele>-20.53</ele>
        <time>2018-11-05T12:14:32Z</time>
      </trkpt>
      <trkpt lat="36.7237951420" lon="-2.1909365337">
        <ele>-21.49</ele>
        <time>2018-11-05T12:14:55Z</time>
      </trkpt>
      <trkpt lat="36.7237865087" lon="-2.1909283195">
        <ele>-21.01</ele>
        <time>2018-11-05T12:15:13Z</time>
      </trkpt>
      <trkpt lat="36.7237603571" lon="-2.1909560636">
        <ele>-19.09</ele>
        <time>2018-11-05T12:15:31Z</time>
      </trkpt>
      <trkpt lat="36.7237544060" lon="-2.1909615956">
        <ele>-18.61</ele>
        <time>2018-11-05T12:15:46Z</time>
      </trkpt>
      <trkpt lat="36.7235689983" lon="-2.1910246275">
        <ele>3.50</ele>
        <time>2018-11-05T12:15:54Z</time>
      </trkpt>
      <trkpt lat="36.7234356422" lon="-2.1910284832">
        <ele>18.40</ele>
        <time>2018-11-05T12:16:01Z</time>
      </trkpt>
      <trkpt lat="36.7234517355" lon="-2.1910034213">
        <ele>20.32</ele>
        <time>2018-11-05T12:16:05Z</time>
      </trkpt>
      <trkpt lat="36.7235196289" lon="-2.1908613481">
        <ele>22.25</ele>
        <time>2018-11-05T12:16:12Z</time>
      </trkpt>
      <trkpt lat="36.7236084770" lon="-2.1906474419">
        <ele>24.17</ele>
        <time>2018-11-05T12:16:20Z</time>
      </trkpt>
      <trkpt lat="36.7236079741" lon="-2.1904248185">
        <ele>25.13</ele>
        <time>2018-11-05T12:16:28Z</time>
      </trkpt>
      <trkpt lat="36.7235914618" lon="-2.1901320387">
        <ele>26.57</ele>
        <time>2018-11-05T12:16:38Z</time>
      </trkpt>
      <trkpt lat="36.7235670704" lon="-2.1898445394">
        <ele>27.05</ele>
        <time>2018-11-05T12:16:48Z</time>
      </trkpt>
      <trkpt lat="36.7235488817" lon="-2.1895869635">
        <ele>28.50</ele>
        <time>2018-11-05T12:16:58Z</time>
      </trkpt>
      <trkpt lat="36.7235399131" lon="-2.1894614026">
        <ele>28.98</ele>
        <time>2018-11-05T12:17:04Z</time>
      </trkpt>
      <trkpt lat="36.7235379014" lon="-2.1894460637">
        <ele>28.98</ele>
        <time>2018-11-05T12:17:05Z</time>
      </trkpt>
      <trkpt lat="36.7235368118" lon="-2.1894282941">
        <ele>28.98</ele>
        <time>2018-11-05T12:17:06Z</time>
      </trkpt>
      <trkpt lat="36.7235376500" lon="-2.1894055791">
        <ele>28.98</ele>
        <time>2018-11-05T12:17:07Z</time>
      </trkpt>
      <trkpt lat="36.7235389911" lon="-2.1893795114">
        <ele>28.98</ele>
        <time>2018-11-05T12:17:08Z</time>
      </trkpt>
      <trkpt lat="36.7235383205" lon="-2.1893524379">
        <ele>28.98</ele>
        <time>2018-11-05T12:17:09Z</time>
      </trkpt>
      <trkpt lat="36.7235293519" lon="-2.1890603285">
        <ele>30.42</ele>
        <time>2018-11-05T12:17:19Z</time>
      </trkpt>
      <trkpt lat="36.7235590238" lon="-2.1888695564">
        <ele>31.38</ele>
        <time>2018-11-05T12:17:26Z</time>
      </trkpt>
      <trkpt lat="36.7235926352" lon="-2.1886538062">
        <ele>32.82</ele>
        <time>2018-11-05T12:17:34Z</time>
      </trkpt>
      <trkpt lat="36.7236083094" lon="-2.1884140838">
        <ele>34.74</ele>
        <time>2018-11-05T12:17:42Z</time>
      </trkpt>
      <trkpt lat="36.7236437649" lon="-2.1881215554">
        <ele>35.71</ele>
        <time>2018-11-05T12:17:52Z</time>
      </trkpt>
      <trkpt lat="36.7236685753" lon="-2.1879381593">
        <ele>36.67</ele>
        <time>2018-11-05T12:17:59Z</time>
      </trkpt>
      <trkpt lat="36.7237135861" lon="-2.1876577847">
        <ele>38.11</ele>
        <time>2018-11-05T12:18:09Z</time>
      </trkpt>
      <trkpt lat="36.7237263266" lon="-2.1874172240">
        <ele>39.07</ele>
        <time>2018-11-05T12:18:18Z</time>
      </trkpt>
      <trkpt lat="36.7236668989" lon="-2.1872121189">
        <ele>40.03</ele>
        <time>2018-11-05T12:18:26Z</time>
      </trkpt>
      <trkpt lat="36.7235113308" lon="-2.1870095283">
        <ele>42.92</ele>
        <time>2018-11-05T12:18:36Z</time>
      </trkpt>
      <trkpt lat="36.7232990172" lon="-2.1869389527">
        <ele>44.84</ele>
        <time>2018-11-05T12:18:46Z</time>
      </trkpt>
      <trkpt lat="36.7232730333" lon="-2.1869168244">
        <ele>44.84</ele>
        <time>2018-11-05T12:18:48Z</time>
      </trkpt>
      <trkpt lat="36.7231898848" lon="-2.1867836360">
        <ele>43.88</ele>
        <time>2018-11-05T12:18:55Z</time>
      </trkpt>
      <trkpt lat="36.7231779825" lon="-2.1867020801">
        <ele>42.92</ele>
        <time>2018-11-05T12:18:57Z</time>
      </trkpt>
      <trkpt lat="36.7231752165" lon="-2.1866458375">
        <ele>42.44</ele>
        <time>2018-11-05T12:18:58Z</time>
      </trkpt>
      <trkpt lat="36.7231760547" lon="-2.1865839791">
        <ele>41.95</ele>
        <time>2018-11-05T12:18:59Z</time>
      </trkpt>
      <trkpt lat="36.7231801618" lon="-2.1865149122">
        <ele>41.47</ele>
        <time>2018-11-05T12:19:00Z</time>
      </trkpt>
      <trkpt lat="36.7231869511" lon="-2.1864456777">
        <ele>40.99</ele>
        <time>2018-11-05T12:19:01Z</time>
      </trkpt>
      <trkpt lat="36.7232111748" lon="-2.1862222999">
        <ele>40.51</ele>
        <time>2018-11-05T12:19:04Z</time>
      </trkpt>
      <trkpt lat="36.7232076544" lon="-2.1861509699">
        <ele>40.99</ele>
        <time>2018-11-05T12:19:05Z</time>
      </trkpt>
      <trkpt lat="36.7231930699" lon="-2.1860796399">
        <ele>40.99</ele>
        <time>2018-11-05T12:19:06Z</time>
      </trkpt>
      <trkpt lat="36.7231721990" lon="-2.1860186197">
        <ele>40.99</ele>
        <time>2018-11-05T12:19:07Z</time>
      </trkpt>
      <trkpt lat="36.7231504899" lon="-2.1859612875">
        <ele>41.47</ele>
        <time>2018-11-05T12:19:08Z</time>
      </trkpt>
      <trkpt lat="36.7230806686" lon="-2.1857181285">
        <ele>41.95</ele>
        <time>2018-11-05T12:19:14Z</time>
      </trkpt>
      <trkpt lat="36.7230873741" lon="-2.1854862850">
        <ele>42.92</ele>
        <time>2018-11-05T12:19:22Z</time>
      </trkpt>
      <trkpt lat="36.7231110111" lon="-2.1851933375">
        <ele>46.28</ele>
        <time>2018-11-05T12:19:32Z</time>
      </trkpt>
      <trkpt lat="36.7231320497" lon="-2.1849040780">
        <ele>48.68</ele>
        <time>2018-11-05T12:19:42Z</time>
      </trkpt>
      <trkpt lat="36.7231894657" lon="-2.1846845560">
        <ele>49.16</ele>
        <time>2018-11-05T12:19:50Z</time>
      </trkpt>
      <trkpt lat="36.7232506536" lon="-2.1844914369">
        <ele>48.68</ele>
        <time>2018-11-05T12:19:58Z</time>
      </trkpt>
      <trkpt lat="36.7232853547" lon="-2.1843136568">
        <ele>49.16</ele>
        <time>2018-11-05T12:20:05Z</time>
      </trkpt>
      <trkpt lat="36.7233126797" lon="-2.1839916240">
        <ele>51.09</ele>
        <time>2018-11-05T12:20:16Z</time>
      </trkpt>
      <trkpt lat="36.7233598698" lon="-2.1837888658">
        <ele>51.09</ele>
        <time>2018-11-05T12:20:24Z</time>
      </trkpt>
      <trkpt lat="36.7234596144" lon="-2.1835410967">
        <ele>50.61</ele>
        <time>2018-11-05T12:20:34Z</time>
      </trkpt>
      <trkpt lat="36.7235112470" lon="-2.1833913121">
        <ele>50.13</ele>
        <time>2018-11-05T12:20:42Z</time>
      </trkpt>
      <trkpt lat="36.7235918809" lon="-2.1832366660">
        <ele>49.16</ele>
        <time>2018-11-05T12:20:50Z</time>
      </trkpt>
      <trkpt lat="36.7236758675" lon="-2.1832025517">
        <ele>47.24</ele>
        <time>2018-11-05T12:20:57Z</time>
      </trkpt>
      <trkpt lat="36.7236623727" lon="-2.1832052339">
        <ele>46.76</ele>
        <time>2018-11-05T12:21:08Z</time>
      </trkpt>
      <trkpt lat="36.7236632109" lon="-2.1832109336">
        <ele>47.72</ele>
        <time>2018-11-05T12:21:24Z</time>
      </trkpt>
      <trkpt lat="36.7237558309" lon="-2.1832088381">
        <ele>46.28</ele>
        <time>2018-11-05T12:21:35Z</time>
      </trkpt>
      <trkpt lat="36.7237988301" lon="-2.1832064074">
        <ele>45.80</ele>
        <time>2018-11-05T12:21:36Z</time>
      </trkpt>
      <trkpt lat="36.7238430865" lon="-2.1831988636">
        <ele>45.32</ele>
        <time>2018-11-05T12:21:37Z</time>
      </trkpt>
      <trkpt lat="36.7238875944" lon="-2.1831858717">
        <ele>44.84</ele>
        <time>2018-11-05T12:21:38Z</time>
      </trkpt>
      <trkpt lat="36.7239320185" lon="-2.1831628215">
        <ele>44.36</ele>
        <time>2018-11-05T12:21:39Z</time>
      </trkpt>
      <trkpt lat="36.7239719164" lon="-2.1831235103">
        <ele>44.36</ele>
        <time>2018-11-05T12:21:40Z</time>
      </trkpt>
      <trkpt lat="36.7240028456" lon="-2.1830720454">
        <ele>43.88</ele>
        <time>2018-11-05T12:21:41Z</time>
      </trkpt>
      <trkpt lat="36.7240274884" lon="-2.1830144618">
        <ele>43.88</ele>
        <time>2018-11-05T12:21:42Z</time>
      </trkpt>
      <trkpt lat="36.7240497004" lon="-2.1829552017">
        <ele>43.88</ele>
        <time>2018-11-05T12:21:43Z</time>
      </trkpt>
      <trkpt lat="36.7242253851" lon="-2.1825573128">
        <ele>44.36</ele>
        <time>2018-11-05T12:21:51Z</time>
      </trkpt>
      <trkpt lat="36.7243217770" lon="-2.1823346056">
        <ele>44.36</ele>
        <time>2018-11-05T12:21:58Z</time>
      </trkpt>
      <trkpt lat="36.7244283110" lon="-2.1821522992">
        <ele>45.32</ele>
        <time>2018-11-05T12:22:06Z</time>
      </trkpt>
      <trkpt lat="36.7245373596" lon="-2.1819060389">
        <ele>46.28</ele>
        <time>2018-11-05T12:22:16Z</time>
      </trkpt>
      <trkpt lat="36.7246097792" lon="-2.1817104891">
        <ele>47.72</ele>
        <time>2018-11-05T12:22:24Z</time>
      </trkpt>
      <trkpt lat="36.7247137148" lon="-2.1815672424">
        <ele>47.72</ele>
        <time>2018-11-05T12:22:32Z</time>
      </trkpt>
      <trkpt lat="36.7247663531" lon="-2.1815110836">
        <ele>48.20</ele>
        <time>2018-11-05T12:22:37Z</time>
      </trkpt>
      <trkpt lat="36.7247780040" lon="-2.1815008577">
        <ele>48.20</ele>
        <time>2018-11-05T12:22:38Z</time>
      </trkpt>
      <trkpt lat="36.7247887328" lon="-2.1814850159">
        <ele>48.20</ele>
        <time>2018-11-05T12:22:39Z</time>
      </trkpt>
      <trkpt lat="36.7248989549" lon="-2.1813625563">
        <ele>47.72</ele>
        <time>2018-11-05T12:22:47Z</time>
      </trkpt>
      <trkpt lat="36.7251079157" lon="-2.1812054794">
        <ele>46.76</ele>
        <time>2018-11-05T12:22:57Z</time>
      </trkpt>
      <trkpt lat="36.7253157031" lon="-2.1811498236">
        <ele>45.32</ele>
        <time>2018-11-05T12:23:03Z</time>
      </trkpt>
      <trkpt lat="36.7256074771" lon="-2.1811201517">
        <ele>43.40</ele>
        <time>2018-11-05T12:23:10Z</time>
      </trkpt>
      <trkpt lat="36.7257038690" lon="-2.1809497476">
        <ele>43.40</ele>
        <time>2018-11-05T12:23:15Z</time>
      </trkpt>
      <trkpt lat="36.7257358041" lon="-2.1806164831">
        <ele>42.92</ele>
        <time>2018-11-05T12:23:24Z</time>
      </trkpt>
      <trkpt lat="36.7257389054" lon="-2.1802729927">
        <ele>43.88</ele>
        <time>2018-11-05T12:23:35Z</time>
      </trkpt>
      <trkpt lat="36.7257574294" lon="-2.1799264848">
        <ele>46.76</ele>
        <time>2018-11-05T12:23:47Z</time>
      </trkpt>
      <trkpt lat="36.7257654760" lon="-2.1797670610">
        <ele>48.20</ele>
        <time>2018-11-05T12:23:54Z</time>
      </trkpt>
      <trkpt lat="36.7257998418" lon="-2.1795409173">
        <ele>49.16</ele>
        <time>2018-11-05T12:24:03Z</time>
      </trkpt>
      <trkpt lat="36.7258701660" lon="-2.1792985965">
        <ele>50.61</ele>
        <time>2018-11-05T12:24:13Z</time>
      </trkpt>
      <trkpt lat="36.7259664740" lon="-2.1790722851">
        <ele>51.09</ele>
        <time>2018-11-05T12:24:23Z</time>
      </trkpt>
      <trkpt lat="36.7260811385" lon="-2.1788363345">
        <ele>51.09</ele>
        <time>2018-11-05T12:24:33Z</time>
      </trkpt>
      <trkpt lat="36.7261812184" lon="-2.1786464844">
        <ele>51.57</ele>
        <time>2018-11-05T12:24:41Z</time>
      </trkpt>
      <trkpt lat="36.7262861598" lon="-2.1783965360">
        <ele>52.05</ele>
        <time>2018-11-05T12:24:51Z</time>
      </trkpt>
      <trkpt lat="36.7264022492" lon="-2.1781221125">
        <ele>52.05</ele>
        <time>2018-11-05T12:25:02Z</time>
      </trkpt>
      <trkpt lat="36.7264315858" lon="-2.1778811328">
        <ele>52.53</ele>
        <time>2018-11-05T12:25:10Z</time>
      </trkpt>
      <trkpt lat="36.7264921870" lon="-2.1776490379">
        <ele>52.53</ele>
        <time>2018-11-05T12:25:18Z</time>
      </trkpt>
      <trkpt lat="36.7266337574" lon="-2.1774750296">
        <ele>51.57</ele>
        <time>2018-11-05T12:25:26Z</time>
      </trkpt>
      <trkpt lat="36.7268203385" lon="-2.1773052122">
        <ele>51.09</ele>
        <time>2018-11-05T12:25:35Z</time>
      </trkpt>
      <trkpt lat="36.7270357534" lon="-2.1771528292">
        <ele>50.61</ele>
        <time>2018-11-05T12:25:45Z</time>
      </trkpt>
      <trkpt lat="36.7271863762" lon="-2.1770823374">
        <ele>52.53</ele>
        <time>2018-11-05T12:25:53Z</time>
      </trkpt>
      <trkpt lat="36.7273167986" lon="-2.1770287771">
        <ele>53.97</ele>
        <time>2018-11-05T12:26:00Z</time>
      </trkpt>
      <trkpt lat="36.7274885438" lon="-2.1769130230">
        <ele>55.89</ele>
        <time>2018-11-05T12:26:10Z</time>
      </trkpt>
      <trkpt lat="36.7275349796" lon="-2.1768395137">
        <ele>56.86</ele>
        <time>2018-11-05T12:26:14Z</time>
      </trkpt>
      <trkpt lat="36.7275402602" lon="-2.1766933333">
        <ele>57.82</ele>
        <time>2018-11-05T12:26:21Z</time>
      </trkpt>
      <trkpt lat="36.7275420204" lon="-2.1766735520">
        <ele>57.34</ele>
        <time>2018-11-05T12:26:28Z</time>
      </trkpt>
      <trkpt lat="36.7275179643" lon="-2.1765963547">
        <ele>57.34</ele>
        <time>2018-11-05T12:26:36Z</time>
      </trkpt>
      <trkpt lat="36.7275024578" lon="-2.1765493322">
        <ele>57.82</ele>
        <time>2018-11-05T12:26:46Z</time>
      </trkpt>
      <trkpt lat="36.7274497356" lon="-2.1764370985">
        <ele>58.30</ele>
        <time>2018-11-05T12:26:55Z</time>
      </trkpt>
      <trkpt lat="36.7273730412" lon="-2.1763335820">
        <ele>59.26</ele>
        <time>2018-11-05T12:27:06Z</time>
      </trkpt>
      <trkpt lat="36.7273392621" lon="-2.1763008088">
        <ele>60.70</ele>
        <time>2018-11-05T12:27:15Z</time>
      </trkpt>
      <trkpt lat="36.7273015436" lon="-2.1762479190">
        <ele>60.22</ele>
        <time>2018-11-05T12:27:24Z</time>
      </trkpt>
      <trkpt lat="36.7272428703" lon="-2.1761231963">
        <ele>62.62</ele>
        <time>2018-11-05T12:27:35Z</time>
      </trkpt>
      <trkpt lat="36.7272199877" lon="-2.1760407183">
        <ele>64.55</ele>
        <time>2018-11-05T12:27:45Z</time>
      </trkpt>
      <trkpt lat="36.7272068281" lon="-2.1760288160">
        <ele>65.03</ele>
        <time>2018-11-05T12:28:01Z</time>
      </trkpt>
      <trkpt lat="36.7272133660" lon="-2.1760089509">
        <ele>65.51</ele>
        <time>2018-11-05T12:28:03Z</time>
      </trkpt>
      <trkpt lat="36.7272158805" lon="-2.1759954561">
        <ele>65.51</ele>
        <time>2018-11-05T12:28:04Z</time>
      </trkpt>
      <trkpt lat="36.7272667587" lon="-2.1758593339">
        <ele>67.43</ele>
        <time>2018-11-05T12:28:15Z</time>
      </trkpt>
      <trkpt lat="36.7273198161" lon="-2.1757201105">
        <ele>68.87</ele>
        <time>2018-11-05T12:28:26Z</time>
      </trkpt>
      <trkpt lat="36.7273569480" lon="-2.1755589265">
        <ele>69.83</ele>
        <time>2018-11-05T12:28:38Z</time>
      </trkpt>
      <trkpt lat="36.7273723707" lon="-2.1754929610">
        <ele>69.83</ele>
        <time>2018-11-05T12:28:47Z</time>
      </trkpt>
      <trkpt lat="36.7273772322" lon="-2.1754608583">
        <ele>70.79</ele>
        <time>2018-11-05T12:28:58Z</time>
      </trkpt>
      <trkpt lat="36.7273913138" lon="-2.1753249038">
        <ele>73.68</ele>
        <time>2018-11-05T12:29:09Z</time>
      </trkpt>
      <trkpt lat="36.7273830157" lon="-2.1752748638">
        <ele>74.16</ele>
        <time>2018-11-05T12:29:18Z</time>
      </trkpt>
      <trkpt lat="36.7273687664" lon="-2.1752863470">
        <ele>72.24</ele>
        <time>2018-11-05T12:29:34Z</time>
      </trkpt>
      <trkpt lat="36.7273819260" lon="-2.1752276737">
        <ele>73.68</ele>
        <time>2018-11-05T12:29:42Z</time>
      </trkpt>
      <trkpt lat="36.7273867875" lon="-2.1750452835">
        <ele>77.52</ele>
        <time>2018-11-05T12:29:57Z</time>
      </trkpt>
      <trkpt lat="36.7273881286" lon="-2.1749490593">
        <ele>78.97</ele>
        <time>2018-11-05T12:30:06Z</time>
      </trkpt>
      <trkpt lat="36.7273878772" lon="-2.1749462094">
        <ele>79.45</ele>
        <time>2018-11-05T12:30:20Z</time>
      </trkpt>
      <trkpt lat="36.7273970973" lon="-2.1747998614">
        <ele>82.81</ele>
        <time>2018-11-05T12:30:32Z</time>
      </trkpt>
      <trkpt lat="36.7274002824" lon="-2.1747297887">
        <ele>84.25</ele>
        <time>2018-11-05T12:30:38Z</time>
      </trkpt>
      <trkpt lat="36.7274157051" lon="-2.1746310499">
        <ele>85.69</ele>
        <time>2018-11-05T12:30:48Z</time>
      </trkpt>
      <trkpt lat="36.7274130229" lon="-2.1746235900">
        <ele>84.25</ele>
        <time>2018-11-05T12:31:06Z</time>
      </trkpt>
      <trkpt lat="36.7274180520" lon="-2.1746353246">
        <ele>83.77</ele>
        <time>2018-11-05T12:31:23Z</time>
      </trkpt>
      <trkpt lat="36.7274304572" lon="-2.1745584626">
        <ele>84.73</ele>
        <time>2018-11-05T12:31:32Z</time>
      </trkpt>
      <trkpt lat="36.7274430301" lon="-2.1744257770">
        <ele>86.66</ele>
        <time>2018-11-05T12:31:44Z</time>
      </trkpt>
      <trkpt lat="36.7274308763" lon="-2.1743228473">
        <ele>88.10</ele>
        <time>2018-11-05T12:31:53Z</time>
      </trkpt>
      <trkpt lat="36.7274174653" lon="-2.1742868889">
        <ele>88.58</ele>
        <time>2018-11-05T12:31:56Z</time>
      </trkpt>
      <trkpt lat="36.7273556069" lon="-2.1742249466">
        <ele>90.02</ele>
        <time>2018-11-05T12:32:05Z</time>
      </trkpt>
      <trkpt lat="36.7273107637" lon="-2.1742042433">
        <ele>90.50</ele>
        <time>2018-11-05T12:32:10Z</time>
      </trkpt>
      <trkpt lat="36.7272245977" lon="-2.1741827019">
        <ele>91.94</ele>
        <time>2018-11-05T12:32:21Z</time>
      </trkpt>
      <trkpt lat="36.7271987814" lon="-2.1741748229">
        <ele>91.94</ele>
        <time>2018-11-05T12:32:39Z</time>
      </trkpt>
      <trkpt lat="36.7271585483" lon="-2.1741564665">
        <ele>93.39</ele>
        <time>2018-11-05T12:32:44Z</time>
      </trkpt>
      <trkpt lat="36.7271501664" lon="-2.1741510183">
        <ele>93.87</ele>
        <time>2018-11-05T12:32:45Z</time>
      </trkpt>
      <trkpt lat="36.7270612344" lon="-2.1740594041">
        <ele>95.79</ele>
        <time>2018-11-05T12:32:56Z</time>
      </trkpt>
      <trkpt lat="36.7270423751" lon="-2.1740216017">
        <ele>98.19</ele>
        <time>2018-11-05T12:33:05Z</time>
      </trkpt>
      <trkpt lat="36.7270232644" lon="-2.1739877388">
        <ele>99.63</ele>
        <time>2018-11-05T12:33:25Z</time>
      </trkpt>
      <trkpt lat="36.7270118650" lon="-2.1739539597">
        <ele>99.63</ele>
        <time>2018-11-05T12:33:28Z</time>
      </trkpt>
      <trkpt lat="36.7270095181" lon="-2.1739420574">
        <ele>99.63</ele>
        <time>2018-11-05T12:33:29Z</time>
      </trkpt>
      <trkpt lat="36.7270070873" lon="-2.1739288978">
        <ele>99.63</ele>
        <time>2018-11-05T12:33:30Z</time>
      </trkpt>
      <trkpt lat="36.7270050757" lon="-2.1739162412">
        <ele>100.11</ele>
        <time>2018-11-05T12:33:31Z</time>
      </trkpt>
      <trkpt lat="36.7270032316" lon="-2.1739026625">
        <ele>100.11</ele>
        <time>2018-11-05T12:33:32Z</time>
      </trkpt>
      <trkpt lat="36.7269950174" lon="-2.1737374552">
        <ele>102.04</ele>
        <time>2018-11-05T12:33:44Z</time>
      </trkpt>
      <trkpt lat="36.7269893177" lon="-2.1735619381">
        <ele>104.92</ele>
        <time>2018-11-05T12:33:57Z</time>
      </trkpt>
      <trkpt lat="36.7269720510" lon="-2.1734230500">
        <ele>106.84</ele>
        <time>2018-11-05T12:34:08Z</time>
      </trkpt>
      <trkpt lat="36.7269201670" lon="-2.1733294241">
        <ele>108.29</ele>
        <time>2018-11-05T12:34:18Z</time>
      </trkpt>
      <trkpt lat="36.7268910818" lon="-2.1733026858">
        <ele>108.29</ele>
        <time>2018-11-05T12:34:22Z</time>
      </trkpt>
      <trkpt lat="36.7268824484" lon="-2.1732979920">
        <ele>108.29</ele>
        <time>2018-11-05T12:34:23Z</time>
      </trkpt>
      <trkpt lat="36.7268531956" lon="-2.1732922085">
        <ele>108.77</ele>
        <time>2018-11-05T12:34:31Z</time>
      </trkpt>
      <trkpt lat="36.7268047482" lon="-2.1732633747">
        <ele>108.77</ele>
        <time>2018-11-05T12:34:44Z</time>
      </trkpt>
      <trkpt lat="36.7267552949" lon="-2.1732299309">
        <ele>109.73</ele>
        <time>2018-11-05T12:34:53Z</time>
      </trkpt>
      <trkpt lat="36.7267070152" lon="-2.1731911227">
        <ele>109.25</ele>
        <time>2018-11-05T12:35:04Z</time>
      </trkpt>
      <trkpt lat="36.7266180832" lon="-2.1730840020">
        <ele>111.65</ele>
        <time>2018-11-05T12:35:15Z</time>
      </trkpt>
      <trkpt lat="36.7265689652" lon="-2.1730567608">
        <ele>113.09</ele>
        <time>2018-11-05T12:35:22Z</time>
      </trkpt>
      <trkpt lat="36.7265636846" lon="-2.1730334591">
        <ele>113.57</ele>
        <time>2018-11-05T12:35:30Z</time>
      </trkpt>
      <trkpt lat="36.7265656963" lon="-2.1730543301">
        <ele>113.57</ele>
        <time>2018-11-05T12:35:51Z</time>
      </trkpt>
      <trkpt lat="36.7265562247" lon="-2.1730226465">
        <ele>114.05</ele>
        <time>2018-11-05T12:36:07Z</time>
      </trkpt>
      <trkpt lat="36.7265505251" lon="-2.1730083134">
        <ele>114.53</ele>
        <time>2018-11-05T12:36:08Z</time>
      </trkpt>
      <trkpt lat="36.7265464179" lon="-2.1729952376">
        <ele>114.53</ele>
        <time>2018-11-05T12:36:09Z</time>
      </trkpt>
      <trkpt lat="36.7265423108" lon="-2.1729808208">
        <ele>114.53</ele>
        <time>2018-11-05T12:36:10Z</time>
      </trkpt>
      <trkpt lat="36.7265368626" lon="-2.1729660686">
        <ele>114.53</ele>
        <time>2018-11-05T12:36:11Z</time>
      </trkpt>
      <trkpt lat="36.7265314143" lon="-2.1729538310">
        <ele>115.01</ele>
        <time>2018-11-05T12:36:12Z</time>
      </trkpt>
      <trkpt lat="36.7265271395" lon="-2.1729428507">
        <ele>115.01</ele>
        <time>2018-11-05T12:36:13Z</time>
      </trkpt>
      <trkpt lat="36.7265219428" lon="-2.1729288530">
        <ele>115.01</ele>
        <time>2018-11-05T12:36:14Z</time>
      </trkpt>
      <trkpt lat="36.7264262214" lon="-2.1727527492">
        <ele>117.42</ele>
        <time>2018-11-05T12:36:28Z</time>
      </trkpt>
      <trkpt lat="36.7263059411" lon="-2.1726559382">
        <ele>119.82</ele>
        <time>2018-11-05T12:36:40Z</time>
      </trkpt>
      <trkpt lat="36.7261822242" lon="-2.1726349834">
        <ele>121.26</ele>
        <time>2018-11-05T12:36:51Z</time>
      </trkpt>
      <trkpt lat="36.7260942981" lon="-2.1725979354">
        <ele>121.74</ele>
        <time>2018-11-05T12:37:00Z</time>
      </trkpt>
      <trkpt lat="36.7260061204" lon="-2.1725871228">
        <ele>122.71</ele>
        <time>2018-11-05T12:37:08Z</time>
      </trkpt>
      <trkpt lat="36.7259743530" lon="-2.1726018749">
        <ele>123.19</ele>
        <time>2018-11-05T12:37:11Z</time>
      </trkpt>
      <trkpt lat="36.7259438429" lon="-2.1726181358">
        <ele>124.15</ele>
        <time>2018-11-05T12:37:20Z</time>
      </trkpt>
      <trkpt lat="36.7259486206" lon="-2.1726167947">
        <ele>122.71</ele>
        <time>2018-11-05T12:37:42Z</time>
      </trkpt>
      <trkpt lat="36.7259491235" lon="-2.1726308763">
        <ele>124.15</ele>
        <time>2018-11-05T12:38:08Z</time>
      </trkpt>
      <trkpt lat="36.7259489559" lon="-2.1726182196">
        <ele>124.63</ele>
        <time>2018-11-05T12:38:35Z</time>
      </trkpt>
      <trkpt lat="36.7259308510" lon="-2.1725994442">
        <ele>126.07</ele>
        <time>2018-11-05T12:38:57Z</time>
      </trkpt>
      <trkpt lat="36.7259216309" lon="-2.1726023778">
        <ele>125.11</ele>
        <time>2018-11-05T12:39:18Z</time>
      </trkpt>
      <trkpt lat="36.7259352934" lon="-2.1726181358">
        <ele>125.59</ele>
        <time>2018-11-05T12:39:42Z</time>
      </trkpt>
      <trkpt lat="36.7259487882" lon="-2.1726193931">
        <ele>123.19</ele>
        <time>2018-11-05T12:40:00Z</time>
      </trkpt>
      <trkpt lat="36.7259393167" lon="-2.1726220753">
        <ele>124.63</ele>
        <time>2018-11-05T12:40:22Z</time>
      </trkpt>
      <trkpt lat="36.7259339523" lon="-2.1725949179">
        <ele>124.63</ele>
        <time>2018-11-05T12:40:31Z</time>
      </trkpt>
      <trkpt lat="36.7259414960" lon="-2.1725713648">
        <ele>124.15</ele>
        <time>2018-11-05T12:40:33Z</time>
      </trkpt>
      <trkpt lat="36.7259985767" lon="-2.1724411100">
        <ele>123.67</ele>
        <time>2018-11-05T12:40:43Z</time>
      </trkpt>
      <trkpt lat="36.7260657996" lon="-2.1723363362">
        <ele>124.63</ele>
        <time>2018-11-05T12:40:52Z</time>
      </trkpt>
      <trkpt lat="36.7261870019" lon="-2.1722592227">
        <ele>126.55</ele>
        <time>2018-11-05T12:41:02Z</time>
      </trkpt>
      <trkpt lat="36.7263455037" lon="-2.1722303052">
        <ele>127.51</ele>
        <time>2018-11-05T12:41:14Z</time>
      </trkpt>
      <trkpt lat="36.7265455797" lon="-2.1722079255">
        <ele>130.88</ele>
        <time>2018-11-05T12:41:29Z</time>
      </trkpt>
      <trkpt lat="36.7266592383" lon="-2.1722766571">
        <ele>131.84</ele>
        <time>2018-11-05T12:41:38Z</time>
      </trkpt>
      <trkpt lat="36.7267442308" lon="-2.1723509207">
        <ele>133.28</ele>
        <time>2018-11-05T12:41:48Z</time>
      </trkpt>
      <trkpt lat="36.7267560493" lon="-2.1723689418">
        <ele>133.76</ele>
        <time>2018-11-05T12:42:04Z</time>
      </trkpt>
      <trkpt lat="36.7268537823" lon="-2.1724853665">
        <ele>134.24</ele>
        <time>2018-11-05T12:42:15Z</time>
      </trkpt>
      <trkpt lat="36.7269567121" lon="-2.1725790761">
        <ele>135.20</ele>
        <time>2018-11-05T12:42:26Z</time>
      </trkpt>
      <trkpt lat="36.7270827759" lon="-2.1726191416">
        <ele>137.13</ele>
        <time>2018-11-05T12:42:37Z</time>
      </trkpt>
      <trkpt lat="36.7272552755" lon="-2.1726554353">
        <ele>140.01</ele>
        <time>2018-11-05T12:42:51Z</time>
      </trkpt>
      <trkpt lat="36.7273663357" lon="-2.1727183834">
        <ele>140.49</ele>
        <time>2018-11-05T12:43:01Z</time>
      </trkpt>
      <trkpt lat="36.7274794914" lon="-2.1728057228">
        <ele>141.45</ele>
        <time>2018-11-05T12:43:12Z</time>
      </trkpt>
      <trkpt lat="36.7276026215" lon="-2.1729008574">
        <ele>142.89</ele>
        <time>2018-11-05T12:43:25Z</time>
      </trkpt>
      <trkpt lat="36.7276170384" lon="-2.1728958283">
        <ele>144.82</ele>
        <time>2018-11-05T12:43:37Z</time>
      </trkpt>
      <trkpt lat="36.7277304456" lon="-2.1729182918">
        <ele>146.26</ele>
        <time>2018-11-05T12:43:47Z</time>
      </trkpt>
      <trkpt lat="36.7279163562" lon="-2.1729151066">
        <ele>149.14</ele>
        <time>2018-11-05T12:44:02Z</time>
      </trkpt>
      <trkpt lat="36.7280102335" lon="-2.1729096584">
        <ele>151.06</ele>
        <time>2018-11-05T12:44:12Z</time>
      </trkpt>
      <trkpt lat="36.7280360498" lon="-2.1729043778">
        <ele>151.06</ele>
        <time>2018-11-05T12:44:25Z</time>
      </trkpt>
      <trkpt lat="36.7281635385" lon="-2.1728664078">
        <ele>153.47</ele>
        <time>2018-11-05T12:44:37Z</time>
      </trkpt>
      <trkpt lat="36.7283082101" lon="-2.1727897972">
        <ele>155.39</ele>
        <time>2018-11-05T12:44:51Z</time>
      </trkpt>
      <trkpt lat="36.7284195218" lon="-2.1727329679">
        <ele>156.83</ele>
        <time>2018-11-05T12:45:03Z</time>
      </trkpt>
      <trkpt lat="36.7284138221" lon="-2.1727548447">
        <ele>156.35</ele>
        <time>2018-11-05T12:45:18Z</time>
      </trkpt>
      <trkpt lat="36.7284605093" lon="-2.1727329679">
        <ele>156.35</ele>
        <time>2018-11-05T12:45:30Z</time>
      </trkpt>
      <trkpt lat="36.7285320070" lon="-2.1727115102">
        <ele>157.79</ele>
        <time>2018-11-05T12:45:40Z</time>
      </trkpt>
      <trkpt lat="36.7285294086" lon="-2.1727182996">
        <ele>159.72</ele>
        <time>2018-11-05T12:45:50Z</time>
      </trkpt>
      <trkpt lat="36.7285790294" lon="-2.1727179643">
        <ele>160.20</ele>
        <time>2018-11-05T12:45:58Z</time>
      </trkpt>
      <trkpt lat="36.7286373675" lon="-2.1727040503">
        <ele>161.16</ele>
        <time>2018-11-05T12:46:07Z</time>
      </trkpt>
      <trkpt lat="36.7286848929" lon="-2.1726931538">
        <ele>161.16</ele>
        <time>2018-11-05T12:46:19Z</time>
      </trkpt>
      <trkpt lat="36.7286801990" lon="-2.1726934891">
        <ele>159.24</ele>
        <time>2018-11-05T12:46:43Z</time>
      </trkpt>
      <trkpt lat="36.7287408002" lon="-2.1726844367">
        <ele>159.72</ele>
        <time>2018-11-05T12:46:53Z</time>
      </trkpt>
      <trkpt lat="36.7288328335" lon="-2.1726326365">
        <ele>161.64</ele>
        <time>2018-11-05T12:47:03Z</time>
      </trkpt>
      <trkpt lat="36.7288322467" lon="-2.1726275235">
        <ele>161.64</ele>
        <time>2018-11-05T12:47:11Z</time>
      </trkpt>
      <trkpt lat="36.7288365215" lon="-2.1726481430">
        <ele>161.64</ele>
        <time>2018-11-05T12:47:38Z</time>
      </trkpt>
      <trkpt lat="36.7288276367" lon="-2.1726419404">
        <ele>162.60</ele>
        <time>2018-11-05T12:48:01Z</time>
      </trkpt>
      <trkpt lat="36.7288419697" lon="-2.1726463828">
        <ele>160.68</ele>
        <time>2018-11-05T12:48:28Z</time>
      </trkpt>
      <trkpt lat="36.7288457416" lon="-2.1726432815">
        <ele>161.16</ele>
        <time>2018-11-05T12:48:45Z</time>
      </trkpt>
      <trkpt lat="36.7288459931" lon="-2.1726447064">
        <ele>162.60</ele>
        <time>2018-11-05T12:49:06Z</time>
      </trkpt>
      <trkpt lat="36.7288409639" lon="-2.1726308763">
        <ele>162.12</ele>
        <time>2018-11-05T12:49:36Z</time>
      </trkpt>
      <trkpt lat="36.7288409639" lon="-2.1726373304">
        <ele>162.12</ele>
        <time>2018-11-05T12:49:55Z</time>
      </trkpt>
      <trkpt lat="36.7288226914" lon="-2.1726389229">
        <ele>160.68</ele>
        <time>2018-11-05T12:50:18Z</time>
      </trkpt>
      <trkpt lat="36.7288324144" lon="-2.1726637334">
        <ele>163.08</ele>
        <time>2018-11-05T12:50:36Z</time>
      </trkpt>
      <trkpt lat="36.7288422212" lon="-2.1726617217">
        <ele>163.08</ele>
        <time>2018-11-05T12:50:52Z</time>
      </trkpt>
      <trkpt lat="36.7288416345" lon="-2.1726596262">
        <ele>162.60</ele>
        <time>2018-11-05T12:51:14Z</time>
      </trkpt>
      <trkpt lat="36.7288335040" lon="-2.1726312954">
        <ele>163.08</ele>
        <time>2018-11-05T12:51:17Z</time>
      </trkpt>
      <trkpt lat="36.7288247868" lon="-2.1726205666">
        <ele>163.08</ele>
        <time>2018-11-05T12:51:18Z</time>
      </trkpt>
      <trkpt lat="36.7286884971" lon="-2.1725239232">
        <ele>164.52</ele>
        <time>2018-11-05T12:51:27Z</time>
      </trkpt>
      <trkpt lat="36.7285271455" lon="-2.1725316346">
        <ele>166.93</ele>
        <time>2018-11-05T12:51:35Z</time>
      </trkpt>
      <trkpt lat="36.7283561546" lon="-2.1725487337">
        <ele>168.85</ele>
        <time>2018-11-05T12:51:44Z</time>
      </trkpt>
      <trkpt lat="36.7282506265" lon="-2.1725465544">
        <ele>169.33</ele>
        <time>2018-11-05T12:51:53Z</time>
      </trkpt>
      <trkpt lat="36.7282277439" lon="-2.1725410223">
        <ele>169.33</ele>
        <time>2018-11-05T12:52:11Z</time>
      </trkpt>
      <trkpt lat="36.7280435935" lon="-2.1724958438">
        <ele>170.77</ele>
        <time>2018-11-05T12:52:24Z</time>
      </trkpt>
      <trkpt lat="36.7278651427" lon="-2.1724463906">
        <ele>170.77</ele>
        <time>2018-11-05T12:52:36Z</time>
      </trkpt>
      <trkpt lat="36.7276886199" lon="-2.1723380964">
        <ele>172.21</ele>
        <time>2018-11-05T12:52:49Z</time>
      </trkpt>
      <trkpt lat="36.7276618816" lon="-2.1722930856">
        <ele>172.21</ele>
        <time>2018-11-05T12:52:56Z</time>
      </trkpt>
      <trkpt lat="36.7276160326" lon="-2.1722375974">
        <ele>172.69</ele>
        <time>2018-11-05T12:53:04Z</time>
      </trkpt>
      <trkpt lat="36.7275197245" lon="-2.1720945183">
        <ele>174.14</ele>
        <time>2018-11-05T12:53:15Z</time>
      </trkpt>
      <trkpt lat="36.7274363246" lon="-2.1719393693">
        <ele>175.10</ele>
        <time>2018-11-05T12:53:26Z</time>
      </trkpt>
      <trkpt lat="36.7273781542" lon="-2.1718261298">
        <ele>176.54</ele>
        <time>2018-11-05T12:53:35Z</time>
      </trkpt>
      <trkpt lat="36.7273346521" lon="-2.1717210207">
        <ele>177.98</ele>
        <time>2018-11-05T12:53:43Z</time>
      </trkpt>
      <trkpt lat="36.7272463068" lon="-2.1715341881">
        <ele>179.42</ele>
        <time>2018-11-05T12:53:56Z</time>
      </trkpt>
      <trkpt lat="36.7271608114" lon="-2.1713828109">
        <ele>181.35</ele>
        <time>2018-11-05T12:54:07Z</time>
      </trkpt>
      <trkpt lat="36.7270987853" lon="-2.1712753549">
        <ele>182.79</ele>
        <time>2018-11-05T12:54:16Z</time>
      </trkpt>
      <trkpt lat="36.7271050718" lon="-2.1712709125">
        <ele>181.83</ele>
        <time>2018-11-05T12:54:23Z</time>
      </trkpt>
      <trkpt lat="36.7270755675" lon="-2.1712192800">
        <ele>181.35</ele>
        <time>2018-11-05T12:54:34Z</time>
      </trkpt>
      <trkpt lat="36.7269620765" lon="-2.1710874327">
        <ele>182.79</ele>
        <time>2018-11-05T12:54:45Z</time>
      </trkpt>
      <trkpt lat="36.7268640921" lon="-2.1709943097">
        <ele>183.27</ele>
        <time>2018-11-05T12:54:54Z</time>
      </trkpt>
      <trkpt lat="36.7267616652" lon="-2.1709353849">
        <ele>184.23</ele>
        <time>2018-11-05T12:55:02Z</time>
      </trkpt>
      <trkpt lat="36.7266521137" lon="-2.1708402503">
        <ele>185.19</ele>
        <time>2018-11-05T12:55:11Z</time>
      </trkpt>
      <trkpt lat="36.7265583202" lon="-2.1706959978">
        <ele>186.63</ele>
        <time>2018-11-05T12:55:21Z</time>
      </trkpt>
      <trkpt lat="36.7265206017" lon="-2.1706058085">
        <ele>189.04</ele>
        <time>2018-11-05T12:55:30Z</time>
      </trkpt>
      <trkpt lat="36.7265104596" lon="-2.1705602948">
        <ele>190.48</ele>
        <time>2018-11-05T12:55:45Z</time>
      </trkpt>
      <trkpt lat="36.7264106311" lon="-2.1703603864">
        <ele>190.96</ele>
        <time>2018-11-05T12:55:57Z</time>
      </trkpt>
      <trkpt lat="36.7263027560" lon="-2.1702359151">
        <ele>190.96</ele>
        <time>2018-11-05T12:56:07Z</time>
      </trkpt>
      <trkpt lat="36.7261732556" lon="-2.1701230947">
        <ele>191.44</ele>
        <time>2018-11-05T12:56:19Z</time>
      </trkpt>
      <trkpt lat="36.7260315176" lon="-2.1700169798">
        <ele>192.40</ele>
        <time>2018-11-05T12:56:31Z</time>
      </trkpt>
      <trkpt lat="36.7260180227" lon="-2.1699775010">
        <ele>192.40</ele>
        <time>2018-11-05T12:56:34Z</time>
      </trkpt>
      <trkpt lat="36.7259887699" lon="-2.1698662732">
        <ele>191.92</ele>
        <time>2018-11-05T12:56:42Z</time>
      </trkpt>
      <trkpt lat="36.7260136642" lon="-2.1697497647">
        <ele>190.96</ele>
        <time>2018-11-05T12:56:53Z</time>
      </trkpt>
      <trkpt lat="36.7260321043" lon="-2.1697360184">
        <ele>190.00</ele>
        <time>2018-11-05T12:57:02Z</time>
      </trkpt>
      <trkpt lat="36.7260237224" lon="-2.1696941089">
        <ele>189.52</ele>
        <time>2018-11-05T12:57:10Z</time>
      </trkpt>
      <trkpt lat="36.7260373011" lon="-2.1696897503">
        <ele>189.04</ele>
        <time>2018-11-05T12:57:20Z</time>
      </trkpt>
      <trkpt lat="36.7260808032" lon="-2.1696557198">
        <ele>188.08</ele>
        <time>2018-11-05T12:57:28Z</time>
      </trkpt>
      <trkpt lat="36.7260771990" lon="-2.1696544625">
        <ele>187.59</ele>
        <time>2018-11-05T12:57:41Z</time>
      </trkpt>
      <trkpt lat="36.7260766122" lon="-2.1696639340">
        <ele>187.11</ele>
        <time>2018-11-05T12:57:59Z</time>
      </trkpt>
      <trkpt lat="36.7260787915" lon="-2.1696527023">
        <ele>187.59</ele>
        <time>2018-11-05T12:58:20Z</time>
      </trkpt>
      <trkpt lat="36.7260824796" lon="-2.1696568932">
        <ele>186.63</ele>
        <time>2018-11-05T12:58:37Z</time>
      </trkpt>
      <trkpt lat="36.7260698229" lon="-2.1696541272">
        <ele>187.11</ele>
        <time>2018-11-05T12:58:51Z</time>
      </trkpt>
      <trkpt lat="36.7260773666" lon="-2.1696594078">
        <ele>188.08</ele>
        <time>2018-11-05T12:59:12Z</time>
      </trkpt>
      <trkpt lat="36.7260766961" lon="-2.1696636826">
        <ele>188.56</ele>
        <time>2018-11-05T12:59:29Z</time>
      </trkpt>
      <trkpt lat="36.7260853294" lon="-2.1696707234">
        <ele>189.04</ele>
        <time>2018-11-05T12:59:49Z</time>
      </trkpt>
      <trkpt lat="36.7260873411" lon="-2.1696550492">
        <ele>189.04</ele>
        <time>2018-11-05T12:59:57Z</time>
      </trkpt>
      <trkpt lat="36.7260910291" lon="-2.1696481761">
        <ele>188.56</ele>
        <time>2018-11-05T13:00:06Z</time>
      </trkpt>
      <trkpt lat="36.7261057813" lon="-2.1696308255">
        <ele>188.08</ele>
        <time>2018-11-05T13:00:12Z</time>
      </trkpt>
      <trkpt lat="36.7261150014" lon="-2.1696194261">
        <ele>187.59</ele>
        <time>2018-11-05T13:00:13Z</time>
      </trkpt>
      <trkpt lat="36.7261257302" lon="-2.1696050931">
        <ele>187.59</ele>
        <time>2018-11-05T13:00:14Z</time>
      </trkpt>
      <trkpt lat="36.7261649575" lon="-2.1694888361">
        <ele>185.67</ele>
        <time>2018-11-05T13:00:22Z</time>
      </trkpt>
      <trkpt lat="36.7262216192" lon="-2.1693413146">
        <ele>184.71</ele>
        <time>2018-11-05T13:00:30Z</time>
      </trkpt>
      <trkpt lat="36.7263199389" lon="-2.1691270731">
        <ele>182.79</ele>
        <time>2018-11-05T13:00:39Z</time>
      </trkpt>
      <trkpt lat="36.7264129780" lon="-2.1689067967">
        <ele>181.83</ele>
        <time>2018-11-05T13:00:48Z</time>
      </trkpt>
      <trkpt lat="36.7265071068" lon="-2.1687262505">
        <ele>181.35</ele>
        <time>2018-11-05T13:00:56Z</time>
      </trkpt>
      <trkpt lat="36.7266028281" lon="-2.1686234884">
        <ele>180.38</ele>
        <time>2018-11-05T13:01:02Z</time>
      </trkpt>
      <trkpt lat="36.7266216874" lon="-2.1686155256">
        <ele>180.38</ele>
        <time>2018-11-05T13:01:03Z</time>
      </trkpt>
      <trkpt lat="36.7267944384" lon="-2.1685567684">
        <ele>177.02</ele>
        <time>2018-11-05T13:01:11Z</time>
      </trkpt>
      <trkpt lat="36.7270059977" lon="-2.1685384121">
        <ele>173.17</ele>
        <time>2018-11-05T13:01:20Z</time>
      </trkpt>
      <trkpt lat="36.7270511761" lon="-2.1685569361">
        <ele>172.69</ele>
        <time>2018-11-05T13:01:26Z</time>
      </trkpt>
      <trkpt lat="36.7270891462" lon="-2.1685471293">
        <ele>172.21</ele>
        <time>2018-11-05T13:01:39Z</time>
      </trkpt>
      <trkpt lat="36.7272962630" lon="-2.1685423516">
        <ele>169.81</ele>
        <time>2018-11-05T13:01:47Z</time>
      </trkpt>
      <trkpt lat="36.7275457922" lon="-2.1685477160">
        <ele>167.41</ele>
        <time>2018-11-05T13:01:56Z</time>
      </trkpt>
      <trkpt lat="36.7277635541" lon="-2.1685212292">
        <ele>165.00</ele>
        <time>2018-11-05T13:02:04Z</time>
      </trkpt>
      <trkpt lat="36.7279209662" lon="-2.1686196327">
        <ele>163.56</ele>
        <time>2018-11-05T13:02:10Z</time>
      </trkpt>
      <trkpt lat="36.7281107325" lon="-2.1688223910">
        <ele>161.64</ele>
        <time>2018-11-05T13:02:19Z</time>
      </trkpt>
      <trkpt lat="36.7283429112" lon="-2.1690523904">
        <ele>159.72</ele>
        <time>2018-11-05T13:02:28Z</time>
      </trkpt>
      <trkpt lat="36.7285323422" lon="-2.1690994129">
        <ele>158.75</ele>
        <time>2018-11-05T13:02:34Z</time>
      </trkpt>
      <trkpt lat="36.7287494335" lon="-2.1691171825">
        <ele>156.83</ele>
        <time>2018-11-05T13:02:41Z</time>
      </trkpt>
      <trkpt lat="36.7290578876" lon="-2.1691940445">
        <ele>155.39</ele>
        <time>2018-11-05T13:02:51Z</time>
      </trkpt>
      <trkpt lat="36.7292987835" lon="-2.1691569127">
        <ele>154.91</ele>
        <time>2018-11-05T13:02:59Z</time>
      </trkpt>
      <trkpt lat="36.7294204049" lon="-2.1691202000">
        <ele>153.95</ele>
        <time>2018-11-05T13:03:05Z</time>
      </trkpt>
      <trkpt lat="36.7294314690" lon="-2.1691115666">
        <ele>153.95</ele>
        <time>2018-11-05T13:03:06Z</time>
      </trkpt>
      <trkpt lat="36.7294450477" lon="-2.1691046935">
        <ele>153.47</ele>
        <time>2018-11-05T13:03:07Z</time>
      </trkpt>
      <trkpt lat="36.7294649128" lon="-2.1690993290">
        <ele>152.99</ele>
        <time>2018-11-05T13:03:08Z</time>
      </trkpt>
      <trkpt lat="36.7294859514" lon="-2.1690968145">
        <ele>152.99</ele>
        <time>2018-11-05T13:03:09Z</time>
      </trkpt>
      <trkpt lat="36.7295081634" lon="-2.1690963954">
        <ele>152.99</ele>
        <time>2018-11-05T13:03:10Z</time>
      </trkpt>
      <trkpt lat="36.7297118437" lon="-2.1691334434">
        <ele>149.62</ele>
        <time>2018-11-05T13:03:18Z</time>
      </trkpt>
      <trkpt lat="36.7299141828" lon="-2.1692244709">
        <ele>147.70</ele>
        <time>2018-11-05T13:03:26Z</time>
      </trkpt>
      <trkpt lat="36.7301047873" lon="-2.1691771131">
        <ele>145.78</ele>
        <time>2018-11-05T13:03:33Z</time>
      </trkpt>
      <trkpt lat="36.7303880956" lon="-2.1691065375">
        <ele>143.85</ele>
        <time>2018-11-05T13:03:44Z</time>
      </trkpt>
      <trkpt lat="36.7306890897" lon="-2.1691616904">
        <ele>141.45</ele>
        <time>2018-11-05T13:03:55Z</time>
      </trkpt>
      <trkpt lat="36.7309130542" lon="-2.1692607645">
        <ele>140.01</ele>
        <time>2018-11-05T13:04:03Z</time>
      </trkpt>
      <trkpt lat="36.7311280500" lon="-2.1693422366">
        <ele>139.05</ele>
        <time>2018-11-05T13:04:11Z</time>
      </trkpt>
      <trkpt lat="36.7313007172" lon="-2.1692968905">
        <ele>137.61</ele>
        <time>2018-11-05T13:04:18Z</time>
      </trkpt>
      <trkpt lat="36.7314087600" lon="-2.1691131592">
        <ele>135.20</ele>
        <time>2018-11-05T13:04:25Z</time>
      </trkpt>
      <trkpt lat="36.7314125318" lon="-2.1690852474">
        <ele>134.72</ele>
        <time>2018-11-05T13:04:26Z</time>
      </trkpt>
      <trkpt lat="36.7314170580" lon="-2.1690575033">
        <ele>134.24</ele>
        <time>2018-11-05T13:04:27Z</time>
      </trkpt>
      <trkpt lat="36.7314208299" lon="-2.1690289211">
        <ele>134.24</ele>
        <time>2018-11-05T13:04:28Z</time>
      </trkpt>
      <trkpt lat="36.7314221710" lon="-2.1690008417">
        <ele>133.76</ele>
        <time>2018-11-05T13:04:29Z</time>
      </trkpt>
      <trkpt lat="36.7314223386" lon="-2.1689756121">
        <ele>133.76</ele>
        <time>2018-11-05T13:04:30Z</time>
      </trkpt>
      <trkpt lat="36.7314105202" lon="-2.1688586008">
        <ele>131.84</ele>
        <time>2018-11-05T13:04:36Z</time>
      </trkpt>
      <trkpt lat="36.7314054910" lon="-2.1687522344">
        <ele>131.36</ele>
        <time>2018-11-05T13:04:44Z</time>
      </trkpt>
      <trkpt lat="36.7313953489" lon="-2.1685810760">
        <ele>130.88</ele>
        <time>2018-11-05T13:04:52Z</time>
      </trkpt>
      <trkpt lat="36.7313588038" lon="-2.1683151182">
        <ele>129.92</ele>
        <time>2018-11-05T13:05:01Z</time>
      </trkpt>
      <trkpt lat="36.7312757391" lon="-2.1680075023">
        <ele>129.43</ele>
        <time>2018-11-05T13:05:10Z</time>
      </trkpt>
      <trkpt lat="36.7311743181" lon="-2.1677632537">
        <ele>128.47</ele>
        <time>2018-11-05T13:05:17Z</time>
      </trkpt>
      <trkpt lat="36.7310472485" lon="-2.1675553825">
        <ele>127.99</ele>
        <time>2018-11-05T13:05:25Z</time>
      </trkpt>
      <trkpt lat="36.7309900001" lon="-2.1674776822">
        <ele>127.99</ele>
        <time>2018-11-05T13:05:32Z</time>
      </trkpt>
      <trkpt lat="36.7309863120" lon="-2.1674704738">
        <ele>129.43</ele>
        <time>2018-11-05T13:05:49Z</time>
      </trkpt>
      <trkpt lat="36.7309839651" lon="-2.1674368624">
        <ele>128.95</ele>
        <time>2018-11-05T13:06:03Z</time>
      </trkpt>
      <trkpt lat="36.7308878247" lon="-2.1672734991">
        <ele>127.99</ele>
        <time>2018-11-05T13:06:10Z</time>
      </trkpt>
      <trkpt lat="36.7307282332" lon="-2.1669993270">
        <ele>126.55</ele>
        <time>2018-11-05T13:06:19Z</time>
      </trkpt>
      <trkpt lat="36.7305265646" lon="-2.1666667331">
        <ele>124.15</ele>
        <time>2018-11-05T13:06:30Z</time>
      </trkpt>
      <trkpt lat="36.7303395644" lon="-2.1663531661">
        <ele>121.74</ele>
        <time>2018-11-05T13:06:41Z</time>
      </trkpt>
      <trkpt lat="36.7303180229" lon="-2.1660718694">
        <ele>120.30</ele>
        <time>2018-11-05T13:06:48Z</time>
      </trkpt>
      <trkpt lat="36.7304621916" lon="-2.1658478212">
        <ele>118.86</ele>
        <time>2018-11-05T13:06:54Z</time>
      </trkpt>
      <trkpt lat="36.7306288239" lon="-2.1655821986">
        <ele>117.42</ele>
        <time>2018-11-05T13:07:02Z</time>
      </trkpt>
      <trkpt lat="36.7306458391" lon="-2.1653159056">
        <ele>116.46</ele>
        <time>2018-11-05T13:07:09Z</time>
      </trkpt>
      <trkpt lat="36.7305507883" lon="-2.1651537996">
        <ele>116.94</ele>
        <time>2018-11-05T13:07:15Z</time>
      </trkpt>
      <trkpt lat="36.7303556576" lon="-2.1649637818">
        <ele>115.98</ele>
        <time>2018-11-05T13:07:24Z</time>
      </trkpt>
      <trkpt lat="36.7301741056" lon="-2.1647869237">
        <ele>114.53</ele>
        <time>2018-11-05T13:07:33Z</time>
      </trkpt>
      <trkpt lat="36.7299618758" lon="-2.1645950619">
        <ele>112.61</ele>
        <time>2018-11-05T13:07:44Z</time>
      </trkpt>
      <trkpt lat="36.7298367340" lon="-2.1644832473">
        <ele>111.65</ele>
        <time>2018-11-05T13:07:52Z</time>
      </trkpt>
      <trkpt lat="36.7297048029" lon="-2.1643653139">
        <ele>111.17</ele>
        <time>2018-11-05T13:07:59Z</time>
      </trkpt>
      <trkpt lat="36.7295286153" lon="-2.1642301138">
        <ele>109.73</ele>
        <time>2018-11-05T13:08:07Z</time>
      </trkpt>
      <trkpt lat="36.7292623222" lon="-2.1640233323">
        <ele>107.32</ele>
        <time>2018-11-05T13:08:19Z</time>
      </trkpt>
      <trkpt lat="36.7290649284" lon="-2.1638655011">
        <ele>106.36</ele>
        <time>2018-11-05T13:08:28Z</time>
      </trkpt>
      <trkpt lat="36.7289640103" lon="-2.1637011319">
        <ele>104.92</ele>
        <time>2018-11-05T13:08:36Z</time>
      </trkpt>
      <trkpt lat="36.7288687918" lon="-2.1634631697">
        <ele>103.96</ele>
        <time>2018-11-05T13:08:43Z</time>
      </trkpt>
      <trkpt lat="36.7287494335" lon="-2.1631226968">
        <ele>103.00</ele>
        <time>2018-11-05T13:08:52Z</time>
      </trkpt>
      <trkpt lat="36.7286642734" lon="-2.1628601756">
        <ele>102.52</ele>
        <time>2018-11-05T13:08:59Z</time>
      </trkpt>
      <trkpt lat="36.7285386287" lon="-2.1624767873">
        <ele>102.04</ele>
        <time>2018-11-05T13:09:09Z</time>
      </trkpt>
      <trkpt lat="36.7285434902" lon="-2.1621225681">
        <ele>102.04</ele>
        <time>2018-11-05T13:09:18Z</time>
      </trkpt>
      <trkpt lat="36.7286607530" lon="-2.1618934069">
        <ele>99.63</ele>
        <time>2018-11-05T13:09:27Z</time>
      </trkpt>
      <trkpt lat="36.7288774252" lon="-2.1618027147">
        <ele>95.79</ele>
        <time>2018-11-05T13:09:35Z</time>
      </trkpt>
      <trkpt lat="36.7291338276" lon="-2.1617522556">
        <ele>92.42</ele>
        <time>2018-11-05T13:09:43Z</time>
      </trkpt>
      <trkpt lat="36.7294009589" lon="-2.1617220808">
        <ele>89.06</ele>
        <time>2018-11-05T13:09:51Z</time>
      </trkpt>
      <trkpt lat="36.7295862827" lon="-2.1615942568">
        <ele>86.18</ele>
        <time>2018-11-05T13:09:57Z</time>
      </trkpt>
      <trkpt lat="36.7297817487" lon="-2.1612410434">
        <ele>81.85</ele>
        <time>2018-11-05T13:10:05Z</time>
      </trkpt>
      <trkpt lat="36.7298664898" lon="-2.1609333437">
        <ele>79.93</ele>
        <time>2018-11-05T13:10:12Z</time>
      </trkpt>
      <trkpt lat="36.7298327945" lon="-2.1606239676">
        <ele>77.04</ele>
        <time>2018-11-05T13:10:19Z</time>
      </trkpt>
      <trkpt lat="36.7297302000" lon="-2.1603070479">
        <ele>74.16</ele>
        <time>2018-11-05T13:10:27Z</time>
      </trkpt>
      <trkpt lat="36.7296397593" lon="-2.1600126754">
        <ele>71.76</ele>
        <time>2018-11-05T13:10:35Z</time>
      </trkpt>
      <trkpt lat="36.7296965048" lon="-2.1597599611">
        <ele>70.79</ele>
        <time>2018-11-05T13:10:42Z</time>
      </trkpt>
      <trkpt lat="36.7298574373" lon="-2.1597017907">
        <ele>69.35</ele>
        <time>2018-11-05T13:10:48Z</time>
      </trkpt>
      <trkpt lat="36.7300544120" lon="-2.1597312111">
        <ele>67.43</ele>
        <time>2018-11-05T13:10:54Z</time>
      </trkpt>
      <trkpt lat="36.7303253151" lon="-2.1597643197">
        <ele>64.07</ele>
        <time>2018-11-05T13:11:03Z</time>
      </trkpt>
      <trkpt lat="36.7306189332" lon="-2.1597822569">
        <ele>62.14</ele>
        <time>2018-11-05T13:11:10Z</time>
      </trkpt>
      <trkpt lat="36.7308742460" lon="-2.1597931534">
        <ele>60.70</ele>
        <time>2018-11-05T13:11:16Z</time>
      </trkpt>
      <trkpt lat="36.7312473245" lon="-2.1597516630">
        <ele>59.74</ele>
        <time>2018-11-05T13:11:25Z</time>
      </trkpt>
      <trkpt lat="36.7315318063" lon="-2.1597079094">
        <ele>58.78</ele>
        <time>2018-11-05T13:11:32Z</time>
      </trkpt>
      <trkpt lat="36.7315756436" lon="-2.1597039700">
        <ele>58.78</ele>
        <time>2018-11-05T13:11:33Z</time>
      </trkpt>
      <trkpt lat="36.7316219956" lon="-2.1597004496">
        <ele>58.30</ele>
        <time>2018-11-05T13:11:34Z</time>
      </trkpt>
      <trkpt lat="36.7316699401" lon="-2.1597032156">
        <ele>58.30</ele>
        <time>2018-11-05T13:11:35Z</time>
      </trkpt>
      <trkpt lat="36.7317194771" lon="-2.1597082447">
        <ele>58.30</ele>
        <time>2018-11-05T13:11:36Z</time>
      </trkpt>
      <trkpt lat="36.7321233172" lon="-2.1597848553">
        <ele>56.37</ele>
        <time>2018-11-05T13:11:44Z</time>
      </trkpt>
      <trkpt lat="36.7324701604" lon="-2.1598302852">
        <ele>55.41</ele>
        <time>2018-11-05T13:11:52Z</time>
      </trkpt>
      <trkpt lat="36.7327827215" lon="-2.1599097457">
        <ele>53.01</ele>
        <time>2018-11-05T13:12:00Z</time>
      </trkpt>
      <trkpt lat="36.7330191750" lon="-2.1599786449">
        <ele>51.09</ele>
        <time>2018-11-05T13:12:08Z</time>
      </trkpt>
      <trkpt lat="36.7331492621" lon="-2.1599871945">
        <ele>49.16</ele>
        <time>2018-11-05T13:12:16Z</time>
      </trkpt>
      <trkpt lat="36.7332445644" lon="-2.1599995159">
        <ele>48.20</ele>
        <time>2018-11-05T13:12:24Z</time>
      </trkpt>
      <trkpt lat="36.7332630884" lon="-2.1600038745">
        <ele>47.72</ele>
        <time>2018-11-05T13:12:25Z</time>
      </trkpt>
      <trkpt lat="36.7332794331" lon="-2.1600010246">
        <ele>47.72</ele>
        <time>2018-11-05T13:12:26Z</time>
      </trkpt>
      <trkpt lat="36.7334303074" lon="-2.1599147748">
        <ele>45.80</ele>
        <time>2018-11-05T13:12:33Z</time>
      </trkpt>
      <trkpt lat="36.7335844506" lon="-2.1597921476">
        <ele>43.88</ele>
        <time>2018-11-05T13:12:39Z</time>
      </trkpt>
      <trkpt lat="36.7336820997" lon="-2.1596808359">
        <ele>42.92</ele>
        <time>2018-11-05T13:12:42Z</time>
      </trkpt>
      <trkpt lat="36.7338483129" lon="-2.1592947654">
        <ele>40.99</ele>
        <time>2018-11-05T13:12:50Z</time>
      </trkpt>
      <trkpt lat="36.7339797411" lon="-2.1588621754">
        <ele>40.03</ele>
        <time>2018-11-05T13:12:59Z</time>
      </trkpt>
      <trkpt lat="36.7340699304" lon="-2.1583658829">
        <ele>38.59</ele>
        <time>2018-11-05T13:13:07Z</time>
      </trkpt>
      <trkpt lat="36.7340838443" lon="-2.1582445968">
        <ele>38.11</ele>
        <time>2018-11-05T13:13:09Z</time>
      </trkpt>
      <trkpt lat="36.7341028713" lon="-2.1578013618">
        <ele>36.19</ele>
        <time>2018-11-05T13:13:18Z</time>
      </trkpt>
      <trkpt lat="36.7340830900" lon="-2.1576095838">
        <ele>35.71</ele>
        <time>2018-11-05T13:13:24Z</time>
      </trkpt>
      <trkpt lat="36.7340910528" lon="-2.1573174745">
        <ele>34.26</ele>
        <time>2018-11-05T13:13:31Z</time>
      </trkpt>
      <trkpt lat="36.7341058049" lon="-2.1568936016">
        <ele>31.86</ele>
        <time>2018-11-05T13:13:40Z</time>
      </trkpt>
      <trkpt lat="36.7341233231" lon="-2.1564579941">
        <ele>28.50</ele>
        <time>2018-11-05T13:13:48Z</time>
      </trkpt>
      <trkpt lat="36.7341422662" lon="-2.1560335346">
        <ele>26.09</ele>
        <time>2018-11-05T13:13:55Z</time>
      </trkpt>
      <trkpt lat="36.7341584433" lon="-2.1556707658">
        <ele>23.69</ele>
        <time>2018-11-05T13:14:02Z</time>
      </trkpt>
      <trkpt lat="36.7341880314" lon="-2.1551844478">
        <ele>21.29</ele>
        <time>2018-11-05T13:14:10Z</time>
      </trkpt>
      <trkpt lat="36.7342007719" lon="-2.1546581481">
        <ele>20.81</ele>
        <time>2018-11-05T13:14:19Z</time>
      </trkpt>
      <trkpt lat="36.7341970000" lon="-2.1541474387">
        <ele>20.32</ele>
        <time>2018-11-05T13:14:28Z</time>
      </trkpt>
      <trkpt lat="36.7341187969" lon="-2.1534859389">
        <ele>18.88</ele>
        <time>2018-11-05T13:14:39Z</time>
      </trkpt>
      <trkpt lat="36.7340128496" lon="-2.1529010497">
        <ele>17.44</ele>
        <time>2018-11-05T13:14:48Z</time>
      </trkpt>
      <trkpt lat="36.7338732909" lon="-2.1522050165">
        <ele>15.52</ele>
        <time>2018-11-05T13:14:58Z</time>
      </trkpt>
      <trkpt lat="36.7337645777" lon="-2.1516892780">
        <ele>14.08</ele>
        <time>2018-11-05T13:15:07Z</time>
      </trkpt>
      <trkpt lat="36.7336890567" lon="-2.1513732802">
        <ele>14.56</ele>
        <time>2018-11-05T13:15:14Z</time>
      </trkpt>
      <trkpt lat="36.7336314730" lon="-2.1510627307">
        <ele>14.56</ele>
        <time>2018-11-05T13:15:22Z</time>
      </trkpt>
      <trkpt lat="36.7335667647" lon="-2.1506700385">
        <ele>15.04</ele>
        <time>2018-11-05T13:15:33Z</time>
      </trkpt>
      <trkpt lat="36.7335030623" lon="-2.1504389495">
        <ele>15.04</ele>
        <time>2018-11-05T13:15:41Z</time>
      </trkpt>
      <trkpt lat="36.7334730551" lon="-2.1502847224">
        <ele>15.04</ele>
        <time>2018-11-05T13:15:49Z</time>
      </trkpt>
      <trkpt lat="36.7334291339" lon="-2.1500964649">
        <ele>15.04</ele>
        <time>2018-11-05T13:15:57Z</time>
      </trkpt>
      <trkpt lat="36.7333732266" lon="-2.1498158388">
        <ele>14.56</ele>
        <time>2018-11-05T13:16:08Z</time>
      </trkpt>
      <trkpt lat="36.7333142180" lon="-2.1494937222">
        <ele>14.56</ele>
        <time>2018-11-05T13:16:18Z</time>
      </trkpt>
      <trkpt lat="36.7332426365" lon="-2.1491576079">
        <ele>15.04</ele>
        <time>2018-11-05T13:16:28Z</time>
      </trkpt>
      <trkpt lat="36.7331720609" lon="-2.1487637423">
        <ele>16.00</ele>
        <time>2018-11-05T13:16:39Z</time>
      </trkpt>
      <trkpt lat="36.7330942769" lon="-2.1483935975">
        <ele>16.48</ele>
        <time>2018-11-05T13:16:49Z</time>
      </trkpt>
      <trkpt lat="36.7330575641" lon="-2.1481880732">
        <ele>16.48</ele>
        <time>2018-11-05T13:16:56Z</time>
      </trkpt>
      <trkpt lat="36.7330202647" lon="-2.1478778590">
        <ele>16.48</ele>
        <time>2018-11-05T13:17:04Z</time>
      </trkpt>
      <trkpt lat="36.7329677101" lon="-2.1475574188">
        <ele>16.00</ele>
        <time>2018-11-05T13:17:13Z</time>
      </trkpt>
      <trkpt lat="36.7329567298" lon="-2.1471734438">
        <ele>15.04</ele>
        <time>2018-11-05T13:17:22Z</time>
      </trkpt>
      <trkpt lat="36.7329521198" lon="-2.1468546800">
        <ele>14.56</ele>
        <time>2018-11-05T13:17:31Z</time>
      </trkpt>
      <trkpt lat="36.7329293210" lon="-2.1465437952">
        <ele>14.08</ele>
        <time>2018-11-05T13:17:41Z</time>
      </trkpt>
      <trkpt lat="36.7329211906" lon="-2.1464603953">
        <ele>14.08</ele>
        <time>2018-11-05T13:17:47Z</time>
      </trkpt>
      <trkpt lat="36.7329121381" lon="-2.1464824397">
        <ele>15.04</ele>
        <time>2018-11-05T13:18:03Z</time>
      </trkpt>
      <trkpt lat="36.7329058517" lon="-2.1464177314">
        <ele>15.04</ele>
        <time>2018-11-05T13:18:12Z</time>
      </trkpt>
      <trkpt lat="36.7328978051" lon="-2.1463709604">
        <ele>14.08</ele>
        <time>2018-11-05T13:18:15Z</time>
      </trkpt>
      <trkpt lat="36.7328848969" lon="-2.1463430487">
        <ele>14.08</ele>
        <time>2018-11-05T13:18:22Z</time>
      </trkpt>
      <trkpt lat="36.7328853998" lon="-2.1463473234">
        <ele>14.56</ele>
        <time>2018-11-05T13:18:38Z</time>
      </trkpt>
      <trkpt lat="36.7328937817" lon="-2.1463365946">
        <ele>15.04</ele>
        <time>2018-11-05T13:18:49Z</time>
      </trkpt>
      <trkpt lat="36.7329115514" lon="-2.1463111136">
        <ele>14.56</ele>
        <time>2018-11-05T13:18:53Z</time>
      </trkpt>
      <trkpt lat="36.7329159938" lon="-2.1462909970">
        <ele>14.08</ele>
        <time>2018-11-05T13:18:54Z</time>
      </trkpt>
      <trkpt lat="36.7329192627" lon="-2.1462690365">
        <ele>14.08</ele>
        <time>2018-11-05T13:18:55Z</time>
      </trkpt>
      <trkpt lat="36.7329204362" lon="-2.1462433040">
        <ele>14.08</ele>
        <time>2018-11-05T13:18:56Z</time>
      </trkpt>
      <trkpt lat="36.7329186760" lon="-2.1462166496">
        <ele>14.08</ele>
        <time>2018-11-05T13:18:57Z</time>
      </trkpt>
      <trkpt lat="36.7329146527" lon="-2.1461911686">
        <ele>13.60</ele>
        <time>2018-11-05T13:18:58Z</time>
      </trkpt>
      <trkpt lat="36.7329120543" lon="-2.1461643465">
        <ele>13.60</ele>
        <time>2018-11-05T13:18:59Z</time>
      </trkpt>
      <trkpt lat="36.7329118028" lon="-2.1461352613">
        <ele>13.60</ele>
        <time>2018-11-05T13:19:00Z</time>
      </trkpt>
      <trkpt lat="36.7329105455" lon="-2.1461023204">
        <ele>13.12</ele>
        <time>2018-11-05T13:19:01Z</time>
      </trkpt>
      <trkpt lat="36.7328853160" lon="-2.1457803715">
        <ele>13.12</ele>
        <time>2018-11-05T13:19:10Z</time>
      </trkpt>
      <trkpt lat="36.7328864057" lon="-2.1453449316">
        <ele>13.12</ele>
        <time>2018-11-05T13:19:21Z</time>
      </trkpt>
      <trkpt lat="36.7329159938" lon="-2.1449787263">
        <ele>13.60</ele>
        <time>2018-11-05T13:19:30Z</time>
      </trkpt>
      <trkpt lat="36.7329551373" lon="-2.1445323061">
        <ele>14.08</ele>
        <time>2018-11-05T13:19:40Z</time>
      </trkpt>
      <trkpt lat="36.7330176663" lon="-2.1441921685">
        <ele>14.56</ele>
        <time>2018-11-05T13:19:48Z</time>
      </trkpt>
      <trkpt lat="36.7331185844" lon="-2.1439291444">
        <ele>14.08</ele>
        <time>2018-11-05T13:19:56Z</time>
      </trkpt>
      <trkpt lat="36.7333075963" lon="-2.1436398849">
        <ele>14.08</ele>
        <time>2018-11-05T13:20:05Z</time>
      </trkpt>
      <trkpt lat="36.7335543595" lon="-2.1433506254">
        <ele>14.56</ele>
        <time>2018-11-05T13:20:16Z</time>
      </trkpt>
      <trkpt lat="36.7337284517" lon="-2.1431285888">
        <ele>14.56</ele>
        <time>2018-11-05T13:20:24Z</time>
      </trkpt>
      <trkpt lat="36.7338865343" lon="-2.1429681592">
        <ele>15.04</ele>
        <time>2018-11-05T13:20:32Z</time>
      </trkpt>
      <trkpt lat="36.7340535019" lon="-2.1428260859">
        <ele>15.52</ele>
        <time>2018-11-05T13:20:40Z</time>
      </trkpt>
      <trkpt lat="36.7342846747" lon="-2.1425749641">
        <ele>15.52</ele>
        <time>2018-11-05T13:20:50Z</time>
      </trkpt>
      <trkpt lat="36.7345057894" lon="-2.1423629019">
        <ele>16.00</ele>
        <time>2018-11-05T13:20:59Z</time>
      </trkpt>
      <trkpt lat="36.7347498704" lon="-2.1421560366">
        <ele>16.00</ele>
        <time>2018-11-05T13:21:09Z</time>
      </trkpt>
      <trkpt lat="36.7349968012" lon="-2.1419723053">
        <ele>16.96</ele>
        <time>2018-11-05T13:21:18Z</time>
      </trkpt>
      <trkpt lat="36.7352468334" lon="-2.1418061759">
        <ele>16.48</ele>
        <time>2018-11-05T13:21:27Z</time>
      </trkpt>
      <trkpt lat="36.7355286330" lon="-2.1416030824">
        <ele>16.00</ele>
        <time>2018-11-05T13:21:36Z</time>
      </trkpt>
      <trkpt lat="36.7357430421" lon="-2.1414372884">
        <ele>16.48</ele>
        <time>2018-11-05T13:21:43Z</time>
      </trkpt>
      <trkpt lat="36.7360706069" lon="-2.1411962248">
        <ele>16.48</ele>
        <time>2018-11-05T13:21:54Z</time>
      </trkpt>
      <trkpt lat="36.7363213096" lon="-2.1410151757">
        <ele>16.48</ele>
        <time>2018-11-05T13:22:04Z</time>
      </trkpt>
      <trkpt lat="36.7365540750" lon="-2.1408533212">
        <ele>16.48</ele>
        <time>2018-11-05T13:22:13Z</time>
      </trkpt>
      <trkpt lat="36.7368659656" lon="-2.1406145208">
        <ele>17.44</ele>
        <time>2018-11-05T13:22:24Z</time>
      </trkpt>
      <trkpt lat="36.7371209431" lon="-2.1404229943">
        <ele>17.92</ele>
        <time>2018-11-05T13:22:33Z</time>
      </trkpt>
      <trkpt lat="36.7373821232" lon="-2.1402360778">
        <ele>18.40</ele>
        <time>2018-11-05T13:22:43Z</time>
      </trkpt>
      <trkpt lat="36.7376894038" lon="-2.1400038991">
        <ele>18.88</ele>
        <time>2018-11-05T13:22:55Z</time>
      </trkpt>
      <trkpt lat="36.7379570380" lon="-2.1398188267">
        <ele>19.36</ele>
        <time>2018-11-05T13:23:05Z</time>
      </trkpt>
      <trkpt lat="36.7382166255" lon="-2.1396165714">
        <ele>19.84</ele>
        <time>2018-11-05T13:23:16Z</time>
      </trkpt>
      <trkpt lat="36.7383983452" lon="-2.1394690499">
        <ele>20.32</ele>
        <time>2018-11-05T13:23:25Z</time>
      </trkpt>
      <trkpt lat="36.7385715991" lon="-2.1393480152">
        <ele>21.29</ele>
        <time>2018-11-05T13:23:33Z</time>
      </trkpt>
      <trkpt lat="36.7386965733" lon="-2.1392127313">
        <ele>21.29</ele>
        <time>2018-11-05T13:23:40Z</time>
      </trkpt>
      <trkpt lat="36.7389071267" lon="-2.1390393097">
        <ele>21.77</ele>
        <time>2018-11-05T13:23:49Z</time>
      </trkpt>
      <trkpt lat="36.7391351145" lon="-2.1388290077">
        <ele>22.25</ele>
        <time>2018-11-05T13:24:00Z</time>
      </trkpt>
      <trkpt lat="36.7392806243" lon="-2.1386763733">
        <ele>22.25</ele>
        <time>2018-11-05T13:24:09Z</time>
      </trkpt>
      <trkpt lat="36.7394674569" lon="-2.1384836733">
        <ele>22.73</ele>
        <time>2018-11-05T13:24:18Z</time>
      </trkpt>
      <trkpt lat="36.7396645155" lon="-2.1382847708">
        <ele>23.21</ele>
        <time>2018-11-05T13:24:27Z</time>
      </trkpt>
      <trkpt lat="36.7398884799" lon="-2.1380582917">
        <ele>23.21</ele>
        <time>2018-11-05T13:24:37Z</time>
      </trkpt>
      <trkpt lat="36.7400460597" lon="-2.1379063278">
        <ele>23.21</ele>
        <time>2018-11-05T13:24:46Z</time>
      </trkpt>
      <trkpt lat="36.7402796634" lon="-2.1376851294">
        <ele>24.17</ele>
        <time>2018-11-05T13:24:58Z</time>
      </trkpt>
      <trkpt lat="36.7404386681" lon="-2.1375318244">
        <ele>24.65</ele>
        <time>2018-11-05T13:25:07Z</time>
      </trkpt>
      <trkpt lat="36.7406717688" lon="-2.1372857317">
        <ele>25.13</ele>
        <time>2018-11-05T13:25:18Z</time>
      </trkpt>
      <trkpt lat="36.7409115750" lon="-2.1370157506">
        <ele>25.61</ele>
        <time>2018-11-05T13:25:29Z</time>
      </trkpt>
      <trkpt lat="36.7410819791" lon="-2.1367874276">
        <ele>25.61</ele>
        <time>2018-11-05T13:25:38Z</time>
      </trkpt>
      <trkpt lat="36.7412653752" lon="-2.1364938095">
        <ele>26.57</ele>
        <time>2018-11-05T13:25:48Z</time>
      </trkpt>
      <trkpt lat="36.7414107174" lon="-2.1362098306">
        <ele>27.05</ele>
        <time>2018-11-05T13:25:58Z</time>
      </trkpt>
      <trkpt lat="36.7415529583" lon="-2.1357804257">
        <ele>28.02</ele>
        <time>2018-11-05T13:26:10Z</time>
      </trkpt>
      <trkpt lat="36.7416606657" lon="-2.1353608277">
        <ele>28.50</ele>
        <time>2018-11-05T13:26:21Z</time>
      </trkpt>
      <trkpt lat="36.7417627573" lon="-2.1350731608">
        <ele>28.02</ele>
        <time>2018-11-05T13:26:29Z</time>
      </trkpt>
      <trkpt lat="36.7419110332" lon="-2.1348060295">
        <ele>28.02</ele>
        <time>2018-11-05T13:26:39Z</time>
      </trkpt>
      <trkpt lat="36.7420909926" lon="-2.1345099807">
        <ele>27.05</ele>
        <time>2018-11-05T13:26:48Z</time>
      </trkpt>
      <trkpt lat="36.7422565352" lon="-2.1342255827">
        <ele>26.57</ele>
        <time>2018-11-05T13:26:58Z</time>
      </trkpt>
      <trkpt lat="36.7423444614" lon="-2.1340584476">
        <ele>26.57</ele>
        <time>2018-11-05T13:27:04Z</time>
      </trkpt>
      <trkpt lat="36.7424991075" lon="-2.1338039730">
        <ele>26.57</ele>
        <time>2018-11-05T13:27:13Z</time>
      </trkpt>
      <trkpt lat="36.7426424380" lon="-2.1335893963">
        <ele>26.09</ele>
        <time>2018-11-05T13:27:22Z</time>
      </trkpt>
      <trkpt lat="36.7428114172" lon="-2.1333400346">
        <ele>25.13</ele>
        <time>2018-11-05T13:27:32Z</time>
      </trkpt>
      <trkpt lat="36.7430169415" lon="-2.1330413036">
        <ele>25.13</ele>
        <time>2018-11-05T13:27:42Z</time>
      </trkpt>
      <trkpt lat="36.7432022654" lon="-2.1327648684">
        <ele>23.69</ele>
        <time>2018-11-05T13:27:52Z</time>
      </trkpt>
      <trkpt lat="36.7434257269" lon="-2.1324498765">
        <ele>22.73</ele>
        <time>2018-11-05T13:28:02Z</time>
      </trkpt>
      <trkpt lat="36.7436537985" lon="-2.1321156062">
        <ele>21.77</ele>
        <time>2018-11-05T13:28:12Z</time>
      </trkpt>
      <trkpt lat="36.7438038345" lon="-2.1318909712">
        <ele>21.29</ele>
        <time>2018-11-05T13:28:20Z</time>
      </trkpt>
      <trkpt lat="36.7440410424" lon="-2.1315088402">
        <ele>21.77</ele>
        <time>2018-11-05T13:28:31Z</time>
      </trkpt>
      <trkpt lat="36.7441828642" lon="-2.1312374342">
        <ele>24.17</ele>
        <time>2018-11-05T13:28:39Z</time>
      </trkpt>
      <trkpt lat="36.7443401925" lon="-2.1310014836">
        <ele>26.57</ele>
        <time>2018-11-05T13:28:47Z</time>
      </trkpt>
      <trkpt lat="36.7443789169" lon="-2.1309409663">
        <ele>26.57</ele>
        <time>2018-11-05T13:28:54Z</time>
      </trkpt>
      <trkpt lat="36.7443692777" lon="-2.1309445705">
        <ele>26.09</ele>
        <time>2018-11-05T13:29:11Z</time>
      </trkpt>
      <trkpt lat="36.7443628237" lon="-2.1309562214">
        <ele>26.57</ele>
        <time>2018-11-05T13:29:26Z</time>
      </trkpt>
      <trkpt lat="36.7443712894" lon="-2.1309534553">
        <ele>28.02</ele>
        <time>2018-11-05T13:29:46Z</time>
      </trkpt>
      <trkpt lat="36.7443734687" lon="-2.1309265494">
        <ele>28.50</ele>
        <time>2018-11-05T13:29:59Z</time>
      </trkpt>
      <trkpt lat="36.7443733010" lon="-2.1309376135">
        <ele>28.02</ele>
        <time>2018-11-05T13:30:15Z</time>
      </trkpt>
      <trkpt lat="36.7443805933" lon="-2.1309529524">
        <ele>27.53</ele>
        <time>2018-11-05T13:30:29Z</time>
      </trkpt>
      <trkpt lat="36.7443825211" lon="-2.1309394576">
        <ele>28.02</ele>
        <time>2018-11-05T13:30:45Z</time>
      </trkpt>
      <trkpt lat="36.7443722114" lon="-2.1309361886">
        <ele>26.57</ele>
        <time>2018-11-05T13:30:59Z</time>
      </trkpt>
      <trkpt lat="36.7443741392" lon="-2.1309526172">
        <ele>27.53</ele>
        <time>2018-11-05T13:31:10Z</time>
      </trkpt>
      <trkpt lat="36.7443814315" lon="-2.1309430618">
        <ele>26.57</ele>
        <time>2018-11-05T13:31:19Z</time>
      </trkpt>
      <trkpt lat="36.7445000354" lon="-2.1307879128">
        <ele>25.13</ele>
        <time>2018-11-05T13:31:26Z</time>
      </trkpt>
      <trkpt lat="36.7446635664" lon="-2.1305471007">
        <ele>21.77</ele>
        <time>2018-11-05T13:31:31Z</time>
      </trkpt>
      <trkpt lat="36.7450003512" lon="-2.1300259978">
        <ele>17.44</ele>
        <time>2018-11-05T13:31:39Z</time>
      </trkpt>
      <trkpt lat="36.7452282552" lon="-2.1296719462">
        <ele>16.00</ele>
        <time>2018-11-05T13:31:46Z</time>
      </trkpt>
      <trkpt lat="36.7453297600" lon="-2.1294950042">
        <ele>16.00</ele>
        <time>2018-11-05T13:31:50Z</time>
      </trkpt>
      <trkpt lat="36.7454879265" lon="-2.1292391885">
        <ele>16.00</ele>
        <time>2018-11-05T13:31:58Z</time>
      </trkpt>
      <trkpt lat="36.7456585821" lon="-2.1289454028">
        <ele>16.00</ele>
        <time>2018-11-05T13:32:08Z</time>
      </trkpt>
      <trkpt lat="36.7458144855" lon="-2.1286871564">
        <ele>16.96</ele>
        <time>2018-11-05T13:32:17Z</time>
      </trkpt>
      <trkpt lat="36.7459463328" lon="-2.1284574922">
        <ele>17.92</ele>
        <time>2018-11-05T13:32:26Z</time>
      </trkpt>
      <trkpt lat="36.7460408807" lon="-2.1282869205">
        <ele>18.40</ele>
        <time>2018-11-05T13:32:33Z</time>
      </trkpt>
      <trkpt lat="36.7461445648" lon="-2.1280963998">
        <ele>19.84</ele>
        <time>2018-11-05T13:32:41Z</time>
      </trkpt>
      <trkpt lat="36.7462960258" lon="-2.1278843377">
        <ele>20.81</ele>
        <time>2018-11-05T13:32:50Z</time>
      </trkpt>
      <trkpt lat="36.7464930005" lon="-2.1277140174">
        <ele>20.32</ele>
        <time>2018-11-05T13:33:00Z</time>
      </trkpt>
      <trkpt lat="36.7466955073" lon="-2.1276058909">
        <ele>20.32</ele>
        <time>2018-11-05T13:33:09Z</time>
      </trkpt>
      <trkpt lat="36.7467272747" lon="-2.1275985986">
        <ele>20.81</ele>
        <time>2018-11-05T13:33:11Z</time>
      </trkpt>
      <trkpt lat="36.7467402667" lon="-2.1275991853">
        <ele>20.81</ele>
        <time>2018-11-05T13:33:12Z</time>
      </trkpt>
      <trkpt lat="36.7468851060" lon="-2.1275476366">
        <ele>21.29</ele>
        <time>2018-11-05T13:33:19Z</time>
      </trkpt>
      <trkpt lat="36.7471265886" lon="-2.1274285298">
        <ele>22.25</ele>
        <time>2018-11-05T13:33:29Z</time>
      </trkpt>
      <trkpt lat="36.7473166063" lon="-2.1273369156">
        <ele>23.21</ele>
        <time>2018-11-05T13:33:37Z</time>
      </trkpt>
      <trkpt lat="36.7475500423" lon="-2.1272114385">
        <ele>23.69</ele>
        <time>2018-11-05T13:33:47Z</time>
      </trkpt>
      <trkpt lat="36.7477477714" lon="-2.1270807646">
        <ele>22.73</ele>
        <time>2018-11-05T13:33:56Z</time>
      </trkpt>
      <trkpt lat="36.7479910143" lon="-2.1269061696">
        <ele>20.81</ele>
        <time>2018-11-05T13:34:07Z</time>
      </trkpt>
      <trkpt lat="36.7482406273" lon="-2.1267520264">
        <ele>19.36</ele>
        <time>2018-11-05T13:34:16Z</time>
      </trkpt>
      <trkpt lat="36.7485687789" lon="-2.1265858132">
        <ele>17.44</ele>
        <time>2018-11-05T13:34:28Z</time>
      </trkpt>
      <trkpt lat="36.7489461321" lon="-2.1264055185">
        <ele>16.48</ele>
        <time>2018-11-05T13:34:40Z</time>
      </trkpt>
      <trkpt lat="36.7491545901" lon="-2.1263146587">
        <ele>16.48</ele>
        <time>2018-11-05T13:34:48Z</time>
      </trkpt>
      <trkpt lat="36.7494605295" lon="-2.1261696517">
        <ele>16.48</ele>
        <time>2018-11-05T13:34:58Z</time>
      </trkpt>
      <trkpt lat="36.7498091329" lon="-2.1260110661">
        <ele>16.48</ele>
        <time>2018-11-05T13:35:11Z</time>
      </trkpt>
      <trkpt lat="36.7498678062" lon="-2.1259997506">
        <ele>16.96</ele>
        <time>2018-11-05T13:35:17Z</time>
      </trkpt>
      <trkpt lat="36.7498817202" lon="-2.1260118205">
        <ele>16.48</ele>
        <time>2018-11-05T13:35:33Z</time>
      </trkpt>
      <trkpt lat="36.7498809658" lon="-2.1260167658">
        <ele>17.44</ele>
        <time>2018-11-05T13:35:48Z</time>
      </trkpt>
      <trkpt lat="36.7498768587" lon="-2.1260179393">
        <ele>19.36</ele>
        <time>2018-11-05T13:36:04Z</time>
      </trkpt>
      <trkpt lat="36.7499180976" lon="-2.1259711683">
        <ele>17.44</ele>
        <time>2018-11-05T13:36:13Z</time>
      </trkpt>
      <trkpt lat="36.7500648648" lon="-2.1258737706">
        <ele>16.96</ele>
        <time>2018-11-05T13:36:21Z</time>
      </trkpt>
      <trkpt lat="36.7501920182" lon="-2.1258220542">
        <ele>16.96</ele>
        <time>2018-11-05T13:36:27Z</time>
      </trkpt>
      <trkpt lat="36.7504221015" lon="-2.1257197950">
        <ele>16.48</ele>
        <time>2018-11-05T13:36:36Z</time>
      </trkpt>
      <trkpt lat="36.7506642547" lon="-2.1255891211">
        <ele>16.48</ele>
        <time>2018-11-05T13:36:46Z</time>
      </trkpt>
      <trkpt lat="36.7509129457" lon="-2.1254669968">
        <ele>16.48</ele>
        <time>2018-11-05T13:36:56Z</time>
      </trkpt>
      <trkpt lat="36.7511181347" lon="-2.1253664140">
        <ele>16.96</ele>
        <time>2018-11-05T13:37:05Z</time>
      </trkpt>
      <trkpt lat="36.7513529118" lon="-2.1252595447">
        <ele>16.96</ele>
        <time>2018-11-05T13:37:15Z</time>
      </trkpt>
      <trkpt lat="36.7515450250" lon="-2.1251720376">
        <ele>16.96</ele>
        <time>2018-11-05T13:37:23Z</time>
      </trkpt>
      <trkpt lat="36.7517483700" lon="-2.1250723768">
        <ele>16.96</ele>
        <time>2018-11-05T13:37:32Z</time>
      </trkpt>
      <trkpt lat="36.7518590949" lon="-2.1250397712">
        <ele>16.96</ele>
        <time>2018-11-05T13:37:40Z</time>
      </trkpt>
      <trkpt lat="36.7518549878" lon="-2.1250399388">
        <ele>16.96</ele>
        <time>2018-11-05T13:37:49Z</time>
      </trkpt>
      <trkpt lat="36.7518492043" lon="-2.1250328980">
        <ele>19.36</ele>
        <time>2018-11-05T13:38:03Z</time>
      </trkpt>
      <trkpt lat="36.7518509645" lon="-2.1250444651">
        <ele>19.36</ele>
        <time>2018-11-05T13:38:26Z</time>
      </trkpt>
      <trkpt lat="36.7518458515" lon="-2.1250533499">
        <ele>20.32</ele>
        <time>2018-11-05T13:38:51Z</time>
      </trkpt>
      <trkpt lat="36.7518439237" lon="-2.1250672638">
        <ele>19.36</ele>
        <time>2018-11-05T13:39:16Z</time>
      </trkpt>
      <trkpt lat="36.7518457677" lon="-2.1250532661">
        <ele>17.44</ele>
        <time>2018-11-05T13:39:38Z</time>
      </trkpt>
      <trkpt lat="36.7518466897" lon="-2.1250475664">
        <ele>19.84</ele>
        <time>2018-11-05T13:40:00Z</time>
      </trkpt>
      <trkpt lat="36.7518477794" lon="-2.1250598878">
        <ele>20.81</ele>
        <time>2018-11-05T13:40:25Z</time>
      </trkpt>
      <trkpt lat="36.7518511321" lon="-2.1250577085">
        <ele>18.88</ele>
        <time>2018-11-05T13:40:49Z</time>
      </trkpt>
      <trkpt lat="36.7518508807" lon="-2.1250428725">
        <ele>18.40</ele>
        <time>2018-11-05T13:41:15Z</time>
      </trkpt>
      <trkpt lat="36.7518413253" lon="-2.1250508353">
        <ele>19.36</ele>
        <time>2018-11-05T13:41:36Z</time>
      </trkpt>
      <trkpt lat="36.7518379726" lon="-2.1250540204">
        <ele>19.36</ele>
        <time>2018-11-05T13:41:59Z</time>
      </trkpt>
      <trkpt lat="36.7518497072" lon="-2.1250404418">
        <ele>20.32</ele>
        <time>2018-11-05T13:42:20Z</time>
      </trkpt>
      <trkpt lat="36.7518466897" lon="-2.1250441298">
        <ele>19.36</ele>
        <time>2018-11-05T13:42:41Z</time>
      </trkpt>
      <trkpt lat="36.7518510483" lon="-2.1250484884">
        <ele>18.40</ele>
        <time>2018-11-05T13:43:10Z</time>
      </trkpt>
      <trkpt lat="36.7518528923" lon="-2.1250619832">
        <ele>15.52</ele>
        <time>2018-11-05T13:43:33Z</time>
      </trkpt>
      <trkpt lat="36.7518512160" lon="-2.1250356641">
        <ele>16.00</ele>
        <time>2018-11-05T13:44:06Z</time>
      </trkpt>
      <trkpt lat="36.7518461030" lon="-2.1250514220">
        <ele>17.44</ele>
        <time>2018-11-05T13:44:23Z</time>
      </trkpt>
      <trkpt lat="36.7518637888" lon="-2.1250380110">
        <ele>17.44</ele>
        <time>2018-11-05T13:44:41Z</time>
      </trkpt>
      <trkpt lat="36.7518594302" lon="-2.1250243485">
        <ele>17.44</ele>
        <time>2018-11-05T13:44:52Z</time>
      </trkpt>
      <trkpt lat="36.7518425826" lon="-2.1250264440">
        <ele>16.96</ele>
        <time>2018-11-05T13:45:01Z</time>
      </trkpt>
      <trkpt lat="36.7519109789" lon="-2.1249921620">
        <ele>16.00</ele>
        <time>2018-11-05T13:45:08Z</time>
      </trkpt>
      <trkpt lat="36.7520780303" lon="-2.1249134559">
        <ele>16.96</ele>
        <time>2018-11-05T13:45:18Z</time>
      </trkpt>
      <trkpt lat="36.7522927746" lon="-2.1248146333">
        <ele>18.40</ele>
        <time>2018-11-05T13:45:29Z</time>
      </trkpt>
      <trkpt lat="36.7525024060" lon="-2.1247137990">
        <ele>19.84</ele>
        <time>2018-11-05T13:45:39Z</time>
      </trkpt>
      <trkpt lat="36.7526661046" lon="-2.1246399544">
        <ele>20.32</ele>
        <time>2018-11-05T13:45:47Z</time>
      </trkpt>
      <trkpt lat="36.7529078387" lon="-2.1245262120">
        <ele>21.29</ele>
        <time>2018-11-05T13:45:59Z</time>
      </trkpt>
      <trkpt lat="36.7532138620" lon="-2.1243828814">
        <ele>22.73</ele>
        <time>2018-11-05T13:46:12Z</time>
      </trkpt>
      <trkpt lat="36.7534642294" lon="-2.1242519561">
        <ele>24.17</ele>
        <time>2018-11-05T13:46:23Z</time>
      </trkpt>
      <trkpt lat="36.7536824103" lon="-2.1241411474">
        <ele>25.13</ele>
        <time>2018-11-05T13:46:33Z</time>
      </trkpt>
      <trkpt lat="36.7539434228" lon="-2.1239987388">
        <ele>26.09</ele>
        <time>2018-11-05T13:46:44Z</time>
      </trkpt>
      <trkpt lat="36.7541850731" lon="-2.1238401532">
        <ele>26.09</ele>
        <time>2018-11-05T13:46:55Z</time>
      </trkpt>
      <trkpt lat="36.7544703931" lon="-2.1235623769">
        <ele>27.05</ele>
        <time>2018-11-05T13:47:09Z</time>
      </trkpt>
      <trkpt lat="36.7545392923" lon="-2.1233977564">
        <ele>27.05</ele>
        <time>2018-11-05T13:47:16Z</time>
      </trkpt>
      <trkpt lat="36.7546295654" lon="-2.1232649870">
        <ele>27.53</ele>
        <time>2018-11-05T13:47:23Z</time>
      </trkpt>
      <trkpt lat="36.7547522765" lon="-2.1231062338">
        <ele>28.02</ele>
        <time>2018-11-05T13:47:31Z</time>
      </trkpt>
      <trkpt lat="36.7548402864" lon="-2.1229665074">
        <ele>28.02</ele>
        <time>2018-11-05T13:47:38Z</time>
      </trkpt>
      <trkpt lat="36.7548543680" lon="-2.1229525935">
        <ele>28.02</ele>
        <time>2018-11-05T13:47:39Z</time>
      </trkpt>
      <trkpt lat="36.7548689526" lon="-2.1229351591">
        <ele>28.02</ele>
        <time>2018-11-05T13:47:40Z</time>
      </trkpt>
      <trkpt lat="36.7550370935" lon="-2.1226911619">
        <ele>28.50</ele>
        <time>2018-11-05T13:47:50Z</time>
      </trkpt>
      <trkpt lat="36.7551480699" lon="-2.1225340851">
        <ele>28.50</ele>
        <time>2018-11-05T13:47:58Z</time>
      </trkpt>
      <trkpt lat="36.7551844474" lon="-2.1224832069">
        <ele>28.50</ele>
        <time>2018-11-05T13:48:01Z</time>
      </trkpt>
      <trkpt lat="36.7552581243" lon="-2.1223837137">
        <ele>28.50</ele>
        <time>2018-11-05T13:48:07Z</time>
      </trkpt>
      <trkpt lat="36.7553863674" lon="-2.1221959591">
        <ele>28.98</ele>
        <time>2018-11-05T13:48:15Z</time>
      </trkpt>
      <trkpt lat="36.7556047998" lon="-2.1218493674">
        <ele>29.94</ele>
        <time>2018-11-05T13:48:29Z</time>
      </trkpt>
      <trkpt lat="36.7557161115" lon="-2.1215899475">
        <ele>29.94</ele>
        <time>2018-11-05T13:48:39Z</time>
      </trkpt>
      <trkpt lat="36.7557969969" lon="-2.1213412564">
        <ele>29.46</ele>
        <time>2018-11-05T13:48:48Z</time>
      </trkpt>
      <trkpt lat="36.7558512278" lon="-2.1210673358">
        <ele>30.42</ele>
        <time>2018-11-05T13:48:58Z</time>
      </trkpt>
      <trkpt lat="36.7558911256" lon="-2.1207298804">
        <ele>30.90</ele>
        <time>2018-11-05T13:49:09Z</time>
      </trkpt>
      <trkpt lat="36.7559011839" lon="-2.1204448119">
        <ele>31.38</ele>
        <time>2018-11-05T13:49:19Z</time>
      </trkpt>
      <trkpt lat="36.7559062131" lon="-2.1201056801">
        <ele>30.90</ele>
        <time>2018-11-05T13:49:28Z</time>
      </trkpt>
      <trkpt lat="36.7559064645" lon="-2.1197261475">
        <ele>30.90</ele>
        <time>2018-11-05T13:49:37Z</time>
      </trkpt>
      <trkpt lat="36.7559013516" lon="-2.1192689147">
        <ele>29.94</ele>
        <time>2018-11-05T13:49:47Z</time>
      </trkpt>
      <trkpt lat="36.7558997590" lon="-2.1189679205">
        <ele>29.46</ele>
        <time>2018-11-05T13:49:56Z</time>
      </trkpt>
      <trkpt lat="36.7559010163" lon="-2.1186862048">
        <ele>29.46</ele>
        <time>2018-11-05T13:50:05Z</time>
      </trkpt>
      <trkpt lat="36.7558994237" lon="-2.1183842886">
        <ele>30.42</ele>
        <time>2018-11-05T13:50:14Z</time>
      </trkpt>
      <trkpt lat="36.7559049558" lon="-2.1180934366">
        <ele>31.38</ele>
        <time>2018-11-05T13:50:24Z</time>
      </trkpt>
      <trkpt lat="36.7558942270" lon="-2.1178344358">
        <ele>32.82</ele>
        <time>2018-11-05T13:50:34Z</time>
      </trkpt>
      <trkpt lat="36.7558871862" lon="-2.1175646223">
        <ele>34.74</ele>
        <time>2018-11-05T13:50:45Z</time>
      </trkpt>
      <trkpt lat="36.7558909580" lon="-2.1173144225">
        <ele>36.67</ele>
        <time>2018-11-05T13:50:55Z</time>
      </trkpt>
      <trkpt lat="36.7558913771" lon="-2.1171630453">
        <ele>38.11</ele>
        <time>2018-11-05T13:51:02Z</time>
      </trkpt>
      <trkpt lat="36.7558949813" lon="-2.1171478741">
        <ele>38.11</ele>
        <time>2018-11-05T13:51:03Z</time>
      </trkpt>
      <trkpt lat="36.7558973283" lon="-2.1171337925">
        <ele>38.11</ele>
        <time>2018-11-05T13:51:04Z</time>
      </trkpt>
      <trkpt lat="36.7558933888" lon="-2.1171180345">
        <ele>38.59</ele>
        <time>2018-11-05T13:51:05Z</time>
      </trkpt>
      <trkpt lat="36.7558869347" lon="-2.1171031147">
        <ele>39.07</ele>
        <time>2018-11-05T13:51:06Z</time>
      </trkpt>
      <trkpt lat="36.7558837496" lon="-2.1170825791">
        <ele>39.07</ele>
        <time>2018-11-05T13:51:07Z</time>
      </trkpt>
      <trkpt lat="36.7558845039" lon="-2.1170635521">
        <ele>39.07</ele>
        <time>2018-11-05T13:51:08Z</time>
      </trkpt>
      <trkpt lat="36.7558871023" lon="-2.1170474589">
        <ele>39.07</ele>
        <time>2018-11-05T13:51:09Z</time>
      </trkpt>
      <trkpt lat="36.7558883596" lon="-2.1170296054">
        <ele>39.07</ele>
        <time>2018-11-05T13:51:10Z</time>
      </trkpt>
      <trkpt lat="36.7558887787" lon="-2.1170103271">
        <ele>39.55</ele>
        <time>2018-11-05T13:51:11Z</time>
      </trkpt>
      <trkpt lat="36.7558819056" lon="-2.1167831775">
        <ele>40.51</ele>
        <time>2018-11-05T13:51:21Z</time>
      </trkpt>
      <trkpt lat="36.7558844201" lon="-2.1165836044">
        <ele>41.47</ele>
        <time>2018-11-05T13:51:31Z</time>
      </trkpt>
      <trkpt lat="36.7558729369" lon="-2.1164468117">
        <ele>41.95</ele>
        <time>2018-11-05T13:51:39Z</time>
      </trkpt>
      <trkpt lat="36.7558712605" lon="-2.1164508350">
        <ele>41.47</ele>
        <time>2018-11-05T13:51:59Z</time>
      </trkpt>
      <trkpt lat="36.7558868509" lon="-2.1164085902">
        <ele>42.92</ele>
        <time>2018-11-05T13:52:25Z</time>
      </trkpt>
      <trkpt lat="36.7558993399" lon="-2.1162252780">
        <ele>43.88</ele>
        <time>2018-11-05T13:52:33Z</time>
      </trkpt>
      <trkpt lat="36.7559213005" lon="-2.1160260402">
        <ele>44.84</ele>
        <time>2018-11-05T13:52:42Z</time>
      </trkpt>
      <trkpt lat="36.7559743579" lon="-2.1158212703">
        <ele>44.36</ele>
        <time>2018-11-05T13:52:50Z</time>
      </trkpt>
      <trkpt lat="36.7560062930" lon="-2.1157363616">
        <ele>43.88</ele>
        <time>2018-11-05T13:52:57Z</time>
      </trkpt>
      <trkpt lat="36.7560311873" lon="-2.1156387124">
        <ele>43.40</ele>
        <time>2018-11-05T13:53:06Z</time>
      </trkpt>
      <trkpt lat="36.7560317740" lon="-2.1156360302">
        <ele>42.92</ele>
        <time>2018-11-05T13:53:25Z</time>
      </trkpt>
      <trkpt lat="36.7561112344" lon="-2.1155012492">
        <ele>41.95</ele>
        <time>2018-11-05T13:53:32Z</time>
      </trkpt>
      <trkpt lat="36.7561906949" lon="-2.1153606009">
        <ele>41.47</ele>
        <time>2018-11-05T13:53:38Z</time>
      </trkpt>
      <trkpt lat="36.7562023457" lon="-2.1153492853">
        <ele>41.47</ele>
        <time>2018-11-05T13:53:39Z</time>
      </trkpt>
      <trkpt lat="36.7562643718" lon="-2.1152411588">
        <ele>40.51</ele>
        <time>2018-11-05T13:53:46Z</time>
      </trkpt>
      <trkpt lat="36.7562742624" lon="-2.1152284183">
        <ele>39.55</ele>
        <time>2018-11-05T13:53:53Z</time>
      </trkpt>
      <trkpt lat="36.7563159205" lon="-2.1151630394">
        <ele>38.59</ele>
        <time>2018-11-05T13:54:02Z</time>
      </trkpt>
      <trkpt lat="36.7564081214" lon="-2.1150021907">
        <ele>37.63</ele>
        <time>2018-11-05T13:54:09Z</time>
      </trkpt>
      <trkpt lat="36.7565027531" lon="-2.1148451976">
        <ele>36.67</ele>
        <time>2018-11-05T13:54:16Z</time>
      </trkpt>
      <trkpt lat="36.7566801980" lon="-2.1145307925">
        <ele>34.74</ele>
        <time>2018-11-05T13:54:24Z</time>
      </trkpt>
      <trkpt lat="36.7568573914" lon="-2.1141804289">
        <ele>32.82</ele>
        <time>2018-11-05T13:54:32Z</time>
      </trkpt>
      <trkpt lat="36.7569505982" lon="-2.1138498466">
        <ele>31.86</ele>
        <time>2018-11-05T13:54:40Z</time>
      </trkpt>
      <trkpt lat="36.7570152227" lon="-2.1134451684">
        <ele>30.90</ele>
        <time>2018-11-05T13:54:48Z</time>
      </trkpt>
      <trkpt lat="36.7570896540" lon="-2.1130627859">
        <ele>28.98</ele>
        <time>2018-11-05T13:54:56Z</time>
      </trkpt>
      <trkpt lat="36.7571199127" lon="-2.1127714310">
        <ele>27.53</ele>
        <time>2018-11-05T13:55:03Z</time>
      </trkpt>
      <trkpt lat="36.7571192421" lon="-2.1126896236">
        <ele>27.05</ele>
        <time>2018-11-05T13:55:08Z</time>
      </trkpt>
      <trkpt lat="36.7571124528" lon="-2.1127003524">
        <ele>28.50</ele>
        <time>2018-11-05T13:55:34Z</time>
      </trkpt>
      <trkpt lat="36.7571361735" lon="-2.1126280166">
        <ele>28.98</ele>
        <time>2018-11-05T13:55:43Z</time>
      </trkpt>
      <trkpt lat="36.7571128719" lon="-2.1124383342">
        <ele>28.02</ele>
        <time>2018-11-05T13:55:49Z</time>
      </trkpt>
      <trkpt lat="36.7571008019" lon="-2.1122898068">
        <ele>27.05</ele>
        <time>2018-11-05T13:55:55Z</time>
      </trkpt>
      <trkpt lat="36.7570590600" lon="-2.1121038962">
        <ele>26.09</ele>
        <time>2018-11-05T13:56:01Z</time>
      </trkpt>
      <trkpt lat="36.7569542862" lon="-2.1119757369">
        <ele>25.13</ele>
        <time>2018-11-05T13:56:06Z</time>
      </trkpt>
      <trkpt lat="36.7568390351" lon="-2.1118780877">
        <ele>24.17</ele>
        <time>2018-11-05T13:56:12Z</time>
      </trkpt>
      <trkpt lat="36.7566497717" lon="-2.1117467433">
        <ele>22.25</ele>
        <time>2018-11-05T13:56:20Z</time>
      </trkpt>
      <trkpt lat="36.7566138972" lon="-2.1117421333">
        <ele>21.77</ele>
        <time>2018-11-05T13:56:25Z</time>
      </trkpt>
      <trkpt lat="36.7566056829" lon="-2.1117103659">
        <ele>20.81</ele>
        <time>2018-11-05T13:56:34Z</time>
      </trkpt>
      <trkpt lat="36.7566012405" lon="-2.1116941050">
        <ele>20.81</ele>
        <time>2018-11-05T13:56:35Z</time>
      </trkpt>
      <trkpt lat="36.7565912660" lon="-2.1116823703">
        <ele>20.81</ele>
        <time>2018-11-05T13:56:36Z</time>
      </trkpt>
      <trkpt lat="36.7565778550" lon="-2.1116760001">
        <ele>21.29</ele>
        <time>2018-11-05T13:56:37Z</time>
      </trkpt>
      <trkpt lat="36.7565626837" lon="-2.1116767544">
        <ele>21.29</ele>
        <time>2018-11-05T13:56:38Z</time>
      </trkpt>
      <trkpt lat="36.7565480992" lon="-2.1116775926">
        <ele>21.29</ele>
        <time>2018-11-05T13:56:39Z</time>
      </trkpt>
      <trkpt lat="36.7565354425" lon="-2.1116759162">
        <ele>21.29</ele>
        <time>2018-11-05T13:56:40Z</time>
      </trkpt>
      <trkpt lat="36.7565243784" lon="-2.1116712224">
        <ele>21.29</ele>
        <time>2018-11-05T13:56:41Z</time>
      </trkpt>
      <trkpt lat="36.7565129790" lon="-2.1116649359">
        <ele>20.81</ele>
        <time>2018-11-05T13:56:42Z</time>
      </trkpt>
      <trkpt lat="36.7564996518" lon="-2.1116618346">
        <ele>20.81</ele>
        <time>2018-11-05T13:56:43Z</time>
      </trkpt>
      <trkpt lat="36.7564860731" lon="-2.1116583142">
        <ele>20.81</ele>
        <time>2018-11-05T13:56:44Z</time>
      </trkpt>
      <trkpt lat="36.7564724106" lon="-2.1116537880">
        <ele>20.81</ele>
        <time>2018-11-05T13:56:45Z</time>
      </trkpt>
      <trkpt lat="36.7564586643" lon="-2.1116486751">
        <ele>20.81</ele>
        <time>2018-11-05T13:56:46Z</time>
      </trkpt>
      <trkpt lat="36.7564372905" lon="-2.1116021555">
        <ele>20.81</ele>
        <time>2018-11-05T13:56:52Z</time>
      </trkpt>
      <trkpt lat="36.7564470973" lon="-2.1115995571">
        <ele>20.81</ele>
        <time>2018-11-05T13:56:53Z</time>
      </trkpt>
      <trkpt lat="36.7564571556" lon="-2.1116038319">
        <ele>20.81</ele>
        <time>2018-11-05T13:56:54Z</time>
      </trkpt>
      <trkpt lat="36.7564714886" lon="-2.1116138063">
        <ele>20.81</ele>
        <time>2018-11-05T13:56:55Z</time>
      </trkpt>
      <trkpt lat="36.7564892583" lon="-2.1116198413">
        <ele>20.81</ele>
        <time>2018-11-05T13:56:56Z</time>
      </trkpt>
      <trkpt lat="36.7565036751" lon="-2.1116233617">
        <ele>20.81</ele>
        <time>2018-11-05T13:56:57Z</time>
      </trkpt>
      <trkpt lat="36.7566359416" lon="-2.1116892435">
        <ele>20.81</ele>
        <time>2018-11-05T13:57:05Z</time>
      </trkpt>
      <trkpt lat="36.7566456646" lon="-2.1116948593">
        <ele>20.81</ele>
        <time>2018-11-05T13:57:06Z</time>
      </trkpt>
      <trkpt lat="36.7566567287" lon="-2.1117031574">
        <ele>20.81</ele>
        <time>2018-11-05T13:57:07Z</time>
      </trkpt>
      <trkpt lat="36.7566721514" lon="-2.1117114555">
        <ele>20.81</ele>
        <time>2018-11-05T13:57:08Z</time>
      </trkpt>
      <trkpt lat="36.7568237800" lon="-2.1118157264">
        <ele>21.29</ele>
        <time>2018-11-05T13:57:17Z</time>
      </trkpt>
      <trkpt lat="36.7569728941" lon="-2.1119322348">
        <ele>21.77</ele>
        <time>2018-11-05T13:57:25Z</time>
      </trkpt>
      <trkpt lat="36.7570767459" lon="-2.1120813489">
        <ele>22.73</ele>
        <time>2018-11-05T13:57:32Z</time>
      </trkpt>
      <trkpt lat="36.7571347486" lon="-2.1122983564">
        <ele>23.69</ele>
        <time>2018-11-05T13:57:40Z</time>
      </trkpt>
      <trkpt lat="36.7571741436" lon="-2.1124514099">
        <ele>24.17</ele>
        <time>2018-11-05T13:57:46Z</time>
      </trkpt>
      <trkpt lat="36.7571930867" lon="-2.1124674194">
        <ele>23.69</ele>
        <time>2018-11-05T13:57:47Z</time>
      </trkpt>
      <trkpt lat="36.7572078388" lon="-2.1124726161">
        <ele>23.69</ele>
        <time>2018-11-05T13:57:48Z</time>
      </trkpt>
      <trkpt lat="36.7572287098" lon="-2.1124723647">
        <ele>23.69</ele>
        <time>2018-11-05T13:57:49Z</time>
      </trkpt>
      <trkpt lat="36.7572498322" lon="-2.1124651562">
        <ele>23.69</ele>
        <time>2018-11-05T13:57:50Z</time>
      </trkpt>
      <trkpt lat="36.7572650034" lon="-2.1124577802">
        <ele>23.21</ele>
        <time>2018-11-05T13:57:51Z</time>
      </trkpt>
      <trkpt lat="36.7572841141" lon="-2.1124472190">
        <ele>23.21</ele>
        <time>2018-11-05T13:57:52Z</time>
      </trkpt>
      <trkpt lat="36.7573032249" lon="-2.1124321315">
        <ele>23.21</ele>
        <time>2018-11-05T13:57:53Z</time>
      </trkpt>
      <trkpt lat="36.7573196534" lon="-2.1124158707">
        <ele>23.21</ele>
        <time>2018-11-05T13:57:54Z</time>
      </trkpt>
      <trkpt lat="36.7573339865" lon="-2.1123990230">
        <ele>23.21</ele>
        <time>2018-11-05T13:57:55Z</time>
      </trkpt>
      <trkpt lat="36.7573464755" lon="-2.1123820078">
        <ele>23.21</ele>
        <time>2018-11-05T13:57:56Z</time>
      </trkpt>
      <trkpt lat="36.7573603895" lon="-2.1123628970">
        <ele>23.69</ele>
        <time>2018-11-05T13:57:57Z</time>
      </trkpt>
      <trkpt lat="36.7573727947" lon="-2.1123437025">
        <ele>23.69</ele>
        <time>2018-11-05T13:57:58Z</time>
      </trkpt>
      <trkpt lat="36.7573857866" lon="-2.1123238374">
        <ele>23.69</ele>
        <time>2018-11-05T13:57:59Z</time>
      </trkpt>
      <trkpt lat="36.7573970184" lon="-2.1123013739">
        <ele>23.69</ele>
        <time>2018-11-05T13:58:00Z</time>
      </trkpt>
      <trkpt lat="36.7574075796" lon="-2.1122802515">
        <ele>23.69</ele>
        <time>2018-11-05T13:58:01Z</time>
      </trkpt>
      <trkpt lat="36.7574205715" lon="-2.1122609731">
        <ele>24.17</ele>
        <time>2018-11-05T13:58:02Z</time>
      </trkpt>
      <trkpt lat="36.7574320547" lon="-2.1122445446">
        <ele>24.17</ele>
        <time>2018-11-05T13:58:03Z</time>
      </trkpt>
      <trkpt lat="36.7574420292" lon="-2.1122261044">
        <ele>24.17</ele>
        <time>2018-11-05T13:58:04Z</time>
      </trkpt>
      <trkpt lat="36.7574472260" lon="-2.1122142859">
        <ele>24.65</ele>
        <time>2018-11-05T13:58:05Z</time>
      </trkpt>
      <trkpt lat="36.7574525066" lon="-2.1122079156">
        <ele>25.13</ele>
        <time>2018-11-05T13:58:11Z</time>
      </trkpt>
      <trkpt lat="36.7574394308" lon="-2.1121822670">
        <ele>28.50</ele>
        <time>2018-11-05T13:58:28Z</time>
      </trkpt>
      <trkpt lat="36.7574378382" lon="-2.1121974383">
        <ele>27.05</ele>
        <time>2018-11-05T13:58:41Z</time>
      </trkpt>
      <trkpt lat="36.7574453820" lon="-2.1121880505">
        <ele>26.57</ele>
        <time>2018-11-05T13:58:58Z</time>
      </trkpt>
      <trkpt lat="36.7574451305" lon="-2.1121978574">
        <ele>27.05</ele>
        <time>2018-11-05T13:59:11Z</time>
      </trkpt>
      <trkpt lat="36.7574281991" lon="-2.1122135315">
        <ele>28.50</ele>
        <time>2018-11-05T13:59:31Z</time>
      </trkpt>
      <trkpt lat="36.7574301269" lon="-2.1121950075">
        <ele>28.50</ele>
        <time>2018-11-05T13:59:34Z</time>
      </trkpt>
      <trkpt lat="36.7574049812" lon="-2.1119893994">
        <ele>27.53</ele>
        <time>2018-11-05T13:59:40Z</time>
      </trkpt>
      <trkpt lat="36.7573598027" lon="-2.1116345935">
        <ele>26.09</ele>
        <time>2018-11-05T13:59:45Z</time>
      </trkpt>
      <trkpt lat="36.7572489101" lon="-2.1111369599">
        <ele>27.53</ele>
        <time>2018-11-05T13:59:53Z</time>
      </trkpt>
      <trkpt lat="36.7572300509" lon="-2.1109161805">
        <ele>27.53</ele>
        <time>2018-11-05T13:59:59Z</time>
      </trkpt>
      <trkpt lat="36.7572650872" lon="-2.1106799785">
        <ele>27.53</ele>
        <time>2018-11-05T14:00:05Z</time>
      </trkpt>
      <trkpt lat="36.7573503312" lon="-2.1105015278">
        <ele>27.05</ele>
        <time>2018-11-05T14:00:09Z</time>
      </trkpt>
      <trkpt lat="36.7574411072" lon="-2.1103834268">
        <ele>27.53</ele>
        <time>2018-11-05T14:00:12Z</time>
      </trkpt>
      <trkpt lat="36.7574942484" lon="-2.1103003621">
        <ele>27.53</ele>
        <time>2018-11-05T14:00:14Z</time>
      </trkpt>
      <trkpt lat="36.7578162812" lon="-2.1098741423">
        <ele>26.09</ele>
        <time>2018-11-05T14:00:24Z</time>
      </trkpt>
      <trkpt lat="36.7580230627" lon="-2.1096693724">
        <ele>23.69</ele>
        <time>2018-11-05T14:00:31Z</time>
      </trkpt>
      <trkpt lat="36.7582911998" lon="-2.1095219348">
        <ele>23.69</ele>
        <time>2018-11-05T14:00:39Z</time>
      </trkpt>
      <trkpt lat="36.7586022522" lon="-2.1094432287">
        <ele>22.73</ele>
        <time>2018-11-05T14:00:47Z</time>
      </trkpt>
      <trkpt lat="36.7588079441" lon="-2.1093786880">
        <ele>22.73</ele>
        <time>2018-11-05T14:00:53Z</time>
      </trkpt>
      <trkpt lat="36.7591009755" lon="-2.1093078610">
        <ele>22.25</ele>
        <time>2018-11-05T14:01:02Z</time>
      </trkpt>
      <trkpt lat="36.7593090981" lon="-2.1092730761">
        <ele>20.32</ele>
        <time>2018-11-05T14:01:07Z</time>
      </trkpt>
      <trkpt lat="36.7593546119" lon="-2.1092739142">
        <ele>20.32</ele>
        <time>2018-11-05T14:01:08Z</time>
      </trkpt>
      <trkpt lat="36.7594007123" lon="-2.1092811227">
        <ele>19.84</ele>
        <time>2018-11-05T14:01:09Z</time>
      </trkpt>
      <trkpt lat="36.7594508361" lon="-2.1092952043">
        <ele>19.84</ele>
        <time>2018-11-05T14:01:10Z</time>
      </trkpt>
      <trkpt lat="36.7594923265" lon="-2.1093064360">
        <ele>19.36</ele>
        <time>2018-11-05T14:01:11Z</time>
      </trkpt>
      <trkpt lat="36.7596415244" lon="-2.1093420591">
        <ele>18.88</ele>
        <time>2018-11-05T14:01:16Z</time>
      </trkpt>
      <trkpt lat="36.7598055582" lon="-2.1094044205">
        <ele>18.88</ele>
        <time>2018-11-05T14:01:23Z</time>
      </trkpt>
      <trkpt lat="36.7600067239" lon="-2.1094682906">
        <ele>19.84</ele>
        <time>2018-11-05T14:01:31Z</time>
      </trkpt>
      <trkpt lat="36.7601195443" lon="-2.1094269678">
        <ele>21.29</ele>
        <time>2018-11-05T14:01:36Z</time>
      </trkpt>
      <trkpt lat="36.7601364758" lon="-2.1094340086">
        <ele>21.29</ele>
        <time>2018-11-05T14:01:37Z</time>
      </trkpt>
      <trkpt lat="36.7601539101" lon="-2.1094526164">
        <ele>21.77</ele>
        <time>2018-11-05T14:01:38Z</time>
      </trkpt>
      <trkpt lat="36.7601644713" lon="-2.1094743256">
        <ele>22.25</ele>
        <time>2018-11-05T14:01:39Z</time>
      </trkpt>
      <trkpt lat="36.7601723503" lon="-2.1094958670">
        <ele>22.73</ele>
        <time>2018-11-05T14:01:40Z</time>
      </trkpt>
      <trkpt lat="36.7601788882" lon="-2.1095245332">
        <ele>22.73</ele>
        <time>2018-11-05T14:01:41Z</time>
      </trkpt>
      <trkpt lat="36.7601873539" lon="-2.1095551271">
        <ele>22.73</ele>
        <time>2018-11-05T14:01:42Z</time>
      </trkpt>
      <trkpt lat="36.7601996753" lon="-2.1095805243">
        <ele>23.21</ele>
        <time>2018-11-05T14:01:43Z</time>
      </trkpt>
      <trkpt lat="36.7602142598" lon="-2.1096061729">
        <ele>23.21</ele>
        <time>2018-11-05T14:01:44Z</time>
      </trkpt>
      <trkpt lat="36.7603454366" lon="-2.1097956039">
        <ele>27.53</ele>
        <time>2018-11-05T14:01:53Z</time>
      </trkpt>
      <trkpt lat="36.7604383081" lon="-2.1099328157">
        <ele>30.42</ele>
        <time>2018-11-05T14:02:02Z</time>
      </trkpt>
      <trkpt lat="36.7604561616" lon="-2.1100154612">
        <ele>31.38</ele>
        <time>2018-11-05T14:02:06Z</time>
      </trkpt>
      <trkpt lat="36.7605423275" lon="-2.1100961789">
        <ele>31.86</ele>
        <time>2018-11-05T14:02:12Z</time>
      </trkpt>
      <trkpt lat="36.7606510408" lon="-2.1101636533">
        <ele>32.34</ele>
        <time>2018-11-05T14:02:20Z</time>
      </trkpt>
      <trkpt lat="36.7607335187" lon="-2.1102171298">
        <ele>31.38</ele>
        <time>2018-11-05T14:02:27Z</time>
      </trkpt>
      <trkpt lat="36.7607621010" lon="-2.1102153696">
        <ele>30.90</ele>
        <time>2018-11-05T14:02:30Z</time>
      </trkpt>
      <trkpt lat="36.7607886717" lon="-2.1102630626">
        <ele>30.90</ele>
        <time>2018-11-05T14:02:35Z</time>
      </trkpt>
      <trkpt lat="36.7608630192" lon="-2.1104040463">
        <ele>29.94</ele>
        <time>2018-11-05T14:02:41Z</time>
      </trkpt>
      <trkpt lat="36.7609533761" lon="-2.1106924675">
        <ele>26.09</ele>
        <time>2018-11-05T14:02:47Z</time>
      </trkpt>
      <trkpt lat="36.7611412983" lon="-2.1109523904">
        <ele>21.77</ele>
        <time>2018-11-05T14:02:54Z</time>
      </trkpt>
      <trkpt lat="36.7612720560" lon="-2.1109731775">
        <ele>19.84</ele>
        <time>2018-11-05T14:02:57Z</time>
      </trkpt>
      <trkpt lat="36.7616416141" lon="-2.1109816432">
        <ele>16.48</ele>
        <time>2018-11-05T14:03:06Z</time>
      </trkpt>
      <trkpt lat="36.7617452145" lon="-2.1109753568">
        <ele>16.00</ele>
        <time>2018-11-05T14:03:11Z</time>
      </trkpt>
      <trkpt lat="36.7617577035" lon="-2.1109792124">
        <ele>16.00</ele>
        <time>2018-11-05T14:03:16Z</time>
      </trkpt>
      <trkpt lat="36.7617497407" lon="-2.1109844092">
        <ele>15.04</ele>
        <time>2018-11-05T14:03:37Z</time>
      </trkpt>
      <trkpt lat="36.7618161254" lon="-2.1109512169">
        <ele>14.56</ele>
        <time>2018-11-05T14:03:43Z</time>
      </trkpt>
      <trkpt lat="36.7619863618" lon="-2.1108140051">
        <ele>13.12</ele>
        <time>2018-11-05T14:03:50Z</time>
      </trkpt>
      <trkpt lat="36.7622220609" lon="-2.1106124204">
        <ele>10.71</ele>
        <time>2018-11-05T14:03:56Z</time>
      </trkpt>
      <trkpt lat="36.7626054492" lon="-2.1102996916">
        <ele>8.31</ele>
        <time>2018-11-05T14:04:04Z</time>
      </trkpt>
      <trkpt lat="36.7629646137" lon="-2.1099957637">
        <ele>8.79</ele>
        <time>2018-11-05T14:04:13Z</time>
      </trkpt>
      <trkpt lat="36.7631457467" lon="-2.1098341607">
        <ele>9.27</ele>
        <time>2018-11-05T14:04:20Z</time>
      </trkpt>
      <trkpt lat="36.7632564716" lon="-2.1097227652">
        <ele>8.79</ele>
        <time>2018-11-05T14:04:26Z</time>
      </trkpt>
      <trkpt lat="36.7632638477" lon="-2.1096981224">
        <ele>8.79</ele>
        <time>2018-11-05T14:04:27Z</time>
      </trkpt>
      <trkpt lat="36.7631211039" lon="-2.1095647663">
        <ele>8.31</ele>
        <time>2018-11-05T14:04:34Z</time>
      </trkpt>
      <trkpt lat="36.7628906853" lon="-2.1094369423">
        <ele>8.31</ele>
        <time>2018-11-05T14:04:42Z</time>
      </trkpt>
      <trkpt lat="36.7626745161" lon="-2.1093126386">
        <ele>7.83</ele>
        <time>2018-11-05T14:04:50Z</time>
      </trkpt>
      <trkpt lat="36.7625132482" lon="-2.1092144027">
        <ele>7.35</ele>
        <time>2018-11-05T14:04:58Z</time>
      </trkpt>
      <trkpt lat="36.7623126693" lon="-2.1091118921">
        <ele>5.42</ele>
        <time>2018-11-05T14:05:07Z</time>
      </trkpt>
      <trkpt lat="36.7620905489" lon="-2.1089585032">
        <ele>4.94</ele>
        <time>2018-11-05T14:05:15Z</time>
      </trkpt>
      <trkpt lat="36.7618869524" lon="-2.1088464372">
        <ele>5.91</ele>
        <time>2018-11-05T14:05:22Z</time>
      </trkpt>
      <trkpt lat="36.7616990302" lon="-2.1086685732">
        <ele>6.87</ele>
        <time>2018-11-05T14:05:30Z</time>
      </trkpt>
      <trkpt lat="36.7617264390" lon="-2.1084860153">
        <ele>5.91</ele>
        <time>2018-11-05T14:05:36Z</time>
      </trkpt>
      <trkpt lat="36.7619319633" lon="-2.1083531622">
        <ele>2.06</ele>
        <time>2018-11-05T14:05:45Z</time>
      </trkpt>
      <trkpt lat="36.7621276807" lon="-2.1082716901">
        <ele>2.06</ele>
        <time>2018-11-05T14:05:52Z</time>
      </trkpt>
      <trkpt lat="36.7623143457" lon="-2.1082020365">
        <ele>2.54</ele>
        <time>2018-11-05T14:05:59Z</time>
      </trkpt>
      <trkpt lat="36.7623566743" lon="-2.1081877034">
        <ele>2.54</ele>
        <time>2018-11-05T14:06:02Z</time>
      </trkpt>
      <trkpt lat="36.7624878511" lon="-2.1080033015">
        <ele>4.46</ele>
        <time>2018-11-05T14:06:10Z</time>
      </trkpt>
      <trkpt lat="36.7625937983" lon="-2.1078581270">
        <ele>6.39</ele>
        <time>2018-11-05T14:06:17Z</time>
      </trkpt>
      <trkpt lat="36.7628235463" lon="-2.1075677779">
        <ele>6.39</ele>
        <time>2018-11-05T14:06:29Z</time>
      </trkpt>
      <trkpt lat="36.7630063556" lon="-2.1073408797">
        <ele>5.91</ele>
        <time>2018-11-05T14:06:38Z</time>
      </trkpt>
      <trkpt lat="36.7631423939" lon="-2.1071495209">
        <ele>5.42</ele>
        <time>2018-11-05T14:06:46Z</time>
      </trkpt>
      <trkpt lat="36.7633169051" lon="-2.1068495326">
        <ele>4.94</ele>
        <time>2018-11-05T14:06:56Z</time>
      </trkpt>
      <trkpt lat="36.7634683661" lon="-2.1065785456">
        <ele>4.94</ele>
        <time>2018-11-05T14:07:05Z</time>
      </trkpt>
      <trkpt lat="36.7635992076" lon="-2.1063409187">
        <ele>3.98</ele>
        <time>2018-11-05T14:07:13Z</time>
      </trkpt>
      <trkpt lat="36.7638137005" lon="-2.1060712729">
        <ele>3.98</ele>
        <time>2018-11-05T14:07:22Z</time>
      </trkpt>
      <trkpt lat="36.7639038898" lon="-2.1058338135">
        <ele>4.46</ele>
        <time>2018-11-05T14:07:29Z</time>
      </trkpt>
      <trkpt lat="36.7638963461" lon="-2.1055871341">
        <ele>4.94</ele>
        <time>2018-11-05T14:07:36Z</time>
      </trkpt>
      <trkpt lat="36.7637915723" lon="-2.1052525286">
        <ele>5.42</ele>
        <time>2018-11-05T14:07:46Z</time>
      </trkpt>
      <trkpt lat="36.7637411132" lon="-2.1050981339">
        <ele>4.94</ele>
        <time>2018-11-05T14:07:52Z</time>
      </trkpt>
      <trkpt lat="36.7636778299" lon="-2.1049577370">
        <ele>5.42</ele>
        <time>2018-11-05T14:07:59Z</time>
      </trkpt>
      <trkpt lat="36.7636120319" lon="-2.1048502810">
        <ele>5.42</ele>
        <time>2018-11-05T14:08:05Z</time>
      </trkpt>
      <trkpt lat="36.7635961063" lon="-2.1048384625">
        <ele>5.42</ele>
        <time>2018-11-05T14:08:06Z</time>
      </trkpt>
      <trkpt lat="36.7635225132" lon="-2.1047783643">
        <ele>4.94</ele>
        <time>2018-11-05T14:08:10Z</time>
      </trkpt>
      <trkpt lat="36.7635903228" lon="-2.1047403105">
        <ele>3.98</ele>
        <time>2018-11-05T14:08:15Z</time>
      </trkpt>
      <trkpt lat="36.7636410333" lon="-2.1047800407">
        <ele>3.98</ele>
        <time>2018-11-05T14:08:17Z</time>
      </trkpt>
      <trkpt lat="36.7637546081" lon="-2.1049015783">
        <ele>4.46</ele>
        <time>2018-11-05T14:08:24Z</time>
      </trkpt>
      <trkpt lat="36.7638572026" lon="-2.1051588189">
        <ele>4.46</ele>
        <time>2018-11-05T14:08:32Z</time>
      </trkpt>
      <trkpt lat="36.7639052309" lon="-2.1053112019">
        <ele>4.46</ele>
        <time>2018-11-05T14:08:36Z</time>
      </trkpt>
      <trkpt lat="36.7640808318" lon="-2.1053773351">
        <ele>3.98</ele>
        <time>2018-11-05T14:08:42Z</time>
      </trkpt>
      <trkpt lat="36.7641148623" lon="-2.1053678636">
        <ele>3.98</ele>
        <time>2018-11-05T14:08:43Z</time>
      </trkpt>
      <trkpt lat="36.7642977554" lon="-2.1052367706">
        <ele>3.98</ele>
        <time>2018-11-05T14:08:50Z</time>
      </trkpt>
      <trkpt lat="36.7643456161" lon="-2.1050838847">
        <ele>4.94</ele>
        <time>2018-11-05T14:08:56Z</time>
      </trkpt>
      <trkpt lat="36.7642773036" lon="-2.1049073618">
        <ele>8.79</ele>
        <time>2018-11-05T14:09:03Z</time>
      </trkpt>
      <trkpt lat="36.7641688418" lon="-2.1047451720">
        <ele>12.15</ele>
        <time>2018-11-05T14:09:12Z</time>
      </trkpt>
      <trkpt lat="36.7640804127" lon="-2.1046124864">
        <ele>14.56</ele>
        <time>2018-11-05T14:09:21Z</time>
      </trkpt>
      <trkpt lat="36.7640255950" lon="-2.1045339480">
        <ele>15.52</ele>
        <time>2018-11-05T14:09:28Z</time>
      </trkpt>
      <trkpt lat="36.7640165426" lon="-2.1045239735">
        <ele>16.00</ele>
        <time>2018-11-05T14:09:36Z</time>
      </trkpt>
      <trkpt lat="36.7640084960" lon="-2.1044870932">
        <ele>16.00</ele>
        <time>2018-11-05T14:09:47Z</time>
      </trkpt>
      <trkpt lat="36.7639549356" lon="-2.1044526435">
        <ele>16.96</ele>
        <time>2018-11-05T14:09:55Z</time>
      </trkpt>
      <trkpt lat="36.7639551032" lon="-2.1044374723">
        <ele>16.96</ele>
        <time>2018-11-05T14:10:03Z</time>
      </trkpt>
      <trkpt lat="36.7639599647" lon="-2.1044256538">
        <ele>17.44</ele>
        <time>2018-11-05T14:10:29Z</time>
      </trkpt>
      <trkpt lat="36.7639711127" lon="-2.1044371370">
        <ele>18.88</ele>
        <time>2018-11-05T14:10:46Z</time>
      </trkpt>
      <trkpt lat="36.7639954202" lon="-2.1044291742">
        <ele>22.73</ele>
        <time>2018-11-05T14:11:10Z</time>
      </trkpt>
      <trkpt lat="36.7639675085" lon="-2.1044295933">
        <ele>22.25</ele>
        <time>2018-11-05T14:11:37Z</time>
      </trkpt>
      <trkpt lat="36.7639679275" lon="-2.1044307668">
        <ele>20.32</ele>
        <time>2018-11-05T14:11:56Z</time>
      </trkpt>
      <trkpt lat="36.7639734596" lon="-2.1044283360">
        <ele>21.77</ele>
        <time>2018-11-05T14:12:13Z</time>
      </trkpt>
      <trkpt lat="36.7639632337" lon="-2.1044684015">
        <ele>21.29</ele>
        <time>2018-11-05T14:12:28Z</time>
      </trkpt>
      <trkpt lat="36.7639502417" lon="-2.1044427529">
        <ele>20.32</ele>
        <time>2018-11-05T14:12:48Z</time>
      </trkpt>
      <trkpt lat="36.7639498226" lon="-2.1044487040">
        <ele>20.81</ele>
        <time>2018-11-05T14:13:10Z</time>
      </trkpt>
      <trkpt lat="36.7639584560" lon="-2.1044368017">
        <ele>19.84</ele>
        <time>2018-11-05T14:13:31Z</time>
      </trkpt>
      <trkpt lat="36.7639670894" lon="-2.1044304315">
        <ele>19.84</ele>
        <time>2018-11-05T14:13:48Z</time>
      </trkpt>
      <trkpt lat="36.7639561929" lon="-2.1044377238">
        <ele>22.73</ele>
        <time>2018-11-05T14:14:10Z</time>
      </trkpt>
      <trkpt lat="36.7639659159" lon="-2.1044385619">
        <ele>25.13</ele>
        <time>2018-11-05T14:14:38Z</time>
      </trkpt>
      <trkpt lat="36.7639530078" lon="-2.1044336166">
        <ele>25.61</ele>
        <time>2018-11-05T14:14:56Z</time>
      </trkpt>
      <trkpt lat="36.7639422789" lon="-2.1044378076">
        <ele>24.65</ele>
        <time>2018-11-05T14:15:09Z</time>
      </trkpt>
      <trkpt lat="36.7639615573" lon="-2.1044467762">
        <ele>21.77</ele>
        <time>2018-11-05T14:15:28Z</time>
      </trkpt>
      <trkpt lat="36.7639564443" lon="-2.1044373047">
        <ele>22.25</ele>
        <time>2018-11-05T14:15:45Z</time>
      </trkpt>
      <trkpt lat="36.7639750522" lon="-2.1044288389">
        <ele>22.73</ele>
        <time>2018-11-05T14:16:03Z</time>
      </trkpt>
      <trkpt lat="36.7639799137" lon="-2.1044058725">
        <ele>25.61</ele>
        <time>2018-11-05T14:16:23Z</time>
      </trkpt>
      <trkpt lat="36.7639802489" lon="-2.1044379752">
        <ele>22.73</ele>
        <time>2018-11-05T14:16:43Z</time>
      </trkpt>
      <trkpt lat="36.7639690172" lon="-2.1044393163">
        <ele>20.81</ele>
        <time>2018-11-05T14:17:04Z</time>
      </trkpt>
      <trkpt lat="36.7639866192" lon="-2.1044571698">
        <ele>20.81</ele>
        <time>2018-11-05T14:17:10Z</time>
      </trkpt>
      <trkpt lat="36.7640213203" lon="-2.1044551581">
        <ele>20.81</ele>
        <time>2018-11-05T14:17:14Z</time>
      </trkpt>
      <trkpt lat="36.7640528362" lon="-2.1044678148">
        <ele>21.29</ele>
        <time>2018-11-05T14:17:23Z</time>
      </trkpt>
      <trkpt lat="36.7640685104" lon="-2.1044496261">
        <ele>20.81</ele>
        <time>2018-11-05T14:17:29Z</time>
      </trkpt>
      <trkpt lat="36.7640976794" lon="-2.1043801401">
        <ele>23.21</ele>
        <time>2018-11-05T14:17:39Z</time>
      </trkpt>
      <trkpt lat="36.7640745454" lon="-2.1043671481">
        <ele>23.21</ele>
        <time>2018-11-05T14:17:44Z</time>
      </trkpt>
      <trkpt lat="36.7640569434" lon="-2.1043694112">
        <ele>24.17</ele>
        <time>2018-11-05T14:17:52Z</time>
      </trkpt>
      <trkpt lat="36.7640956677" lon="-2.1043535694">
        <ele>23.69</ele>
        <time>2018-11-05T14:18:18Z</time>
      </trkpt>
      <trkpt lat="36.7640661635" lon="-2.1043292619">
        <ele>23.21</ele>
        <time>2018-11-05T14:18:45Z</time>
      </trkpt>
      <trkpt lat="36.7640613858" lon="-2.1043465286">
        <ele>23.69</ele>
        <time>2018-11-05T14:19:09Z</time>
      </trkpt>
      <trkpt lat="36.7640585359" lon="-2.1043631248">
        <ele>25.13</ele>
        <time>2018-11-05T14:19:25Z</time>
      </trkpt>
      <trkpt lat="36.7640747130" lon="-2.1043646336">
        <ele>24.65</ele>
        <time>2018-11-05T14:19:46Z</time>
      </trkpt>
      <trkpt lat="36.7640721984" lon="-2.1043578442">
        <ele>23.69</ele>
        <time>2018-11-05T14:20:04Z</time>
      </trkpt>
      <trkpt lat="36.7640770599" lon="-2.1043576766">
        <ele>22.73</ele>
        <time>2018-11-05T14:20:22Z</time>
      </trkpt>
      <trkpt lat="36.7640733719" lon="-2.1043699980">
        <ele>24.17</ele>
        <time>2018-11-05T14:20:45Z</time>
      </trkpt>
      <trkpt lat="36.7640679237" lon="-2.1043859236">
        <ele>24.65</ele>
        <time>2018-11-05T14:21:04Z</time>
      </trkpt>
      <trkpt lat="36.7640609667" lon="-2.1043782961">
        <ele>24.65</ele>
        <time>2018-11-05T14:21:20Z</time>
      </trkpt>
      <trkpt lat="36.7640530039" lon="-2.1043627057">
        <ele>25.61</ele>
        <time>2018-11-05T14:21:40Z</time>
      </trkpt>
      <trkpt lat="36.7640573625" lon="-2.1043772064">
        <ele>25.13</ele>
        <time>2018-11-05T14:22:00Z</time>
      </trkpt>
      <trkpt lat="36.7640673369" lon="-2.1043611970">
        <ele>24.17</ele>
        <time>2018-11-05T14:22:08Z</time>
      </trkpt>
      <trkpt lat="36.7641044687" lon="-2.1043274179">
        <ele>23.21</ele>
        <time>2018-11-05T14:22:14Z</time>
      </trkpt>
      <trkpt lat="36.7641142756" lon="-2.1043297648">
        <ele>23.21</ele>
        <time>2018-11-05T14:22:15Z</time>
      </trkpt>
      <trkpt lat="36.7641600408" lon="-2.1042880230">
        <ele>23.69</ele>
        <time>2018-11-05T14:22:23Z</time>
      </trkpt>
      <trkpt lat="36.7641773913" lon="-2.1042409167">
        <ele>26.57</ele>
        <time>2018-11-05T14:22:32Z</time>
      </trkpt>
      <trkpt lat="36.7641757987" lon="-2.1042086463">
        <ele>28.50</ele>
        <time>2018-11-05T14:22:38Z</time>
      </trkpt>
      <trkpt lat="36.7641619686" lon="-2.1042023599">
        <ele>28.98</ele>
        <time>2018-11-05T14:22:40Z</time>
      </trkpt>
      <trkpt lat="36.7640608829" lon="-2.1041025314">
        <ele>28.98</ele>
        <time>2018-11-05T14:22:52Z</time>
      </trkpt>
      <trkpt lat="36.7639971804" lon="-2.1040491387">
        <ele>28.98</ele>
        <time>2018-11-05T14:23:01Z</time>
      </trkpt>
      <trkpt lat="36.7640013713" lon="-2.1040596161">
        <ele>28.50</ele>
        <time>2018-11-05T14:23:13Z</time>
      </trkpt>
      <trkpt lat="36.7640024610" lon="-2.1040679980">
        <ele>29.46</ele>
        <time>2018-11-05T14:23:19Z</time>
      </trkpt>
      <trkpt lat="36.7640225776" lon="-2.1040591132">
        <ele>28.02</ele>
        <time>2018-11-05T14:23:40Z</time>
      </trkpt>
      <trkpt lat="36.7640213203" lon="-2.1040605381">
        <ele>27.53</ele>
        <time>2018-11-05T14:24:01Z</time>
      </trkpt>
      <trkpt lat="36.7640007008" lon="-2.1040773019">
        <ele>27.53</ele>
        <time>2018-11-05T14:24:23Z</time>
      </trkpt>
      <trkpt lat="36.7640057299" lon="-2.1040550899">
        <ele>27.53</ele>
        <time>2018-11-05T14:24:40Z</time>
      </trkpt>
      <trkpt lat="36.7640131898" lon="-2.1040591970">
        <ele>28.98</ele>
        <time>2018-11-05T14:24:58Z</time>
      </trkpt>
      <trkpt lat="36.7640156206" lon="-2.1040634718">
        <ele>28.50</ele>
        <time>2018-11-05T14:25:16Z</time>
      </trkpt>
      <trkpt lat="36.7640217394" lon="-2.1040623821">
        <ele>26.09</ele>
        <time>2018-11-05T14:25:42Z</time>
      </trkpt>
      <trkpt lat="36.7640182190" lon="-2.1040635556">
        <ele>26.09</ele>
        <time>2018-11-05T14:26:07Z</time>
      </trkpt>
      <trkpt lat="36.7640073225" lon="-2.1040576044">
        <ele>28.02</ele>
        <time>2018-11-05T14:26:29Z</time>
      </trkpt>
      <trkpt lat="36.7639965098" lon="-2.1040607896">
        <ele>30.42</ele>
        <time>2018-11-05T14:26:54Z</time>
      </trkpt>
      <trkpt lat="36.7640064843" lon="-2.1040514857">
        <ele>29.94</ele>
        <time>2018-11-05T14:27:19Z</time>
      </trkpt>
      <trkpt lat="36.7640209012" lon="-2.1040722728">
        <ele>28.50</ele>
        <time>2018-11-05T14:27:31Z</time>
      </trkpt>
      <trkpt lat="36.7640613019" lon="-2.1040800679">
        <ele>27.53</ele>
        <time>2018-11-05T14:27:35Z</time>
      </trkpt>
      <trkpt lat="36.7641207296" lon="-2.1041493863">
        <ele>27.05</ele>
        <time>2018-11-05T14:27:41Z</time>
      </trkpt>
      <trkpt lat="36.7641841806" lon="-2.1042217221">
        <ele>28.50</ele>
        <time>2018-11-05T14:27:51Z</time>
      </trkpt>
      <trkpt lat="36.7641605437" lon="-2.1042627934">
        <ele>29.46</ele>
        <time>2018-11-05T14:28:00Z</time>
      </trkpt>
      <trkpt lat="36.7641310394" lon="-2.1043129172">
        <ele>28.02</ele>
        <time>2018-11-05T14:28:09Z</time>
      </trkpt>
      <trkpt lat="36.7640625592" lon="-2.1043466125">
        <ele>23.21</ele>
        <time>2018-11-05T14:28:17Z</time>
      </trkpt>
      <trkpt lat="36.7640375812" lon="-2.1043442655">
        <ele>22.73</ele>
        <time>2018-11-05T14:28:24Z</time>
      </trkpt>
      <trkpt lat="36.7640364915" lon="-2.1043492947">
        <ele>23.69</ele>
        <time>2018-11-05T14:28:50Z</time>
      </trkpt>
      <trkpt lat="36.7640407663" lon="-2.1043486241">
        <ele>23.21</ele>
        <time>2018-11-05T14:29:03Z</time>
      </trkpt>
      <trkpt lat="36.7640376650" lon="-2.1043415833">
        <ele>19.36</ele>
        <time>2018-11-05T14:29:34Z</time>
      </trkpt>
      <trkpt lat="36.7640489805" lon="-2.1043316089">
        <ele>18.40</ele>
        <time>2018-11-05T14:29:55Z</time>
      </trkpt>
      <trkpt lat="36.7640610505" lon="-2.1043377277">
        <ele>19.36</ele>
        <time>2018-11-05T14:30:19Z</time>
      </trkpt>
      <trkpt lat="36.7640596256" lon="-2.1043318603">
        <ele>19.36</ele>
        <time>2018-11-05T14:30:41Z</time>
      </trkpt>
      <trkpt lat="36.7640478909" lon="-2.1043337043">
        <ele>21.29</ele>
        <time>2018-11-05T14:31:03Z</time>
      </trkpt>
      <trkpt lat="36.7640583683" lon="-2.1043443494">
        <ele>21.77</ele>
        <time>2018-11-05T14:31:25Z</time>
      </trkpt>
      <trkpt lat="36.7640488129" lon="-2.1043482888">
        <ele>22.73</ele>
        <time>2018-11-05T14:31:44Z</time>
      </trkpt>
      <trkpt lat="36.7640312109" lon="-2.1043587662">
        <ele>24.65</ele>
        <time>2018-11-05T14:32:06Z</time>
      </trkpt>
      <trkpt lat="36.7640471365" lon="-2.1043176949">
        <ele>23.21</ele>
        <time>2018-11-05T14:32:26Z</time>
      </trkpt>
      <trkpt lat="36.7640690971" lon="-2.1043031942">
        <ele>19.36</ele>
        <time>2018-11-05T14:32:48Z</time>
      </trkpt>
      <trkpt lat="36.7640399281" lon="-2.1042877715">
        <ele>18.88</ele>
        <time>2018-11-05T14:32:58Z</time>
      </trkpt>
      <trkpt lat="36.7640271876" lon="-2.1043004282">
        <ele>18.88</ele>
        <time>2018-11-05T14:33:07Z</time>
      </trkpt>
      <trkpt lat="36.7640226614" lon="-2.1043066308">
        <ele>19.84</ele>
        <time>2018-11-05T14:33:26Z</time>
      </trkpt>
      <trkpt lat="36.7640211526" lon="-2.1042985842">
        <ele>19.36</ele>
        <time>2018-11-05T14:33:43Z</time>
      </trkpt>
      <trkpt lat="36.7640266847" lon="-2.1042982489">
        <ele>18.88</ele>
        <time>2018-11-05T14:33:57Z</time>
      </trkpt>
      <trkpt lat="36.7640214041" lon="-2.1042989194">
        <ele>19.36</ele>
        <time>2018-11-05T14:34:16Z</time>
      </trkpt>
      <trkpt lat="36.7640244216" lon="-2.1043045353">
        <ele>19.84</ele>
        <time>2018-11-05T14:34:29Z</time>
      </trkpt>
      <trkpt lat="36.7640187219" lon="-2.1043102350">
        <ele>20.32</ele>
        <time>2018-11-05T14:34:46Z</time>
      </trkpt>
      <trkpt lat="36.7640057299" lon="-2.1043297648">
        <ele>19.36</ele>
        <time>2018-11-05T14:35:02Z</time>
      </trkpt>
      <trkpt lat="36.7640014552" lon="-2.1043245681">
        <ele>19.84</ele>
        <time>2018-11-05T14:35:16Z</time>
      </trkpt>
      <trkpt lat="36.7640169617" lon="-2.1042991709">
        <ele>20.81</ele>
        <time>2018-11-05T14:35:35Z</time>
      </trkpt>
      <trkpt lat="36.7641072348" lon="-2.1044458542">
        <ele>16.00</ele>
        <time>2018-11-06T06:41:53Z</time>
      </trkpt>
      <trkpt lat="36.7640725337" lon="-2.1044636238">
        <ele>37.15</ele>
        <time>2018-11-06T06:42:05Z</time>
      </trkpt>
      <trkpt lat="36.7640615534" lon="-2.1044917870">
        <ele>33.78</ele>
        <time>2018-11-06T06:42:23Z</time>
      </trkpt>
      <trkpt lat="36.7641100008" lon="-2.1046093013">
        <ele>30.42</ele>
        <time>2018-11-06T06:42:29Z</time>
      </trkpt>
      <trkpt lat="36.7642247491" lon="-2.1048050188">
        <ele>28.02</ele>
        <time>2018-11-06T06:42:33Z</time>
      </trkpt>
      <trkpt lat="36.7642562650" lon="-2.1052716393">
        <ele>20.32</ele>
        <time>2018-11-06T06:42:43Z</time>
      </trkpt>
      <trkpt lat="36.7642089911" lon="-2.1053285524">
        <ele>18.88</ele>
        <time>2018-11-06T06:42:45Z</time>
      </trkpt>
      <trkpt lat="36.7640214879" lon="-2.1055634972">
        <ele>16.00</ele>
        <time>2018-11-06T06:42:52Z</time>
      </trkpt>
      <trkpt lat="36.7639430333" lon="-2.1057142038">
        <ele>14.56</ele>
        <time>2018-11-06T06:42:59Z</time>
      </trkpt>
      <trkpt lat="36.7638588790" lon="-2.1059017070">
        <ele>12.15</ele>
        <time>2018-11-06T06:43:08Z</time>
      </trkpt>
      <trkpt lat="36.7637650017" lon="-2.1060819179">
        <ele>11.19</ele>
        <time>2018-11-06T06:43:17Z</time>
      </trkpt>
      <trkpt lat="36.7637185659" lon="-2.1061628871">
        <ele>10.23</ele>
        <time>2018-11-06T06:43:25Z</time>
      </trkpt>
      <trkpt lat="36.7637324799" lon="-2.1061593667">
        <ele>7.35</ele>
        <time>2018-11-06T06:43:43Z</time>
      </trkpt>
      <trkpt lat="36.7637375928" lon="-2.1061610430">
        <ele>6.87</ele>
        <time>2018-11-06T06:43:48Z</time>
      </trkpt>
      <trkpt lat="36.7636727169" lon="-2.1062764619">
        <ele>5.91</ele>
        <time>2018-11-06T06:43:56Z</time>
      </trkpt>
      <trkpt lat="36.7636101879" lon="-2.1063858457">
        <ele>5.42</ele>
        <time>2018-11-06T06:44:02Z</time>
      </trkpt>
      <trkpt lat="36.7635478266" lon="-2.1065070480">
        <ele>4.94</ele>
        <time>2018-11-06T06:44:11Z</time>
      </trkpt>
      <trkpt lat="36.7635305598" lon="-2.1065342054">
        <ele>4.94</ele>
        <time>2018-11-06T06:44:13Z</time>
      </trkpt>
      <trkpt lat="36.7634982057" lon="-2.1065974049">
        <ele>4.94</ele>
        <time>2018-11-06T06:44:17Z</time>
      </trkpt>
      <trkpt lat="36.7634612415" lon="-2.1066657174">
        <ele>5.91</ele>
        <time>2018-11-06T06:44:26Z</time>
      </trkpt>
      <trkpt lat="36.7634039093" lon="-2.1067495365">
        <ele>6.87</ele>
        <time>2018-11-06T06:44:34Z</time>
      </trkpt>
      <trkpt lat="36.7633471638" lon="-2.1069117263">
        <ele>5.91</ele>
        <time>2018-11-06T06:44:41Z</time>
      </trkpt>
      <trkpt lat="36.7634314019" lon="-2.1070620976">
        <ele>5.42</ele>
        <time>2018-11-06T06:44:47Z</time>
      </trkpt>
      <trkpt lat="36.7635929212" lon="-2.1072118822">
        <ele>3.98</ele>
        <time>2018-11-06T06:44:55Z</time>
      </trkpt>
      <trkpt lat="36.7638267763" lon="-2.1073986311">
        <ele>2.54</ele>
        <time>2018-11-06T06:45:05Z</time>
      </trkpt>
      <trkpt lat="36.7639955040" lon="-2.1075633354">
        <ele>3.02</ele>
        <time>2018-11-06T06:45:13Z</time>
      </trkpt>
      <trkpt lat="36.7642221507" lon="-2.1077260282">
        <ele>3.98</ele>
        <time>2018-11-06T06:45:23Z</time>
      </trkpt>
      <trkpt lat="36.7644724343" lon="-2.1079191472">
        <ele>5.91</ele>
        <time>2018-11-06T06:45:33Z</time>
      </trkpt>
      <trkpt lat="36.7647212930" lon="-2.1081307903">
        <ele>5.42</ele>
        <time>2018-11-06T06:45:42Z</time>
      </trkpt>
      <trkpt lat="36.7650232930" lon="-2.1083550900">
        <ele>5.42</ele>
        <time>2018-11-06T06:45:52Z</time>
      </trkpt>
      <trkpt lat="36.7653418891" lon="-2.1086192876">
        <ele>4.94</ele>
        <time>2018-11-06T06:46:02Z</time>
      </trkpt>
      <trkpt lat="36.7657401972" lon="-2.1089529712">
        <ele>4.94</ele>
        <time>2018-11-06T06:46:14Z</time>
      </trkpt>
      <trkpt lat="36.7661251780" lon="-2.1092198510">
        <ele>4.46</ele>
        <time>2018-11-06T06:46:25Z</time>
      </trkpt>
      <trkpt lat="36.7665232345" lon="-2.1094242018">
        <ele>5.91</ele>
        <time>2018-11-06T06:46:36Z</time>
      </trkpt>
      <trkpt lat="36.7668627016" lon="-2.1095966175">
        <ele>6.87</ele>
        <time>2018-11-06T06:46:45Z</time>
      </trkpt>
      <trkpt lat="36.7671947926" lon="-2.1096805204">
        <ele>9.75</ele>
        <time>2018-11-06T06:46:54Z</time>
      </trkpt>
      <trkpt lat="36.7673945334" lon="-2.1095430572">
        <ele>10.23</ele>
        <time>2018-11-06T06:47:01Z</time>
      </trkpt>
      <trkpt lat="36.7674580682" lon="-2.1094141435">
        <ele>11.19</ele>
        <time>2018-11-06T06:47:05Z</time>
      </trkpt>
      <trkpt lat="36.7676143069" lon="-2.1094352659">
        <ele>11.19</ele>
        <time>2018-11-06T06:47:10Z</time>
      </trkpt>
      <trkpt lat="36.7676449008" lon="-2.1094690450">
        <ele>11.19</ele>
        <time>2018-11-06T06:47:11Z</time>
      </trkpt>
      <trkpt lat="36.7676660232" lon="-2.1094899997">
        <ele>11.67</ele>
        <time>2018-11-06T06:47:12Z</time>
      </trkpt>
      <trkpt lat="36.7676944379" lon="-2.1095196716">
        <ele>11.67</ele>
        <time>2018-11-06T06:47:13Z</time>
      </trkpt>
      <trkpt lat="36.7679352500" lon="-2.1096378565">
        <ele>12.15</ele>
        <time>2018-11-06T06:47:20Z</time>
      </trkpt>
      <trkpt lat="36.7679769918" lon="-2.1096320730">
        <ele>12.15</ele>
        <time>2018-11-06T06:47:21Z</time>
      </trkpt>
      <trkpt lat="36.7682129424" lon="-2.1094857249">
        <ele>12.63</ele>
        <time>2018-11-06T06:47:28Z</time>
      </trkpt>
      <trkpt lat="36.7683986016" lon="-2.1094396245">
        <ele>13.12</ele>
        <time>2018-11-06T06:47:33Z</time>
      </trkpt>
      <trkpt lat="36.7685538344" lon="-2.1095086914">
        <ele>14.08</ele>
        <time>2018-11-06T06:47:38Z</time>
      </trkpt>
      <trkpt lat="36.7685854342" lon="-2.1095018182">
        <ele>14.08</ele>
        <time>2018-11-06T06:47:39Z</time>
      </trkpt>
      <trkpt lat="36.7686082330" lon="-2.1094863117">
        <ele>14.56</ele>
        <time>2018-11-06T06:47:40Z</time>
      </trkpt>
      <trkpt lat="36.7686333787" lon="-2.1094624233">
        <ele>14.56</ele>
        <time>2018-11-06T06:47:41Z</time>
      </trkpt>
      <trkpt lat="36.7686482146" lon="-2.1094323322">
        <ele>14.08</ele>
        <time>2018-11-06T06:47:42Z</time>
      </trkpt>
      <trkpt lat="36.7686570995" lon="-2.1093965415">
        <ele>14.08</ele>
        <time>2018-11-06T06:47:43Z</time>
      </trkpt>
      <trkpt lat="36.7686596978" lon="-2.1091810428">
        <ele>13.60</ele>
        <time>2018-11-06T06:47:48Z</time>
      </trkpt>
      <trkpt lat="36.7687686626" lon="-2.1089476906">
        <ele>13.12</ele>
        <time>2018-11-06T06:47:53Z</time>
      </trkpt>
      <trkpt lat="36.7689293437" lon="-2.1089537255">
        <ele>12.63</ele>
        <time>2018-11-06T06:47:57Z</time>
      </trkpt>
      <trkpt lat="36.7690026015" lon="-2.1090110578">
        <ele>12.15</ele>
        <time>2018-11-06T06:47:59Z</time>
      </trkpt>
      <trkpt lat="36.7691046931" lon="-2.1091048513">
        <ele>12.63</ele>
        <time>2018-11-06T06:48:02Z</time>
      </trkpt>
      <trkpt lat="36.7691436689" lon="-2.1091234591">
        <ele>12.63</ele>
        <time>2018-11-06T06:48:03Z</time>
      </trkpt>
      <trkpt lat="36.7691834830" lon="-2.1091270633">
        <ele>12.63</ele>
        <time>2018-11-06T06:48:04Z</time>
      </trkpt>
      <trkpt lat="36.7695009056" lon="-2.1090647019">
        <ele>13.60</ele>
        <time>2018-11-06T06:48:12Z</time>
      </trkpt>
      <trkpt lat="36.7699599825" lon="-2.1089428291">
        <ele>15.04</ele>
        <time>2018-11-06T06:48:24Z</time>
      </trkpt>
      <trkpt lat="36.7703873757" lon="-2.1088386420">
        <ele>16.00</ele>
        <time>2018-11-06T06:48:36Z</time>
      </trkpt>
      <trkpt lat="36.7708062194" lon="-2.1087202895">
        <ele>16.96</ele>
        <time>2018-11-06T06:48:48Z</time>
      </trkpt>
      <trkpt lat="36.7711052857" lon="-2.1085982490">
        <ele>17.44</ele>
        <time>2018-11-06T06:48:58Z</time>
      </trkpt>
      <trkpt lat="36.7713579163" lon="-2.1085012704">
        <ele>18.88</ele>
        <time>2018-11-06T06:49:08Z</time>
      </trkpt>
      <trkpt lat="36.7716224492" lon="-2.1083969995">
        <ele>20.81</ele>
        <time>2018-11-06T06:49:19Z</time>
      </trkpt>
      <trkpt lat="36.7718429770" lon="-2.1083127614">
        <ele>21.29</ele>
        <time>2018-11-06T06:49:28Z</time>
      </trkpt>
      <trkpt lat="36.7721493356" lon="-2.1081949957">
        <ele>23.21</ele>
        <time>2018-11-06T06:49:41Z</time>
      </trkpt>
      <trkpt lat="36.7723616492" lon="-2.1081091650">
        <ele>25.61</ele>
        <time>2018-11-06T06:49:50Z</time>
      </trkpt>
      <trkpt lat="36.7725612223" lon="-2.1080315486">
        <ele>26.57</ele>
        <time>2018-11-06T06:49:58Z</time>
      </trkpt>
      <trkpt lat="36.7728905473" lon="-2.1079137828">
        <ele>28.50</ele>
        <time>2018-11-06T06:50:11Z</time>
      </trkpt>
      <trkpt lat="36.7731456086" lon="-2.1078176424">
        <ele>29.46</ele>
        <time>2018-11-06T06:50:21Z</time>
      </trkpt>
      <trkpt lat="36.7733676452" lon="-2.1077394392">
        <ele>30.42</ele>
        <time>2018-11-06T06:50:31Z</time>
      </trkpt>
      <trkpt lat="36.7736174259" lon="-2.1076427959">
        <ele>32.34</ele>
        <time>2018-11-06T06:50:42Z</time>
      </trkpt>
      <trkpt lat="36.7737725750" lon="-2.1075822785">
        <ele>33.30</ele>
        <time>2018-11-06T06:50:50Z</time>
      </trkpt>
      <trkpt lat="36.7739178333" lon="-2.1075336635">
        <ele>34.26</ele>
        <time>2018-11-06T06:50:58Z</time>
      </trkpt>
      <trkpt lat="36.7741379421" lon="-2.1074438095">
        <ele>36.19</ele>
        <time>2018-11-06T06:51:10Z</time>
      </trkpt>
      <trkpt lat="36.7743381858" lon="-2.1073546261">
        <ele>38.11</ele>
        <time>2018-11-06T06:51:20Z</time>
      </trkpt>
      <trkpt lat="36.7746033054" lon="-2.1072521154">
        <ele>39.07</ele>
        <time>2018-11-06T06:51:33Z</time>
      </trkpt>
      <trkpt lat="36.7748052254" lon="-2.1071674582">
        <ele>40.03</ele>
        <time>2018-11-06T06:51:43Z</time>
      </trkpt>
      <trkpt lat="36.7750120070" lon="-2.1070767660">
        <ele>41.47</ele>
        <time>2018-11-06T06:51:53Z</time>
      </trkpt>
      <trkpt lat="36.7752118316" lon="-2.1069918573">
        <ele>42.44</ele>
        <time>2018-11-06T06:52:03Z</time>
      </trkpt>
      <trkpt lat="36.7753808945" lon="-2.1069126483">
        <ele>44.36</ele>
        <time>2018-11-06T06:52:12Z</time>
      </trkpt>
      <trkpt lat="36.7755705770" lon="-2.1068364568">
        <ele>45.32</ele>
        <time>2018-11-06T06:52:20Z</time>
      </trkpt>
      <trkpt lat="36.7757964693" lon="-2.1067576669">
        <ele>46.76</ele>
        <time>2018-11-06T06:52:29Z</time>
      </trkpt>
      <trkpt lat="36.7761119641" lon="-2.1066925395">
        <ele>48.68</ele>
        <time>2018-11-06T06:52:41Z</time>
      </trkpt>
      <trkpt lat="36.7764617410" lon="-2.1066723391">
        <ele>49.16</ele>
        <time>2018-11-06T06:52:53Z</time>
      </trkpt>
      <trkpt lat="36.7767336499" lon="-2.1066926233">
        <ele>48.68</ele>
        <time>2018-11-06T06:53:03Z</time>
      </trkpt>
      <trkpt lat="36.7768391781" lon="-2.1066866722">
        <ele>48.20</ele>
        <time>2018-11-06T06:53:11Z</time>
      </trkpt>
      <trkpt lat="36.7768395972" lon="-2.1066916175">
        <ele>47.24</ele>
        <time>2018-11-06T06:53:30Z</time>
      </trkpt>
      <trkpt lat="36.7768469732" lon="-2.1066947188">
        <ele>48.68</ele>
        <time>2018-11-06T06:53:47Z</time>
      </trkpt>
      <trkpt lat="36.7769077420" lon="-2.1067153383">
        <ele>47.72</ele>
        <time>2018-11-06T06:53:55Z</time>
      </trkpt>
      <trkpt lat="36.7771077342" lon="-2.1067538951">
        <ele>47.24</ele>
        <time>2018-11-06T06:54:05Z</time>
      </trkpt>
      <trkpt lat="36.7773760390" lon="-2.1068093833">
        <ele>46.76</ele>
        <time>2018-11-06T06:54:16Z</time>
      </trkpt>
      <trkpt lat="36.7776990775" lon="-2.1068858262">
        <ele>44.84</ele>
        <time>2018-11-06T06:54:24Z</time>
      </trkpt>
      <trkpt lat="36.7782334238" lon="-2.1070154943">
        <ele>43.88</ele>
        <time>2018-11-06T06:54:34Z</time>
      </trkpt>
      <trkpt lat="36.7786184046" lon="-2.1071334276">
        <ele>44.84</ele>
        <time>2018-11-06T06:54:42Z</time>
      </trkpt>
      <trkpt lat="36.7788526788" lon="-2.1072390396">
        <ele>45.80</ele>
        <time>2018-11-06T06:54:50Z</time>
      </trkpt>
      <trkpt lat="36.7791574448" lon="-2.1074001398">
        <ele>47.24</ele>
        <time>2018-11-06T06:55:01Z</time>
      </trkpt>
      <trkpt lat="36.7793368176" lon="-2.1074941009">
        <ele>47.72</ele>
        <time>2018-11-06T06:55:09Z</time>
      </trkpt>
      <trkpt lat="36.7795016896" lon="-2.1075857989">
        <ele>47.72</ele>
        <time>2018-11-06T06:55:17Z</time>
      </trkpt>
      <trkpt lat="36.7797253188" lon="-2.1077044867">
        <ele>46.76</ele>
        <time>2018-11-06T06:55:26Z</time>
      </trkpt>
      <trkpt lat="36.7800719943" lon="-2.1078820992">
        <ele>46.28</ele>
        <time>2018-11-06T06:55:36Z</time>
      </trkpt>
      <trkpt lat="36.7805378605" lon="-2.1081394237">
        <ele>44.84</ele>
        <time>2018-11-06T06:55:48Z</time>
      </trkpt>
      <trkpt lat="36.7809363361" lon="-2.1083508153">
        <ele>43.88</ele>
        <time>2018-11-06T06:55:57Z</time>
      </trkpt>
      <trkpt lat="36.7813850194" lon="-2.1085809823">
        <ele>42.92</ele>
        <time>2018-11-06T06:56:07Z</time>
      </trkpt>
      <trkpt lat="36.7816542462" lon="-2.1086825710">
        <ele>41.95</ele>
        <time>2018-11-06T06:56:12Z</time>
      </trkpt>
      <trkpt lat="36.7817190383" lon="-2.1086912043">
        <ele>41.95</ele>
        <time>2018-11-06T06:56:13Z</time>
      </trkpt>
      <trkpt lat="36.7817750294" lon="-2.1086927969">
        <ele>41.47</ele>
        <time>2018-11-06T06:56:14Z</time>
      </trkpt>
      <trkpt lat="36.7822305858" lon="-2.1086072177">
        <ele>42.92</ele>
        <time>2018-11-06T06:56:22Z</time>
      </trkpt>
      <trkpt lat="36.7824764270" lon="-2.1085425932">
        <ele>43.40</ele>
        <time>2018-11-06T06:56:29Z</time>
      </trkpt>
      <trkpt lat="36.7827554606" lon="-2.1084803157">
        <ele>44.84</ele>
        <time>2018-11-06T06:56:38Z</time>
      </trkpt>
      <trkpt lat="36.7830931675" lon="-2.1083801519">
        <ele>47.24</ele>
        <time>2018-11-06T06:56:49Z</time>
      </trkpt>
      <trkpt lat="36.7834140267" lon="-2.1082949080">
        <ele>48.20</ele>
        <time>2018-11-06T06:56:59Z</time>
      </trkpt>
      <trkpt lat="36.7837879434" lon="-2.1082216501">
        <ele>50.13</ele>
        <time>2018-11-06T06:57:10Z</time>
      </trkpt>
      <trkpt lat="36.7839179467" lon="-2.1082975902">
        <ele>49.65</ele>
        <time>2018-11-06T06:57:17Z</time>
      </trkpt>
      <trkpt lat="36.7839554138" lon="-2.1084183734">
        <ele>48.20</ele>
        <time>2018-11-06T06:57:25Z</time>
      </trkpt>
      <trkpt lat="36.7839601915" lon="-2.1084102429">
        <ele>47.24</ele>
        <time>2018-11-06T06:57:36Z</time>
      </trkpt>
      <trkpt lat="36.7839663103" lon="-2.1084059682">
        <ele>47.24</ele>
        <time>2018-11-06T06:57:54Z</time>
      </trkpt>
      <trkpt lat="36.7839656398" lon="-2.1084108297">
        <ele>46.76</ele>
        <time>2018-11-06T06:58:16Z</time>
      </trkpt>
      <trkpt lat="36.7839592695" lon="-2.1084306948">
        <ele>45.80</ele>
        <time>2018-11-06T06:58:24Z</time>
      </trkpt>
      <trkpt lat="36.7839508038" lon="-2.1084439382">
        <ele>45.80</ele>
        <time>2018-11-06T06:58:25Z</time>
      </trkpt>
      <trkpt lat="36.7839371413" lon="-2.1084487997">
        <ele>45.80</ele>
        <time>2018-11-06T06:58:26Z</time>
      </trkpt>
      <trkpt lat="36.7839227244" lon="-2.1084394120">
        <ele>46.28</ele>
        <time>2018-11-06T06:58:27Z</time>
      </trkpt>
      <trkpt lat="36.7839144263" lon="-2.1084217262">
        <ele>46.28</ele>
        <time>2018-11-06T06:58:28Z</time>
      </trkpt>
      <trkpt lat="36.7839160189" lon="-2.1084038727">
        <ele>46.28</ele>
        <time>2018-11-06T06:58:29Z</time>
      </trkpt>
      <trkpt lat="36.7839197908" lon="-2.1083815768">
        <ele>46.28</ele>
        <time>2018-11-06T06:58:30Z</time>
      </trkpt>
      <trkpt lat="36.7839256581" lon="-2.1083593648">
        <ele>46.28</ele>
        <time>2018-11-06T06:58:31Z</time>
      </trkpt>
      <trkpt lat="36.7839376442" lon="-2.1082188841">
        <ele>46.76</ele>
        <time>2018-11-06T06:58:36Z</time>
      </trkpt>
      <trkpt lat="36.7839596048" lon="-2.1081960015">
        <ele>46.76</ele>
        <time>2018-11-06T06:58:37Z</time>
      </trkpt>
      <trkpt lat="36.7839870974" lon="-2.1081877872">
        <ele>46.76</ele>
        <time>2018-11-06T06:58:38Z</time>
      </trkpt>
      <trkpt lat="36.7840138357" lon="-2.1081829257">
        <ele>47.24</ele>
        <time>2018-11-06T06:58:39Z</time>
      </trkpt>
      <trkpt lat="36.7840419989" lon="-2.1081798244">
        <ele>47.24</ele>
        <time>2018-11-06T06:58:40Z</time>
      </trkpt>
      <trkpt lat="36.7840717547" lon="-2.1081803273">
        <ele>47.72</ele>
        <time>2018-11-06T06:58:41Z</time>
      </trkpt>
      <trkpt lat="36.7843538895" lon="-2.1081851050">
        <ele>49.16</ele>
        <time>2018-11-06T06:58:51Z</time>
      </trkpt>
      <trkpt lat="36.7846774310" lon="-2.1082172915">
        <ele>50.13</ele>
        <time>2018-11-06T06:59:01Z</time>
      </trkpt>
      <trkpt lat="36.7850568797" lon="-2.1083316207">
        <ele>50.13</ele>
        <time>2018-11-06T06:59:12Z</time>
      </trkpt>
      <trkpt lat="36.7853843607" lon="-2.1084928047">
        <ele>51.57</ele>
        <time>2018-11-06T06:59:22Z</time>
      </trkpt>
      <trkpt lat="36.7857234925" lon="-2.1086612809">
        <ele>52.05</ele>
        <time>2018-11-06T06:59:32Z</time>
      </trkpt>
      <trkpt lat="36.7862061225" lon="-2.1088900231">
        <ele>52.53</ele>
        <time>2018-11-06T06:59:45Z</time>
      </trkpt>
      <trkpt lat="36.7865345255" lon="-2.1089741774">
        <ele>51.09</ele>
        <time>2018-11-06T06:59:53Z</time>
      </trkpt>
      <trkpt lat="36.7869654391" lon="-2.1090383828">
        <ele>49.65</ele>
        <time>2018-11-06T07:00:01Z</time>
      </trkpt>
      <trkpt lat="36.7871684488" lon="-2.1090755984">
        <ele>49.65</ele>
        <time>2018-11-06T07:00:05Z</time>
      </trkpt>
      <trkpt lat="36.7872117832" lon="-2.1090781130">
        <ele>50.13</ele>
        <time>2018-11-06T07:00:06Z</time>
      </trkpt>
      <trkpt lat="36.7872556206" lon="-2.1090838965">
        <ele>50.13</ele>
        <time>2018-11-06T07:00:07Z</time>
      </trkpt>
      <trkpt lat="36.7872965243" lon="-2.1090898477">
        <ele>50.13</ele>
        <time>2018-11-06T07:00:08Z</time>
      </trkpt>
      <trkpt lat="36.7873365898" lon="-2.1090932842">
        <ele>49.65</ele>
        <time>2018-11-06T07:00:09Z</time>
      </trkpt>
      <trkpt lat="36.7873753980" lon="-2.1091017500">
        <ele>49.65</ele>
        <time>2018-11-06T07:00:10Z</time>
      </trkpt>
      <trkpt lat="36.7874189839" lon="-2.1091093775">
        <ele>49.65</ele>
        <time>2018-11-06T07:00:11Z</time>
      </trkpt>
      <trkpt lat="36.7879847623" lon="-2.1091356967">
        <ele>50.61</ele>
        <time>2018-11-06T07:00:24Z</time>
      </trkpt>
      <trkpt lat="36.7884279974" lon="-2.1091874968">
        <ele>50.13</ele>
        <time>2018-11-06T07:00:34Z</time>
      </trkpt>
      <trkpt lat="36.7887719069" lon="-2.1093622595">
        <ele>49.65</ele>
        <time>2018-11-06T07:00:42Z</time>
      </trkpt>
      <trkpt lat="36.7890154012" lon="-2.1095471643">
        <ele>49.16</ele>
        <time>2018-11-06T07:00:48Z</time>
      </trkpt>
      <trkpt lat="36.7891396210" lon="-2.1096249484">
        <ele>49.16</ele>
        <time>2018-11-06T07:00:53Z</time>
      </trkpt>
      <trkpt lat="36.7891908344" lon="-2.1096546203">
        <ele>49.65</ele>
        <time>2018-11-06T07:00:55Z</time>
      </trkpt>
      <trkpt lat="36.7892110348" lon="-2.1096477471">
        <ele>49.65</ele>
        <time>2018-11-06T07:00:56Z</time>
      </trkpt>
      <trkpt lat="36.7893505096" lon="-2.1096076816">
        <ele>51.57</ele>
        <time>2018-11-06T07:01:03Z</time>
      </trkpt>
      <trkpt lat="36.7895654216" lon="-2.1096004732">
        <ele>53.01</ele>
        <time>2018-11-06T07:01:12Z</time>
      </trkpt>
      <trkpt lat="36.7898256797" lon="-2.1095692925">
        <ele>53.97</ele>
        <time>2018-11-06T07:01:22Z</time>
      </trkpt>
      <trkpt lat="36.7899276875" lon="-2.1095443144">
        <ele>54.45</ele>
        <time>2018-11-06T07:01:28Z</time>
      </trkpt>
      <trkpt lat="36.7899561860" lon="-2.1095350105">
        <ele>53.97</ele>
        <time>2018-11-06T07:01:35Z</time>
      </trkpt>
      <trkpt lat="36.7899513245" lon="-2.1095299814">
        <ele>53.49</ele>
        <time>2018-11-06T07:01:36Z</time>
      </trkpt>
      <trkpt lat="36.7898481432" lon="-2.1095117927">
        <ele>53.01</ele>
        <time>2018-11-06T07:01:42Z</time>
      </trkpt>
      <trkpt lat="36.7897725385" lon="-2.1095327474">
        <ele>52.53</ele>
        <time>2018-11-06T07:01:46Z</time>
      </trkpt>
      <trkpt lat="36.7897694372" lon="-2.1094573941">
        <ele>52.05</ele>
        <time>2018-11-06T07:01:52Z</time>
      </trkpt>
      <trkpt lat="36.7898196448" lon="-2.1094280574">
        <ele>52.05</ele>
        <time>2018-11-06T07:01:55Z</time>
      </trkpt>
      <trkpt lat="36.7900457885" lon="-2.1092761774">
        <ele>52.05</ele>
        <time>2018-11-06T07:02:06Z</time>
      </trkpt>
      <trkpt lat="36.7902643047" lon="-2.1091971360">
        <ele>52.53</ele>
        <time>2018-11-06T07:02:15Z</time>
      </trkpt>
      <trkpt lat="36.7903651390" lon="-2.1091817133">
        <ele>53.01</ele>
        <time>2018-11-06T07:02:21Z</time>
      </trkpt>
      <trkpt lat="36.7905080505" lon="-2.1091641113">
        <ele>53.49</ele>
        <time>2018-11-06T07:02:30Z</time>
      </trkpt>
      <trkpt lat="36.7906583380" lon="-2.1091344394">
        <ele>53.97</ele>
        <time>2018-11-06T07:02:37Z</time>
      </trkpt>
      <trkpt lat="36.7908294965" lon="-2.1090551466">
        <ele>54.93</ele>
        <time>2018-11-06T07:02:44Z</time>
      </trkpt>
      <trkpt lat="36.7909828015" lon="-2.1087706648">
        <ele>57.82</ele>
        <time>2018-11-06T07:02:54Z</time>
      </trkpt>
      <trkpt lat="36.7911688797" lon="-2.1085640509">
        <ele>58.30</ele>
        <time>2018-11-06T07:03:03Z</time>
      </trkpt>
      <trkpt lat="36.7912867293" lon="-2.1083130967">
        <ele>60.22</ele>
        <time>2018-11-06T07:03:12Z</time>
      </trkpt>
      <trkpt lat="36.7913734820" lon="-2.1081367414">
        <ele>61.18</ele>
        <time>2018-11-06T07:03:19Z</time>
      </trkpt>
      <trkpt lat="36.7914495058" lon="-2.1079139505">
        <ele>63.58</ele>
        <time>2018-11-06T07:03:27Z</time>
      </trkpt>
      <trkpt lat="36.7914811894" lon="-2.1077213343">
        <ele>64.55</ele>
        <time>2018-11-06T07:03:36Z</time>
      </trkpt>
      <trkpt lat="36.7914859671" lon="-2.1075987909">
        <ele>64.07</ele>
        <time>2018-11-06T07:03:43Z</time>
      </trkpt>
      <trkpt lat="36.7914904095" lon="-2.1076155547">
        <ele>64.07</ele>
        <time>2018-11-06T07:03:55Z</time>
      </trkpt>
      <trkpt lat="36.7914842907" lon="-2.1076081786">
        <ele>63.58</ele>
        <time>2018-11-06T07:04:10Z</time>
      </trkpt>
      <trkpt lat="36.7914855480" lon="-2.1076101903">
        <ele>63.58</ele>
        <time>2018-11-06T07:04:32Z</time>
      </trkpt>
      <trkpt lat="36.7914885655" lon="-2.1075949352">
        <ele>62.62</ele>
        <time>2018-11-06T07:04:49Z</time>
      </trkpt>
      <trkpt lat="36.7914879788" lon="-2.1076034009">
        <ele>63.10</ele>
        <time>2018-11-06T07:05:10Z</time>
      </trkpt>
      <trkpt lat="36.7914877273" lon="-2.1075888164">
        <ele>63.58</ele>
        <time>2018-11-06T07:05:26Z</time>
      </trkpt>
      <trkpt lat="36.7914805189" lon="-2.1075871401">
        <ele>61.66</ele>
        <time>2018-11-06T07:05:50Z</time>
      </trkpt>
      <trkpt lat="36.7914937623" lon="-2.1075421292">
        <ele>62.14</ele>
        <time>2018-11-06T07:06:09Z</time>
      </trkpt>
      <trkpt lat="36.7915177345" lon="-2.1073331684">
        <ele>62.62</ele>
        <time>2018-11-06T07:06:17Z</time>
      </trkpt>
      <trkpt lat="36.7915807664" lon="-2.1070600022">
        <ele>63.10</ele>
        <time>2018-11-06T07:06:26Z</time>
      </trkpt>
      <trkpt lat="36.7916574609" lon="-2.1067170147">
        <ele>64.55</ele>
        <time>2018-11-06T07:06:37Z</time>
      </trkpt>
      <trkpt lat="36.7917051539" lon="-2.1064968221">
        <ele>65.03</ele>
        <time>2018-11-06T07:06:46Z</time>
      </trkpt>
      <trkpt lat="36.7917505838" lon="-2.1062318701">
        <ele>65.51</ele>
        <time>2018-11-06T07:06:56Z</time>
      </trkpt>
      <trkpt lat="36.7917880509" lon="-2.1059506573">
        <ele>65.03</ele>
        <time>2018-11-06T07:07:05Z</time>
      </trkpt>
      <trkpt lat="36.7918313853" lon="-2.1056215838">
        <ele>64.55</ele>
        <time>2018-11-06T07:07:15Z</time>
      </trkpt>
      <trkpt lat="36.7918620631" lon="-2.1053303126">
        <ele>64.55</ele>
        <time>2018-11-06T07:07:24Z</time>
      </trkpt>
      <trkpt lat="36.7918689363" lon="-2.1049930248">
        <ele>64.07</ele>
        <time>2018-11-06T07:07:33Z</time>
      </trkpt>
      <trkpt lat="36.7918054853" lon="-2.1047838964">
        <ele>64.07</ele>
        <time>2018-11-06T07:07:40Z</time>
      </trkpt>
      <trkpt lat="36.7917447165" lon="-2.1044941340">
        <ele>65.03</ele>
        <time>2018-11-06T07:07:49Z</time>
      </trkpt>
      <trkpt lat="36.7917366698" lon="-2.1041393280">
        <ele>65.51</ele>
        <time>2018-11-06T07:07:59Z</time>
      </trkpt>
      <trkpt lat="36.7917770706" lon="-2.1038183011">
        <ele>65.99</ele>
        <time>2018-11-06T07:08:09Z</time>
      </trkpt>
      <trkpt lat="36.7917986959" lon="-2.1037483960">
        <ele>65.99</ele>
        <time>2018-11-06T07:08:13Z</time>
      </trkpt>
      <trkpt lat="36.7918046471" lon="-2.1037361585">
        <ele>65.99</ele>
        <time>2018-11-06T07:08:14Z</time>
      </trkpt>
      <trkpt lat="36.7918105144" lon="-2.1037264355">
        <ele>65.99</ele>
        <time>2018-11-06T07:08:15Z</time>
      </trkpt>
      <trkpt lat="36.7918785755" lon="-2.1035811771">
        <ele>65.51</ele>
        <time>2018-11-06T07:08:23Z</time>
      </trkpt>
      <trkpt lat="36.7919675075" lon="-2.1033113636">
        <ele>67.91</ele>
        <time>2018-11-06T07:08:34Z</time>
      </trkpt>
      <trkpt lat="36.7920995224" lon="-2.1030397899">
        <ele>68.87</ele>
        <time>2018-11-06T07:08:44Z</time>
      </trkpt>
      <trkpt lat="36.7923016939" lon="-2.1027963795">
        <ele>70.31</ele>
        <time>2018-11-06T07:08:55Z</time>
      </trkpt>
      <trkpt lat="36.7924976628" lon="-2.1026084572">
        <ele>71.27</ele>
        <time>2018-11-06T07:09:05Z</time>
      </trkpt>
      <trkpt lat="36.7926804721" lon="-2.1024563257">
        <ele>72.24</ele>
        <time>2018-11-06T07:09:14Z</time>
      </trkpt>
      <trkpt lat="36.7928758543" lon="-2.1023601852">
        <ele>72.72</ele>
        <time>2018-11-06T07:09:23Z</time>
      </trkpt>
      <trkpt lat="36.7930298299" lon="-2.1022707503">
        <ele>73.20</ele>
        <time>2018-11-06T07:09:31Z</time>
      </trkpt>
      <trkpt lat="36.7931925226" lon="-2.1021690778">
        <ele>74.64</ele>
        <time>2018-11-06T07:09:40Z</time>
      </trkpt>
      <trkpt lat="36.7933578975" lon="-2.1020716801">
        <ele>75.12</ele>
        <time>2018-11-06T07:09:48Z</time>
      </trkpt>
      <trkpt lat="36.7935514357" lon="-2.1019708458">
        <ele>75.12</ele>
        <time>2018-11-06T07:09:57Z</time>
      </trkpt>
      <trkpt lat="36.7937768251" lon="-2.1018186305">
        <ele>76.56</ele>
        <time>2018-11-06T07:10:08Z</time>
      </trkpt>
      <trkpt lat="36.7939581256" lon="-2.1016817540">
        <ele>78.48</ele>
        <time>2018-11-06T07:10:19Z</time>
      </trkpt>
      <trkpt lat="36.7941192258" lon="-2.1015633177">
        <ele>79.93</ele>
        <time>2018-11-06T07:10:28Z</time>
      </trkpt>
      <trkpt lat="36.7943085730" lon="-2.1014787443">
        <ele>80.89</ele>
        <time>2018-11-06T07:10:37Z</time>
      </trkpt>
      <trkpt lat="36.7944830004" lon="-2.1013826039">
        <ele>81.37</ele>
        <time>2018-11-06T07:10:46Z</time>
      </trkpt>
      <trkpt lat="36.7946181167" lon="-2.1013319772">
        <ele>81.37</ele>
        <time>2018-11-06T07:10:54Z</time>
      </trkpt>
      <trkpt lat="36.7947773729" lon="-2.1012584679">
        <ele>81.85</ele>
        <time>2018-11-06T07:11:04Z</time>
      </trkpt>
      <trkpt lat="36.7949398141" lon="-2.1012322325">
        <ele>82.33</ele>
        <time>2018-11-06T07:11:13Z</time>
      </trkpt>
      <trkpt lat="36.7950585857" lon="-2.1012161393">
        <ele>82.33</ele>
        <time>2018-11-06T07:11:20Z</time>
      </trkpt>
      <trkpt lat="36.7952175066" lon="-2.1010713000">
        <ele>79.93</ele>
        <time>2018-11-06T07:11:27Z</time>
      </trkpt>
      <trkpt lat="36.7953999806" lon="-2.1009184141">
        <ele>78.48</ele>
        <time>2018-11-06T07:11:34Z</time>
      </trkpt>
      <trkpt lat="36.7955371924" lon="-2.1007760055">
        <ele>76.56</ele>
        <time>2018-11-06T07:11:40Z</time>
      </trkpt>
      <trkpt lat="36.7957266234" lon="-2.1005867422">
        <ele>75.60</ele>
        <time>2018-11-06T07:11:47Z</time>
      </trkpt>
      <trkpt lat="36.7959384341" lon="-2.1003037691">
        <ele>72.72</ele>
        <time>2018-11-06T07:11:56Z</time>
      </trkpt>
      <trkpt lat="36.7961144540" lon="-2.1000616997">
        <ele>71.76</ele>
        <time>2018-11-06T07:12:03Z</time>
      </trkpt>
      <trkpt lat="36.7963466328" lon="-2.0997570176">
        <ele>70.31</ele>
        <time>2018-11-06T07:12:12Z</time>
      </trkpt>
      <trkpt lat="36.7965108342" lon="-2.0995659940">
        <ele>69.83</ele>
        <time>2018-11-06T07:12:19Z</time>
      </trkpt>
      <trkpt lat="36.7966206372" lon="-2.0994032174">
        <ele>69.83</ele>
        <time>2018-11-06T07:12:27Z</time>
      </trkpt>
      <trkpt lat="36.7967471201" lon="-2.0991852041">
        <ele>68.87</ele>
        <time>2018-11-06T07:12:36Z</time>
      </trkpt>
      <trkpt lat="36.7969124950" lon="-2.0989348367">
        <ele>68.39</ele>
        <time>2018-11-06T07:12:46Z</time>
      </trkpt>
      <trkpt lat="36.7970320210" lon="-2.0987303182">
        <ele>67.43</ele>
        <time>2018-11-06T07:12:55Z</time>
      </trkpt>
      <trkpt lat="36.7970971484" lon="-2.0985990576">
        <ele>67.43</ele>
        <time>2018-11-06T07:13:01Z</time>
      </trkpt>
      <trkpt lat="36.7971830629" lon="-2.0984194335">
        <ele>66.95</ele>
        <time>2018-11-06T07:13:09Z</time>
      </trkpt>
      <trkpt lat="36.7973208614" lon="-2.0980932098">
        <ele>65.99</ele>
        <time>2018-11-06T07:13:20Z</time>
      </trkpt>
      <trkpt lat="36.7974232044" lon="-2.0978188701">
        <ele>65.03</ele>
        <time>2018-11-06T07:13:29Z</time>
      </trkpt>
      <trkpt lat="36.7975260504" lon="-2.0975355618">
        <ele>65.03</ele>
        <time>2018-11-06T07:13:38Z</time>
      </trkpt>
      <trkpt lat="36.7976314947" lon="-2.0972435363">
        <ele>65.03</ele>
        <time>2018-11-06T07:13:48Z</time>
      </trkpt>
      <trkpt lat="36.7977143917" lon="-2.0970777422">
        <ele>64.55</ele>
        <time>2018-11-06T07:13:56Z</time>
      </trkpt>
      <trkpt lat="36.7978221830" lon="-2.0969633292">
        <ele>64.55</ele>
        <time>2018-11-06T07:14:04Z</time>
      </trkpt>
      <trkpt lat="36.7979406193" lon="-2.0969924144">
        <ele>65.51</ele>
        <time>2018-11-06T07:14:10Z</time>
      </trkpt>
      <trkpt lat="36.7981269490" lon="-2.0970920753">
        <ele>66.47</ele>
        <time>2018-11-06T07:14:18Z</time>
      </trkpt>
      <trkpt lat="36.7983028851" lon="-2.0970438793">
        <ele>65.99</ele>
        <time>2018-11-06T07:14:25Z</time>
      </trkpt>
      <trkpt lat="36.7984431144" lon="-2.0970717072">
        <ele>65.51</ele>
        <time>2018-11-06T07:14:30Z</time>
      </trkpt>
      <trkpt lat="36.7985784821" lon="-2.0971556101">
        <ele>65.03</ele>
        <time>2018-11-06T07:14:37Z</time>
      </trkpt>
      <trkpt lat="36.7988076434" lon="-2.0972730406">
        <ele>64.07</ele>
        <time>2018-11-06T07:14:45Z</time>
      </trkpt>
      <trkpt lat="36.7990236450" lon="-2.0973975118">
        <ele>65.51</ele>
        <time>2018-11-06T07:14:53Z</time>
      </trkpt>
      <trkpt lat="36.7992523033" lon="-2.0975139365">
        <ele>66.95</ele>
        <time>2018-11-06T07:15:02Z</time>
      </trkpt>
      <trkpt lat="36.7993926164" lon="-2.0976031199">
        <ele>68.87</ele>
        <time>2018-11-06T07:15:10Z</time>
      </trkpt>
      <trkpt lat="36.7995618470" lon="-2.0977430139">
        <ele>70.79</ele>
        <time>2018-11-06T07:15:20Z</time>
      </trkpt>
      <trkpt lat="36.7996782716" lon="-2.0978443511">
        <ele>73.68</ele>
        <time>2018-11-06T07:15:29Z</time>
      </trkpt>
      <trkpt lat="36.7996980529" lon="-2.0978264976">
        <ele>74.16</ele>
        <time>2018-11-06T07:15:31Z</time>
      </trkpt>
      <trkpt lat="36.7997003160" lon="-2.0978122484">
        <ele>74.16</ele>
        <time>2018-11-06T07:15:37Z</time>
      </trkpt>
      <trkpt lat="36.7997316644" lon="-2.0977482107">
        <ele>74.64</ele>
        <time>2018-11-06T07:15:43Z</time>
      </trkpt>
      <trkpt lat="36.7997374479" lon="-2.0977342129">
        <ele>74.64</ele>
        <time>2018-11-06T07:15:44Z</time>
      </trkpt>
      <trkpt lat="36.7997439019" lon="-2.0977208018">
        <ele>75.12</ele>
        <time>2018-11-06T07:15:45Z</time>
      </trkpt>
      <trkpt lat="36.7997533735" lon="-2.0977078937">
        <ele>75.12</ele>
        <time>2018-11-06T07:15:46Z</time>
      </trkpt>
      <trkpt lat="36.7997606657" lon="-2.0976938121">
        <ele>75.12</ele>
        <time>2018-11-06T07:15:47Z</time>
      </trkpt>
      <trkpt lat="36.7997680418" lon="-2.0976811554">
        <ele>75.12</ele>
        <time>2018-11-06T07:15:48Z</time>
      </trkpt>
      <trkpt lat="36.7997770943" lon="-2.0976700913">
        <ele>75.12</ele>
        <time>2018-11-06T07:15:49Z</time>
      </trkpt>
      <trkpt lat="36.7997850571" lon="-2.0976563450">
        <ele>74.64</ele>
        <time>2018-11-06T07:15:50Z</time>
      </trkpt>
      <trkpt lat="36.7997907568" lon="-2.0976415928">
        <ele>74.64</ele>
        <time>2018-11-06T07:15:51Z</time>
      </trkpt>
      <trkpt lat="36.7998416349" lon="-2.0975064766">
        <ele>74.64</ele>
        <time>2018-11-06T07:15:57Z</time>
      </trkpt>
      <trkpt lat="36.7999703810" lon="-2.0972012077">
        <ele>74.16</ele>
        <time>2018-11-06T07:16:08Z</time>
      </trkpt>
      <trkpt lat="36.8000570498" lon="-2.0969587192">
        <ele>73.68</ele>
        <time>2018-11-06T07:16:15Z</time>
      </trkpt>
      <trkpt lat="36.8001386896" lon="-2.0966491755">
        <ele>73.20</ele>
        <time>2018-11-06T07:16:22Z</time>
      </trkpt>
      <trkpt lat="36.8001552019" lon="-2.0965444855">
        <ele>72.72</ele>
        <time>2018-11-06T07:16:24Z</time>
      </trkpt>
      <trkpt lat="36.8002653401" lon="-2.0960205328">
        <ele>70.79</ele>
        <time>2018-11-06T07:16:32Z</time>
      </trkpt>
      <trkpt lat="36.8003304675" lon="-2.0957731828">
        <ele>69.83</ele>
        <time>2018-11-06T07:16:37Z</time>
      </trkpt>
      <trkpt lat="36.8003379274" lon="-2.0957416669">
        <ele>69.83</ele>
        <time>2018-11-06T07:16:41Z</time>
      </trkpt>
      <trkpt lat="36.8003312219" lon="-2.0957513899">
        <ele>70.31</ele>
        <time>2018-11-06T07:17:03Z</time>
      </trkpt>
      <trkpt lat="36.8003336526" lon="-2.0957562514">
        <ele>70.79</ele>
        <time>2018-11-06T07:17:18Z</time>
      </trkpt>
      <trkpt lat="36.8003348261" lon="-2.0957532339">
        <ele>70.31</ele>
        <time>2018-11-06T07:17:26Z</time>
      </trkpt>
      <trkpt lat="36.8003307190" lon="-2.0957497973">
        <ele>70.31</ele>
        <time>2018-11-06T07:17:37Z</time>
      </trkpt>
      <trkpt lat="36.8003511708" lon="-2.0957445167">
        <ele>70.31</ele>
        <time>2018-11-06T07:17:46Z</time>
      </trkpt>
      <trkpt lat="36.8003619835" lon="-2.0957290102">
        <ele>70.31</ele>
        <time>2018-11-06T07:17:47Z</time>
      </trkpt>
      <trkpt lat="36.8004655000" lon="-2.0955044590">
        <ele>69.35</ele>
        <time>2018-11-06T07:17:54Z</time>
      </trkpt>
      <trkpt lat="36.8004921544" lon="-2.0954625495">
        <ele>69.35</ele>
        <time>2018-11-06T07:17:55Z</time>
      </trkpt>
      <trkpt lat="36.8007320445" lon="-2.0950717852">
        <ele>66.95</ele>
        <time>2018-11-06T07:18:02Z</time>
      </trkpt>
      <trkpt lat="36.8011796381" lon="-2.0943366922">
        <ele>63.58</ele>
        <time>2018-11-06T07:18:12Z</time>
      </trkpt>
      <trkpt lat="36.8015419878" lon="-2.0937098935">
        <ele>63.58</ele>
        <time>2018-11-06T07:18:21Z</time>
      </trkpt>
      <trkpt lat="36.8017460871" lon="-2.0933666546">
        <ele>64.07</ele>
        <time>2018-11-06T07:18:28Z</time>
      </trkpt>
      <trkpt lat="36.8018782698" lon="-2.0931468811">
        <ele>64.07</ele>
        <time>2018-11-06T07:18:35Z</time>
      </trkpt>
      <trkpt lat="36.8019288126" lon="-2.0930784848">
        <ele>64.07</ele>
        <time>2018-11-06T07:18:39Z</time>
      </trkpt>
      <trkpt lat="36.8019335065" lon="-2.0930702705">
        <ele>64.55</ele>
        <time>2018-11-06T07:18:45Z</time>
      </trkpt>
      <trkpt lat="36.8019339256" lon="-2.0930732880">
        <ele>64.55</ele>
        <time>2018-11-06T07:18:57Z</time>
      </trkpt>
      <trkpt lat="36.8019338418" lon="-2.0930733718">
        <ele>64.55</ele>
        <time>2018-11-06T07:19:10Z</time>
      </trkpt>
      <trkpt lat="36.8019461632" lon="-2.0930598769">
        <ele>64.55</ele>
        <time>2018-11-06T07:19:15Z</time>
      </trkpt>
      <trkpt lat="36.8020341732" lon="-2.0929411892">
        <ele>64.55</ele>
        <time>2018-11-06T07:19:22Z</time>
      </trkpt>
      <trkpt lat="36.8021786772" lon="-2.0927698631">
        <ele>64.55</ele>
        <time>2018-11-06T07:19:32Z</time>
      </trkpt>
      <trkpt lat="36.8023299705" lon="-2.0925991237">
        <ele>64.07</ele>
        <time>2018-11-06T07:19:43Z</time>
      </trkpt>
      <trkpt lat="36.8023432977" lon="-2.0925862994">
        <ele>64.07</ele>
        <time>2018-11-06T07:19:44Z</time>
      </trkpt>
      <trkpt lat="36.8024655897" lon="-2.0924499258">
        <ele>64.55</ele>
        <time>2018-11-06T07:19:51Z</time>
      </trkpt>
      <trkpt lat="36.8026623130" lon="-2.0922376122">
        <ele>64.07</ele>
        <time>2018-11-06T07:20:01Z</time>
      </trkpt>
      <trkpt lat="36.8028545938" lon="-2.0920127258">
        <ele>63.58</ele>
        <time>2018-11-06T07:20:09Z</time>
      </trkpt>
      <trkpt lat="36.8031658139" lon="-2.0916704927">
        <ele>62.14</ele>
        <time>2018-11-06T07:20:18Z</time>
      </trkpt>
      <trkpt lat="36.8035253137" lon="-2.0912670717">
        <ele>61.18</ele>
        <time>2018-11-06T07:20:27Z</time>
      </trkpt>
      <trkpt lat="36.8039764278" lon="-2.0907623973">
        <ele>60.70</ele>
        <time>2018-11-06T07:20:38Z</time>
      </trkpt>
      <trkpt lat="36.8042803556" lon="-2.0904221758">
        <ele>60.22</ele>
        <time>2018-11-06T07:20:47Z</time>
      </trkpt>
      <trkpt lat="36.8045872170" lon="-2.0900780987">
        <ele>60.70</ele>
        <time>2018-11-06T07:20:56Z</time>
      </trkpt>
      <trkpt lat="36.8049076572" lon="-2.0897307526">
        <ele>60.70</ele>
        <time>2018-11-06T07:21:05Z</time>
      </trkpt>
      <trkpt lat="36.8052609544" lon="-2.0893528964">
        <ele>61.18</ele>
        <time>2018-11-06T07:21:15Z</time>
      </trkpt>
      <trkpt lat="36.8055704981" lon="-2.0890310314">
        <ele>60.70</ele>
        <time>2018-11-06T07:21:25Z</time>
      </trkpt>
      <trkpt lat="36.8058010004" lon="-2.0887736231">
        <ele>59.74</ele>
        <time>2018-11-06T07:21:33Z</time>
      </trkpt>
      <trkpt lat="36.8058622722" lon="-2.0887095015">
        <ele>59.26</ele>
        <time>2018-11-06T07:21:35Z</time>
      </trkpt>
      <trkpt lat="36.8061504420" lon="-2.0883729681">
        <ele>57.82</ele>
        <time>2018-11-06T07:21:43Z</time>
      </trkpt>
      <trkpt lat="36.8065005541" lon="-2.0879555494">
        <ele>54.93</ele>
        <time>2018-11-06T07:21:50Z</time>
      </trkpt>
      <trkpt lat="36.8068276159" lon="-2.0874287467">
        <ele>52.05</ele>
        <time>2018-11-06T07:21:56Z</time>
      </trkpt>
      <trkpt lat="36.8069506623" lon="-2.0870964881">
        <ele>50.61</ele>
        <time>2018-11-06T07:21:59Z</time>
      </trkpt>
      <trkpt lat="36.8069743831" lon="-2.0869844221">
        <ele>50.13</ele>
        <time>2018-11-06T07:22:00Z</time>
      </trkpt>
      <trkpt lat="36.8069908116" lon="-2.0868613757">
        <ele>49.65</ele>
        <time>2018-11-06T07:22:01Z</time>
      </trkpt>
      <trkpt lat="36.8070110958" lon="-2.0859795995">
        <ele>47.24</ele>
        <time>2018-11-06T07:22:08Z</time>
      </trkpt>
      <trkpt lat="36.8069895543" lon="-2.0849342924">
        <ele>46.28</ele>
        <time>2018-11-06T07:22:17Z</time>
      </trkpt>
      <trkpt lat="36.8069804180" lon="-2.0844965894">
        <ele>45.80</ele>
        <time>2018-11-06T07:22:22Z</time>
      </trkpt>
      <trkpt lat="36.8069702759" lon="-2.0844415203">
        <ele>45.80</ele>
        <time>2018-11-06T07:22:26Z</time>
      </trkpt>
      <trkpt lat="36.8069653306" lon="-2.0844467171">
        <ele>45.32</ele>
        <time>2018-11-06T07:22:36Z</time>
      </trkpt>
      <trkpt lat="36.8069645762" lon="-2.0843548514">
        <ele>45.32</ele>
        <time>2018-11-06T07:22:41Z</time>
      </trkpt>
      <trkpt lat="36.8069443759" lon="-2.0840219222">
        <ele>44.36</ele>
        <time>2018-11-06T07:22:49Z</time>
      </trkpt>
      <trkpt lat="36.8069364969" lon="-2.0838408731">
        <ele>44.36</ele>
        <time>2018-11-06T07:22:56Z</time>
      </trkpt>
      <trkpt lat="36.8069186434" lon="-2.0836183336">
        <ele>43.40</ele>
        <time>2018-11-06T07:23:03Z</time>
      </trkpt>
      <trkpt lat="36.8068780750" lon="-2.0830388088">
        <ele>41.95</ele>
        <time>2018-11-06T07:23:12Z</time>
      </trkpt>
      <trkpt lat="36.8068188988" lon="-2.0822991058">
        <ele>40.03</ele>
        <time>2018-11-06T07:23:21Z</time>
      </trkpt>
      <trkpt lat="36.8067228422" lon="-2.0813027490">
        <ele>38.59</ele>
        <time>2018-11-06T07:23:32Z</time>
      </trkpt>
      <trkpt lat="36.8066445552" lon="-2.0804622956">
        <ele>38.11</ele>
        <time>2018-11-06T07:23:42Z</time>
      </trkpt>
      <trkpt lat="36.8065533601" lon="-2.0798260253">
        <ele>37.63</ele>
        <time>2018-11-06T07:23:51Z</time>
      </trkpt>
      <trkpt lat="36.8064644281" lon="-2.0792671200">
        <ele>38.11</ele>
        <time>2018-11-06T07:24:00Z</time>
      </trkpt>
      <trkpt lat="36.8063586485" lon="-2.0785685722">
        <ele>39.07</ele>
        <time>2018-11-06T07:24:11Z</time>
      </trkpt>
      <trkpt lat="36.8063313235" lon="-2.0783994254">
        <ele>39.55</ele>
        <time>2018-11-06T07:24:14Z</time>
      </trkpt>
      <trkpt lat="36.8062161561" lon="-2.0777633227">
        <ele>40.03</ele>
        <time>2018-11-06T07:24:25Z</time>
      </trkpt>
      <trkpt lat="36.8062060140" lon="-2.0777093433">
        <ele>40.03</ele>
        <time>2018-11-06T07:24:26Z</time>
      </trkpt>
      <trkpt lat="36.8061292358" lon="-2.0772409625">
        <ele>40.51</ele>
        <time>2018-11-06T07:24:35Z</time>
      </trkpt>
      <trkpt lat="36.8060865719" lon="-2.0767445862">
        <ele>40.51</ele>
        <time>2018-11-06T07:24:44Z</time>
      </trkpt>
      <trkpt lat="36.8060795311" lon="-2.0762441028">
        <ele>38.59</ele>
        <time>2018-11-06T07:24:51Z</time>
      </trkpt>
      <trkpt lat="36.8060776871" lon="-2.0756020490">
        <ele>35.71</ele>
        <time>2018-11-06T07:24:58Z</time>
      </trkpt>
      <trkpt lat="36.8060671259" lon="-2.0746967196">
        <ele>31.38</ele>
        <time>2018-11-06T07:25:06Z</time>
      </trkpt>
      <trkpt lat="36.8060460873" lon="-2.0736312959">
        <ele>26.57</ele>
        <time>2018-11-06T07:25:14Z</time>
      </trkpt>
      <trkpt lat="36.8060284015" lon="-2.0722048637">
        <ele>20.81</ele>
        <time>2018-11-06T07:25:24Z</time>
      </trkpt>
      <trkpt lat="36.8060242105" lon="-2.0708598197">
        <ele>17.92</ele>
        <time>2018-11-06T07:25:34Z</time>
      </trkpt>
      <trkpt lat="36.8060204387" lon="-2.0697366446">
        <ele>15.52</ele>
        <time>2018-11-06T07:25:43Z</time>
      </trkpt>
      <trkpt lat="36.8060144875" lon="-2.0684813708">
        <ele>13.60</ele>
        <time>2018-11-06T07:25:54Z</time>
      </trkpt>
      <trkpt lat="36.8060273957" lon="-2.0676125865">
        <ele>13.12</ele>
        <time>2018-11-06T07:26:03Z</time>
      </trkpt>
      <trkpt lat="36.8060468417" lon="-2.0674179588">
        <ele>13.12</ele>
        <time>2018-11-06T07:26:08Z</time>
      </trkpt>
      <trkpt lat="36.8060549721" lon="-2.0673780609">
        <ele>13.12</ele>
        <time>2018-11-06T07:26:13Z</time>
      </trkpt>
      <trkpt lat="36.8060581572" lon="-2.0673865266">
        <ele>14.56</ele>
        <time>2018-11-06T07:26:33Z</time>
      </trkpt>
      <trkpt lat="36.8060541339" lon="-2.0673896279">
        <ele>14.08</ele>
        <time>2018-11-06T07:26:49Z</time>
      </trkpt>
      <trkpt lat="36.8060541339" lon="-2.0673871133">
        <ele>14.56</ele>
        <time>2018-11-06T07:27:07Z</time>
      </trkpt>
      <trkpt lat="36.8060573190" lon="-2.0673850179">
        <ele>14.56</ele>
        <time>2018-11-06T07:27:21Z</time>
      </trkpt>
      <trkpt lat="36.8060561456" lon="-2.0673837606">
        <ele>15.04</ele>
        <time>2018-11-06T07:27:38Z</time>
      </trkpt>
      <trkpt lat="36.8060519546" lon="-2.0673868619">
        <ele>14.56</ele>
        <time>2018-11-06T07:27:58Z</time>
      </trkpt>
      <trkpt lat="36.8060611747" lon="-2.0673920587">
        <ele>14.08</ele>
        <time>2018-11-06T07:28:15Z</time>
      </trkpt>
      <trkpt lat="36.8060558941" lon="-2.0673909690">
        <ele>15.04</ele>
        <time>2018-11-06T07:28:36Z</time>
      </trkpt>
      <trkpt lat="36.8060505297" lon="-2.0673861075">
        <ele>15.52</ele>
        <time>2018-11-06T07:28:55Z</time>
      </trkpt>
      <trkpt lat="36.8060512841" lon="-2.0673905499">
        <ele>14.56</ele>
        <time>2018-11-06T07:29:18Z</time>
      </trkpt>
      <trkpt lat="36.8060514517" lon="-2.0673848502">
        <ele>15.52</ele>
        <time>2018-11-06T07:29:36Z</time>
      </trkpt>
      <trkpt lat="36.8060548045" lon="-2.0673853531">
        <ele>15.52</ele>
        <time>2018-11-06T07:29:52Z</time>
      </trkpt>
      <trkpt lat="36.8060631026" lon="-2.0673702657">
        <ele>15.52</ele>
        <time>2018-11-06T07:30:05Z</time>
      </trkpt>
      <trkpt lat="36.8060729932" lon="-2.0673550107">
        <ele>15.52</ele>
        <time>2018-11-06T07:30:06Z</time>
      </trkpt>
      <trkpt lat="36.8060774356" lon="-2.0673333015">
        <ele>15.52</ele>
        <time>2018-11-06T07:30:07Z</time>
      </trkpt>
      <trkpt lat="36.8060766812" lon="-2.0673103351">
        <ele>15.52</ele>
        <time>2018-11-06T07:30:08Z</time>
      </trkpt>
      <trkpt lat="36.8060778547" lon="-2.0672868658">
        <ele>15.52</ele>
        <time>2018-11-06T07:30:09Z</time>
      </trkpt>
      <trkpt lat="36.8060819618" lon="-2.0672608819">
        <ele>15.52</ele>
        <time>2018-11-06T07:30:10Z</time>
      </trkpt>
      <trkpt lat="36.8061323371" lon="-2.0670524240">
        <ele>15.04</ele>
        <time>2018-11-06T07:30:17Z</time>
      </trkpt>
      <trkpt lat="36.8062209338" lon="-2.0667158905">
        <ele>14.08</ele>
        <time>2018-11-06T07:30:27Z</time>
      </trkpt>
      <trkpt lat="36.8063504342" lon="-2.0662959572">
        <ele>13.60</ele>
        <time>2018-11-06T07:30:38Z</time>
      </trkpt>
      <trkpt lat="36.8064805213" lon="-2.0658665523">
        <ele>12.63</ele>
        <time>2018-11-06T07:30:46Z</time>
      </trkpt>
      <trkpt lat="36.8066777475" lon="-2.0651939884">
        <ele>10.71</ele>
        <time>2018-11-06T07:30:56Z</time>
      </trkpt>
      <trkpt lat="36.8068933301" lon="-2.0644774195">
        <ele>9.75</ele>
        <time>2018-11-06T07:31:07Z</time>
      </trkpt>
      <trkpt lat="36.8070562743" lon="-2.0639970526">
        <ele>9.27</ele>
        <time>2018-11-06T07:31:16Z</time>
      </trkpt>
      <trkpt lat="36.8072643131" lon="-2.0635017660">
        <ele>9.27</ele>
        <time>2018-11-06T07:31:26Z</time>
      </trkpt>
      <trkpt lat="36.8073436059" lon="-2.0633593574">
        <ele>9.27</ele>
        <time>2018-11-06T07:31:29Z</time>
      </trkpt>
      <trkpt lat="36.8075986672" lon="-2.0630634762">
        <ele>9.75</ele>
        <time>2018-11-06T07:31:37Z</time>
      </trkpt>
      <trkpt lat="36.8079539761" lon="-2.0628409367">
        <ele>9.75</ele>
        <time>2018-11-06T07:31:46Z</time>
      </trkpt>
      <trkpt lat="36.8082887493" lon="-2.0626757294">
        <ele>10.71</ele>
        <time>2018-11-06T07:31:55Z</time>
      </trkpt>
      <trkpt lat="36.8086188287" lon="-2.0625192393">
        <ele>11.67</ele>
        <time>2018-11-06T07:32:05Z</time>
      </trkpt>
      <trkpt lat="36.8088890612" lon="-2.0623906609">
        <ele>12.15</ele>
        <time>2018-11-06T07:32:14Z</time>
      </trkpt>
      <trkpt lat="36.8091390096" lon="-2.0622650161">
        <ele>13.60</ele>
        <time>2018-11-06T07:32:24Z</time>
      </trkpt>
      <trkpt lat="36.8093374930" lon="-2.0621757489">
        <ele>15.52</ele>
        <time>2018-11-06T07:32:33Z</time>
      </trkpt>
      <trkpt lat="36.8094894569" lon="-2.0620965399">
        <ele>16.48</ele>
        <time>2018-11-06T07:32:41Z</time>
      </trkpt>
      <trkpt lat="36.8095755391" lon="-2.0620612521">
        <ele>17.44</ele>
        <time>2018-11-06T07:32:46Z</time>
      </trkpt>
      <trkpt lat="36.8095893692" lon="-2.0620527864">
        <ele>17.44</ele>
        <time>2018-11-06T07:32:47Z</time>
      </trkpt>
      <trkpt lat="36.8096026126" lon="-2.0620468352">
        <ele>17.44</ele>
        <time>2018-11-06T07:32:48Z</time>
      </trkpt>
      <trkpt lat="36.8096133415" lon="-2.0620401297">
        <ele>17.44</ele>
        <time>2018-11-06T07:32:49Z</time>
      </trkpt>
      <trkpt lat="36.8096247409" lon="-2.0620319154">
        <ele>17.44</ele>
        <time>2018-11-06T07:32:50Z</time>
      </trkpt>
      <trkpt lat="36.8096389063" lon="-2.0620236173">
        <ele>17.44</ele>
        <time>2018-11-06T07:32:51Z</time>
      </trkpt>
      <trkpt lat="36.8096563406" lon="-2.0620149001">
        <ele>17.44</ele>
        <time>2018-11-06T07:32:52Z</time>
      </trkpt>
      <trkpt lat="36.8098246492" lon="-2.0619247947">
        <ele>18.40</ele>
        <time>2018-11-06T07:33:02Z</time>
      </trkpt>
      <trkpt lat="36.8099759426" lon="-2.0618503634">
        <ele>19.36</ele>
        <time>2018-11-06T07:33:11Z</time>
      </trkpt>
      <trkpt lat="36.8100992404" lon="-2.0617906842">
        <ele>20.32</ele>
        <time>2018-11-06T07:33:18Z</time>
      </trkpt>
      <trkpt lat="36.8102880847" lon="-2.0616962202">
        <ele>20.81</ele>
        <time>2018-11-06T07:33:29Z</time>
      </trkpt>
      <trkpt lat="36.8105042540" lon="-2.0615945477">
        <ele>22.25</ele>
        <time>2018-11-06T07:33:41Z</time>
      </trkpt>
      <trkpt lat="36.8106834590" lon="-2.0615070406">
        <ele>23.69</ele>
        <time>2018-11-06T07:33:51Z</time>
      </trkpt>
      <trkpt lat="36.8108648434" lon="-2.0614572521">
        <ele>24.65</ele>
        <time>2018-11-06T07:34:01Z</time>
      </trkpt>
      <trkpt lat="36.8110471498" lon="-2.0614402369">
        <ele>25.13</ele>
        <time>2018-11-06T07:34:10Z</time>
      </trkpt>
      <trkpt lat="36.8112298753" lon="-2.0614606049">
        <ele>26.57</ele>
        <time>2018-11-06T07:34:19Z</time>
      </trkpt>
      <trkpt lat="36.8114290293" lon="-2.0615072083">
        <ele>27.05</ele>
        <time>2018-11-06T07:34:29Z</time>
      </trkpt>
      <trkpt lat="36.8116487190" lon="-2.0615401492">
        <ele>28.02</ele>
        <time>2018-11-06T07:34:40Z</time>
      </trkpt>
      <trkpt lat="36.8118669000" lon="-2.0615841541">
        <ele>28.98</ele>
        <time>2018-11-06T07:34:51Z</time>
      </trkpt>
      <trkpt lat="36.8120456021" lon="-2.0615996607">
        <ele>29.46</ele>
        <time>2018-11-06T07:35:00Z</time>
      </trkpt>
      <trkpt lat="36.8122509588" lon="-2.0616429113">
        <ele>30.42</ele>
        <time>2018-11-06T07:35:10Z</time>
      </trkpt>
      <trkpt lat="36.8124402221" lon="-2.0616871677">
        <ele>31.38</ele>
        <time>2018-11-06T07:35:21Z</time>
      </trkpt>
      <trkpt lat="36.8126132246" lon="-2.0617068652">
        <ele>32.82</ele>
        <time>2018-11-06T07:35:31Z</time>
      </trkpt>
      <trkpt lat="36.8127338402" lon="-2.0617346931">
        <ele>33.78</ele>
        <time>2018-11-06T07:35:39Z</time>
      </trkpt>
      <trkpt lat="36.8128838763" lon="-2.0617507864">
        <ele>35.23</ele>
        <time>2018-11-06T07:35:47Z</time>
      </trkpt>
      <trkpt lat="36.8130476587" lon="-2.0617777761">
        <ele>36.67</ele>
        <time>2018-11-06T07:35:56Z</time>
      </trkpt>
      <trkpt lat="36.8132080045" lon="-2.0617973898">
        <ele>37.63</ele>
        <time>2018-11-06T07:36:05Z</time>
      </trkpt>
      <trkpt lat="36.8134386744" lon="-2.0618175063">
        <ele>38.59</ele>
        <time>2018-11-06T07:36:17Z</time>
      </trkpt>
      <trkpt lat="36.8136091623" lon="-2.0618170034">
        <ele>40.03</ele>
        <time>2018-11-06T07:36:28Z</time>
      </trkpt>
      <trkpt lat="36.8136208132" lon="-2.0618086215">
        <ele>39.55</ele>
        <time>2018-11-06T07:36:36Z</time>
      </trkpt>
      <trkpt lat="36.8136160355" lon="-2.0618043467">
        <ele>39.55</ele>
        <time>2018-11-06T07:36:46Z</time>
      </trkpt>
      <trkpt lat="36.8136173766" lon="-2.0618011616">
        <ele>39.55</ele>
        <time>2018-11-06T07:37:10Z</time>
      </trkpt>
      <trkpt lat="36.8136156164" lon="-2.0618047658">
        <ele>38.59</ele>
        <time>2018-11-06T07:37:34Z</time>
      </trkpt>
      <trkpt lat="36.8136208132" lon="-2.0618108846">
        <ele>38.59</ele>
        <time>2018-11-06T07:37:44Z</time>
      </trkpt>
      <trkpt lat="36.8136288598" lon="-2.0618162490">
        <ele>38.11</ele>
        <time>2018-11-06T07:38:00Z</time>
      </trkpt>
      <trkpt lat="36.8136204779" lon="-2.0618102141">
        <ele>37.63</ele>
        <time>2018-11-06T07:38:08Z</time>
      </trkpt>
      <trkpt lat="36.8136392534" lon="-2.0618176740">
        <ele>38.11</ele>
        <time>2018-11-06T07:38:11Z</time>
      </trkpt>
      <trkpt lat="36.8136544246" lon="-2.0618180931">
        <ele>38.11</ele>
        <time>2018-11-06T07:38:12Z</time>
      </trkpt>
      <trkpt lat="36.8138512317" lon="-2.0618229546">
        <ele>40.03</ele>
        <time>2018-11-06T07:38:21Z</time>
      </trkpt>
      <trkpt lat="36.8140518107" lon="-2.0618294924">
        <ele>41.47</ele>
        <time>2018-11-06T07:38:30Z</time>
      </trkpt>
      <trkpt lat="36.8142594304" lon="-2.0618306659">
        <ele>42.92</ele>
        <time>2018-11-06T07:38:40Z</time>
      </trkpt>
      <trkpt lat="36.8144616857" lon="-2.0618385449">
        <ele>44.36</ele>
        <time>2018-11-06T07:38:49Z</time>
      </trkpt>
      <trkpt lat="36.8145149108" lon="-2.0618403051">
        <ele>44.84</ele>
        <time>2018-11-06T07:38:52Z</time>
      </trkpt>
      <trkpt lat="36.8145502824" lon="-2.0618569851">
        <ele>45.32</ele>
        <time>2018-11-06T07:38:55Z</time>
      </trkpt>
      <trkpt lat="36.8145645317" lon="-2.0618518721">
        <ele>45.32</ele>
        <time>2018-11-06T07:38:56Z</time>
      </trkpt>
      <trkpt lat="36.8145789485" lon="-2.0618451666">
        <ele>45.32</ele>
        <time>2018-11-06T07:38:57Z</time>
      </trkpt>
      <trkpt lat="36.8145963829" lon="-2.0618388802">
        <ele>45.32</ele>
        <time>2018-11-06T07:38:58Z</time>
      </trkpt>
      <trkpt lat="36.8146151584" lon="-2.0618345216">
        <ele>45.32</ele>
        <time>2018-11-06T07:38:59Z</time>
      </trkpt>
      <trkpt lat="36.8146331795" lon="-2.0618336834">
        <ele>45.32</ele>
        <time>2018-11-06T07:39:00Z</time>
      </trkpt>
      <trkpt lat="36.8146541342" lon="-2.0618334319">
        <ele>45.32</ele>
        <time>2018-11-06T07:39:01Z</time>
      </trkpt>
      <trkpt lat="36.8148781825" lon="-2.0618432388">
        <ele>45.80</ele>
        <time>2018-11-06T07:39:11Z</time>
      </trkpt>
      <trkpt lat="36.8150937650" lon="-2.0618209429">
        <ele>46.76</ele>
        <time>2018-11-06T07:39:21Z</time>
      </trkpt>
      <trkpt lat="36.8152234331" lon="-2.0617942046">
        <ele>47.72</ele>
        <time>2018-11-06T07:39:28Z</time>
      </trkpt>
      <trkpt lat="36.8154314719" lon="-2.0616855752">
        <ele>49.16</ele>
        <time>2018-11-06T07:39:38Z</time>
      </trkpt>
      <trkpt lat="36.8156325538" lon="-2.0615354553">
        <ele>50.13</ele>
        <time>2018-11-06T07:39:48Z</time>
      </trkpt>
      <trkpt lat="36.8158849329" lon="-2.0613340382">
        <ele>51.09</ele>
        <time>2018-11-06T07:39:58Z</time>
      </trkpt>
      <trkpt lat="36.8161800597" lon="-2.0611052122">
        <ele>52.05</ele>
        <time>2018-11-06T07:40:09Z</time>
      </trkpt>
      <trkpt lat="36.8164036050" lon="-2.0609679166">
        <ele>53.01</ele>
        <time>2018-11-06T07:40:18Z</time>
      </trkpt>
      <trkpt lat="36.8165947963" lon="-2.0608852711">
        <ele>53.97</ele>
        <time>2018-11-06T07:40:27Z</time>
      </trkpt>
      <trkpt lat="36.8167237937" lon="-2.0608410984">
        <ele>54.45</ele>
        <time>2018-11-06T07:40:34Z</time>
      </trkpt>
      <trkpt lat="36.8169092853" lon="-2.0607907232">
        <ele>54.45</ele>
        <time>2018-11-06T07:40:43Z</time>
      </trkpt>
      <trkpt lat="36.8171038292" lon="-2.0607321337">
        <ele>54.45</ele>
        <time>2018-11-06T07:40:53Z</time>
      </trkpt>
      <trkpt lat="36.8173429649" lon="-2.0606452972">
        <ele>54.45</ele>
        <time>2018-11-06T07:41:03Z</time>
      </trkpt>
      <trkpt lat="36.8175178114" lon="-2.0605416968">
        <ele>55.41</ele>
        <time>2018-11-06T07:41:11Z</time>
      </trkpt>
      <trkpt lat="36.8177675083" lon="-2.0603662636">
        <ele>55.89</ele>
        <time>2018-11-06T07:41:21Z</time>
      </trkpt>
      <trkpt lat="36.8180420157" lon="-2.0601270441">
        <ele>55.89</ele>
        <time>2018-11-06T07:41:31Z</time>
      </trkpt>
      <trkpt lat="36.8182013556" lon="-2.0599679556">
        <ele>55.41</ele>
        <time>2018-11-06T07:41:39Z</time>
      </trkpt>
      <trkpt lat="36.8183654733" lon="-2.0597584080">
        <ele>54.45</ele>
        <time>2018-11-06T07:41:48Z</time>
      </trkpt>
      <trkpt lat="36.8185794633" lon="-2.0594619401">
        <ele>54.45</ele>
        <time>2018-11-06T07:41:58Z</time>
      </trkpt>
      <trkpt lat="36.8187766895" lon="-2.0591026917">
        <ele>53.49</ele>
        <time>2018-11-06T07:42:06Z</time>
      </trkpt>
      <trkpt lat="36.8189810403" lon="-2.0586158708">
        <ele>51.57</ele>
        <time>2018-11-06T07:42:13Z</time>
      </trkpt>
      <trkpt lat="36.8192412984" lon="-2.0579597354">
        <ele>48.68</ele>
        <time>2018-11-06T07:42:20Z</time>
      </trkpt>
      <trkpt lat="36.8197558634" lon="-2.0568031166">
        <ele>44.84</ele>
        <time>2018-11-06T07:42:31Z</time>
      </trkpt>
      <trkpt lat="36.8201630563" lon="-2.0559432171">
        <ele>43.88</ele>
        <time>2018-11-06T07:42:40Z</time>
      </trkpt>
      <trkpt lat="36.8205153476" lon="-2.0551202819">
        <ele>43.40</ele>
        <time>2018-11-06T07:42:50Z</time>
      </trkpt>
      <trkpt lat="36.8206950556" lon="-2.0546632167">
        <ele>43.88</ele>
        <time>2018-11-06T07:42:57Z</time>
      </trkpt>
      <trkpt lat="36.8207865860" lon="-2.0544256736">
        <ele>45.32</ele>
        <time>2018-11-06T07:43:03Z</time>
      </trkpt>
      <trkpt lat="36.8209055252" lon="-2.0541347377">
        <ele>47.72</ele>
        <time>2018-11-06T07:43:12Z</time>
      </trkpt>
      <trkpt lat="36.8209754303" lon="-2.0539652556">
        <ele>49.16</ele>
        <time>2018-11-06T07:43:19Z</time>
      </trkpt>
      <trkpt lat="36.8210677989" lon="-2.0537502598">
        <ele>51.09</ele>
        <time>2018-11-06T07:43:28Z</time>
      </trkpt>
      <trkpt lat="36.8210927770" lon="-2.0536734816">
        <ele>51.57</ele>
        <time>2018-11-06T07:43:31Z</time>
      </trkpt>
      <trkpt lat="36.8211743329" lon="-2.0534698013">
        <ele>53.01</ele>
        <time>2018-11-06T07:43:40Z</time>
      </trkpt>
      <trkpt lat="36.8212523684" lon="-2.0532220323">
        <ele>54.45</ele>
        <time>2018-11-06T07:43:50Z</time>
      </trkpt>
      <trkpt lat="36.8213312421" lon="-2.0529631991">
        <ele>55.89</ele>
        <time>2018-11-06T07:44:00Z</time>
      </trkpt>
      <trkpt lat="36.8213739898" lon="-2.0527456887">
        <ele>57.34</ele>
        <time>2018-11-06T07:44:08Z</time>
      </trkpt>
      <trkpt lat="36.8214129657" lon="-2.0525334589">
        <ele>57.82</ele>
        <time>2018-11-06T07:44:16Z</time>
      </trkpt>
      <trkpt lat="36.8214682862" lon="-2.0522764698">
        <ele>58.30</ele>
        <time>2018-11-06T07:44:24Z</time>
      </trkpt>
      <trkpt lat="36.8215220980" lon="-2.0520335622">
        <ele>58.30</ele>
        <time>2018-11-06T07:44:31Z</time>
      </trkpt>
      <trkpt lat="36.8215733115" lon="-2.0517961029">
        <ele>58.30</ele>
        <time>2018-11-06T07:44:40Z</time>
      </trkpt>
      <trkpt lat="36.8216688652" lon="-2.0515268762">
        <ele>57.34</ele>
        <time>2018-11-06T07:44:48Z</time>
      </trkpt>
      <trkpt lat="36.8218291271" lon="-2.0510853175">
        <ele>55.89</ele>
        <time>2018-11-06T07:44:56Z</time>
      </trkpt>
      <trkpt lat="36.8220223300" lon="-2.0504356362">
        <ele>55.41</ele>
        <time>2018-11-06T07:45:07Z</time>
      </trkpt>
      <trkpt lat="36.8221882917" lon="-2.0499395113">
        <ele>54.93</ele>
        <time>2018-11-06T07:45:16Z</time>
      </trkpt>
      <trkpt lat="36.8224335462" lon="-2.0492341742">
        <ele>53.97</ele>
        <time>2018-11-06T07:45:28Z</time>
      </trkpt>
      <trkpt lat="36.8227215484" lon="-2.0487354510">
        <ele>53.01</ele>
        <time>2018-11-06T07:45:37Z</time>
      </trkpt>
      <trkpt lat="36.8231083732" lon="-2.0483775437">
        <ele>53.01</ele>
        <time>2018-11-06T07:45:46Z</time>
      </trkpt>
      <trkpt lat="36.8234247901" lon="-2.0481284335">
        <ele>53.49</ele>
        <time>2018-11-06T07:45:55Z</time>
      </trkpt>
      <trkpt lat="36.8237034883" lon="-2.0479070675">
        <ele>53.01</ele>
        <time>2018-11-06T07:46:04Z</time>
      </trkpt>
      <trkpt lat="36.8239885569" lon="-2.0476848632">
        <ele>53.01</ele>
        <time>2018-11-06T07:46:13Z</time>
      </trkpt>
      <trkpt lat="36.8243233301" lon="-2.0475016348">
        <ele>52.53</ele>
        <time>2018-11-06T07:46:23Z</time>
      </trkpt>
      <trkpt lat="36.8247001804" lon="-2.0473749004">
        <ele>52.53</ele>
        <time>2018-11-06T07:46:33Z</time>
      </trkpt>
      <trkpt lat="36.8250617757" lon="-2.0472144708">
        <ele>53.01</ele>
        <time>2018-11-06T07:46:42Z</time>
      </trkpt>
      <trkpt lat="36.8251340277" lon="-2.0471517742">
        <ele>53.01</ele>
        <time>2018-11-06T07:46:44Z</time>
      </trkpt>
      <trkpt lat="36.8251681421" lon="-2.0471137203">
        <ele>53.01</ele>
        <time>2018-11-06T07:46:45Z</time>
      </trkpt>
      <trkpt lat="36.8251952995" lon="-2.0470767561">
        <ele>53.01</ele>
        <time>2018-11-06T07:46:46Z</time>
      </trkpt>
      <trkpt lat="36.8253385462" lon="-2.0468034223">
        <ele>53.97</ele>
        <time>2018-11-06T07:46:53Z</time>
      </trkpt>
      <trkpt lat="36.8254300766" lon="-2.0464798808">
        <ele>54.45</ele>
        <time>2018-11-06T07:47:02Z</time>
      </trkpt>
      <trkpt lat="36.8254612572" lon="-2.0461277571">
        <ele>55.89</ele>
        <time>2018-11-06T07:47:12Z</time>
      </trkpt>
      <trkpt lat="36.8254546355" lon="-2.0460125897">
        <ele>55.89</ele>
        <time>2018-11-06T07:47:19Z</time>
      </trkpt>
      <trkpt lat="36.8254599161" lon="-2.0460182894">
        <ele>56.86</ele>
        <time>2018-11-06T07:47:27Z</time>
      </trkpt>
      <trkpt lat="36.8254514504" lon="-2.0460197981">
        <ele>55.89</ele>
        <time>2018-11-06T07:47:38Z</time>
      </trkpt>
      <trkpt lat="36.8254506122" lon="-2.0460094046">
        <ele>53.97</ele>
        <time>2018-11-06T07:47:58Z</time>
      </trkpt>
      <trkpt lat="36.8254655320" lon="-2.0460068062">
        <ele>54.45</ele>
        <time>2018-11-06T07:48:17Z</time>
      </trkpt>
      <trkpt lat="36.8254574854" lon="-2.0460097399">
        <ele>53.97</ele>
        <time>2018-11-06T07:48:41Z</time>
      </trkpt>
      <trkpt lat="36.8254598323" lon="-2.0460227318">
        <ele>54.93</ele>
        <time>2018-11-06T07:49:02Z</time>
      </trkpt>
      <trkpt lat="36.8254604191" lon="-2.0460161939">
        <ele>53.49</ele>
        <time>2018-11-06T07:49:33Z</time>
      </trkpt>
      <trkpt lat="36.8254536297" lon="-2.0460182056">
        <ele>54.45</ele>
        <time>2018-11-06T07:50:03Z</time>
      </trkpt>
      <trkpt lat="36.8254580721" lon="-2.0460218936">
        <ele>54.93</ele>
        <time>2018-11-06T07:50:31Z</time>
      </trkpt>
      <trkpt lat="36.8254595809" lon="-2.0460223127">
        <ele>55.41</ele>
        <time>2018-11-06T07:51:06Z</time>
      </trkpt>
      <trkpt lat="36.8254551385" lon="-2.0460144337">
        <ele>55.89</ele>
        <time>2018-11-06T07:51:31Z</time>
      </trkpt>
      <trkpt lat="36.8254532944" lon="-2.0460164454">
        <ele>56.37</ele>
        <time>2018-11-06T07:51:40Z</time>
      </trkpt>
      <trkpt lat="36.8254585750" lon="-2.0460069738">
        <ele>55.89</ele>
        <time>2018-11-06T07:51:42Z</time>
      </trkpt>
      <trkpt lat="36.8255055137" lon="-2.0459178742">
        <ele>56.86</ele>
        <time>2018-11-06T07:51:48Z</time>
      </trkpt>
      <trkpt lat="36.8255087826" lon="-2.0458949078">
        <ele>56.86</ele>
        <time>2018-11-06T07:51:49Z</time>
      </trkpt>
      <trkpt lat="36.8255092017" lon="-2.0458706841">
        <ele>56.86</ele>
        <time>2018-11-06T07:51:50Z</time>
      </trkpt>
      <trkpt lat="36.8255305756" lon="-2.0455618110">
        <ele>57.82</ele>
        <time>2018-11-06T07:52:01Z</time>
      </trkpt>
      <trkpt lat="36.8255554698" lon="-2.0452807657">
        <ele>58.30</ele>
        <time>2018-11-06T07:52:10Z</time>
      </trkpt>
      <trkpt lat="36.8255900033" lon="-2.0449216012">
        <ele>58.30</ele>
        <time>2018-11-06T07:52:21Z</time>
      </trkpt>
      <trkpt lat="36.8256281409" lon="-2.0445350278">
        <ele>59.26</ele>
        <time>2018-11-06T07:52:32Z</time>
      </trkpt>
      <trkpt lat="36.8256784324" lon="-2.0441442635">
        <ele>60.22</ele>
        <time>2018-11-06T07:52:43Z</time>
      </trkpt>
      <trkpt lat="36.8257096130" lon="-2.0438663196">
        <ele>61.18</ele>
        <time>2018-11-06T07:52:51Z</time>
      </trkpt>
      <trkpt lat="36.8257578928" lon="-2.0435323846">
        <ele>62.62</ele>
        <time>2018-11-06T07:53:02Z</time>
      </trkpt>
      <trkpt lat="36.8258009758" lon="-2.0432309713">
        <ele>63.58</ele>
        <time>2018-11-06T07:53:14Z</time>
      </trkpt>
      <trkpt lat="36.8258223496" lon="-2.0430039894">
        <ele>64.55</ele>
        <time>2018-11-06T07:53:23Z</time>
      </trkpt>
      <trkpt lat="36.8258286361" lon="-2.0427772589">
        <ele>65.99</ele>
        <time>2018-11-06T07:53:33Z</time>
      </trkpt>
      <trkpt lat="36.8258215114" lon="-2.0425843075">
        <ele>67.43</ele>
        <time>2018-11-06T07:53:42Z</time>
      </trkpt>
      <trkpt lat="36.8257935997" lon="-2.0423262287">
        <ele>69.35</ele>
        <time>2018-11-06T07:53:54Z</time>
      </trkpt>
      <trkpt lat="36.8257541209" lon="-2.0421383064">
        <ele>70.79</ele>
        <time>2018-11-06T07:54:03Z</time>
      </trkpt>
      <trkpt lat="36.8257024046" lon="-2.0419576764">
        <ele>72.24</ele>
        <time>2018-11-06T07:54:13Z</time>
      </trkpt>
      <trkpt lat="36.8256532867" lon="-2.0418051258">
        <ele>74.16</ele>
        <time>2018-11-06T07:54:21Z</time>
      </trkpt>
      <trkpt lat="36.8256057613" lon="-2.0416198857">
        <ele>75.60</ele>
        <time>2018-11-06T07:54:31Z</time>
      </trkpt>
      <trkpt lat="36.8255583197" lon="-2.0414405968">
        <ele>78.48</ele>
        <time>2018-11-06T07:54:42Z</time>
      </trkpt>
      <trkpt lat="36.8255582359" lon="-2.0413134433">
        <ele>79.45</ele>
        <time>2018-11-06T07:54:50Z</time>
      </trkpt>
      <trkpt lat="36.8255606666" lon="-2.0412993617">
        <ele>79.45</ele>
        <time>2018-11-06T07:54:51Z</time>
      </trkpt>
      <trkpt lat="36.8255628459" lon="-2.0412836876">
        <ele>79.45</ele>
        <time>2018-11-06T07:54:52Z</time>
      </trkpt>
      <trkpt lat="36.8255689647" lon="-2.0412700251">
        <ele>79.93</ele>
        <time>2018-11-06T07:54:53Z</time>
      </trkpt>
      <trkpt lat="36.8255750835" lon="-2.0412566978">
        <ele>79.93</ele>
        <time>2018-11-06T07:54:54Z</time>
      </trkpt>
      <trkpt lat="36.8255806156" lon="-2.0412426163">
        <ele>79.93</ele>
        <time>2018-11-06T07:54:55Z</time>
      </trkpt>
      <trkpt lat="36.8255843036" lon="-2.0412289537">
        <ele>79.93</ele>
        <time>2018-11-06T07:54:56Z</time>
      </trkpt>
      <trkpt lat="36.8255855609" lon="-2.0412131958">
        <ele>80.41</ele>
        <time>2018-11-06T07:54:57Z</time>
      </trkpt>
      <trkpt lat="36.8255863991" lon="-2.0411969349">
        <ele>80.41</ele>
        <time>2018-11-06T07:54:58Z</time>
      </trkpt>
      <trkpt lat="36.8255889136" lon="-2.0411812607">
        <ele>80.41</ele>
        <time>2018-11-06T07:54:59Z</time>
      </trkpt>
      <trkpt lat="36.8256438989" lon="-2.0410769898">
        <ele>81.85</ele>
        <time>2018-11-06T07:55:07Z</time>
      </trkpt>
      <trkpt lat="36.8257146422" lon="-2.0410038996">
        <ele>82.33</ele>
        <time>2018-11-06T07:55:14Z</time>
      </trkpt>
      <trkpt lat="36.8257687893" lon="-2.0409494173">
        <ele>82.81</ele>
        <time>2018-11-06T07:55:21Z</time>
      </trkpt>
      <trkpt lat="36.8258075137" lon="-2.0409179013">
        <ele>83.29</ele>
        <time>2018-11-06T07:55:25Z</time>
      </trkpt>
      <trkpt lat="36.8258194160" lon="-2.0409127045">
        <ele>83.29</ele>
        <time>2018-11-06T07:55:26Z</time>
      </trkpt>
      <trkpt lat="36.8258319050" lon="-2.0409064181">
        <ele>83.29</ele>
        <time>2018-11-06T07:55:27Z</time>
      </trkpt>
      <trkpt lat="36.8259546999" lon="-2.0408265386">
        <ele>84.73</ele>
        <time>2018-11-06T07:55:37Z</time>
      </trkpt>
      <trkpt lat="36.8260857929" lon="-2.0407588966">
        <ele>86.66</ele>
        <time>2018-11-06T07:55:47Z</time>
      </trkpt>
      <trkpt lat="36.8261941709" lon="-2.0407182444">
        <ele>87.62</ele>
        <time>2018-11-06T07:55:55Z</time>
      </trkpt>
      <trkpt lat="36.8262689374" lon="-2.0406998042">
        <ele>88.58</ele>
        <time>2018-11-06T07:56:02Z</time>
      </trkpt>
      <trkpt lat="36.8263801653" lon="-2.0406770892">
        <ele>90.02</ele>
        <time>2018-11-06T07:56:10Z</time>
      </trkpt>
      <trkpt lat="36.8263934925" lon="-2.0406692103">
        <ele>90.50</ele>
        <time>2018-11-06T07:56:11Z</time>
      </trkpt>
      <trkpt lat="36.8264050595" lon="-2.0406658575">
        <ele>90.50</ele>
        <time>2018-11-06T07:56:12Z</time>
      </trkpt>
      <trkpt lat="36.8264174648" lon="-2.0406656060">
        <ele>90.98</ele>
        <time>2018-11-06T07:56:13Z</time>
      </trkpt>
      <trkpt lat="36.8264302053" lon="-2.0406660251">
        <ele>90.98</ele>
        <time>2018-11-06T07:56:14Z</time>
      </trkpt>
      <trkpt lat="36.8264565244" lon="-2.0406634267">
        <ele>91.46</ele>
        <time>2018-11-06T07:56:16Z</time>
      </trkpt>
      <trkpt lat="36.8264835142" lon="-2.0406532846">
        <ele>91.94</ele>
        <time>2018-11-06T07:56:18Z</time>
      </trkpt>
      <trkpt lat="36.8264946621" lon="-2.0406522788">
        <ele>91.94</ele>
        <time>2018-11-06T07:56:19Z</time>
      </trkpt>
      <trkpt lat="36.8265336379" lon="-2.0406454895">
        <ele>92.42</ele>
        <time>2018-11-06T07:56:24Z</time>
      </trkpt>
      <trkpt lat="36.8265449535" lon="-2.0406456571">
        <ele>92.42</ele>
        <time>2018-11-06T07:56:25Z</time>
      </trkpt>
      <trkpt lat="36.8265578616" lon="-2.0406458247">
        <ele>92.90</ele>
        <time>2018-11-06T07:56:26Z</time>
      </trkpt>
      <trkpt lat="36.8265696801" lon="-2.0406440645">
        <ele>92.90</ele>
        <time>2018-11-06T07:56:27Z</time>
      </trkpt>
      <trkpt lat="36.8265825044" lon="-2.0406427234">
        <ele>92.90</ele>
        <time>2018-11-06T07:56:28Z</time>
      </trkpt>
      <trkpt lat="36.8265970051" lon="-2.0406387001">
        <ele>92.90</ele>
        <time>2018-11-06T07:56:29Z</time>
      </trkpt>
      <trkpt lat="36.8266106676" lon="-2.0406343415">
        <ele>93.39</ele>
        <time>2018-11-06T07:56:30Z</time>
      </trkpt>
      <trkpt lat="36.8266240787" lon="-2.0406351797">
        <ele>93.39</ele>
        <time>2018-11-06T07:56:31Z</time>
      </trkpt>
      <trkpt lat="36.8266374059" lon="-2.0406342577">
        <ele>93.87</ele>
        <time>2018-11-06T07:56:32Z</time>
      </trkpt>
      <trkpt lat="36.8266507331" lon="-2.0406308211">
        <ele>93.87</ele>
        <time>2018-11-06T07:56:33Z</time>
      </trkpt>
      <trkpt lat="36.8266651500" lon="-2.0406265464">
        <ele>94.35</ele>
        <time>2018-11-06T07:56:34Z</time>
      </trkpt>
      <trkpt lat="36.8266783934" lon="-2.0406278875">
        <ele>94.35</ele>
        <time>2018-11-06T07:56:35Z</time>
      </trkpt>
      <trkpt lat="36.8266930617" lon="-2.0406331681">
        <ele>94.83</ele>
        <time>2018-11-06T07:56:36Z</time>
      </trkpt>
      <trkpt lat="36.8267943151" lon="-2.0406457409">
        <ele>95.31</ele>
        <time>2018-11-06T07:56:43Z</time>
      </trkpt>
      <trkpt lat="36.8268100731" lon="-2.0406433102">
        <ele>95.79</ele>
        <time>2018-11-06T07:56:44Z</time>
      </trkpt>
      <trkpt lat="36.8268246576" lon="-2.0406450704">
        <ele>95.79</ele>
        <time>2018-11-06T07:56:45Z</time>
      </trkpt>
      <trkpt lat="36.8268407509" lon="-2.0406472497">
        <ele>96.27</ele>
        <time>2018-11-06T07:56:46Z</time>
      </trkpt>
      <trkpt lat="36.8268574309" lon="-2.0406481717">
        <ele>96.27</ele>
        <time>2018-11-06T07:56:47Z</time>
      </trkpt>
      <trkpt lat="36.8268730212" lon="-2.0406490937">
        <ele>96.27</ele>
        <time>2018-11-06T07:56:48Z</time>
      </trkpt>
      <trkpt lat="36.8268889468" lon="-2.0406480040">
        <ele>96.27</ele>
        <time>2018-11-06T07:56:49Z</time>
      </trkpt>
      <trkpt lat="36.8269043695" lon="-2.0406482555">
        <ele>96.75</ele>
        <time>2018-11-06T07:56:50Z</time>
      </trkpt>
      <trkpt lat="36.8269203790" lon="-2.0406510215">
        <ele>96.75</ele>
        <time>2018-11-06T07:56:51Z</time>
      </trkpt>
      <trkpt lat="36.8270914536" lon="-2.0406520274">
        <ele>97.71</ele>
        <time>2018-11-06T07:57:02Z</time>
      </trkpt>
      <trkpt lat="36.8271466903" lon="-2.0406596549">
        <ele>98.19</ele>
        <time>2018-11-06T07:57:06Z</time>
      </trkpt>
      <trkpt lat="36.8271620292" lon="-2.0406599063">
        <ele>98.19</ele>
        <time>2018-11-06T07:57:07Z</time>
      </trkpt>
      <trkpt lat="36.8273292482" lon="-2.0406656899">
        <ele>99.63</ele>
        <time>2018-11-06T07:57:17Z</time>
      </trkpt>
      <trkpt lat="36.8274548929" lon="-2.0406516921">
        <ele>100.60</ele>
        <time>2018-11-06T07:57:25Z</time>
      </trkpt>
      <trkpt lat="36.8275947869" lon="-2.0405800268">
        <ele>102.04</ele>
        <time>2018-11-06T07:57:34Z</time>
      </trkpt>
      <trkpt lat="36.8276081979" lon="-2.0405694656">
        <ele>102.04</ele>
        <time>2018-11-06T07:57:35Z</time>
      </trkpt>
      <trkpt lat="36.8276190106" lon="-2.0405553840">
        <ele>102.52</ele>
        <time>2018-11-06T07:57:36Z</time>
      </trkpt>
      <trkpt lat="36.8277242035" lon="-2.0404511131">
        <ele>103.00</ele>
        <time>2018-11-06T07:57:44Z</time>
      </trkpt>
      <trkpt lat="36.8278517760" lon="-2.0403465070">
        <ele>104.44</ele>
        <time>2018-11-06T07:57:53Z</time>
      </trkpt>
      <trkpt lat="36.8279060908" lon="-2.0402196888">
        <ele>105.88</ele>
        <time>2018-11-06T07:58:00Z</time>
      </trkpt>
      <trkpt lat="36.8279058393" lon="-2.0400539786">
        <ele>106.36</ele>
        <time>2018-11-06T07:58:08Z</time>
      </trkpt>
      <trkpt lat="36.8278580625" lon="-2.0398777910">
        <ele>106.36</ele>
        <time>2018-11-06T07:58:16Z</time>
      </trkpt>
      <trkpt lat="36.8278765865" lon="-2.0396492165">
        <ele>108.29</ele>
        <time>2018-11-06T07:58:25Z</time>
      </trkpt>
      <trkpt lat="36.8278914224" lon="-2.0395719353">
        <ele>108.77</ele>
        <time>2018-11-06T07:58:29Z</time>
      </trkpt>
      <trkpt lat="36.8278793525" lon="-2.0395170338">
        <ele>108.77</ele>
        <time>2018-11-06T07:58:32Z</time>
      </trkpt>
      <trkpt lat="36.8277817033" lon="-2.0393894613">
        <ele>107.81</ele>
        <time>2018-11-06T07:58:38Z</time>
      </trkpt>
      <trkpt lat="36.8276984710" lon="-2.0392977633">
        <ele>108.29</ele>
        <time>2018-11-06T07:58:44Z</time>
      </trkpt>
      <trkpt lat="36.8275633547" lon="-2.0392098371">
        <ele>109.25</ele>
        <time>2018-11-06T07:58:51Z</time>
      </trkpt>
      <trkpt lat="36.8274242990" lon="-2.0391566958">
        <ele>108.29</ele>
        <time>2018-11-06T07:58:58Z</time>
      </trkpt>
      <trkpt lat="36.8273233809" lon="-2.0390897244">
        <ele>108.29</ele>
        <time>2018-11-06T07:59:05Z</time>
      </trkpt>
      <trkpt lat="36.8272835668" lon="-2.0390614774">
        <ele>106.36</ele>
        <time>2018-11-06T07:59:11Z</time>
      </trkpt>
      <trkpt lat="36.8272745144" lon="-2.0390556939">
        <ele>107.81</ele>
        <time>2018-11-06T07:59:21Z</time>
      </trkpt>
      <trkpt lat="36.8272732571" lon="-2.0390456356">
        <ele>106.36</ele>
        <time>2018-11-06T07:59:38Z</time>
      </trkpt>
      <trkpt lat="36.8272741791" lon="-2.0390478149">
        <ele>106.36</ele>
        <time>2018-11-06T08:00:05Z</time>
      </trkpt>
      <trkpt lat="36.8272734247" lon="-2.0390488207">
        <ele>106.36</ele>
        <time>2018-11-06T08:00:24Z</time>
      </trkpt>
      <trkpt lat="36.8272726703" lon="-2.0390478149">
        <ele>105.88</ele>
        <time>2018-11-06T08:00:44Z</time>
      </trkpt>
      <trkpt lat="36.8272719998" lon="-2.0390488207">
        <ele>106.36</ele>
        <time>2018-11-06T08:01:04Z</time>
      </trkpt>
      <trkpt lat="36.8272710778" lon="-2.0390436240">
        <ele>105.88</ele>
        <time>2018-11-06T08:01:22Z</time>
      </trkpt>
      <trkpt lat="36.8272690661" lon="-2.0390472282">
        <ele>106.84</ele>
        <time>2018-11-06T08:01:48Z</time>
      </trkpt>
      <trkpt lat="36.8272727542" lon="-2.0390506648">
        <ele>105.88</ele>
        <time>2018-11-06T08:02:11Z</time>
      </trkpt>
      <trkpt lat="36.8272781186" lon="-2.0390557777">
        <ele>105.88</ele>
        <time>2018-11-06T08:02:35Z</time>
      </trkpt>
      <trkpt lat="36.8272800464" lon="-2.0390483178">
        <ele>105.88</ele>
        <time>2018-11-06T08:02:53Z</time>
      </trkpt>
      <trkpt lat="36.8272808846" lon="-2.0390480664">
        <ele>106.36</ele>
        <time>2018-11-06T08:03:13Z</time>
      </trkpt>
      <trkpt lat="36.8272799626" lon="-2.0390398521">
        <ele>106.36</ele>
        <time>2018-11-06T08:03:34Z</time>
      </trkpt>
      <trkpt lat="36.8272734247" lon="-2.0390411094">
        <ele>106.84</ele>
        <time>2018-11-06T08:03:56Z</time>
      </trkpt>
      <trkpt lat="36.8272778671" lon="-2.0390466414">
        <ele>106.84</ele>
        <time>2018-11-06T08:04:27Z</time>
      </trkpt>
      <trkpt lat="36.8272751011" lon="-2.0390406903">
        <ele>105.40</ele>
        <time>2018-11-06T08:04:54Z</time>
      </trkpt>
      <trkpt lat="36.8272750173" lon="-2.0390470605">
        <ele>106.84</ele>
        <time>2018-11-06T08:05:11Z</time>
      </trkpt>
      <trkpt lat="36.8272779509" lon="-2.0390451327">
        <ele>105.88</ele>
        <time>2018-11-06T08:05:32Z</time>
      </trkpt>
      <trkpt lat="36.8272800464" lon="-2.0390470605">
        <ele>106.36</ele>
        <time>2018-11-06T08:05:47Z</time>
      </trkpt>
      <trkpt lat="36.8272813037" lon="-2.0390431210">
        <ele>105.40</ele>
        <time>2018-11-06T08:06:05Z</time>
      </trkpt>
      <trkpt lat="36.8272774480" lon="-2.0390438754">
        <ele>106.36</ele>
        <time>2018-11-06T08:06:22Z</time>
      </trkpt>
      <trkpt lat="36.8272785377" lon="-2.0390446298">
        <ele>106.84</ele>
        <time>2018-11-06T08:06:40Z</time>
      </trkpt>
      <trkpt lat="36.8272784539" lon="-2.0390411932">
        <ele>106.84</ele>
        <time>2018-11-06T08:07:04Z</time>
      </trkpt>
      <trkpt lat="36.8272787891" lon="-2.0390334819">
        <ele>106.36</ele>
        <time>2018-11-06T08:07:24Z</time>
      </trkpt>
      <trkpt lat="36.8272754364" lon="-2.0390382595">
        <ele>106.84</ele>
        <time>2018-11-06T08:07:42Z</time>
      </trkpt>
      <trkpt lat="36.8272802979" lon="-2.0390444621">
        <ele>106.84</ele>
        <time>2018-11-06T08:08:02Z</time>
      </trkpt>
      <trkpt lat="36.8272771128" lon="-2.0390390977">
        <ele>105.88</ele>
        <time>2018-11-06T08:08:21Z</time>
      </trkpt>
      <trkpt lat="36.8272826448" lon="-2.0390488207">
        <ele>105.40</ele>
        <time>2018-11-06T08:08:26Z</time>
      </trkpt>
      <trkpt lat="36.8272849079" lon="-2.0390509162">
        <ele>105.88</ele>
        <time>2018-11-06T08:08:32Z</time>
      </trkpt>
      <trkpt lat="36.8273287453" lon="-2.0390867069">
        <ele>105.88</ele>
        <time>2018-11-06T08:08:39Z</time>
      </trkpt>
      <trkpt lat="36.8273899332" lon="-2.0391372498">
        <ele>106.36</ele>
        <time>2018-11-06T08:08:46Z</time>
      </trkpt>
      <trkpt lat="36.8275364488" lon="-2.0391829312">
        <ele>106.36</ele>
        <time>2018-11-06T08:08:55Z</time>
      </trkpt>
      <trkpt lat="36.8276075274" lon="-2.0392336417">
        <ele>106.36</ele>
        <time>2018-11-06T08:09:02Z</time>
      </trkpt>
      <trkpt lat="36.8276946153" lon="-2.0392919797">
        <ele>105.40</ele>
        <time>2018-11-06T08:09:09Z</time>
      </trkpt>
      <trkpt lat="36.8277206831" lon="-2.0393112581">
        <ele>105.40</ele>
        <time>2018-11-06T08:09:16Z</time>
      </trkpt>
      <trkpt lat="36.8277254608" lon="-2.0393349789">
        <ele>105.40</ele>
        <time>2018-11-06T08:09:28Z</time>
      </trkpt>
      <trkpt lat="36.8277852237" lon="-2.0393875334">
        <ele>105.40</ele>
        <time>2018-11-06T08:09:32Z</time>
      </trkpt>
      <trkpt lat="36.8278479204" lon="-2.0393420197">
        <ele>104.44</ele>
        <time>2018-11-06T08:09:38Z</time>
      </trkpt>
      <trkpt lat="36.8278696295" lon="-2.0392367430">
        <ele>104.44</ele>
        <time>2018-11-06T08:09:43Z</time>
      </trkpt>
      <trkpt lat="36.8278868124" lon="-2.0392216556">
        <ele>102.52</ele>
        <time>2018-11-06T08:09:50Z</time>
      </trkpt>
      <trkpt lat="36.8278863933" lon="-2.0392340608">
        <ele>98.67</ele>
        <time>2018-11-06T08:10:07Z</time>
      </trkpt>
      <trkpt lat="36.8278734852" lon="-2.0392369945">
        <ele>97.71</ele>
        <time>2018-11-06T08:10:22Z</time>
      </trkpt>
      <trkpt lat="36.8278876506" lon="-2.0392405149">
        <ele>98.19</ele>
        <time>2018-11-06T08:10:35Z</time>
      </trkpt>
      <trkpt lat="36.8278951105" lon="-2.0392431971">
        <ele>99.63</ele>
        <time>2018-11-06T08:10:38Z</time>
      </trkpt>
      <trkpt lat="36.8279266264" lon="-2.0393555984">
        <ele>102.04</ele>
        <time>2018-11-06T08:10:46Z</time>
      </trkpt>
      <trkpt lat="36.8279246986" lon="-2.0393960830">
        <ele>103.00</ele>
        <time>2018-11-06T08:10:48Z</time>
      </trkpt>
      <trkpt lat="36.8279450666" lon="-2.0394500624">
        <ele>104.44</ele>
        <time>2018-11-06T08:10:52Z</time>
      </trkpt>
      <trkpt lat="36.8279790133" lon="-2.0395382401">
        <ele>105.40</ele>
        <time>2018-11-06T08:10:58Z</time>
      </trkpt>
      <trkpt lat="36.8281055801" lon="-2.0396224782">
        <ele>107.81</ele>
        <time>2018-11-06T08:11:09Z</time>
      </trkpt>
      <trkpt lat="36.8282432109" lon="-2.0396832470">
        <ele>111.17</ele>
        <time>2018-11-06T08:11:18Z</time>
      </trkpt>
      <trkpt lat="36.8283473141" lon="-2.0397440996">
        <ele>113.09</ele>
        <time>2018-11-06T08:11:26Z</time>
      </trkpt>
      <trkpt lat="36.8284364138" lon="-2.0398007613">
        <ele>115.01</ele>
        <time>2018-11-06T08:11:34Z</time>
      </trkpt>
      <trkpt lat="36.8285258487" lon="-2.0398621168">
        <ele>116.46</ele>
        <time>2018-11-06T08:11:42Z</time>
      </trkpt>
      <trkpt lat="36.8286276050" lon="-2.0399248134">
        <ele>118.86</ele>
        <time>2018-11-06T08:11:51Z</time>
      </trkpt>
      <trkpt lat="36.8287175428" lon="-2.0399775356">
        <ele>120.78</ele>
        <time>2018-11-06T08:11:59Z</time>
      </trkpt>
      <trkpt lat="36.8287906330" lon="-2.0400321856">
        <ele>122.22</ele>
        <time>2018-11-06T08:12:06Z</time>
      </trkpt>
      <trkpt lat="36.8288707640" lon="-2.0400956366">
        <ele>123.67</ele>
        <time>2018-11-06T08:12:14Z</time>
      </trkpt>
      <trkpt lat="36.8289438542" lon="-2.0401404798">
        <ele>124.63</ele>
        <time>2018-11-06T08:12:21Z</time>
      </trkpt>
      <trkpt lat="36.8290068861" lon="-2.0401777793">
        <ele>125.59</ele>
        <time>2018-11-06T08:12:26Z</time>
      </trkpt>
      <trkpt lat="36.8291246518" lon="-2.0402445830">
        <ele>127.51</ele>
        <time>2018-11-06T08:12:35Z</time>
      </trkpt>
      <trkpt lat="36.8292135838" lon="-2.0402951259">
        <ele>127.99</ele>
        <time>2018-11-06T08:12:43Z</time>
      </trkpt>
      <trkpt lat="36.8293471076" lon="-2.0403581578">
        <ele>128.47</ele>
        <time>2018-11-06T08:12:53Z</time>
      </trkpt>
      <trkpt lat="36.8294700701" lon="-2.0404120535">
        <ele>128.47</ele>
        <time>2018-11-06T08:13:00Z</time>
      </trkpt>
      <trkpt lat="36.8296991475" lon="-2.0404863171">
        <ele>127.51</ele>
        <time>2018-11-06T08:13:09Z</time>
      </trkpt>
      <trkpt lat="36.8298711441" lon="-2.0405328367">
        <ele>126.07</ele>
        <time>2018-11-06T08:13:14Z</time>
      </trkpt>
      <trkpt lat="36.8301504292" lon="-2.0405538753">
        <ele>122.22</ele>
        <time>2018-11-06T08:13:18Z</time>
      </trkpt>
      <trkpt lat="36.8305605557" lon="-2.0404799469">
        <ele>116.46</ele>
        <time>2018-11-06T08:13:22Z</time>
      </trkpt>
      <trkpt lat="36.8312296830" lon="-2.0403571520">
        <ele>106.84</ele>
        <time>2018-11-06T08:13:27Z</time>
      </trkpt>
      <trkpt lat="36.8320579827" lon="-2.0402219519">
        <ele>95.31</ele>
        <time>2018-11-06T08:13:33Z</time>
      </trkpt>
      <trkpt lat="36.8327681813" lon="-2.0402293280">
        <ele>88.10</ele>
        <time>2018-11-06T08:13:38Z</time>
      </trkpt>
      <trkpt lat="36.8336885981" lon="-2.0402857382">
        <ele>80.89</ele>
        <time>2018-11-06T08:13:45Z</time>
      </trkpt>
      <trkpt lat="36.8346898165" lon="-2.0403721556">
        <ele>77.52</ele>
        <time>2018-11-06T08:13:53Z</time>
      </trkpt>
      <trkpt lat="36.8351782300" lon="-2.0403394662">
        <ele>78.00</ele>
        <time>2018-11-06T08:13:58Z</time>
      </trkpt>
      <trkpt lat="36.8355345447" lon="-2.0403556433">
        <ele>79.45</ele>
        <time>2018-11-06T08:14:03Z</time>
      </trkpt>
      <trkpt lat="36.8358968105" lon="-2.0404456649">
        <ele>79.93</ele>
        <time>2018-11-06T08:14:10Z</time>
      </trkpt>
      <trkpt lat="36.8362853955" lon="-2.0406095311">
        <ele>80.89</ele>
        <time>2018-11-06T08:14:19Z</time>
      </trkpt>
      <trkpt lat="36.8368592206" lon="-2.0407491736">
        <ele>79.93</ele>
        <time>2018-11-06T08:14:31Z</time>
      </trkpt>
      <trkpt lat="36.8369023874" lon="-2.0407550409">
        <ele>79.93</ele>
        <time>2018-11-06T08:14:32Z</time>
      </trkpt>
      <trkpt lat="36.8369451351" lon="-2.0407600701">
        <ele>79.93</ele>
        <time>2018-11-06T08:14:33Z</time>
      </trkpt>
      <trkpt lat="36.8372326344" lon="-2.0407728944">
        <ele>80.41</ele>
        <time>2018-11-06T08:14:41Z</time>
      </trkpt>
      <trkpt lat="36.8373612128" lon="-2.0407758281">
        <ele>80.41</ele>
        <time>2018-11-06T08:14:47Z</time>
      </trkpt>
      <trkpt lat="36.8375650607" lon="-2.0407697931">
        <ele>80.41</ele>
        <time>2018-11-06T08:14:54Z</time>
      </trkpt>
      <trkpt lat="36.8378492910" lon="-2.0407734811">
        <ele>78.48</ele>
        <time>2018-11-06T08:15:01Z</time>
      </trkpt>
      <trkpt lat="36.8383222818" lon="-2.0408322383">
        <ele>77.04</ele>
        <time>2018-11-06T08:15:10Z</time>
      </trkpt>
      <trkpt lat="36.8387797661" lon="-2.0409961045">
        <ele>73.68</ele>
        <time>2018-11-06T08:15:17Z</time>
      </trkpt>
      <trkpt lat="36.8395664915" lon="-2.0412407722">
        <ele>70.31</ele>
        <time>2018-11-06T08:15:27Z</time>
      </trkpt>
      <trkpt lat="36.8401642051" lon="-2.0414675865">
        <ele>69.83</ele>
        <time>2018-11-06T08:15:35Z</time>
      </trkpt>
      <trkpt lat="36.8404043466" lon="-2.0415496454">
        <ele>71.76</ele>
        <time>2018-11-06T08:15:40Z</time>
      </trkpt>
      <trkpt lat="36.8407039158" lon="-2.0416700095">
        <ele>72.72</ele>
        <time>2018-11-06T08:15:48Z</time>
      </trkpt>
      <trkpt lat="36.8411741406" lon="-2.0419222210">
        <ele>73.20</ele>
        <time>2018-11-06T08:15:59Z</time>
      </trkpt>
      <trkpt lat="36.8416018691" lon="-2.0422282442">
        <ele>75.60</ele>
        <time>2018-11-06T08:16:10Z</time>
      </trkpt>
      <trkpt lat="36.8419928011" lon="-2.0424967166">
        <ele>77.04</ele>
        <time>2018-11-06T08:16:21Z</time>
      </trkpt>
      <trkpt lat="36.8423756864" lon="-2.0426881593">
        <ele>77.04</ele>
        <time>2018-11-06T08:16:31Z</time>
      </trkpt>
      <trkpt lat="36.8428625073" lon="-2.0427837130">
        <ele>76.56</ele>
        <time>2018-11-06T08:16:43Z</time>
      </trkpt>
      <trkpt lat="36.8431796785" lon="-2.0427396242">
        <ele>75.12</ele>
        <time>2018-11-06T08:16:51Z</time>
      </trkpt>
      <trkpt lat="36.8432158884" lon="-2.0427226089">
        <ele>75.12</ele>
        <time>2018-11-06T08:16:52Z</time>
      </trkpt>
      <trkpt lat="36.8433049042" lon="-2.0426721498">
        <ele>74.64</ele>
        <time>2018-11-06T08:16:54Z</time>
      </trkpt>
      <trkpt lat="36.8436412700" lon="-2.0423131529">
        <ele>73.20</ele>
        <time>2018-11-06T08:17:02Z</time>
      </trkpt>
      <trkpt lat="36.8439397495" lon="-2.0417410880">
        <ele>70.79</ele>
        <time>2018-11-06T08:17:10Z</time>
      </trkpt>
      <trkpt lat="36.8443272449" lon="-2.0409881417">
        <ele>67.43</ele>
        <time>2018-11-06T08:17:19Z</time>
      </trkpt>
      <trkpt lat="36.8445964716" lon="-2.0402951259">
        <ele>64.55</ele>
        <time>2018-11-06T08:17:26Z</time>
      </trkpt>
      <trkpt lat="36.8447212782" lon="-2.0395003539">
        <ele>61.18</ele>
        <time>2018-11-06T08:17:33Z</time>
      </trkpt>
      <trkpt lat="36.8448425643" lon="-2.0381734148">
        <ele>55.89</ele>
        <time>2018-11-06T08:17:44Z</time>
      </trkpt>
      <trkpt lat="36.8449385371" lon="-2.0377058722">
        <ele>54.93</ele>
        <time>2018-11-06T08:17:48Z</time>
      </trkpt>
      <trkpt lat="36.8449813686" lon="-2.0376041997">
        <ele>54.45</ele>
        <time>2018-11-06T08:17:49Z</time>
      </trkpt>
      <trkpt lat="36.8450342584" lon="-2.0375047065">
        <ele>54.45</ele>
        <time>2018-11-06T08:17:50Z</time>
      </trkpt>
      <trkpt lat="36.8450917583" lon="-2.0374156907">
        <ele>53.97</ele>
        <time>2018-11-06T08:17:51Z</time>
      </trkpt>
      <trkpt lat="36.8451555446" lon="-2.0373337157">
        <ele>53.97</ele>
        <time>2018-11-06T08:17:52Z</time>
      </trkpt>
      <trkpt lat="36.8455985282" lon="-2.0369250979">
        <ele>53.01</ele>
        <time>2018-11-06T08:17:58Z</time>
      </trkpt>
      <trkpt lat="36.8461901229" lon="-2.0365238562">
        <ele>52.53</ele>
        <time>2018-11-06T08:18:06Z</time>
      </trkpt>
      <trkpt lat="36.8466452602" lon="-2.0362420566">
        <ele>52.53</ele>
        <time>2018-11-06T08:18:13Z</time>
      </trkpt>
      <trkpt lat="36.8470071070" lon="-2.0360500272">
        <ele>51.57</ele>
        <time>2018-11-06T08:18:19Z</time>
      </trkpt>
      <trkpt lat="36.8470689654" lon="-2.0360357780">
        <ele>51.57</ele>
        <time>2018-11-06T08:18:20Z</time>
      </trkpt>
      <trkpt lat="36.8471322488" lon="-2.0360285696">
        <ele>51.57</ele>
        <time>2018-11-06T08:18:21Z</time>
      </trkpt>
      <trkpt lat="36.8475643359" lon="-2.0360766817">
        <ele>50.61</ele>
        <time>2018-11-06T08:18:28Z</time>
      </trkpt>
      <trkpt lat="36.8482109159" lon="-2.0361693017">
        <ele>50.13</ele>
        <time>2018-11-06T08:18:39Z</time>
      </trkpt>
      <trkpt lat="36.8484759517" lon="-2.0361080300">
        <ele>50.13</ele>
        <time>2018-11-06T08:18:44Z</time>
      </trkpt>
      <trkpt lat="36.8485736847" lon="-2.0360549726">
        <ele>49.65</ele>
        <time>2018-11-06T08:18:46Z</time>
      </trkpt>
      <trkpt lat="36.8486231379" lon="-2.0360196009">
        <ele>49.65</ele>
        <time>2018-11-06T08:18:47Z</time>
      </trkpt>
      <trkpt lat="36.8486648798" lon="-2.0359854028">
        <ele>49.65</ele>
        <time>2018-11-06T08:18:48Z</time>
      </trkpt>
      <trkpt lat="36.8487046100" lon="-2.0359444153">
        <ele>49.65</ele>
        <time>2018-11-06T08:18:49Z</time>
      </trkpt>
      <trkpt lat="36.8487418257" lon="-2.0359020028">
        <ele>49.65</ele>
        <time>2018-11-06T08:18:50Z</time>
      </trkpt>
      <trkpt lat="36.8487831485" lon="-2.0358556509">
        <ele>49.16</ele>
        <time>2018-11-06T08:18:51Z</time>
      </trkpt>
      <trkpt lat="36.8488201126" lon="-2.0358103048">
        <ele>49.16</ele>
        <time>2018-11-06T08:18:52Z</time>
      </trkpt>
      <trkpt lat="36.8489165045" lon="-2.0356536470">
        <ele>49.16</ele>
        <time>2018-11-06T08:18:55Z</time>
      </trkpt>
      <trkpt lat="36.8490628526" lon="-2.0352823287">
        <ele>47.72</ele>
        <time>2018-11-06T08:19:01Z</time>
      </trkpt>
      <trkpt lat="36.8491904251" lon="-2.0347724576">
        <ele>46.28</ele>
        <time>2018-11-06T08:19:08Z</time>
      </trkpt>
      <trkpt lat="36.8493278045" lon="-2.0340371970">
        <ele>43.40</ele>
        <time>2018-11-06T08:19:17Z</time>
      </trkpt>
      <trkpt lat="36.8494142219" lon="-2.0335304271">
        <ele>42.44</ele>
        <time>2018-11-06T08:19:23Z</time>
      </trkpt>
      <trkpt lat="36.8494393677" lon="-2.0334484521">
        <ele>42.44</ele>
        <time>2018-11-06T08:19:24Z</time>
      </trkpt>
      <trkpt lat="36.8494696263" lon="-2.0333690755">
        <ele>41.95</ele>
        <time>2018-11-06T08:19:25Z</time>
      </trkpt>
      <trkpt lat="36.8497615680" lon="-2.0327245910">
        <ele>40.99</ele>
        <time>2018-11-06T08:19:34Z</time>
      </trkpt>
      <trkpt lat="36.8501980137" lon="-2.0317743346">
        <ele>39.07</ele>
        <time>2018-11-06T08:19:47Z</time>
      </trkpt>
      <trkpt lat="36.8505430128" lon="-2.0311273355">
        <ele>37.63</ele>
        <time>2018-11-06T08:19:56Z</time>
      </trkpt>
      <trkpt lat="36.8509116489" lon="-2.0304401033">
        <ele>36.19</ele>
        <time>2018-11-06T08:20:06Z</time>
      </trkpt>
      <trkpt lat="36.8513183389" lon="-2.0296671242">
        <ele>34.26</ele>
        <time>2018-11-06T08:20:18Z</time>
      </trkpt>
      <trkpt lat="36.8517795950" lon="-2.0289284270">
        <ele>32.34</ele>
        <time>2018-11-06T08:20:31Z</time>
      </trkpt>
      <trkpt lat="36.8521882966" lon="-2.0286134351">
        <ele>31.38</ele>
        <time>2018-11-06T08:20:40Z</time>
      </trkpt>
      <trkpt lat="36.8526937254" lon="-2.0283466391">
        <ele>29.94</ele>
        <time>2018-11-06T08:20:50Z</time>
      </trkpt>
      <trkpt lat="36.8531583343" lon="-2.0281015523">
        <ele>30.42</ele>
        <time>2018-11-06T08:21:00Z</time>
      </trkpt>
      <trkpt lat="36.8536143936" lon="-2.0278975368">
        <ele>29.94</ele>
        <time>2018-11-06T08:21:10Z</time>
      </trkpt>
      <trkpt lat="36.8540692795" lon="-2.0277453214">
        <ele>29.94</ele>
        <time>2018-11-06T08:21:20Z</time>
      </trkpt>
      <trkpt lat="36.8546601199" lon="-2.0275488496">
        <ele>30.42</ele>
        <time>2018-11-06T08:21:33Z</time>
      </trkpt>
      <trkpt lat="36.8548876885" lon="-2.0274963789">
        <ele>30.90</ele>
        <time>2018-11-06T08:21:38Z</time>
      </trkpt>
      <trkpt lat="36.8554904312" lon="-2.0274041779">
        <ele>30.90</ele>
        <time>2018-11-06T08:21:50Z</time>
      </trkpt>
      <trkpt lat="36.8560604006" lon="-2.0272685587">
        <ele>30.90</ele>
        <time>2018-11-06T08:22:02Z</time>
      </trkpt>
      <trkpt lat="36.8563625682" lon="-2.0271727536">
        <ele>31.86</ele>
        <time>2018-11-06T08:22:10Z</time>
      </trkpt>
      <trkpt lat="36.8566212337" lon="-2.0270834025">
        <ele>33.30</ele>
        <time>2018-11-06T08:22:19Z</time>
      </trkpt>
      <trkpt lat="36.8568973336" lon="-2.0270103123">
        <ele>33.78</ele>
        <time>2018-11-06T08:22:29Z</time>
      </trkpt>
      <trkpt lat="36.8572533131" lon="-2.0269065443">
        <ele>35.23</ele>
        <time>2018-11-06T08:22:42Z</time>
      </trkpt>
      <trkpt lat="36.8575657066" lon="-2.0268651377">
        <ele>36.19</ele>
        <time>2018-11-06T08:22:53Z</time>
      </trkpt>
      <trkpt lat="36.8578271382" lon="-2.0268965699">
        <ele>36.67</ele>
        <time>2018-11-06T08:23:02Z</time>
      </trkpt>
      <trkpt lat="36.8580430560" lon="-2.0269430894">
        <ele>38.11</ele>
        <time>2018-11-06T08:23:10Z</time>
      </trkpt>
      <trkpt lat="36.8583197426" lon="-2.0270066243">
        <ele>38.59</ele>
        <time>2018-11-06T08:23:20Z</time>
      </trkpt>
      <trkpt lat="36.8585526757" lon="-2.0270659681">
        <ele>39.07</ele>
        <time>2018-11-06T08:23:29Z</time>
      </trkpt>
      <trkpt lat="36.8587326352" lon="-2.0271054469">
        <ele>40.51</ele>
        <time>2018-11-06T08:23:36Z</time>
      </trkpt>
      <trkpt lat="36.8590260018" lon="-2.0271511283">
        <ele>40.99</ele>
        <time>2018-11-06T08:23:46Z</time>
      </trkpt>
      <trkpt lat="36.8592597730" lon="-2.0271652937">
        <ele>41.47</ele>
        <time>2018-11-06T08:23:54Z</time>
      </trkpt>
      <trkpt lat="36.8595223781" lon="-2.0271685626">
        <ele>43.40</ele>
        <time>2018-11-06T08:24:03Z</time>
      </trkpt>
      <trkpt lat="36.8598158285" lon="-2.0272055268">
        <ele>44.36</ele>
        <time>2018-11-06T08:24:13Z</time>
      </trkpt>
      <trkpt lat="36.8600711413" lon="-2.0272465982">
        <ele>45.80</ele>
        <time>2018-11-06T08:24:23Z</time>
      </trkpt>
      <trkpt lat="36.8602821976" lon="-2.0273284055">
        <ele>47.24</ele>
        <time>2018-11-06T08:24:32Z</time>
      </trkpt>
      <trkpt lat="36.8604327366" lon="-2.0274301618">
        <ele>48.68</ele>
        <time>2018-11-06T08:24:40Z</time>
      </trkpt>
      <trkpt lat="36.8605522625" lon="-2.0275755040">
        <ele>49.65</ele>
        <time>2018-11-06T08:24:49Z</time>
      </trkpt>
      <trkpt lat="36.8607383408" lon="-2.0277657732">
        <ele>51.09</ele>
        <time>2018-11-06T08:25:01Z</time>
      </trkpt>
      <trkpt lat="36.8609335553" lon="-2.0277998876">
        <ele>52.05</ele>
        <time>2018-11-06T08:25:11Z</time>
      </trkpt>
      <trkpt lat="36.8611718528" lon="-2.0278082695">
        <ele>52.05</ele>
        <time>2018-11-06T08:25:22Z</time>
      </trkpt>
      <trkpt lat="36.8613330368" lon="-2.0278161485">
        <ele>52.53</ele>
        <time>2018-11-06T08:25:31Z</time>
      </trkpt>
      <trkpt lat="36.8615618628" lon="-2.0278090239">
        <ele>53.49</ele>
        <time>2018-11-06T08:25:42Z</time>
      </trkpt>
      <trkpt lat="36.8617584184" lon="-2.0277978759">
        <ele>54.45</ele>
        <time>2018-11-06T08:25:52Z</time>
      </trkpt>
      <trkpt lat="36.8619554769" lon="-2.0277905837">
        <ele>55.89</ele>
        <time>2018-11-06T08:26:02Z</time>
      </trkpt>
      <trkpt lat="36.8621217739" lon="-2.0277443994">
        <ele>56.37</ele>
        <time>2018-11-06T08:26:10Z</time>
      </trkpt>
      <trkpt lat="36.8622962013" lon="-2.0276506059">
        <ele>57.82</ele>
        <time>2018-11-06T08:26:19Z</time>
      </trkpt>
      <trkpt lat="36.8624674436" lon="-2.0275307447">
        <ele>60.22</ele>
        <time>2018-11-06T08:26:29Z</time>
      </trkpt>
      <trkpt lat="36.8626347464" lon="-2.0274123922">
        <ele>61.66</ele>
        <time>2018-11-06T08:26:39Z</time>
      </trkpt>
      <trkpt lat="36.8627352454" lon="-2.0273551438">
        <ele>62.62</ele>
        <time>2018-11-06T08:26:46Z</time>
      </trkpt>
      <trkpt lat="36.8627474830" lon="-2.0273453370">
        <ele>62.62</ele>
        <time>2018-11-06T08:26:47Z</time>
      </trkpt>
      <trkpt lat="36.8627629895" lon="-2.0273376256">
        <ele>62.62</ele>
        <time>2018-11-06T08:26:48Z</time>
      </trkpt>
      <trkpt lat="36.8627830222" lon="-2.0273295790">
        <ele>63.10</ele>
        <time>2018-11-06T08:26:49Z</time>
      </trkpt>
      <trkpt lat="36.8628018815" lon="-2.0273240469">
        <ele>62.62</ele>
        <time>2018-11-06T08:26:50Z</time>
      </trkpt>
      <trkpt lat="36.8628228363" lon="-2.0273200236">
        <ele>63.10</ele>
        <time>2018-11-06T08:26:51Z</time>
      </trkpt>
      <trkpt lat="36.8630133569" lon="-2.0273355301">
        <ele>63.58</ele>
        <time>2018-11-06T08:27:01Z</time>
      </trkpt>
      <trkpt lat="36.8631894607" lon="-2.0274573192">
        <ele>65.03</ele>
        <time>2018-11-06T08:27:11Z</time>
      </trkpt>
      <trkpt lat="36.8633772992" lon="-2.0275482628">
        <ele>66.95</ele>
        <time>2018-11-06T08:27:22Z</time>
      </trkpt>
      <trkpt lat="36.8635689933" lon="-2.0276214369">
        <ele>67.91</ele>
        <time>2018-11-06T08:27:33Z</time>
      </trkpt>
      <trkpt lat="36.8637231365" lon="-2.0276956167">
        <ele>68.87</ele>
        <time>2018-11-06T08:27:42Z</time>
      </trkpt>
      <trkpt lat="36.8638496194" lon="-2.0277949423">
        <ele>69.35</ele>
        <time>2018-11-06T08:27:50Z</time>
      </trkpt>
      <trkpt lat="36.8640098814" lon="-2.0279136300">
        <ele>70.31</ele>
        <time>2018-11-06T08:28:00Z</time>
      </trkpt>
      <trkpt lat="36.8641522061" lon="-2.0280474890">
        <ele>71.27</ele>
        <time>2018-11-06T08:28:09Z</time>
      </trkpt>
      <trkpt lat="36.8642745819" lon="-2.0281796716">
        <ele>72.24</ele>
        <time>2018-11-06T08:28:17Z</time>
      </trkpt>
      <trkpt lat="36.8644420523" lon="-2.0283778198">
        <ele>72.72</ele>
        <time>2018-11-06T08:28:28Z</time>
      </trkpt>
      <trkpt lat="36.8645733967" lon="-2.0284582861">
        <ele>73.68</ele>
        <time>2018-11-06T08:28:36Z</time>
      </trkpt>
      <trkpt lat="36.8646974489" lon="-2.0285071526">
        <ele>74.16</ele>
        <time>2018-11-06T08:28:44Z</time>
      </trkpt>
      <trkpt lat="36.8648962677" lon="-2.0285561867">
        <ele>76.56</ele>
        <time>2018-11-06T08:28:56Z</time>
      </trkpt>
      <trkpt lat="36.8650703598" lon="-2.0285685919">
        <ele>78.00</ele>
        <time>2018-11-06T08:29:06Z</time>
      </trkpt>
      <trkpt lat="36.8652530853" lon="-2.0285705198">
        <ele>79.93</ele>
        <time>2018-11-06T08:29:17Z</time>
      </trkpt>
      <trkpt lat="36.8652963359" lon="-2.0285879541">
        <ele>79.45</ele>
        <time>2018-11-06T08:29:21Z</time>
      </trkpt>
      <trkpt lat="36.8653142732" lon="-2.0285877027">
        <ele>79.93</ele>
        <time>2018-11-06T08:29:22Z</time>
      </trkpt>
      <trkpt lat="36.8653293606" lon="-2.0285917260">
        <ele>79.93</ele>
        <time>2018-11-06T08:29:23Z</time>
      </trkpt>
      <trkpt lat="36.8653436098" lon="-2.0285981800">
        <ele>79.93</ele>
        <time>2018-11-06T08:29:24Z</time>
      </trkpt>
      <trkpt lat="36.8653598707" lon="-2.0286045503">
        <ele>79.93</ele>
        <time>2018-11-06T08:29:25Z</time>
      </trkpt>
      <trkpt lat="36.8653727788" lon="-2.0286162850">
        <ele>79.93</ele>
        <time>2018-11-06T08:29:26Z</time>
      </trkpt>
      <trkpt lat="36.8654056359" lon="-2.0286415145">
        <ele>80.41</ele>
        <time>2018-11-06T08:29:28Z</time>
      </trkpt>
      <trkpt lat="36.8654232379" lon="-2.0286469627">
        <ele>80.41</ele>
        <time>2018-11-06T08:29:29Z</time>
      </trkpt>
      <trkpt lat="36.8654401693" lon="-2.0286514051">
        <ele>80.89</ele>
        <time>2018-11-06T08:29:30Z</time>
      </trkpt>
      <trkpt lat="36.8654543348" lon="-2.0286634751">
        <ele>80.89</ele>
        <time>2018-11-06T08:29:31Z</time>
      </trkpt>
      <trkpt lat="36.8654689193" lon="-2.0286805741">
        <ele>80.89</ele>
        <time>2018-11-06T08:29:32Z</time>
      </trkpt>
      <trkpt lat="36.8655921333" lon="-2.0288265869">
        <ele>82.33</ele>
        <time>2018-11-06T08:29:41Z</time>
      </trkpt>
      <trkpt lat="36.8657031097" lon="-2.0289478730">
        <ele>83.77</ele>
        <time>2018-11-06T08:29:49Z</time>
      </trkpt>
      <trkpt lat="36.8658278324" lon="-2.0289150160">
        <ele>84.73</ele>
        <time>2018-11-06T08:29:56Z</time>
      </trkpt>
      <trkpt lat="36.8659145012" lon="-2.0287470426">
        <ele>85.69</ele>
        <time>2018-11-06T08:30:04Z</time>
      </trkpt>
      <trkpt lat="36.8659493700" lon="-2.0286035445">
        <ele>86.18</ele>
        <time>2018-11-06T08:30:12Z</time>
      </trkpt>
      <trkpt lat="36.8659770302" lon="-2.0284449589">
        <ele>86.66</ele>
        <time>2018-11-06T08:30:20Z</time>
      </trkpt>
      <trkpt lat="36.8660404813" lon="-2.0283227507">
        <ele>88.10</ele>
        <time>2018-11-06T08:30:28Z</time>
      </trkpt>
      <trkpt lat="36.8660444207" lon="-2.0283056516">
        <ele>88.10</ele>
        <time>2018-11-06T08:30:29Z</time>
      </trkpt>
      <trkpt lat="36.8660478573" lon="-2.0282869600">
        <ele>88.10</ele>
        <time>2018-11-06T08:30:30Z</time>
      </trkpt>
      <trkpt lat="36.8660521321" lon="-2.0282683522">
        <ele>88.10</ele>
        <time>2018-11-06T08:30:31Z</time>
      </trkpt>
      <trkpt lat="36.8660650402" lon="-2.0282356627">
        <ele>88.58</ele>
        <time>2018-11-06T08:30:33Z</time>
      </trkpt>
      <trkpt lat="36.8660744280" lon="-2.0282200724">
        <ele>88.58</ele>
        <time>2018-11-06T08:30:34Z</time>
      </trkpt>
      <trkpt lat="36.8660799600" lon="-2.0282010455">
        <ele>89.06</ele>
        <time>2018-11-06T08:30:35Z</time>
      </trkpt>
      <trkpt lat="36.8661329336" lon="-2.0281035639">
        <ele>89.06</ele>
        <time>2018-11-06T08:30:42Z</time>
      </trkpt>
      <trkpt lat="36.8661847338" lon="-2.0279923361">
        <ele>90.02</ele>
        <time>2018-11-06T08:30:48Z</time>
      </trkpt>
      <trkpt lat="36.8661954626" lon="-2.0279826131">
        <ele>90.50</ele>
        <time>2018-11-06T08:30:49Z</time>
      </trkpt>
      <trkpt lat="36.8662031740" lon="-2.0279712975">
        <ele>90.50</ele>
        <time>2018-11-06T08:30:50Z</time>
      </trkpt>
      <trkpt lat="36.8663145695" lon="-2.0277971216">
        <ele>91.94</ele>
        <time>2018-11-06T08:31:01Z</time>
      </trkpt>
      <trkpt lat="36.8663974665" lon="-2.0277184993">
        <ele>92.90</ele>
        <time>2018-11-06T08:31:08Z</time>
      </trkpt>
      <trkpt lat="36.8665054254" lon="-2.0276475884">
        <ele>94.35</ele>
        <time>2018-11-06T08:31:15Z</time>
      </trkpt>
      <trkpt lat="36.8666556291" lon="-2.0276016556">
        <ele>94.83</ele>
        <time>2018-11-06T08:31:25Z</time>
      </trkpt>
      <trkpt lat="36.8668241892" lon="-2.0275398809">
        <ele>95.79</ele>
        <time>2018-11-06T08:31:35Z</time>
      </trkpt>
      <trkpt lat="36.8668923341" lon="-2.0275150705">
        <ele>97.23</ele>
        <time>2018-11-06T08:31:41Z</time>
      </trkpt>
      <trkpt lat="36.8670228403" lon="-2.0274673775">
        <ele>98.19</ele>
        <time>2018-11-06T08:31:49Z</time>
      </trkpt>
      <trkpt lat="36.8670383468" lon="-2.0274657849">
        <ele>98.19</ele>
        <time>2018-11-06T08:31:50Z</time>
      </trkpt>
      <trkpt lat="36.8670559488" lon="-2.0274609234">
        <ele>98.19</ele>
        <time>2018-11-06T08:31:51Z</time>
      </trkpt>
      <trkpt lat="36.8670735508" lon="-2.0274570677">
        <ele>98.19</ele>
        <time>2018-11-06T08:31:52Z</time>
      </trkpt>
      <trkpt lat="36.8670914043" lon="-2.0274544694">
        <ele>98.67</ele>
        <time>2018-11-06T08:31:53Z</time>
      </trkpt>
      <trkpt lat="36.8671090901" lon="-2.0274484344">
        <ele>98.67</ele>
        <time>2018-11-06T08:31:54Z</time>
      </trkpt>
      <trkpt lat="36.8671229202" lon="-2.0274439082">
        <ele>98.67</ele>
        <time>2018-11-06T08:31:55Z</time>
      </trkpt>
      <trkpt lat="36.8671352416" lon="-2.0274387114">
        <ele>99.15</ele>
        <time>2018-11-06T08:31:56Z</time>
      </trkpt>
      <trkpt lat="36.8671477307" lon="-2.0274315029">
        <ele>99.15</ele>
        <time>2018-11-06T08:31:57Z</time>
      </trkpt>
      <trkpt lat="36.8671617284" lon="-2.0274237078">
        <ele>99.15</ele>
        <time>2018-11-06T08:31:58Z</time>
      </trkpt>
      <trkpt lat="36.8673092499" lon="-2.0273706503">
        <ele>100.11</ele>
        <time>2018-11-06T08:32:06Z</time>
      </trkpt>
      <trkpt lat="36.8674545083" lon="-2.0273050200">
        <ele>101.08</ele>
        <time>2018-11-06T08:32:14Z</time>
      </trkpt>
      <trkpt lat="36.8676504772" lon="-2.0271913614">
        <ele>100.11</ele>
        <time>2018-11-06T08:32:23Z</time>
      </trkpt>
      <trkpt lat="36.8678860925" lon="-2.0270533953">
        <ele>99.15</ele>
        <time>2018-11-06T08:32:29Z</time>
      </trkpt>
      <trkpt lat="36.8682749290" lon="-2.0268301852">
        <ele>96.75</ele>
        <time>2018-11-06T08:32:36Z</time>
      </trkpt>
      <trkpt lat="36.8688355945" lon="-2.0265027042">
        <ele>93.39</ele>
        <time>2018-11-06T08:32:44Z</time>
      </trkpt>
      <trkpt lat="36.8693582900" lon="-2.0261904784">
        <ele>90.02</ele>
        <time>2018-11-06T08:32:51Z</time>
      </trkpt>
      <trkpt lat="36.8696138542" lon="-2.0260252710">
        <ele>88.10</ele>
        <time>2018-11-06T08:32:56Z</time>
      </trkpt>
      <trkpt lat="36.8697731942" lon="-2.0259162225">
        <ele>87.14</ele>
        <time>2018-11-06T08:33:01Z</time>
      </trkpt>
      <trkpt lat="36.8698147684" lon="-2.0259124506">
        <ele>87.14</ele>
        <time>2018-11-06T08:33:02Z</time>
      </trkpt>
      <trkpt lat="36.8698509783" lon="-2.0259173959">
        <ele>87.14</ele>
        <time>2018-11-06T08:33:03Z</time>
      </trkpt>
      <trkpt lat="36.8698855117" lon="-2.0259286277">
        <ele>87.14</ele>
        <time>2018-11-06T08:33:04Z</time>
      </trkpt>
      <trkpt lat="36.8699134234" lon="-2.0259487443">
        <ele>87.14</ele>
        <time>2018-11-06T08:33:05Z</time>
      </trkpt>
      <trkpt lat="36.8699333724" lon="-2.0259715430">
        <ele>87.14</ele>
        <time>2018-11-06T08:33:06Z</time>
      </trkpt>
      <trkpt lat="36.8699503876" lon="-2.0259941742">
        <ele>87.62</ele>
        <time>2018-11-06T08:33:07Z</time>
      </trkpt>
      <trkpt lat="36.8701218814" lon="-2.0261914004">
        <ele>89.06</ele>
        <time>2018-11-06T08:33:17Z</time>
      </trkpt>
      <trkpt lat="36.8703072891" lon="-2.0263614692">
        <ele>90.98</ele>
        <time>2018-11-06T08:33:27Z</time>
      </trkpt>
      <trkpt lat="36.8704998214" lon="-2.0265702624">
        <ele>92.42</ele>
        <time>2018-11-06T08:33:38Z</time>
      </trkpt>
      <trkpt lat="36.8706359435" lon="-2.0267581847">
        <ele>92.90</ele>
        <time>2018-11-06T08:33:47Z</time>
      </trkpt>
      <trkpt lat="36.8708053418" lon="-2.0269849990">
        <ele>93.39</ele>
        <time>2018-11-06T08:33:56Z</time>
      </trkpt>
      <trkpt lat="36.8709697947" lon="-2.0272189379">
        <ele>93.39</ele>
        <time>2018-11-06T08:34:05Z</time>
      </trkpt>
      <trkpt lat="36.8711200822" lon="-2.0274431538">
        <ele>93.87</ele>
        <time>2018-11-06T08:34:14Z</time>
      </trkpt>
      <trkpt lat="36.8713226728" lon="-2.0277454052">
        <ele>92.90</ele>
        <time>2018-11-06T08:34:27Z</time>
      </trkpt>
      <trkpt lat="36.8714655004" lon="-2.0279525220">
        <ele>92.90</ele>
        <time>2018-11-06T08:34:36Z</time>
      </trkpt>
      <trkpt lat="36.8716468010" lon="-2.0281870477">
        <ele>92.42</ele>
        <time>2018-11-06T08:34:43Z</time>
      </trkpt>
      <trkpt lat="36.8719490524" lon="-2.0285159536">
        <ele>89.06</ele>
        <time>2018-11-06T08:34:50Z</time>
      </trkpt>
      <trkpt lat="36.8723354582" lon="-2.0288276765">
        <ele>87.62</ele>
        <time>2018-11-06T08:34:56Z</time>
      </trkpt>
      <trkpt lat="36.8725477718" lon="-2.0289539918">
        <ele>90.02</ele>
        <time>2018-11-06T08:35:01Z</time>
      </trkpt>
      <trkpt lat="36.8727155775" lon="-2.0290468633">
        <ele>91.94</ele>
        <time>2018-11-06T08:35:09Z</time>
      </trkpt>
      <trkpt lat="36.8729498517" lon="-2.0292048622">
        <ele>94.83</ele>
        <time>2018-11-06T08:35:21Z</time>
      </trkpt>
      <trkpt lat="36.8731288891" lon="-2.0293207001">
        <ele>96.27</ele>
        <time>2018-11-06T08:35:30Z</time>
      </trkpt>
      <trkpt lat="36.8733943440" lon="-2.0294864103">
        <ele>98.67</ele>
        <time>2018-11-06T08:35:43Z</time>
      </trkpt>
      <trkpt lat="36.8736400176" lon="-2.0296533778">
        <ele>99.63</ele>
        <time>2018-11-06T08:35:55Z</time>
      </trkpt>
      <trkpt lat="36.8738736212" lon="-2.0298325829">
        <ele>99.63</ele>
        <time>2018-11-06T08:36:07Z</time>
      </trkpt>
      <trkpt lat="36.8740455341" lon="-2.0299449842">
        <ele>99.63</ele>
        <time>2018-11-06T08:36:16Z</time>
      </trkpt>
      <trkpt lat="36.8742444366" lon="-2.0300561283">
        <ele>100.11</ele>
        <time>2018-11-06T08:36:26Z</time>
      </trkpt>
      <trkpt lat="36.8743739370" lon="-2.0301816054">
        <ele>100.60</ele>
        <time>2018-11-06T08:36:35Z</time>
      </trkpt>
      <trkpt lat="36.8743535690" lon="-2.0301652607">
        <ele>102.04</ele>
        <time>2018-11-06T08:36:47Z</time>
      </trkpt>
      <trkpt lat="36.8743661419" lon="-2.0301689487">
        <ele>103.48</ele>
        <time>2018-11-06T08:37:11Z</time>
      </trkpt>
      <trkpt lat="36.8743578438" lon="-2.0301716309">
        <ele>103.96</ele>
        <time>2018-11-06T08:37:31Z</time>
      </trkpt>
      <trkpt lat="36.8743560836" lon="-2.0301816892">
        <ele>103.96</ele>
        <time>2018-11-06T08:37:47Z</time>
      </trkpt>
      <trkpt lat="36.8743554130" lon="-2.0301568788">
        <ele>105.88</ele>
        <time>2018-11-06T08:38:08Z</time>
      </trkpt>
      <trkpt lat="36.8743710872" lon="-2.0301797614">
        <ele>103.00</ele>
        <time>2018-11-06T08:38:23Z</time>
      </trkpt>
      <trkpt lat="36.8743726797" lon="-2.0301715471">
        <ele>101.08</ele>
        <time>2018-11-06T08:38:39Z</time>
      </trkpt>
      <trkpt lat="36.8743647169" lon="-2.0301632490">
        <ele>100.60</ele>
        <time>2018-11-06T08:38:53Z</time>
      </trkpt>
      <trkpt lat="36.8743451033" lon="-2.0301597286">
        <ele>100.11</ele>
        <time>2018-11-06T08:39:05Z</time>
      </trkpt>
      <trkpt lat="36.8743589334" lon="-2.0301607344">
        <ele>98.19</ele>
        <time>2018-11-06T08:39:20Z</time>
      </trkpt>
      <trkpt lat="36.8743606098" lon="-2.0301795099">
        <ele>96.75</ele>
        <time>2018-11-06T08:39:33Z</time>
      </trkpt>
      <trkpt lat="36.8743741885" lon="-2.0301816892">
        <ele>97.71</ele>
        <time>2018-11-06T08:39:44Z</time>
      </trkpt>
      <trkpt lat="36.8743842468" lon="-2.0301754028">
        <ele>98.19</ele>
        <time>2018-11-06T08:39:55Z</time>
      </trkpt>
      <trkpt lat="36.8743646331" lon="-2.0301752351">
        <ele>100.60</ele>
        <time>2018-11-06T08:40:09Z</time>
      </trkpt>
      <trkpt lat="36.8743747752" lon="-2.0301727206">
        <ele>102.04</ele>
        <time>2018-11-06T08:40:25Z</time>
      </trkpt>
      <trkpt lat="36.8743785471" lon="-2.0301634166">
        <ele>100.60</ele>
        <time>2018-11-06T08:40:40Z</time>
      </trkpt>
      <trkpt lat="36.8743703328" lon="-2.0301566273">
        <ele>103.00</ele>
        <time>2018-11-06T08:40:54Z</time>
      </trkpt>
      <trkpt lat="36.8743693270" lon="-2.0301515143">
        <ele>102.04</ele>
        <time>2018-11-06T08:41:09Z</time>
      </trkpt>
      <trkpt lat="36.8743646331" lon="-2.0301713794">
        <ele>101.56</ele>
        <time>2018-11-06T08:41:25Z</time>
      </trkpt>
      <trkpt lat="36.8743658066" lon="-2.0301746484">
        <ele>101.56</ele>
        <time>2018-11-06T08:41:42Z</time>
      </trkpt>
      <trkpt lat="36.8743755296" lon="-2.0301703736">
        <ele>103.00</ele>
        <time>2018-11-06T08:41:59Z</time>
      </trkpt>
      <trkpt lat="36.8743744399" lon="-2.0301818568">
        <ele>103.96</ele>
        <time>2018-11-06T08:42:15Z</time>
      </trkpt>
      <trkpt lat="36.8743732665" lon="-2.0301731396">
        <ele>101.56</ele>
        <time>2018-11-06T08:42:33Z</time>
      </trkpt>
      <trkpt lat="36.8743710872" lon="-2.0301733073">
        <ele>102.52</ele>
        <time>2018-11-06T08:42:50Z</time>
      </trkpt>
      <trkpt lat="36.8743679021" lon="-2.0301705413">
        <ele>103.00</ele>
        <time>2018-11-06T08:43:03Z</time>
      </trkpt>
      <trkpt lat="36.8743716739" lon="-2.0301799290">
        <ele>102.04</ele>
        <time>2018-11-06T08:43:09Z</time>
      </trkpt>
      <trkpt lat="36.8743939698" lon="-2.0302020572">
        <ele>102.04</ele>
        <time>2018-11-06T08:43:19Z</time>
      </trkpt>
      <trkpt lat="36.8744098116" lon="-2.0302351657">
        <ele>102.04</ele>
        <time>2018-11-06T08:43:21Z</time>
      </trkpt>
      <trkpt lat="36.8744221330" lon="-2.0302476548">
        <ele>102.04</ele>
        <time>2018-11-06T08:43:22Z</time>
      </trkpt>
      <trkpt lat="36.8744334485" lon="-2.0302617364">
        <ele>102.04</ele>
        <time>2018-11-06T08:43:23Z</time>
      </trkpt>
      <trkpt lat="36.8745320197" lon="-2.0304338168">
        <ele>102.52</ele>
        <time>2018-11-06T08:43:32Z</time>
      </trkpt>
      <trkpt lat="36.8746230472" lon="-2.0306784846">
        <ele>104.44</ele>
        <time>2018-11-06T08:43:44Z</time>
      </trkpt>
      <trkpt lat="36.8746844865" lon="-2.0308887865">
        <ele>106.36</ele>
        <time>2018-11-06T08:43:54Z</time>
      </trkpt>
      <trkpt lat="36.8747543078" lon="-2.0311032794">
        <ele>109.25</ele>
        <time>2018-11-06T08:44:04Z</time>
      </trkpt>
      <trkpt lat="36.8748357799" lon="-2.0313023496">
        <ele>111.65</ele>
        <time>2018-11-06T08:44:14Z</time>
      </trkpt>
      <trkpt lat="36.8748484366" lon="-2.0313067921">
        <ele>112.13</ele>
        <time>2018-11-06T08:44:19Z</time>
      </trkpt>
      <trkpt lat="36.8748806231" lon="-2.0313689020">
        <ele>113.09</ele>
        <time>2018-11-06T08:44:30Z</time>
      </trkpt>
      <trkpt lat="36.8749605026" lon="-2.0314939599">
        <ele>115.01</ele>
        <time>2018-11-06T08:44:38Z</time>
      </trkpt>
      <trkpt lat="36.8750351854" lon="-2.0315838140">
        <ele>116.94</ele>
        <time>2018-11-06T08:44:46Z</time>
      </trkpt>
      <trkpt lat="36.8750443216" lon="-2.0316097140">
        <ele>116.94</ele>
        <time>2018-11-06T08:44:48Z</time>
      </trkpt>
      <trkpt lat="36.8750551343" lon="-2.0316204429">
        <ele>117.42</ele>
        <time>2018-11-06T08:44:49Z</time>
      </trkpt>
      <trkpt lat="36.8751365226" lon="-2.0317115542">
        <ele>118.38</ele>
        <time>2018-11-06T08:44:58Z</time>
      </trkpt>
      <trkpt lat="36.8751387019" lon="-2.0317204390">
        <ele>118.38</ele>
        <time>2018-11-06T08:45:03Z</time>
      </trkpt>
      <trkpt lat="36.8751630094" lon="-2.0317450818">
        <ele>118.38</ele>
        <time>2018-11-06T08:45:09Z</time>
      </trkpt>
      <trkpt lat="36.8751973752" lon="-2.0317692216">
        <ele>117.42</ele>
        <time>2018-11-06T08:45:17Z</time>
      </trkpt>
      <trkpt lat="36.8752250355" lon="-2.0318030845">
        <ele>117.42</ele>
        <time>2018-11-06T08:45:25Z</time>
      </trkpt>
      <trkpt lat="36.8753159791" lon="-2.0319021586">
        <ele>119.34</ele>
        <time>2018-11-06T08:45:36Z</time>
      </trkpt>
      <trkpt lat="36.8754260335" lon="-2.0320045855">
        <ele>121.74</ele>
        <time>2018-11-06T08:45:47Z</time>
      </trkpt>
      <trkpt lat="36.8755455595" lon="-2.0320974570">
        <ele>123.19</ele>
        <time>2018-11-06T08:45:58Z</time>
      </trkpt>
      <trkpt lat="36.8756665103" lon="-2.0321834553">
        <ele>124.63</ele>
        <time>2018-11-06T08:46:09Z</time>
      </trkpt>
      <trkpt lat="36.8758752197" lon="-2.0322718844">
        <ele>126.55</ele>
        <time>2018-11-06T08:46:25Z</time>
      </trkpt>
      <trkpt lat="36.8759108428" lon="-2.0322820265">
        <ele>127.03</ele>
        <time>2018-11-06T08:46:31Z</time>
      </trkpt>
      <trkpt lat="36.8759617209" lon="-2.0322992094">
        <ele>126.07</ele>
        <time>2018-11-06T08:46:39Z</time>
      </trkpt>
      <trkpt lat="36.8761251681" lon="-2.0323330723">
        <ele>127.03</ele>
        <time>2018-11-06T08:46:49Z</time>
      </trkpt>
      <trkpt lat="36.8763224781" lon="-2.0323423762">
        <ele>127.99</ele>
        <time>2018-11-06T08:46:58Z</time>
      </trkpt>
      <trkpt lat="36.8765624519" lon="-2.0322976168">
        <ele>128.47</ele>
        <time>2018-11-06T08:47:09Z</time>
      </trkpt>
      <trkpt lat="36.8767426629" lon="-2.0322510134">
        <ele>128.95</ele>
        <time>2018-11-06T08:47:16Z</time>
      </trkpt>
      <trkpt lat="36.8769649509" lon="-2.0321861375">
        <ele>130.40</ele>
        <time>2018-11-06T08:47:24Z</time>
      </trkpt>
      <trkpt lat="36.8771888316" lon="-2.0321101975">
        <ele>130.40</ele>
        <time>2018-11-06T08:47:32Z</time>
      </trkpt>
      <trkpt lat="36.8773967028" lon="-2.0320455730">
        <ele>130.88</ele>
        <time>2018-11-06T08:47:40Z</time>
      </trkpt>
      <trkpt lat="36.8776618224" lon="-2.0319761708">
        <ele>130.88</ele>
        <time>2018-11-06T08:47:49Z</time>
      </trkpt>
      <trkpt lat="36.8779209070" lon="-2.0319068525">
        <ele>131.84</ele>
        <time>2018-11-06T08:47:58Z</time>
      </trkpt>
      <trkpt lat="36.8782113399" lon="-2.0318389591">
        <ele>133.28</ele>
        <time>2018-11-06T08:48:08Z</time>
      </trkpt>
      <trkpt lat="36.8785337918" lon="-2.0317576546">
        <ele>134.24</ele>
        <time>2018-11-06T08:48:19Z</time>
      </trkpt>
      <trkpt lat="36.8788800482" lon="-2.0317055192">
        <ele>135.68</ele>
        <time>2018-11-06T08:48:31Z</time>
      </trkpt>
      <trkpt lat="36.8791277334" lon="-2.0316924434">
        <ele>136.64</ele>
        <time>2018-11-06T08:48:41Z</time>
      </trkpt>
      <trkpt lat="36.8793828785" lon="-2.0316964667">
        <ele>138.09</ele>
        <time>2018-11-06T08:48:53Z</time>
      </trkpt>
      <trkpt lat="36.8795930129" lon="-2.0317096263">
        <ele>139.53</ele>
        <time>2018-11-06T08:49:03Z</time>
      </trkpt>
      <trkpt lat="36.8797959387" lon="-2.0317276474">
        <ele>140.49</ele>
        <time>2018-11-06T08:49:13Z</time>
      </trkpt>
      <trkpt lat="36.8799901474" lon="-2.0317441598">
        <ele>142.41</ele>
        <time>2018-11-06T08:49:23Z</time>
      </trkpt>
      <trkpt lat="36.8802104238" lon="-2.0317548886">
        <ele>144.34</ele>
        <time>2018-11-06T08:49:35Z</time>
      </trkpt>
      <trkpt lat="36.8804412615" lon="-2.0317810401">
        <ele>146.74</ele>
        <time>2018-11-06T08:49:47Z</time>
      </trkpt>
      <trkpt lat="36.8806166109" lon="-2.0318034198">
        <ele>148.66</ele>
        <time>2018-11-06T08:49:56Z</time>
      </trkpt>
      <trkpt lat="36.8807957321" lon="-2.0318234526">
        <ele>150.58</ele>
        <time>2018-11-06T08:50:06Z</time>
      </trkpt>
      <trkpt lat="36.8809456844" lon="-2.0318480954">
        <ele>152.03</ele>
        <time>2018-11-06T08:50:15Z</time>
      </trkpt>
      <trkpt lat="36.8809674773" lon="-2.0318530407">
        <ele>152.03</ele>
        <time>2018-11-06T08:50:21Z</time>
      </trkpt>
      <trkpt lat="36.8809827324" lon="-2.0318475924">
        <ele>152.03</ele>
        <time>2018-11-06T08:50:32Z</time>
      </trkpt>
      <trkpt lat="36.8810631987" lon="-2.0318731572">
        <ele>152.51</ele>
        <time>2018-11-06T08:50:38Z</time>
      </trkpt>
      <trkpt lat="36.8812316749" lon="-2.0319244545">
        <ele>154.91</ele>
        <time>2018-11-06T08:50:48Z</time>
      </trkpt>
      <trkpt lat="36.8813823815" lon="-2.0320298150">
        <ele>157.79</ele>
        <time>2018-11-06T08:50:58Z</time>
      </trkpt>
      <trkpt lat="36.8814501911" lon="-2.0321117062">
        <ele>158.75</ele>
        <time>2018-11-06T08:51:05Z</time>
      </trkpt>
      <trkpt lat="36.8815189227" lon="-2.0322568808">
        <ele>160.68</ele>
        <time>2018-11-06T08:51:15Z</time>
      </trkpt>
      <trkpt lat="36.8815382011" lon="-2.0323042385">
        <ele>161.16</ele>
        <time>2018-11-06T08:51:19Z</time>
      </trkpt>
      <trkpt lat="36.8815409672" lon="-2.0323201641">
        <ele>161.16</ele>
        <time>2018-11-06T08:51:20Z</time>
      </trkpt>
      <trkpt lat="36.8815612514" lon="-2.0324915741">
        <ele>162.60</ele>
        <time>2018-11-06T08:51:30Z</time>
      </trkpt>
      <trkpt lat="36.8815607484" lon="-2.0325176418">
        <ele>162.60</ele>
        <time>2018-11-06T08:51:36Z</time>
      </trkpt>
      <trkpt lat="36.8815563060" lon="-2.0325388480">
        <ele>162.60</ele>
        <time>2018-11-06T08:51:44Z</time>
      </trkpt>
      <trkpt lat="36.8815507740" lon="-2.0326837711">
        <ele>163.56</ele>
        <time>2018-11-06T08:51:54Z</time>
      </trkpt>
      <trkpt lat="36.8815452419" lon="-2.0327307098">
        <ele>163.56</ele>
        <time>2018-11-06T08:52:01Z</time>
      </trkpt>
      <trkpt lat="36.8815542944" lon="-2.0327061508">
        <ele>163.56</ele>
        <time>2018-11-06T08:52:12Z</time>
      </trkpt>
      <trkpt lat="36.8815593235" lon="-2.0326985233">
        <ele>161.64</ele>
        <time>2018-11-06T08:52:26Z</time>
      </trkpt>
      <trkpt lat="36.8815257959" lon="-2.0327613037">
        <ele>163.08</ele>
        <time>2018-11-06T08:52:35Z</time>
      </trkpt>
      <trkpt lat="36.8814170826" lon="-2.0329082385">
        <ele>163.56</ele>
        <time>2018-11-06T08:52:48Z</time>
      </trkpt>
      <trkpt lat="36.8812183477" lon="-2.0330139343">
        <ele>165.48</ele>
        <time>2018-11-06T08:53:04Z</time>
      </trkpt>
      <trkpt lat="36.8810776994" lon="-2.0330224000">
        <ele>167.41</ele>
        <time>2018-11-06T08:53:15Z</time>
      </trkpt>
      <trkpt lat="36.8810425792" lon="-2.0330147725">
        <ele>167.41</ele>
        <time>2018-11-06T08:53:23Z</time>
      </trkpt>
      <trkpt lat="36.8810455967" lon="-2.0330007747">
        <ele>165.48</ele>
        <time>2018-11-06T08:53:34Z</time>
      </trkpt>
      <trkpt lat="36.8810139969" lon="-2.0330123417">
        <ele>166.45</ele>
        <time>2018-11-06T08:53:47Z</time>
      </trkpt>
      <trkpt lat="36.8809924554" lon="-2.0330080669">
        <ele>166.45</ele>
        <time>2018-11-06T08:54:00Z</time>
      </trkpt>
      <trkpt lat="36.8808085565" lon="-2.0329691749">
        <ele>169.33</ele>
        <time>2018-11-06T08:54:13Z</time>
      </trkpt>
      <trkpt lat="36.8806003500" lon="-2.0329405088">
        <ele>171.25</ele>
        <time>2018-11-06T08:54:28Z</time>
      </trkpt>
      <trkpt lat="36.8804085720" lon="-2.0329230744">
        <ele>173.17</ele>
        <time>2018-11-06T08:54:42Z</time>
      </trkpt>
      <trkpt lat="36.8803884555" lon="-2.0329294447">
        <ele>173.17</ele>
        <time>2018-11-06T08:54:49Z</time>
      </trkpt>
      <trkpt lat="36.8803861924" lon="-2.0329222362">
        <ele>171.73</ele>
        <time>2018-11-06T08:55:04Z</time>
      </trkpt>
      <trkpt lat="36.8803608790" lon="-2.0329276007">
        <ele>172.21</ele>
        <time>2018-11-06T08:55:13Z</time>
      </trkpt>
      <trkpt lat="36.8803580292" lon="-2.0329260919">
        <ele>174.14</ele>
        <time>2018-11-06T08:55:31Z</time>
      </trkpt>
      <trkpt lat="36.8803512398" lon="-2.0329364017">
        <ele>173.66</ele>
        <time>2018-11-06T08:55:49Z</time>
      </trkpt>
      <trkpt lat="36.8802382518" lon="-2.0329421014">
        <ele>174.62</ele>
        <time>2018-11-06T08:55:57Z</time>
      </trkpt>
      <trkpt lat="36.8800938316" lon="-2.0329809096">
        <ele>176.54</ele>
        <time>2018-11-06T08:56:08Z</time>
      </trkpt>
      <trkpt lat="36.8799710367" lon="-2.0330354758">
        <ele>177.98</ele>
        <time>2018-11-06T08:56:18Z</time>
      </trkpt>
      <trkpt lat="36.8798644189" lon="-2.0331264194">
        <ele>178.46</ele>
        <time>2018-11-06T08:56:28Z</time>
      </trkpt>
      <trkpt lat="36.8797688652" lon="-2.0332463644">
        <ele>179.42</ele>
        <time>2018-11-06T08:56:39Z</time>
      </trkpt>
      <trkpt lat="36.8797019776" lon="-2.0333886892">
        <ele>180.87</ele>
        <time>2018-11-06T08:56:50Z</time>
      </trkpt>
      <trkpt lat="36.8796532787" lon="-2.0335502923">
        <ele>183.75</ele>
        <time>2018-11-06T08:57:02Z</time>
      </trkpt>
      <trkpt lat="36.8796334974" lon="-2.0336758532">
        <ele>185.19</ele>
        <time>2018-11-06T08:57:12Z</time>
      </trkpt>
      <trkpt lat="36.8796218466" lon="-2.0338134002">
        <ele>187.11</ele>
        <time>2018-11-06T08:57:23Z</time>
      </trkpt>
      <trkpt lat="36.8796345871" lon="-2.0339420624">
        <ele>188.56</ele>
        <time>2018-11-06T08:57:34Z</time>
      </trkpt>
      <trkpt lat="36.8796375208" lon="-2.0339351054">
        <ele>189.04</ele>
        <time>2018-11-06T08:57:48Z</time>
      </trkpt>
      <trkpt lat="36.8796381075" lon="-2.0339279808">
        <ele>189.52</ele>
        <time>2018-11-06T08:58:05Z</time>
      </trkpt>
      <trkpt lat="36.8796469923" lon="-2.0340031665">
        <ele>190.00</ele>
        <time>2018-11-06T08:58:11Z</time>
      </trkpt>
      <trkpt lat="36.8796735629" lon="-2.0341335051">
        <ele>191.44</ele>
        <time>2018-11-06T08:58:21Z</time>
      </trkpt>
      <trkpt lat="36.8796927575" lon="-2.0341656078">
        <ele>191.44</ele>
        <time>2018-11-06T08:58:27Z</time>
      </trkpt>
      <trkpt lat="36.8796876445" lon="-2.0341721456">
        <ele>191.44</ele>
        <time>2018-11-06T08:58:34Z</time>
      </trkpt>
      <trkpt lat="36.8796849623" lon="-2.0341688767">
        <ele>190.96</ele>
        <time>2018-11-06T08:59:01Z</time>
      </trkpt>
      <trkpt lat="36.8796955235" lon="-2.0341626741">
        <ele>189.52</ele>
        <time>2018-11-06T08:59:19Z</time>
      </trkpt>
      <trkpt lat="36.8796943501" lon="-2.0341665298">
        <ele>189.04</ele>
        <time>2018-11-06T08:59:37Z</time>
      </trkpt>
      <trkpt lat="36.8796921708" lon="-2.0341676194">
        <ele>189.04</ele>
        <time>2018-11-06T08:59:51Z</time>
      </trkpt>
      <trkpt lat="36.8797026481" lon="-2.0342578087">
        <ele>190.00</ele>
        <time>2018-11-06T08:59:59Z</time>
      </trkpt>
      <trkpt lat="36.8797353376" lon="-2.0343810227">
        <ele>191.92</ele>
        <time>2018-11-06T09:00:08Z</time>
      </trkpt>
      <trkpt lat="36.8797676079" lon="-2.0345313102">
        <ele>194.80</ele>
        <time>2018-11-06T09:00:19Z</time>
      </trkpt>
      <trkpt lat="36.8798116129" lon="-2.0347064082">
        <ele>197.69</ele>
        <time>2018-11-06T09:00:31Z</time>
      </trkpt>
      <trkpt lat="36.8798445538" lon="-2.0348732919">
        <ele>198.65</ele>
        <time>2018-11-06T09:00:42Z</time>
      </trkpt>
      <trkpt lat="36.8798966054" lon="-2.0350653213">
        <ele>201.53</ele>
        <time>2018-11-06T09:00:56Z</time>
      </trkpt>
      <trkpt lat="36.8799065799" lon="-2.0350764692">
        <ele>201.05</ele>
        <time>2018-11-06T09:01:02Z</time>
      </trkpt>
      <trkpt lat="36.8799080886" lon="-2.0350783970">
        <ele>201.05</ele>
        <time>2018-11-06T09:01:10Z</time>
      </trkpt>
      <trkpt lat="36.8799142912" lon="-2.0350812469">
        <ele>200.09</ele>
        <time>2018-11-06T09:01:42Z</time>
      </trkpt>
      <trkpt lat="36.8799173087" lon="-2.0350740384">
        <ele>200.57</ele>
        <time>2018-11-06T09:02:08Z</time>
      </trkpt>
      <trkpt lat="36.8799116928" lon="-2.0350673329">
        <ele>201.53</ele>
        <time>2018-11-06T09:02:30Z</time>
      </trkpt>
      <trkpt lat="36.8799091782" lon="-2.0350637287">
        <ele>202.49</ele>
        <time>2018-11-06T09:02:47Z</time>
      </trkpt>
      <trkpt lat="36.8799106032" lon="-2.0350689255">
        <ele>202.01</ele>
        <time>2018-11-06T09:03:03Z</time>
      </trkpt>
      <trkpt lat="36.8799014669" lon="-2.0350712724">
        <ele>202.49</ele>
        <time>2018-11-06T09:03:19Z</time>
      </trkpt>
      <trkpt lat="36.8798948452" lon="-2.0350679196">
        <ele>200.57</ele>
        <time>2018-11-06T09:03:27Z</time>
      </trkpt>
      <trkpt lat="36.8798977789" lon="-2.0351267606">
        <ele>200.57</ele>
        <time>2018-11-06T09:03:35Z</time>
      </trkpt>
      <trkpt lat="36.8799380958" lon="-2.0352705102">
        <ele>202.01</ele>
        <time>2018-11-06T09:03:45Z</time>
      </trkpt>
      <trkpt lat="36.8799800053" lon="-2.0354468655">
        <ele>203.94</ele>
        <time>2018-11-06T09:03:58Z</time>
      </trkpt>
      <trkpt lat="36.8800167181" lon="-2.0355932973">
        <ele>206.34</ele>
        <time>2018-11-06T09:04:09Z</time>
      </trkpt>
      <trkpt lat="36.8800510839" lon="-2.0357178524">
        <ele>207.78</ele>
        <time>2018-11-06T09:04:19Z</time>
      </trkpt>
      <trkpt lat="36.8800960109" lon="-2.0358891785">
        <ele>210.67</ele>
        <time>2018-11-06T09:04:32Z</time>
      </trkpt>
      <trkpt lat="36.8800965976" lon="-2.0358852390">
        <ele>210.67</ele>
        <time>2018-11-06T09:04:45Z</time>
      </trkpt>
      <trkpt lat="36.8801266886" lon="-2.0359734166">
        <ele>211.15</ele>
        <time>2018-11-06T09:04:52Z</time>
      </trkpt>
      <trkpt lat="36.8801537622" lon="-2.0361064374">
        <ele>212.11</ele>
        <time>2018-11-06T09:05:02Z</time>
      </trkpt>
      <trkpt lat="36.8801938277" lon="-2.0362769254">
        <ele>214.99</ele>
        <time>2018-11-06T09:05:15Z</time>
      </trkpt>
      <trkpt lat="36.8802373298" lon="-2.0364438929">
        <ele>216.91</ele>
        <time>2018-11-06T09:05:28Z</time>
      </trkpt>
      <trkpt lat="36.8802527525" lon="-2.0364808571">
        <ele>216.91</ele>
        <time>2018-11-06T09:05:36Z</time>
      </trkpt>
      <trkpt lat="36.8802799936" lon="-2.0365496725">
        <ele>217.40</ele>
        <time>2018-11-06T09:05:44Z</time>
      </trkpt>
      <trkpt lat="36.8803250045" lon="-2.0367287099">
        <ele>219.32</ele>
        <time>2018-11-06T09:05:57Z</time>
      </trkpt>
      <trkpt lat="36.8803389184" lon="-2.0367859583">
        <ele>220.28</ele>
        <time>2018-11-06T09:06:06Z</time>
      </trkpt>
      <trkpt lat="36.8803226575" lon="-2.0367697813">
        <ele>221.72</ele>
        <time>2018-11-06T09:06:22Z</time>
      </trkpt>
      <trkpt lat="36.8803501502" lon="-2.0368558634">
        <ele>222.20</ele>
        <time>2018-11-06T09:06:32Z</time>
      </trkpt>
      <trkpt lat="36.8804037105" lon="-2.0370286983">
        <ele>223.16</ele>
        <time>2018-11-06T09:06:44Z</time>
      </trkpt>
      <trkpt lat="36.8804506492" lon="-2.0372004434">
        <ele>225.09</ele>
        <time>2018-11-06T09:06:56Z</time>
      </trkpt>
      <trkpt lat="36.8804948218" lon="-2.0373644773">
        <ele>226.05</ele>
        <time>2018-11-06T09:07:08Z</time>
      </trkpt>
      <trkpt lat="36.8804889545" lon="-2.0373548381">
        <ele>225.09</ele>
        <time>2018-11-06T09:07:21Z</time>
      </trkpt>
      <trkpt lat="36.8804913014" lon="-2.0373745356">
        <ele>225.09</ele>
        <time>2018-11-06T09:07:33Z</time>
      </trkpt>
      <trkpt lat="36.8805429339" lon="-2.0375620387">
        <ele>227.97</ele>
        <time>2018-11-06T09:07:45Z</time>
      </trkpt>
      <trkpt lat="36.8805848435" lon="-2.0377273299">
        <ele>230.37</ele>
        <time>2018-11-06T09:07:56Z</time>
      </trkpt>
      <trkpt lat="36.8806558382" lon="-2.0379199460">
        <ele>231.81</ele>
        <time>2018-11-06T09:08:09Z</time>
      </trkpt>
      <trkpt lat="36.8807577621" lon="-2.0380955469">
        <ele>231.33</ele>
        <time>2018-11-06T09:08:22Z</time>
      </trkpt>
      <trkpt lat="36.8807621207" lon="-2.0380939543">
        <ele>230.85</ele>
        <time>2018-11-06T09:08:29Z</time>
      </trkpt>
      <trkpt lat="36.8807982467" lon="-2.0381324273">
        <ele>230.37</ele>
        <time>2018-11-06T09:08:41Z</time>
      </trkpt>
      <trkpt lat="36.8809124921" lon="-2.0382827986">
        <ele>231.81</ele>
        <time>2018-11-06T09:08:54Z</time>
      </trkpt>
      <trkpt lat="36.8809258193" lon="-2.0383018255">
        <ele>231.33</ele>
        <time>2018-11-06T09:09:00Z</time>
      </trkpt>
      <trkpt lat="36.8809665553" lon="-2.0383496862">
        <ele>232.30</ele>
        <time>2018-11-06T09:09:06Z</time>
      </trkpt>
      <trkpt lat="36.8811303377" lon="-2.0385226887">
        <ele>234.22</ele>
        <time>2018-11-06T09:09:17Z</time>
      </trkpt>
      <trkpt lat="36.8812722433" lon="-2.0386696234">
        <ele>235.18</ele>
        <time>2018-11-06T09:09:26Z</time>
      </trkpt>
      <trkpt lat="36.8814408034" lon="-2.0388424583">
        <ele>238.06</ele>
        <time>2018-11-06T09:09:37Z</time>
      </trkpt>
      <trkpt lat="36.8815195933" lon="-2.0389134530">
        <ele>238.54</ele>
        <time>2018-11-06T09:09:43Z</time>
      </trkpt>
      <trkpt lat="36.8815312441" lon="-2.0389235951">
        <ele>239.02</ele>
        <time>2018-11-06T09:09:44Z</time>
      </trkpt>
      <trkpt lat="36.8816323299" lon="-2.0390353259">
        <ele>241.43</ele>
        <time>2018-11-06T09:09:53Z</time>
      </trkpt>
      <trkpt lat="36.8816886563" lon="-2.0390971843">
        <ele>242.87</ele>
        <time>2018-11-06T09:10:01Z</time>
      </trkpt>
      <trkpt lat="36.8817324936" lon="-2.0391424466">
        <ele>243.35</ele>
        <time>2018-11-06T09:10:07Z</time>
      </trkpt>
      <trkpt lat="36.8817398697" lon="-2.0391508285">
        <ele>243.35</ele>
        <time>2018-11-06T09:10:08Z</time>
      </trkpt>
      <trkpt lat="36.8817490898" lon="-2.0391588751">
        <ele>243.35</ele>
        <time>2018-11-06T09:10:09Z</time>
      </trkpt>
      <trkpt lat="36.8817575555" lon="-2.0391665027">
        <ele>243.83</ele>
        <time>2018-11-06T09:10:10Z</time>
      </trkpt>
      <trkpt lat="36.8817666918" lon="-2.0391739625">
        <ele>243.83</ele>
        <time>2018-11-06T09:10:11Z</time>
      </trkpt>
      <trkpt lat="36.8817774206" lon="-2.0391841047">
        <ele>243.83</ele>
        <time>2018-11-06T09:10:12Z</time>
      </trkpt>
      <trkpt lat="36.8819158059" lon="-2.0393142756">
        <ele>243.83</ele>
        <time>2018-11-06T09:10:23Z</time>
      </trkpt>
      <trkpt lat="36.8820468988" lon="-2.0394395012">
        <ele>245.75</ele>
        <time>2018-11-06T09:10:32Z</time>
      </trkpt>
      <trkpt lat="36.8822165485" lon="-2.0396013558">
        <ele>248.16</ele>
        <time>2018-11-06T09:10:43Z</time>
      </trkpt>
      <trkpt lat="36.8823880423" lon="-2.0397917926">
        <ele>249.60</ele>
        <time>2018-11-06T09:10:54Z</time>
      </trkpt>
      <trkpt lat="36.8825231586" lon="-2.0399549045">
        <ele>251.04</ele>
        <time>2018-11-06T09:11:03Z</time>
      </trkpt>
      <trkpt lat="36.8826965801" lon="-2.0401932020">
        <ele>253.44</ele>
        <time>2018-11-06T09:11:15Z</time>
      </trkpt>
      <trkpt lat="36.8828074727" lon="-2.0403540507">
        <ele>253.44</ele>
        <time>2018-11-06T09:11:23Z</time>
      </trkpt>
      <trkpt lat="36.8829046190" lon="-2.0405035838">
        <ele>254.89</ele>
        <time>2018-11-06T09:11:32Z</time>
      </trkpt>
      <trkpt lat="36.8829016853" lon="-2.0405047573">
        <ele>254.41</ele>
        <time>2018-11-06T09:11:38Z</time>
      </trkpt>
      <trkpt lat="36.8829078041" lon="-2.0405114628">
        <ele>253.93</ele>
        <time>2018-11-06T09:11:47Z</time>
      </trkpt>
      <trkpt lat="36.8828995898" lon="-2.0405084454">
        <ele>253.93</ele>
        <time>2018-11-06T09:12:07Z</time>
      </trkpt>
      <trkpt lat="36.8828898668" lon="-2.0404803660">
        <ele>253.44</ele>
        <time>2018-11-06T09:12:29Z</time>
      </trkpt>
      <trkpt lat="36.8829013500" lon="-2.0404769294">
        <ele>253.44</ele>
        <time>2018-11-06T09:12:48Z</time>
      </trkpt>
      <trkpt lat="36.8829063792" lon="-2.0404712297">
        <ele>254.89</ele>
        <time>2018-11-06T09:13:04Z</time>
      </trkpt>
      <trkpt lat="36.8828933872" lon="-2.0404687151">
        <ele>255.85</ele>
        <time>2018-11-06T09:13:21Z</time>
      </trkpt>
      <trkpt lat="36.8828929681" lon="-2.0404750854">
        <ele>256.33</ele>
        <time>2018-11-06T09:13:35Z</time>
      </trkpt>
      <trkpt lat="36.8828900345" lon="-2.0404786896">
        <ele>256.81</ele>
        <time>2018-11-06T09:13:48Z</time>
      </trkpt>
      <trkpt lat="36.8828878552" lon="-2.0404723193">
        <ele>257.29</ele>
        <time>2018-11-06T09:14:01Z</time>
      </trkpt>
      <trkpt lat="36.8828748632" lon="-2.0404804498">
        <ele>253.93</ele>
        <time>2018-11-06T09:14:18Z</time>
      </trkpt>
      <trkpt lat="36.8828981649" lon="-2.0404905081">
        <ele>254.89</ele>
        <time>2018-11-06T09:14:30Z</time>
      </trkpt>
      <trkpt lat="36.8828882743" lon="-2.0404852275">
        <ele>254.41</ele>
        <time>2018-11-06T09:14:47Z</time>
      </trkpt>
      <trkpt lat="36.8828969914" lon="-2.0404965430">
        <ele>254.41</ele>
        <time>2018-11-06T09:15:00Z</time>
      </trkpt>
      <trkpt lat="36.8828942254" lon="-2.0404838026">
        <ele>253.93</ele>
        <time>2018-11-06T09:15:12Z</time>
      </trkpt>
      <trkpt lat="36.8828969914" lon="-2.0404812880">
        <ele>255.37</ele>
        <time>2018-11-06T09:15:25Z</time>
      </trkpt>
      <trkpt lat="36.8829050381" lon="-2.0405131392">
        <ele>255.85</ele>
        <time>2018-11-06T09:15:35Z</time>
      </trkpt>
      <trkpt lat="36.8829181977" lon="-2.0405287296">
        <ele>254.89</ele>
        <time>2018-11-06T09:15:43Z</time>
      </trkpt>
      <trkpt lat="36.8829563353" lon="-2.0406122971">
        <ele>255.85</ele>
        <time>2018-11-06T09:15:49Z</time>
      </trkpt>
      <trkpt lat="36.8830196187" lon="-2.0407225192">
        <ele>255.85</ele>
        <time>2018-11-06T09:15:55Z</time>
      </trkpt>
      <trkpt lat="36.8831771147" lon="-2.0409927517">
        <ele>257.29</ele>
        <time>2018-11-06T09:16:04Z</time>
      </trkpt>
      <trkpt lat="36.8833709881" lon="-2.0413280278">
        <ele>257.77</ele>
        <time>2018-11-06T09:16:15Z</time>
      </trkpt>
      <trkpt lat="36.8835032545" lon="-2.0415627211">
        <ele>258.25</ele>
        <time>2018-11-06T09:16:23Z</time>
      </trkpt>
      <trkpt lat="36.8837392051" lon="-2.0419679862">
        <ele>259.69</ele>
        <time>2018-11-06T09:16:35Z</time>
      </trkpt>
      <trkpt lat="36.8839180749" lon="-2.0422845706">
        <ele>260.17</ele>
        <time>2018-11-06T09:16:44Z</time>
      </trkpt>
      <trkpt lat="36.8841455597" lon="-2.0426806994">
        <ele>260.17</ele>
        <time>2018-11-06T09:16:55Z</time>
      </trkpt>
      <trkpt lat="36.8843004573" lon="-2.0429495070">
        <ele>260.65</ele>
        <time>2018-11-06T09:17:03Z</time>
      </trkpt>
      <trkpt lat="36.8845084123" lon="-2.0432256907">
        <ele>260.65</ele>
        <time>2018-11-06T09:17:12Z</time>
      </trkpt>
      <trkpt lat="36.8848053832" lon="-2.0434669219">
        <ele>260.17</ele>
        <time>2018-11-06T09:17:23Z</time>
      </trkpt>
      <trkpt lat="36.8850328680" lon="-2.0435671695">
        <ele>259.69</ele>
        <time>2018-11-06T09:17:31Z</time>
      </trkpt>
      <trkpt lat="36.8859570567" lon="-2.0438747853">
        <ele>253.44</ele>
        <time>2018-11-06T09:18:18Z</time>
      </trkpt>
      <trkpt lat="36.8859311566" lon="-2.0438458677">
        <ele>252.00</ele>
        <time>2018-11-06T09:18:30Z</time>
      </trkpt>
      <trkpt lat="36.8859125488" lon="-2.0439032838">
        <ele>260.65</ele>
        <time>2018-11-06T09:18:49Z</time>
      </trkpt>
      <trkpt lat="36.8859742396" lon="-2.0439191256">
        <ele>260.17</ele>
        <time>2018-11-06T09:18:56Z</time>
      </trkpt>
      <trkpt lat="36.8860778399" lon="-2.0439383201">
        <ele>260.65</ele>
        <time>2018-11-06T09:19:03Z</time>
      </trkpt>
      <trkpt lat="36.8860885687" lon="-2.0439378172">
        <ele>260.65</ele>
        <time>2018-11-06T09:19:08Z</time>
      </trkpt>
      <trkpt lat="36.8860989623" lon="-2.0439360570">
        <ele>260.17</ele>
        <time>2018-11-06T09:19:31Z</time>
      </trkpt>
      <trkpt lat="36.8860954419" lon="-2.0439400803">
        <ele>259.69</ele>
        <time>2018-11-06T09:21:00Z</time>
      </trkpt>
      <trkpt lat="36.8860970344" lon="-2.0439273398">
        <ele>259.21</ele>
        <time>2018-11-06T09:21:25Z</time>
      </trkpt>
      <trkpt lat="36.8860827852" lon="-2.0439168625">
        <ele>260.17</ele>
        <time>2018-11-06T09:21:44Z</time>
      </trkpt>
      <trkpt lat="36.8860873114" lon="-2.0439166110">
        <ele>260.17</ele>
        <time>2018-11-06T09:21:58Z</time>
      </trkpt>
      <trkpt lat="36.8861353397" lon="-2.0439472049">
        <ele>260.65</ele>
        <time>2018-11-06T09:22:07Z</time>
      </trkpt>
      <trkpt lat="36.8863344938" lon="-2.0440182835">
        <ele>259.69</ele>
        <time>2018-11-06T09:22:15Z</time>
      </trkpt>
      <trkpt lat="36.8866380025" lon="-2.0441173576">
        <ele>258.73</ele>
        <time>2018-11-06T09:22:25Z</time>
      </trkpt>
      <trkpt lat="36.8870037887" lon="-2.0441727620">
        <ele>257.77</ele>
        <time>2018-11-06T09:22:36Z</time>
      </trkpt>
      <trkpt lat="36.8874111492" lon="-2.0441862568">
        <ele>257.29</ele>
        <time>2018-11-06T09:22:46Z</time>
      </trkpt>
      <trkpt lat="36.8879314139" lon="-2.0441640448">
        <ele>256.33</ele>
        <time>2018-11-06T09:22:58Z</time>
      </trkpt>
      <trkpt lat="36.8883804325" lon="-2.0441799704">
        <ele>254.41</ele>
        <time>2018-11-06T09:23:07Z</time>
      </trkpt>
      <trkpt lat="36.8888121005" lon="-2.0442754403">
        <ele>252.96</ele>
        <time>2018-11-06T09:23:14Z</time>
      </trkpt>
      <trkpt lat="36.8895755243" lon="-2.0445468463">
        <ele>250.56</ele>
        <time>2018-11-06T09:23:25Z</time>
      </trkpt>
      <trkpt lat="36.8902444839" lon="-2.0448940247">
        <ele>249.12</ele>
        <time>2018-11-06T09:23:35Z</time>
      </trkpt>
      <trkpt lat="36.8909926526" lon="-2.0453158021">
        <ele>247.68</ele>
        <time>2018-11-06T09:23:47Z</time>
      </trkpt>
      <trkpt lat="36.8918900192" lon="-2.0458248351">
        <ele>244.31</ele>
        <time>2018-11-06T09:24:01Z</time>
      </trkpt>
      <trkpt lat="36.8927815184" lon="-2.0463357959">
        <ele>241.43</ele>
        <time>2018-11-06T09:24:14Z</time>
      </trkpt>
      <trkpt lat="36.8934219796" lon="-2.0467058569">
        <ele>239.51</ele>
        <time>2018-11-06T09:24:24Z</time>
      </trkpt>
      <trkpt lat="36.8939127401" lon="-2.0469866507">
        <ele>238.54</ele>
        <time>2018-11-06T09:24:33Z</time>
      </trkpt>
      <trkpt lat="36.8944163248" lon="-2.0472712163">
        <ele>238.06</ele>
        <time>2018-11-06T09:24:44Z</time>
      </trkpt>
      <trkpt lat="36.8945464119" lon="-2.0473418757">
        <ele>237.58</ele>
        <time>2018-11-06T09:24:47Z</time>
      </trkpt>
      <trkpt lat="36.8945865612" lon="-2.0473659318">
        <ele>237.58</ele>
        <time>2018-11-06T09:24:48Z</time>
      </trkpt>
      <trkpt lat="36.8950132001" lon="-2.0476019662">
        <ele>237.10</ele>
        <time>2018-11-06T09:24:59Z</time>
      </trkpt>
      <trkpt lat="36.8953810818" lon="-2.0478086639">
        <ele>237.58</ele>
        <time>2018-11-06T09:25:08Z</time>
      </trkpt>
      <trkpt lat="36.8958264124" lon="-2.0480544213">
        <ele>238.54</ele>
        <time>2018-11-06T09:25:19Z</time>
      </trkpt>
      <trkpt lat="36.8962149136" lon="-2.0482730214">
        <ele>239.02</ele>
        <time>2018-11-06T09:25:30Z</time>
      </trkpt>
      <trkpt lat="36.8965242058" lon="-2.0484445989">
        <ele>240.47</ele>
        <time>2018-11-06T09:25:40Z</time>
      </trkpt>
      <trkpt lat="36.8967672810" lon="-2.0485874265">
        <ele>241.91</ele>
        <time>2018-11-06T09:25:50Z</time>
      </trkpt>
      <trkpt lat="36.8970215879" lon="-2.0487332717">
        <ele>243.83</ele>
        <time>2018-11-06T09:26:01Z</time>
      </trkpt>
      <trkpt lat="36.8972449657" lon="-2.0488687232">
        <ele>244.79</ele>
        <time>2018-11-06T09:26:11Z</time>
      </trkpt>
      <trkpt lat="36.8974636495" lon="-2.0489900932">
        <ele>246.23</ele>
        <time>2018-11-06T09:26:21Z</time>
      </trkpt>
      <trkpt lat="36.8976952415" lon="-2.0491061825">
        <ele>246.72</ele>
        <time>2018-11-06T09:26:29Z</time>
      </trkpt>
      <trkpt lat="36.8979469500" lon="-2.0492330007">
        <ele>248.16</ele>
        <time>2018-11-06T09:26:39Z</time>
      </trkpt>
      <trkpt lat="36.8982191943" lon="-2.0493120421">
        <ele>248.64</ele>
        <time>2018-11-06T09:26:49Z</time>
      </trkpt>
      <trkpt lat="36.8985644449" lon="-2.0493655186">
        <ele>248.64</ele>
        <time>2018-11-06T09:27:00Z</time>
      </trkpt>
      <trkpt lat="36.8988644332" lon="-2.0493785944">
        <ele>247.20</ele>
        <time>2018-11-06T09:27:07Z</time>
      </trkpt>
      <trkpt lat="36.8994182255" lon="-2.0493835397">
        <ele>244.79</ele>
        <time>2018-11-06T09:27:17Z</time>
      </trkpt>
      <trkpt lat="36.9001183659" lon="-2.0493852161">
        <ele>241.91</ele>
        <time>2018-11-06T09:27:28Z</time>
      </trkpt>
      <trkpt lat="36.9008693844" lon="-2.0493828692">
        <ele>238.54</ele>
        <time>2018-11-06T09:27:39Z</time>
      </trkpt>
      <trkpt lat="36.9016328920" lon="-2.0493825339">
        <ele>235.18</ele>
        <time>2018-11-06T09:27:49Z</time>
      </trkpt>
      <trkpt lat="36.9020625483" lon="-2.0493852161">
        <ele>233.26</ele>
        <time>2018-11-06T09:27:55Z</time>
      </trkpt>
      <trkpt lat="36.9028153270" lon="-2.0493788458">
        <ele>231.81</ele>
        <time>2018-11-06T09:28:05Z</time>
      </trkpt>
      <trkpt lat="36.9035810139" lon="-2.0494414587">
        <ele>228.93</ele>
        <time>2018-11-06T09:28:14Z</time>
      </trkpt>
      <trkpt lat="36.9044160191" lon="-2.0497173909">
        <ele>225.57</ele>
        <time>2018-11-06T09:28:23Z</time>
      </trkpt>
      <trkpt lat="36.9049674645" lon="-2.0500256773">
        <ele>222.20</ele>
        <time>2018-11-06T09:28:29Z</time>
      </trkpt>
      <trkpt lat="36.9054203387" lon="-2.0504979976">
        <ele>219.80</ele>
        <time>2018-11-06T09:28:35Z</time>
      </trkpt>
      <trkpt lat="36.9060180523" lon="-2.0512010716">
        <ele>218.36</ele>
        <time>2018-11-06T09:28:44Z</time>
      </trkpt>
      <trkpt lat="36.9065312762" lon="-2.0518061612">
        <ele>216.43</ele>
        <time>2018-11-06T09:28:53Z</time>
      </trkpt>
      <trkpt lat="36.9070817158" lon="-2.0524657331">
        <ele>214.51</ele>
        <time>2018-11-06T09:29:03Z</time>
      </trkpt>
      <trkpt lat="36.9076731429" lon="-2.0531604253">
        <ele>212.11</ele>
        <time>2018-11-06T09:29:15Z</time>
      </trkpt>
      <trkpt lat="36.9080741331" lon="-2.0536241960">
        <ele>210.67</ele>
        <time>2018-11-06T09:29:24Z</time>
      </trkpt>
      <trkpt lat="36.9085169490" lon="-2.0542092528">
        <ele>209.22</ele>
        <time>2018-11-06T09:29:34Z</time>
      </trkpt>
      <trkpt lat="36.9087465294" lon="-2.0547536574">
        <ele>208.26</ele>
        <time>2018-11-06T09:29:42Z</time>
      </trkpt>
      <trkpt lat="36.9089129940" lon="-2.0554160792">
        <ele>206.82</ele>
        <time>2018-11-06T09:29:52Z</time>
      </trkpt>
      <trkpt lat="36.9089923706" lon="-2.0558635890">
        <ele>206.34</ele>
        <time>2018-11-06T09:30:00Z</time>
      </trkpt>
      <trkpt lat="36.9090559054" lon="-2.0565726981">
        <ele>205.86</ele>
        <time>2018-11-06T09:30:12Z</time>
      </trkpt>
      <trkpt lat="36.9090891816" lon="-2.0570999198">
        <ele>205.86</ele>
        <time>2018-11-06T09:30:21Z</time>
      </trkpt>
      <trkpt lat="36.9090998266" lon="-2.0576640218">
        <ele>204.90</ele>
        <time>2018-11-06T09:30:31Z</time>
      </trkpt>
      <trkpt lat="36.9090678077" lon="-2.0581904054">
        <ele>202.98</ele>
        <time>2018-11-06T09:30:40Z</time>
      </trkpt>
      <trkpt lat="36.9090008363" lon="-2.0589118358">
        <ele>200.09</ele>
        <time>2018-11-06T09:30:50Z</time>
      </trkpt>
      <trkpt lat="36.9089471921" lon="-2.0595557336">
        <ele>198.17</ele>
        <time>2018-11-06T09:30:59Z</time>
      </trkpt>
      <trkpt lat="36.9089438394" lon="-2.0602040738">
        <ele>197.69</ele>
        <time>2018-11-06T09:31:09Z</time>
      </trkpt>
      <trkpt lat="36.9089535624" lon="-2.0602671895">
        <ele>197.69</ele>
        <time>2018-11-06T09:31:10Z</time>
      </trkpt>
      <trkpt lat="36.9089683983" lon="-2.0603309758">
        <ele>197.21</ele>
        <time>2018-11-06T09:31:11Z</time>
      </trkpt>
      <trkpt lat="36.9089891855" lon="-2.0603973605">
        <ele>197.21</ele>
        <time>2018-11-06T09:31:12Z</time>
      </trkpt>
      <trkpt lat="36.9090142474" lon="-2.0604605600">
        <ele>197.21</ele>
        <time>2018-11-06T09:31:13Z</time>
      </trkpt>
      <trkpt lat="36.9090452604" lon="-2.0605234243">
        <ele>196.73</ele>
        <time>2018-11-06T09:31:14Z</time>
      </trkpt>
      <trkpt lat="36.9090778660" lon="-2.0605815947">
        <ele>196.73</ele>
        <time>2018-11-06T09:31:15Z</time>
      </trkpt>
      <trkpt lat="36.9091144111" lon="-2.0606385078">
        <ele>196.73</ele>
        <time>2018-11-06T09:31:16Z</time>
      </trkpt>
      <trkpt lat="36.9091511238" lon="-2.0606906433">
        <ele>196.73</ele>
        <time>2018-11-06T09:31:17Z</time>
      </trkpt>
      <trkpt lat="36.9094667025" lon="-2.0610278472">
        <ele>196.73</ele>
        <time>2018-11-06T09:31:25Z</time>
      </trkpt>
      <trkpt lat="36.9096541218" lon="-2.0612151828">
        <ele>196.73</ele>
        <time>2018-11-06T09:31:30Z</time>
      </trkpt>
      <trkpt lat="36.9096902478" lon="-2.0612477046">
        <ele>196.73</ele>
        <time>2018-11-06T09:31:31Z</time>
      </trkpt>
      <trkpt lat="36.9100308046" lon="-2.0616648719">
        <ele>196.25</ele>
        <time>2018-11-06T09:31:41Z</time>
      </trkpt>
      <trkpt lat="36.9103651587" lon="-2.0621337555">
        <ele>194.80</ele>
        <time>2018-11-06T09:31:50Z</time>
      </trkpt>
      <trkpt lat="36.9106638059" lon="-2.0626823511">
        <ele>191.92</ele>
        <time>2018-11-06T09:31:58Z</time>
      </trkpt>
      <trkpt lat="36.9109065458" lon="-2.0631394163">
        <ele>190.48</ele>
        <time>2018-11-06T09:32:04Z</time>
      </trkpt>
      <trkpt lat="36.9109594356" lon="-2.0631898753">
        <ele>190.48</ele>
        <time>2018-11-06T09:32:05Z</time>
      </trkpt>
      <trkpt lat="36.9110246468" lon="-2.0632385742">
        <ele>190.48</ele>
        <time>2018-11-06T09:32:06Z</time>
      </trkpt>
      <trkpt lat="36.9115150720" lon="-2.0635348745">
        <ele>190.00</ele>
        <time>2018-11-06T09:32:15Z</time>
      </trkpt>
      <trkpt lat="36.9116535410" lon="-2.0636375528">
        <ele>190.00</ele>
        <time>2018-11-06T09:32:18Z</time>
      </trkpt>
      <trkpt lat="36.9119333290" lon="-2.0639775228">
        <ele>189.52</ele>
        <time>2018-11-06T09:32:26Z</time>
      </trkpt>
      <trkpt lat="36.9122296292" lon="-2.0644353423">
        <ele>189.04</ele>
        <time>2018-11-06T09:32:36Z</time>
      </trkpt>
      <trkpt lat="36.9125528354" lon="-2.0648221672">
        <ele>187.11</ele>
        <time>2018-11-06T09:32:44Z</time>
      </trkpt>
      <trkpt lat="36.9127746206" lon="-2.0650324691">
        <ele>186.15</ele>
        <time>2018-11-06T09:32:48Z</time>
      </trkpt>
      <trkpt lat="36.9128425140" lon="-2.0650737081">
        <ele>186.15</ele>
        <time>2018-11-06T09:32:49Z</time>
      </trkpt>
      <trkpt lat="36.9128933083" lon="-2.0650963392">
        <ele>186.15</ele>
        <time>2018-11-06T09:32:50Z</time>
      </trkpt>
      <trkpt lat="36.9129591063" lon="-2.0651172940">
        <ele>186.15</ele>
        <time>2018-11-06T09:32:51Z</time>
      </trkpt>
      <trkpt lat="36.9130232278" lon="-2.0651334710">
        <ele>185.67</ele>
        <time>2018-11-06T09:32:52Z</time>
      </trkpt>
      <trkpt lat="36.9130948093" lon="-2.0651472174">
        <ele>185.67</ele>
        <time>2018-11-06T09:32:53Z</time>
      </trkpt>
      <trkpt lat="36.9135888387" lon="-2.0651918091">
        <ele>186.15</ele>
        <time>2018-11-06T09:33:01Z</time>
      </trkpt>
      <trkpt lat="36.9140355941" lon="-2.0651819184">
        <ele>186.15</ele>
        <time>2018-11-06T09:33:10Z</time>
      </trkpt>
      <trkpt lat="36.9146281946" lon="-2.0650910586">
        <ele>186.63</ele>
        <time>2018-11-06T09:33:21Z</time>
      </trkpt>
      <trkpt lat="36.9150595274" lon="-2.0650037192">
        <ele>186.15</ele>
        <time>2018-11-06T09:33:30Z</time>
      </trkpt>
      <trkpt lat="36.9155798759" lon="-2.0648923237">
        <ele>185.67</ele>
        <time>2018-11-06T09:33:41Z</time>
      </trkpt>
      <trkpt lat="36.9161677826" lon="-2.0647795033">
        <ele>184.71</ele>
        <time>2018-11-06T09:33:53Z</time>
      </trkpt>
      <trkpt lat="36.9167508278" lon="-2.0646309759">
        <ele>184.23</ele>
        <time>2018-11-06T09:34:05Z</time>
      </trkpt>
      <trkpt lat="36.9173746929" lon="-2.0644517709">
        <ele>183.27</ele>
        <time>2018-11-06T09:34:18Z</time>
      </trkpt>
      <trkpt lat="36.9178359490" lon="-2.0643452369">
        <ele>182.31</ele>
        <time>2018-11-06T09:34:27Z</time>
      </trkpt>
      <trkpt lat="36.9183171540" lon="-2.0641439874">
        <ele>181.35</ele>
        <time>2018-11-06T09:34:36Z</time>
      </trkpt>
      <trkpt lat="36.9187676813" lon="-2.0640561450">
        <ele>180.38</ele>
        <time>2018-11-06T09:34:44Z</time>
      </trkpt>
      <trkpt lat="36.9192668237" lon="-2.0639986452">
        <ele>179.42</ele>
        <time>2018-11-06T09:34:53Z</time>
      </trkpt>
      <trkpt lat="36.9193239044" lon="-2.0639805403">
        <ele>179.42</ele>
        <time>2018-11-06T09:34:54Z</time>
      </trkpt>
      <trkpt lat="36.9198003318" lon="-2.0637906902">
        <ele>179.42</ele>
        <time>2018-11-06T09:35:03Z</time>
      </trkpt>
      <trkpt lat="36.9202844705" lon="-2.0637382194">
        <ele>178.46</ele>
        <time>2018-11-06T09:35:12Z</time>
      </trkpt>
      <trkpt lat="36.9203935191" lon="-2.0637310110">
        <ele>178.46</ele>
        <time>2018-11-06T09:35:14Z</time>
      </trkpt>
      <trkpt lat="36.9208793342" lon="-2.0635976549">
        <ele>179.90</ele>
        <time>2018-11-06T09:35:23Z</time>
      </trkpt>
      <trkpt lat="36.9213072304" lon="-2.0633886103">
        <ele>180.38</ele>
        <time>2018-11-06T09:35:32Z</time>
      </trkpt>
      <trkpt lat="36.9213483855" lon="-2.0633593574">
        <ele>180.38</ele>
        <time>2018-11-06T09:35:33Z</time>
      </trkpt>
      <trkpt lat="36.9217738509" lon="-2.0629929844">
        <ele>180.38</ele>
        <time>2018-11-06T09:35:43Z</time>
      </trkpt>
      <trkpt lat="36.9218162633" lon="-2.0629482251">
        <ele>180.38</ele>
        <time>2018-11-06T09:35:44Z</time>
      </trkpt>
      <trkpt lat="36.9221280701" lon="-2.0625151321">
        <ele>180.38</ele>
        <time>2018-11-06T09:35:53Z</time>
      </trkpt>
      <trkpt lat="36.9222762622" lon="-2.0623072609">
        <ele>180.38</ele>
        <time>2018-11-06T09:35:57Z</time>
      </trkpt>
      <trkpt lat="36.9223147351" lon="-2.0622714702">
        <ele>180.38</ele>
        <time>2018-11-06T09:35:58Z</time>
      </trkpt>
      <trkpt lat="36.9226922560" lon="-2.0620128047">
        <ele>180.38</ele>
        <time>2018-11-06T09:36:06Z</time>
      </trkpt>
      <trkpt lat="36.9230846129" lon="-2.0617520437">
        <ele>179.42</ele>
        <time>2018-11-06T09:36:15Z</time>
      </trkpt>
      <trkpt lat="36.9233295321" lon="-2.0614043623">
        <ele>177.50</ele>
        <time>2018-11-06T09:36:22Z</time>
      </trkpt>
      <trkpt lat="36.9234595355" lon="-2.0611559227">
        <ele>174.62</ele>
        <time>2018-11-06T09:36:25Z</time>
      </trkpt>
      <trkpt lat="36.9234883692" lon="-2.0610465389">
        <ele>174.14</ele>
        <time>2018-11-06T09:36:26Z</time>
      </trkpt>
      <trkpt lat="36.9235131796" lon="-2.0609389152">
        <ele>174.14</ele>
        <time>2018-11-06T09:36:27Z</time>
      </trkpt>
      <trkpt lat="36.9235439412" lon="-2.0608496480">
        <ele>175.10</ele>
        <time>2018-11-06T09:36:28Z</time>
      </trkpt>
      <trkpt lat="36.9235772174" lon="-2.0607758872">
        <ele>175.58</ele>
        <time>2018-11-06T09:36:29Z</time>
      </trkpt>
      <trkpt lat="36.9236185402" lon="-2.0607096702">
        <ele>176.06</ele>
        <time>2018-11-06T09:36:30Z</time>
      </trkpt>
      <trkpt lat="36.9236554205" lon="-2.0606616419">
        <ele>176.54</ele>
        <time>2018-11-06T09:36:31Z</time>
      </trkpt>
      <trkpt lat="36.9236940611" lon="-2.0606194809">
        <ele>177.02</ele>
        <time>2018-11-06T09:36:32Z</time>
      </trkpt>
      <trkpt lat="36.9237339590" lon="-2.0605764817">
        <ele>177.50</ele>
        <time>2018-11-06T09:36:33Z</time>
      </trkpt>
      <trkpt lat="36.9237692468" lon="-2.0605387632">
        <ele>177.50</ele>
        <time>2018-11-06T09:36:34Z</time>
      </trkpt>
      <trkpt lat="36.9238023553" lon="-2.0605048165">
        <ele>177.98</ele>
        <time>2018-11-06T09:36:35Z</time>
      </trkpt>
      <trkpt lat="36.9239742681" lon="-2.0603203308">
        <ele>179.42</ele>
        <time>2018-11-06T09:36:40Z</time>
      </trkpt>
      <trkpt lat="36.9242146611" lon="-2.0599735714">
        <ele>181.35</ele>
        <time>2018-11-06T09:36:47Z</time>
      </trkpt>
      <trkpt lat="36.9242667966" lon="-2.0598684624">
        <ele>181.35</ele>
        <time>2018-11-06T09:36:49Z</time>
      </trkpt>
      <trkpt lat="36.9243700616" lon="-2.0595532190">
        <ele>182.79</ele>
        <time>2018-11-06T09:36:56Z</time>
      </trkpt>
      <trkpt lat="36.9244222809" lon="-2.0591635443">
        <ele>183.27</ele>
        <time>2018-11-06T09:37:05Z</time>
      </trkpt>
      <trkpt lat="36.9244226161" lon="-2.0588317048">
        <ele>183.27</ele>
        <time>2018-11-06T09:37:13Z</time>
      </trkpt>
      <trkpt lat="36.9244176708" lon="-2.0584401023">
        <ele>184.23</ele>
        <time>2018-11-06T09:37:23Z</time>
      </trkpt>
      <trkpt lat="36.9244957063" lon="-2.0579879824">
        <ele>185.19</ele>
        <time>2018-11-06T09:37:34Z</time>
      </trkpt>
      <trkpt lat="36.9245588221" lon="-2.0575740002">
        <ele>186.63</ele>
        <time>2018-11-06T09:37:44Z</time>
      </trkpt>
      <trkpt lat="36.9245906733" lon="-2.0571441762">
        <ele>187.11</ele>
        <time>2018-11-06T09:37:55Z</time>
      </trkpt>
      <trkpt lat="36.9246373605" lon="-2.0568994246">
        <ele>188.56</ele>
        <time>2018-11-06T09:38:02Z</time>
      </trkpt>
      <trkpt lat="36.9247179106" lon="-2.0566218160">
        <ele>189.52</ele>
        <time>2018-11-06T09:38:11Z</time>
      </trkpt>
      <trkpt lat="36.9248076808" lon="-2.0563035551">
        <ele>191.44</ele>
        <time>2018-11-06T09:38:21Z</time>
      </trkpt>
      <trkpt lat="36.9249023963" lon="-2.0559184067">
        <ele>193.36</ele>
        <time>2018-11-06T09:38:32Z</time>
      </trkpt>
      <trkpt lat="36.9249956030" lon="-2.0556148142">
        <ele>193.36</ele>
        <time>2018-11-06T09:38:41Z</time>
      </trkpt>
      <trkpt lat="36.9251147099" lon="-2.0552482735">
        <ele>194.32</ele>
        <time>2018-11-06T09:38:51Z</time>
      </trkpt>
      <trkpt lat="36.9252312183" lon="-2.0549434237">
        <ele>194.80</ele>
        <time>2018-11-06T09:39:00Z</time>
      </trkpt>
      <trkpt lat="36.9254190568" lon="-2.0545336325">
        <ele>195.77</ele>
        <time>2018-11-06T09:39:12Z</time>
      </trkpt>
      <trkpt lat="36.9255709369" lon="-2.0542460494">
        <ele>195.77</ele>
        <time>2018-11-06T09:39:21Z</time>
      </trkpt>
      <trkpt lat="36.9257500581" lon="-2.0539759006">
        <ele>196.25</ele>
        <time>2018-11-06T09:39:31Z</time>
      </trkpt>
      <trkpt lat="36.9258591905" lon="-2.0538194105">
        <ele>196.25</ele>
        <time>2018-11-06T09:39:38Z</time>
      </trkpt>
      <trkpt lat="36.9260248169" lon="-2.0536079351">
        <ele>196.25</ele>
        <time>2018-11-06T09:39:45Z</time>
      </trkpt>
      <trkpt lat="36.9263053592" lon="-2.0532765985">
        <ele>196.25</ele>
        <time>2018-11-06T09:39:56Z</time>
      </trkpt>
      <trkpt lat="36.9265071955" lon="-2.0530876704">
        <ele>196.73</ele>
        <time>2018-11-06T09:40:04Z</time>
      </trkpt>
      <trkpt lat="36.9265589118" lon="-2.0529730897">
        <ele>196.73</ele>
        <time>2018-11-06T09:40:11Z</time>
      </trkpt>
      <trkpt lat="36.9265600014" lon="-2.0529778674">
        <ele>196.25</ele>
        <time>2018-11-06T09:40:22Z</time>
      </trkpt>
      <trkpt lat="36.9265549723" lon="-2.0529828127">
        <ele>196.25</ele>
        <time>2018-11-06T09:40:35Z</time>
      </trkpt>
      <trkpt lat="36.9265615940" lon="-2.0529865846">
        <ele>197.21</ele>
        <time>2018-11-06T09:40:48Z</time>
      </trkpt>
      <trkpt lat="36.9265578222" lon="-2.0529879257">
        <ele>197.69</ele>
        <time>2018-11-06T09:41:01Z</time>
      </trkpt>
      <trkpt lat="36.9265600014" lon="-2.0529826451">
        <ele>198.65</ele>
        <time>2018-11-06T09:41:17Z</time>
      </trkpt>
      <trkpt lat="36.9265574031" lon="-2.0529776998">
        <ele>197.69</ele>
        <time>2018-11-06T09:41:36Z</time>
      </trkpt>
      <trkpt lat="36.9265542179" lon="-2.0529779512">
        <ele>197.69</ele>
        <time>2018-11-06T09:41:58Z</time>
      </trkpt>
      <trkpt lat="36.9265563134" lon="-2.0529799629">
        <ele>197.21</ele>
        <time>2018-11-06T09:42:18Z</time>
      </trkpt>
      <trkpt lat="36.9265574031" lon="-2.0529797953">
        <ele>197.69</ele>
        <time>2018-11-06T09:42:48Z</time>
      </trkpt>
      <trkpt lat="36.9265553076" lon="-2.0529763587">
        <ele>197.69</ele>
        <time>2018-11-06T09:43:17Z</time>
      </trkpt>
      <trkpt lat="36.9265619293" lon="-2.0529787894">
        <ele>197.21</ele>
        <time>2018-11-06T09:43:37Z</time>
      </trkpt>
      <trkpt lat="36.9265629351" lon="-2.0529779512">
        <ele>197.21</ele>
        <time>2018-11-06T09:44:04Z</time>
      </trkpt>
      <trkpt lat="36.9265614264" lon="-2.0529792085">
        <ele>196.73</ele>
        <time>2018-11-06T09:44:24Z</time>
      </trkpt>
      <trkpt lat="36.9265641924" lon="-2.0529783703">
        <ele>196.73</ele>
        <time>2018-11-06T09:44:45Z</time>
      </trkpt>
      <trkpt lat="36.9265618455" lon="-2.0529794600">
        <ele>196.73</ele>
        <time>2018-11-06T09:45:04Z</time>
      </trkpt>
      <trkpt lat="36.9265631866" lon="-2.0529776160">
        <ele>195.77</ele>
        <time>2018-11-06T09:45:25Z</time>
      </trkpt>
      <trkpt lat="36.9265569840" lon="-2.0529826451">
        <ele>196.25</ele>
        <time>2018-11-06T09:45:44Z</time>
      </trkpt>
      <trkpt lat="36.9265574031" lon="-2.0529806335">
        <ele>195.77</ele>
        <time>2018-11-06T09:46:02Z</time>
      </trkpt>
      <trkpt lat="36.9265607558" lon="-2.0529789571">
        <ele>196.25</ele>
        <time>2018-11-06T09:46:22Z</time>
      </trkpt>
      <trkpt lat="36.9265607558" lon="-2.0529777836">
        <ele>196.73</ele>
        <time>2018-11-06T09:46:39Z</time>
      </trkpt>
      <trkpt lat="36.9265609235" lon="-2.0529771969">
        <ele>196.25</ele>
        <time>2018-11-06T09:46:56Z</time>
      </trkpt>
      <trkpt lat="36.9265639409" lon="-2.0529711619">
        <ele>196.25</ele>
        <time>2018-11-06T09:47:11Z</time>
      </trkpt>
      <trkpt lat="36.9265630189" lon="-2.0529792923">
        <ele>196.25</ele>
        <time>2018-11-06T09:47:30Z</time>
      </trkpt>
      <trkpt lat="36.9265592471" lon="-2.0529773645">
        <ele>195.77</ele>
        <time>2018-11-06T09:47:49Z</time>
      </trkpt>
      <trkpt lat="36.9265600014" lon="-2.0529807173">
        <ele>195.28</ele>
        <time>2018-11-06T09:48:12Z</time>
      </trkpt>
      <trkpt lat="36.9265621807" lon="-2.0529783703">
        <ele>195.77</ele>
        <time>2018-11-06T09:48:30Z</time>
      </trkpt>
      <trkpt lat="36.9265589956" lon="-2.0529761072">
        <ele>195.28</ele>
        <time>2018-11-06T09:48:50Z</time>
      </trkpt>
      <trkpt lat="36.9265587442" lon="-2.0529777836">
        <ele>195.77</ele>
        <time>2018-11-06T09:49:07Z</time>
      </trkpt>
      <trkpt lat="36.9265530445" lon="-2.0529797953">
        <ele>196.25</ele>
        <time>2018-11-06T09:49:26Z</time>
      </trkpt>
      <trkpt lat="36.9265507814" lon="-2.0529773645">
        <ele>195.77</ele>
        <time>2018-11-06T09:49:48Z</time>
      </trkpt>
      <trkpt lat="36.9265506975" lon="-2.0529732574">
        <ele>196.25</ele>
        <time>2018-11-06T09:50:08Z</time>
      </trkpt>
      <trkpt lat="36.9265455008" lon="-2.0529792085">
        <ele>197.21</ele>
        <time>2018-11-06T09:50:27Z</time>
      </trkpt>
      <trkpt lat="36.9265391305" lon="-2.0529776998">
        <ele>196.73</ele>
        <time>2018-11-06T09:50:48Z</time>
      </trkpt>
      <trkpt lat="36.9265459199" lon="-2.0529840700">
        <ele>196.73</ele>
        <time>2018-11-06T09:51:06Z</time>
      </trkpt>
      <trkpt lat="36.9265565649" lon="-2.0529787056">
        <ele>196.25</ele>
        <time>2018-11-06T09:51:24Z</time>
      </trkpt>
      <trkpt lat="36.9265546370" lon="-2.0529813040">
        <ele>196.73</ele>
        <time>2018-11-06T09:51:40Z</time>
      </trkpt>
      <trkpt lat="36.9265483506" lon="-2.0529843215">
        <ele>196.73</ele>
        <time>2018-11-06T09:52:00Z</time>
      </trkpt>
      <trkpt lat="36.9265493564" lon="-2.0529814716">
        <ele>197.21</ele>
        <time>2018-11-06T09:52:23Z</time>
      </trkpt>
      <trkpt lat="36.9265543856" lon="-2.0529833995">
        <ele>197.21</ele>
        <time>2018-11-06T09:52:42Z</time>
      </trkpt>
      <trkpt lat="36.9265524577" lon="-2.0529922843">
        <ele>196.73</ele>
        <time>2018-11-06T09:52:51Z</time>
      </trkpt>
      <trkpt lat="36.9265665393" lon="-2.0530290809">
        <ele>197.21</ele>
        <time>2018-11-06T09:53:04Z</time>
      </trkpt>
      <trkpt lat="36.9265979715" lon="-2.0530469343">
        <ele>197.21</ele>
        <time>2018-11-06T09:53:11Z</time>
      </trkpt>
      <trkpt lat="36.9265936967" lon="-2.0530393906">
        <ele>197.21</ele>
        <time>2018-11-06T09:53:22Z</time>
      </trkpt>
      <trkpt lat="36.9266105443" lon="-2.0530373789">
        <ele>197.21</ele>
        <time>2018-11-06T09:53:27Z</time>
      </trkpt>
      <trkpt lat="36.9266222790" lon="-2.0530302543">
        <ele>197.21</ele>
        <time>2018-11-06T09:53:28Z</time>
      </trkpt>
      <trkpt lat="36.9267419726" lon="-2.0529580861">
        <ele>196.73</ele>
        <time>2018-11-06T09:53:35Z</time>
      </trkpt>
      <trkpt lat="36.9270159770" lon="-2.0528024342">
        <ele>195.77</ele>
        <time>2018-11-06T09:53:44Z</time>
      </trkpt>
      <trkpt lat="36.9273313880" lon="-2.0525337942">
        <ele>195.28</ele>
        <time>2018-11-06T09:53:54Z</time>
      </trkpt>
      <trkpt lat="36.9274794962" lon="-2.0523712691">
        <ele>195.28</ele>
        <time>2018-11-06T09:53:59Z</time>
      </trkpt>
      <trkpt lat="36.9277541712" lon="-2.0520559419">
        <ele>195.28</ele>
        <time>2018-11-06T09:54:08Z</time>
      </trkpt>
      <trkpt lat="36.9280824065" lon="-2.0517184865">
        <ele>194.32</ele>
        <time>2018-11-06T09:54:18Z</time>
      </trkpt>
      <trkpt lat="36.9285216182" lon="-2.0513110422">
        <ele>192.88</ele>
        <time>2018-11-06T09:54:29Z</time>
      </trkpt>
      <trkpt lat="36.9286630210" lon="-2.0510999858">
        <ele>192.88</ele>
        <time>2018-11-06T09:54:33Z</time>
      </trkpt>
      <trkpt lat="36.9286911841" lon="-2.0510367025">
        <ele>192.40</ele>
        <time>2018-11-06T09:54:34Z</time>
      </trkpt>
      <trkpt lat="36.9288666174" lon="-2.0504093170">
        <ele>192.40</ele>
        <time>2018-11-06T09:54:44Z</time>
      </trkpt>
      <trkpt lat="36.9290612452" lon="-2.0497766510">
        <ele>191.92</ele>
        <time>2018-11-06T09:54:55Z</time>
      </trkpt>
      <trkpt lat="36.9292177353" lon="-2.0491648559">
        <ele>191.44</ele>
        <time>2018-11-06T09:55:05Z</time>
      </trkpt>
      <trkpt lat="36.9294012990" lon="-2.0485104807">
        <ele>191.44</ele>
        <time>2018-11-06T09:55:15Z</time>
      </trkpt>
      <trkpt lat="36.9295768999" lon="-2.0478788204">
        <ele>190.96</ele>
        <time>2018-11-06T09:55:25Z</time>
      </trkpt>
      <trkpt lat="36.9297495671" lon="-2.0471209288">
        <ele>191.44</ele>
        <time>2018-11-06T09:55:37Z</time>
      </trkpt>
      <trkpt lat="36.9299197197" lon="-2.0464487001">
        <ele>191.92</ele>
        <time>2018-11-06T09:55:47Z</time>
      </trkpt>
      <trkpt lat="36.9300129265" lon="-2.0459836721">
        <ele>192.88</ele>
        <time>2018-11-06T09:55:55Z</time>
      </trkpt>
      <trkpt lat="36.9300762936" lon="-2.0454914868">
        <ele>193.84</ele>
        <time>2018-11-06T09:56:05Z</time>
      </trkpt>
      <trkpt lat="36.9301585201" lon="-2.0450221002">
        <ele>194.80</ele>
        <time>2018-11-06T09:56:15Z</time>
      </trkpt>
      <trkpt lat="36.9302653056" lon="-2.0445328485">
        <ele>195.28</ele>
        <time>2018-11-06T09:56:25Z</time>
      </trkpt>
      <trkpt lat="36.9304150064" lon="-2.0438393299">
        <ele>196.25</ele>
        <time>2018-11-06T09:56:39Z</time>
      </trkpt>
      <trkpt lat="36.9305051956" lon="-2.0433820132">
        <ele>197.21</ele>
        <time>2018-11-06T09:56:49Z</time>
      </trkpt>
      <trkpt lat="36.9305617735" lon="-2.0428032428">
        <ele>197.21</ele>
        <time>2018-11-06T09:57:01Z</time>
      </trkpt>
      <trkpt lat="36.9306243025" lon="-2.0423647016">
        <ele>197.69</ele>
        <time>2018-11-06T09:57:10Z</time>
      </trkpt>
      <trkpt lat="36.9307003263" lon="-2.0418741927">
        <ele>199.13</ele>
        <time>2018-11-06T09:57:21Z</time>
      </trkpt>
      <trkpt lat="36.9307642803" lon="-2.0414395072">
        <ele>199.61</ele>
        <time>2018-11-06T09:57:31Z</time>
      </trkpt>
      <trkpt lat="36.9308388792" lon="-2.0409610681">
        <ele>200.57</ele>
        <time>2018-11-06T09:57:42Z</time>
      </trkpt>
      <trkpt lat="36.9309420604" lon="-2.0403893385">
        <ele>201.53</ele>
        <time>2018-11-06T09:57:55Z</time>
      </trkpt>
      <trkpt lat="36.9310361892" lon="-2.0398417488">
        <ele>201.53</ele>
        <time>2018-11-06T09:58:07Z</time>
      </trkpt>
      <trkpt lat="36.9312141370" lon="-2.0393913053">
        <ele>201.05</ele>
        <time>2018-11-06T09:58:16Z</time>
      </trkpt>
      <trkpt lat="36.9312465750" lon="-2.0393435284">
        <ele>201.05</ele>
        <time>2018-11-06T09:58:17Z</time>
      </trkpt>
      <trkpt lat="36.9312858023" lon="-2.0392935723">
        <ele>200.57</ele>
        <time>2018-11-06T09:58:18Z</time>
      </trkpt>
      <trkpt lat="36.9313267060" lon="-2.0392504893">
        <ele>200.57</ele>
        <time>2018-11-06T09:58:19Z</time>
      </trkpt>
      <trkpt lat="36.9316987786" lon="-2.0388836134">
        <ele>201.05</ele>
        <time>2018-11-06T09:58:28Z</time>
      </trkpt>
      <trkpt lat="36.9317298755" lon="-2.0388351660">
        <ele>201.05</ele>
        <time>2018-11-06T09:58:29Z</time>
      </trkpt>
      <trkpt lat="36.9317537639" lon="-2.0387900714">
        <ele>201.05</ele>
        <time>2018-11-06T09:58:30Z</time>
      </trkpt>
      <trkpt lat="36.9317756407" lon="-2.0387365110">
        <ele>201.05</ele>
        <time>2018-11-06T09:58:31Z</time>
      </trkpt>
      <trkpt lat="36.9317925721" lon="-2.0386850461">
        <ele>201.05</ele>
        <time>2018-11-06T09:58:32Z</time>
      </trkpt>
      <trkpt lat="36.9318069890" lon="-2.0386263728">
        <ele>201.53</ele>
        <time>2018-11-06T09:58:33Z</time>
      </trkpt>
      <trkpt lat="36.9318177179" lon="-2.0385702979">
        <ele>201.53</ele>
        <time>2018-11-06T09:58:34Z</time>
      </trkpt>
      <trkpt lat="36.9318273570" lon="-2.0385127980">
        <ele>201.53</ele>
        <time>2018-11-06T09:58:35Z</time>
      </trkpt>
      <trkpt lat="36.9318751339" lon="-2.0383418910">
        <ele>201.53</ele>
        <time>2018-11-06T09:58:38Z</time>
      </trkpt>
      <trkpt lat="36.9318991061" lon="-2.0382908452">
        <ele>202.01</ele>
        <time>2018-11-06T09:58:39Z</time>
      </trkpt>
      <trkpt lat="36.9319264311" lon="-2.0382428169">
        <ele>201.53</ele>
        <time>2018-11-06T09:58:40Z</time>
      </trkpt>
      <trkpt lat="36.9319600426" lon="-2.0381990634">
        <ele>202.01</ele>
        <time>2018-11-06T09:58:41Z</time>
      </trkpt>
      <trkpt lat="36.9319985993" lon="-2.0381605066">
        <ele>202.01</ele>
        <time>2018-11-06T09:58:42Z</time>
      </trkpt>
      <trkpt lat="36.9320394192" lon="-2.0381256379">
        <ele>202.01</ele>
        <time>2018-11-06T09:58:43Z</time>
      </trkpt>
      <trkpt lat="36.9320827536" lon="-2.0380916912">
        <ele>202.01</ele>
        <time>2018-11-06T09:58:44Z</time>
      </trkpt>
      <trkpt lat="36.9323834125" lon="-2.0377709996">
        <ele>201.53</ele>
        <time>2018-11-06T09:58:52Z</time>
      </trkpt>
      <trkpt lat="36.9326986559" lon="-2.0373177901">
        <ele>202.01</ele>
        <time>2018-11-06T09:59:02Z</time>
      </trkpt>
      <trkpt lat="36.9329466764" lon="-2.0368841942">
        <ele>202.01</ele>
        <time>2018-11-06T09:59:11Z</time>
      </trkpt>
      <trkpt lat="36.9330729917" lon="-2.0364268776">
        <ele>202.49</ele>
        <time>2018-11-06T09:59:19Z</time>
      </trkpt>
      <trkpt lat="36.9332651049" lon="-2.0358850714">
        <ele>201.53</ele>
        <time>2018-11-06T09:59:29Z</time>
      </trkpt>
      <trkpt lat="36.9335321523" lon="-2.0353969093">
        <ele>202.01</ele>
        <time>2018-11-06T09:59:39Z</time>
      </trkpt>
      <trkpt lat="36.9336241856" lon="-2.0352725219">
        <ele>202.01</ele>
        <time>2018-11-06T09:59:42Z</time>
      </trkpt>
      <trkpt lat="36.9339420274" lon="-2.0349702705">
        <ele>202.01</ele>
        <time>2018-11-06T09:59:51Z</time>
      </trkpt>
      <trkpt lat="36.9343047123" lon="-2.0345215872">
        <ele>202.49</ele>
        <time>2018-11-06T10:00:02Z</time>
      </trkpt>
      <trkpt lat="36.9346026052" lon="-2.0340511110">
        <ele>201.53</ele>
        <time>2018-11-06T10:00:11Z</time>
      </trkpt>
      <trkpt lat="36.9348590076" lon="-2.0334298443">
        <ele>201.05</ele>
        <time>2018-11-06T10:00:21Z</time>
      </trkpt>
      <trkpt lat="36.9350945391" lon="-2.0328310411">
        <ele>201.53</ele>
        <time>2018-11-06T10:00:31Z</time>
      </trkpt>
      <trkpt lat="36.9352511968" lon="-2.0324116107">
        <ele>201.53</ele>
        <time>2018-11-06T10:00:39Z</time>
      </trkpt>
      <trkpt lat="36.9352950342" lon="-2.0323084295">
        <ele>201.53</ele>
        <time>2018-11-06T10:00:41Z</time>
      </trkpt>
      <trkpt lat="36.9355724752" lon="-2.0317770168">
        <ele>202.01</ele>
        <time>2018-11-06T10:00:52Z</time>
      </trkpt>
      <trkpt lat="36.9357778318" lon="-2.0314269885">
        <ele>202.98</ele>
        <time>2018-11-06T10:01:00Z</time>
      </trkpt>
      <trkpt lat="36.9358577114" lon="-2.0312918723">
        <ele>203.46</ele>
        <time>2018-11-06T10:01:03Z</time>
      </trkpt>
      <trkpt lat="36.9361639861" lon="-2.0308151934">
        <ele>203.94</ele>
        <time>2018-11-06T10:01:14Z</time>
      </trkpt>
      <trkpt lat="36.9363956619" lon="-2.0303516742">
        <ele>204.90</ele>
        <time>2018-11-06T10:01:24Z</time>
      </trkpt>
      <trkpt lat="36.9364690036" lon="-2.0299246162">
        <ele>206.34</ele>
        <time>2018-11-06T10:01:33Z</time>
      </trkpt>
      <trkpt lat="36.9364560954" lon="-2.0295605063">
        <ele>207.30</ele>
        <time>2018-11-06T10:01:42Z</time>
      </trkpt>
      <trkpt lat="36.9364603702" lon="-2.0295600872">
        <ele>206.82</ele>
        <time>2018-11-06T10:01:48Z</time>
      </trkpt>
      <trkpt lat="36.9364543352" lon="-2.0295607578">
        <ele>207.78</ele>
        <time>2018-11-06T10:02:00Z</time>
      </trkpt>
      <trkpt lat="36.9364565983" lon="-2.0295526274">
        <ele>207.30</ele>
        <time>2018-11-06T10:02:23Z</time>
      </trkpt>
      <trkpt lat="36.9364550896" lon="-2.0295498613">
        <ele>207.30</ele>
        <time>2018-11-06T10:03:01Z</time>
      </trkpt>
      <trkpt lat="36.9364577718" lon="-2.0295528788">
        <ele>207.78</ele>
        <time>2018-11-06T10:03:20Z</time>
      </trkpt>
      <trkpt lat="36.9364605378" lon="-2.0295540523">
        <ele>207.78</ele>
        <time>2018-11-06T10:03:32Z</time>
      </trkpt>
      <trkpt lat="36.9364515692" lon="-2.0294041838">
        <ele>207.78</ele>
        <time>2018-11-06T10:03:39Z</time>
      </trkpt>
      <trkpt lat="36.9364559278" lon="-2.0291363820">
        <ele>208.26</ele>
        <time>2018-11-06T10:03:49Z</time>
      </trkpt>
      <trkpt lat="36.9364665728" lon="-2.0290223043">
        <ele>208.74</ele>
        <time>2018-11-06T10:03:54Z</time>
      </trkpt>
      <trkpt lat="36.9364708476" lon="-2.0290067140">
        <ele>208.74</ele>
        <time>2018-11-06T10:03:55Z</time>
      </trkpt>
      <trkpt lat="36.9364750385" lon="-2.0289734378">
        <ele>209.22</ele>
        <time>2018-11-06T10:03:57Z</time>
      </trkpt>
      <trkpt lat="36.9365078118" lon="-2.0288160257">
        <ele>209.70</ele>
        <time>2018-11-06T10:04:05Z</time>
      </trkpt>
      <trkpt lat="36.9365874398" lon="-2.0285850205">
        <ele>210.67</ele>
        <time>2018-11-06T10:04:14Z</time>
      </trkpt>
      <trkpt lat="36.9367233943" lon="-2.0282913186">
        <ele>211.15</ele>
        <time>2018-11-06T10:04:22Z</time>
      </trkpt>
      <trkpt lat="36.9368915353" lon="-2.0279800147">
        <ele>212.11</ele>
        <time>2018-11-06T10:04:31Z</time>
      </trkpt>
      <trkpt lat="36.9371266477" lon="-2.0275876578">
        <ele>213.07</ele>
        <time>2018-11-06T10:04:42Z</time>
      </trkpt>
      <trkpt lat="36.9373998977" lon="-2.0271855779">
        <ele>213.55</ele>
        <time>2018-11-06T10:04:53Z</time>
      </trkpt>
      <trkpt lat="36.9375810307" lon="-2.0267665666">
        <ele>214.51</ele>
        <time>2018-11-06T10:05:03Z</time>
      </trkpt>
      <trkpt lat="36.9376785960" lon="-2.0262860321">
        <ele>214.99</ele>
        <time>2018-11-06T10:05:13Z</time>
      </trkpt>
      <trkpt lat="36.9378021453" lon="-2.0258239377">
        <ele>215.95</ele>
        <time>2018-11-06T10:05:23Z</time>
      </trkpt>
      <trkpt lat="36.9379644189" lon="-2.0254429802">
        <ele>217.40</ele>
        <time>2018-11-06T10:05:32Z</time>
      </trkpt>
      <trkpt lat="36.9382030517" lon="-2.0251774415">
        <ele>217.88</ele>
        <time>2018-11-06T10:05:40Z</time>
      </trkpt>
      <trkpt lat="36.9385608751" lon="-2.0248184446">
        <ele>216.91</ele>
        <time>2018-11-06T10:05:50Z</time>
      </trkpt>
      <trkpt lat="36.9389685709" lon="-2.0243901294">
        <ele>215.47</ele>
        <time>2018-11-06T10:06:00Z</time>
      </trkpt>
      <trkpt lat="36.9394692220" lon="-2.0238733012">
        <ele>214.51</ele>
        <time>2018-11-06T10:06:12Z</time>
      </trkpt>
      <trkpt lat="36.9399800990" lon="-2.0234038308">
        <ele>213.07</ele>
        <time>2018-11-06T10:06:23Z</time>
      </trkpt>
      <trkpt lat="36.9405179657" lon="-2.0229631104">
        <ele>211.63</ele>
        <time>2018-11-06T10:06:34Z</time>
      </trkpt>
      <trkpt lat="36.9409147650" lon="-2.0226094779">
        <ele>211.63</ele>
        <time>2018-11-06T10:06:43Z</time>
      </trkpt>
      <trkpt lat="36.9412847422" lon="-2.0221852697">
        <ele>212.11</ele>
        <time>2018-11-06T10:06:52Z</time>
      </trkpt>
      <trkpt lat="36.9413137436" lon="-2.0221211482">
        <ele>212.11</ele>
        <time>2018-11-06T10:06:53Z</time>
      </trkpt>
      <trkpt lat="36.9413365424" lon="-2.0220548473">
        <ele>212.11</ele>
        <time>2018-11-06T10:06:54Z</time>
      </trkpt>
      <trkpt lat="36.9413543958" lon="-2.0219854452">
        <ele>212.11</ele>
        <time>2018-11-06T10:06:55Z</time>
      </trkpt>
      <trkpt lat="36.9413660467" lon="-2.0219167974">
        <ele>212.59</ele>
        <time>2018-11-06T10:06:56Z</time>
      </trkpt>
      <trkpt lat="36.9413751829" lon="-2.0218432881">
        <ele>213.07</ele>
        <time>2018-11-06T10:06:57Z</time>
      </trkpt>
      <trkpt lat="36.9414887577" lon="-2.0211139787">
        <ele>214.51</ele>
        <time>2018-11-06T10:07:08Z</time>
      </trkpt>
      <trkpt lat="36.9416341837" lon="-2.0204616990">
        <ele>214.03</ele>
        <time>2018-11-06T10:07:19Z</time>
      </trkpt>
      <trkpt lat="36.9418141432" lon="-2.0199980121">
        <ele>214.03</ele>
        <time>2018-11-06T10:07:27Z</time>
      </trkpt>
      <trkpt lat="36.9420874771" lon="-2.0196624007">
        <ele>212.11</ele>
        <time>2018-11-06T10:07:33Z</time>
      </trkpt>
      <trkpt lat="36.9425142836" lon="-2.0190531202">
        <ele>210.67</ele>
        <time>2018-11-06T10:07:42Z</time>
      </trkpt>
      <trkpt lat="36.9428857695" lon="-2.0183924586">
        <ele>208.26</ele>
        <time>2018-11-06T10:07:51Z</time>
      </trkpt>
      <trkpt lat="36.9432508014" lon="-2.0179794822">
        <ele>205.38</ele>
        <time>2018-11-06T10:07:57Z</time>
      </trkpt>
      <trkpt lat="36.9438164961" lon="-2.0176153723">
        <ele>202.49</ele>
        <time>2018-11-06T10:08:04Z</time>
      </trkpt>
      <trkpt lat="36.9438939448" lon="-2.0175463054">
        <ele>202.01</ele>
        <time>2018-11-06T10:08:05Z</time>
      </trkpt>
      <trkpt lat="36.9439627603" lon="-2.0174675155">
        <ele>201.53</ele>
        <time>2018-11-06T10:08:06Z</time>
      </trkpt>
      <trkpt lat="36.9440262951" lon="-2.0173814334">
        <ele>201.53</ele>
        <time>2018-11-06T10:08:07Z</time>
      </trkpt>
      <trkpt lat="36.9443109445" lon="-2.0168161578">
        <ele>202.01</ele>
        <time>2018-11-06T10:08:13Z</time>
      </trkpt>
      <trkpt lat="36.9444738049" lon="-2.0163767785">
        <ele>204.42</ele>
        <time>2018-11-06T10:08:19Z</time>
      </trkpt>
      <trkpt lat="36.9447465520" lon="-2.0158506464">
        <ele>207.78</ele>
        <time>2018-11-06T10:08:28Z</time>
      </trkpt>
      <trkpt lat="36.9448606297" lon="-2.0154186431">
        <ele>207.30</ele>
        <time>2018-11-06T10:08:35Z</time>
      </trkpt>
      <trkpt lat="36.9449825864" lon="-2.0148183312">
        <ele>206.34</ele>
        <time>2018-11-06T10:08:44Z</time>
      </trkpt>
      <trkpt lat="36.9452483766" lon="-2.0142693166">
        <ele>205.86</ele>
        <time>2018-11-06T10:08:52Z</time>
      </trkpt>
      <trkpt lat="36.9455786236" lon="-2.0136471279">
        <ele>204.42</ele>
        <time>2018-11-06T10:09:01Z</time>
      </trkpt>
      <trkpt lat="36.9458788633" lon="-2.0131866261">
        <ele>203.46</ele>
        <time>2018-11-06T10:09:08Z</time>
      </trkpt>
      <trkpt lat="36.9459741656" lon="-2.0130473189">
        <ele>202.98</ele>
        <time>2018-11-06T10:09:10Z</time>
      </trkpt>
      <trkpt lat="36.9460112974" lon="-2.0129698701">
        <ele>202.98</ele>
        <time>2018-11-06T10:09:11Z</time>
      </trkpt>
      <trkpt lat="36.9462372735" lon="-2.0122982282">
        <ele>200.09</ele>
        <time>2018-11-06T10:09:18Z</time>
      </trkpt>
      <trkpt lat="36.9465802610" lon="-2.0115309488">
        <ele>195.77</ele>
        <time>2018-11-06T10:09:25Z</time>
      </trkpt>
      <trkpt lat="36.9470510725" lon="-2.0106953569">
        <ele>190.96</ele>
        <time>2018-11-06T10:09:32Z</time>
      </trkpt>
      <trkpt lat="36.9476176891" lon="-2.0096977428">
        <ele>189.04</ele>
        <time>2018-11-06T10:09:41Z</time>
      </trkpt>
      <trkpt lat="36.9478336070" lon="-2.0092813298">
        <ele>185.67</ele>
        <time>2018-11-06T10:09:45Z</time>
      </trkpt>
      <trkpt lat="36.9478676375" lon="-2.0091634803">
        <ele>184.71</ele>
        <time>2018-11-06T10:09:46Z</time>
      </trkpt>
      <trkpt lat="36.9478849880" lon="-2.0090400148">
        <ele>183.75</ele>
        <time>2018-11-06T10:09:47Z</time>
      </trkpt>
      <trkpt lat="36.9478884246" lon="-2.0089036413">
        <ele>182.79</ele>
        <time>2018-11-06T10:09:48Z</time>
      </trkpt>
      <trkpt lat="36.9478818867" lon="-2.0087634120">
        <ele>181.83</ele>
        <time>2018-11-06T10:09:49Z</time>
      </trkpt>
      <trkpt lat="36.9478684757" lon="-2.0086241048">
        <ele>180.87</ele>
        <time>2018-11-06T10:09:50Z</time>
      </trkpt>
      <trkpt lat="36.9478044380" lon="-2.0077541471">
        <ele>174.14</ele>
        <time>2018-11-06T10:09:56Z</time>
      </trkpt>
      <trkpt lat="36.9478060305" lon="-2.0067546051">
        <ele>165.96</ele>
        <time>2018-11-06T10:10:02Z</time>
      </trkpt>
      <trkpt lat="36.9478587527" lon="-2.0057087950">
        <ele>158.27</ele>
        <time>2018-11-06T10:10:08Z</time>
      </trkpt>
      <trkpt lat="36.9479451701" lon="-2.0047681779">
        <ele>152.99</ele>
        <time>2018-11-06T10:10:14Z</time>
      </trkpt>
      <trkpt lat="36.9479878340" lon="-2.0036578272">
        <ele>146.74</ele>
        <time>2018-11-06T10:10:21Z</time>
      </trkpt>
      <trkpt lat="36.9479589164" lon="-2.0035056118">
        <ele>145.78</ele>
        <time>2018-11-06T10:10:22Z</time>
      </trkpt>
      <trkpt lat="36.9479177613" lon="-2.0033544861">
        <ele>145.30</ele>
        <time>2018-11-06T10:10:23Z</time>
      </trkpt>
      <trkpt lat="36.9474062975" lon="-2.0018606633">
        <ele>138.09</ele>
        <time>2018-11-06T10:10:33Z</time>
      </trkpt>
      <trkpt lat="36.9469174650" lon="-2.0004590414">
        <ele>132.32</ele>
        <time>2018-11-06T10:10:43Z</time>
      </trkpt>
      <trkpt lat="36.9465881400" lon="-1.9995940290">
        <ele>129.92</ele>
        <time>2018-11-06T10:10:50Z</time>
      </trkpt>
      <trkpt lat="36.9465395249" lon="-1.9994234573">
        <ele>129.43</ele>
        <time>2018-11-06T10:10:53Z</time>
      </trkpt>
      <trkpt lat="36.9465406984" lon="-1.9994120579">
        <ele>129.43</ele>
        <time>2018-11-06T10:10:58Z</time>
      </trkpt>
      <trkpt lat="36.9465462305" lon="-1.9994248822">
        <ele>129.92</ele>
        <time>2018-11-06T10:11:15Z</time>
      </trkpt>
      <trkpt lat="36.9465462305" lon="-1.9994227029">
        <ele>129.92</ele>
        <time>2018-11-06T10:11:35Z</time>
      </trkpt>
      <trkpt lat="36.9465464819" lon="-1.9994273130">
        <ele>128.95</ele>
        <time>2018-11-06T10:11:57Z</time>
      </trkpt>
      <trkpt lat="36.9465455599" lon="-1.9994215295">
        <ele>129.43</ele>
        <time>2018-11-06T10:12:09Z</time>
      </trkpt>
      <trkpt lat="36.9465449732" lon="-1.9991937932">
        <ele>128.95</ele>
        <time>2018-11-06T10:12:16Z</time>
      </trkpt>
      <trkpt lat="36.9466096815" lon="-1.9988642167">
        <ele>129.92</ele>
        <time>2018-11-06T10:12:22Z</time>
      </trkpt>
      <trkpt lat="36.9466248527" lon="-1.9988170266">
        <ele>129.92</ele>
        <time>2018-11-06T10:12:23Z</time>
      </trkpt>
      <trkpt lat="36.9468288682" lon="-1.9982456323">
        <ele>130.40</ele>
        <time>2018-11-06T10:12:33Z</time>
      </trkpt>
      <trkpt lat="36.9471515715" lon="-1.9973237906">
        <ele>131.84</ele>
        <time>2018-11-06T10:12:48Z</time>
      </trkpt>
      <trkpt lat="36.9473764580" lon="-1.9967160188">
        <ele>131.84</ele>
        <time>2018-11-06T10:12:59Z</time>
      </trkpt>
      <trkpt lat="36.9475919567" lon="-1.9961525034">
        <ele>129.92</ele>
        <time>2018-11-06T10:13:08Z</time>
      </trkpt>
      <trkpt lat="36.9478389714" lon="-1.9954994693">
        <ele>127.03</ele>
        <time>2018-11-06T10:13:16Z</time>
      </trkpt>
      <trkpt lat="36.9481701404" lon="-1.9947180245">
        <ele>124.63</ele>
        <time>2018-11-06T10:13:24Z</time>
      </trkpt>
      <trkpt lat="36.9485328253" lon="-1.9939855300">
        <ele>123.67</ele>
        <time>2018-11-06T10:13:32Z</time>
      </trkpt>
      <trkpt lat="36.9486536924" lon="-1.9934653491">
        <ele>124.63</ele>
        <time>2018-11-06T10:13:38Z</time>
      </trkpt>
      <trkpt lat="36.9487889763" lon="-1.9925923739">
        <ele>123.19</ele>
        <time>2018-11-06T10:13:49Z</time>
      </trkpt>
      <trkpt lat="36.9489308819" lon="-1.9916082546">
        <ele>120.78</ele>
        <time>2018-11-06T10:14:00Z</time>
      </trkpt>
      <trkpt lat="36.9490701053" lon="-1.9908050168">
        <ele>118.38</ele>
        <time>2018-11-06T10:14:08Z</time>
      </trkpt>
      <trkpt lat="36.9491311256" lon="-1.9901778828">
        <ele>118.86</ele>
        <time>2018-11-06T10:14:15Z</time>
      </trkpt>
      <trkpt lat="36.9491644017" lon="-1.9897970930">
        <ele>121.74</ele>
        <time>2018-11-06T10:14:21Z</time>
      </trkpt>
      <trkpt lat="36.9492396712" lon="-1.9892495871">
        <ele>122.71</ele>
        <time>2018-11-06T10:14:30Z</time>
      </trkpt>
      <trkpt lat="36.9493341353" lon="-1.9888432324">
        <ele>119.82</ele>
        <time>2018-11-06T10:14:35Z</time>
      </trkpt>
      <trkpt lat="36.9495117478" lon="-1.9881814811">
        <ele>115.98</ele>
        <time>2018-11-06T10:14:41Z</time>
      </trkpt>
      <trkpt lat="36.9497461896" lon="-1.9874711987">
        <ele>115.98</ele>
        <time>2018-11-06T10:14:48Z</time>
      </trkpt>
      <trkpt lat="36.9499652926" lon="-1.9869593158">
        <ele>117.42</ele>
        <time>2018-11-06T10:14:55Z</time>
      </trkpt>
      <trkpt lat="36.9501750916" lon="-1.9864305016">
        <ele>119.82</ele>
        <time>2018-11-06T10:15:04Z</time>
      </trkpt>
      <trkpt lat="36.9503805321" lon="-1.9859194569">
        <ele>122.22</ele>
        <time>2018-11-06T10:15:14Z</time>
      </trkpt>
      <trkpt lat="36.9505055901" lon="-1.9856231567">
        <ele>123.19</ele>
        <time>2018-11-06T10:15:22Z</time>
      </trkpt>
      <trkpt lat="36.9506400358" lon="-1.9853266887">
        <ele>124.15</ele>
        <time>2018-11-06T10:15:32Z</time>
      </trkpt>
      <trkpt lat="36.9507606514" lon="-1.9849930890">
        <ele>124.63</ele>
        <time>2018-11-06T10:15:41Z</time>
      </trkpt>
      <trkpt lat="36.9508715440" lon="-1.9847386982">
        <ele>123.67</ele>
        <time>2018-11-06T10:15:47Z</time>
      </trkpt>
      <trkpt lat="36.9510548562" lon="-1.9842875004">
        <ele>122.22</ele>
        <time>2018-11-06T10:15:56Z</time>
      </trkpt>
      <trkpt lat="36.9512566924" lon="-1.9838311058">
        <ele>121.26</ele>
        <time>2018-11-06T10:16:04Z</time>
      </trkpt>
      <trkpt lat="36.9515292719" lon="-1.9832313806">
        <ele>121.26</ele>
        <time>2018-11-06T10:16:14Z</time>
      </trkpt>
      <trkpt lat="36.9518338703" lon="-1.9825655222">
        <ele>118.38</ele>
        <time>2018-11-06T10:16:23Z</time>
      </trkpt>
      <trkpt lat="36.9521750975" lon="-1.9818735123">
        <ele>114.05</ele>
        <time>2018-11-06T10:16:30Z</time>
      </trkpt>
      <trkpt lat="36.9525835477" lon="-1.9810287841">
        <ele>109.25</ele>
        <time>2018-11-06T10:16:37Z</time>
      </trkpt>
      <trkpt lat="36.9529052451" lon="-1.9803815335">
        <ele>106.36</ele>
        <time>2018-11-06T10:16:43Z</time>
      </trkpt>
      <trkpt lat="36.9530845340" lon="-1.9799933676">
        <ele>106.36</ele>
        <time>2018-11-06T10:16:48Z</time>
      </trkpt>
      <trkpt lat="36.9531058241" lon="-1.9799333531">
        <ele>106.84</ele>
        <time>2018-11-06T10:16:49Z</time>
      </trkpt>
      <trkpt lat="36.9531168882" lon="-1.9798814692">
        <ele>106.84</ele>
        <time>2018-11-06T10:16:50Z</time>
      </trkpt>
      <trkpt lat="36.9531147927" lon="-1.9798317645">
        <ele>106.84</ele>
        <time>2018-11-06T10:16:51Z</time>
      </trkpt>
      <trkpt lat="36.9530940894" lon="-1.9797870051">
        <ele>106.84</ele>
        <time>2018-11-06T10:16:52Z</time>
      </trkpt>
      <trkpt lat="36.9530582149" lon="-1.9797603507">
        <ele>106.36</ele>
        <time>2018-11-06T10:16:53Z</time>
      </trkpt>
      <trkpt lat="36.9530223403" lon="-1.9797455985">
        <ele>106.36</ele>
        <time>2018-11-06T10:16:54Z</time>
      </trkpt>
      <trkpt lat="36.9529764913" lon="-1.9797342829">
        <ele>105.88</ele>
        <time>2018-11-06T10:16:55Z</time>
      </trkpt>
      <trkpt lat="36.9529302232" lon="-1.9797271583">
        <ele>105.88</ele>
        <time>2018-11-06T10:16:56Z</time>
      </trkpt>
      <trkpt lat="36.9528807700" lon="-1.9797196984">
        <ele>105.40</ele>
        <time>2018-11-06T10:16:57Z</time>
      </trkpt>
      <trkpt lat="36.9522971381" lon="-1.9796098117">
        <ele>103.96</ele>
        <time>2018-11-06T10:17:08Z</time>
      </trkpt>
      <trkpt lat="36.9518253207" lon="-1.9795138389">
        <ele>103.48</ele>
        <time>2018-11-06T10:17:17Z</time>
      </trkpt>
      <trkpt lat="36.9513640646" lon="-1.9794194587">
        <ele>103.96</ele>
        <time>2018-11-06T10:17:27Z</time>
      </trkpt>
      <trkpt lat="36.9508250244" lon="-1.9792845938">
        <ele>104.44</ele>
        <time>2018-11-06T10:17:39Z</time>
      </trkpt>
      <trkpt lat="36.9506301451" lon="-1.9791297801">
        <ele>104.44</ele>
        <time>2018-11-06T10:17:44Z</time>
      </trkpt>
      <trkpt lat="36.9505973719" lon="-1.9790802430">
        <ele>104.44</ele>
        <time>2018-11-06T10:17:45Z</time>
      </trkpt>
      <trkpt lat="36.9505706336" lon="-1.9790260121">
        <ele>103.96</ele>
        <time>2018-11-06T10:17:46Z</time>
      </trkpt>
      <trkpt lat="36.9505454879" lon="-1.9789601304">
        <ele>103.48</ele>
        <time>2018-11-06T10:17:47Z</time>
      </trkpt>
      <trkpt lat="36.9505198393" lon="-1.9788893871">
        <ele>103.00</ele>
        <time>2018-11-06T10:17:48Z</time>
      </trkpt>
      <trkpt lat="36.9503744971" lon="-1.9783391152">
        <ele>100.60</ele>
        <time>2018-11-06T10:17:54Z</time>
      </trkpt>
      <trkpt lat="36.9502950367" lon="-1.9776256476">
        <ele>97.23</ele>
        <time>2018-11-06T10:18:00Z</time>
      </trkpt>
      <trkpt lat="36.9503004849" lon="-1.9763611536">
        <ele>92.42</ele>
        <time>2018-11-06T10:18:09Z</time>
      </trkpt>
      <trkpt lat="36.9503004011" lon="-1.9748932309">
        <ele>87.14</ele>
        <time>2018-11-06T10:18:19Z</time>
      </trkpt>
      <trkpt lat="36.9503871538" lon="-1.9737542979">
        <ele>83.77</ele>
        <time>2018-11-06T10:18:27Z</time>
      </trkpt>
      <trkpt lat="36.9505805243" lon="-1.9725838490">
        <ele>81.37</ele>
        <time>2018-11-06T10:18:36Z</time>
      </trkpt>
      <trkpt lat="36.9506164826" lon="-1.9719756581">
        <ele>79.93</ele>
        <time>2018-11-06T10:18:41Z</time>
      </trkpt>
      <trkpt lat="36.9504757505" lon="-1.9709254894">
        <ele>76.08</ele>
        <time>2018-11-06T10:18:49Z</time>
      </trkpt>
      <trkpt lat="36.9503402989" lon="-1.9698154740">
        <ele>74.16</ele>
        <time>2018-11-06T10:18:58Z</time>
      </trkpt>
      <trkpt lat="36.9502106309" lon="-1.9689200353">
        <ele>74.64</ele>
        <time>2018-11-06T10:19:06Z</time>
      </trkpt>
      <trkpt lat="36.9501032587" lon="-1.9685721863">
        <ele>77.04</ele>
        <time>2018-11-06T10:19:11Z</time>
      </trkpt>
      <trkpt lat="36.9498903584" lon="-1.9680648297">
        <ele>79.93</ele>
        <time>2018-11-06T10:19:20Z</time>
      </trkpt>
      <trkpt lat="36.9498277456" lon="-1.9678873848">
        <ele>80.89</ele>
        <time>2018-11-06T10:19:23Z</time>
      </trkpt>
      <trkpt lat="36.9497214630" lon="-1.9674230274">
        <ele>80.41</ele>
        <time>2018-11-06T10:19:31Z</time>
      </trkpt>
      <trkpt lat="36.9496001769" lon="-1.9669331890">
        <ele>78.48</ele>
        <time>2018-11-06T10:19:38Z</time>
      </trkpt>
      <trkpt lat="36.9493661541" lon="-1.9662027899">
        <ele>76.56</ele>
        <time>2018-11-06T10:19:47Z</time>
      </trkpt>
      <trkpt lat="36.9491463806" lon="-1.9654132146">
        <ele>75.60</ele>
        <time>2018-11-06T10:19:56Z</time>
      </trkpt>
      <trkpt lat="36.9491312932" lon="-1.9648347795">
        <ele>75.12</ele>
        <time>2018-11-06T10:20:03Z</time>
      </trkpt>
      <trkpt lat="36.9491563551" lon="-1.9641070627">
        <ele>76.08</ele>
        <time>2018-11-06T10:20:13Z</time>
      </trkpt>
      <trkpt lat="36.9491677545" lon="-1.9636021368">
        <ele>76.08</ele>
        <time>2018-11-06T10:20:21Z</time>
      </trkpt>
      <trkpt lat="36.9491700176" lon="-1.9629929401">
        <ele>75.60</ele>
        <time>2018-11-06T10:20:31Z</time>
      </trkpt>
      <trkpt lat="36.9491930678" lon="-1.9622138422">
        <ele>75.12</ele>
        <time>2018-11-06T10:20:44Z</time>
      </trkpt>
      <trkpt lat="36.9492392521" lon="-1.9615023024">
        <ele>75.60</ele>
        <time>2018-11-06T10:20:55Z</time>
      </trkpt>
      <trkpt lat="36.9493026193" lon="-1.9608283136">
        <ele>76.08</ele>
        <time>2018-11-06T10:21:06Z</time>
      </trkpt>
      <trkpt lat="36.9493520726" lon="-1.9601396564">
        <ele>76.56</ele>
        <time>2018-11-06T10:21:17Z</time>
      </trkpt>
      <trkpt lat="36.9493893720" lon="-1.9596488960">
        <ele>75.60</ele>
        <time>2018-11-06T10:21:25Z</time>
      </trkpt>
      <trkpt lat="36.9494399987" lon="-1.9590681139">
        <ele>74.64</ele>
        <time>2018-11-06T10:21:33Z</time>
      </trkpt>
      <trkpt lat="36.9494228996" lon="-1.9584335200">
        <ele>75.12</ele>
        <time>2018-11-06T10:21:42Z</time>
      </trkpt>
      <trkpt lat="36.9493482169" lon="-1.9577855989">
        <ele>73.68</ele>
        <time>2018-11-06T10:21:51Z</time>
      </trkpt>
      <trkpt lat="36.9492384978" lon="-1.9570854586">
        <ele>72.24</ele>
        <time>2018-11-06T10:21:59Z</time>
      </trkpt>
      <trkpt lat="36.9492102508" lon="-1.9570087641">
        <ele>72.24</ele>
        <time>2018-11-06T10:22:00Z</time>
      </trkpt>
      <trkpt lat="36.9491760526" lon="-1.9569286332">
        <ele>72.24</ele>
        <time>2018-11-06T10:22:01Z</time>
      </trkpt>
      <trkpt lat="36.9488907326" lon="-1.9564192649">
        <ele>72.24</ele>
        <time>2018-11-06T10:22:09Z</time>
      </trkpt>
      <trkpt lat="36.9485140499" lon="-1.9557720982">
        <ele>73.68</ele>
        <time>2018-11-06T10:22:21Z</time>
      </trkpt>
      <trkpt lat="36.9482972100" lon="-1.9553996902">
        <ele>74.16</ele>
        <time>2018-11-06T10:22:29Z</time>
      </trkpt>
      <trkpt lat="36.9482713100" lon="-1.9553569425">
        <ele>74.16</ele>
        <time>2018-11-06T10:22:30Z</time>
      </trkpt>
      <trkpt lat="36.9482463319" lon="-1.9553120155">
        <ele>74.64</ele>
        <time>2018-11-06T10:22:31Z</time>
      </trkpt>
      <trkpt lat="36.9482236169" lon="-1.9552626461">
        <ele>74.64</ele>
        <time>2018-11-06T10:22:32Z</time>
      </trkpt>
      <trkpt lat="36.9482034165" lon="-1.9552126899">
        <ele>74.64</ele>
        <time>2018-11-06T10:22:33Z</time>
      </trkpt>
      <trkpt lat="36.9481684640" lon="-1.9551097602">
        <ele>75.12</ele>
        <time>2018-11-06T10:22:35Z</time>
      </trkpt>
      <trkpt lat="36.9481576513" lon="-1.9550610613">
        <ele>75.12</ele>
        <time>2018-11-06T10:22:36Z</time>
      </trkpt>
      <trkpt lat="36.9481488504" lon="-1.9550073333">
        <ele>75.12</ele>
        <time>2018-11-06T10:22:37Z</time>
      </trkpt>
      <trkpt lat="36.9481182564" lon="-1.9544833805">
        <ele>75.12</ele>
        <time>2018-11-06T10:22:46Z</time>
      </trkpt>
      <trkpt lat="36.9480781071" lon="-1.9538796321">
        <ele>75.60</ele>
        <time>2018-11-06T10:22:57Z</time>
      </trkpt>
      <trkpt lat="36.9480750058" lon="-1.9538257364">
        <ele>75.60</ele>
        <time>2018-11-06T10:22:58Z</time>
      </trkpt>
      <trkpt lat="36.9479713216" lon="-1.9532818347">
        <ele>75.60</ele>
        <time>2018-11-06T10:23:08Z</time>
      </trkpt>
      <trkpt lat="36.9477665517" lon="-1.9526420441">
        <ele>75.12</ele>
        <time>2018-11-06T10:23:20Z</time>
      </trkpt>
      <trkpt lat="36.9477327727" lon="-1.9525388628">
        <ele>75.12</ele>
        <time>2018-11-06T10:23:22Z</time>
      </trkpt>
      <trkpt lat="36.9475502986" lon="-1.9520143233">
        <ele>73.68</ele>
        <time>2018-11-06T10:23:31Z</time>
      </trkpt>
      <trkpt lat="36.9473702554" lon="-1.9514233992">
        <ele>71.76</ele>
        <time>2018-11-06T10:23:39Z</time>
      </trkpt>
      <trkpt lat="36.9473099057" lon="-1.9508670922">
        <ele>69.83</ele>
        <time>2018-11-06T10:23:45Z</time>
      </trkpt>
      <trkpt lat="36.9472238235" lon="-1.9501030818">
        <ele>65.99</ele>
        <time>2018-11-06T10:23:52Z</time>
      </trkpt>
      <trkpt lat="36.9470028765" lon="-1.9493832439">
        <ele>61.66</ele>
        <time>2018-11-06T10:23:58Z</time>
      </trkpt>
      <trkpt lat="36.9466614816" lon="-1.9487215765">
        <ele>58.30</ele>
        <time>2018-11-06T10:24:04Z</time>
      </trkpt>
      <trkpt lat="36.9461788516" lon="-1.9478366151">
        <ele>53.97</ele>
        <time>2018-11-06T10:24:12Z</time>
      </trkpt>
      <trkpt lat="36.9455449283" lon="-1.9466807507">
        <ele>46.28</ele>
        <time>2018-11-06T10:24:22Z</time>
      </trkpt>
      <trkpt lat="36.9450699259" lon="-1.9457631838">
        <ele>42.44</ele>
        <time>2018-11-06T10:24:30Z</time>
      </trkpt>
      <trkpt lat="36.9450377394" lon="-1.9456561469">
        <ele>41.95</ele>
        <time>2018-11-06T10:24:31Z</time>
      </trkpt>
      <trkpt lat="36.9449105859" lon="-1.9450047892">
        <ele>40.51</ele>
        <time>2018-11-06T10:24:37Z</time>
      </trkpt>
      <trkpt lat="36.9447701052" lon="-1.9443402719">
        <ele>38.11</ele>
        <time>2018-11-06T10:24:44Z</time>
      </trkpt>
      <trkpt lat="36.9446810894" lon="-1.9440457318">
        <ele>36.19</ele>
        <time>2018-11-06T10:24:47Z</time>
      </trkpt>
      <trkpt lat="36.9446365815" lon="-1.9439524412">
        <ele>35.71</ele>
        <time>2018-11-06T10:24:48Z</time>
      </trkpt>
      <trkpt lat="36.9445802551" lon="-1.9438691251">
        <ele>35.23</ele>
        <time>2018-11-06T10:24:49Z</time>
      </trkpt>
      <trkpt lat="36.9445106853" lon="-1.9437948614">
        <ele>34.74</ele>
        <time>2018-11-06T10:24:50Z</time>
      </trkpt>
      <trkpt lat="36.9444377627" lon="-1.9437332544">
        <ele>33.78</ele>
        <time>2018-11-06T10:24:51Z</time>
      </trkpt>
      <trkpt lat="36.9443577155" lon="-1.9436729047">
        <ele>33.30</ele>
        <time>2018-11-06T10:24:52Z</time>
      </trkpt>
      <trkpt lat="36.9440230262" lon="-1.9434850663">
        <ele>29.46</ele>
        <time>2018-11-06T10:24:56Z</time>
      </trkpt>
      <trkpt lat="36.9439381175" lon="-1.9434742536">
        <ele>28.50</ele>
        <time>2018-11-06T10:24:57Z</time>
      </trkpt>
      <trkpt lat="36.9438452460" lon="-1.9434908498">
        <ele>27.53</ele>
        <time>2018-11-06T10:24:58Z</time>
      </trkpt>
      <trkpt lat="36.9437606726" lon="-1.9435286522">
        <ele>27.05</ele>
        <time>2018-11-06T10:24:59Z</time>
      </trkpt>
      <trkpt lat="36.9436711539" lon="-1.9435819611">
        <ele>26.09</ele>
        <time>2018-11-06T10:25:00Z</time>
      </trkpt>
      <trkpt lat="36.9429549202" lon="-1.9439883996">
        <ele>20.32</ele>
        <time>2018-11-06T10:25:08Z</time>
      </trkpt>
      <trkpt lat="36.9424058218" lon="-1.9442749768">
        <ele>15.52</ele>
        <time>2018-11-06T10:25:14Z</time>
      </trkpt>
      <trkpt lat="36.9423169736" lon="-1.9443028886">
        <ele>15.04</ele>
        <time>2018-11-06T10:25:15Z</time>
      </trkpt>
      <trkpt lat="36.9422321487" lon="-1.9443098456">
        <ele>14.08</ele>
        <time>2018-11-06T10:25:16Z</time>
      </trkpt>
      <trkpt lat="36.9421517663" lon="-1.9442883041">
        <ele>13.12</ele>
        <time>2018-11-06T10:25:17Z</time>
      </trkpt>
      <trkpt lat="36.9420775864" lon="-1.9442377612">
        <ele>12.15</ele>
        <time>2018-11-06T10:25:18Z</time>
      </trkpt>
      <trkpt lat="36.9420149736" lon="-1.9441629108">
        <ele>11.19</ele>
        <time>2018-11-06T10:25:19Z</time>
      </trkpt>
      <trkpt lat="36.9419660233" lon="-1.9440727215">
        <ele>10.23</ele>
        <time>2018-11-06T10:25:20Z</time>
      </trkpt>
      <trkpt lat="36.9419243652" lon="-1.9439744856">
        <ele>9.75</ele>
        <time>2018-11-06T10:25:21Z</time>
      </trkpt>
      <trkpt lat="36.9418894965" lon="-1.9438713882">
        <ele>9.27</ele>
        <time>2018-11-06T10:25:22Z</time>
      </trkpt>
      <trkpt lat="36.9418621715" lon="-1.9437630940">
        <ele>9.27</ele>
        <time>2018-11-06T10:25:23Z</time>
      </trkpt>
      <trkpt lat="36.9418405462" lon="-1.9436529558">
        <ele>8.79</ele>
        <time>2018-11-06T10:25:24Z</time>
      </trkpt>
      <trkpt lat="36.9417304080" lon="-1.9430651329">
        <ele>9.27</ele>
        <time>2018-11-06T10:25:30Z</time>
      </trkpt>
      <trkpt lat="36.9416221976" lon="-1.9424612168">
        <ele>8.79</ele>
        <time>2018-11-06T10:25:38Z</time>
      </trkpt>
      <trkpt lat="36.9415702298" lon="-1.9417501800">
        <ele>8.31</ele>
        <time>2018-11-06T10:25:48Z</time>
      </trkpt>
      <trkpt lat="36.9415543880" lon="-1.9409480318">
        <ele>7.35</ele>
        <time>2018-11-06T10:25:59Z</time>
      </trkpt>
      <trkpt lat="36.9416367821" lon="-1.9402076583">
        <ele>7.35</ele>
        <time>2018-11-06T10:26:10Z</time>
      </trkpt>
      <trkpt lat="36.9416745007" lon="-1.9399141241">
        <ele>7.35</ele>
        <time>2018-11-06T10:26:15Z</time>
      </trkpt>
      <trkpt lat="36.9417589065" lon="-1.9393712282">
        <ele>6.87</ele>
        <time>2018-11-06T10:26:24Z</time>
      </trkpt>
      <trkpt lat="36.9418740738" lon="-1.9386720937">
        <ele>6.39</ele>
        <time>2018-11-06T10:26:35Z</time>
      </trkpt>
      <trkpt lat="36.9419749081" lon="-1.9381196424">
        <ele>5.91</ele>
        <time>2018-11-06T10:26:44Z</time>
      </trkpt>
      <trkpt lat="36.9419806916" lon="-1.9380582869">
        <ele>5.91</ele>
        <time>2018-11-06T10:26:45Z</time>
      </trkpt>
      <trkpt lat="36.9419841282" lon="-1.9379324745">
        <ele>5.91</ele>
        <time>2018-11-06T10:26:47Z</time>
      </trkpt>
      <trkpt lat="36.9419790991" lon="-1.9378700294">
        <ele>6.39</ele>
        <time>2018-11-06T10:26:48Z</time>
      </trkpt>
      <trkpt lat="36.9419694599" lon="-1.9378117751">
        <ele>6.39</ele>
        <time>2018-11-06T10:26:49Z</time>
      </trkpt>
      <trkpt lat="36.9419564679" lon="-1.9377551973">
        <ele>6.39</ele>
        <time>2018-11-06T10:26:50Z</time>
      </trkpt>
      <trkpt lat="36.9419385307" lon="-1.9376997091">
        <ele>6.39</ele>
        <time>2018-11-06T10:26:51Z</time>
      </trkpt>
      <trkpt lat="36.9419169053" lon="-1.9376437180">
        <ele>6.87</ele>
        <time>2018-11-06T10:26:52Z</time>
      </trkpt>
      <trkpt lat="36.9418937713" lon="-1.9375929236">
        <ele>6.87</ele>
        <time>2018-11-06T10:26:53Z</time>
      </trkpt>
      <trkpt lat="36.9418677036" lon="-1.9375462364">
        <ele>6.87</ele>
        <time>2018-11-06T10:26:54Z</time>
      </trkpt>
      <trkpt lat="36.9416560605" lon="-1.9371994771">
        <ele>6.87</ele>
        <time>2018-11-06T10:27:02Z</time>
      </trkpt>
      <trkpt lat="36.9414618518" lon="-1.9369709864">
        <ele>5.91</ele>
        <time>2018-11-06T10:27:08Z</time>
      </trkpt>
      <trkpt lat="36.9414110575" lon="-1.9369335193">
        <ele>5.42</ele>
        <time>2018-11-06T10:27:09Z</time>
      </trkpt>
      <trkpt lat="36.9413547311" lon="-1.9369001593">
        <ele>4.94</ele>
        <time>2018-11-06T10:27:10Z</time>
      </trkpt>
      <trkpt lat="36.9412912801" lon="-1.9368733373">
        <ele>4.46</ele>
        <time>2018-11-06T10:27:11Z</time>
      </trkpt>
      <trkpt lat="36.9412362948" lon="-1.9368528854">
        <ele>3.98</ele>
        <time>2018-11-06T10:27:12Z</time>
      </trkpt>
      <trkpt lat="36.9411457703" lon="-1.9368228782">
        <ele>3.98</ele>
        <time>2018-11-06T10:27:14Z</time>
      </trkpt>
      <trkpt lat="36.9410027750" lon="-1.9368105568">
        <ele>3.98</ele>
        <time>2018-11-06T10:27:19Z</time>
      </trkpt>
      <trkpt lat="36.9409846701" lon="-1.9368069526">
        <ele>3.98</ele>
        <time>2018-11-06T10:27:20Z</time>
      </trkpt>
      <trkpt lat="36.9409710914" lon="-1.9367913622">
        <ele>4.46</ele>
        <time>2018-11-06T10:27:21Z</time>
      </trkpt>
      <trkpt lat="36.9409617875" lon="-1.9367762748">
        <ele>4.46</ele>
        <time>2018-11-06T10:27:22Z</time>
      </trkpt>
      <trkpt lat="36.9409233145" lon="-1.9367330242">
        <ele>5.42</ele>
        <time>2018-11-06T10:27:30Z</time>
      </trkpt>
      <trkpt lat="36.9409141783" lon="-1.9367315155">
        <ele>5.91</ele>
        <time>2018-11-06T10:27:46Z</time>
      </trkpt>
      <trkpt lat="36.9409145135" lon="-1.9367283303">
        <ele>5.42</ele>
        <time>2018-11-06T10:28:09Z</time>
      </trkpt>
      <trkpt lat="36.9409130886" lon="-1.9367362931">
        <ele>5.42</ele>
        <time>2018-11-06T10:28:28Z</time>
      </trkpt>
      <trkpt lat="36.9408943970" lon="-1.9367496204">
        <ele>5.91</ele>
        <time>2018-11-06T10:28:42Z</time>
      </trkpt>
      <trkpt lat="36.9409135915" lon="-1.9367680606">
        <ele>5.91</ele>
        <time>2018-11-06T10:28:59Z</time>
      </trkpt>
      <trkpt lat="36.9408900384" lon="-1.9367818069">
        <ele>5.42</ele>
        <time>2018-11-06T10:29:04Z</time>
      </trkpt>
      <trkpt lat="36.9407794811" lon="-1.9367493689">
        <ele>4.94</ele>
        <time>2018-11-06T10:29:11Z</time>
      </trkpt>
      <trkpt lat="36.9406979252" lon="-1.9365842454">
        <ele>4.94</ele>
        <time>2018-11-06T10:29:18Z</time>
      </trkpt>
      <trkpt lat="36.9406897109" lon="-1.9365582615">
        <ele>5.42</ele>
        <time>2018-11-06T10:29:19Z</time>
      </trkpt>
      <trkpt lat="36.9406728633" lon="-1.9365378097">
        <ele>5.42</ele>
        <time>2018-11-06T10:29:20Z</time>
      </trkpt>
      <trkpt lat="36.9406492263" lon="-1.9365277514">
        <ele>5.91</ele>
        <time>2018-11-06T10:29:21Z</time>
      </trkpt>
      <trkpt lat="36.9406202249" lon="-1.9365311041">
        <ele>5.91</ele>
        <time>2018-11-06T10:29:22Z</time>
      </trkpt>
      <trkpt lat="36.9405983482" lon="-1.9365519751">
        <ele>5.42</ele>
        <time>2018-11-06T10:29:23Z</time>
      </trkpt>
      <trkpt lat="36.9405846857" lon="-1.9365787972">
        <ele>5.42</ele>
        <time>2018-11-06T10:29:24Z</time>
      </trkpt>
      <trkpt lat="36.9405701011" lon="-1.9366041943">
        <ele>5.42</ele>
        <time>2018-11-06T10:29:25Z</time>
      </trkpt>
      <trkpt lat="36.9405481406" lon="-1.9366295915">
        <ele>5.42</ele>
        <time>2018-11-06T10:29:26Z</time>
      </trkpt>
      <trkpt lat="36.9405200612" lon="-1.9366472773">
        <ele>5.42</ele>
        <time>2018-11-06T10:29:27Z</time>
      </trkpt>
      <trkpt lat="36.9404870365" lon="-1.9366584253">
        <ele>5.42</ele>
        <time>2018-11-06T10:29:28Z</time>
      </trkpt>
      <trkpt lat="36.9404508267" lon="-1.9366595987">
        <ele>5.42</ele>
        <time>2018-11-06T10:29:29Z</time>
      </trkpt>
      <trkpt lat="36.9404142816" lon="-1.9366554078">
        <ele>5.42</ele>
        <time>2018-11-06T10:29:30Z</time>
      </trkpt>
      <trkpt lat="36.9403758924" lon="-1.9366499595">
        <ele>5.42</ele>
        <time>2018-11-06T10:29:31Z</time>
      </trkpt>
      <trkpt lat="36.9400043227" lon="-1.9365804736">
        <ele>4.94</ele>
        <time>2018-11-06T10:29:40Z</time>
      </trkpt>
      <trkpt lat="36.9399270415" lon="-1.9365412463">
        <ele>4.94</ele>
        <time>2018-11-06T10:29:42Z</time>
      </trkpt>
      <trkpt lat="36.9396382011" lon="-1.9364150148">
        <ele>4.46</ele>
        <time>2018-11-06T10:29:50Z</time>
      </trkpt>
      <trkpt lat="36.9393579103" lon="-1.9362564292">
        <ele>4.46</ele>
        <time>2018-11-06T10:29:59Z</time>
      </trkpt>
      <trkpt lat="36.9391425792" lon="-1.9361400884">
        <ele>3.98</ele>
        <time>2018-11-06T10:30:07Z</time>
      </trkpt>
      <trkpt lat="36.9389916211" lon="-1.9360720273">
        <ele>4.46</ele>
        <time>2018-11-06T10:30:15Z</time>
      </trkpt>
      <trkpt lat="36.9389725942" lon="-1.9360609632">
        <ele>6.39</ele>
        <time>2018-11-06T10:30:26Z</time>
      </trkpt>
      <trkpt lat="36.9389722589" lon="-1.9360758830">
        <ele>6.87</ele>
        <time>2018-11-06T10:30:37Z</time>
      </trkpt>
      <trkpt lat="36.9390085526" lon="-1.9359766413">
        <ele>5.91</ele>
        <time>2018-11-06T10:30:43Z</time>
      </trkpt>
      <trkpt lat="36.9390392303" lon="-1.9358939957">
        <ele>5.91</ele>
        <time>2018-11-06T10:30:47Z</time>
      </trkpt>
      <trkpt lat="36.9390412420" lon="-1.9358340651">
        <ele>6.39</ele>
        <time>2018-11-06T10:30:54Z</time>
      </trkpt>
      <trkpt lat="36.9390393980" lon="-1.9358282816">
        <ele>6.39</ele>
        <time>2018-11-06T10:31:14Z</time>
      </trkpt>
      <trkpt lat="36.9390415773" lon="-1.9358437881">
        <ele>6.39</ele>
        <time>2018-11-06T10:31:31Z</time>
      </trkpt>
      <trkpt lat="36.9390373025" lon="-1.9358551037">
        <ele>5.42</ele>
        <time>2018-11-06T10:31:49Z</time>
      </trkpt>
      <trkpt lat="36.9390383083" lon="-1.9358506612">
        <ele>5.42</ele>
        <time>2018-11-06T10:32:05Z</time>
      </trkpt>
      <trkpt lat="36.9390404876" lon="-1.9358623121">
        <ele>6.39</ele>
        <time>2018-11-06T10:32:22Z</time>
      </trkpt>
      <trkpt lat="36.9390468579" lon="-1.9358649105">
        <ele>6.87</ele>
        <time>2018-11-06T10:32:42Z</time>
      </trkpt>
      <trkpt lat="36.9390417449" lon="-1.9358605519">
        <ele>6.87</ele>
        <time>2018-11-06T10:32:57Z</time>
      </trkpt>
      <trkpt lat="36.9390431698" lon="-1.9358494878">
        <ele>6.87</ele>
        <time>2018-11-06T10:33:11Z</time>
      </trkpt>
      <trkpt lat="36.9390508812" lon="-1.9358291198">
        <ele>4.46</ele>
        <time>2018-11-06T10:33:21Z</time>
      </trkpt>
      <trkpt lat="36.9390500430" lon="-1.9358174689">
        <ele>4.46</ele>
        <time>2018-11-06T10:33:32Z</time>
      </trkpt>
      <trkpt lat="36.9390575867" lon="-1.9358243421">
        <ele>2.54</ele>
        <time>2018-11-06T10:33:46Z</time>
      </trkpt>
      <trkpt lat="36.9390606880" lon="-1.9358236715">
        <ele>1.58</ele>
        <time>2018-11-06T10:34:04Z</time>
      </trkpt>
      <trkpt lat="36.9390564132" lon="-1.9358201511">
        <ele>2.54</ele>
        <time>2018-11-06T10:34:22Z</time>
      </trkpt>
      <trkpt lat="36.9390586764" lon="-1.9358246773">
        <ele>4.46</ele>
        <time>2018-11-06T10:34:40Z</time>
      </trkpt>
      <trkpt lat="36.9390526414" lon="-1.9358292874">
        <ele>5.42</ele>
        <time>2018-11-06T10:34:55Z</time>
      </trkpt>
      <trkpt lat="36.9390494563" lon="-1.9358235039">
        <ele>6.39</ele>
        <time>2018-11-06T10:35:11Z</time>
      </trkpt>
      <trkpt lat="36.9390414096" lon="-1.9358303770">
        <ele>6.87</ele>
        <time>2018-11-06T10:35:27Z</time>
      </trkpt>
      <trkpt lat="36.9390417449" lon="-1.9358375017">
        <ele>9.27</ele>
        <time>2018-11-06T10:35:39Z</time>
      </trkpt>
      <trkpt lat="36.9390393980" lon="-1.9358324725">
        <ele>8.31</ele>
        <time>2018-11-06T10:35:56Z</time>
      </trkpt>
      <trkpt lat="36.9390392303" lon="-1.9358394295">
        <ele>7.35</ele>
        <time>2018-11-06T10:36:08Z</time>
      </trkpt>
      <trkpt lat="36.9390559942" lon="-1.9358411059">
        <ele>6.39</ele>
        <time>2018-11-06T10:36:22Z</time>
      </trkpt>
      <trkpt lat="36.9390489534" lon="-1.9358436204">
        <ele>7.83</ele>
        <time>2018-11-06T10:36:34Z</time>
      </trkpt>
      <trkpt lat="36.9390487019" lon="-1.9358406030">
        <ele>6.39</ele>
        <time>2018-11-06T10:36:43Z</time>
      </trkpt>
      <trkpt lat="36.9390549045" lon="-1.9358297065">
        <ele>4.94</ele>
        <time>2018-11-06T10:36:53Z</time>
      </trkpt>
      <trkpt lat="36.9390481152" lon="-1.9358251803">
        <ele>4.94</ele>
        <time>2018-11-06T10:37:03Z</time>
      </trkpt>
      <trkpt lat="36.9390677288" lon="-1.9358441234">
        <ele>3.98</ele>
        <time>2018-11-06T10:37:11Z</time>
      </trkpt>
      <trkpt lat="36.9390575029" lon="-1.9358371664">
        <ele>4.94</ele>
        <time>2018-11-06T10:37:22Z</time>
      </trkpt>
      <trkpt lat="36.9390573353" lon="-1.9358426146">
        <ele>5.42</ele>
        <time>2018-11-06T10:37:30Z</time>
      </trkpt>
      <trkpt lat="36.9390195329" lon="-1.9359652419">
        <ele>4.94</ele>
        <time>2018-11-06T10:37:38Z</time>
      </trkpt>
      <trkpt lat="36.9390044454" lon="-1.9360176288">
        <ele>4.46</ele>
        <time>2018-11-06T10:37:41Z</time>
      </trkpt>
      <trkpt lat="36.9390747696" lon="-1.9361055549">
        <ele>3.98</ele>
        <time>2018-11-06T10:37:46Z</time>
      </trkpt>
      <trkpt lat="36.9392828085" lon="-1.9362117536">
        <ele>5.42</ele>
        <time>2018-11-06T10:37:54Z</time>
      </trkpt>
      <trkpt lat="36.9394776877" lon="-1.9363254961">
        <ele>6.39</ele>
        <time>2018-11-06T10:38:02Z</time>
      </trkpt>
      <trkpt lat="36.9397382811" lon="-1.9364632107">
        <ele>6.39</ele>
        <time>2018-11-06T10:38:11Z</time>
      </trkpt>
      <trkpt lat="36.9399281312" lon="-1.9365410786">
        <ele>5.91</ele>
        <time>2018-11-06T10:38:18Z</time>
      </trkpt>
      <trkpt lat="36.9402196538" lon="-1.9366070442">
        <ele>5.91</ele>
        <time>2018-11-06T10:38:27Z</time>
      </trkpt>
      <trkpt lat="36.9405044708" lon="-1.9366423320">
        <ele>5.91</ele>
        <time>2018-11-06T10:38:36Z</time>
      </trkpt>
      <trkpt lat="36.9405990187" lon="-1.9364988338">
        <ele>5.91</ele>
        <time>2018-11-06T10:38:41Z</time>
      </trkpt>
      <trkpt lat="36.9406805746" lon="-1.9362394977">
        <ele>5.42</ele>
        <time>2018-11-06T10:38:48Z</time>
      </trkpt>
      <trkpt lat="36.9407650642" lon="-1.9358619768">
        <ele>5.42</ele>
        <time>2018-11-06T10:38:58Z</time>
      </trkpt>
      <trkpt lat="36.9409279246" lon="-1.9353888184">
        <ele>5.42</ele>
        <time>2018-11-06T10:39:10Z</time>
      </trkpt>
      <trkpt lat="36.9410668127" lon="-1.9349267241">
        <ele>6.39</ele>
        <time>2018-11-06T10:39:22Z</time>
      </trkpt>
      <trkpt lat="36.9411663897" lon="-1.9346264843">
        <ele>7.83</ele>
        <time>2018-11-06T10:39:31Z</time>
      </trkpt>
      <trkpt lat="36.9412896037" lon="-1.9342099037">
        <ele>9.27</ele>
        <time>2018-11-06T10:39:43Z</time>
      </trkpt>
      <trkpt lat="36.9414015859" lon="-1.9339270145">
        <ele>10.23</ele>
        <time>2018-11-06T10:39:52Z</time>
      </trkpt>
      <trkpt lat="36.9415315054" lon="-1.9336608052">
        <ele>11.67</ele>
        <time>2018-11-06T10:40:02Z</time>
      </trkpt>
      <trkpt lat="36.9416124746" lon="-1.9335105177">
        <ele>13.12</ele>
        <time>2018-11-06T10:40:10Z</time>
      </trkpt>
      <trkpt lat="36.9416391291" lon="-1.9334682729">
        <ele>13.60</ele>
        <time>2018-11-06T10:40:13Z</time>
      </trkpt>
      <trkpt lat="36.9416471757" lon="-1.9334540237">
        <ele>14.08</ele>
        <time>2018-11-06T10:40:14Z</time>
      </trkpt>
      <trkpt lat="36.9416548871" lon="-1.9334365893">
        <ele>14.08</ele>
        <time>2018-11-06T10:40:15Z</time>
      </trkpt>
      <trkpt lat="36.9416650292" lon="-1.9334200770">
        <ele>14.08</ele>
        <time>2018-11-06T10:40:16Z</time>
      </trkpt>
      <trkpt lat="36.9416771829" lon="-1.9334101863">
        <ele>14.08</ele>
        <time>2018-11-06T10:40:17Z</time>
      </trkpt>
      <trkpt lat="36.9416905101" lon="-1.9333997089">
        <ele>14.56</ele>
        <time>2018-11-06T10:40:18Z</time>
      </trkpt>
      <trkpt lat="36.9417015743" lon="-1.9333868008">
        <ele>15.04</ele>
        <time>2018-11-06T10:40:19Z</time>
      </trkpt>
      <trkpt lat="36.9417116325" lon="-1.9333712943">
        <ele>15.04</ele>
        <time>2018-11-06T10:40:20Z</time>
      </trkpt>
      <trkpt lat="36.9417195115" lon="-1.9333593082">
        <ele>15.04</ele>
        <time>2018-11-06T10:40:21Z</time>
      </trkpt>
      <trkpt lat="36.9417288993" lon="-1.9333526026">
        <ele>15.52</ele>
        <time>2018-11-06T10:40:22Z</time>
      </trkpt>
      <trkpt lat="36.9417480938" lon="-1.9333320670">
        <ele>15.52</ele>
        <time>2018-11-06T10:40:24Z</time>
      </trkpt>
      <trkpt lat="36.9417546317" lon="-1.9333188236">
        <ele>16.00</ele>
        <time>2018-11-06T10:40:25Z</time>
      </trkpt>
      <trkpt lat="36.9417629298" lon="-1.9333019760">
        <ele>16.00</ele>
        <time>2018-11-06T10:40:26Z</time>
      </trkpt>
      <trkpt lat="36.9417728204" lon="-1.9332882296">
        <ele>16.00</ele>
        <time>2018-11-06T10:40:27Z</time>
      </trkpt>
      <trkpt lat="36.9417808671" lon="-1.9332748186">
        <ele>16.00</ele>
        <time>2018-11-06T10:40:28Z</time>
      </trkpt>
      <trkpt lat="36.9417883269" lon="-1.9332596473">
        <ele>16.00</ele>
        <time>2018-11-06T10:40:29Z</time>
      </trkpt>
      <trkpt lat="36.9417971279" lon="-1.9332474098">
        <ele>16.00</ele>
        <time>2018-11-06T10:40:30Z</time>
      </trkpt>
      <trkpt lat="36.9418081082" lon="-1.9332328252">
        <ele>16.00</ele>
        <time>2018-11-06T10:40:31Z</time>
      </trkpt>
      <trkpt lat="36.9418199267" lon="-1.9332156423">
        <ele>16.00</ele>
        <time>2018-11-06T10:40:32Z</time>
      </trkpt>
      <trkpt lat="36.9418325834" lon="-1.9331977051">
        <ele>16.00</ele>
        <time>2018-11-06T10:40:33Z</time>
      </trkpt>
      <trkpt lat="36.9418444019" lon="-1.9331802707">
        <ele>16.00</ele>
        <time>2018-11-06T10:40:34Z</time>
      </trkpt>
      <trkpt lat="36.9418568909" lon="-1.9331621658">
        <ele>16.48</ele>
        <time>2018-11-06T10:40:35Z</time>
      </trkpt>
      <trkpt lat="36.9418676198" lon="-1.9331448991">
        <ele>16.48</ele>
        <time>2018-11-06T10:40:36Z</time>
      </trkpt>
      <trkpt lat="36.9420046639" lon="-1.9329593237">
        <ele>17.92</ele>
        <time>2018-11-06T10:40:48Z</time>
      </trkpt>
      <trkpt lat="36.9421014749" lon="-1.9328121375">
        <ele>19.36</ele>
        <time>2018-11-06T10:40:57Z</time>
      </trkpt>
      <trkpt lat="36.9421747327" lon="-1.9326839782">
        <ele>20.32</ele>
        <time>2018-11-06T10:41:04Z</time>
      </trkpt>
      <trkpt lat="36.9423177280" lon="-1.9324967265">
        <ele>20.81</ele>
        <time>2018-11-06T10:41:14Z</time>
      </trkpt>
      <trkpt lat="36.9424180593" lon="-1.9323453493">
        <ele>21.29</ele>
        <time>2018-11-06T10:41:22Z</time>
      </trkpt>
      <trkpt lat="36.9425368309" lon="-1.9321770407">
        <ele>22.25</ele>
        <time>2018-11-06T10:41:31Z</time>
      </trkpt>
      <trkpt lat="36.9426639006" lon="-1.9320194609">
        <ele>22.25</ele>
        <time>2018-11-06T10:41:40Z</time>
      </trkpt>
      <trkpt lat="36.9427858572" lon="-1.9318524934">
        <ele>22.73</ele>
        <time>2018-11-06T10:41:49Z</time>
      </trkpt>
      <trkpt lat="36.9429104961" lon="-1.9317053072">
        <ele>23.69</ele>
        <time>2018-11-06T10:41:58Z</time>
      </trkpt>
      <trkpt lat="36.9430588558" lon="-1.9315405190">
        <ele>24.17</ele>
        <time>2018-11-06T10:42:08Z</time>
      </trkpt>
      <trkpt lat="36.9432057068" lon="-1.9314095937">
        <ele>25.61</ele>
        <time>2018-11-06T10:42:17Z</time>
      </trkpt>
      <trkpt lat="36.9433455169" lon="-1.9312821887">
        <ele>27.05</ele>
        <time>2018-11-06T10:42:26Z</time>
      </trkpt>
      <trkpt lat="36.9434553199" lon="-1.9311589748">
        <ele>28.02</ele>
        <time>2018-11-06T10:42:35Z</time>
      </trkpt>
      <trkpt lat="36.9435819704" lon="-1.9310267922">
        <ele>29.46</ele>
        <time>2018-11-06T10:42:44Z</time>
      </trkpt>
      <trkpt lat="36.9436289929" lon="-1.9309661910">
        <ele>29.46</ele>
        <time>2018-11-06T10:42:51Z</time>
      </trkpt>
      <trkpt lat="36.9436703995" lon="-1.9309016503">
        <ele>29.46</ele>
        <time>2018-11-06T10:42:58Z</time>
      </trkpt>
      <trkpt lat="36.9437037595" lon="-1.9308317453">
        <ele>29.46</ele>
        <time>2018-11-06T10:43:05Z</time>
      </trkpt>
      <trkpt lat="36.9436994009" lon="-1.9308409654">
        <ele>29.94</ele>
        <time>2018-11-06T10:43:12Z</time>
      </trkpt>
      <trkpt lat="36.9437087886" lon="-1.9308183342">
        <ele>26.57</ele>
        <time>2018-11-06T10:43:29Z</time>
      </trkpt>
      <trkpt lat="36.9437196851" lon="-1.9308177475">
        <ele>27.53</ele>
        <time>2018-11-06T10:43:43Z</time>
      </trkpt>
      <trkpt lat="36.9437090401" lon="-1.9308320805">
        <ele>28.98</ele>
        <time>2018-11-06T10:43:59Z</time>
      </trkpt>
      <trkpt lat="36.9437188469" lon="-1.9308410492">
        <ele>26.57</ele>
        <time>2018-11-06T10:44:18Z</time>
      </trkpt>
      <trkpt lat="36.9437110517" lon="-1.9308340084">
        <ele>26.57</ele>
        <time>2018-11-06T10:44:33Z</time>
      </trkpt>
      <trkpt lat="36.9437074475" lon="-1.9308364391">
        <ele>28.50</ele>
        <time>2018-11-06T10:44:53Z</time>
      </trkpt>
      <trkpt lat="36.9437170867" lon="-1.9308483414">
        <ele>27.05</ele>
        <time>2018-11-06T10:45:12Z</time>
      </trkpt>
      <trkpt lat="36.9437064417" lon="-1.9308416359">
        <ele>25.61</ele>
        <time>2018-11-06T10:45:29Z</time>
      </trkpt>
      <trkpt lat="36.9437139016" lon="-1.9308464136">
        <ele>25.13</ele>
        <time>2018-11-06T10:45:46Z</time>
      </trkpt>
      <trkpt lat="36.9437060226" lon="-1.9308307394">
        <ele>26.57</ele>
        <time>2018-11-06T10:46:02Z</time>
      </trkpt>
      <trkpt lat="36.9437108003" lon="-1.9308440667">
        <ele>28.02</ele>
        <time>2018-11-06T10:46:21Z</time>
      </trkpt>
      <trkpt lat="36.9437154941" lon="-1.9308458269">
        <ele>29.94</ele>
        <time>2018-11-06T10:46:38Z</time>
      </trkpt>
      <trkpt lat="36.9437175896" lon="-1.9308374450">
        <ele>28.98</ele>
        <time>2018-11-06T10:46:59Z</time>
      </trkpt>
      <trkpt lat="36.9437201880" lon="-1.9308417197">
        <ele>28.50</ele>
        <time>2018-11-06T10:47:19Z</time>
      </trkpt>
      <trkpt lat="36.9437027536" lon="-1.9308409654">
        <ele>30.90</ele>
        <time>2018-11-06T10:47:33Z</time>
      </trkpt>
      <trkpt lat="36.9437012449" lon="-1.9308429770">
        <ele>30.90</ele>
        <time>2018-11-06T10:47:53Z</time>
      </trkpt>
      <trkpt lat="36.9437056035" lon="-1.9308343437">
        <ele>29.94</ele>
        <time>2018-11-06T10:48:05Z</time>
      </trkpt>
      <trkpt lat="36.9437370356" lon="-1.9307774305">
        <ele>30.42</ele>
        <time>2018-11-06T10:48:13Z</time>
      </trkpt>
      <trkpt lat="36.9437544700" lon="-1.9307628460">
        <ele>29.94</ele>
        <time>2018-11-06T10:48:19Z</time>
      </trkpt>
      <trkpt lat="36.9438090362" lon="-1.9306460023">
        <ele>30.90</ele>
        <time>2018-11-06T10:48:25Z</time>
      </trkpt>
      <trkpt lat="36.9439169113" lon="-1.9303589221">
        <ele>31.86</ele>
        <time>2018-11-06T10:48:36Z</time>
      </trkpt>
      <trkpt lat="36.9439861458" lon="-1.9300192874">
        <ele>35.23</ele>
        <time>2018-11-06T10:48:48Z</time>
      </trkpt>
      <trkpt lat="36.9441174902" lon="-1.9298118353">
        <ele>37.63</ele>
        <time>2018-11-06T10:48:57Z</time>
      </trkpt>
      <trkpt lat="36.9442931749" lon="-1.9297494739">
        <ele>38.59</ele>
        <time>2018-11-06T10:49:05Z</time>
      </trkpt>
      <trkpt lat="36.9444348291" lon="-1.9297462888">
        <ele>39.55</ele>
        <time>2018-11-06T10:49:13Z</time>
      </trkpt>
      <trkpt lat="36.9446544349" lon="-1.9297589455">
        <ele>40.99</ele>
        <time>2018-11-06T10:49:24Z</time>
      </trkpt>
      <trkpt lat="36.9448180497" lon="-1.9297527429">
        <ele>41.95</ele>
        <time>2018-11-06T10:49:33Z</time>
      </trkpt>
      <trkpt lat="36.9449186325" lon="-1.9296920579">
        <ele>43.40</ele>
        <time>2018-11-06T10:49:40Z</time>
      </trkpt>
      <trkpt lat="36.9449793175" lon="-1.9295293652">
        <ele>44.84</ele>
        <time>2018-11-06T10:49:48Z</time>
      </trkpt>
      <trkpt lat="36.9449621346" lon="-1.9293832686">
        <ele>46.76</ele>
        <time>2018-11-06T10:49:57Z</time>
      </trkpt>
      <trkpt lat="36.9449498132" lon="-1.9292870443">
        <ele>48.20</ele>
        <time>2018-11-06T10:50:02Z</time>
      </trkpt>
      <trkpt lat="36.9449483044" lon="-1.9292693585">
        <ele>48.20</ele>
        <time>2018-11-06T10:50:03Z</time>
      </trkpt>
      <trkpt lat="36.9449415989" lon="-1.9292494096">
        <ele>48.68</ele>
        <time>2018-11-06T10:50:04Z</time>
      </trkpt>
      <trkpt lat="36.9449350610" lon="-1.9292337354">
        <ele>49.16</ele>
        <time>2018-11-06T10:50:05Z</time>
      </trkpt>
      <trkpt lat="36.9449260924" lon="-1.9292153791">
        <ele>49.16</ele>
        <time>2018-11-06T10:50:06Z</time>
      </trkpt>
      <trkpt lat="36.9449176267" lon="-1.9291816838">
        <ele>49.65</ele>
        <time>2018-11-06T10:50:08Z</time>
      </trkpt>
      <trkpt lat="36.9449150283" lon="-1.9291666802">
        <ele>50.13</ele>
        <time>2018-11-06T10:50:09Z</time>
      </trkpt>
      <trkpt lat="36.9448815845" lon="-1.9290556200">
        <ele>51.57</ele>
        <time>2018-11-06T10:50:18Z</time>
      </trkpt>
      <trkpt lat="36.9448609650" lon="-1.9289559592">
        <ele>53.01</ele>
        <time>2018-11-06T10:50:26Z</time>
      </trkpt>
      <trkpt lat="36.9448556006" lon="-1.9289277960">
        <ele>53.01</ele>
        <time>2018-11-06T10:50:28Z</time>
      </trkpt>
      <trkpt lat="36.9448536728" lon="-1.9289117027">
        <ele>53.49</ele>
        <time>2018-11-06T10:50:29Z</time>
      </trkpt>
      <trkpt lat="36.9448268507" lon="-1.9287960324">
        <ele>53.97</ele>
        <time>2018-11-06T10:50:37Z</time>
      </trkpt>
      <trkpt lat="36.9448242523" lon="-1.9287804421">
        <ele>53.97</ele>
        <time>2018-11-06T10:50:38Z</time>
      </trkpt>
      <trkpt lat="36.9448425248" lon="-1.9287176616">
        <ele>54.45</ele>
        <time>2018-11-06T10:50:43Z</time>
      </trkpt>
      <trkpt lat="36.9448357355" lon="-1.9286249578">
        <ele>55.41</ele>
        <time>2018-11-06T10:50:50Z</time>
      </trkpt>
      <trkpt lat="36.9448478054" lon="-1.9285923522">
        <ele>56.37</ele>
        <time>2018-11-06T10:50:55Z</time>
      </trkpt>
      <trkpt lat="36.9449004438" lon="-1.9285100419">
        <ele>57.34</ele>
        <time>2018-11-06T10:51:05Z</time>
      </trkpt>
      <trkpt lat="36.9449765515" lon="-1.9283987302">
        <ele>59.74</ele>
        <time>2018-11-06T10:51:16Z</time>
      </trkpt>
      <trkpt lat="36.9450879470" lon="-1.9282818865">
        <ele>60.70</ele>
        <time>2018-11-06T10:51:28Z</time>
      </trkpt>
      <trkpt lat="36.9451850932" lon="-1.9281435013">
        <ele>61.18</ele>
        <time>2018-11-06T10:51:41Z</time>
      </trkpt>
      <trkpt lat="36.9452076405" lon="-1.9280376378">
        <ele>62.14</ele>
        <time>2018-11-06T10:51:50Z</time>
      </trkpt>
      <trkpt lat="36.9452069700" lon="-1.9280414935">
        <ele>63.58</ele>
        <time>2018-11-06T10:52:09Z</time>
      </trkpt>
      <trkpt lat="36.9452309422" lon="-1.9279963989">
        <ele>63.58</ele>
        <time>2018-11-06T10:52:20Z</time>
      </trkpt>
      <trkpt lat="36.9452398270" lon="-1.9278416689">
        <ele>64.55</ele>
        <time>2018-11-06T10:52:30Z</time>
      </trkpt>
      <trkpt lat="36.9452361390" lon="-1.9276482146">
        <ele>65.99</ele>
        <time>2018-11-06T10:52:43Z</time>
      </trkpt>
      <trkpt lat="36.9452348817" lon="-1.9275906309">
        <ele>66.47</ele>
        <time>2018-11-06T10:52:50Z</time>
      </trkpt>
      <trkpt lat="36.9452265836" lon="-1.9275846798">
        <ele>66.95</ele>
        <time>2018-11-06T10:52:59Z</time>
      </trkpt>
      <trkpt lat="36.9452238176" lon="-1.9275906309">
        <ele>66.95</ele>
        <time>2018-11-06T10:53:12Z</time>
      </trkpt>
      <trkpt lat="36.9452263322" lon="-1.9275995996">
        <ele>65.51</ele>
        <time>2018-11-06T10:53:43Z</time>
      </trkpt>
      <trkpt lat="36.9452240691" lon="-1.9275831711">
        <ele>66.95</ele>
        <time>2018-11-06T10:54:02Z</time>
      </trkpt>
      <trkpt lat="36.9452259969" lon="-1.9275727775">
        <ele>67.43</ele>
        <time>2018-11-06T10:54:27Z</time>
      </trkpt>
      <trkpt lat="36.9452304393" lon="-1.9275968336">
        <ele>68.87</ele>
        <time>2018-11-06T10:54:50Z</time>
      </trkpt>
      <trkpt lat="36.9452257454" lon="-1.9275933970">
        <ele>68.87</ele>
        <time>2018-11-06T10:55:09Z</time>
      </trkpt>
      <trkpt lat="36.9452210516" lon="-1.9275947381">
        <ele>67.91</ele>
        <time>2018-11-06T10:55:23Z</time>
      </trkpt>
      <trkpt lat="36.9452229794" lon="-1.9276015274">
        <ele>67.91</ele>
        <time>2018-11-06T10:55:39Z</time>
      </trkpt>
      <trkpt lat="36.9452387374" lon="-1.9275937323">
        <ele>68.39</ele>
        <time>2018-11-06T10:55:51Z</time>
      </trkpt>
      <trkpt lat="36.9452506397" lon="-1.9275722746">
        <ele>68.39</ele>
        <time>2018-11-06T10:55:53Z</time>
      </trkpt>
      <trkpt lat="36.9452555850" lon="-1.9275586121">
        <ele>68.39</ele>
        <time>2018-11-06T10:55:54Z</time>
      </trkpt>
      <trkpt lat="36.9452619553" lon="-1.9275454525">
        <ele>68.87</ele>
        <time>2018-11-06T10:55:55Z</time>
      </trkpt>
      <trkpt lat="36.9453421701" lon="-1.9274222385">
        <ele>70.31</ele>
        <time>2018-11-06T10:56:05Z</time>
      </trkpt>
      <trkpt lat="36.9454605225" lon="-1.9273341447">
        <ele>71.27</ele>
        <time>2018-11-06T10:56:16Z</time>
      </trkpt>
      <trkpt lat="36.9455808867" lon="-1.9272505771">
        <ele>72.72</ele>
        <time>2018-11-06T10:56:27Z</time>
      </trkpt>
      <trkpt lat="36.9456625264" lon="-1.9271307159">
        <ele>74.64</ele>
        <time>2018-11-06T10:56:37Z</time>
      </trkpt>
      <trkpt lat="36.9456633646" lon="-1.9270769041">
        <ele>74.64</ele>
        <time>2018-11-06T10:56:44Z</time>
      </trkpt>
      <trkpt lat="36.9456621911" lon="-1.9270317256">
        <ele>74.64</ele>
        <time>2018-11-06T10:56:54Z</time>
      </trkpt>
      <trkpt lat="36.9456188567" lon="-1.9269187376">
        <ele>76.56</ele>
        <time>2018-11-06T10:57:04Z</time>
      </trkpt>
      <trkpt lat="36.9455756061" lon="-1.9268553704">
        <ele>76.56</ele>
        <time>2018-11-06T10:57:11Z</time>
      </trkpt>
      <trkpt lat="36.9454619475" lon="-1.9267983735">
        <ele>78.48</ele>
        <time>2018-11-06T10:57:21Z</time>
      </trkpt>
      <trkpt lat="36.9454491232" lon="-1.9268043246">
        <ele>79.45</ele>
        <time>2018-11-06T10:57:27Z</time>
      </trkpt>
      <trkpt lat="36.9453887735" lon="-1.9268048275">
        <ele>81.37</ele>
        <time>2018-11-06T10:57:35Z</time>
      </trkpt>
      <trkpt lat="36.9452696666" lon="-1.9268098567">
        <ele>83.29</ele>
        <time>2018-11-06T10:57:46Z</time>
      </trkpt>
      <trkpt lat="36.9450774696" lon="-1.9267520215">
        <ele>85.21</ele>
        <time>2018-11-06T10:58:01Z</time>
      </trkpt>
      <trkpt lat="36.9449478853" lon="-1.9266556296">
        <ele>86.66</ele>
        <time>2018-11-06T10:58:13Z</time>
      </trkpt>
      <trkpt lat="36.9448691793" lon="-1.9265459944">
        <ele>87.62</ele>
        <time>2018-11-06T10:58:24Z</time>
      </trkpt>
      <trkpt lat="36.9448735379" lon="-1.9265508559">
        <ele>87.62</ele>
        <time>2018-11-06T10:58:33Z</time>
      </trkpt>
      <trkpt lat="36.9448570255" lon="-1.9265163224">
        <ele>88.10</ele>
        <time>2018-11-06T10:58:43Z</time>
      </trkpt>
      <trkpt lat="36.9448467158" lon="-1.9265023246">
        <ele>87.62</ele>
        <time>2018-11-06T10:58:44Z</time>
      </trkpt>
      <trkpt lat="36.9448375795" lon="-1.9264817890">
        <ele>88.10</ele>
        <time>2018-11-06T10:58:45Z</time>
      </trkpt>
      <trkpt lat="36.9448321313" lon="-1.9264613371">
        <ele>88.10</ele>
        <time>2018-11-06T10:58:46Z</time>
      </trkpt>
      <trkpt lat="36.9448289461" lon="-1.9264386222">
        <ele>88.10</ele>
        <time>2018-11-06T10:58:47Z</time>
      </trkpt>
      <trkpt lat="36.9448249228" lon="-1.9264197629">
        <ele>88.10</ele>
        <time>2018-11-06T10:58:48Z</time>
      </trkpt>
      <trkpt lat="36.9447836839" lon="-1.9261828065">
        <ele>89.06</ele>
        <time>2018-11-06T10:58:57Z</time>
      </trkpt>
      <trkpt lat="36.9447756372" lon="-1.9259076286">
        <ele>90.02</ele>
        <time>2018-11-06T10:59:07Z</time>
      </trkpt>
      <trkpt lat="36.9448029622" lon="-1.9255817402">
        <ele>91.46</ele>
        <time>2018-11-06T10:59:19Z</time>
      </trkpt>
      <trkpt lat="36.9448623899" lon="-1.9253564347">
        <ele>91.46</ele>
        <time>2018-11-06T10:59:27Z</time>
      </trkpt>
      <trkpt lat="36.9449684210" lon="-1.9250353239">
        <ele>90.98</ele>
        <time>2018-11-06T10:59:36Z</time>
      </trkpt>
      <trkpt lat="36.9451292697" lon="-1.9246241078">
        <ele>91.46</ele>
        <time>2018-11-06T10:59:46Z</time>
      </trkpt>
      <trkpt lat="36.9452777132" lon="-1.9242312480">
        <ele>91.94</ele>
        <time>2018-11-06T10:59:56Z</time>
      </trkpt>
      <trkpt lat="36.9454459380" lon="-1.9237924553">
        <ele>92.90</ele>
        <time>2018-11-06T11:00:07Z</time>
      </trkpt>
      <trkpt lat="36.9456012547" lon="-1.9233566802">
        <ele>92.90</ele>
        <time>2018-11-06T11:00:18Z</time>
      </trkpt>
      <trkpt lat="36.9457234628" lon="-1.9230327196">
        <ele>92.90</ele>
        <time>2018-11-06T11:00:28Z</time>
      </trkpt>
      <trkpt lat="36.9458028395" lon="-1.9227515068">
        <ele>92.42</ele>
        <time>2018-11-06T11:00:36Z</time>
      </trkpt>
      <trkpt lat="36.9458744209" lon="-1.9223205093">
        <ele>90.50</ele>
        <time>2018-11-06T11:00:44Z</time>
      </trkpt>
      <trkpt lat="36.9459369499" lon="-1.9217689801">
        <ele>88.10</ele>
        <time>2018-11-06T11:00:51Z</time>
      </trkpt>
      <trkpt lat="36.9460510276" lon="-1.9208460487">
        <ele>85.69</ele>
        <time>2018-11-06T11:01:01Z</time>
      </trkpt>
      <trkpt lat="36.9461236149" lon="-1.9202396180">
        <ele>86.18</ele>
        <time>2018-11-06T11:01:09Z</time>
      </trkpt>
      <trkpt lat="36.9461730681" lon="-1.9198100455">
        <ele>88.10</ele>
        <time>2018-11-06T11:01:17Z</time>
      </trkpt>
      <trkpt lat="36.9461983815" lon="-1.9192692451">
        <ele>90.02</ele>
        <time>2018-11-06T11:01:28Z</time>
      </trkpt>
      <trkpt lat="36.9461266324" lon="-1.9187212363">
        <ele>88.10</ele>
        <time>2018-11-06T11:01:38Z</time>
      </trkpt>
      <trkpt lat="36.9460299890" lon="-1.9181264564">
        <ele>85.21</ele>
        <time>2018-11-06T11:01:46Z</time>
      </trkpt>
      <trkpt lat="36.9460509438" lon="-1.9175425731">
        <ele>81.37</ele>
        <time>2018-11-06T11:01:52Z</time>
      </trkpt>
      <trkpt lat="36.9462265447" lon="-1.9170340430">
        <ele>79.45</ele>
        <time>2018-11-06T11:01:57Z</time>
      </trkpt>
      <trkpt lat="36.9462773390" lon="-1.9169410039">
        <ele>78.97</ele>
        <time>2018-11-06T11:01:58Z</time>
      </trkpt>
      <trkpt lat="36.9463340007" lon="-1.9168582745">
        <ele>78.97</ele>
        <time>2018-11-06T11:01:59Z</time>
      </trkpt>
      <trkpt lat="36.9463934284" lon="-1.9167873636">
        <ele>78.97</ele>
        <time>2018-11-06T11:02:00Z</time>
      </trkpt>
      <trkpt lat="36.9464574661" lon="-1.9167246670">
        <ele>78.97</ele>
        <time>2018-11-06T11:02:01Z</time>
      </trkpt>
      <trkpt lat="36.9465255272" lon="-1.9166638982">
        <ele>78.48</ele>
        <time>2018-11-06T11:02:02Z</time>
      </trkpt>
      <trkpt lat="36.9470434450" lon="-1.9162409473">
        <ele>77.52</ele>
        <time>2018-11-06T11:02:10Z</time>
      </trkpt>
      <trkpt lat="36.9475101493" lon="-1.9158589840">
        <ele>77.04</ele>
        <time>2018-11-06T11:02:18Z</time>
      </trkpt>
      <trkpt lat="36.9478535559" lon="-1.9154758472">
        <ele>76.08</ele>
        <time>2018-11-06T11:02:25Z</time>
      </trkpt>
      <trkpt lat="36.9479538873" lon="-1.9152715802">
        <ele>76.56</ele>
        <time>2018-11-06T11:02:28Z</time>
      </trkpt>
      <trkpt lat="36.9481646083" lon="-1.9145982619">
        <ele>76.08</ele>
        <time>2018-11-06T11:02:38Z</time>
      </trkpt>
      <trkpt lat="36.9484107010" lon="-1.9137895759">
        <ele>73.20</ele>
        <time>2018-11-06T11:02:50Z</time>
      </trkpt>
      <trkpt lat="36.9485930074" lon="-1.9131785352">
        <ele>74.64</ele>
        <time>2018-11-06T11:02:59Z</time>
      </trkpt>
      <trkpt lat="36.9487749785" lon="-1.9125744514">
        <ele>76.08</ele>
        <time>2018-11-06T11:03:10Z</time>
      </trkpt>
      <trkpt lat="36.9489290379" lon="-1.9121295400">
        <ele>75.60</ele>
        <time>2018-11-06T11:03:20Z</time>
      </trkpt>
      <trkpt lat="36.9491004478" lon="-1.9116949383">
        <ele>73.20</ele>
        <time>2018-11-06T11:03:27Z</time>
      </trkpt>
      <trkpt lat="36.9493331295" lon="-1.9110794552">
        <ele>69.35</ele>
        <time>2018-11-06T11:03:34Z</time>
      </trkpt>
      <trkpt lat="36.9496302679" lon="-1.9103096612">
        <ele>65.51</ele>
        <time>2018-11-06T11:03:41Z</time>
      </trkpt>
      <trkpt lat="36.9500971399" lon="-1.9090785272">
        <ele>59.26</ele>
        <time>2018-11-06T11:03:51Z</time>
      </trkpt>
      <trkpt lat="36.9505272154" lon="-1.9079645723">
        <ele>56.86</ele>
        <time>2018-11-06T11:04:00Z</time>
      </trkpt>
      <trkpt lat="36.9507193286" lon="-1.9075128715">
        <ele>59.26</ele>
        <time>2018-11-06T11:04:05Z</time>
      </trkpt>
      <trkpt lat="36.9508904871" lon="-1.9071402121">
        <ele>61.18</ele>
        <time>2018-11-06T11:04:11Z</time>
      </trkpt>
      <trkpt lat="36.9511009566" lon="-1.9067602605">
        <ele>64.07</ele>
        <time>2018-11-06T11:04:19Z</time>
      </trkpt>
      <trkpt lat="36.9512243383" lon="-1.9066093024">
        <ele>65.51</ele>
        <time>2018-11-06T11:04:23Z</time>
      </trkpt>
      <trkpt lat="36.9514274318" lon="-1.9064195361">
        <ele>66.95</ele>
        <time>2018-11-06T11:04:30Z</time>
      </trkpt>
      <trkpt lat="36.9516369794" lon="-1.9062237348">
        <ele>67.91</ele>
        <time>2018-11-06T11:04:38Z</time>
      </trkpt>
      <trkpt lat="36.9518460240" lon="-1.9059870299">
        <ele>69.35</ele>
        <time>2018-11-06T11:04:47Z</time>
      </trkpt>
      <trkpt lat="36.9520248100" lon="-1.9057677593">
        <ele>68.87</ele>
        <time>2018-11-06T11:04:56Z</time>
      </trkpt>
      <trkpt lat="36.9522330165" lon="-1.9055015501">
        <ele>69.35</ele>
        <time>2018-11-06T11:05:05Z</time>
      </trkpt>
      <trkpt lat="36.9523418136" lon="-1.9053092692">
        <ele>69.83</ele>
        <time>2018-11-06T11:05:12Z</time>
      </trkpt>
      <trkpt lat="36.9523310009" lon="-1.9052892365">
        <ele>69.83</ele>
        <time>2018-11-06T11:05:13Z</time>
      </trkpt>
      <trkpt lat="36.9523232058" lon="-1.9052623305">
        <ele>69.83</ele>
        <time>2018-11-06T11:05:14Z</time>
      </trkpt>
      <trkpt lat="36.9523276482" lon="-1.9052326586">
        <ele>69.35</ele>
        <time>2018-11-06T11:05:15Z</time>
      </trkpt>
      <trkpt lat="36.9523412269" lon="-1.9052056689">
        <ele>69.35</ele>
        <time>2018-11-06T11:05:16Z</time>
      </trkpt>
      <trkpt lat="36.9523611758" lon="-1.9051773380">
        <ele>69.35</ele>
        <time>2018-11-06T11:05:17Z</time>
      </trkpt>
      <trkpt lat="36.9523840584" lon="-1.9051492587">
        <ele>68.87</ele>
        <time>2018-11-06T11:05:18Z</time>
      </trkpt>
      <trkpt lat="36.9524107128" lon="-1.9051148929">
        <ele>68.87</ele>
        <time>2018-11-06T11:05:19Z</time>
      </trkpt>
      <trkpt lat="36.9526878186" lon="-1.9047527108">
        <ele>68.39</ele>
        <time>2018-11-06T11:05:29Z</time>
      </trkpt>
      <trkpt lat="36.9528839551" lon="-1.9044797961">
        <ele>69.83</ele>
        <time>2018-11-06T11:05:37Z</time>
      </trkpt>
      <trkpt lat="36.9530041516" lon="-1.9042892754">
        <ele>69.35</ele>
        <time>2018-11-06T11:05:46Z</time>
      </trkpt>
      <trkpt lat="36.9530049898" lon="-1.9042788818">
        <ele>69.35</ele>
        <time>2018-11-06T11:05:52Z</time>
      </trkpt>
      <trkpt lat="36.9530073367" lon="-1.9042872638">
        <ele>68.39</ele>
        <time>2018-11-06T11:06:07Z</time>
      </trkpt>
      <trkpt lat="36.9529990386" lon="-1.9042849168">
        <ele>67.91</ele>
        <time>2018-11-06T11:06:28Z</time>
      </trkpt>
      <trkpt lat="36.9530049898" lon="-1.9042826537">
        <ele>68.87</ele>
        <time>2018-11-06T11:06:44Z</time>
      </trkpt>
      <trkpt lat="36.9530027267" lon="-1.9042818993">
        <ele>69.35</ele>
        <time>2018-11-06T11:06:56Z</time>
      </trkpt>
      <trkpt lat="36.9529987872" lon="-1.9042829052">
        <ele>70.31</ele>
        <time>2018-11-06T11:07:11Z</time>
      </trkpt>
      <trkpt lat="36.9529990386" lon="-1.9042826537">
        <ele>70.31</ele>
        <time>2018-11-06T11:07:28Z</time>
      </trkpt>
      <trkpt lat="36.9530034810" lon="-1.9042787142">
        <ele>70.31</ele>
        <time>2018-11-06T11:07:46Z</time>
      </trkpt>
      <trkpt lat="36.9530057441" lon="-1.9042773731">
        <ele>70.31</ele>
        <time>2018-11-06T11:08:05Z</time>
      </trkpt>
      <trkpt lat="36.9530045707" lon="-1.9042791333">
        <ele>70.31</ele>
        <time>2018-11-06T11:08:18Z</time>
      </trkpt>
      <trkpt lat="36.9530074205" lon="-1.9042791333">
        <ele>69.35</ele>
        <time>2018-11-06T11:08:30Z</time>
      </trkpt>
      <trkpt lat="36.9530147966" lon="-1.9042802230">
        <ele>69.35</ele>
        <time>2018-11-06T11:08:32Z</time>
      </trkpt>
      <trkpt lat="36.9530250225" lon="-1.9042779598">
        <ele>69.35</ele>
        <time>2018-11-06T11:08:33Z</time>
      </trkpt>
      <trkpt lat="36.9530373439" lon="-1.9042734336">
        <ele>69.35</ele>
        <time>2018-11-06T11:08:34Z</time>
      </trkpt>
      <trkpt lat="36.9530522637" lon="-1.9042633753">
        <ele>69.35</ele>
        <time>2018-11-06T11:08:35Z</time>
      </trkpt>
      <trkpt lat="36.9530695304" lon="-1.9042506348">
        <ele>69.35</ele>
        <time>2018-11-06T11:08:36Z</time>
      </trkpt>
      <trkpt lat="36.9530914910" lon="-1.9042372238">
        <ele>69.35</ele>
        <time>2018-11-06T11:08:37Z</time>
      </trkpt>
      <trkpt lat="36.9531160500" lon="-1.9042269140">
        <ele>69.35</ele>
        <time>2018-11-06T11:08:38Z</time>
      </trkpt>
      <trkpt lat="36.9531447161" lon="-1.9042210467">
        <ele>69.35</ele>
        <time>2018-11-06T11:08:39Z</time>
      </trkpt>
      <trkpt lat="36.9531732146" lon="-1.9042170234">
        <ele>68.87</ele>
        <time>2018-11-06T11:08:40Z</time>
      </trkpt>
      <trkpt lat="36.9533826783" lon="-1.9042793848">
        <ele>68.87</ele>
        <time>2018-11-06T11:08:47Z</time>
      </trkpt>
      <trkpt lat="36.9535264280" lon="-1.9043413270">
        <ele>69.35</ele>
        <time>2018-11-06T11:08:53Z</time>
      </trkpt>
      <trkpt lat="36.9536969997" lon="-1.9042447675">
        <ele>68.87</ele>
        <time>2018-11-06T11:09:00Z</time>
      </trkpt>
      <trkpt lat="36.9538969081" lon="-1.9042299315">
        <ele>68.87</ele>
        <time>2018-11-06T11:09:07Z</time>
      </trkpt>
      <trkpt lat="36.9541520532" lon="-1.9041917939">
        <ele>69.35</ele>
        <time>2018-11-06T11:09:17Z</time>
      </trkpt>
      <trkpt lat="36.9543729164" lon="-1.9040234014">
        <ele>68.87</ele>
        <time>2018-11-06T11:09:24Z</time>
      </trkpt>
      <trkpt lat="36.9546243735" lon="-1.9037431106">
        <ele>67.91</ele>
        <time>2018-11-06T11:09:33Z</time>
      </trkpt>
      <trkpt lat="36.9548704661" lon="-1.9033961836">
        <ele>67.91</ele>
        <time>2018-11-06T11:09:42Z</time>
      </trkpt>
      <trkpt lat="36.9550267048" lon="-1.9031166472">
        <ele>67.91</ele>
        <time>2018-11-06T11:09:49Z</time>
      </trkpt>
      <trkpt lat="36.9551171456" lon="-1.9028405473">
        <ele>67.43</ele>
        <time>2018-11-06T11:09:55Z</time>
      </trkpt>
      <trkpt lat="36.9551329874" lon="-1.9027941115">
        <ele>67.43</ele>
        <time>2018-11-06T11:09:56Z</time>
      </trkpt>
      <trkpt lat="36.9553425349" lon="-1.9023758546">
        <ele>66.47</ele>
        <time>2018-11-06T11:10:05Z</time>
      </trkpt>
      <trkpt lat="36.9553657528" lon="-1.9023226295">
        <ele>65.99</ele>
        <time>2018-11-06T11:10:06Z</time>
      </trkpt>
      <trkpt lat="36.9553812593" lon="-1.9022597652">
        <ele>65.99</ele>
        <time>2018-11-06T11:10:07Z</time>
      </trkpt>
      <trkpt lat="36.9553583767" lon="-1.9020697474">
        <ele>65.99</ele>
        <time>2018-11-06T11:10:10Z</time>
      </trkpt>
      <trkpt lat="36.9552770723" lon="-1.9016715232">
        <ele>66.47</ele>
        <time>2018-11-06T11:10:18Z</time>
      </trkpt>
      <trkpt lat="36.9552495796" lon="-1.9014008716">
        <ele>64.55</ele>
        <time>2018-11-06T11:10:25Z</time>
      </trkpt>
      <trkpt lat="36.9552239310" lon="-1.9010578003">
        <ele>62.62</ele>
        <time>2018-11-06T11:10:32Z</time>
      </trkpt>
      <trkpt lat="36.9551314786" lon="-1.9005166646">
        <ele>60.22</ele>
        <time>2018-11-06T11:10:42Z</time>
      </trkpt>
      <trkpt lat="36.9550661836" lon="-1.9004050177">
        <ele>58.78</ele>
        <time>2018-11-06T11:10:47Z</time>
      </trkpt>
      <trkpt lat="36.9550671894" lon="-1.9003862422">
        <ele>58.78</ele>
        <time>2018-11-06T11:10:52Z</time>
      </trkpt>
      <trkpt lat="36.9550690334" lon="-1.9003867451">
        <ele>58.78</ele>
        <time>2018-11-06T11:11:00Z</time>
      </trkpt>
      <trkpt lat="36.9550680276" lon="-1.9003935345">
        <ele>58.30</ele>
        <time>2018-11-06T11:11:25Z</time>
      </trkpt>
      <trkpt lat="36.9550649263" lon="-1.9003929477">
        <ele>57.34</ele>
        <time>2018-11-06T11:11:56Z</time>
      </trkpt>
      <trkpt lat="36.9550627470" lon="-1.9003953785">
        <ele>57.34</ele>
        <time>2018-11-06T11:12:22Z</time>
      </trkpt>
      <trkpt lat="36.9550609868" lon="-1.9003931154">
        <ele>56.37</ele>
        <time>2018-11-06T11:12:44Z</time>
      </trkpt>
      <trkpt lat="36.9550614897" lon="-1.9003906008">
        <ele>55.89</ele>
        <time>2018-11-06T11:13:03Z</time>
      </trkpt>
      <trkpt lat="36.9550633337" lon="-1.9003929477">
        <ele>55.89</ele>
        <time>2018-11-06T11:13:19Z</time>
      </trkpt>
      <trkpt lat="36.9550604839" lon="-1.9003925286">
        <ele>55.89</ele>
        <time>2018-11-06T11:13:38Z</time>
      </trkpt>
      <trkpt lat="36.9550585561" lon="-1.9003915228">
        <ele>55.41</ele>
        <time>2018-11-06T11:13:54Z</time>
      </trkpt>
      <trkpt lat="36.9550567959" lon="-1.9003923610">
        <ele>54.93</ele>
        <time>2018-11-06T11:14:12Z</time>
      </trkpt>
      <trkpt lat="36.9550567120" lon="-1.9003942888">
        <ele>54.45</ele>
        <time>2018-11-06T11:14:34Z</time>
      </trkpt>
      <trkpt lat="36.9550558738" lon="-1.9003950432">
        <ele>54.93</ele>
        <time>2018-11-06T11:14:48Z</time>
      </trkpt>
      <trkpt lat="36.9550564606" lon="-1.9003950432">
        <ele>54.45</ele>
        <time>2018-11-06T11:15:09Z</time>
      </trkpt>
      <trkpt lat="36.9550566282" lon="-1.9003948756">
        <ele>54.45</ele>
        <time>2018-11-06T11:15:25Z</time>
      </trkpt>
      <trkpt lat="36.9550587237" lon="-1.9003930315">
        <ele>53.97</ele>
        <time>2018-11-06T11:15:45Z</time>
      </trkpt>
      <trkpt lat="36.9550593942" lon="-1.9003905170">
        <ele>53.49</ele>
        <time>2018-11-06T11:16:02Z</time>
      </trkpt>
      <trkpt lat="36.9550583046" lon="-1.9003918581">
        <ele>54.45</ele>
        <time>2018-11-06T11:16:19Z</time>
      </trkpt>
      <trkpt lat="36.9550565444" lon="-1.9003933668">
        <ele>54.93</ele>
        <time>2018-11-06T11:16:37Z</time>
      </trkpt>
      <trkpt lat="36.9550555386" lon="-1.9003931992">
        <ele>54.45</ele>
        <time>2018-11-06T11:16:55Z</time>
      </trkpt>
      <trkpt lat="36.9550563768" lon="-1.9003913552">
        <ele>54.45</ele>
        <time>2018-11-06T11:17:12Z</time>
      </trkpt>
      <trkpt lat="36.9550557062" lon="-1.9003911875">
        <ele>53.97</ele>
        <time>2018-11-06T11:17:31Z</time>
      </trkpt>
      <trkpt lat="36.9550558738" lon="-1.9003913552">
        <ele>53.97</ele>
        <time>2018-11-06T11:17:48Z</time>
      </trkpt>
      <trkpt lat="36.9550555386" lon="-1.9003924448">
        <ele>53.97</ele>
        <time>2018-11-06T11:18:08Z</time>
      </trkpt>
      <trkpt lat="36.9550563768" lon="-1.9003937021">
        <ele>54.93</ele>
        <time>2018-11-06T11:18:33Z</time>
      </trkpt>
      <trkpt lat="36.9550567959" lon="-1.9003950432">
        <ele>55.41</ele>
        <time>2018-11-06T11:18:53Z</time>
      </trkpt>
      <trkpt lat="36.9550590590" lon="-1.9003932830">
        <ele>55.89</ele>
        <time>2018-11-06T11:19:12Z</time>
      </trkpt>
      <trkpt lat="36.9550582208" lon="-1.9003937021">
        <ele>55.41</ele>
        <time>2018-11-06T11:19:30Z</time>
      </trkpt>
      <trkpt lat="36.9550681114" lon="-1.9004015811">
        <ele>55.41</ele>
        <time>2018-11-06T11:19:39Z</time>
      </trkpt>
      <trkpt lat="36.9550696202" lon="-1.9004021678">
        <ele>55.41</ele>
        <time>2018-11-06T11:19:45Z</time>
      </trkpt>
      <trkpt lat="36.9551033154" lon="-1.9003676344">
        <ele>55.41</ele>
        <time>2018-11-06T11:19:51Z</time>
      </trkpt>
      <trkpt lat="36.9551167265" lon="-1.9004050177">
        <ele>55.89</ele>
        <time>2018-11-06T11:19:56Z</time>
      </trkpt>
      <trkpt lat="36.9551037345" lon="-1.9004154112">
        <ele>55.89</ele>
        <time>2018-11-06T11:19:57Z</time>
      </trkpt>
      <trkpt lat="36.9551297184" lon="-1.9005024992">
        <ele>57.82</ele>
        <time>2018-11-06T11:20:03Z</time>
      </trkpt>
      <trkpt lat="36.9551365077" lon="-1.9005270582">
        <ele>57.82</ele>
        <time>2018-11-06T11:20:04Z</time>
      </trkpt>
      <trkpt lat="36.9551421236" lon="-1.9005551375">
        <ele>57.82</ele>
        <time>2018-11-06T11:20:05Z</time>
      </trkpt>
      <trkpt lat="36.9551452249" lon="-1.9005832169">
        <ele>58.30</ele>
        <time>2018-11-06T11:20:06Z</time>
      </trkpt>
      <trkpt lat="36.9551481586" lon="-1.9006105419">
        <ele>58.30</ele>
        <time>2018-11-06T11:20:07Z</time>
      </trkpt>
      <trkpt lat="36.9551526848" lon="-1.9006384537">
        <ele>58.78</ele>
        <time>2018-11-06T11:20:08Z</time>
      </trkpt>
      <trkpt lat="36.9552080892" lon="-1.9008807745">
        <ele>60.22</ele>
        <time>2018-11-06T11:20:17Z</time>
      </trkpt>
      <trkpt lat="36.9552398566" lon="-1.9011543598">
        <ele>61.18</ele>
        <time>2018-11-06T11:20:26Z</time>
      </trkpt>
      <trkpt lat="36.9552492443" lon="-1.9014940783">
        <ele>64.07</ele>
        <time>2018-11-06T11:20:36Z</time>
      </trkpt>
      <trkpt lat="36.9552856218" lon="-1.9017305318">
        <ele>65.03</ele>
        <time>2018-11-06T11:20:44Z</time>
      </trkpt>
      <trkpt lat="36.9553496595" lon="-1.9019993395">
        <ele>64.55</ele>
        <time>2018-11-06T11:20:53Z</time>
      </trkpt>
      <trkpt lat="36.9553793315" lon="-1.9022856653">
        <ele>65.03</ele>
        <time>2018-11-06T11:21:01Z</time>
      </trkpt>
      <trkpt lat="36.9553034753" lon="-1.9024768565">
        <ele>65.51</ele>
        <time>2018-11-06T11:21:07Z</time>
      </trkpt>
      <trkpt lat="36.9551390223" lon="-1.9028147310">
        <ele>66.47</ele>
        <time>2018-11-06T11:21:18Z</time>
      </trkpt>
      <trkpt lat="36.9550453126" lon="-1.9031022303">
        <ele>67.43</ele>
        <time>2018-11-06T11:21:27Z</time>
      </trkpt>
      <trkpt lat="36.9549001381" lon="-1.9033845328">
        <ele>68.39</ele>
        <time>2018-11-06T11:21:37Z</time>
      </trkpt>
      <trkpt lat="36.9547023252" lon="-1.9036826771">
        <ele>68.87</ele>
        <time>2018-11-06T11:21:47Z</time>
      </trkpt>
      <trkpt lat="36.9544892572" lon="-1.9039129280">
        <ele>69.83</ele>
        <time>2018-11-06T11:21:56Z</time>
      </trkpt>
      <trkpt lat="36.9542727526" lon="-1.9041003473">
        <ele>69.83</ele>
        <time>2018-11-06T11:22:06Z</time>
      </trkpt>
      <trkpt lat="36.9540485367" lon="-1.9042382296">
        <ele>69.83</ele>
        <time>2018-11-06T11:22:15Z</time>
      </trkpt>
      <trkpt lat="36.9537901226" lon="-1.9042469468">
        <ele>69.35</ele>
        <time>2018-11-06T11:22:23Z</time>
      </trkpt>
      <trkpt lat="36.9534150325" lon="-1.9042572565">
        <ele>69.83</ele>
        <time>2018-11-06T11:22:33Z</time>
      </trkpt>
      <trkpt lat="36.9531398546" lon="-1.9042353798">
        <ele>69.83</ele>
        <time>2018-11-06T11:22:40Z</time>
      </trkpt>
      <trkpt lat="36.9531014655" lon="-1.9042528979">
        <ele>69.83</ele>
        <time>2018-11-06T11:22:41Z</time>
      </trkpt>
      <trkpt lat="36.9530678540" lon="-1.9042772893">
        <ele>69.83</ele>
        <time>2018-11-06T11:22:42Z</time>
      </trkpt>
      <trkpt lat="36.9528894871" lon="-1.9044894353">
        <ele>70.79</ele>
        <time>2018-11-06T11:22:49Z</time>
      </trkpt>
      <trkpt lat="36.9527507666" lon="-1.9046986476">
        <ele>69.83</ele>
        <time>2018-11-06T11:22:55Z</time>
      </trkpt>
      <trkpt lat="36.9524637703" lon="-1.9050686248">
        <ele>69.35</ele>
        <time>2018-11-06T11:23:04Z</time>
      </trkpt>
      <trkpt lat="36.9523661211" lon="-1.9051955268">
        <ele>69.83</ele>
        <time>2018-11-06T11:23:08Z</time>
      </trkpt>
      <trkpt lat="36.9523960445" lon="-1.9052470755">
        <ele>70.31</ele>
        <time>2018-11-06T11:23:11Z</time>
      </trkpt>
      <trkpt lat="36.9524169993" lon="-1.9052379392">
        <ele>70.31</ele>
        <time>2018-11-06T11:23:12Z</time>
      </trkpt>
      <trkpt lat="36.9524400495" lon="-1.9052191637">
        <ele>70.31</ele>
        <time>2018-11-06T11:23:13Z</time>
      </trkpt>
      <trkpt lat="36.9524650276" lon="-1.9051967002">
        <ele>70.31</ele>
        <time>2018-11-06T11:23:14Z</time>
      </trkpt>
      <trkpt lat="36.9526616670" lon="-1.9049772620">
        <ele>70.31</ele>
        <time>2018-11-06T11:23:21Z</time>
      </trkpt>
      <trkpt lat="36.9529086817" lon="-1.9047004916">
        <ele>70.31</ele>
        <time>2018-11-06T11:23:29Z</time>
      </trkpt>
      <trkpt lat="36.9530557003" lon="-1.9045729190">
        <ele>70.31</ele>
        <time>2018-11-06T11:23:33Z</time>
      </trkpt>
      <trkpt lat="36.9534115121" lon="-1.9044388924">
        <ele>69.83</ele>
        <time>2018-11-06T11:23:41Z</time>
      </trkpt>
      <trkpt lat="36.9539271668" lon="-1.9044378866">
        <ele>67.43</ele>
        <time>2018-11-06T11:23:50Z</time>
      </trkpt>
      <trkpt lat="36.9544509519" lon="-1.9044193625">
        <ele>64.07</ele>
        <time>2018-11-06T11:23:57Z</time>
      </trkpt>
      <trkpt lat="36.9548954442" lon="-1.9042536523">
        <ele>61.18</ele>
        <time>2018-11-06T11:24:02Z</time>
      </trkpt>
      <trkpt lat="36.9553159643" lon="-1.9039021991">
        <ele>57.82</ele>
        <time>2018-11-06T11:24:07Z</time>
      </trkpt>
      <trkpt lat="36.9556596223" lon="-1.9036281109">
        <ele>56.37</ele>
        <time>2018-11-06T11:24:11Z</time>
      </trkpt>
      <trkpt lat="36.9557522424" lon="-1.9035821781">
        <ele>55.89</ele>
        <time>2018-11-06T11:24:12Z</time>
      </trkpt>
      <trkpt lat="36.9558503106" lon="-1.9035487343">
        <ele>55.41</ele>
        <time>2018-11-06T11:24:13Z</time>
      </trkpt>
      <trkpt lat="36.9559520669" lon="-1.9035287853">
        <ele>54.45</ele>
        <time>2018-11-06T11:24:14Z</time>
      </trkpt>
      <trkpt lat="36.9560583495" lon="-1.9035219122">
        <ele>53.97</ele>
        <time>2018-11-06T11:24:15Z</time>
      </trkpt>
      <trkpt lat="36.9561668951" lon="-1.9035276957">
        <ele>53.01</ele>
        <time>2018-11-06T11:24:16Z</time>
      </trkpt>
      <trkpt lat="36.9562772848" lon="-1.9035446271">
        <ele>52.05</ele>
        <time>2018-11-06T11:24:17Z</time>
      </trkpt>
      <trkpt lat="36.9563885964" lon="-1.9035719521">
        <ele>51.09</ele>
        <time>2018-11-06T11:24:18Z</time>
      </trkpt>
      <trkpt lat="36.9565007463" lon="-1.9036108442">
        <ele>50.61</ele>
        <time>2018-11-06T11:24:19Z</time>
      </trkpt>
      <trkpt lat="36.9566164166" lon="-1.9036609679">
        <ele>49.65</ele>
        <time>2018-11-06T11:24:20Z</time>
      </trkpt>
      <trkpt lat="36.9574947562" lon="-1.9041217212">
        <ele>44.84</ele>
        <time>2018-11-06T11:24:28Z</time>
      </trkpt>
      <trkpt lat="36.9581378158" lon="-1.9043777883">
        <ele>40.03</ele>
        <time>2018-11-06T11:24:34Z</time>
      </trkpt>
      <trkpt lat="36.9583679829" lon="-1.9043947197">
        <ele>38.59</ele>
        <time>2018-11-06T11:24:36Z</time>
      </trkpt>
      <trkpt lat="36.9591086917" lon="-1.9043134991">
        <ele>31.86</ele>
        <time>2018-11-06T11:24:42Z</time>
      </trkpt>
      <trkpt lat="36.9601538312" lon="-1.9041749462">
        <ele>23.69</ele>
        <time>2018-11-06T11:24:50Z</time>
      </trkpt>
      <trkpt lat="36.9610605855" lon="-1.9039962441">
        <ele>16.48</ele>
        <time>2018-11-06T11:24:57Z</time>
      </trkpt>
      <trkpt lat="36.9616380148" lon="-1.9036217406">
        <ele>12.15</ele>
        <time>2018-11-06T11:25:02Z</time>
      </trkpt>
      <trkpt lat="36.9627600163" lon="-1.9027342647">
        <ele>5.42</ele>
        <time>2018-11-06T11:25:12Z</time>
      </trkpt>
      <trkpt lat="36.9633455761" lon="-1.9022819772">
        <ele>4.46</ele>
        <time>2018-11-06T11:25:18Z</time>
      </trkpt>
      <trkpt lat="36.9639815111" lon="-1.9018508121">
        <ele>4.46</ele>
        <time>2018-11-06T11:25:25Z</time>
      </trkpt>
      <trkpt lat="36.9644986745" lon="-1.9017090742">
        <ele>4.46</ele>
        <time>2018-11-06T11:25:31Z</time>
      </trkpt>
      <trkpt lat="36.9651167560" lon="-1.9016273506">
        <ele>4.46</ele>
        <time>2018-11-06T11:25:39Z</time>
      </trkpt>
      <trkpt lat="36.9656388648" lon="-1.9015619718">
        <ele>5.42</ele>
        <time>2018-11-06T11:25:47Z</time>
      </trkpt>
      <trkpt lat="36.9661047310" lon="-1.9015076570">
        <ele>6.39</ele>
        <time>2018-11-06T11:25:56Z</time>
      </trkpt>
      <trkpt lat="36.9662022125" lon="-1.9014982693">
        <ele>6.87</ele>
        <time>2018-11-06T11:25:58Z</time>
      </trkpt>
      <trkpt lat="36.9667274226" lon="-1.9014177192">
        <ele>6.39</ele>
        <time>2018-11-06T11:26:08Z</time>
      </trkpt>
      <trkpt lat="36.9673259743" lon="-1.9013350736">
        <ele>6.39</ele>
        <time>2018-11-06T11:26:19Z</time>
      </trkpt>
      <trkpt lat="36.9678140525" lon="-1.9012755621">
        <ele>6.87</ele>
        <time>2018-11-06T11:26:28Z</time>
      </trkpt>
      <trkpt lat="36.9682883844" lon="-1.9013040606">
        <ele>7.83</ele>
        <time>2018-11-06T11:26:37Z</time>
      </trkpt>
      <trkpt lat="36.9683356583" lon="-1.9013182260">
        <ele>7.83</ele>
        <time>2018-11-06T11:26:38Z</time>
      </trkpt>
      <trkpt lat="36.9685110915" lon="-1.9014017936">
        <ele>8.31</ele>
        <time>2018-11-06T11:26:42Z</time>
      </trkpt>
      <trkpt lat="36.9685592037" lon="-1.9014183059">
        <ele>8.31</ele>
        <time>2018-11-06T11:26:43Z</time>
      </trkpt>
      <trkpt lat="36.9688905403" lon="-1.9014999457">
        <ele>9.27</ele>
        <time>2018-11-06T11:26:49Z</time>
      </trkpt>
      <trkpt lat="36.9694718253" lon="-1.9016591180">
        <ele>9.75</ele>
        <time>2018-11-06T11:26:59Z</time>
      </trkpt>
      <trkpt lat="36.9701850414" lon="-1.9018285163">
        <ele>9.75</ele>
        <time>2018-11-06T11:27:11Z</time>
      </trkpt>
      <trkpt lat="36.9706591219" lon="-1.9018736947">
        <ele>9.27</ele>
        <time>2018-11-06T11:27:20Z</time>
      </trkpt>
      <trkpt lat="36.9711477030" lon="-1.9018967450">
        <ele>8.79</ele>
        <time>2018-11-06T11:27:30Z</time>
      </trkpt>
      <trkpt lat="36.9711968210" lon="-1.9018899556">
        <ele>8.79</ele>
        <time>2018-11-06T11:27:31Z</time>
      </trkpt>
      <trkpt lat="36.9712466933" lon="-1.9018763769">
        <ele>8.79</ele>
        <time>2018-11-06T11:27:32Z</time>
      </trkpt>
      <trkpt lat="36.9713466894" lon="-1.9018487167">
        <ele>8.79</ele>
        <time>2018-11-06T11:27:34Z</time>
      </trkpt>
      <trkpt lat="36.9714022614" lon="-1.9018519018">
        <ele>8.79</ele>
        <time>2018-11-06T11:27:35Z</time>
      </trkpt>
      <trkpt lat="36.9714517985" lon="-1.9018723536">
        <ele>8.79</ele>
        <time>2018-11-06T11:27:36Z</time>
      </trkpt>
      <trkpt lat="36.9715002459" lon="-1.9019102398">
        <ele>8.79</ele>
        <time>2018-11-06T11:27:37Z</time>
      </trkpt>
      <trkpt lat="36.9715418201" lon="-1.9019494671">
        <ele>8.79</ele>
        <time>2018-11-06T11:27:38Z</time>
      </trkpt>
      <trkpt lat="36.9715890940" lon="-1.9019895326">
        <ele>9.27</ele>
        <time>2018-11-06T11:27:39Z</time>
      </trkpt>
      <trkpt lat="36.9716399722" lon="-1.9020168576">
        <ele>9.75</ele>
        <time>2018-11-06T11:27:40Z</time>
      </trkpt>
      <trkpt lat="36.9716907665" lon="-1.9020301010">
        <ele>9.75</ele>
        <time>2018-11-06T11:27:41Z</time>
      </trkpt>
      <trkpt lat="36.9717432372" lon="-1.9020295143">
        <ele>10.23</ele>
        <time>2018-11-06T11:27:42Z</time>
      </trkpt>
      <trkpt lat="36.9717984740" lon="-1.9020202942">
        <ele>10.23</ele>
        <time>2018-11-06T11:27:43Z</time>
      </trkpt>
      <trkpt lat="36.9725548569" lon="-1.9019273389">
        <ele>9.75</ele>
        <time>2018-11-06T11:27:56Z</time>
      </trkpt>
      <trkpt lat="36.9731314480" lon="-1.9019049592">
        <ele>9.27</ele>
        <time>2018-11-06T11:28:06Z</time>
      </trkpt>
      <trkpt lat="36.9738409761" lon="-1.9019442704">
        <ele>8.31</ele>
        <time>2018-11-06T11:28:18Z</time>
      </trkpt>
      <trkpt lat="36.9744312298" lon="-1.9019886106">
        <ele>8.79</ele>
        <time>2018-11-06T11:28:28Z</time>
      </trkpt>
      <trkpt lat="36.9750867784" lon="-1.9020426739">
        <ele>8.79</ele>
        <time>2018-11-06T11:28:39Z</time>
      </trkpt>
      <trkpt lat="36.9758469332" lon="-1.9021097291">
        <ele>7.83</ele>
        <time>2018-11-06T11:28:52Z</time>
      </trkpt>
      <trkpt lat="36.9763231929" lon="-1.9021567516">
        <ele>8.79</ele>
        <time>2018-11-06T11:29:00Z</time>
      </trkpt>
      <trkpt lat="36.9771044701" lon="-1.9022104796">
        <ele>9.75</ele>
        <time>2018-11-06T11:29:13Z</time>
      </trkpt>
      <trkpt lat="36.9777932111" lon="-1.9022702426">
        <ele>9.27</ele>
        <time>2018-11-06T11:29:25Z</time>
      </trkpt>
      <trkpt lat="36.9784371927" lon="-1.9023236353">
        <ele>10.23</ele>
        <time>2018-11-06T11:29:36Z</time>
      </trkpt>
      <trkpt lat="36.9791437034" lon="-1.9023965579">
        <ele>12.15</ele>
        <time>2018-11-06T11:29:48Z</time>
      </trkpt>
      <trkpt lat="36.9797728490" lon="-1.9024404790">
        <ele>13.12</ele>
        <time>2018-11-06T11:29:59Z</time>
      </trkpt>
      <trkpt lat="36.9804000668" lon="-1.9024959672">
        <ele>12.15</ele>
        <time>2018-11-06T11:30:10Z</time>
      </trkpt>
      <trkpt lat="36.9810841978" lon="-1.9025503658">
        <ele>12.15</ele>
        <time>2018-11-06T11:30:23Z</time>
      </trkpt>
      <trkpt lat="36.9811499119" lon="-1.9025357813">
        <ele>11.67</ele>
        <time>2018-11-06T11:30:27Z</time>
      </trkpt>
      <trkpt lat="36.9812705275" lon="-1.9025193527">
        <ele>12.63</ele>
        <time>2018-11-06T11:30:34Z</time>
      </trkpt>
      <trkpt lat="36.9815658219" lon="-1.9025399722">
        <ele>12.63</ele>
        <time>2018-11-06T11:30:42Z</time>
      </trkpt>
      <trkpt lat="36.9818659779" lon="-1.9025494438">
        <ele>11.67</ele>
        <time>2018-11-06T11:30:51Z</time>
      </trkpt>
      <trkpt lat="36.9819328655" lon="-1.9025465101">
        <ele>11.67</ele>
        <time>2018-11-06T11:30:56Z</time>
      </trkpt>
      <trkpt lat="36.9819612801" lon="-1.9025438279">
        <ele>11.19</ele>
        <time>2018-11-06T11:31:03Z</time>
      </trkpt>
      <trkpt lat="36.9819604419" lon="-1.9025478512">
        <ele>9.27</ele>
        <time>2018-11-06T11:31:18Z</time>
      </trkpt>
      <trkpt lat="36.9819646329" lon="-1.9025500305">
        <ele>10.71</ele>
        <time>2018-11-06T11:31:46Z</time>
      </trkpt>
      <trkpt lat="36.9819559157" lon="-1.9025533833">
        <ele>7.83</ele>
        <time>2018-11-06T11:32:10Z</time>
      </trkpt>
      <trkpt lat="36.9819583464" lon="-1.9025526289">
        <ele>7.35</ele>
        <time>2018-11-06T11:32:31Z</time>
      </trkpt>
      <trkpt lat="36.9819615316" lon="-1.9025507011">
        <ele>7.83</ele>
        <time>2018-11-06T11:32:49Z</time>
      </trkpt>
      <trkpt lat="36.9819577597" lon="-1.9025471807">
        <ele>7.83</ele>
        <time>2018-11-06T11:33:07Z</time>
      </trkpt>
      <trkpt lat="36.9819607772" lon="-1.9025470968">
        <ele>8.79</ele>
        <time>2018-11-06T11:33:24Z</time>
      </trkpt>
      <trkpt lat="36.9819669798" lon="-1.9025475159">
        <ele>8.79</ele>
        <time>2018-11-06T11:33:40Z</time>
      </trkpt>
      <trkpt lat="36.9821035210" lon="-1.9025514554">
        <ele>8.31</ele>
        <time>2018-11-06T11:33:47Z</time>
      </trkpt>
      <trkpt lat="36.9824341871" lon="-1.9025318418">
        <ele>8.79</ele>
        <time>2018-11-06T11:33:58Z</time>
      </trkpt>
      <trkpt lat="36.9828314055" lon="-1.9025074504">
        <ele>8.79</ele>
        <time>2018-11-06T11:34:09Z</time>
      </trkpt>
      <trkpt lat="36.9833454676" lon="-1.9025151618">
        <ele>8.31</ele>
        <time>2018-11-06T11:34:22Z</time>
      </trkpt>
      <trkpt lat="36.9838484656" lon="-1.9024872500">
        <ele>7.35</ele>
        <time>2018-11-06T11:34:34Z</time>
      </trkpt>
      <trkpt lat="36.9844114780" lon="-1.9024429936">
        <ele>8.31</ele>
        <time>2018-11-06T11:34:45Z</time>
      </trkpt>
      <trkpt lat="36.9848325849" lon="-1.9023980666">
        <ele>9.75</ele>
        <time>2018-11-06T11:34:54Z</time>
      </trkpt>
      <trkpt lat="36.9853083417" lon="-1.9023348670">
        <ele>10.71</ele>
        <time>2018-11-06T11:35:05Z</time>
      </trkpt>
      <trkpt lat="36.9859512337" lon="-1.9022330269">
        <ele>9.27</ele>
        <time>2018-11-06T11:35:19Z</time>
      </trkpt>
      <trkpt lat="36.9860917144" lon="-1.9022142515">
        <ele>8.79</ele>
        <time>2018-11-06T11:35:22Z</time>
      </trkpt>
      <trkpt lat="36.9865615200" lon="-1.9020986650">
        <ele>8.31</ele>
        <time>2018-11-06T11:35:33Z</time>
      </trkpt>
      <trkpt lat="36.9869602472" lon="-1.9019726012">
        <ele>7.83</ele>
        <time>2018-11-06T11:35:43Z</time>
      </trkpt>
      <trkpt lat="36.9873382710" lon="-1.9018396642">
        <ele>7.35</ele>
        <time>2018-11-06T11:35:52Z</time>
      </trkpt>
      <trkpt lat="36.9876421150" lon="-1.9017146062">
        <ele>7.83</ele>
        <time>2018-11-06T11:36:00Z</time>
      </trkpt>
      <trkpt lat="36.9876711164" lon="-1.9017149415">
        <ele>7.83</ele>
        <time>2018-11-06T11:36:05Z</time>
      </trkpt>
      <trkpt lat="36.9877285324" lon="-1.9017130136">
        <ele>8.79</ele>
        <time>2018-11-06T11:36:11Z</time>
      </trkpt>
      <trkpt lat="36.9878633134" lon="-1.9016438629">
        <ele>9.27</ele>
        <time>2018-11-06T11:36:19Z</time>
      </trkpt>
      <trkpt lat="36.9878925662" lon="-1.9016294461">
        <ele>9.27</ele>
        <time>2018-11-06T11:36:28Z</time>
      </trkpt>
      <trkpt lat="36.9880568516" lon="-1.9015527517">
        <ele>9.75</ele>
        <time>2018-11-06T11:36:36Z</time>
      </trkpt>
      <trkpt lat="36.9881861005" lon="-1.9014965929">
        <ele>9.75</ele>
        <time>2018-11-06T11:36:44Z</time>
      </trkpt>
      <trkpt lat="36.9881983381" lon="-1.9014956709">
        <ele>9.75</ele>
        <time>2018-11-06T11:36:51Z</time>
      </trkpt>
      <trkpt lat="36.9882030319" lon="-1.9014890492">
        <ele>7.83</ele>
        <time>2018-11-06T11:37:09Z</time>
      </trkpt>
      <trkpt lat="36.9882054627" lon="-1.9014836848">
        <ele>8.31</ele>
        <time>2018-11-06T11:37:18Z</time>
      </trkpt>
      <trkpt lat="36.9882002659" lon="-1.9014933240">
        <ele>9.75</ele>
        <time>2018-11-06T11:37:30Z</time>
      </trkpt>
      <trkpt lat="36.9882010203" lon="-1.9014877919">
        <ele>9.75</ele>
        <time>2018-11-06T11:37:40Z</time>
      </trkpt>
      <trkpt lat="36.9882114977" lon="-1.9015175477">
        <ele>13.12</ele>
        <time>2018-11-06T11:37:56Z</time>
      </trkpt>
      <trkpt lat="36.9882161915" lon="-1.9014925696">
        <ele>11.67</ele>
        <time>2018-11-06T11:38:08Z</time>
      </trkpt>
      <trkpt lat="36.9882037863" lon="-1.9014952518">
        <ele>9.75</ele>
        <time>2018-11-06T11:38:23Z</time>
      </trkpt>
      <trkpt lat="36.9881887827" lon="-1.9014887139">
        <ele>8.31</ele>
        <time>2018-11-06T11:38:37Z</time>
      </trkpt>
      <trkpt lat="36.9881900400" lon="-1.9014804997">
        <ele>6.39</ele>
        <time>2018-11-06T11:38:49Z</time>
      </trkpt>
      <trkpt lat="36.9881884474" lon="-1.9014968444">
        <ele>6.39</ele>
        <time>2018-11-06T11:39:02Z</time>
      </trkpt>
      <trkpt lat="36.9881826639" lon="-1.9015055615">
        <ele>6.87</ele>
        <time>2018-11-06T11:39:16Z</time>
      </trkpt>
      <trkpt lat="36.9881956559" lon="-1.9015070703">
        <ele>5.91</ele>
        <time>2018-11-06T11:39:28Z</time>
      </trkpt>
      <trkpt lat="36.9882037863" lon="-1.9015186373">
        <ele>7.35</ele>
        <time>2018-11-06T11:39:43Z</time>
      </trkpt>
      <trkpt lat="36.9882105757" lon="-1.9015084114">
        <ele>10.23</ele>
        <time>2018-11-06T11:39:53Z</time>
      </trkpt>
      <trkpt lat="36.9882160239" lon="-1.9014969282">
        <ele>11.19</ele>
        <time>2018-11-06T11:40:05Z</time>
      </trkpt>
      <trkpt lat="36.9882149342" lon="-1.9014826789">
        <ele>9.27</ele>
        <time>2018-11-06T11:40:14Z</time>
      </trkpt>
      <trkpt lat="36.9882349670" lon="-1.9014815893">
        <ele>9.27</ele>
        <time>2018-11-06T11:40:21Z</time>
      </trkpt>
      <trkpt lat="36.9884138368" lon="-1.9014096726">
        <ele>9.27</ele>
        <time>2018-11-06T11:40:29Z</time>
      </trkpt>
      <trkpt lat="36.9887074549" lon="-1.9012785796">
        <ele>8.79</ele>
        <time>2018-11-06T11:40:40Z</time>
      </trkpt>
      <trkpt lat="36.9889258035" lon="-1.9011841156">
        <ele>8.79</ele>
        <time>2018-11-06T11:40:47Z</time>
      </trkpt>
      <trkpt lat="36.9892190862" lon="-1.9010444731">
        <ele>8.31</ele>
        <time>2018-11-06T11:40:56Z</time>
      </trkpt>
      <trkpt lat="36.9895432983" lon="-1.9008867256">
        <ele>7.83</ele>
        <time>2018-11-06T11:41:06Z</time>
      </trkpt>
      <trkpt lat="36.9897277839" lon="-1.9007195067">
        <ele>8.79</ele>
        <time>2018-11-06T11:41:13Z</time>
      </trkpt>
      <trkpt lat="36.9899612200" lon="-1.9006106257">
        <ele>8.79</ele>
        <time>2018-11-06T11:41:22Z</time>
      </trkpt>
      <trkpt lat="36.9900617190" lon="-1.9005153235">
        <ele>8.79</ele>
        <time>2018-11-06T11:41:27Z</time>
      </trkpt>
      <trkpt lat="36.9901028741" lon="-1.9004047662">
        <ele>8.79</ele>
        <time>2018-11-06T11:41:32Z</time>
      </trkpt>
      <trkpt lat="36.9901187159" lon="-1.9003937859">
        <ele>8.31</ele>
        <time>2018-11-06T11:41:33Z</time>
      </trkpt>
      <trkpt lat="36.9901391678" lon="-1.9003931992">
        <ele>8.31</ele>
        <time>2018-11-06T11:41:34Z</time>
      </trkpt>
      <trkpt lat="36.9901629724" lon="-1.9004012458">
        <ele>8.31</ele>
        <time>2018-11-06T11:41:35Z</time>
      </trkpt>
      <trkpt lat="36.9901899621" lon="-1.9004213624">
        <ele>8.31</ele>
        <time>2018-11-06T11:41:36Z</time>
      </trkpt>
      <trkpt lat="36.9902177062" lon="-1.9004434906">
        <ele>8.79</ele>
        <time>2018-11-06T11:41:37Z</time>
      </trkpt>
      <trkpt lat="36.9902440254" lon="-1.9004588295">
        <ele>8.79</ele>
        <time>2018-11-06T11:41:38Z</time>
      </trkpt>
      <trkpt lat="36.9902823307" lon="-1.9004704803">
        <ele>8.79</ele>
        <time>2018-11-06T11:41:39Z</time>
      </trkpt>
      <trkpt lat="36.9903166965" lon="-1.9004708156">
        <ele>9.27</ele>
        <time>2018-11-06T11:41:40Z</time>
      </trkpt>
      <trkpt lat="36.9903524872" lon="-1.9004624337">
        <ele>9.27</ele>
        <time>2018-11-06T11:41:41Z</time>
      </trkpt>
      <trkpt lat="36.9903879426" lon="-1.9004481845">
        <ele>9.27</ele>
        <time>2018-11-06T11:41:42Z</time>
      </trkpt>
      <trkpt lat="36.9904233143" lon="-1.9004293252">
        <ele>9.75</ele>
        <time>2018-11-06T11:41:43Z</time>
      </trkpt>
      <trkpt lat="36.9904592726" lon="-1.9004060235">
        <ele>9.75</ele>
        <time>2018-11-06T11:41:44Z</time>
      </trkpt>
      <trkpt lat="36.9906512182" lon="-1.9002466835">
        <ele>10.71</ele>
        <time>2018-11-06T11:41:50Z</time>
      </trkpt>
      <trkpt lat="36.9906730950" lon="-1.9002051931">
        <ele>11.19</ele>
        <time>2018-11-06T11:41:51Z</time>
      </trkpt>
      <trkpt lat="36.9907056168" lon="-1.9001756050">
        <ele>11.19</ele>
        <time>2018-11-06T11:41:52Z</time>
      </trkpt>
      <trkpt lat="36.9909994025" lon="-1.8999939691">
        <ele>10.23</ele>
        <time>2018-11-06T11:42:01Z</time>
      </trkpt>
      <trkpt lat="36.9912786037" lon="-1.8998136744">
        <ele>9.75</ele>
        <time>2018-11-06T11:42:11Z</time>
      </trkpt>
      <trkpt lat="36.9915443100" lon="-1.8996419292">
        <ele>9.27</ele>
        <time>2018-11-06T11:42:20Z</time>
      </trkpt>
      <trkpt lat="36.9918464776" lon="-1.8994412664">
        <ele>8.31</ele>
        <time>2018-11-06T11:42:30Z</time>
      </trkpt>
      <trkpt lat="36.9921694323" lon="-1.8992059026">
        <ele>7.83</ele>
        <time>2018-11-06T11:42:41Z</time>
      </trkpt>
      <trkpt lat="36.9923592824" lon="-1.8989620730">
        <ele>7.83</ele>
        <time>2018-11-06T11:42:50Z</time>
      </trkpt>
      <trkpt lat="36.9923518226" lon="-1.8987459876">
        <ele>7.83</ele>
        <time>2018-11-06T11:42:56Z</time>
      </trkpt>
      <trkpt lat="36.9923569355" lon="-1.8987207580">
        <ele>8.31</ele>
        <time>2018-11-06T11:42:57Z</time>
      </trkpt>
      <trkpt lat="36.9923727773" lon="-1.8987035751">
        <ele>8.31</ele>
        <time>2018-11-06T11:42:58Z</time>
      </trkpt>
      <trkpt lat="36.9923920557" lon="-1.8986887392">
        <ele>8.31</ele>
        <time>2018-11-06T11:42:59Z</time>
      </trkpt>
      <trkpt lat="36.9924127590" lon="-1.8986844644">
        <ele>8.79</ele>
        <time>2018-11-06T11:43:00Z</time>
      </trkpt>
      <trkpt lat="36.9924257509" lon="-1.8986966182">
        <ele>9.27</ele>
        <time>2018-11-06T11:43:01Z</time>
      </trkpt>
      <trkpt lat="36.9924362283" lon="-1.8987183273">
        <ele>9.75</ele>
        <time>2018-11-06T11:43:02Z</time>
      </trkpt>
      <trkpt lat="36.9924490526" lon="-1.8987450656">
        <ele>9.75</ele>
        <time>2018-11-06T11:43:03Z</time>
      </trkpt>
      <trkpt lat="36.9924676605" lon="-1.8987663556">
        <ele>10.23</ele>
        <time>2018-11-06T11:43:04Z</time>
      </trkpt>
      <trkpt lat="36.9924909621" lon="-1.8987935130">
        <ele>10.23</ele>
        <time>2018-11-06T11:43:05Z</time>
      </trkpt>
      <trkpt lat="36.9925092347" lon="-1.8988088518">
        <ele>10.23</ele>
        <time>2018-11-06T11:43:06Z</time>
      </trkpt>
      <trkpt lat="36.9925357215" lon="-1.8988148868">
        <ele>11.19</ele>
        <time>2018-11-06T11:43:07Z</time>
      </trkpt>
      <trkpt lat="36.9925613701" lon="-1.8988078460">
        <ele>11.19</ele>
        <time>2018-11-06T11:43:08Z</time>
      </trkpt>
      <trkpt lat="36.9925842527" lon="-1.8987897411">
        <ele>11.67</ele>
        <time>2018-11-06T11:43:09Z</time>
      </trkpt>
      <trkpt lat="36.9926013518" lon="-1.8987699598">
        <ele>11.67</ele>
        <time>2018-11-06T11:43:10Z</time>
      </trkpt>
      <trkpt lat="36.9927669782" lon="-1.8985748291">
        <ele>12.63</ele>
        <time>2018-11-06T11:43:18Z</time>
      </trkpt>
      <trkpt lat="36.9929539785" lon="-1.8983348552">
        <ele>12.15</ele>
        <time>2018-11-06T11:43:27Z</time>
      </trkpt>
      <trkpt lat="36.9931835588" lon="-1.8980943784">
        <ele>11.19</ele>
        <time>2018-11-06T11:43:35Z</time>
      </trkpt>
      <trkpt lat="36.9934036676" lon="-1.8978442624">
        <ele>10.23</ele>
        <time>2018-11-06T11:43:44Z</time>
      </trkpt>
      <trkpt lat="36.9936201721" lon="-1.8976308592">
        <ele>9.75</ele>
        <time>2018-11-06T11:43:53Z</time>
      </trkpt>
      <trkpt lat="36.9938414544" lon="-1.8974154443">
        <ele>8.79</ele>
        <time>2018-11-06T11:44:02Z</time>
      </trkpt>
      <trkpt lat="36.9940692745" lon="-1.8972141109">
        <ele>8.79</ele>
        <time>2018-11-06T11:44:12Z</time>
      </trkpt>
      <trkpt lat="36.9942626450" lon="-1.8969344068">
        <ele>9.27</ele>
        <time>2018-11-06T11:44:21Z</time>
      </trkpt>
      <trkpt lat="36.9944609609" lon="-1.8966334965">
        <ele>8.79</ele>
        <time>2018-11-06T11:44:31Z</time>
      </trkpt>
      <trkpt lat="36.9946721010" lon="-1.8962869048">
        <ele>8.79</ele>
        <time>2018-11-06T11:44:42Z</time>
      </trkpt>
      <trkpt lat="36.9948325306" lon="-1.8960677180">
        <ele>8.79</ele>
        <time>2018-11-06T11:44:50Z</time>
      </trkpt>
      <trkpt lat="36.9949508831" lon="-1.8959599268">
        <ele>8.79</ele>
        <time>2018-11-06T11:44:56Z</time>
      </trkpt>
      <trkpt lat="36.9950709119" lon="-1.8958465196">
        <ele>6.87</ele>
        <time>2018-11-06T11:45:02Z</time>
      </trkpt>
      <trkpt lat="36.9951531384" lon="-1.8957639579">
        <ele>6.39</ele>
        <time>2018-11-06T11:45:07Z</time>
      </trkpt>
      <trkpt lat="36.9951875042" lon="-1.8958021794">
        <ele>6.39</ele>
        <time>2018-11-06T11:45:09Z</time>
      </trkpt>
      <trkpt lat="36.9953597523" lon="-1.8960193545">
        <ele>9.27</ele>
        <time>2018-11-06T11:45:19Z</time>
      </trkpt>
      <trkpt lat="36.9954585750" lon="-1.8961248826">
        <ele>9.75</ele>
        <time>2018-11-06T11:45:26Z</time>
      </trkpt>
      <trkpt lat="36.9955092017" lon="-1.8960817158">
        <ele>9.75</ele>
        <time>2018-11-06T11:45:30Z</time>
      </trkpt>
      <trkpt lat="36.9957140554" lon="-1.8958883453">
        <ele>10.23</ele>
        <time>2018-11-06T11:45:39Z</time>
      </trkpt>
      <trkpt lat="36.9958495907" lon="-1.8957366329">
        <ele>10.23</ele>
        <time>2018-11-06T11:45:46Z</time>
      </trkpt>
      <trkpt lat="36.9960114453" lon="-1.8955812324">
        <ele>11.19</ele>
        <time>2018-11-06T11:45:54Z</time>
      </trkpt>
      <trkpt lat="36.9961493276" lon="-1.8955845013">
        <ele>11.67</ele>
        <time>2018-11-06T11:45:58Z</time>
      </trkpt>
      <trkpt lat="36.9963246770" lon="-1.8957921211">
        <ele>11.67</ele>
        <time>2018-11-06T11:46:04Z</time>
      </trkpt>
      <trkpt lat="36.9964868668" lon="-1.8960367888">
        <ele>11.67</ele>
        <time>2018-11-06T11:46:10Z</time>
      </trkpt>
      <trkpt lat="36.9966011960" lon="-1.8963197619">
        <ele>11.67</ele>
        <time>2018-11-06T11:46:16Z</time>
      </trkpt>
      <trkpt lat="36.9966591150" lon="-1.8964603264">
        <ele>12.15</ele>
        <time>2018-11-06T11:46:19Z</time>
      </trkpt>
      <trkpt lat="36.9968245737" lon="-1.8965651002">
        <ele>12.63</ele>
        <time>2018-11-06T11:46:24Z</time>
      </trkpt>
      <trkpt lat="36.9969429262" lon="-1.8964917585">
        <ele>12.63</ele>
        <time>2018-11-06T11:46:28Z</time>
      </trkpt>
      <trkpt lat="36.9971833192" lon="-1.8962781876">
        <ele>13.12</ele>
        <time>2018-11-06T11:46:37Z</time>
      </trkpt>
      <trkpt lat="36.9972733408" lon="-1.8962281477">
        <ele>13.60</ele>
        <time>2018-11-06T11:46:43Z</time>
      </trkpt>
      <trkpt lat="36.9972751848" lon="-1.8962079473">
        <ele>12.15</ele>
        <time>2018-11-06T11:46:48Z</time>
      </trkpt>
      <trkpt lat="36.9972711615" lon="-1.8962165806">
        <ele>13.12</ele>
        <time>2018-11-06T11:46:57Z</time>
      </trkpt>
      <trkpt lat="36.9972688146" lon="-1.8962465040">
        <ele>18.40</ele>
        <time>2018-11-06T11:47:14Z</time>
      </trkpt>
      <trkpt lat="36.9972735923" lon="-1.8962647766">
        <ele>21.29</ele>
        <time>2018-11-06T11:47:27Z</time>
      </trkpt>
      <trkpt lat="36.9972844049" lon="-1.8962768465">
        <ele>25.61</ele>
        <time>2018-11-06T11:47:42Z</time>
      </trkpt>
      <trkpt lat="36.9972936250" lon="-1.8962993100">
        <ele>27.05</ele>
        <time>2018-11-06T11:47:59Z</time>
      </trkpt>
      <trkpt lat="36.9972965587" lon="-1.8962783553">
        <ele>26.57</ele>
        <time>2018-11-06T11:48:14Z</time>
      </trkpt>
      <trkpt lat="36.9972966425" lon="-1.8962823786">
        <ele>26.57</ele>
        <time>2018-11-06T11:48:31Z</time>
      </trkpt>
      <trkpt lat="36.9972880930" lon="-1.8963118829">
        <ele>29.46</ele>
        <time>2018-11-06T11:48:48Z</time>
      </trkpt>
      <trkpt lat="36.9972942118" lon="-1.8963045906">
        <ele>28.50</ele>
        <time>2018-11-06T11:49:08Z</time>
      </trkpt>
      <trkpt lat="36.9972945470" lon="-1.8963248748">
        <ele>29.94</ele>
        <time>2018-11-06T11:49:26Z</time>
      </trkpt>
      <trkpt lat="36.9972997438" lon="-1.8963154033">
        <ele>30.42</ele>
        <time>2018-11-06T11:49:45Z</time>
      </trkpt>
      <trkpt lat="36.9972911943" lon="-1.8962793611">
        <ele>28.98</ele>
        <time>2018-11-06T11:50:03Z</time>
      </trkpt>
      <trkpt lat="36.9972986542" lon="-1.8962998968">
        <ele>28.98</ele>
        <time>2018-11-06T11:50:17Z</time>
      </trkpt>
      <trkpt lat="36.9973072037" lon="-1.8963151518">
        <ele>30.90</ele>
        <time>2018-11-06T11:50:33Z</time>
      </trkpt>
      <trkpt lat="36.9972942956" lon="-1.8962971307">
        <ele>29.94</ele>
        <time>2018-11-06T11:50:51Z</time>
      </trkpt>
      <trkpt lat="36.9972955529" lon="-1.8963272218">
        <ele>29.94</ele>
        <time>2018-11-06T11:51:02Z</time>
      </trkpt>
      <trkpt lat="36.9972939603" lon="-1.8963423930">
        <ele>29.94</ele>
        <time>2018-11-06T11:51:16Z</time>
      </trkpt>
      <trkpt lat="36.9972944632" lon="-1.8963257968">
        <ele>29.46</ele>
        <time>2018-11-06T11:51:34Z</time>
      </trkpt>
      <trkpt lat="36.9973043539" lon="-1.8963175826">
        <ele>29.46</ele>
        <time>2018-11-06T11:51:50Z</time>
      </trkpt>
      <trkpt lat="36.9973017555" lon="-1.8962921854">
        <ele>28.98</ele>
        <time>2018-11-06T11:52:09Z</time>
      </trkpt>
      <trkpt lat="36.9973081257" lon="-1.8962808698">
        <ele>28.50</ele>
        <time>2018-11-06T11:52:25Z</time>
      </trkpt>
      <trkpt lat="36.9973086286" lon="-1.8963093683">
        <ele>27.53</ele>
        <time>2018-11-06T11:52:44Z</time>
      </trkpt>
      <trkpt lat="36.9972994085" lon="-1.8963035010">
        <ele>28.02</ele>
        <time>2018-11-06T11:53:01Z</time>
      </trkpt>
      <trkpt lat="36.9972949661" lon="-1.8963086978">
        <ele>29.94</ele>
        <time>2018-11-06T11:53:21Z</time>
      </trkpt>
      <trkpt lat="36.9973049406" lon="-1.8962987233">
        <ele>30.90</ele>
        <time>2018-11-06T11:53:40Z</time>
      </trkpt>
      <trkpt lat="36.9972900208" lon="-1.8962979689">
        <ele>30.90</ele>
        <time>2018-11-06T11:53:56Z</time>
      </trkpt>
      <trkpt lat="36.9972868357" lon="-1.8962957896">
        <ele>26.57</ele>
        <time>2018-11-06T11:54:15Z</time>
      </trkpt>
      <trkpt lat="36.9972886797" lon="-1.8962879106">
        <ele>23.69</ele>
        <time>2018-11-06T11:54:33Z</time>
      </trkpt>
      <trkpt lat="36.9972891826" lon="-1.8962764274">
        <ele>20.32</ele>
        <time>2018-11-06T11:54:48Z</time>
      </trkpt>
      <trkpt lat="36.9972836506" lon="-1.8962579034">
        <ele>17.44</ele>
        <time>2018-11-06T11:55:04Z</time>
      </trkpt>
      <trkpt lat="36.9972721674" lon="-1.8962472584">
        <ele>17.92</ele>
        <time>2018-11-06T11:55:17Z</time>
      </trkpt>
      <trkpt lat="36.9972799625" lon="-1.8962465879">
        <ele>16.96</ele>
        <time>2018-11-06T11:55:32Z</time>
      </trkpt>
      <trkpt lat="36.9972718321" lon="-1.8962606695">
        <ele>16.96</ele>
        <time>2018-11-06T11:55:48Z</time>
      </trkpt>
      <trkpt lat="36.9972638693" lon="-1.8962517846">
        <ele>17.44</ele>
        <time>2018-11-06T11:56:04Z</time>
      </trkpt>
      <trkpt lat="36.9972791243" lon="-1.8962689675">
        <ele>18.88</ele>
        <time>2018-11-06T11:56:19Z</time>
      </trkpt>
      <trkpt lat="36.9972737599" lon="-1.8962843902">
        <ele>18.88</ele>
        <time>2018-11-06T11:56:34Z</time>
      </trkpt>
      <trkpt lat="36.9972853269" lon="-1.8962822948">
        <ele>20.81</ele>
        <time>2018-11-06T11:56:53Z</time>
      </trkpt>
      <trkpt lat="36.9972855784" lon="-1.8962928560">
        <ele>21.77</ele>
        <time>2018-11-06T11:57:11Z</time>
      </trkpt>
      <trkpt lat="36.9973025098" lon="-1.8962629326">
        <ele>21.29</ele>
        <time>2018-11-06T11:57:30Z</time>
      </trkpt>
      <trkpt lat="36.9973125681" lon="-1.8962553889">
        <ele>21.77</ele>
        <time>2018-11-06T11:57:45Z</time>
      </trkpt>
      <trkpt lat="36.9973100536" lon="-1.8962251302">
        <ele>21.29</ele>
        <time>2018-11-06T11:58:02Z</time>
      </trkpt>
      <trkpt lat="36.9973128196" lon="-1.8962481804">
        <ele>22.25</ele>
        <time>2018-11-06T11:58:17Z</time>
      </trkpt>
      <trkpt lat="36.9973175973" lon="-1.8962446600">
        <ele>21.29</ele>
        <time>2018-11-06T11:58:30Z</time>
      </trkpt>
      <trkpt lat="36.9973168429" lon="-1.8962454144">
        <ele>20.32</ele>
        <time>2018-11-06T11:58:47Z</time>
      </trkpt>
      <trkpt lat="36.9973041862" lon="-1.8962498568">
        <ele>18.88</ele>
        <time>2018-11-06T11:58:59Z</time>
      </trkpt>
      <trkpt lat="36.9972961396" lon="-1.8962489348">
        <ele>18.88</ele>
        <time>2018-11-06T11:59:15Z</time>
      </trkpt>
      <trkpt lat="36.9973004144" lon="-1.8962548021">
        <ele>18.88</ele>
        <time>2018-11-06T11:59:29Z</time>
      </trkpt>
      <trkpt lat="36.9972972292" lon="-1.8962591607">
        <ele>19.84</ele>
        <time>2018-11-06T11:59:48Z</time>
      </trkpt>
      <trkpt lat="36.9972906914" lon="-1.8962769303">
        <ele>21.29</ele>
        <time>2018-11-06T12:00:01Z</time>
      </trkpt>
      <trkpt lat="36.9972933736" lon="-1.8963013217">
        <ele>23.69</ele>
        <time>2018-11-06T12:00:20Z</time>
      </trkpt>
      <trkpt lat="36.9972937927" lon="-1.8963074405">
        <ele>26.09</ele>
        <time>2018-11-06T12:00:35Z</time>
      </trkpt>
      <trkpt lat="36.9972943794" lon="-1.8963175826">
        <ele>29.46</ele>
        <time>2018-11-06T12:00:52Z</time>
      </trkpt>
      <trkpt lat="36.9972903561" lon="-1.8963247072">
        <ele>30.42</ele>
        <time>2018-11-06T12:01:06Z</time>
      </trkpt>
      <trkpt lat="36.9972797949" lon="-1.8963251263">
        <ele>29.94</ele>
        <time>2018-11-06T12:01:23Z</time>
      </trkpt>
      <trkpt lat="36.9972862490" lon="-1.8963140622">
        <ele>28.98</ele>
        <time>2018-11-06T12:01:39Z</time>
      </trkpt>
      <trkpt lat="36.9972667191" lon="-1.8962993100">
        <ele>28.98</ele>
        <time>2018-11-06T12:01:51Z</time>
      </trkpt>
      <trkpt lat="36.9972652942" lon="-1.8963009026">
        <ele>31.86</ele>
        <time>2018-11-06T12:02:04Z</time>
      </trkpt>
      <trkpt lat="36.9972683955" lon="-1.8963276409">
        <ele>32.82</ele>
        <time>2018-11-06T12:02:17Z</time>
      </trkpt>
      <trkpt lat="36.9973002467" lon="-1.8963015731">
        <ele>31.38</ele>
        <time>2018-11-06T12:02:24Z</time>
      </trkpt>
      <trkpt lat="36.9973097183" lon="-1.8962749187">
        <ele>29.46</ele>
        <time>2018-11-06T12:02:33Z</time>
      </trkpt>
      <trkpt lat="36.9973049406" lon="-1.8962882459">
        <ele>28.50</ele>
        <time>2018-11-06T12:02:40Z</time>
      </trkpt>
      <trkpt lat="36.9972790405" lon="-1.8963372800">
        <ele>28.02</ele>
        <time>2018-11-06T12:02:45Z</time>
      </trkpt>
      <trkpt lat="36.9971694890" lon="-1.8963746633">
        <ele>27.05</ele>
        <time>2018-11-06T12:02:49Z</time>
      </trkpt>
      <trkpt lat="36.9969401602" lon="-1.8965971190">
        <ele>24.17</ele>
        <time>2018-11-06T12:02:56Z</time>
      </trkpt>
      <trkpt lat="36.9967337977" lon="-1.8966520205">
        <ele>22.25</ele>
        <time>2018-11-06T12:03:01Z</time>
      </trkpt>
      <trkpt lat="36.9966266770" lon="-1.8965132162">
        <ele>21.29</ele>
        <time>2018-11-06T12:03:04Z</time>
      </trkpt>
      <trkpt lat="36.9963739626" lon="-1.8959714100">
        <ele>18.40</ele>
        <time>2018-11-06T12:03:13Z</time>
      </trkpt>
      <trkpt lat="36.9963074941" lon="-1.8958670553">
        <ele>17.92</ele>
        <time>2018-11-06T12:03:15Z</time>
      </trkpt>
      <trkpt lat="36.9961141236" lon="-1.8956487067">
        <ele>17.44</ele>
        <time>2018-11-06T12:03:21Z</time>
      </trkpt>
      <trkpt lat="36.9959721342" lon="-1.8954866845">
        <ele>16.48</ele>
        <time>2018-11-06T12:03:28Z</time>
      </trkpt>
      <trkpt lat="36.9957719743" lon="-1.8952980917">
        <ele>15.52</ele>
        <time>2018-11-06T12:03:35Z</time>
      </trkpt>
      <trkpt lat="36.9955361914" lon="-1.8951017875">
        <ele>14.56</ele>
        <time>2018-11-06T12:03:43Z</time>
      </trkpt>
      <trkpt lat="36.9953162502" lon="-1.8948955089">
        <ele>13.12</ele>
        <time>2018-11-06T12:03:52Z</time>
      </trkpt>
      <trkpt lat="36.9952980615" lon="-1.8948855344">
        <ele>13.12</ele>
        <time>2018-11-06T12:03:53Z</time>
      </trkpt>
      <trkpt lat="36.9952605106" lon="-1.8948810920">
        <ele>12.63</ele>
        <time>2018-11-06T12:03:55Z</time>
      </trkpt>
      <trkpt lat="36.9952357840" lon="-1.8948595505">
        <ele>11.67</ele>
        <time>2018-11-06T12:04:02Z</time>
      </trkpt>
      <trkpt lat="36.9952160865" lon="-1.8948426191">
        <ele>10.71</ele>
        <time>2018-11-06T12:04:08Z</time>
      </trkpt>
      <trkpt lat="36.9951512106" lon="-1.8948227540">
        <ele>11.19</ele>
        <time>2018-11-06T12:04:15Z</time>
      </trkpt>
      <trkpt lat="36.9950736780" lon="-1.8947686907">
        <ele>10.71</ele>
        <time>2018-11-06T12:04:24Z</time>
      </trkpt>
      <trkpt lat="36.9950236380" lon="-1.8947265297">
        <ele>10.71</ele>
        <time>2018-11-06T12:04:29Z</time>
      </trkpt>
      <trkpt lat="36.9948953111" lon="-1.8947431259">
        <ele>10.23</ele>
        <time>2018-11-06T12:04:40Z</time>
      </trkpt>
      <trkpt lat="36.9948528148" lon="-1.8947752286">
        <ele>9.75</ele>
        <time>2018-11-06T12:04:48Z</time>
      </trkpt>
      <trkpt lat="36.9948549941" lon="-1.8947662599">
        <ele>8.31</ele>
        <time>2018-11-06T12:04:58Z</time>
      </trkpt>
      <trkpt lat="36.9948529825" lon="-1.8947577942">
        <ele>7.35</ele>
        <time>2018-11-06T12:05:05Z</time>
      </trkpt>
      <trkpt lat="36.9948560838" lon="-1.8947644159">
        <ele>7.35</ele>
        <time>2018-11-06T12:05:24Z</time>
      </trkpt>
      <trkpt lat="36.9948514737" lon="-1.8947635777">
        <ele>7.35</ele>
        <time>2018-11-06T12:05:43Z</time>
      </trkpt>
      <trkpt lat="36.9948548265" lon="-1.8947429582">
        <ele>7.83</ele>
        <time>2018-11-06T12:06:02Z</time>
      </trkpt>
      <trkpt lat="36.9948535692" lon="-1.8947510049">
        <ele>7.35</ele>
        <time>2018-11-06T12:06:35Z</time>
      </trkpt>
      <trkpt lat="36.9948660582" lon="-1.8947421201">
        <ele>11.19</ele>
        <time>2018-11-06T12:07:06Z</time>
      </trkpt>
      <trkpt lat="36.9948625378" lon="-1.8947385158">
        <ele>12.15</ele>
        <time>2018-11-06T12:07:34Z</time>
      </trkpt>
      <trkpt lat="36.9948590174" lon="-1.8947338220">
        <ele>10.71</ele>
        <time>2018-11-06T12:08:03Z</time>
      </trkpt>
      <trkpt lat="36.9948471989" lon="-1.8947432097">
        <ele>9.75</ele>
        <time>2018-11-06T12:08:29Z</time>
      </trkpt>
      <trkpt lat="36.9948534016" lon="-1.8947505020">
        <ele>9.75</ele>
        <time>2018-11-06T12:08:59Z</time>
      </trkpt>
      <trkpt lat="36.9948452711" lon="-1.8947401922">
        <ele>9.75</ele>
        <time>2018-11-06T12:09:30Z</time>
      </trkpt>
      <trkpt lat="36.9948516414" lon="-1.8947429582">
        <ele>9.27</ele>
        <time>2018-11-06T12:09:55Z</time>
      </trkpt>
      <trkpt lat="36.9948479533" lon="-1.8947520945">
        <ele>9.27</ele>
        <time>2018-11-06T12:10:31Z</time>
      </trkpt>
      <trkpt lat="36.9948492106" lon="-1.8947446346">
        <ele>9.75</ele>
        <time>2018-11-06T12:11:05Z</time>
      </trkpt>
      <trkpt lat="36.9948461931" lon="-1.8947436288">
        <ele>9.75</ele>
        <time>2018-11-06T12:11:31Z</time>
      </trkpt>
      <trkpt lat="36.9948468637" lon="-1.8947485741">
        <ele>9.75</ele>
        <time>2018-11-06T12:12:03Z</time>
      </trkpt>
      <trkpt lat="36.9948440976" lon="-1.8947422039">
        <ele>10.71</ele>
        <time>2018-11-06T12:12:38Z</time>
      </trkpt>
      <trkpt lat="36.9948551618" lon="-1.8947442155">
        <ele>10.71</ele>
        <time>2018-11-06T12:13:13Z</time>
      </trkpt>
      <trkpt lat="36.9948503003" lon="-1.8947409466">
        <ele>11.19</ele>
        <time>2018-11-06T12:13:41Z</time>
      </trkpt>
      <trkpt lat="36.9948512223" lon="-1.8947470654">
        <ele>10.71</ele>
        <time>2018-11-06T12:14:07Z</time>
      </trkpt>
      <trkpt lat="36.9948570058" lon="-1.8947408628">
        <ele>12.63</ele>
        <time>2018-11-06T12:14:44Z</time>
      </trkpt>
      <trkpt lat="36.9948497973" lon="-1.8947476521">
        <ele>12.15</ele>
        <time>2018-11-06T12:15:14Z</time>
      </trkpt>
      <trkpt lat="36.9948551618" lon="-1.8947321456">
        <ele>10.71</ele>
        <time>2018-11-06T12:15:41Z</time>
      </trkpt>
      <trkpt lat="36.9948518928" lon="-1.8947392702">
        <ele>11.19</ele>
        <time>2018-11-06T12:16:17Z</time>
      </trkpt>
      <trkpt lat="36.9948268309" lon="-1.8947388511">
        <ele>9.75</ele>
        <time>2018-11-06T12:16:44Z</time>
      </trkpt>
      <trkpt lat="36.9948455226" lon="-1.8947453890">
        <ele>8.31</ele>
        <time>2018-11-06T12:17:14Z</time>
      </trkpt>
      <trkpt lat="36.9948472828" lon="-1.8947432097">
        <ele>9.75</ele>
        <time>2018-11-06T12:17:41Z</time>
      </trkpt>
      <trkpt lat="36.9948371407" lon="-1.8947295472">
        <ele>9.27</ele>
        <time>2018-11-06T12:18:08Z</time>
      </trkpt>
      <trkpt lat="36.9948378112" lon="-1.8947417848">
        <ele>10.71</ele>
        <time>2018-11-06T12:18:34Z</time>
      </trkpt>
      <trkpt lat="36.9948346261" lon="-1.8947351631">
        <ele>9.75</ele>
        <time>2018-11-06T12:19:00Z</time>
      </trkpt>
      <trkpt lat="36.9948420022" lon="-1.8947462272">
        <ele>8.31</ele>
        <time>2018-11-06T12:19:32Z</time>
      </trkpt>
      <trkpt lat="36.9948564190" lon="-1.8947612308">
        <ele>7.83</ele>
        <time>2018-11-06T12:19:58Z</time>
      </trkpt>
      <trkpt lat="36.9948428404" lon="-1.8947565369">
        <ele>7.83</ele>
        <time>2018-11-06T12:20:31Z</time>
      </trkpt>
      <trkpt lat="36.9948478695" lon="-1.8947625719">
        <ele>7.35</ele>
        <time>2018-11-06T12:21:03Z</time>
      </trkpt>
      <trkpt lat="36.9948408287" lon="-1.8947533518">
        <ele>6.39</ele>
        <time>2018-11-06T12:21:42Z</time>
      </trkpt>
      <trkpt lat="36.9948435109" lon="-1.8947660923">
        <ele>8.31</ele>
        <time>2018-11-06T12:22:13Z</time>
      </trkpt>
      <trkpt lat="36.9948491268" lon="-1.8947568722">
        <ele>8.31</ele>
        <time>2018-11-06T12:22:42Z</time>
      </trkpt>
      <trkpt lat="36.9948353805" lon="-1.8947585486">
        <ele>8.79</ele>
        <time>2018-11-06T12:23:24Z</time>
      </trkpt>
      <trkpt lat="36.9948406611" lon="-1.8947616499">
        <ele>9.75</ele>
        <time>2018-11-06T12:23:55Z</time>
      </trkpt>
      <trkpt lat="36.9948456064" lon="-1.8947617337">
        <ele>7.83</ele>
        <time>2018-11-06T12:24:30Z</time>
      </trkpt>
      <trkpt lat="36.9948476180" lon="-1.8947677687">
        <ele>9.27</ele>
        <time>2018-11-06T12:25:00Z</time>
      </trkpt>
      <trkpt lat="36.9948470313" lon="-1.8947652541">
        <ele>9.27</ele>
        <time>2018-11-06T12:25:20Z</time>
      </trkpt>
      <trkpt lat="36.9948603585" lon="-1.8947634939">
        <ele>11.19</ele>
        <time>2018-11-06T12:25:55Z</time>
      </trkpt>
      <trkpt lat="36.9948519766" lon="-1.8947603088">
        <ele>11.67</ele>
        <time>2018-11-06T12:26:20Z</time>
      </trkpt>
      <trkpt lat="36.9948477857" lon="-1.8947650865">
        <ele>9.75</ele>
        <time>2018-11-06T12:26:45Z</time>
      </trkpt>
      <trkpt lat="36.9948409125" lon="-1.8947643321">
        <ele>9.75</ele>
        <time>2018-11-06T12:27:15Z</time>
      </trkpt>
      <trkpt lat="36.9948477857" lon="-1.8947692774">
        <ele>9.75</ele>
        <time>2018-11-06T12:27:43Z</time>
      </trkpt>
      <trkpt lat="36.9948482886" lon="-1.8947693612">
        <ele>9.75</ele>
        <time>2018-11-06T12:28:09Z</time>
      </trkpt>
      <trkpt lat="36.9948462769" lon="-1.8947623204">
        <ele>9.75</ele>
        <time>2018-11-06T12:28:40Z</time>
      </trkpt>
      <trkpt lat="36.9948494621" lon="-1.8947656732">
        <ele>8.31</ele>
        <time>2018-11-06T12:29:08Z</time>
      </trkpt>
      <trkpt lat="36.9948497973" lon="-1.8947683554">
        <ele>7.83</ele>
        <time>2018-11-06T12:29:37Z</time>
      </trkpt>
      <trkpt lat="36.9948509708" lon="-1.8947676849">
        <ele>7.83</ele>
        <time>2018-11-06T12:30:07Z</time>
      </trkpt>
      <trkpt lat="36.9948437624" lon="-1.8947719596">
        <ele>8.79</ele>
        <time>2018-11-06T12:30:36Z</time>
      </trkpt>
      <trkpt lat="36.9948375598" lon="-1.8947556987">
        <ele>8.31</ele>
        <time>2018-11-06T12:31:06Z</time>
      </trkpt>
      <trkpt lat="36.9948377274" lon="-1.8947639130">
        <ele>7.35</ele>
        <time>2018-11-06T12:31:37Z</time>
      </trkpt>
      <trkpt lat="36.9948333688" lon="-1.8947712053">
        <ele>7.83</ele>
        <time>2018-11-06T12:31:59Z</time>
      </trkpt>
      <trkpt lat="36.9948477857" lon="-1.8947651703">
        <ele>8.31</ele>
        <time>2018-11-06T12:32:28Z</time>
      </trkpt>
      <trkpt lat="36.9948343746" lon="-1.8947603926">
        <ele>7.83</ele>
        <time>2018-11-06T12:32:55Z</time>
      </trkpt>
      <trkpt lat="36.9948279206" lon="-1.8947594706">
        <ele>7.35</ele>
        <time>2018-11-06T12:33:24Z</time>
      </trkpt>
      <trkpt lat="36.9948290940" lon="-1.8947613146">
        <ele>7.83</ele>
        <time>2018-11-06T12:33:58Z</time>
      </trkpt>
      <trkpt lat="36.9948348776" lon="-1.8947536033">
        <ele>8.31</ele>
        <time>2018-11-06T12:34:19Z</time>
      </trkpt>
      <trkpt lat="36.9948350452" lon="-1.8947571237">
        <ele>8.31</ele>
        <time>2018-11-06T12:34:56Z</time>
      </trkpt>
      <trkpt lat="36.9948325306" lon="-1.8947639130">
        <ele>7.83</ele>
        <time>2018-11-06T12:35:21Z</time>
      </trkpt>
      <trkpt lat="36.9948376436" lon="-1.8947623204">
        <ele>7.35</ele>
        <time>2018-11-06T12:35:50Z</time>
      </trkpt>
      <trkpt lat="36.9948386494" lon="-1.8947629910">
        <ele>7.35</ele>
        <time>2018-11-06T12:36:17Z</time>
      </trkpt>
      <trkpt lat="36.9948376436" lon="-1.8947547767">
        <ele>8.31</ele>
        <time>2018-11-06T12:36:45Z</time>
      </trkpt>
      <trkpt lat="36.9948280882" lon="-1.8947486579">
        <ele>9.27</ele>
        <time>2018-11-06T12:37:17Z</time>
      </trkpt>
      <trkpt lat="36.9948387332" lon="-1.8947634939">
        <ele>8.79</ele>
        <time>2018-11-06T12:37:40Z</time>
      </trkpt>
      <trkpt lat="36.9948376436" lon="-1.8947662599">
        <ele>8.31</ele>
        <time>2018-11-06T12:38:10Z</time>
      </trkpt>
      <trkpt lat="36.9948414993" lon="-1.8947533518">
        <ele>7.35</ele>
        <time>2018-11-06T12:38:31Z</time>
      </trkpt>
      <trkpt lat="36.9948420860" lon="-1.8947646674">
        <ele>8.31</ele>
        <time>2018-11-06T12:38:55Z</time>
      </trkpt>
      <trkpt lat="36.9948394038" lon="-1.8947577104">
        <ele>7.83</ele>
        <time>2018-11-06T12:39:17Z</time>
      </trkpt>
      <trkpt lat="36.9948347099" lon="-1.8947538547">
        <ele>7.83</ele>
        <time>2018-11-06T12:39:42Z</time>
      </trkpt>
      <trkpt lat="36.9948367216" lon="-1.8947583809">
        <ele>9.27</ele>
        <time>2018-11-06T12:40:09Z</time>
      </trkpt>
      <trkpt lat="36.9948383141" lon="-1.8947484903">
        <ele>8.79</ele>
        <time>2018-11-06T12:40:33Z</time>
      </trkpt>
      <trkpt lat="36.9948343746" lon="-1.8947620690">
        <ele>8.79</ele>
        <time>2018-11-06T12:40:55Z</time>
      </trkpt>
      <trkpt lat="36.9948377274" lon="-1.8947464786">
        <ele>9.75</ele>
        <time>2018-11-06T12:41:16Z</time>
      </trkpt>
      <trkpt lat="36.9948293455" lon="-1.8947484065">
        <ele>8.79</ele>
        <time>2018-11-06T12:41:36Z</time>
      </trkpt>
      <trkpt lat="36.9948262442" lon="-1.8947570398">
        <ele>9.27</ele>
        <time>2018-11-06T12:41:56Z</time>
      </trkpt>
      <trkpt lat="36.9948246516" lon="-1.8947533518">
        <ele>8.79</ele>
        <time>2018-11-06T12:42:17Z</time>
      </trkpt>
      <trkpt lat="36.9948315248" lon="-1.8947489932">
        <ele>10.23</ele>
        <time>2018-11-06T12:42:49Z</time>
      </trkpt>
      <trkpt lat="36.9948197063" lon="-1.8947456405">
        <ele>9.75</ele>
        <time>2018-11-06T12:43:13Z</time>
      </trkpt>
      <trkpt lat="36.9948241487" lon="-1.8947549444">
        <ele>9.75</ele>
        <time>2018-11-06T12:43:45Z</time>
      </trkpt>
      <trkpt lat="36.9948358834" lon="-1.8947524298">
        <ele>9.27</ele>
        <time>2018-11-06T12:44:03Z</time>
      </trkpt>
      <trkpt lat="36.9948346261" lon="-1.8947434612">
        <ele>9.75</ele>
        <time>2018-11-06T12:44:27Z</time>
      </trkpt>
      <trkpt lat="36.9948349614" lon="-1.8947401922">
        <ele>10.23</ele>
        <time>2018-11-06T12:44:47Z</time>
      </trkpt>
      <trkpt lat="36.9948374759" lon="-1.8947514240">
        <ele>9.75</ele>
        <time>2018-11-06T12:45:13Z</time>
      </trkpt>
      <trkpt lat="36.9948290102" lon="-1.8947442994">
        <ele>9.75</ele>
        <time>2018-11-06T12:45:38Z</time>
      </trkpt>
      <trkpt lat="36.9948284235" lon="-1.8947489094">
        <ele>8.79</ele>
        <time>2018-11-06T12:46:07Z</time>
      </trkpt>
      <trkpt lat="36.9948255736" lon="-1.8947503343">
        <ele>9.27</ele>
        <time>2018-11-06T12:46:31Z</time>
      </trkpt>
      <trkpt lat="36.9948253222" lon="-1.8947468139">
        <ele>8.31</ele>
        <time>2018-11-06T12:46:51Z</time>
      </trkpt>
      <trkpt lat="36.9948278368" lon="-1.8947442155">
        <ele>9.75</ele>
        <time>2018-11-06T12:47:19Z</time>
      </trkpt>
      <trkpt lat="36.9948337041" lon="-1.8947441317">
        <ele>9.27</ele>
        <time>2018-11-06T12:47:45Z</time>
      </trkpt>
      <trkpt lat="36.9948351290" lon="-1.8947455566">
        <ele>7.83</ele>
        <time>2018-11-06T12:48:08Z</time>
      </trkpt>
      <trkpt lat="36.9948401581" lon="-1.8947542738">
        <ele>8.79</ele>
        <time>2018-11-06T12:48:38Z</time>
      </trkpt>
      <trkpt lat="36.9948331174" lon="-1.8947432097">
        <ele>9.27</ele>
        <time>2018-11-06T12:49:04Z</time>
      </trkpt>
      <trkpt lat="36.9948314410" lon="-1.8947519269">
        <ele>9.27</ele>
        <time>2018-11-06T12:49:29Z</time>
      </trkpt>
      <trkpt lat="36.9948299322" lon="-1.8947449699">
        <ele>9.75</ele>
        <time>2018-11-06T12:49:53Z</time>
      </trkpt>
      <trkpt lat="36.9948294293" lon="-1.8947500829">
        <ele>9.75</ele>
        <time>2018-11-06T12:50:16Z</time>
      </trkpt>
      <trkpt lat="36.9948246516" lon="-1.8947456405">
        <ele>9.75</ele>
        <time>2018-11-06T12:50:45Z</time>
      </trkpt>
      <trkpt lat="36.9948176946" lon="-1.8947472330">
        <ele>10.23</ele>
        <time>2018-11-06T12:51:15Z</time>
      </trkpt>
      <trkpt lat="36.9948217180" lon="-1.8947488256">
        <ele>9.27</ele>
        <time>2018-11-06T12:51:39Z</time>
      </trkpt>
      <trkpt lat="36.9948399067" lon="-1.8947530165">
        <ele>7.83</ele>
        <time>2018-11-06T12:52:05Z</time>
      </trkpt>
      <trkpt lat="36.9948346261" lon="-1.8947535194">
        <ele>8.31</ele>
        <time>2018-11-06T12:52:29Z</time>
      </trkpt>
      <trkpt lat="36.9948321115" lon="-1.8947588000">
        <ele>7.35</ele>
        <time>2018-11-06T12:52:54Z</time>
      </trkpt>
      <trkpt lat="36.9948240649" lon="-1.8947515078">
        <ele>7.83</ele>
        <time>2018-11-06T12:53:13Z</time>
      </trkpt>
      <trkpt lat="36.9948404096" lon="-1.8947613984">
        <ele>7.83</ele>
        <time>2018-11-06T12:53:36Z</time>
      </trkpt>
      <trkpt lat="36.9948285073" lon="-1.8947574589">
        <ele>7.83</ele>
        <time>2018-11-06T12:54:00Z</time>
      </trkpt>
      <trkpt lat="36.9948268309" lon="-1.8947544415">
        <ele>7.83</ele>
        <time>2018-11-06T12:54:21Z</time>
      </trkpt>
      <trkpt lat="36.9948362187" lon="-1.8947547767">
        <ele>7.35</ele>
        <time>2018-11-06T12:54:45Z</time>
      </trkpt>
      <trkpt lat="36.9948321953" lon="-1.8947537709">
        <ele>7.83</ele>
        <time>2018-11-06T12:55:06Z</time>
      </trkpt>
      <trkpt lat="36.9948347937" lon="-1.8947551958">
        <ele>7.83</ele>
        <time>2018-11-06T12:55:28Z</time>
      </trkpt>
      <trkpt lat="36.9948411640" lon="-1.8947579619">
        <ele>7.83</ele>
        <time>2018-11-06T12:55:49Z</time>
      </trkpt>
      <trkpt lat="36.9948306866" lon="-1.8947572913">
        <ele>7.83</ele>
        <time>2018-11-06T12:56:08Z</time>
      </trkpt>
      <trkpt lat="36.9948277529" lon="-1.8947537709">
        <ele>7.35</ele>
        <time>2018-11-06T12:56:32Z</time>
      </trkpt>
      <trkpt lat="36.9948284235" lon="-1.8947636615">
        <ele>6.87</ele>
        <time>2018-11-06T12:56:51Z</time>
      </trkpt>
      <trkpt lat="36.9948350452" lon="-1.8947590515">
        <ele>7.35</ele>
        <time>2018-11-06T12:57:17Z</time>
      </trkpt>
      <trkpt lat="36.9948377274" lon="-1.8947623204">
        <ele>7.35</ele>
        <time>2018-11-06T12:57:38Z</time>
      </trkpt>
      <trkpt lat="36.9948413316" lon="-1.8947606441">
        <ele>6.87</ele>
        <time>2018-11-06T12:58:03Z</time>
      </trkpt>
      <trkpt lat="36.9948244840" lon="-1.8947588839">
        <ele>8.31</ele>
        <time>2018-11-06T12:58:26Z</time>
      </trkpt>
      <trkpt lat="36.9948267471" lon="-1.8947565369">
        <ele>6.87</ele>
        <time>2018-11-06T12:58:47Z</time>
      </trkpt>
      <trkpt lat="36.9948235620" lon="-1.8947534356">
        <ele>7.35</ele>
        <time>2018-11-06T12:59:12Z</time>
      </trkpt>
      <trkpt lat="36.9948314410" lon="-1.8947547767">
        <ele>7.35</ele>
        <time>2018-11-06T12:59:37Z</time>
      </trkpt>
      <trkpt lat="36.9948185328" lon="-1.8947484903">
        <ele>7.35</ele>
        <time>2018-11-06T12:59:59Z</time>
      </trkpt>
      <trkpt lat="36.9948318601" lon="-1.8947509211">
        <ele>6.87</ele>
        <time>2018-11-06T13:00:28Z</time>
      </trkpt>
      <trkpt lat="36.9948265795" lon="-1.8947484065">
        <ele>7.35</ele>
        <time>2018-11-06T13:00:49Z</time>
      </trkpt>
      <trkpt lat="36.9948227238" lon="-1.8947562017">
        <ele>6.39</ele>
        <time>2018-11-06T13:01:10Z</time>
      </trkpt>
      <trkpt lat="36.9948409125" lon="-1.8947562855">
        <ele>8.31</ele>
        <time>2018-11-06T13:01:34Z</time>
      </trkpt>
      <trkpt lat="36.9948367216" lon="-1.8947568722">
        <ele>7.83</ele>
        <time>2018-11-06T13:01:58Z</time>
      </trkpt>
      <trkpt lat="36.9948303513" lon="-1.8947508372">
        <ele>8.31</ele>
        <time>2018-11-06T13:02:20Z</time>
      </trkpt>
      <trkpt lat="36.9948191196" lon="-1.8947539385">
        <ele>8.31</ele>
        <time>2018-11-06T13:02:44Z</time>
      </trkpt>
      <trkpt lat="36.9948057085" lon="-1.8947467301">
        <ele>8.31</ele>
        <time>2018-11-06T13:03:07Z</time>
      </trkpt>
      <trkpt lat="36.9948010147" lon="-1.8947468139">
        <ele>8.79</ele>
        <time>2018-11-06T13:03:27Z</time>
      </trkpt>
      <trkpt lat="36.9948164374" lon="-1.8947484903">
        <ele>9.27</ele>
        <time>2018-11-06T13:03:48Z</time>
      </trkpt>
      <trkpt lat="36.9948367216" lon="-1.8947517592">
        <ele>10.71</ele>
        <time>2018-11-06T13:04:11Z</time>
      </trkpt>
      <trkpt lat="36.9948378950" lon="-1.8947445508">
        <ele>10.23</ele>
        <time>2018-11-06T13:04:36Z</time>
      </trkpt>
      <trkpt lat="36.9948255736" lon="-1.8947525136">
        <ele>8.31</ele>
        <time>2018-11-06T13:04:58Z</time>
      </trkpt>
      <trkpt lat="36.9948178623" lon="-1.8947481550">
        <ele>9.27</ele>
        <time>2018-11-06T13:05:17Z</time>
      </trkpt>
      <trkpt lat="36.9948269986" lon="-1.8947552796">
        <ele>7.83</ele>
        <time>2018-11-06T13:05:41Z</time>
      </trkpt>
      <trkpt lat="36.9948337879" lon="-1.8947532680">
        <ele>8.79</ele>
        <time>2018-11-06T13:06:04Z</time>
      </trkpt>
      <trkpt lat="36.9948326144" lon="-1.8947493285">
        <ele>8.79</ele>
        <time>2018-11-06T13:06:27Z</time>
      </trkpt>
      <trkpt lat="36.9948140904" lon="-1.8947485741">
        <ele>8.79</ele>
        <time>2018-11-06T13:06:47Z</time>
      </trkpt>
      <trkpt lat="36.9948204607" lon="-1.8947463948">
        <ele>9.27</ele>
        <time>2018-11-06T13:07:06Z</time>
      </trkpt>
      <trkpt lat="36.9948252384" lon="-1.8947470654">
        <ele>8.31</ele>
        <time>2018-11-06T13:07:23Z</time>
      </trkpt>
      <trkpt lat="36.9948269147" lon="-1.8947456405">
        <ele>7.35</ele>
        <time>2018-11-06T13:07:50Z</time>
      </trkpt>
      <trkpt lat="36.9948326144" lon="-1.8947492447">
        <ele>7.35</ele>
        <time>2018-11-06T13:08:09Z</time>
      </trkpt>
      <trkpt lat="36.9948312733" lon="-1.8947446346">
        <ele>7.83</ele>
        <time>2018-11-06T13:08:27Z</time>
      </trkpt>
      <trkpt lat="36.9948419183" lon="-1.8947638292">
        <ele>6.87</ele>
        <time>2018-11-06T13:08:48Z</time>
      </trkpt>
      <trkpt lat="36.9948425889" lon="-1.8947575428">
        <ele>7.35</ele>
        <time>2018-11-06T13:09:10Z</time>
      </trkpt>
      <trkpt lat="36.9948311895" lon="-1.8947605602">
        <ele>8.79</ele>
        <time>2018-11-06T13:09:35Z</time>
      </trkpt>
      <trkpt lat="36.9948552456" lon="-1.8947674334">
        <ele>8.79</ele>
        <time>2018-11-06T13:09:42Z</time>
      </trkpt>
      <trkpt lat="36.9948919583" lon="-1.8947633263">
        <ele>8.31</ele>
        <time>2018-11-06T13:09:46Z</time>
      </trkpt>
      <trkpt lat="36.9949900266" lon="-1.8947572913">
        <ele>7.83</ele>
        <time>2018-11-06T13:09:56Z</time>
      </trkpt>
      <trkpt lat="36.9950398989" lon="-1.8947827723">
        <ele>8.31</ele>
        <time>2018-11-06T13:10:02Z</time>
      </trkpt>
      <trkpt lat="36.9951478578" lon="-1.8948388472">
        <ele>7.83</ele>
        <time>2018-11-06T13:10:14Z</time>
      </trkpt>
      <trkpt lat="36.9952144101" lon="-1.8948539346">
        <ele>7.35</ele>
        <time>2018-11-06T13:10:23Z</time>
      </trkpt>
      <trkpt lat="36.9952172600" lon="-1.8948477320">
        <ele>6.87</ele>
        <time>2018-11-06T13:10:34Z</time>
      </trkpt>
      <trkpt lat="36.9952172600" lon="-1.8948499113">
        <ele>6.87</ele>
        <time>2018-11-06T13:10:35Z</time>
      </trkpt>
      <trkpt lat="36.9952894282" lon="-1.8947886396">
        <ele>6.87</ele>
        <time>2018-11-06T13:10:42Z</time>
      </trkpt>
      <trkpt lat="36.9953240454" lon="-1.8947061617">
        <ele>6.87</ele>
        <time>2018-11-06T13:10:47Z</time>
      </trkpt>
      <trkpt lat="36.9954075292" lon="-1.8945181556">
        <ele>7.83</ele>
        <time>2018-11-06T13:10:56Z</time>
      </trkpt>
      <trkpt lat="36.9954909291" lon="-1.8943214323">
        <ele>8.79</ele>
        <time>2018-11-06T13:11:05Z</time>
      </trkpt>
      <trkpt lat="36.9955678750" lon="-1.8941474240">
        <ele>9.27</ele>
        <time>2018-11-06T13:11:12Z</time>
      </trkpt>
      <trkpt lat="36.9956903346" lon="-1.8938497826">
        <ele>10.71</ele>
        <time>2018-11-06T13:11:23Z</time>
      </trkpt>
      <trkpt lat="36.9957785960" lon="-1.8935948052">
        <ele>10.71</ele>
        <time>2018-11-06T13:11:33Z</time>
      </trkpt>
      <trkpt lat="36.9957977906" lon="-1.8934987485">
        <ele>10.23</ele>
        <time>2018-11-06T13:11:39Z</time>
      </trkpt>
      <trkpt lat="36.9957996346" lon="-1.8934858404">
        <ele>11.19</ele>
        <time>2018-11-06T13:11:50Z</time>
      </trkpt>
      <trkpt lat="36.9957912527" lon="-1.8934928812">
        <ele>13.12</ele>
        <time>2018-11-06T13:12:06Z</time>
      </trkpt>
      <trkpt lat="36.9957826193" lon="-1.8934889417">
        <ele>14.08</ele>
        <time>2018-11-06T13:12:18Z</time>
      </trkpt>
      <trkpt lat="36.9957851339" lon="-1.8934795540">
        <ele>13.12</ele>
        <time>2018-11-06T13:12:31Z</time>
      </trkpt>
      <trkpt lat="36.9957907498" lon="-1.8934573419">
        <ele>13.60</ele>
        <time>2018-11-06T13:12:43Z</time>
      </trkpt>
      <trkpt lat="36.9958284684" lon="-1.8933137599">
        <ele>14.56</ele>
        <time>2018-11-06T13:12:51Z</time>
      </trkpt>
      <trkpt lat="36.9958913326" lon="-1.8931089062">
        <ele>13.12</ele>
        <time>2018-11-06T13:12:59Z</time>
      </trkpt>
      <trkpt lat="36.9959114492" lon="-1.8928464688">
        <ele>13.12</ele>
        <time>2018-11-06T13:13:07Z</time>
      </trkpt>
      <trkpt lat="36.9959696196" lon="-1.8925183173">
        <ele>11.67</ele>
        <time>2018-11-06T13:13:18Z</time>
      </trkpt>
      <trkpt lat="36.9960236829" lon="-1.8923047464">
        <ele>11.19</ele>
        <time>2018-11-06T13:13:27Z</time>
      </trkpt>
      <trkpt lat="36.9960676879" lon="-1.8921137229">
        <ele>11.67</ele>
        <time>2018-11-06T13:13:34Z</time>
      </trkpt>
      <trkpt lat="36.9961263612" lon="-1.8918615114">
        <ele>11.67</ele>
        <time>2018-11-06T13:13:44Z</time>
      </trkpt>
      <trkpt lat="36.9961981103" lon="-1.8916432466">
        <ele>10.23</ele>
        <time>2018-11-06T13:13:51Z</time>
      </trkpt>
      <trkpt lat="36.9963011239" lon="-1.8914327770">
        <ele>10.71</ele>
        <time>2018-11-06T13:13:58Z</time>
      </trkpt>
      <trkpt lat="36.9964454602" lon="-1.8911792245">
        <ele>10.71</ele>
        <time>2018-11-06T13:14:07Z</time>
      </trkpt>
      <trkpt lat="36.9965474680" lon="-1.8909819983">
        <ele>11.67</ele>
        <time>2018-11-06T13:14:14Z</time>
      </trkpt>
      <trkpt lat="36.9966832548" lon="-1.8907505739">
        <ele>12.15</ele>
        <time>2018-11-06T13:14:22Z</time>
      </trkpt>
      <trkpt lat="36.9967266731" lon="-1.8907139450">
        <ele>11.19</ele>
        <time>2018-11-06T13:14:26Z</time>
      </trkpt>
      <trkpt lat="36.9967358094" lon="-1.8907145318">
        <ele>11.19</ele>
        <time>2018-11-06T13:14:37Z</time>
      </trkpt>
      <trkpt lat="36.9967480469" lon="-1.8906675931">
        <ele>11.67</ele>
        <time>2018-11-06T13:14:47Z</time>
      </trkpt>
      <trkpt lat="36.9967855141" lon="-1.8905958440">
        <ele>10.71</ele>
        <time>2018-11-06T13:14:51Z</time>
      </trkpt>
      <trkpt lat="36.9969415013" lon="-1.8903850392">
        <ele>11.67</ele>
        <time>2018-11-06T13:15:01Z</time>
      </trkpt>
      <trkpt lat="36.9971328601" lon="-1.8903451413">
        <ele>11.67</ele>
        <time>2018-11-06T13:15:10Z</time>
      </trkpt>
      <trkpt lat="36.9974430744" lon="-1.8902992923">
        <ele>12.15</ele>
        <time>2018-11-06T13:15:21Z</time>
      </trkpt>
      <trkpt lat="36.9977811165" lon="-1.8902840372">
        <ele>12.63</ele>
        <time>2018-11-06T13:15:31Z</time>
      </trkpt>
      <trkpt lat="36.9981526025" lon="-1.8902622443">
        <ele>12.63</ele>
        <time>2018-11-06T13:15:42Z</time>
      </trkpt>
      <trkpt lat="36.9984736294" lon="-1.8902389426">
        <ele>12.63</ele>
        <time>2018-11-06T13:15:52Z</time>
      </trkpt>
      <trkpt lat="36.9986275211" lon="-1.8901829515">
        <ele>13.12</ele>
        <time>2018-11-06T13:15:57Z</time>
      </trkpt>
      <trkpt lat="36.9987884536" lon="-1.8902102765">
        <ele>13.12</ele>
        <time>2018-11-06T13:16:02Z</time>
      </trkpt>
      <trkpt lat="36.9989955705" lon="-1.8901585601">
        <ele>13.60</ele>
        <time>2018-11-06T13:16:08Z</time>
      </trkpt>
      <trkpt lat="36.9992761128" lon="-1.8900933489">
        <ele>13.60</ele>
        <time>2018-11-06T13:16:16Z</time>
      </trkpt>
      <trkpt lat="36.9995641988" lon="-1.8900229409">
        <ele>14.08</ele>
        <time>2018-11-06T13:16:24Z</time>
      </trkpt>
      <trkpt lat="36.9998512790" lon="-1.8899493478">
        <ele>14.56</ele>
        <time>2018-11-06T13:16:32Z</time>
      </trkpt>
      <trkpt lat="37.0002119523" lon="-1.8898989726">
        <ele>13.60</ele>
        <time>2018-11-06T13:16:42Z</time>
      </trkpt>
      <trkpt lat="37.0005794149" lon="-1.8898289837">
        <ele>12.63</ele>
        <time>2018-11-06T13:16:52Z</time>
      </trkpt>
      <trkpt lat="37.0008229930" lon="-1.8897770997">
        <ele>13.12</ele>
        <time>2018-11-06T13:16:59Z</time>
      </trkpt>
      <trkpt lat="37.0009330474" lon="-1.8897861522">
        <ele>12.63</ele>
        <time>2018-11-06T13:17:04Z</time>
      </trkpt>
      <trkpt lat="37.0011052117" lon="-1.8897844758">
        <ele>13.60</ele>
        <time>2018-11-06T13:17:12Z</time>
      </trkpt>
      <trkpt lat="37.0014299266" lon="-1.8897435721">
        <ele>13.60</ele>
        <time>2018-11-06T13:17:24Z</time>
      </trkpt>
      <trkpt lat="37.0016451739" lon="-1.8897310831">
        <ele>13.60</ele>
        <time>2018-11-06T13:17:33Z</time>
      </trkpt>
      <trkpt lat="37.0016653743" lon="-1.8897441588">
        <ele>13.60</ele>
        <time>2018-11-06T13:17:34Z</time>
      </trkpt>
      <trkpt lat="37.0016853232" lon="-1.8897690531">
        <ele>13.60</ele>
        <time>2018-11-06T13:17:35Z</time>
      </trkpt>
      <trkpt lat="37.0017018355" lon="-1.8898052629">
        <ele>13.60</ele>
        <time>2018-11-06T13:17:36Z</time>
      </trkpt>
      <trkpt lat="37.0017127320" lon="-1.8898453284">
        <ele>13.60</ele>
        <time>2018-11-06T13:17:37Z</time>
      </trkpt>
      <trkpt lat="37.0017221197" lon="-1.8898862321">
        <ele>13.60</ele>
        <time>2018-11-06T13:17:38Z</time>
      </trkpt>
      <trkpt lat="37.0017909352" lon="-1.8901539501">
        <ele>13.12</ele>
        <time>2018-11-06T13:17:45Z</time>
      </trkpt>
      <trkpt lat="37.0018151589" lon="-1.8901668582">
        <ele>13.12</ele>
        <time>2018-11-06T13:17:46Z</time>
      </trkpt>
      <trkpt lat="37.0018502790" lon="-1.8901635893">
        <ele>13.12</ele>
        <time>2018-11-06T13:17:47Z</time>
      </trkpt>
      <trkpt lat="37.0021858905" lon="-1.8900753278">
        <ele>12.63</ele>
        <time>2018-11-06T13:17:56Z</time>
      </trkpt>
      <trkpt lat="37.0023459848" lon="-1.8900169898">
        <ele>13.60</ele>
        <time>2018-11-06T13:18:02Z</time>
      </trkpt>
      <trkpt lat="37.0023644250" lon="-1.8899899162">
        <ele>14.08</ele>
        <time>2018-11-06T13:18:06Z</time>
      </trkpt>
      <trkpt lat="37.0023712981" lon="-1.8899996392">
        <ele>14.08</ele>
        <time>2018-11-06T13:18:07Z</time>
      </trkpt>
      <trkpt lat="37.0023739804" lon="-1.8900174927">
        <ele>14.08</ele>
        <time>2018-11-06T13:18:08Z</time>
      </trkpt>
      <trkpt lat="37.0023751538" lon="-1.8900406267">
        <ele>14.08</ele>
        <time>2018-11-06T13:18:09Z</time>
      </trkpt>
      <trkpt lat="37.0023777522" lon="-1.8900707178">
        <ele>14.08</ele>
        <time>2018-11-06T13:18:10Z</time>
      </trkpt>
      <trkpt lat="37.0023824461" lon="-1.8901018146">
        <ele>14.08</ele>
        <time>2018-11-06T13:18:11Z</time>
      </trkpt>
      <trkpt lat="37.0023893192" lon="-1.8901366834">
        <ele>14.08</ele>
        <time>2018-11-06T13:18:12Z</time>
      </trkpt>
      <trkpt lat="37.0023971144" lon="-1.8901726417">
        <ele>14.08</ele>
        <time>2018-11-06T13:18:13Z</time>
      </trkpt>
      <trkpt lat="37.0024028141" lon="-1.8902069237">
        <ele>14.08</ele>
        <time>2018-11-06T13:18:14Z</time>
      </trkpt>
      <trkpt lat="37.0024402812" lon="-1.8903945107">
        <ele>12.63</ele>
        <time>2018-11-06T13:18:20Z</time>
      </trkpt>
      <trkpt lat="37.0025147125" lon="-1.8904129509">
        <ele>12.15</ele>
        <time>2018-11-06T13:18:24Z</time>
      </trkpt>
      <trkpt lat="37.0027737971" lon="-1.8903127871">
        <ele>12.63</ele>
        <time>2018-11-06T13:18:32Z</time>
      </trkpt>
      <trkpt lat="37.0030959137" lon="-1.8901523575">
        <ele>13.60</ele>
        <time>2018-11-06T13:18:41Z</time>
      </trkpt>
      <trkpt lat="37.0031312853" lon="-1.8901277147">
        <ele>13.60</ele>
        <time>2018-11-06T13:18:42Z</time>
      </trkpt>
      <trkpt lat="37.0031591132" lon="-1.8899509404">
        <ele>13.60</ele>
        <time>2018-11-06T13:18:47Z</time>
      </trkpt>
      <trkpt lat="37.0031509828" lon="-1.8899105396">
        <ele>13.60</ele>
        <time>2018-11-06T13:18:48Z</time>
      </trkpt>
      <trkpt lat="37.0030709356" lon="-1.8895397242">
        <ele>12.63</ele>
        <time>2018-11-06T13:18:58Z</time>
      </trkpt>
      <trkpt lat="37.0030663256" lon="-1.8894851580">
        <ele>12.63</ele>
        <time>2018-11-06T13:19:00Z</time>
      </trkpt>
      <trkpt lat="37.0031136833" lon="-1.8894355372">
        <ele>11.67</ele>
        <time>2018-11-06T13:19:04Z</time>
      </trkpt>
      <trkpt lat="37.0031422656" lon="-1.8894289155">
        <ele>11.67</ele>
        <time>2018-11-06T13:19:05Z</time>
      </trkpt>
      <trkpt lat="37.0033487119" lon="-1.8893738464">
        <ele>12.15</ele>
        <time>2018-11-06T13:19:14Z</time>
      </trkpt>
      <trkpt lat="37.0035591815" lon="-1.8893559929">
        <ele>12.15</ele>
        <time>2018-11-06T13:19:23Z</time>
      </trkpt>
      <trkpt lat="37.0038397238" lon="-1.8892951403">
        <ele>12.63</ele>
        <time>2018-11-06T13:19:32Z</time>
      </trkpt>
      <trkpt lat="37.0041500218" lon="-1.8892305996">
        <ele>13.12</ele>
        <time>2018-11-06T13:19:42Z</time>
      </trkpt>
      <trkpt lat="37.0043537021" lon="-1.8891827390">
        <ele>13.60</ele>
        <time>2018-11-06T13:19:50Z</time>
      </trkpt>
      <trkpt lat="37.0045645908" lon="-1.8891453557">
        <ele>14.56</ele>
        <time>2018-11-06T13:19:58Z</time>
      </trkpt>
      <trkpt lat="37.0048468094" lon="-1.8890928850">
        <ele>14.08</ele>
        <time>2018-11-06T13:20:08Z</time>
      </trkpt>
      <trkpt lat="37.0050550159" lon="-1.8890296854">
        <ele>13.60</ele>
        <time>2018-11-06T13:20:16Z</time>
      </trkpt>
      <trkpt lat="37.0053327922" lon="-1.8889594451">
        <ele>12.15</ele>
        <time>2018-11-06T13:20:25Z</time>
      </trkpt>
      <trkpt lat="37.0055874344" lon="-1.8889414240">
        <ele>12.15</ele>
        <time>2018-11-06T13:20:34Z</time>
      </trkpt>
      <trkpt lat="37.0057473611" lon="-1.8890738580">
        <ele>12.15</ele>
        <time>2018-11-06T13:20:41Z</time>
      </trkpt>
      <trkpt lat="37.0058390591" lon="-1.8892256543">
        <ele>12.63</ele>
        <time>2018-11-06T13:20:46Z</time>
      </trkpt>
      <trkpt lat="37.0059475210" lon="-1.8894588389">
        <ele>12.15</ele>
        <time>2018-11-06T13:20:53Z</time>
      </trkpt>
      <trkpt lat="37.0059737563" lon="-1.8894617725">
        <ele>12.15</ele>
        <time>2018-11-06T13:20:54Z</time>
      </trkpt>
      <trkpt lat="37.0059963875" lon="-1.8894589227">
        <ele>12.63</ele>
        <time>2018-11-06T13:20:55Z</time>
      </trkpt>
      <trkpt lat="37.0060183480" lon="-1.8894551508">
        <ele>12.63</ele>
        <time>2018-11-06T13:20:56Z</time>
      </trkpt>
      <trkpt lat="37.0060419012" lon="-1.8894506246">
        <ele>13.12</ele>
        <time>2018-11-06T13:20:57Z</time>
      </trkpt>
      <trkpt lat="37.0060636103" lon="-1.8894461822">
        <ele>13.60</ele>
        <time>2018-11-06T13:20:58Z</time>
      </trkpt>
      <trkpt lat="37.0062723197" lon="-1.8893948849">
        <ele>16.96</ele>
        <time>2018-11-06T13:21:07Z</time>
      </trkpt>
      <trkpt lat="37.0064460766" lon="-1.8893711641">
        <ele>18.88</ele>
        <time>2018-11-06T13:21:14Z</time>
      </trkpt>
      <trkpt lat="37.0068100188" lon="-1.8893132452">
        <ele>19.36</ele>
        <time>2018-11-06T13:21:26Z</time>
      </trkpt>
      <trkpt lat="37.0070782397" lon="-1.8893026002">
        <ele>20.81</ele>
        <time>2018-11-06T13:21:36Z</time>
      </trkpt>
      <trkpt lat="37.0072744600" lon="-1.8892912008">
        <ele>22.73</ele>
        <time>2018-11-06T13:21:45Z</time>
      </trkpt>
      <trkpt lat="37.0074481331" lon="-1.8892919552">
        <ele>24.17</ele>
        <time>2018-11-06T13:21:54Z</time>
      </trkpt>
      <trkpt lat="37.0076657273" lon="-1.8892751075">
        <ele>24.65</ele>
        <time>2018-11-06T13:22:04Z</time>
      </trkpt>
      <trkpt lat="37.0078570861" lon="-1.8892205413">
        <ele>24.17</ele>
        <time>2018-11-06T13:22:13Z</time>
      </trkpt>
      <trkpt lat="37.0080600958" lon="-1.8891725969">
        <ele>24.65</ele>
        <time>2018-11-06T13:22:23Z</time>
      </trkpt>
      <trkpt lat="37.0082530472" lon="-1.8891608622">
        <ele>25.61</ele>
        <time>2018-11-06T13:22:33Z</time>
      </trkpt>
      <trkpt lat="37.0084444061" lon="-1.8891640473">
        <ele>27.05</ele>
        <time>2018-11-06T13:22:43Z</time>
      </trkpt>
      <trkpt lat="37.0086382795" lon="-1.8891598564">
        <ele>29.94</ele>
        <time>2018-11-06T13:22:53Z</time>
      </trkpt>
      <trkpt lat="37.0087917522" lon="-1.8891444337">
        <ele>34.26</ele>
        <time>2018-11-06T13:23:02Z</time>
      </trkpt>
      <trkpt lat="37.0089745615" lon="-1.8891005125">
        <ele>35.23</ele>
        <time>2018-11-06T13:23:10Z</time>
      </trkpt>
      <trkpt lat="37.0091556106" lon="-1.8890815694">
        <ele>34.26</ele>
        <time>2018-11-06T13:23:20Z</time>
      </trkpt>
      <trkpt lat="37.0092033874" lon="-1.8890672363">
        <ele>33.30</ele>
        <time>2018-11-06T13:23:24Z</time>
      </trkpt>
      <trkpt lat="37.0092206541" lon="-1.8890552502">
        <ele>32.34</ele>
        <time>2018-11-06T13:23:30Z</time>
      </trkpt>
      <trkpt lat="37.0092265215" lon="-1.8890606984">
        <ele>30.90</ele>
        <time>2018-11-06T13:23:41Z</time>
      </trkpt>
      <trkpt lat="37.0092258509" lon="-1.8890568428">
        <ele>28.98</ele>
        <time>2018-11-06T13:23:58Z</time>
      </trkpt>
      <trkpt lat="37.0092272758" lon="-1.8890517298">
        <ele>27.53</ele>
        <time>2018-11-06T13:24:13Z</time>
      </trkpt>
      <trkpt lat="37.0092394296" lon="-1.8890590221">
        <ele>28.02</ele>
        <time>2018-11-06T13:24:26Z</time>
      </trkpt>
      <trkpt lat="37.0092384238" lon="-1.8890684098">
        <ele>27.53</ele>
        <time>2018-11-06T13:24:39Z</time>
      </trkpt>
      <trkpt lat="37.0092499070" lon="-1.8890773784">
        <ele>26.57</ele>
        <time>2018-11-06T13:24:53Z</time>
      </trkpt>
      <trkpt lat="37.0092450455" lon="-1.8890801445">
        <ele>27.53</ele>
        <time>2018-11-06T13:25:03Z</time>
      </trkpt>
      <trkpt lat="37.0092338976" lon="-1.8890611175">
        <ele>25.13</ele>
        <time>2018-11-06T13:25:13Z</time>
      </trkpt>
      <trkpt lat="37.0092449617" lon="-1.8890408333">
        <ele>26.57</ele>
        <time>2018-11-06T13:25:26Z</time>
      </trkpt>
      <trkpt lat="37.0092517510" lon="-1.8890458625">
        <ele>26.57</ele>
        <time>2018-11-06T13:25:28Z</time>
      </trkpt>
      <trkpt lat="37.0092709456" lon="-1.8890527356">
        <ele>27.05</ele>
        <time>2018-11-06T13:25:30Z</time>
      </trkpt>
      <trkpt lat="37.0092842728" lon="-1.8890508078">
        <ele>27.53</ele>
        <time>2018-11-06T13:25:31Z</time>
      </trkpt>
      <trkpt lat="37.0094227418" lon="-1.8890133407">
        <ele>28.98</ele>
        <time>2018-11-06T13:25:40Z</time>
      </trkpt>
      <trkpt lat="37.0094392542" lon="-1.8890122510">
        <ele>28.98</ele>
        <time>2018-11-06T13:25:41Z</time>
      </trkpt>
      <trkpt lat="37.0094579458" lon="-1.8890127540">
        <ele>28.98</ele>
        <time>2018-11-06T13:25:42Z</time>
      </trkpt>
      <trkpt lat="37.0094760507" lon="-1.8890115805">
        <ele>28.98</ele>
        <time>2018-11-06T13:25:43Z</time>
      </trkpt>
      <trkpt lat="37.0094955806" lon="-1.8890084792">
        <ele>29.46</ele>
        <time>2018-11-06T13:25:44Z</time>
      </trkpt>
      <trkpt lat="37.0095155295" lon="-1.8890042044">
        <ele>29.46</ele>
        <time>2018-11-06T13:25:45Z</time>
      </trkpt>
      <trkpt lat="37.0096670743" lon="-1.8889667373">
        <ele>30.42</ele>
        <time>2018-11-06T13:25:53Z</time>
      </trkpt>
      <trkpt lat="37.0097057149" lon="-1.8889698386">
        <ele>30.42</ele>
        <time>2018-11-06T13:25:55Z</time>
      </trkpt>
      <trkpt lat="37.0098461118" lon="-1.8890398275">
        <ele>32.34</ele>
        <time>2018-11-06T13:26:03Z</time>
      </trkpt>
      <trkpt lat="37.0099631231" lon="-1.8890893646">
        <ele>34.26</ele>
        <time>2018-11-06T13:26:11Z</time>
      </trkpt>
      <trkpt lat="37.0100761112" lon="-1.8891523127">
        <ele>36.67</ele>
        <time>2018-11-06T13:26:18Z</time>
      </trkpt>
      <trkpt lat="37.0101952180" lon="-1.8891391531">
        <ele>38.11</ele>
        <time>2018-11-06T13:26:25Z</time>
      </trkpt>
      <trkpt lat="37.0103476010" lon="-1.8890762050">
        <ele>39.07</ele>
        <time>2018-11-06T13:26:34Z</time>
      </trkpt>
      <trkpt lat="37.0104600023" lon="-1.8890373968">
        <ele>40.99</ele>
        <time>2018-11-06T13:26:41Z</time>
      </trkpt>
      <trkpt lat="37.0105709787" lon="-1.8889374007">
        <ele>42.44</ele>
        <time>2018-11-06T13:26:50Z</time>
      </trkpt>
      <trkpt lat="37.0106133074" lon="-1.8888483010">
        <ele>42.92</ele>
        <time>2018-11-06T13:26:57Z</time>
      </trkpt>
      <trkpt lat="37.0106005669" lon="-1.8887158670">
        <ele>45.32</ele>
        <time>2018-11-06T13:27:06Z</time>
      </trkpt>
      <trkpt lat="37.0105932746" lon="-1.8887040485">
        <ele>46.28</ele>
        <time>2018-11-06T13:27:07Z</time>
      </trkpt>
      <trkpt lat="37.0105874911" lon="-1.8886897154">
        <ele>46.28</ele>
        <time>2018-11-06T13:27:08Z</time>
      </trkpt>
      <trkpt lat="37.0105839707" lon="-1.8886738736">
        <ele>46.76</ele>
        <time>2018-11-06T13:27:09Z</time>
      </trkpt>
      <trkpt lat="37.0105791930" lon="-1.8886571936">
        <ele>47.24</ele>
        <time>2018-11-06T13:27:10Z</time>
      </trkpt>
      <trkpt lat="37.0105746668" lon="-1.8886387534">
        <ele>47.72</ele>
        <time>2018-11-06T13:27:11Z</time>
      </trkpt>
      <trkpt lat="37.0105764270" lon="-1.8885101750">
        <ele>48.68</ele>
        <time>2018-11-06T13:27:18Z</time>
      </trkpt>
      <trkpt lat="37.0105884131" lon="-1.8884968478">
        <ele>49.16</ele>
        <time>2018-11-06T13:27:19Z</time>
      </trkpt>
      <trkpt lat="37.0106027462" lon="-1.8884889688">
        <ele>49.65</ele>
        <time>2018-11-06T13:27:20Z</time>
      </trkpt>
      <trkpt lat="37.0106172469" lon="-1.8884809222">
        <ele>50.13</ele>
        <time>2018-11-06T13:27:21Z</time>
      </trkpt>
      <trkpt lat="37.0106306579" lon="-1.8884725403">
        <ele>50.61</ele>
        <time>2018-11-06T13:27:22Z</time>
      </trkpt>
      <trkpt lat="37.0106464159" lon="-1.8884667568">
        <ele>50.61</ele>
        <time>2018-11-06T13:27:23Z</time>
      </trkpt>
      <trkpt lat="37.0106619224" lon="-1.8884615600">
        <ele>50.61</ele>
        <time>2018-11-06T13:27:24Z</time>
      </trkpt>
      <trkpt lat="37.0106764231" lon="-1.8884572014">
        <ele>51.09</ele>
        <time>2018-11-06T13:27:25Z</time>
      </trkpt>
      <trkpt lat="37.0107856393" lon="-1.8884278648">
        <ele>51.09</ele>
        <time>2018-11-06T13:27:32Z</time>
      </trkpt>
      <trkpt lat="37.0109376032" lon="-1.8884049822">
        <ele>51.57</ele>
        <time>2018-11-06T13:27:42Z</time>
      </trkpt>
      <trkpt lat="37.0109659340" lon="-1.8883969355">
        <ele>51.57</ele>
        <time>2018-11-06T13:27:45Z</time>
      </trkpt>
      <trkpt lat="37.0110414550" lon="-1.8883831892">
        <ele>51.57</ele>
        <time>2018-11-06T13:27:51Z</time>
      </trkpt>
      <trkpt lat="37.0110546984" lon="-1.8883888051">
        <ele>52.05</ele>
        <time>2018-11-06T13:27:52Z</time>
      </trkpt>
      <trkpt lat="37.0110686962" lon="-1.8883911520">
        <ele>52.05</ele>
        <time>2018-11-06T13:27:53Z</time>
      </trkpt>
      <trkpt lat="37.0111852046" lon="-1.8883919064">
        <ele>53.49</ele>
        <time>2018-11-06T13:28:01Z</time>
      </trkpt>
      <trkpt lat="37.0112016331" lon="-1.8883859552">
        <ele>53.49</ele>
        <time>2018-11-06T13:28:02Z</time>
      </trkpt>
      <trkpt lat="37.0112142060" lon="-1.8883775733">
        <ele>53.97</ele>
        <time>2018-11-06T13:28:03Z</time>
      </trkpt>
      <trkpt lat="37.0112263598" lon="-1.8883657549">
        <ele>54.45</ele>
        <time>2018-11-06T13:28:04Z</time>
      </trkpt>
      <trkpt lat="37.0112367533" lon="-1.8883505836">
        <ele>54.45</ele>
        <time>2018-11-06T13:28:05Z</time>
      </trkpt>
      <trkpt lat="37.0112447161" lon="-1.8883355800">
        <ele>54.45</ele>
        <time>2018-11-06T13:28:06Z</time>
      </trkpt>
      <trkpt lat="37.0112673473" lon="-1.8882945925">
        <ele>54.93</ele>
        <time>2018-11-06T13:28:09Z</time>
      </trkpt>
      <trkpt lat="37.0112697780" lon="-1.8882814329">
        <ele>54.93</ele>
        <time>2018-11-06T13:28:10Z</time>
      </trkpt>
      <trkpt lat="37.0112706162" lon="-1.8882694468">
        <ele>54.93</ele>
        <time>2018-11-06T13:28:11Z</time>
      </trkpt>
      <trkpt lat="37.0112728793" lon="-1.8882572930">
        <ele>55.41</ele>
        <time>2018-11-06T13:28:12Z</time>
      </trkpt>
      <trkpt lat="37.0112758130" lon="-1.8882425409">
        <ele>55.41</ele>
        <time>2018-11-06T13:28:13Z</time>
      </trkpt>
      <trkpt lat="37.0112805907" lon="-1.8882279564">
        <ele>55.41</ele>
        <time>2018-11-06T13:28:14Z</time>
      </trkpt>
      <trkpt lat="37.0112899784" lon="-1.8882142100">
        <ele>55.41</ele>
        <time>2018-11-06T13:28:15Z</time>
      </trkpt>
      <trkpt lat="37.0112934150" lon="-1.8882016372">
        <ele>55.41</ele>
        <time>2018-11-06T13:28:16Z</time>
      </trkpt>
      <trkpt lat="37.0112962648" lon="-1.8881881423">
        <ele>55.89</ele>
        <time>2018-11-06T13:28:17Z</time>
      </trkpt>
      <trkpt lat="37.0112991147" lon="-1.8881732225">
        <ele>55.89</ele>
        <time>2018-11-06T13:28:18Z</time>
      </trkpt>
      <trkpt lat="37.0112940017" lon="-1.8881593086">
        <ele>55.89</ele>
        <time>2018-11-06T13:28:24Z</time>
      </trkpt>
      <trkpt lat="37.0112860389" lon="-1.8881636672">
        <ele>56.86</ele>
        <time>2018-11-06T13:28:39Z</time>
      </trkpt>
      <trkpt lat="37.0112856198" lon="-1.8881572969">
        <ele>57.82</ele>
        <time>2018-11-06T13:28:47Z</time>
      </trkpt>
      <trkpt lat="37.0112674311" lon="-1.8881748151">
        <ele>57.82</ele>
        <time>2018-11-06T13:29:00Z</time>
      </trkpt>
      <trkpt lat="37.0113003720" lon="-1.8881807663">
        <ele>58.78</ele>
        <time>2018-11-06T13:29:22Z</time>
      </trkpt>
      <trkpt lat="37.0112827700" lon="-1.8881789222">
        <ele>60.70</ele>
        <time>2018-11-06T13:29:44Z</time>
      </trkpt>
      <trkpt lat="37.0112723764" lon="-1.8881759886">
        <ele>60.70</ele>
        <time>2018-11-06T13:29:57Z</time>
      </trkpt>
      <trkpt lat="37.0112747233" lon="-1.8881693669">
        <ele>60.22</ele>
        <time>2018-11-06T13:30:10Z</time>
      </trkpt>
      <trkpt lat="37.0112810098" lon="-1.8881681934">
        <ele>60.22</ele>
        <time>2018-11-06T13:30:25Z</time>
      </trkpt>
      <trkpt lat="37.0112847816" lon="-1.8881472386">
        <ele>59.26</ele>
        <time>2018-11-06T13:30:38Z</time>
      </trkpt>
      <trkpt lat="37.0112981088" lon="-1.8881484121">
        <ele>58.78</ele>
        <time>2018-11-06T13:30:50Z</time>
      </trkpt>
      <trkpt lat="37.0112933312" lon="-1.8881552853">
        <ele>59.74</ele>
        <time>2018-11-06T13:31:02Z</time>
      </trkpt>
      <trkpt lat="37.0112838596" lon="-1.8881677743">
        <ele>60.22</ele>
        <time>2018-11-06T13:31:15Z</time>
      </trkpt>
      <trkpt lat="37.0113001205" lon="-1.8881614041">
        <ele>59.74</ele>
        <time>2018-11-06T13:31:19Z</time>
      </trkpt>
      <trkpt lat="37.0113815926" lon="-1.8880520202">
        <ele>60.70</ele>
        <time>2018-11-06T13:31:26Z</time>
      </trkpt>
      <trkpt lat="37.0114354044" lon="-1.8878698815">
        <ele>61.66</ele>
        <time>2018-11-06T13:31:33Z</time>
      </trkpt>
      <trkpt lat="37.0115120150" lon="-1.8876522873">
        <ele>63.10</ele>
        <time>2018-11-06T13:31:41Z</time>
      </trkpt>
      <trkpt lat="37.0115827583" lon="-1.8874685559">
        <ele>63.10</ele>
        <time>2018-11-06T13:31:48Z</time>
      </trkpt>
      <trkpt lat="37.0117322076" lon="-1.8871705793">
        <ele>62.62</ele>
        <time>2018-11-06T13:31:59Z</time>
      </trkpt>
      <trkpt lat="37.0119629614" lon="-1.8868546654">
        <ele>60.70</ele>
        <time>2018-11-06T13:32:08Z</time>
      </trkpt>
      <trkpt lat="37.0122348703" lon="-1.8865866959">
        <ele>57.82</ele>
        <time>2018-11-06T13:32:14Z</time>
      </trkpt>
      <trkpt lat="37.0126620959" lon="-1.8861825205">
        <ele>53.97</ele>
        <time>2018-11-06T13:32:21Z</time>
      </trkpt>
      <trkpt lat="37.0131881442" lon="-1.8856151495">
        <ele>49.16</ele>
        <time>2018-11-06T13:32:28Z</time>
      </trkpt>
      <trkpt lat="37.0135915652" lon="-1.8849500455">
        <ele>44.36</ele>
        <time>2018-11-06T13:32:34Z</time>
      </trkpt>
      <trkpt lat="37.0142606925" lon="-1.8836748227">
        <ele>36.19</ele>
        <time>2018-11-06T13:32:44Z</time>
      </trkpt>
      <trkpt lat="37.0147797000" lon="-1.8828652985">
        <ele>31.86</ele>
        <time>2018-11-06T13:32:51Z</time>
      </trkpt>
      <trkpt lat="37.0155328140" lon="-1.8819644954">
        <ele>28.02</ele>
        <time>2018-11-06T13:33:00Z</time>
      </trkpt>
      <trkpt lat="37.0160606224" lon="-1.8813632615">
        <ele>23.69</ele>
        <time>2018-11-06T13:33:07Z</time>
      </trkpt>
      <trkpt lat="37.0168411452" lon="-1.8806879316">
        <ele>18.40</ele>
        <time>2018-11-06T13:33:16Z</time>
      </trkpt>
      <trkpt lat="37.0176444668" lon="-1.8801296968">
        <ele>15.04</ele>
        <time>2018-11-06T13:33:25Z</time>
      </trkpt>
      <trkpt lat="37.0185007621" lon="-1.8795412872">
        <ele>11.67</ele>
        <time>2018-11-06T13:33:36Z</time>
      </trkpt>
      <trkpt lat="37.0190693904" lon="-1.8792765867">
        <ele>10.23</ele>
        <time>2018-11-06T13:33:43Z</time>
      </trkpt>
      <trkpt lat="37.0196339116" lon="-1.8792090286">
        <ele>10.23</ele>
        <time>2018-11-06T13:33:50Z</time>
      </trkpt>
      <trkpt lat="37.0202869456" lon="-1.8791950308">
        <ele>10.71</ele>
        <time>2018-11-06T13:33:59Z</time>
      </trkpt>
      <trkpt lat="37.0207432564" lon="-1.8792604934">
        <ele>12.15</ele>
        <time>2018-11-06T13:34:07Z</time>
      </trkpt>
      <trkpt lat="37.0211257227" lon="-1.8794206716">
        <ele>13.60</ele>
        <time>2018-11-06T13:34:16Z</time>
      </trkpt>
      <trkpt lat="37.0215607435" lon="-1.8796636630">
        <ele>15.04</ele>
        <time>2018-11-06T13:34:27Z</time>
      </trkpt>
      <trkpt lat="37.0220592152" lon="-1.8799608015">
        <ele>15.04</ele>
        <time>2018-11-06T13:34:40Z</time>
      </trkpt>
      <trkpt lat="37.0224251691" lon="-1.8801834248">
        <ele>15.04</ele>
        <time>2018-11-06T13:34:49Z</time>
      </trkpt>
      <trkpt lat="37.0229884330" lon="-1.8805275857">
        <ele>15.52</ele>
        <time>2018-11-06T13:35:02Z</time>
      </trkpt>
      <trkpt lat="37.0233631041" lon="-1.8807520531">
        <ele>15.52</ele>
        <time>2018-11-06T13:35:11Z</time>
      </trkpt>
      <trkpt lat="37.0238240249" lon="-1.8810320925">
        <ele>16.48</ele>
        <time>2018-11-06T13:35:22Z</time>
      </trkpt>
      <trkpt lat="37.0240790863" lon="-1.8811789434">
        <ele>16.96</ele>
        <time>2018-11-06T13:35:28Z</time>
      </trkpt>
      <trkpt lat="37.0241242647" lon="-1.8811980542">
        <ele>16.96</ele>
        <time>2018-11-06T13:35:29Z</time>
      </trkpt>
      <trkpt lat="37.0245313738" lon="-1.8812436517">
        <ele>16.48</ele>
        <time>2018-11-06T13:35:38Z</time>
      </trkpt>
      <trkpt lat="37.0245720260" lon="-1.8812271394">
        <ele>16.48</ele>
        <time>2018-11-06T13:35:39Z</time>
      </trkpt>
      <trkpt lat="37.0248797256" lon="-1.8810467608">
        <ele>16.96</ele>
        <time>2018-11-06T13:35:48Z</time>
      </trkpt>
      <trkpt lat="37.0250850823" lon="-1.8808209524">
        <ele>17.44</ele>
        <time>2018-11-06T13:35:58Z</time>
      </trkpt>
      <trkpt lat="37.0251988247" lon="-1.8806182779">
        <ele>19.36</ele>
        <time>2018-11-06T13:36:08Z</time>
      </trkpt>
      <trkpt lat="37.0252900198" lon="-1.8804473709">
        <ele>21.77</ele>
        <time>2018-11-06T13:36:18Z</time>
      </trkpt>
      <trkpt lat="37.0253542252" lon="-1.8803254981">
        <ele>23.21</ele>
        <time>2018-11-06T13:36:25Z</time>
      </trkpt>
      <trkpt lat="37.0254653692" lon="-1.8801883701">
        <ele>24.65</ele>
        <time>2018-11-06T13:36:34Z</time>
      </trkpt>
      <trkpt lat="37.0256154891" lon="-1.8800604623">
        <ele>25.61</ele>
        <time>2018-11-06T13:36:44Z</time>
      </trkpt>
      <trkpt lat="37.0257557184" lon="-1.8799939938">
        <ele>27.53</ele>
        <time>2018-11-06T13:36:53Z</time>
      </trkpt>
      <trkpt lat="37.0259292237" lon="-1.8799818400">
        <ele>28.50</ele>
        <time>2018-11-06T13:37:03Z</time>
      </trkpt>
      <trkpt lat="37.0261096023" lon="-1.8800195586">
        <ele>28.98</ele>
        <time>2018-11-06T13:37:13Z</time>
      </trkpt>
      <trkpt lat="37.0262603927" lon="-1.8800828420">
        <ele>29.46</ele>
        <time>2018-11-06T13:37:22Z</time>
      </trkpt>
      <trkpt lat="37.0264003705" lon="-1.8801860232">
        <ele>31.86</ele>
        <time>2018-11-06T13:37:32Z</time>
      </trkpt>
      <trkpt lat="37.0265098382" lon="-1.8803001847">
        <ele>32.82</ele>
        <time>2018-11-06T13:37:41Z</time>
      </trkpt>
      <trkpt lat="37.0266096666" lon="-1.8804382347">
        <ele>33.78</ele>
        <time>2018-11-06T13:37:51Z</time>
      </trkpt>
      <trkpt lat="37.0266739558" lon="-1.8805653881">
        <ele>34.26</ele>
        <time>2018-11-06T13:37:59Z</time>
      </trkpt>
      <trkpt lat="37.0267549250" lon="-1.8807232194">
        <ele>34.74</ele>
        <time>2018-11-06T13:38:08Z</time>
      </trkpt>
      <trkpt lat="37.0268437732" lon="-1.8809235469">
        <ele>35.71</ele>
        <time>2018-11-06T13:38:19Z</time>
      </trkpt>
      <trkpt lat="37.0269372314" lon="-1.8811171688">
        <ele>37.15</ele>
        <time>2018-11-06T13:38:30Z</time>
      </trkpt>
      <trkpt lat="37.0270223077" lon="-1.8813368585">
        <ele>38.59</ele>
        <time>2018-11-06T13:38:41Z</time>
      </trkpt>
      <trkpt lat="37.0270909555" lon="-1.8815004732">
        <ele>39.07</ele>
        <time>2018-11-06T13:38:50Z</time>
      </trkpt>
      <trkpt lat="37.0271617826" lon="-1.8816563766">
        <ele>40.03</ele>
        <time>2018-11-06T13:38:58Z</time>
      </trkpt>
      <trkpt lat="37.0272571687" lon="-1.8818454724">
        <ele>40.03</ele>
        <time>2018-11-06T13:39:08Z</time>
      </trkpt>
      <trkpt lat="37.0273517165" lon="-1.8820224982">
        <ele>40.99</ele>
        <time>2018-11-06T13:39:17Z</time>
      </trkpt>
      <trkpt lat="37.0274722483" lon="-1.8821623083">
        <ele>40.99</ele>
        <time>2018-11-06T13:39:25Z</time>
      </trkpt>
      <trkpt lat="37.0276170038" lon="-1.8822802417">
        <ele>40.99</ele>
        <time>2018-11-06T13:39:33Z</time>
      </trkpt>
      <trkpt lat="37.0277813729" lon="-1.8823564332">
        <ele>40.51</ele>
        <time>2018-11-06T13:39:41Z</time>
      </trkpt>
      <trkpt lat="37.0279766712" lon="-1.8824278470">
        <ele>40.99</ele>
        <time>2018-11-06T13:39:50Z</time>
      </trkpt>
      <trkpt lat="37.0281502604" lon="-1.8824433535">
        <ele>41.95</ele>
        <time>2018-11-06T13:39:58Z</time>
      </trkpt>
      <trkpt lat="37.0283199940" lon="-1.8824552558">
        <ele>41.95</ele>
        <time>2018-11-06T13:40:06Z</time>
      </trkpt>
      <trkpt lat="37.0284934156" lon="-1.8824669905">
        <ele>41.47</ele>
        <time>2018-11-06T13:40:13Z</time>
      </trkpt>
      <trkpt lat="37.0287244208" lon="-1.8825088162">
        <ele>41.47</ele>
        <time>2018-11-06T13:40:22Z</time>
      </trkpt>
      <trkpt lat="37.0290107466" lon="-1.8825344648">
        <ele>41.47</ele>
        <time>2018-11-06T13:40:30Z</time>
      </trkpt>
      <trkpt lat="37.0293921232" lon="-1.8825860135">
        <ele>40.51</ele>
        <time>2018-11-06T13:40:37Z</time>
      </trkpt>
      <trkpt lat="37.0298795309" lon="-1.8826249056">
        <ele>38.11</ele>
        <time>2018-11-06T13:40:43Z</time>
      </trkpt>
      <trkpt lat="37.0299676247" lon="-1.8826161884">
        <ele>37.63</ele>
        <time>2018-11-06T13:40:44Z</time>
      </trkpt>
      <trkpt lat="37.0300568081" lon="-1.8825948983">
        <ele>37.63</ele>
        <time>2018-11-06T13:40:45Z</time>
      </trkpt>
      <trkpt lat="37.0301434770" lon="-1.8825617060">
        <ele>37.15</ele>
        <time>2018-11-06T13:40:46Z</time>
      </trkpt>
      <trkpt lat="37.0302266255" lon="-1.8825134262">
        <ele>36.67</ele>
        <time>2018-11-06T13:40:47Z</time>
      </trkpt>
      <trkpt lat="37.0303021464" lon="-1.8824508134">
        <ele>36.67</ele>
        <time>2018-11-06T13:40:48Z</time>
      </trkpt>
      <trkpt lat="37.0303704590" lon="-1.8823781423">
        <ele>36.19</ele>
        <time>2018-11-06T13:40:49Z</time>
      </trkpt>
      <trkpt lat="37.0304340776" lon="-1.8822907191">
        <ele>35.71</ele>
        <time>2018-11-06T13:40:50Z</time>
      </trkpt>
      <trkpt lat="37.0304840337" lon="-1.8822053913">
        <ele>35.71</ele>
        <time>2018-11-06T13:40:51Z</time>
      </trkpt>
      <trkpt lat="37.0305255242" lon="-1.8821219914">
        <ele>35.71</ele>
        <time>2018-11-06T13:40:52Z</time>
      </trkpt>
      <trkpt lat="37.0305640809" lon="-1.8820348196">
        <ele>35.71</ele>
        <time>2018-11-06T13:40:53Z</time>
      </trkpt>
      <trkpt lat="37.0305973571" lon="-1.8819499109">
        <ele>35.71</ele>
        <time>2018-11-06T13:40:54Z</time>
      </trkpt>
      <trkpt lat="37.0307494886" lon="-1.8815151416">
        <ele>36.19</ele>
        <time>2018-11-06T13:41:00Z</time>
      </trkpt>
      <trkpt lat="37.0308476407" lon="-1.8812746648">
        <ele>37.15</ele>
        <time>2018-11-06T13:41:06Z</time>
      </trkpt>
      <trkpt lat="37.0310407598" lon="-1.8809246365">
        <ele>40.51</ele>
        <time>2018-11-06T13:41:17Z</time>
      </trkpt>
      <trkpt lat="37.0311852638" lon="-1.8806417473">
        <ele>44.36</ele>
        <time>2018-11-06T13:41:27Z</time>
      </trkpt>
      <trkpt lat="37.0313058794" lon="-1.8804526515">
        <ele>45.80</ele>
        <time>2018-11-06T13:41:35Z</time>
      </trkpt>
      <trkpt lat="37.0314557478" lon="-1.8802347220">
        <ele>45.80</ele>
        <time>2018-11-06T13:41:44Z</time>
      </trkpt>
      <trkpt lat="37.0315960608" lon="-1.8800336402">
        <ele>45.80</ele>
        <time>2018-11-06T13:41:52Z</time>
      </trkpt>
      <trkpt lat="37.0318128169" lon="-1.8797404412">
        <ele>46.28</ele>
        <time>2018-11-06T13:42:00Z</time>
      </trkpt>
      <trkpt lat="37.0320033375" lon="-1.8794540316">
        <ele>45.32</ele>
        <time>2018-11-06T13:42:08Z</time>
      </trkpt>
      <trkpt lat="37.0321869012" lon="-1.8791777641">
        <ele>44.36</ele>
        <time>2018-11-06T13:42:16Z</time>
      </trkpt>
      <trkpt lat="37.0323648490" lon="-1.8789273966">
        <ele>44.36</ele>
        <time>2018-11-06T13:42:24Z</time>
      </trkpt>
      <trkpt lat="37.0326369256" lon="-1.8786223792">
        <ele>43.88</ele>
        <time>2018-11-06T13:42:34Z</time>
      </trkpt>
      <trkpt lat="37.0329546835" lon="-1.8784314394">
        <ele>41.95</ele>
        <time>2018-11-06T13:42:41Z</time>
      </trkpt>
      <trkpt lat="37.0334219746" lon="-1.8783030286">
        <ele>39.07</ele>
        <time>2018-11-06T13:42:48Z</time>
      </trkpt>
      <trkpt lat="37.0340603404" lon="-1.8782098219">
        <ele>34.26</ele>
        <time>2018-11-06T13:42:55Z</time>
      </trkpt>
      <trkpt lat="37.0351126045" lon="-1.8780481350">
        <ele>29.46</ele>
        <time>2018-11-06T13:43:05Z</time>
      </trkpt>
      <trkpt lat="37.0352110919" lon="-1.8780198041">
        <ele>29.46</ele>
        <time>2018-11-06T13:43:06Z</time>
      </trkpt>
      <trkpt lat="37.0353120938" lon="-1.8779785652">
        <ele>28.98</ele>
        <time>2018-11-06T13:43:07Z</time>
      </trkpt>
      <trkpt lat="37.0353995170" lon="-1.8779308721">
        <ele>28.98</ele>
        <time>2018-11-06T13:43:08Z</time>
      </trkpt>
      <trkpt lat="37.0354905445" lon="-1.8778691813">
        <ele>28.98</ele>
        <time>2018-11-06T13:43:09Z</time>
      </trkpt>
      <trkpt lat="37.0355631318" lon="-1.8778058980">
        <ele>28.98</ele>
        <time>2018-11-06T13:43:10Z</time>
      </trkpt>
      <trkpt lat="37.0356290974" lon="-1.8777321372">
        <ele>29.46</ele>
        <time>2018-11-06T13:43:11Z</time>
      </trkpt>
      <trkpt lat="37.0356892794" lon="-1.8776557781">
        <ele>29.46</ele>
        <time>2018-11-06T13:43:12Z</time>
      </trkpt>
      <trkpt lat="37.0358845778" lon="-1.8773245253">
        <ele>30.90</ele>
        <time>2018-11-06T13:43:17Z</time>
      </trkpt>
      <trkpt lat="37.0360331889" lon="-1.8770292308">
        <ele>32.82</ele>
        <time>2018-11-06T13:43:24Z</time>
      </trkpt>
      <trkpt lat="37.0361904334" lon="-1.8767349422">
        <ele>35.23</ele>
        <time>2018-11-06T13:43:33Z</time>
      </trkpt>
      <trkpt lat="37.0363720693" lon="-1.8765339442">
        <ele>38.11</ele>
        <time>2018-11-06T13:43:42Z</time>
      </trkpt>
      <trkpt lat="37.0364943612" lon="-1.8764294218">
        <ele>39.55</ele>
        <time>2018-11-06T13:43:50Z</time>
      </trkpt>
      <trkpt lat="37.0366816968" lon="-1.8763564155">
        <ele>40.03</ele>
        <time>2018-11-06T13:44:00Z</time>
      </trkpt>
      <trkpt lat="37.0368671883" lon="-1.8763544876">
        <ele>40.99</ele>
        <time>2018-11-06T13:44:09Z</time>
      </trkpt>
      <trkpt lat="37.0370687731" lon="-1.8763997499">
        <ele>42.92</ele>
        <time>2018-11-06T13:44:19Z</time>
      </trkpt>
      <trkpt lat="37.0373146143" lon="-1.8764926214">
        <ele>41.95</ele>
        <time>2018-11-06T13:44:30Z</time>
      </trkpt>
      <trkpt lat="37.0374953281" lon="-1.8765457626">
        <ele>43.40</ele>
        <time>2018-11-06T13:44:39Z</time>
      </trkpt>
      <trkpt lat="37.0377595257" lon="-1.8766061962">
        <ele>43.88</ele>
        <time>2018-11-06T13:44:51Z</time>
      </trkpt>
      <trkpt lat="37.0379785448" lon="-1.8765397277">
        <ele>44.36</ele>
        <time>2018-11-06T13:45:01Z</time>
      </trkpt>
      <trkpt lat="37.0381412376" lon="-1.8764088023">
        <ele>44.36</ele>
        <time>2018-11-06T13:45:10Z</time>
      </trkpt>
      <trkpt lat="37.0382704865" lon="-1.8762619514">
        <ele>45.32</ele>
        <time>2018-11-06T13:45:19Z</time>
      </trkpt>
      <trkpt lat="37.0384067763" lon="-1.8760788906">
        <ele>45.80</ele>
        <time>2018-11-06T13:45:29Z</time>
      </trkpt>
      <trkpt lat="37.0385254640" lon="-1.8758535851">
        <ele>47.24</ele>
        <time>2018-11-06T13:45:40Z</time>
      </trkpt>
      <trkpt lat="37.0385924354" lon="-1.8757214025">
        <ele>48.20</ele>
        <time>2018-11-06T13:45:47Z</time>
      </trkpt>
      <trkpt lat="37.0387102850" lon="-1.8755051494">
        <ele>49.65</ele>
        <time>2018-11-06T13:45:58Z</time>
      </trkpt>
      <trkpt lat="37.0388251171" lon="-1.8753346615">
        <ele>51.09</ele>
        <time>2018-11-06T13:46:08Z</time>
      </trkpt>
      <trkpt lat="37.0389234368" lon="-1.8752002995">
        <ele>52.53</ele>
        <time>2018-11-06T13:46:17Z</time>
      </trkpt>
      <trkpt lat="37.0390494168" lon="-1.8750328291">
        <ele>53.49</ele>
        <time>2018-11-06T13:46:28Z</time>
      </trkpt>
      <trkpt lat="37.0391702000" lon="-1.8748517800">
        <ele>55.41</ele>
        <time>2018-11-06T13:46:40Z</time>
      </trkpt>
      <trkpt lat="37.0392118581" lon="-1.8747748341">
        <ele>56.37</ele>
        <time>2018-11-06T13:46:45Z</time>
      </trkpt>
      <trkpt lat="37.0392213296" lon="-1.8747618422">
        <ele>56.37</ele>
        <time>2018-11-06T13:46:46Z</time>
      </trkpt>
      <trkpt lat="37.0392372552" lon="-1.8747371994">
        <ele>56.86</ele>
        <time>2018-11-06T13:46:48Z</time>
      </trkpt>
      <trkpt lat="37.0392465591" lon="-1.8747258838">
        <ele>57.34</ele>
        <time>2018-11-06T13:46:49Z</time>
      </trkpt>
      <trkpt lat="37.0392565336" lon="-1.8747140653">
        <ele>57.34</ele>
        <time>2018-11-06T13:46:50Z</time>
      </trkpt>
      <trkpt lat="37.0392698608" lon="-1.8747034203">
        <ele>57.34</ele>
        <time>2018-11-06T13:46:51Z</time>
      </trkpt>
      <trkpt lat="37.0392803382" lon="-1.8746941164">
        <ele>57.34</ele>
        <time>2018-11-06T13:46:52Z</time>
      </trkpt>
      <trkpt lat="37.0392910670" lon="-1.8746822979">
        <ele>56.86</ele>
        <time>2018-11-06T13:46:53Z</time>
      </trkpt>
      <trkpt lat="37.0393001195" lon="-1.8746692222">
        <ele>57.34</ele>
        <time>2018-11-06T13:46:54Z</time>
      </trkpt>
      <trkpt lat="37.0393074956" lon="-1.8746540509">
        <ele>57.34</ele>
        <time>2018-11-06T13:46:55Z</time>
      </trkpt>
      <trkpt lat="37.0393153746" lon="-1.8746387120">
        <ele>57.34</ele>
        <time>2018-11-06T13:46:56Z</time>
      </trkpt>
      <trkpt lat="37.0393955056" lon="-1.8745221198">
        <ele>57.82</ele>
        <time>2018-11-06T13:47:04Z</time>
      </trkpt>
      <trkpt lat="37.0395067334" lon="-1.8743831478">
        <ele>59.26</ele>
        <time>2018-11-06T13:47:13Z</time>
      </trkpt>
      <trkpt lat="37.0396406762" lon="-1.8742044456">
        <ele>61.18</ele>
        <time>2018-11-06T13:47:23Z</time>
      </trkpt>
      <trkpt lat="37.0397545025" lon="-1.8740688264">
        <ele>62.14</ele>
        <time>2018-11-06T13:47:31Z</time>
      </trkpt>
      <trkpt lat="37.0399095677" lon="-1.8739239872">
        <ele>64.07</ele>
        <time>2018-11-06T13:47:41Z</time>
      </trkpt>
      <trkpt lat="37.0400715061" lon="-1.8739052955">
        <ele>65.51</ele>
        <time>2018-11-06T13:47:49Z</time>
      </trkpt>
      <trkpt lat="37.0402440894" lon="-1.8740171101">
        <ele>67.91</ele>
        <time>2018-11-06T13:47:59Z</time>
      </trkpt>
      <trkpt lat="37.0403530542" lon="-1.8741917890">
        <ele>70.31</ele>
        <time>2018-11-06T13:48:09Z</time>
      </trkpt>
      <trkpt lat="37.0404009148" lon="-1.8743126560">
        <ele>70.31</ele>
        <time>2018-11-06T13:48:17Z</time>
      </trkpt>
      <trkpt lat="37.0404548105" lon="-1.8744625244">
        <ele>70.79</ele>
        <time>2018-11-06T13:48:26Z</time>
      </trkpt>
      <trkpt lat="37.0405548904" lon="-1.8745908514">
        <ele>71.27</ele>
        <time>2018-11-06T13:48:35Z</time>
      </trkpt>
      <trkpt lat="37.0406544674" lon="-1.8746928591">
        <ele>72.72</ele>
        <time>2018-11-06T13:48:44Z</time>
      </trkpt>
      <trkpt lat="37.0407831296" lon="-1.8748051766">
        <ele>74.16</ele>
        <time>2018-11-06T13:48:54Z</time>
      </trkpt>
      <trkpt lat="37.0409545396" lon="-1.8748588208">
        <ele>75.12</ele>
        <time>2018-11-06T13:49:04Z</time>
      </trkpt>
      <trkpt lat="37.0410821121" lon="-1.8748382851">
        <ele>75.12</ele>
        <time>2018-11-06T13:49:12Z</time>
      </trkpt>
      <trkpt lat="37.0412230119" lon="-1.8748003989">
        <ele>76.08</ele>
        <time>2018-11-06T13:49:21Z</time>
      </trkpt>
      <trkpt lat="37.0413997024" lon="-1.8747946154">
        <ele>77.52</ele>
        <time>2018-11-06T13:49:31Z</time>
      </trkpt>
      <trkpt lat="37.0415442903" lon="-1.8748395424">
        <ele>78.48</ele>
        <time>2018-11-06T13:49:39Z</time>
      </trkpt>
      <trkpt lat="37.0417119283" lon="-1.8748858944">
        <ele>79.93</ele>
        <time>2018-11-06T13:49:49Z</time>
      </trkpt>
      <trkpt lat="37.0418326277" lon="-1.8749554642">
        <ele>81.37</ele>
        <time>2018-11-06T13:49:58Z</time>
      </trkpt>
      <trkpt lat="37.0419866033" lon="-1.8750977051">
        <ele>82.81</ele>
        <time>2018-11-06T13:50:08Z</time>
      </trkpt>
      <trkpt lat="37.0421395730" lon="-1.8752696179">
        <ele>84.25</ele>
        <time>2018-11-06T13:50:19Z</time>
      </trkpt>
      <trkpt lat="37.0421809796" lon="-1.8753184844">
        <ele>84.25</ele>
        <time>2018-11-06T13:50:24Z</time>
      </trkpt>
      <trkpt lat="37.0421864279" lon="-1.8753301352">
        <ele>84.25</ele>
        <time>2018-11-06T13:50:25Z</time>
      </trkpt>
      <trkpt lat="37.0421944745" lon="-1.8753402773">
        <ele>84.25</ele>
        <time>2018-11-06T13:50:26Z</time>
      </trkpt>
      <trkpt lat="37.0422035269" lon="-1.8753512576">
        <ele>84.25</ele>
        <time>2018-11-06T13:50:27Z</time>
      </trkpt>
      <trkpt lat="37.0422118250" lon="-1.8753631599">
        <ele>84.25</ele>
        <time>2018-11-06T13:50:28Z</time>
      </trkpt>
      <trkpt lat="37.0422212966" lon="-1.8753756490">
        <ele>84.73</ele>
        <time>2018-11-06T13:50:29Z</time>
      </trkpt>
      <trkpt lat="37.0422324445" lon="-1.8753872998">
        <ele>85.21</ele>
        <time>2018-11-06T13:50:30Z</time>
      </trkpt>
      <trkpt lat="37.0422431733" lon="-1.8753966875">
        <ele>85.21</ele>
        <time>2018-11-06T13:50:31Z</time>
      </trkpt>
      <trkpt lat="37.0423312671" lon="-1.8755148724">
        <ele>86.18</ele>
        <time>2018-11-06T13:50:40Z</time>
      </trkpt>
      <trkpt lat="37.0423744339" lon="-1.8756910600">
        <ele>87.62</ele>
        <time>2018-11-06T13:50:49Z</time>
      </trkpt>
      <trkpt lat="37.0423613582" lon="-1.8757746276">
        <ele>87.62</ele>
        <time>2018-11-06T13:50:53Z</time>
      </trkpt>
      <trkpt lat="37.0422844123" lon="-1.8758598715">
        <ele>89.54</ele>
        <time>2018-11-06T13:50:59Z</time>
      </trkpt>
      <trkpt lat="37.0422679838" lon="-1.8758664094">
        <ele>89.54</ele>
        <time>2018-11-06T13:51:00Z</time>
      </trkpt>
      <trkpt lat="37.0422512200" lon="-1.8758752942">
        <ele>89.54</ele>
        <time>2018-11-06T13:51:01Z</time>
      </trkpt>
      <trkpt lat="37.0422337018" lon="-1.8758844305">
        <ele>89.54</ele>
        <time>2018-11-06T13:51:02Z</time>
      </trkpt>
      <trkpt lat="37.0422137529" lon="-1.8758938182">
        <ele>89.54</ele>
        <time>2018-11-06T13:51:03Z</time>
      </trkpt>
      <trkpt lat="37.0421187021" lon="-1.8759304471">
        <ele>90.98</ele>
        <time>2018-11-06T13:51:10Z</time>
      </trkpt>
      <trkpt lat="37.0420981664" lon="-1.8759391643">
        <ele>90.50</ele>
        <time>2018-11-06T13:51:20Z</time>
      </trkpt>
      <trkpt lat="37.0420969930" lon="-1.8759426847">
        <ele>90.98</ele>
        <time>2018-11-06T13:51:30Z</time>
      </trkpt>
      <trkpt lat="37.0420966577" lon="-1.8759368174">
        <ele>91.46</ele>
        <time>2018-11-06T13:51:43Z</time>
      </trkpt>
      <trkpt lat="37.0420966577" lon="-1.8759249989">
        <ele>91.46</ele>
        <time>2018-11-06T13:51:53Z</time>
      </trkpt>
      <trkpt lat="37.0420951489" lon="-1.8759351410">
        <ele>90.98</ele>
        <time>2018-11-06T13:52:05Z</time>
      </trkpt>
      <trkpt lat="37.0420828275" lon="-1.8759426009">
        <ele>91.46</ele>
        <time>2018-11-06T13:52:12Z</time>
      </trkpt>
      <trkpt lat="37.0420622081" lon="-1.8759295251">
        <ele>92.42</ele>
        <time>2018-11-06T13:52:20Z</time>
      </trkpt>
      <trkpt lat="37.0420650579" lon="-1.8759332132">
        <ele>92.90</ele>
        <time>2018-11-06T13:52:29Z</time>
      </trkpt>
      <trkpt lat="37.0420876052" lon="-1.8759319559">
        <ele>94.35</ele>
        <time>2018-11-06T13:52:49Z</time>
      </trkpt>
      <trkpt lat="37.0420852583" lon="-1.8759201374">
        <ele>94.35</ele>
        <time>2018-11-06T13:53:15Z</time>
      </trkpt>
      <trkpt lat="37.0420662314" lon="-1.8759227358">
        <ele>96.27</ele>
        <time>2018-11-06T13:53:32Z</time>
      </trkpt>
      <trkpt lat="37.0420637168" lon="-1.8759068940">
        <ele>100.11</ele>
        <time>2018-11-06T13:54:00Z</time>
      </trkpt>
      <trkpt lat="37.0420629624" lon="-1.8759164494">
        <ele>98.67</ele>
        <time>2018-11-06T13:54:28Z</time>
      </trkpt>
      <trkpt lat="37.0420644712" lon="-1.8759187125">
        <ele>98.67</ele>
        <time>2018-11-06T13:54:38Z</time>
      </trkpt>
      <trkpt lat="37.0420575980" lon="-1.8759192154">
        <ele>96.75</ele>
        <time>2018-11-06T13:54:49Z</time>
      </trkpt>
      <trkpt lat="37.0420481265" lon="-1.8758657388">
        <ele>97.71</ele>
        <time>2018-11-06T13:55:01Z</time>
      </trkpt>
      <trkpt lat="37.0419695042" lon="-1.8757204805">
        <ele>97.23</ele>
        <time>2018-11-06T13:55:09Z</time>
      </trkpt>
      <trkpt lat="37.0419040415" lon="-1.8755056523">
        <ele>96.75</ele>
        <time>2018-11-06T13:55:19Z</time>
      </trkpt>
      <trkpt lat="37.0417624712" lon="-1.8752878066">
        <ele>97.71</ele>
        <time>2018-11-06T13:55:30Z</time>
      </trkpt>
      <trkpt lat="37.0416140277" lon="-1.8752544466">
        <ele>97.71</ele>
        <time>2018-11-06T13:55:38Z</time>
      </trkpt>
      <trkpt lat="37.0413858723" lon="-1.8752489984">
        <ele>99.63</ele>
        <time>2018-11-06T13:55:50Z</time>
      </trkpt>
      <trkpt lat="37.0412013028" lon="-1.8753144611">
        <ele>100.11</ele>
        <time>2018-11-06T13:56:00Z</time>
      </trkpt>
      <trkpt lat="37.0410906617" lon="-1.8753843661">
        <ele>99.63</ele>
        <time>2018-11-06T13:56:08Z</time>
      </trkpt>
      <trkpt lat="37.0409567188" lon="-1.8754211627">
        <ele>102.04</ele>
        <time>2018-11-06T13:56:16Z</time>
      </trkpt>
      <trkpt lat="37.0408014022" lon="-1.8754158821">
        <ele>103.96</ele>
        <time>2018-11-06T13:56:24Z</time>
      </trkpt>
      <trkpt lat="37.0406496059" lon="-1.8753220886">
        <ele>104.92</ele>
        <time>2018-11-06T13:56:32Z</time>
      </trkpt>
      <trkpt lat="37.0405569859" lon="-1.8752324861">
        <ele>104.92</ele>
        <time>2018-11-06T13:56:39Z</time>
      </trkpt>
      <trkpt lat="37.0403973106" lon="-1.8751266226">
        <ele>105.40</ele>
        <time>2018-11-06T13:56:49Z</time>
      </trkpt>
      <trkpt lat="37.0403354522" lon="-1.8751069251">
        <ele>106.36</ele>
        <time>2018-11-06T13:56:55Z</time>
      </trkpt>
      <trkpt lat="37.0401850808" lon="-1.8751593120">
        <ele>108.77</ele>
        <time>2018-11-06T13:57:05Z</time>
      </trkpt>
      <trkpt lat="37.0401307661" lon="-1.8752337433">
        <ele>109.25</ele>
        <time>2018-11-06T13:57:12Z</time>
      </trkpt>
      <trkpt lat="37.0401130803" lon="-1.8753400259">
        <ele>110.69</ele>
        <time>2018-11-06T13:57:20Z</time>
      </trkpt>
      <trkpt lat="37.0401200373" lon="-1.8754803389">
        <ele>112.13</ele>
        <time>2018-11-06T13:57:29Z</time>
      </trkpt>
      <trkpt lat="37.0401464403" lon="-1.8756719492">
        <ele>113.09</ele>
        <time>2018-11-06T13:57:39Z</time>
      </trkpt>
      <trkpt lat="37.0401571691" lon="-1.8758290261">
        <ele>115.01</ele>
        <time>2018-11-06T13:57:48Z</time>
      </trkpt>
      <trkpt lat="37.0401580073" lon="-1.8759318721">
        <ele>115.50</ele>
        <time>2018-11-06T13:57:55Z</time>
      </trkpt>
      <trkpt lat="37.0401562471" lon="-1.8759426847">
        <ele>115.98</ele>
        <time>2018-11-06T13:57:56Z</time>
      </trkpt>
      <trkpt lat="37.0401564986" lon="-1.8759587780">
        <ele>115.98</ele>
        <time>2018-11-06T13:57:57Z</time>
      </trkpt>
      <trkpt lat="37.0401576720" lon="-1.8759750389">
        <ele>115.98</ele>
        <time>2018-11-06T13:57:58Z</time>
      </trkpt>
      <trkpt lat="37.0401730109" lon="-1.8760948163">
        <ele>116.94</ele>
        <time>2018-11-06T13:58:06Z</time>
      </trkpt>
      <trkpt lat="37.0401745196" lon="-1.8761457782">
        <ele>117.42</ele>
        <time>2018-11-06T13:58:13Z</time>
      </trkpt>
      <trkpt lat="37.0401652995" lon="-1.8761461973">
        <ele>117.42</ele>
        <time>2018-11-06T13:58:25Z</time>
      </trkpt>
      <trkpt lat="37.0401700772" lon="-1.8762023561">
        <ele>119.34</ele>
        <time>2018-11-06T13:58:33Z</time>
      </trkpt>
      <trkpt lat="37.0401939657" lon="-1.8763514701">
        <ele>120.30</ele>
        <time>2018-11-06T13:58:44Z</time>
      </trkpt>
      <trkpt lat="37.0402467716" lon="-1.8764772825">
        <ele>120.78</ele>
        <time>2018-11-06T13:58:54Z</time>
      </trkpt>
      <trkpt lat="37.0403448399" lon="-1.8765507080">
        <ele>121.26</ele>
        <time>2018-11-06T13:59:04Z</time>
      </trkpt>
      <trkpt lat="37.0404631924" lon="-1.8765747640">
        <ele>122.22</ele>
        <time>2018-11-06T13:59:14Z</time>
      </trkpt>
      <trkpt lat="37.0405624341" lon="-1.8765750993">
        <ele>123.19</ele>
        <time>2018-11-06T13:59:22Z</time>
      </trkpt>
      <trkpt lat="37.0405745041" lon="-1.8765688967">
        <ele>122.71</ele>
        <time>2018-11-06T13:59:28Z</time>
      </trkpt>
      <trkpt lat="37.0405747555" lon="-1.8765756022">
        <ele>122.71</ele>
        <time>2018-11-06T13:59:39Z</time>
      </trkpt>
      <trkpt lat="37.0406264719" lon="-1.8765714113">
        <ele>123.67</ele>
        <time>2018-11-06T13:59:46Z</time>
      </trkpt>
      <trkpt lat="37.0406311657" lon="-1.8765786197">
        <ele>124.15</ele>
        <time>2018-11-06T13:59:54Z</time>
      </trkpt>
      <trkpt lat="37.0407035016" lon="-1.8765600119">
        <ele>124.15</ele>
        <time>2018-11-06T14:00:00Z</time>
      </trkpt>
      <trkpt lat="37.0408300683" lon="-1.8765560724">
        <ele>124.63</ele>
        <time>2018-11-06T14:00:08Z</time>
      </trkpt>
      <trkpt lat="37.0409808587" lon="-1.8766092137">
        <ele>126.07</ele>
        <time>2018-11-06T14:00:17Z</time>
      </trkpt>
      <trkpt lat="37.0411298890" lon="-1.8766942061">
        <ele>126.07</ele>
        <time>2018-11-06T14:00:26Z</time>
      </trkpt>
      <trkpt lat="37.0412722137" lon="-1.8767610937">
        <ele>127.99</ele>
        <time>2018-11-06T14:00:35Z</time>
      </trkpt>
      <trkpt lat="37.0412868820" lon="-1.8767669611">
        <ele>127.99</ele>
        <time>2018-11-06T14:00:36Z</time>
      </trkpt>
      <trkpt lat="37.0414225850" lon="-1.8768049311">
        <ele>130.40</ele>
        <time>2018-11-06T14:00:45Z</time>
      </trkpt>
      <trkpt lat="37.0415859483" lon="-1.8768117204">
        <ele>133.28</ele>
        <time>2018-11-06T14:00:55Z</time>
      </trkpt>
      <trkpt lat="37.0417393371" lon="-1.8767951243">
        <ele>133.28</ele>
        <time>2018-11-06T14:01:04Z</time>
      </trkpt>
      <trkpt lat="37.0418686699" lon="-1.8767791148">
        <ele>134.72</ele>
        <time>2018-11-06T14:01:12Z</time>
      </trkpt>
      <trkpt lat="37.0420247409" lon="-1.8767437432">
        <ele>135.68</ele>
        <time>2018-11-06T14:01:22Z</time>
      </trkpt>
      <trkpt lat="37.0421430096" lon="-1.8767194357">
        <ele>137.13</ele>
        <time>2018-11-06T14:01:30Z</time>
      </trkpt>
      <trkpt lat="37.0422687382" lon="-1.8766849861">
        <ele>138.09</ele>
        <time>2018-11-06T14:01:39Z</time>
      </trkpt>
      <trkpt lat="37.0423546527" lon="-1.8766682222">
        <ele>139.53</ele>
        <time>2018-11-06T14:01:47Z</time>
      </trkpt>
      <trkpt lat="37.0424649585" lon="-1.8766800407">
        <ele>140.49</ele>
        <time>2018-11-06T14:01:55Z</time>
      </trkpt>
      <trkpt lat="37.0425591711" lon="-1.8767026719">
        <ele>141.45</ele>
        <time>2018-11-06T14:02:02Z</time>
      </trkpt>
      <trkpt lat="37.0425712410" lon="-1.8767052703">
        <ele>141.45</ele>
        <time>2018-11-06T14:02:03Z</time>
      </trkpt>
      <trkpt lat="37.0425851550" lon="-1.8767082877">
        <ele>141.93</ele>
        <time>2018-11-06T14:02:04Z</time>
      </trkpt>
      <trkpt lat="37.0426013321" lon="-1.8767107185">
        <ele>141.93</ele>
        <time>2018-11-06T14:02:05Z</time>
      </trkpt>
      <trkpt lat="37.0426158328" lon="-1.8767098803">
        <ele>142.41</ele>
        <time>2018-11-06T14:02:06Z</time>
      </trkpt>
      <trkpt lat="37.0426297467" lon="-1.8767088745">
        <ele>142.41</ele>
        <time>2018-11-06T14:02:07Z</time>
      </trkpt>
      <trkpt lat="37.0426413976" lon="-1.8767085392">
        <ele>142.89</ele>
        <time>2018-11-06T14:02:08Z</time>
      </trkpt>
      <trkpt lat="37.0426538866" lon="-1.8767082877">
        <ele>142.89</ele>
        <time>2018-11-06T14:02:09Z</time>
      </trkpt>
      <trkpt lat="37.0427107159" lon="-1.8767042644">
        <ele>142.89</ele>
        <time>2018-11-06T14:02:16Z</time>
      </trkpt>
      <trkpt lat="37.0427219477" lon="-1.8766870815">
        <ele>141.93</ele>
        <time>2018-11-06T14:02:32Z</time>
      </trkpt>
      <trkpt lat="37.0427073631" lon="-1.8766868301">
        <ele>143.85</ele>
        <time>2018-11-06T14:02:46Z</time>
      </trkpt>
      <trkpt lat="37.0427107159" lon="-1.8767050188">
        <ele>145.30</ele>
        <time>2018-11-06T14:03:01Z</time>
      </trkpt>
      <trkpt lat="37.0427021664" lon="-1.8766800407">
        <ele>144.34</ele>
        <time>2018-11-06T14:03:18Z</time>
      </trkpt>
      <trkpt lat="37.0427074470" lon="-1.8766927812">
        <ele>143.37</ele>
        <time>2018-11-06T14:03:29Z</time>
      </trkpt>
      <trkpt lat="37.0427159965" lon="-1.8766905181">
        <ele>142.89</ele>
        <time>2018-11-06T14:03:50Z</time>
      </trkpt>
      <trkpt lat="37.0427169185" lon="-1.8767076172">
        <ele>140.49</ele>
        <time>2018-11-06T14:04:18Z</time>
      </trkpt>
      <trkpt lat="37.0427080337" lon="-1.8767187651">
        <ele>140.97</ele>
        <time>2018-11-06T14:04:31Z</time>
      </trkpt>
      <trkpt lat="37.0427255519" lon="-1.8766990677">
        <ele>140.49</ele>
        <time>2018-11-06T14:04:48Z</time>
      </trkpt>
      <trkpt lat="37.0427030884" lon="-1.8766947929">
        <ele>137.61</ele>
        <time>2018-11-06T14:05:10Z</time>
      </trkpt>
      <trkpt lat="37.0427093748" lon="-1.8767115567">
        <ele>137.61</ele>
        <time>2018-11-06T14:05:33Z</time>
      </trkpt>
      <trkpt lat="37.0427061897" lon="-1.8766905181">
        <ele>141.93</ele>
        <time>2018-11-06T14:05:52Z</time>
      </trkpt>
      <trkpt lat="37.0427302457" lon="-1.8767045997">
        <ele>144.34</ele>
        <time>2018-11-06T14:06:12Z</time>
      </trkpt>
      <trkpt lat="37.0427425671" lon="-1.8767081201">
        <ele>144.34</ele>
        <time>2018-11-06T14:06:13Z</time>
      </trkpt>
      <trkpt lat="37.0428754203" lon="-1.8767166696">
        <ele>144.82</ele>
        <time>2018-11-06T14:06:23Z</time>
      </trkpt>
      <trkpt lat="37.0430045854" lon="-1.8766584992">
        <ele>146.26</ele>
        <time>2018-11-06T14:06:32Z</time>
      </trkpt>
      <trkpt lat="37.0430981275" lon="-1.8764909450">
        <ele>146.74</ele>
        <time>2018-11-06T14:06:41Z</time>
      </trkpt>
      <trkpt lat="37.0431331638" lon="-1.8764122389">
        <ele>147.22</ele>
        <time>2018-11-06T14:06:45Z</time>
      </trkpt>
      <trkpt lat="37.0432292204" lon="-1.8762241490">
        <ele>148.66</ele>
        <time>2018-11-06T14:06:55Z</time>
      </trkpt>
      <trkpt lat="37.0433419570" lon="-1.8760686647">
        <ele>150.10</ele>
        <time>2018-11-06T14:07:04Z</time>
      </trkpt>
      <trkpt lat="37.0434371755" lon="-1.8759843428">
        <ele>151.06</ele>
        <time>2018-11-06T14:07:13Z</time>
      </trkpt>
      <trkpt lat="37.0434676018" lon="-1.8759643938">
        <ele>151.06</ele>
        <time>2018-11-06T14:07:24Z</time>
      </trkpt>
      <trkpt lat="37.0434964355" lon="-1.8759462889">
        <ele>150.58</ele>
        <time>2018-11-06T14:07:34Z</time>
      </trkpt>
      <trkpt lat="37.0434930827" lon="-1.8759502284">
        <ele>150.58</ele>
        <time>2018-11-06T14:07:47Z</time>
      </trkpt>
      <trkpt lat="37.0434815995" lon="-1.8759686686">
        <ele>152.03</ele>
        <time>2018-11-06T14:08:02Z</time>
      </trkpt>
      <trkpt lat="37.0434838627" lon="-1.8759450316">
        <ele>153.95</ele>
        <time>2018-11-06T14:08:16Z</time>
      </trkpt>
      <trkpt lat="37.0434869640" lon="-1.8759422656">
        <ele>152.51</ele>
        <time>2018-11-06T14:08:32Z</time>
      </trkpt>
      <trkpt lat="37.0434943400" lon="-1.8759416789">
        <ele>152.51</ele>
        <time>2018-11-06T14:08:33Z</time>
      </trkpt>
      <trkpt lat="37.0435821824" lon="-1.8759145215">
        <ele>152.51</ele>
        <time>2018-11-06T14:08:39Z</time>
      </trkpt>
      <trkpt lat="37.0437582862" lon="-1.8758644816">
        <ele>152.99</ele>
        <time>2018-11-06T14:08:49Z</time>
      </trkpt>
      <trkpt lat="37.0439121779" lon="-1.8758274335">
        <ele>154.43</ele>
        <time>2018-11-06T14:08:58Z</time>
      </trkpt>
      <trkpt lat="37.0441018604" lon="-1.8757522479">
        <ele>155.87</ele>
        <time>2018-11-06T14:09:09Z</time>
      </trkpt>
      <trkpt lat="37.0442519803" lon="-1.8756639864">
        <ele>157.79</ele>
        <time>2018-11-06T14:09:18Z</time>
      </trkpt>
      <trkpt lat="37.0443584304" lon="-1.8755881302">
        <ele>158.75</ele>
        <time>2018-11-06T14:09:26Z</time>
      </trkpt>
      <trkpt lat="37.0444694068" lon="-1.8754826859">
        <ele>159.72</ele>
        <time>2018-11-06T14:09:34Z</time>
      </trkpt>
      <trkpt lat="37.0445752703" lon="-1.8753774930">
        <ele>160.20</ele>
        <time>2018-11-06T14:09:43Z</time>
      </trkpt>
      <trkpt lat="37.0446281601" lon="-1.8753315601">
        <ele>160.68</ele>
        <time>2018-11-06T14:09:48Z</time>
      </trkpt>
      <trkpt lat="37.0447003283" lon="-1.8752439693">
        <ele>161.64</ele>
        <time>2018-11-06T14:09:57Z</time>
      </trkpt>
      <trkpt lat="37.0447233785" lon="-1.8752095196">
        <ele>162.12</ele>
        <time>2018-11-06T14:10:00Z</time>
      </trkpt>
      <trkpt lat="37.0447294973" lon="-1.8751948513">
        <ele>161.64</ele>
        <time>2018-11-06T14:10:06Z</time>
      </trkpt>
      <trkpt lat="37.0447413158" lon="-1.8751630001">
        <ele>161.64</ele>
        <time>2018-11-06T14:10:17Z</time>
      </trkpt>
      <trkpt lat="37.0447455905" lon="-1.8751530256">
        <ele>161.16</ele>
        <time>2018-11-06T14:10:25Z</time>
      </trkpt>
      <trkpt lat="37.0447253063" lon="-1.8751525227">
        <ele>163.08</ele>
        <time>2018-11-06T14:10:44Z</time>
      </trkpt>
      <trkpt lat="37.0447265636" lon="-1.8751360103">
        <ele>165.00</ele>
        <time>2018-11-06T14:11:06Z</time>
      </trkpt>
      <trkpt lat="37.0447293296" lon="-1.8751500081">
        <ele>164.52</ele>
        <time>2018-11-06T14:11:20Z</time>
      </trkpt>
      <trkpt lat="37.0447255578" lon="-1.8751474097">
        <ele>164.04</ele>
        <time>2018-11-06T14:11:35Z</time>
      </trkpt>
      <trkpt lat="37.0447476860" lon="-1.8751241080">
        <ele>163.56</ele>
        <time>2018-11-06T14:11:44Z</time>
      </trkpt>
      <trkpt lat="37.0447572414" lon="-1.8750072643">
        <ele>163.56</ele>
        <time>2018-11-06T14:11:50Z</time>
      </trkpt>
      <trkpt lat="37.0446954668" lon="-1.8747434858">
        <ele>165.00</ele>
        <time>2018-11-06T14:12:01Z</time>
      </trkpt>
      <trkpt lat="37.0446621906" lon="-1.8744998239">
        <ele>165.96</ele>
        <time>2018-11-06T14:12:11Z</time>
      </trkpt>
      <trkpt lat="37.0446527191" lon="-1.8742602691">
        <ele>166.93</ele>
        <time>2018-11-06T14:12:20Z</time>
      </trkpt>
      <trkpt lat="37.0446631126" lon="-1.8741649669">
        <ele>167.41</ele>
        <time>2018-11-06T14:12:26Z</time>
      </trkpt>
      <trkpt lat="37.0446673036" lon="-1.8741436768">
        <ele>167.89</ele>
        <time>2018-11-06T14:12:33Z</time>
      </trkpt>
      <trkpt lat="37.0446658786" lon="-1.8741424195">
        <ele>167.89</ele>
        <time>2018-11-06T14:12:44Z</time>
      </trkpt>
      <trkpt lat="37.0446766913" lon="-1.8740938883">
        <ele>167.89</ele>
        <time>2018-11-06T14:12:53Z</time>
      </trkpt>
      <trkpt lat="37.0446998253" lon="-1.8738873582">
        <ele>169.33</ele>
        <time>2018-11-06T14:13:02Z</time>
      </trkpt>
      <trkpt lat="37.0447323471" lon="-1.8736162037">
        <ele>171.25</ele>
        <time>2018-11-06T14:13:13Z</time>
      </trkpt>
      <trkpt lat="37.0447655395" lon="-1.8733644113">
        <ele>172.69</ele>
        <time>2018-11-06T14:13:23Z</time>
      </trkpt>
      <trkpt lat="37.0447968040" lon="-1.8730611540">
        <ele>174.62</ele>
        <time>2018-11-06T14:13:34Z</time>
      </trkpt>
      <trkpt lat="37.0447874162" lon="-1.8728729803">
        <ele>174.14</ele>
        <time>2018-11-06T14:13:42Z</time>
      </trkpt>
      <trkpt lat="37.0447331015" lon="-1.8727361038">
        <ele>174.14</ele>
        <time>2018-11-06T14:13:49Z</time>
      </trkpt>
      <trkpt lat="37.0446301717" lon="-1.8725811224">
        <ele>174.62</ele>
        <time>2018-11-06T14:13:58Z</time>
      </trkpt>
      <trkpt lat="37.0445559919" lon="-1.8724352773">
        <ele>176.06</ele>
        <time>2018-11-06T14:14:06Z</time>
      </trkpt>
      <trkpt lat="37.0445196144" lon="-1.8723968882">
        <ele>176.54</ele>
        <time>2018-11-06T14:14:13Z</time>
      </trkpt>
      <trkpt lat="37.0445143338" lon="-1.8723900989">
        <ele>177.02</ele>
        <time>2018-11-06T14:14:22Z</time>
      </trkpt>
      <trkpt lat="37.0445204526" lon="-1.8723925296">
        <ele>177.02</ele>
        <time>2018-11-06T14:14:35Z</time>
      </trkpt>
      <trkpt lat="37.0445492025" lon="-1.8724018335">
        <ele>177.98</ele>
        <time>2018-11-06T14:14:54Z</time>
      </trkpt>
      <trkpt lat="37.0445606019" lon="-1.8723993190">
        <ele>181.83</ele>
        <time>2018-11-06T14:15:14Z</time>
      </trkpt>
      <trkpt lat="37.0445366297" lon="-1.8724096287">
        <ele>181.35</ele>
        <time>2018-11-06T14:15:43Z</time>
      </trkpt>
      <trkpt lat="37.0445333607" lon="-1.8724090420">
        <ele>180.87</ele>
        <time>2018-11-06T14:15:52Z</time>
      </trkpt>
      <trkpt lat="37.0445000846" lon="-1.8724054378">
        <ele>180.87</ele>
        <time>2018-11-06T14:16:06Z</time>
      </trkpt>
      <trkpt lat="37.0444975700" lon="-1.8723901827">
        <ele>180.38</ele>
        <time>2018-11-06T14:16:07Z</time>
      </trkpt>
      <trkpt lat="37.0445387252" lon="-1.8722140789">
        <ele>179.90</ele>
        <time>2018-11-06T14:16:15Z</time>
      </trkpt>
      <trkpt lat="37.0446977299" lon="-1.8719917908">
        <ele>178.46</ele>
        <time>2018-11-06T14:16:23Z</time>
      </trkpt>
      <trkpt lat="37.0448673796" lon="-1.8718884420">
        <ele>177.02</ele>
        <time>2018-11-06T14:16:29Z</time>
      </trkpt>
      <trkpt lat="37.0451608300" lon="-1.8717610370">
        <ele>175.10</ele>
        <time>2018-11-06T14:16:35Z</time>
      </trkpt>
      <trkpt lat="37.0453468245" lon="-1.8717019446">
        <ele>174.14</ele>
        <time>2018-11-06T14:16:38Z</time>
      </trkpt>
      <trkpt lat="37.0454155561" lon="-1.8716933951">
        <ele>174.14</ele>
        <time>2018-11-06T14:16:39Z</time>
      </trkpt>
      <trkpt lat="37.0454870537" lon="-1.8716919702">
        <ele>173.66</ele>
        <time>2018-11-06T14:16:40Z</time>
      </trkpt>
      <trkpt lat="37.0455616526" lon="-1.8717000168">
        <ele>172.69</ele>
        <time>2018-11-06T14:16:41Z</time>
      </trkpt>
      <trkpt lat="37.0456422865" lon="-1.8717223126">
        <ele>172.21</ele>
        <time>2018-11-06T14:16:42Z</time>
      </trkpt>
      <trkpt lat="37.0457173884" lon="-1.8717565108">
        <ele>171.73</ele>
        <time>2018-11-06T14:16:43Z</time>
      </trkpt>
      <trkpt lat="37.0457955915" lon="-1.8718055449">
        <ele>170.77</ele>
        <time>2018-11-06T14:16:44Z</time>
      </trkpt>
      <trkpt lat="37.0458731242" lon="-1.8718677387">
        <ele>170.29</ele>
        <time>2018-11-06T14:16:45Z</time>
      </trkpt>
      <trkpt lat="37.0459480584" lon="-1.8719425891">
        <ele>169.33</ele>
        <time>2018-11-06T14:16:46Z</time>
      </trkpt>
      <trkpt lat="37.0460216515" lon="-1.8720243126">
        <ele>168.85</ele>
        <time>2018-11-06T14:16:47Z</time>
      </trkpt>
      <trkpt lat="37.0464658923" lon="-1.8725894205">
        <ele>165.00</ele>
        <time>2018-11-06T14:16:53Z</time>
      </trkpt>
      <trkpt lat="37.0465243142" lon="-1.8727019895">
        <ele>164.52</ele>
        <time>2018-11-06T14:16:54Z</time>
      </trkpt>
      <trkpt lat="37.0465718396" lon="-1.8728252873">
        <ele>164.52</ele>
        <time>2018-11-06T14:16:55Z</time>
      </trkpt>
      <trkpt lat="37.0466051158" lon="-1.8729477469">
        <ele>164.04</ele>
        <time>2018-11-06T14:16:56Z</time>
      </trkpt>
      <trkpt lat="37.0466262382" lon="-1.8730780017">
        <ele>163.56</ele>
        <time>2018-11-06T14:16:57Z</time>
      </trkpt>
      <trkpt lat="37.0466343686" lon="-1.8732119445">
        <ele>163.08</ele>
        <time>2018-11-06T14:16:58Z</time>
      </trkpt>
      <trkpt lat="37.0466284174" lon="-1.8733443785">
        <ele>162.12</ele>
        <time>2018-11-06T14:16:59Z</time>
      </trkpt>
      <trkpt lat="37.0466066245" lon="-1.8734784890">
        <ele>161.16</ele>
        <time>2018-11-06T14:17:00Z</time>
      </trkpt>
      <trkpt lat="37.0465677325" lon="-1.8736122642">
        <ele>160.20</ele>
        <time>2018-11-06T14:17:01Z</time>
      </trkpt>
      <trkpt lat="37.0465170220" lon="-1.8737383280">
        <ele>159.24</ele>
        <time>2018-11-06T14:17:02Z</time>
      </trkpt>
      <trkpt lat="37.0464565046" lon="-1.8738609552">
        <ele>158.27</ele>
        <time>2018-11-06T14:17:03Z</time>
      </trkpt>
      <trkpt lat="37.0463905390" lon="-1.8739853427">
        <ele>157.79</ele>
        <time>2018-11-06T14:17:04Z</time>
      </trkpt>
      <trkpt lat="37.0463327039" lon="-1.8741098139">
        <ele>156.83</ele>
        <time>2018-11-06T14:17:05Z</time>
      </trkpt>
      <trkpt lat="37.0462862682" lon="-1.8742415775">
        <ele>156.35</ele>
        <time>2018-11-06T14:17:06Z</time>
      </trkpt>
      <trkpt lat="37.0462511480" lon="-1.8743833993">
        <ele>155.87</ele>
        <time>2018-11-06T14:17:07Z</time>
      </trkpt>
      <trkpt lat="37.0462295227" lon="-1.8745201919">
        <ele>155.39</ele>
        <time>2018-11-06T14:17:08Z</time>
      </trkpt>
      <trkpt lat="37.0462170336" lon="-1.8746563140">
        <ele>154.91</ele>
        <time>2018-11-06T14:17:09Z</time>
      </trkpt>
      <trkpt lat="37.0462102443" lon="-1.8747931905">
        <ele>154.43</ele>
        <time>2018-11-06T14:17:10Z</time>
      </trkpt>
      <trkpt lat="37.0462767966" lon="-1.8754359148">
        <ele>152.99</ele>
        <time>2018-11-06T14:17:15Z</time>
      </trkpt>
      <trkpt lat="37.0463216398" lon="-1.8755456340">
        <ele>152.99</ele>
        <time>2018-11-06T14:17:16Z</time>
      </trkpt>
      <trkpt lat="37.0463777985" lon="-1.8756441213">
        <ele>152.99</ele>
        <time>2018-11-06T14:17:17Z</time>
      </trkpt>
      <trkpt lat="37.0467167627" lon="-1.8763376400">
        <ele>152.03</ele>
        <time>2018-11-06T14:17:24Z</time>
      </trkpt>
      <trkpt lat="37.0467782021" lon="-1.8765574973">
        <ele>151.54</ele>
        <time>2018-11-06T14:17:26Z</time>
      </trkpt>
      <trkpt lat="37.0467928704" lon="-1.8766731676">
        <ele>151.06</ele>
        <time>2018-11-06T14:17:27Z</time>
      </trkpt>
      <trkpt lat="37.0467987377" lon="-1.8767936155">
        <ele>150.10</ele>
        <time>2018-11-06T14:17:28Z</time>
      </trkpt>
      <trkpt lat="37.0468585007" lon="-1.8774303049">
        <ele>147.22</ele>
        <time>2018-11-06T14:17:33Z</time>
      </trkpt>
      <trkpt lat="37.0468973927" lon="-1.8775501661">
        <ele>146.74</ele>
        <time>2018-11-06T14:17:34Z</time>
      </trkpt>
      <trkpt lat="37.0469521265" lon="-1.8776587956">
        <ele>146.26</ele>
        <time>2018-11-06T14:17:35Z</time>
      </trkpt>
      <trkpt lat="37.0470252167" lon="-1.8777482305">
        <ele>145.78</ele>
        <time>2018-11-06T14:17:36Z</time>
      </trkpt>
      <trkpt lat="37.0471112989" lon="-1.8778198119">
        <ele>145.30</ele>
        <time>2018-11-06T14:17:37Z</time>
      </trkpt>
      <trkpt lat="37.0472100377" lon="-1.8778732046">
        <ele>144.82</ele>
        <time>2018-11-06T14:17:38Z</time>
      </trkpt>
      <trkpt lat="37.0473098662" lon="-1.8779026251">
        <ele>144.34</ele>
        <time>2018-11-06T14:17:39Z</time>
      </trkpt>
      <trkpt lat="37.0474127959" lon="-1.8779133540">
        <ele>143.85</ele>
        <time>2018-11-06T14:17:40Z</time>
      </trkpt>
      <trkpt lat="37.0475164801" lon="-1.8779028766">
        <ele>143.37</ele>
        <time>2018-11-06T14:17:41Z</time>
      </trkpt>
      <trkpt lat="37.0476183202" lon="-1.8778723665">
        <ele>142.89</ele>
        <time>2018-11-06T14:17:42Z</time>
      </trkpt>
      <trkpt lat="37.0477209985" lon="-1.8778359052">
        <ele>142.41</ele>
        <time>2018-11-06T14:17:43Z</time>
      </trkpt>
      <trkpt lat="37.0478152949" lon="-1.8778160401">
        <ele>141.93</ele>
        <time>2018-11-06T14:17:44Z</time>
      </trkpt>
      <trkpt lat="37.0479075797" lon="-1.8778200634">
        <ele>140.97</ele>
        <time>2018-11-06T14:17:45Z</time>
      </trkpt>
      <trkpt lat="37.0479973499" lon="-1.8778503221">
        <ele>140.49</ele>
        <time>2018-11-06T14:17:46Z</time>
      </trkpt>
      <trkpt lat="37.0480834320" lon="-1.8779076543">
        <ele>139.53</ele>
        <time>2018-11-06T14:17:47Z</time>
      </trkpt>
      <trkpt lat="37.0481580310" lon="-1.8779815827">
        <ele>139.05</ele>
        <time>2018-11-06T14:17:48Z</time>
      </trkpt>
      <trkpt lat="37.0482191350" lon="-1.8780688383">
        <ele>138.09</ele>
        <time>2018-11-06T14:17:49Z</time>
      </trkpt>
      <trkpt lat="37.0482647326" lon="-1.8781682476">
        <ele>137.13</ele>
        <time>2018-11-06T14:17:50Z</time>
      </trkpt>
      <trkpt lat="37.0482994337" lon="-1.8782837503">
        <ele>136.64</ele>
        <time>2018-11-06T14:17:51Z</time>
      </trkpt>
      <trkpt lat="37.0483235735" lon="-1.8784004264">
        <ele>136.16</ele>
        <time>2018-11-06T14:17:52Z</time>
      </trkpt>
      <trkpt lat="37.0483449474" lon="-1.8785210419">
        <ele>135.20</ele>
        <time>2018-11-06T14:17:53Z</time>
      </trkpt>
      <trkpt lat="37.0485287625" lon="-1.8792597391">
        <ele>130.40</ele>
        <time>2018-11-06T14:17:59Z</time>
      </trkpt>
      <trkpt lat="37.0488369651" lon="-1.8797835242">
        <ele>127.99</ele>
        <time>2018-11-06T14:18:04Z</time>
      </trkpt>
      <trkpt lat="37.0489835646" lon="-1.8799590413">
        <ele>127.03</ele>
        <time>2018-11-06T14:18:06Z</time>
      </trkpt>
      <trkpt lat="37.0490650367" lon="-1.8800301198">
        <ele>126.55</ele>
        <time>2018-11-06T14:18:07Z</time>
      </trkpt>
      <trkpt lat="37.0491517056" lon="-1.8800948281">
        <ele>126.07</ele>
        <time>2018-11-06T14:18:08Z</time>
      </trkpt>
      <trkpt lat="37.0495773386" lon="-1.8802913837">
        <ele>124.63</ele>
        <time>2018-11-06T14:18:13Z</time>
      </trkpt>
      <trkpt lat="37.0501223300" lon="-1.8803503085">
        <ele>122.22</ele>
        <time>2018-11-06T14:18:19Z</time>
      </trkpt>
      <trkpt lat="37.0508792996" lon="-1.8802205566">
        <ele>117.90</ele>
        <time>2018-11-06T14:18:27Z</time>
      </trkpt>
      <trkpt lat="37.0516182482" lon="-1.8800110929">
        <ele>117.42</ele>
        <time>2018-11-06T14:18:35Z</time>
      </trkpt>
      <trkpt lat="37.0520069171" lon="-1.8798655830">
        <ele>118.86</ele>
        <time>2018-11-06T14:18:41Z</time>
      </trkpt>
      <trkpt lat="37.0521629881" lon="-1.8798373360">
        <ele>120.30</ele>
        <time>2018-11-06T14:18:45Z</time>
      </trkpt>
      <trkpt lat="37.0523136947" lon="-1.8798661698">
        <ele>121.26</ele>
        <time>2018-11-06T14:18:53Z</time>
      </trkpt>
      <trkpt lat="37.0524565224" lon="-1.8799401820">
        <ele>122.71</ele>
        <time>2018-11-06T14:19:02Z</time>
      </trkpt>
      <trkpt lat="37.0525754616" lon="-1.8800397590">
        <ele>123.67</ele>
        <time>2018-11-06T14:19:10Z</time>
      </trkpt>
      <trkpt lat="37.0526705123" lon="-1.8801415991">
        <ele>124.63</ele>
        <time>2018-11-06T14:19:18Z</time>
      </trkpt>
      <trkpt lat="37.0526812412" lon="-1.8801488075">
        <ele>125.11</ele>
        <time>2018-11-06T14:19:20Z</time>
      </trkpt>
      <trkpt lat="37.0527051296" lon="-1.8801581115">
        <ele>125.11</ele>
        <time>2018-11-06T14:19:22Z</time>
      </trkpt>
      <trkpt lat="37.0527154393" lon="-1.8801710196">
        <ele>125.11</ele>
        <time>2018-11-06T14:19:23Z</time>
      </trkpt>
      <trkpt lat="37.0527285151" lon="-1.8801840115">
        <ele>125.11</ele>
        <time>2018-11-06T14:19:24Z</time>
      </trkpt>
      <trkpt lat="37.0527425967" lon="-1.8801961653">
        <ele>125.11</ele>
        <time>2018-11-06T14:19:25Z</time>
      </trkpt>
      <trkpt lat="37.0527565945" lon="-1.8802083191">
        <ele>125.11</ele>
        <time>2018-11-06T14:19:26Z</time>
      </trkpt>
      <trkpt lat="37.0527942292" lon="-1.8802334648">
        <ele>125.59</ele>
        <time>2018-11-06T14:19:32Z</time>
      </trkpt>
      <trkpt lat="37.0528001804" lon="-1.8802412599">
        <ele>126.55</ele>
        <time>2018-11-06T14:19:49Z</time>
      </trkpt>
      <trkpt lat="37.0528035332" lon="-1.8802353926">
        <ele>125.59</ele>
        <time>2018-11-06T14:20:03Z</time>
      </trkpt>
      <trkpt lat="37.0527917147" lon="-1.8802438583">
        <ele>126.07</ele>
        <time>2018-11-06T14:20:20Z</time>
      </trkpt>
      <trkpt lat="37.0527898706" lon="-1.8802330457">
        <ele>124.63</ele>
        <time>2018-11-06T14:20:32Z</time>
      </trkpt>
      <trkpt lat="37.0527931396" lon="-1.8802383263">
        <ele>124.63</ele>
        <time>2018-11-06T14:20:48Z</time>
      </trkpt>
      <trkpt lat="37.0527959894" lon="-1.8802234903">
        <ele>125.11</ele>
        <time>2018-11-06T14:21:05Z</time>
      </trkpt>
      <trkpt lat="37.0528330375" lon="-1.8802658189">
        <ele>125.59</ele>
        <time>2018-11-06T14:21:11Z</time>
      </trkpt>
      <trkpt lat="37.0529231429" lon="-1.8803700060">
        <ele>126.07</ele>
        <time>2018-11-06T14:21:19Z</time>
      </trkpt>
      <trkpt lat="37.0530261565" lon="-1.8804912921">
        <ele>127.51</ele>
        <time>2018-11-06T14:21:28Z</time>
      </trkpt>
      <trkpt lat="37.0531324390" lon="-1.8806111533">
        <ele>129.92</ele>
        <time>2018-11-06T14:21:37Z</time>
      </trkpt>
      <trkpt lat="37.0532484446" lon="-1.8807481974">
        <ele>131.84</ele>
        <time>2018-11-06T14:21:48Z</time>
      </trkpt>
      <trkpt lat="37.0533621870" lon="-1.8808790389">
        <ele>133.76</ele>
        <time>2018-11-06T14:21:58Z</time>
      </trkpt>
      <trkpt lat="37.0535012428" lon="-1.8810452521">
        <ele>135.68</ele>
        <time>2018-11-06T14:22:09Z</time>
      </trkpt>
      <trkpt lat="37.0535794459" lon="-1.8811300769">
        <ele>135.68</ele>
        <time>2018-11-06T14:22:16Z</time>
      </trkpt>
      <trkpt lat="37.0536851417" lon="-1.8812387902">
        <ele>137.13</ele>
        <time>2018-11-06T14:22:25Z</time>
      </trkpt>
      <trkpt lat="37.0538131334" lon="-1.8813250400">
        <ele>138.09</ele>
        <time>2018-11-06T14:22:34Z</time>
      </trkpt>
      <trkpt lat="37.0538674481" lon="-1.8813478388">
        <ele>138.57</ele>
        <time>2018-11-06T14:22:41Z</time>
      </trkpt>
      <trkpt lat="37.0538730640" lon="-1.8813102879">
        <ele>143.37</ele>
        <time>2018-11-06T14:22:53Z</time>
      </trkpt>
      <trkpt lat="37.0539186615" lon="-1.8813411333">
        <ele>142.41</ele>
        <time>2018-11-06T14:23:02Z</time>
      </trkpt>
      <trkpt lat="37.0539974514" lon="-1.8813720625">
        <ele>143.37</ele>
        <time>2018-11-06T14:23:11Z</time>
      </trkpt>
      <trkpt lat="37.0540477429" lon="-1.8813806120">
        <ele>144.34</ele>
        <time>2018-11-06T14:23:17Z</time>
      </trkpt>
      <trkpt lat="37.0541713759" lon="-1.8813993875">
        <ele>146.74</ele>
        <time>2018-11-06T14:23:27Z</time>
      </trkpt>
      <trkpt lat="37.0542842802" lon="-1.8814077694">
        <ele>148.18</ele>
        <time>2018-11-06T14:23:39Z</time>
      </trkpt>
      <trkpt lat="37.0542832743" lon="-1.8813775107">
        <ele>148.66</ele>
        <time>2018-11-06T14:23:53Z</time>
      </trkpt>
      <trkpt lat="37.0543095935" lon="-1.8813982978">
        <ele>147.22</ele>
        <time>2018-11-06T14:24:02Z</time>
      </trkpt>
      <trkpt lat="37.0544543490" lon="-1.8813944422">
        <ele>148.66</ele>
        <time>2018-11-06T14:24:14Z</time>
      </trkpt>
      <trkpt lat="37.0544768125" lon="-1.8813942745">
        <ele>149.14</ele>
        <time>2018-11-06T14:24:16Z</time>
      </trkpt>
      <trkpt lat="37.0545181353" lon="-1.8814031594">
        <ele>150.10</ele>
        <time>2018-11-06T14:24:24Z</time>
      </trkpt>
      <trkpt lat="37.0545664150" lon="-1.8813848868">
        <ele>150.10</ele>
        <time>2018-11-06T14:24:37Z</time>
      </trkpt>
      <trkpt lat="37.0547182113" lon="-1.8812875729">
        <ele>150.58</ele>
        <time>2018-11-06T14:24:51Z</time>
      </trkpt>
      <trkpt lat="37.0548336301" lon="-1.8811966293">
        <ele>151.06</ele>
        <time>2018-11-06T14:25:03Z</time>
      </trkpt>
      <trkpt lat="37.0549441036" lon="-1.8811033387">
        <ele>153.47</ele>
        <time>2018-11-06T14:25:14Z</time>
      </trkpt>
      <trkpt lat="37.0550363883" lon="-1.8810173403">
        <ele>154.43</ele>
        <time>2018-11-06T14:25:25Z</time>
      </trkpt>
      <trkpt lat="37.0550460275" lon="-1.8810038455">
        <ele>154.91</ele>
        <time>2018-11-06T14:25:33Z</time>
      </trkpt>
      <trkpt lat="37.0551101491" lon="-1.8809484411">
        <ele>155.39</ele>
        <time>2018-11-06T14:25:42Z</time>
      </trkpt>
      <trkpt lat="37.0551442634" lon="-1.8809190206">
        <ele>156.35</ele>
        <time>2018-11-06T14:25:51Z</time>
      </trkpt>
      <trkpt lat="37.0552478638" lon="-1.8808449246">
        <ele>157.79</ele>
        <time>2018-11-06T14:26:03Z</time>
      </trkpt>
      <trkpt lat="37.0553546492" lon="-1.8807666376">
        <ele>159.24</ele>
        <time>2018-11-06T14:26:14Z</time>
      </trkpt>
      <trkpt lat="37.0554656256" lon="-1.8806952238">
        <ele>159.72</ele>
        <time>2018-11-06T14:26:25Z</time>
      </trkpt>
      <trkpt lat="37.0555971377" lon="-1.8806345388">
        <ele>161.64</ele>
        <time>2018-11-06T14:26:36Z</time>
      </trkpt>
      <trkpt lat="37.0557287335" lon="-1.8806130812">
        <ele>162.60</ele>
        <time>2018-11-06T14:26:47Z</time>
      </trkpt>
      <trkpt lat="37.0557584055" lon="-1.8806013465">
        <ele>163.08</ele>
        <time>2018-11-06T14:26:55Z</time>
      </trkpt>
      <trkpt lat="37.0557752531" lon="-1.8805964012">
        <ele>163.08</ele>
        <time>2018-11-06T14:27:14Z</time>
      </trkpt>
      <trkpt lat="37.0558794402" lon="-1.8806257378">
        <ele>163.56</ele>
        <time>2018-11-06T14:27:23Z</time>
      </trkpt>
      <trkpt lat="37.0559974574" lon="-1.8806397356">
        <ele>164.52</ele>
        <time>2018-11-06T14:27:33Z</time>
      </trkpt>
      <trkpt lat="37.0560821984" lon="-1.8806526437">
        <ele>165.96</ele>
        <time>2018-11-06T14:27:43Z</time>
      </trkpt>
      <trkpt lat="37.0560831204" lon="-1.8806704134">
        <ele>166.45</ele>
        <time>2018-11-06T14:28:00Z</time>
      </trkpt>
      <trkpt lat="37.0560769178" lon="-1.8806702457">
        <ele>166.93</ele>
        <time>2018-11-06T14:28:13Z</time>
      </trkpt>
      <trkpt lat="37.0560618304" lon="-1.8806592654">
        <ele>166.93</ele>
        <time>2018-11-06T14:28:32Z</time>
      </trkpt>
      <trkpt lat="37.0560671110" lon="-1.8806743529">
        <ele>169.81</ele>
        <time>2018-11-06T14:28:46Z</time>
      </trkpt>
      <trkpt lat="37.0560749061" lon="-1.8806768674">
        <ele>171.25</ele>
        <time>2018-11-06T14:29:00Z</time>
      </trkpt>
      <trkpt lat="37.0560765825" lon="-1.8806522246">
        <ele>171.73</ele>
        <time>2018-11-06T14:29:15Z</time>
      </trkpt>
      <trkpt lat="37.0560728945" lon="-1.8806558289">
        <ele>172.21</ele>
        <time>2018-11-06T14:29:31Z</time>
      </trkpt>
      <trkpt lat="37.0560698770" lon="-1.8806462735">
        <ele>169.81</ele>
        <time>2018-11-06T14:29:43Z</time>
      </trkpt>
      <trkpt lat="37.0560809411" lon="-1.8806340359">
        <ele>167.89</ele>
        <time>2018-11-06T14:29:59Z</time>
      </trkpt>
      <trkpt lat="37.0560865570" lon="-1.8806537334">
        <ele>165.48</ele>
        <time>2018-11-06T14:30:11Z</time>
      </trkpt>
      <trkpt lat="37.0560753252" lon="-1.8806546554">
        <ele>164.04</ele>
        <time>2018-11-06T14:30:22Z</time>
      </trkpt>
      <trkpt lat="37.0560690388" lon="-1.8806532305">
        <ele>164.52</ele>
        <time>2018-11-06T14:30:34Z</time>
      </trkpt>
      <trkpt lat="37.0560912509" lon="-1.8806684017">
        <ele>162.12</ele>
        <time>2018-11-06T14:30:46Z</time>
      </trkpt>
      <trkpt lat="37.0561380219" lon="-1.8806719221">
        <ele>164.52</ele>
        <time>2018-11-06T14:30:55Z</time>
      </trkpt>
      <trkpt lat="37.0561777521" lon="-1.8806886859">
        <ele>164.04</ele>
        <time>2018-11-06T14:31:04Z</time>
      </trkpt>
      <trkpt lat="37.0562896505" lon="-1.8807202857">
        <ele>165.00</ele>
        <time>2018-11-06T14:31:12Z</time>
      </trkpt>
      <trkpt lat="37.0564255212" lon="-1.8807637040">
        <ele>166.45</ele>
        <time>2018-11-06T14:31:21Z</time>
      </trkpt>
      <trkpt lat="37.0565749705" lon="-1.8808108941">
        <ele>167.89</ele>
        <time>2018-11-06T14:31:30Z</time>
      </trkpt>
      <trkpt lat="37.0566060673" lon="-1.8808177672">
        <ele>168.37</ele>
        <time>2018-11-06T14:31:32Z</time>
      </trkpt>
      <trkpt lat="37.0567063149" lon="-1.8808518816">
        <ele>169.33</ele>
        <time>2018-11-06T14:31:38Z</time>
      </trkpt>
      <trkpt lat="37.0568359829" lon="-1.8809168413">
        <ele>169.81</ele>
        <time>2018-11-06T14:31:46Z</time>
      </trkpt>
      <trkpt lat="37.0569603704" lon="-1.8809813820">
        <ele>169.81</ele>
        <time>2018-11-06T14:31:54Z</time>
      </trkpt>
      <trkpt lat="37.0571394078" lon="-1.8810450844">
        <ele>168.37</ele>
        <time>2018-11-06T14:32:01Z</time>
      </trkpt>
      <trkpt lat="37.0574032702" lon="-1.8811285682">
        <ele>166.93</ele>
        <time>2018-11-06T14:32:08Z</time>
      </trkpt>
      <trkpt lat="37.0574816409" lon="-1.8811887503">
        <ele>166.45</ele>
        <time>2018-11-06T14:32:10Z</time>
      </trkpt>
      <trkpt lat="37.0575168449" lon="-1.8812267203">
        <ele>166.45</ele>
        <time>2018-11-06T14:32:11Z</time>
      </trkpt>
      <trkpt lat="37.0576723292" lon="-1.8814093620">
        <ele>165.48</ele>
        <time>2018-11-06T14:32:15Z</time>
      </trkpt>
      <trkpt lat="37.0577135682" lon="-1.8814469967">
        <ele>165.96</ele>
        <time>2018-11-06T14:32:16Z</time>
      </trkpt>
      <trkpt lat="37.0580412168" lon="-1.8816512637">
        <ele>163.56</ele>
        <time>2018-11-06T14:32:23Z</time>
      </trkpt>
      <trkpt lat="37.0584093500" lon="-1.8817232642">
        <ele>161.64</ele>
        <time>2018-11-06T14:32:29Z</time>
      </trkpt>
      <trkpt lat="37.0589084085" lon="-1.8816205021">
        <ele>160.20</ele>
        <time>2018-11-06T14:32:36Z</time>
      </trkpt>
      <trkpt lat="37.0593296830" lon="-1.8813684583">
        <ele>158.75</ele>
        <time>2018-11-06T14:32:42Z</time>
      </trkpt>
      <trkpt lat="37.0593987498" lon="-1.8812929373">
        <ele>158.27</ele>
        <time>2018-11-06T14:32:43Z</time>
      </trkpt>
      <trkpt lat="37.0594620332" lon="-1.8812107947">
        <ele>157.79</ele>
        <time>2018-11-06T14:32:44Z</time>
      </trkpt>
      <trkpt lat="37.0595228858" lon="-1.8811223656">
        <ele>157.31</ele>
        <time>2018-11-06T14:32:45Z</time>
      </trkpt>
      <trkpt lat="37.0595869236" lon="-1.8810180109">
        <ele>156.83</ele>
        <time>2018-11-06T14:32:46Z</time>
      </trkpt>
      <trkpt lat="37.0599142369" lon="-1.8803298566">
        <ele>152.99</ele>
        <time>2018-11-06T14:32:52Z</time>
      </trkpt>
      <trkpt lat="37.0604848769" lon="-1.8789807893">
        <ele>146.26</ele>
        <time>2018-11-06T14:33:02Z</time>
      </trkpt>
      <trkpt lat="37.0611493941" lon="-1.8775010481">
        <ele>140.97</ele>
        <time>2018-11-06T14:33:13Z</time>
      </trkpt>
      <trkpt lat="37.0616066270" lon="-1.8764380552">
        <ele>136.16</ele>
        <time>2018-11-06T14:33:21Z</time>
      </trkpt>
      <trkpt lat="37.0617418271" lon="-1.8760206364">
        <ele>134.24</ele>
        <time>2018-11-06T14:33:24Z</time>
      </trkpt>
      <trkpt lat="37.0617691521" lon="-1.8758742884">
        <ele>133.28</ele>
        <time>2018-11-06T14:33:25Z</time>
      </trkpt>
      <trkpt lat="37.0617796294" lon="-1.8757254258">
        <ele>132.32</ele>
        <time>2018-11-06T14:33:26Z</time>
      </trkpt>
      <trkpt lat="37.0617709123" lon="-1.8755739648">
        <ele>131.84</ele>
        <time>2018-11-06T14:33:27Z</time>
      </trkpt>
      <trkpt lat="37.0617475267" lon="-1.8754245155">
        <ele>131.36</ele>
        <time>2018-11-06T14:33:28Z</time>
      </trkpt>
      <trkpt lat="37.0617181063" lon="-1.8752783351">
        <ele>130.88</ele>
        <time>2018-11-06T14:33:29Z</time>
      </trkpt>
      <trkpt lat="37.0616191160" lon="-1.8745820504">
        <ele>129.43</ele>
        <time>2018-11-06T14:33:34Z</time>
      </trkpt>
      <trkpt lat="37.0616240613" lon="-1.8744455092">
        <ele>128.95</ele>
        <time>2018-11-06T14:33:35Z</time>
      </trkpt>
      <trkpt lat="37.0616373047" lon="-1.8743087165">
        <ele>128.95</ele>
        <time>2018-11-06T14:33:36Z</time>
      </trkpt>
      <trkpt lat="37.0616562478" lon="-1.8741785455">
        <ele>128.47</ele>
        <time>2018-11-06T14:33:37Z</time>
      </trkpt>
      <trkpt lat="37.0616786275" lon="-1.8740456086">
        <ele>127.99</ele>
        <time>2018-11-06T14:33:38Z</time>
      </trkpt>
      <trkpt lat="37.0619368739" lon="-1.8728107028">
        <ele>122.71</ele>
        <time>2018-11-06T14:33:47Z</time>
      </trkpt>
      <trkpt lat="37.0622216910" lon="-1.8719656393">
        <ele>118.38</ele>
        <time>2018-11-06T14:33:53Z</time>
      </trkpt>
      <trkpt lat="37.0627741423" lon="-1.8710705359">
        <ele>112.61</ele>
        <time>2018-11-06T14:34:00Z</time>
      </trkpt>
      <trkpt lat="37.0635145158" lon="-1.8703164160">
        <ele>106.36</ele>
        <time>2018-11-06T14:34:07Z</time>
      </trkpt>
      <trkpt lat="37.0645964518" lon="-1.8692172971">
        <ele>101.56</ele>
        <time>2018-11-06T14:34:17Z</time>
      </trkpt>
      <trkpt lat="37.0652096719" lon="-1.8685923424">
        <ele>100.11</ele>
        <time>2018-11-06T14:34:24Z</time>
      </trkpt>
      <trkpt lat="37.0660458505" lon="-1.8677139189">
        <ele>97.71</ele>
        <time>2018-11-06T14:34:35Z</time>
      </trkpt>
      <trkpt lat="37.0666112937" lon="-1.8670968432">
        <ele>95.31</ele>
        <time>2018-11-06T14:34:43Z</time>
      </trkpt>
      <trkpt lat="37.0672227535" lon="-1.8664292246">
        <ele>92.42</ele>
        <time>2018-11-06T14:34:52Z</time>
      </trkpt>
      <trkpt lat="37.0678037871" lon="-1.8657415733">
        <ele>90.02</ele>
        <time>2018-11-06T14:35:00Z</time>
      </trkpt>
      <trkpt lat="37.0686018281" lon="-1.8648132775">
        <ele>84.73</ele>
        <time>2018-11-06T14:35:10Z</time>
      </trkpt>
      <trkpt lat="37.0693934150" lon="-1.8639855646">
        <ele>79.93</ele>
        <time>2018-11-06T14:35:19Z</time>
      </trkpt>
      <trkpt lat="37.0702601038" lon="-1.8631889485">
        <ele>75.12</ele>
        <time>2018-11-06T14:35:28Z</time>
      </trkpt>
      <trkpt lat="37.0705595892" lon="-1.8629105855">
        <ele>74.16</ele>
        <time>2018-11-06T14:35:32Z</time>
      </trkpt>
      <trkpt lat="37.0706875809" lon="-1.8627802469">
        <ele>73.20</ele>
        <time>2018-11-06T14:35:36Z</time>
      </trkpt>
      <trkpt lat="37.0707056019" lon="-1.8627626449">
        <ele>71.76</ele>
        <time>2018-11-06T14:35:41Z</time>
      </trkpt>
      <trkpt lat="37.0706989802" lon="-1.8627681769">
        <ele>70.31</ele>
        <time>2018-11-06T14:36:03Z</time>
      </trkpt>
      <trkpt lat="37.0707042608" lon="-1.8627748825">
        <ele>69.35</ele>
        <time>2018-11-06T14:36:21Z</time>
      </trkpt>
      <trkpt lat="37.0707183424" lon="-1.8627707753">
        <ele>69.83</ele>
        <time>2018-11-06T14:36:33Z</time>
      </trkpt>
      <trkpt lat="37.0707331784" lon="-1.8627647404">
        <ele>69.83</ele>
        <time>2018-11-06T14:36:34Z</time>
      </trkpt>
      <trkpt lat="37.0707483497" lon="-1.8627517484">
        <ele>69.83</ele>
        <time>2018-11-06T14:36:35Z</time>
      </trkpt>
      <trkpt lat="37.0707635209" lon="-1.8627358228">
        <ele>69.35</ele>
        <time>2018-11-06T14:36:36Z</time>
      </trkpt>
      <trkpt lat="37.0707815420" lon="-1.8627185561">
        <ele>69.35</ele>
        <time>2018-11-06T14:36:37Z</time>
      </trkpt>
      <trkpt lat="37.0709730685" lon="-1.8625524268">
        <ele>69.35</ele>
        <time>2018-11-06T14:36:44Z</time>
      </trkpt>
      <trkpt lat="37.0712456480" lon="-1.8622899894">
        <ele>68.39</ele>
        <time>2018-11-06T14:36:51Z</time>
      </trkpt>
      <trkpt lat="37.0717053115" lon="-1.8618705589">
        <ele>66.95</ele>
        <time>2018-11-06T14:37:00Z</time>
      </trkpt>
      <trkpt lat="37.0722700842" lon="-1.8613637891">
        <ele>64.07</ele>
        <time>2018-11-06T14:37:09Z</time>
      </trkpt>
      <trkpt lat="37.0728948712" lon="-1.8608739506">
        <ele>60.70</ele>
        <time>2018-11-06T14:37:17Z</time>
      </trkpt>
      <trkpt lat="37.0738079958" lon="-1.8602247722">
        <ele>55.41</ele>
        <time>2018-11-06T14:37:27Z</time>
      </trkpt>
      <trkpt lat="37.0746786240" lon="-1.8595709000">
        <ele>49.65</ele>
        <time>2018-11-06T14:37:36Z</time>
      </trkpt>
      <trkpt lat="37.0750693884" lon="-1.8590658065">
        <ele>45.32</ele>
        <time>2018-11-06T14:37:41Z</time>
      </trkpt>
      <trkpt lat="37.0755796786" lon="-1.8583685160">
        <ele>40.99</ele>
        <time>2018-11-06T14:37:48Z</time>
      </trkpt>
      <trkpt lat="37.0761183836" lon="-1.8579357583">
        <ele>39.07</ele>
        <time>2018-11-06T14:37:54Z</time>
      </trkpt>
      <trkpt lat="37.0765552483" lon="-1.8577706348">
        <ele>37.63</ele>
        <time>2018-11-06T14:37:59Z</time>
      </trkpt>
      <trkpt lat="37.0770642813" lon="-1.8576122168">
        <ele>39.07</ele>
        <time>2018-11-06T14:38:06Z</time>
      </trkpt>
      <trkpt lat="37.0771807898" lon="-1.8575610872">
        <ele>39.07</ele>
        <time>2018-11-06T14:38:08Z</time>
      </trkpt>
      <trkpt lat="37.0772267226" lon="-1.8575209379">
        <ele>39.07</ele>
        <time>2018-11-06T14:38:09Z</time>
      </trkpt>
      <trkpt lat="37.0772587415" lon="-1.8574703112">
        <ele>38.59</ele>
        <time>2018-11-06T14:38:10Z</time>
      </trkpt>
      <trkpt lat="37.0773200132" lon="-1.8573647831">
        <ele>38.59</ele>
        <time>2018-11-06T14:38:12Z</time>
      </trkpt>
      <trkpt lat="37.0773550496" lon="-1.8573191017">
        <ele>38.11</ele>
        <time>2018-11-06T14:38:13Z</time>
      </trkpt>
      <trkpt lat="37.0773974620" lon="-1.8572749291">
        <ele>38.11</ele>
        <time>2018-11-06T14:38:14Z</time>
      </trkpt>
      <trkpt lat="37.0774770062" lon="-1.8571949657">
        <ele>38.11</ele>
        <time>2018-11-06T14:38:16Z</time>
      </trkpt>
      <trkpt lat="37.0775105339" lon="-1.8571391422">
        <ele>38.11</ele>
        <time>2018-11-06T14:38:17Z</time>
      </trkpt>
      <trkpt lat="37.0775334165" lon="-1.8570778705">
        <ele>38.11</ele>
        <time>2018-11-06T14:38:18Z</time>
      </trkpt>
      <trkpt lat="37.0775504317" lon="-1.8570117373">
        <ele>37.63</ele>
        <time>2018-11-06T14:38:19Z</time>
      </trkpt>
      <trkpt lat="37.0775673632" lon="-1.8569362164">
        <ele>37.63</ele>
        <time>2018-11-06T14:38:20Z</time>
      </trkpt>
      <trkpt lat="37.0776815247" lon="-1.8563398439">
        <ele>34.26</ele>
        <time>2018-11-06T14:38:27Z</time>
      </trkpt>
      <trkpt lat="37.0778651722" lon="-1.8553827982">
        <ele>29.94</ele>
        <time>2018-11-06T14:38:36Z</time>
      </trkpt>
      <trkpt lat="37.0780811738" lon="-1.8546116631">
        <ele>26.57</ele>
        <time>2018-11-06T14:38:43Z</time>
      </trkpt>
      <trkpt lat="37.0783673320" lon="-1.8540290371">
        <ele>24.65</ele>
        <time>2018-11-06T14:38:49Z</time>
      </trkpt>
      <trkpt lat="37.0789026842" lon="-1.8533384521">
        <ele>23.69</ele>
        <time>2018-11-06T14:38:58Z</time>
      </trkpt>
      <trkpt lat="37.0793962106" lon="-1.8527445104">
        <ele>23.69</ele>
        <time>2018-11-06T14:39:07Z</time>
      </trkpt>
      <trkpt lat="37.0800108556" lon="-1.8521128502">
        <ele>21.77</ele>
        <time>2018-11-06T14:39:17Z</time>
      </trkpt>
      <trkpt lat="37.0803213213" lon="-1.8518925738">
        <ele>20.32</ele>
        <time>2018-11-06T14:39:21Z</time>
      </trkpt>
      <trkpt lat="37.0803662483" lon="-1.8518423662">
        <ele>20.32</ele>
        <time>2018-11-06T14:39:22Z</time>
      </trkpt>
      <trkpt lat="37.0804768056" lon="-1.8517172243">
        <ele>19.84</ele>
        <time>2018-11-06T14:39:24Z</time>
      </trkpt>
      <trkpt lat="37.0805389155" lon="-1.8516787514">
        <ele>19.84</ele>
        <time>2018-11-06T14:39:25Z</time>
      </trkpt>
      <trkpt lat="37.0806220639" lon="-1.8516483251">
        <ele>19.36</ele>
        <time>2018-11-06T14:39:26Z</time>
      </trkpt>
      <trkpt lat="37.0806958247" lon="-1.8516217545">
        <ele>19.36</ele>
        <time>2018-11-06T14:39:27Z</time>
      </trkpt>
      <trkpt lat="37.0807671547" lon="-1.8515812699">
        <ele>19.36</ele>
        <time>2018-11-06T14:39:28Z</time>
      </trkpt>
      <trkpt lat="37.0808025263" lon="-1.8515573815">
        <ele>19.36</ele>
        <time>2018-11-06T14:39:29Z</time>
      </trkpt>
      <trkpt lat="37.0814076997" lon="-1.8511682097">
        <ele>19.36</ele>
        <time>2018-11-06T14:39:39Z</time>
      </trkpt>
      <trkpt lat="37.0819615759" lon="-1.8509730790">
        <ele>18.40</ele>
        <time>2018-11-06T14:39:48Z</time>
      </trkpt>
      <trkpt lat="37.0825350657" lon="-1.8509693071">
        <ele>16.96</ele>
        <time>2018-11-06T14:39:57Z</time>
      </trkpt>
      <trkpt lat="37.0828428492" lon="-1.8509895075">
        <ele>16.48</ele>
        <time>2018-11-06T14:40:03Z</time>
      </trkpt>
      <trkpt lat="37.0829126704" lon="-1.8509926088">
        <ele>16.48</ele>
        <time>2018-11-06T14:40:08Z</time>
      </trkpt>
      <trkpt lat="37.0829282608" lon="-1.8510086183">
        <ele>16.96</ele>
        <time>2018-11-06T14:40:16Z</time>
      </trkpt>
      <trkpt lat="37.0829322841" lon="-1.8510014936">
        <ele>16.96</ele>
        <time>2018-11-06T14:40:33Z</time>
      </trkpt>
      <trkpt lat="37.0829937235" lon="-1.8510052655">
        <ele>16.96</ele>
        <time>2018-11-06T14:40:40Z</time>
      </trkpt>
      <trkpt lat="37.0832387265" lon="-1.8510260526">
        <ele>16.96</ele>
        <time>2018-11-06T14:40:49Z</time>
      </trkpt>
      <trkpt lat="37.0836704783" lon="-1.8510582391">
        <ele>16.48</ele>
        <time>2018-11-06T14:41:00Z</time>
      </trkpt>
      <trkpt lat="37.0840099454" lon="-1.8510836363">
        <ele>16.00</ele>
        <time>2018-11-06T14:41:08Z</time>
      </trkpt>
      <trkpt lat="37.0840499271" lon="-1.8510650285">
        <ele>16.00</ele>
        <time>2018-11-06T14:41:09Z</time>
      </trkpt>
      <trkpt lat="37.0841303933" lon="-1.8510143179">
        <ele>16.00</ele>
        <time>2018-11-06T14:41:11Z</time>
      </trkpt>
      <trkpt lat="37.0841723867" lon="-1.8510038406">
        <ele>16.00</ele>
        <time>2018-11-06T14:41:12Z</time>
      </trkpt>
      <trkpt lat="37.0842169784" lon="-1.8510059360">
        <ele>16.00</ele>
        <time>2018-11-06T14:41:13Z</time>
      </trkpt>
      <trkpt lat="37.0842623245" lon="-1.8510221969">
        <ele>16.00</ele>
        <time>2018-11-06T14:41:14Z</time>
      </trkpt>
      <trkpt lat="37.0843006298" lon="-1.8510508630">
        <ele>16.00</ele>
        <time>2018-11-06T14:41:15Z</time>
      </trkpt>
      <trkpt lat="37.0843394380" lon="-1.8510893360">
        <ele>16.00</ele>
        <time>2018-11-06T14:41:16Z</time>
      </trkpt>
      <trkpt lat="37.0843779109" lon="-1.8511209358">
        <ele>15.52</ele>
        <time>2018-11-06T14:41:17Z</time>
      </trkpt>
      <trkpt lat="37.0844182279" lon="-1.8511407170">
        <ele>15.52</ele>
        <time>2018-11-06T14:41:18Z</time>
      </trkpt>
      <trkpt lat="37.0844640769" lon="-1.8511501886">
        <ele>15.52</ele>
        <time>2018-11-06T14:41:19Z</time>
      </trkpt>
      <trkpt lat="37.0845056511" lon="-1.8511547148">
        <ele>15.52</ele>
        <time>2018-11-06T14:41:20Z</time>
      </trkpt>
      <trkpt lat="37.0850711782" lon="-1.8512137234">
        <ele>15.04</ele>
        <time>2018-11-06T14:41:32Z</time>
      </trkpt>
      <trkpt lat="37.0856003277" lon="-1.8512653559">
        <ele>15.52</ele>
        <time>2018-11-06T14:41:44Z</time>
      </trkpt>
      <trkpt lat="37.0860041678" lon="-1.8513893243">
        <ele>16.48</ele>
        <time>2018-11-06T14:41:53Z</time>
      </trkpt>
      <trkpt lat="37.0863135438" lon="-1.8516278733">
        <ele>17.44</ele>
        <time>2018-11-06T14:42:02Z</time>
      </trkpt>
      <trkpt lat="37.0866789110" lon="-1.8519794941">
        <ele>18.88</ele>
        <time>2018-11-06T14:42:15Z</time>
      </trkpt>
      <trkpt lat="37.0868685097" lon="-1.8520266004">
        <ele>19.84</ele>
        <time>2018-11-06T14:42:21Z</time>
      </trkpt>
      <trkpt lat="37.0869291108" lon="-1.8521468807">
        <ele>20.32</ele>
        <time>2018-11-06T14:42:26Z</time>
      </trkpt>
      <trkpt lat="37.0870065596" lon="-1.8523419276">
        <ele>19.84</ele>
        <time>2018-11-06T14:42:34Z</time>
      </trkpt>
      <trkpt lat="37.0871838368" lon="-1.8525123317">
        <ele>21.77</ele>
        <time>2018-11-06T14:42:44Z</time>
      </trkpt>
      <trkpt lat="37.0873736870" lon="-1.8527230527">
        <ele>23.69</ele>
        <time>2018-11-06T14:42:54Z</time>
      </trkpt>
      <trkpt lat="37.0875057857" lon="-1.8529814668">
        <ele>24.65</ele>
        <time>2018-11-06T14:43:04Z</time>
      </trkpt>
      <trkpt lat="37.0875849947" lon="-1.8532994762">
        <ele>26.09</ele>
        <time>2018-11-06T14:43:15Z</time>
      </trkpt>
      <trkpt lat="37.0876353700" lon="-1.8535656855">
        <ele>27.05</ele>
        <time>2018-11-06T14:43:24Z</time>
      </trkpt>
      <trkpt lat="37.0876763575" lon="-1.8538031448">
        <ele>28.02</ele>
        <time>2018-11-06T14:43:33Z</time>
      </trkpt>
      <trkpt lat="37.0877220389" lon="-1.8540390953">
        <ele>31.38</ele>
        <time>2018-11-06T14:43:43Z</time>
      </trkpt>
      <trkpt lat="37.0877876692" lon="-1.8542409316">
        <ele>31.86</ele>
        <time>2018-11-06T14:43:54Z</time>
      </trkpt>
      <trkpt lat="37.0878796186" lon="-1.8544217292">
        <ele>32.82</ele>
        <time>2018-11-06T14:44:04Z</time>
      </trkpt>
      <trkpt lat="37.0879992284" lon="-1.8545686640">
        <ele>34.26</ele>
        <time>2018-11-06T14:44:13Z</time>
      </trkpt>
      <trkpt lat="37.0881485101" lon="-1.8547018524">
        <ele>35.23</ele>
        <time>2018-11-06T14:44:23Z</time>
      </trkpt>
      <trkpt lat="37.0882935170" lon="-1.8547896948">
        <ele>35.71</ele>
        <time>2018-11-06T14:44:32Z</time>
      </trkpt>
      <trkpt lat="37.0884385239" lon="-1.8548409920">
        <ele>36.67</ele>
        <time>2018-11-06T14:44:40Z</time>
      </trkpt>
      <trkpt lat="37.0886133704" lon="-1.8548774533">
        <ele>38.11</ele>
        <time>2018-11-06T14:44:49Z</time>
      </trkpt>
      <trkpt lat="37.0887495764" lon="-1.8548886850">
        <ele>38.59</ele>
        <time>2018-11-06T14:44:56Z</time>
      </trkpt>
      <trkpt lat="37.0889618900" lon="-1.8549070414">
        <ele>39.55</ele>
        <time>2018-11-06T14:45:07Z</time>
      </trkpt>
      <trkpt lat="37.0891399216" lon="-1.8549129926">
        <ele>40.99</ele>
        <time>2018-11-06T14:45:17Z</time>
      </trkpt>
      <trkpt lat="37.0893173665" lon="-1.8549117353">
        <ele>41.47</ele>
        <time>2018-11-06T14:45:26Z</time>
      </trkpt>
      <trkpt lat="37.0895132516" lon="-1.8549054489">
        <ele>41.47</ele>
        <time>2018-11-06T14:45:36Z</time>
      </trkpt>
      <trkpt lat="37.0897712465" lon="-1.8549071252">
        <ele>42.44</ele>
        <time>2018-11-06T14:45:49Z</time>
      </trkpt>
      <trkpt lat="37.0899900980" lon="-1.8549093045">
        <ele>44.36</ele>
        <time>2018-11-06T14:46:00Z</time>
      </trkpt>
      <trkpt lat="37.0902283955" lon="-1.8548994139">
        <ele>44.84</ele>
        <time>2018-11-06T14:46:12Z</time>
      </trkpt>
      <trkpt lat="37.0904876478" lon="-1.8548844941">
        <ele>46.28</ele>
        <time>2018-11-06T14:46:25Z</time>
      </trkpt>
      <trkpt lat="37.0907013863" lon="-1.8548485357">
        <ele>46.76</ele>
        <time>2018-11-06T14:46:36Z</time>
      </trkpt>
      <trkpt lat="37.0908815134" lon="-1.8547894433">
        <ele>48.20</ele>
        <time>2018-11-06T14:46:46Z</time>
      </trkpt>
      <trkpt lat="37.0910287835" lon="-1.8547283392">
        <ele>49.65</ele>
        <time>2018-11-06T14:46:54Z</time>
      </trkpt>
      <trkpt lat="37.0911846869" lon="-1.8546672352">
        <ele>50.13</ele>
        <time>2018-11-06T14:47:02Z</time>
      </trkpt>
      <trkpt lat="37.0914564282" lon="-1.8545533251">
        <ele>51.57</ele>
        <time>2018-11-06T14:47:16Z</time>
      </trkpt>
      <trkpt lat="37.0916886069" lon="-1.8544681650">
        <ele>53.49</ele>
        <time>2018-11-06T14:47:27Z</time>
      </trkpt>
      <trkpt lat="37.0919004176" lon="-1.8543871120">
        <ele>54.93</ele>
        <time>2018-11-06T14:47:37Z</time>
      </trkpt>
      <trkpt lat="37.0920263138" lon="-1.8543393351">
        <ele>55.41</ele>
        <time>2018-11-06T14:47:44Z</time>
      </trkpt>
      <trkpt lat="37.0921873301" lon="-1.8542810809">
        <ele>56.86</ele>
        <time>2018-11-06T14:47:52Z</time>
      </trkpt>
      <trkpt lat="37.0923552196" lon="-1.8542302027">
        <ele>57.34</ele>
        <time>2018-11-06T14:48:00Z</time>
      </trkpt>
      <trkpt lat="37.0925557148" lon="-1.8541656621">
        <ele>56.86</ele>
        <time>2018-11-06T14:48:09Z</time>
      </trkpt>
      <trkpt lat="37.0928357542" lon="-1.8540608883">
        <ele>55.89</ele>
        <time>2018-11-06T14:48:18Z</time>
      </trkpt>
      <trkpt lat="37.0931490697" lon="-1.8539244309">
        <ele>54.45</ele>
        <time>2018-11-06T14:48:24Z</time>
      </trkpt>
      <trkpt lat="37.0935561787" lon="-1.8537384365">
        <ele>51.09</ele>
        <time>2018-11-06T14:48:29Z</time>
      </trkpt>
      <trkpt lat="37.0940942131" lon="-1.8534568045">
        <ele>45.32</ele>
        <time>2018-11-06T14:48:34Z</time>
      </trkpt>
      <trkpt lat="37.0947646815" lon="-1.8529703189">
        <ele>39.07</ele>
        <time>2018-11-06T14:48:40Z</time>
      </trkpt>
      <trkpt lat="37.0959837455" lon="-1.8519344833">
        <ele>30.90</ele>
        <time>2018-11-06T14:48:51Z</time>
      </trkpt>
      <trkpt lat="37.0966983028" lon="-1.8513492588">
        <ele>27.05</ele>
        <time>2018-11-06T14:48:58Z</time>
      </trkpt>
      <trkpt lat="37.0971963555" lon="-1.8511174992">
        <ele>24.17</ele>
        <time>2018-11-06T14:49:03Z</time>
      </trkpt>
      <trkpt lat="37.0977207273" lon="-1.8510037567">
        <ele>22.25</ele>
        <time>2018-11-06T14:49:09Z</time>
      </trkpt>
      <trkpt lat="37.0977988467" lon="-1.8509621825">
        <ele>21.77</ele>
        <time>2018-11-06T14:49:10Z</time>
      </trkpt>
      <trkpt lat="37.0978752896" lon="-1.8509052694">
        <ele>21.77</ele>
        <time>2018-11-06T14:49:11Z</time>
      </trkpt>
      <trkpt lat="37.0979415905" lon="-1.8508391362">
        <ele>21.77</ele>
        <time>2018-11-06T14:49:12Z</time>
      </trkpt>
      <trkpt lat="37.0980113279" lon="-1.8507505395">
        <ele>21.77</ele>
        <time>2018-11-06T14:49:13Z</time>
      </trkpt>
      <trkpt lat="37.0980539080" lon="-1.8506836519">
        <ele>21.29</ele>
        <time>2018-11-06T14:49:14Z</time>
      </trkpt>
      <trkpt lat="37.0981064625" lon="-1.8505929597">
        <ele>20.81</ele>
        <time>2018-11-06T14:49:15Z</time>
      </trkpt>
      <trkpt lat="37.0985263120" lon="-1.8499327172">
        <ele>19.36</ele>
        <time>2018-11-06T14:49:23Z</time>
      </trkpt>
      <trkpt lat="37.0989017375" lon="-1.8492396176">
        <ele>16.48</ele>
        <time>2018-11-06T14:49:30Z</time>
      </trkpt>
      <trkpt lat="37.0992492512" lon="-1.8482193723">
        <ele>11.67</ele>
        <time>2018-11-06T14:49:38Z</time>
      </trkpt>
      <trkpt lat="37.0993542764" lon="-1.8479940668">
        <ele>10.71</ele>
        <time>2018-11-06T14:49:40Z</time>
      </trkpt>
      <trkpt lat="37.0994276181" lon="-1.8478856049">
        <ele>10.23</ele>
        <time>2018-11-06T14:49:41Z</time>
      </trkpt>
      <trkpt lat="37.0994872972" lon="-1.8478208128">
        <ele>10.23</ele>
        <time>2018-11-06T14:49:42Z</time>
      </trkpt>
      <trkpt lat="37.0995521732" lon="-1.8477646541">
        <ele>10.23</ele>
        <time>2018-11-06T14:49:43Z</time>
      </trkpt>
      <trkpt lat="37.0995993633" lon="-1.8477308750">
        <ele>10.23</ele>
        <time>2018-11-06T14:49:44Z</time>
      </trkpt>
      <trkpt lat="37.0996448770" lon="-1.8477010354">
        <ele>10.23</ele>
        <time>2018-11-06T14:49:45Z</time>
      </trkpt>
      <trkpt lat="37.0997477230" lon="-1.8476000335">
        <ele>9.75</ele>
        <time>2018-11-06T14:49:50Z</time>
      </trkpt>
      <trkpt lat="37.0997580327" lon="-1.8475857843">
        <ele>9.75</ele>
        <time>2018-11-06T14:49:51Z</time>
      </trkpt>
      <trkpt lat="37.0997697674" lon="-1.8475714512">
        <ele>9.75</ele>
        <time>2018-11-06T14:49:52Z</time>
      </trkpt>
      <trkpt lat="37.0997880399" lon="-1.8475516699">
        <ele>9.75</ele>
        <time>2018-11-06T14:49:53Z</time>
      </trkpt>
      <trkpt lat="37.0998078212" lon="-1.8475382589">
        <ele>9.75</ele>
        <time>2018-11-06T14:49:54Z</time>
      </trkpt>
      <trkpt lat="37.0998320449" lon="-1.8475284521">
        <ele>9.75</ele>
        <time>2018-11-06T14:49:55Z</time>
      </trkpt>
      <trkpt lat="37.0998563524" lon="-1.8475237582">
        <ele>9.27</ele>
        <time>2018-11-06T14:49:56Z</time>
      </trkpt>
      <trkpt lat="37.0998836774" lon="-1.8475174718">
        <ele>9.27</ele>
        <time>2018-11-06T14:49:57Z</time>
      </trkpt>
      <trkpt lat="37.0999001060" lon="-1.8475074135">
        <ele>9.27</ele>
        <time>2018-11-06T14:49:58Z</time>
      </trkpt>
      <trkpt lat="37.0999123435" lon="-1.8474951759">
        <ele>9.27</ele>
        <time>2018-11-06T14:50:04Z</time>
      </trkpt>
      <trkpt lat="37.0999140199" lon="-1.8474980257">
        <ele>8.79</ele>
        <time>2018-11-06T14:50:11Z</time>
      </trkpt>
      <trkpt lat="37.0999150258" lon="-1.8475041445">
        <ele>7.83</ele>
        <time>2018-11-06T14:50:29Z</time>
      </trkpt>
      <trkpt lat="37.0999205578" lon="-1.8475044798">
        <ele>7.35</ele>
        <time>2018-11-06T14:50:51Z</time>
      </trkpt>
      <trkpt lat="37.0999227371" lon="-1.8474994507">
        <ele>6.87</ele>
        <time>2018-11-06T14:51:06Z</time>
      </trkpt>
      <trkpt lat="37.0999245811" lon="-1.8475033902">
        <ele>6.87</ele>
        <time>2018-11-06T14:51:23Z</time>
      </trkpt>
      <trkpt lat="37.0999218989" lon="-1.8475028872">
        <ele>6.87</ele>
        <time>2018-11-06T14:51:36Z</time>
      </trkpt>
      <trkpt lat="37.0999229047" lon="-1.8475012109">
        <ele>7.35</ele>
        <time>2018-11-06T14:51:51Z</time>
      </trkpt>
      <trkpt lat="37.0999218989" lon="-1.8474928290">
        <ele>6.39</ele>
        <time>2018-11-06T14:52:04Z</time>
      </trkpt>
      <trkpt lat="37.0999240782" lon="-1.8474950921">
        <ele>5.91</ele>
        <time>2018-11-06T14:52:20Z</time>
      </trkpt>
      <trkpt lat="37.0999299455" lon="-1.8474985287">
        <ele>5.91</ele>
        <time>2018-11-06T14:52:34Z</time>
      </trkpt>
      <trkpt lat="37.0999278501" lon="-1.8475038931">
        <ele>6.87</ele>
        <time>2018-11-06T14:52:49Z</time>
      </trkpt>
      <trkpt lat="37.0999234077" lon="-1.8475043960">
        <ele>7.83</ele>
        <time>2018-11-06T14:53:05Z</time>
      </trkpt>
      <trkpt lat="37.0999171212" lon="-1.8475036416">
        <ele>7.35</ele>
        <time>2018-11-06T14:53:22Z</time>
      </trkpt>
      <trkpt lat="37.0999120083" lon="-1.8475020491">
        <ele>6.87</ele>
        <time>2018-11-06T14:53:35Z</time>
      </trkpt>
      <trkpt lat="37.0999116730" lon="-1.8475090899">
        <ele>7.35</ele>
        <time>2018-11-06T14:53:51Z</time>
      </trkpt>
      <trkpt lat="37.0999115892" lon="-1.8475058209">
        <ele>8.31</ele>
        <time>2018-11-06T14:54:09Z</time>
      </trkpt>
      <trkpt lat="37.0999115054" lon="-1.8475093413">
        <ele>8.79</ele>
        <time>2018-11-06T14:54:22Z</time>
      </trkpt>
      <trkpt lat="37.0999150258" lon="-1.8475092575">
        <ele>8.79</ele>
        <time>2018-11-06T14:54:35Z</time>
      </trkpt>
      <trkpt lat="37.0999151934" lon="-1.8475095928">
        <ele>8.79</ele>
        <time>2018-11-06T14:54:55Z</time>
      </trkpt>
      <trkpt lat="37.0999189653" lon="-1.8475032225">
        <ele>8.31</ele>
        <time>2018-11-06T14:55:06Z</time>
      </trkpt>
      <trkpt lat="37.0999208093" lon="-1.8475022167">
        <ele>7.83</ele>
        <time>2018-11-06T14:55:18Z</time>
      </trkpt>
      <trkpt lat="37.0999283530" lon="-1.8474997021">
        <ele>7.35</ele>
        <time>2018-11-06T14:55:31Z</time>
      </trkpt>
      <trkpt lat="37.1000368148" lon="-1.8474689405">
        <ele>7.35</ele>
        <time>2018-11-06T14:55:39Z</time>
      </trkpt>
      <trkpt lat="37.1002646349" lon="-1.8474068306">
        <ele>7.35</ele>
        <time>2018-11-06T14:55:49Z</time>
      </trkpt>
      <trkpt lat="37.1004765294" lon="-1.8473553658">
        <ele>7.83</ele>
        <time>2018-11-06T14:55:59Z</time>
      </trkpt>
      <trkpt lat="37.1006912738" lon="-1.8473032303">
        <ele>8.31</ele>
        <time>2018-11-06T14:56:09Z</time>
      </trkpt>
      <trkpt lat="37.1008865722" lon="-1.8472704571">
        <ele>9.27</ele>
        <time>2018-11-06T14:56:18Z</time>
      </trkpt>
      <trkpt lat="37.1010902524" lon="-1.8472382706">
        <ele>9.75</ele>
        <time>2018-11-06T14:56:26Z</time>
      </trkpt>
      <trkpt lat="37.1011103690" lon="-1.8472488318">
        <ele>9.75</ele>
        <time>2018-11-06T14:56:27Z</time>
      </trkpt>
      <trkpt lat="37.1011305694" lon="-1.8472574651">
        <ele>9.75</ele>
        <time>2018-11-06T14:56:28Z</time>
      </trkpt>
      <trkpt lat="37.1011539549" lon="-1.8472583871">
        <ele>9.75</ele>
        <time>2018-11-06T14:56:29Z</time>
      </trkpt>
      <trkpt lat="37.1011814475" lon="-1.8472562078">
        <ele>9.75</ele>
        <time>2018-11-06T14:56:30Z</time>
      </trkpt>
      <trkpt lat="37.1012091078" lon="-1.8472562078">
        <ele>9.75</ele>
        <time>2018-11-06T14:56:31Z</time>
      </trkpt>
      <trkpt lat="37.1015245188" lon="-1.8472406175">
        <ele>9.27</ele>
        <time>2018-11-06T14:56:42Z</time>
      </trkpt>
      <trkpt lat="37.1019056439" lon="-1.8471855484">
        <ele>8.79</ele>
        <time>2018-11-06T14:56:53Z</time>
      </trkpt>
      <trkpt lat="37.1022896189" lon="-1.8471110333">
        <ele>7.35</ele>
        <time>2018-11-06T14:57:03Z</time>
      </trkpt>
      <trkpt lat="37.1026461851" lon="-1.8470293097">
        <ele>7.35</ele>
        <time>2018-11-06T14:57:12Z</time>
      </trkpt>
      <trkpt lat="37.1030363627" lon="-1.8469407968">
        <ele>7.83</ele>
        <time>2018-11-06T14:57:22Z</time>
      </trkpt>
      <trkpt lat="37.1034019813" lon="-1.8468613364">
        <ele>8.79</ele>
        <time>2018-11-06T14:57:31Z</time>
      </trkpt>
      <trkpt lat="37.1039720345" lon="-1.8467340991">
        <ele>9.75</ele>
        <time>2018-11-06T14:57:44Z</time>
      </trkpt>
      <trkpt lat="37.1044275071" lon="-1.8465875834">
        <ele>10.23</ele>
        <time>2018-11-06T14:57:55Z</time>
      </trkpt>
      <trkpt lat="37.1048356220" lon="-1.8464382179">
        <ele>10.71</ele>
        <time>2018-11-06T14:58:05Z</time>
      </trkpt>
      <trkpt lat="37.1053892467" lon="-1.8462336157">
        <ele>10.71</ele>
        <time>2018-11-06T14:58:19Z</time>
      </trkpt>
      <trkpt lat="37.1057039872" lon="-1.8461223878">
        <ele>9.75</ele>
        <time>2018-11-06T14:58:27Z</time>
      </trkpt>
      <trkpt lat="37.1062007826" lon="-1.8459603656">
        <ele>9.27</ele>
        <time>2018-11-06T14:58:37Z</time>
      </trkpt>
      <trkpt lat="37.1067777928" lon="-1.8457742035">
        <ele>8.31</ele>
        <time>2018-11-06T14:58:49Z</time>
      </trkpt>
      <trkpt lat="37.1072678827" lon="-1.8455931544">
        <ele>7.35</ele>
        <time>2018-11-06T14:58:59Z</time>
      </trkpt>
      <trkpt lat="37.1077537816" lon="-1.8454041425">
        <ele>6.39</ele>
        <time>2018-11-06T14:59:09Z</time>
      </trkpt>
      <trkpt lat="37.1077924222" lon="-1.8453971855">
        <ele>6.39</ele>
        <time>2018-11-06T14:59:10Z</time>
      </trkpt>
      <trkpt lat="37.1078311466" lon="-1.8454032205">
        <ele>5.91</ele>
        <time>2018-11-06T14:59:11Z</time>
      </trkpt>
      <trkpt lat="37.1078645065" lon="-1.8454247620">
        <ele>6.39</ele>
        <time>2018-11-06T14:59:12Z</time>
      </trkpt>
      <trkpt lat="37.1078928374" lon="-1.8454544339">
        <ele>5.91</ele>
        <time>2018-11-06T14:59:13Z</time>
      </trkpt>
      <trkpt lat="37.1079901513" lon="-1.8454879615">
        <ele>6.39</ele>
        <time>2018-11-06T14:59:16Z</time>
      </trkpt>
      <trkpt lat="37.1080248524" lon="-1.8454701081">
        <ele>5.91</ele>
        <time>2018-11-06T14:59:17Z</time>
      </trkpt>
      <trkpt lat="37.1080513392" lon="-1.8454401847">
        <ele>5.91</ele>
        <time>2018-11-06T14:59:18Z</time>
      </trkpt>
      <trkpt lat="37.1080696955" lon="-1.8453966826">
        <ele>5.42</ele>
        <time>2018-11-06T14:59:19Z</time>
      </trkpt>
      <trkpt lat="37.1080779098" lon="-1.8453483190">
        <ele>5.42</ele>
        <time>2018-11-06T14:59:20Z</time>
      </trkpt>
      <trkpt lat="37.1080867946" lon="-1.8453002069">
        <ele>5.42</ele>
        <time>2018-11-06T14:59:21Z</time>
      </trkpt>
      <trkpt lat="37.1081096772" lon="-1.8452582974">
        <ele>5.42</ele>
        <time>2018-11-06T14:59:22Z</time>
      </trkpt>
      <trkpt lat="37.1081478987" lon="-1.8452227581">
        <ele>5.42</ele>
        <time>2018-11-06T14:59:23Z</time>
      </trkpt>
      <trkpt lat="37.1081855334" lon="-1.8451987021">
        <ele>5.91</ele>
        <time>2018-11-06T14:59:24Z</time>
      </trkpt>
      <trkpt lat="37.1082170494" lon="-1.8451807648">
        <ele>5.91</ele>
        <time>2018-11-06T14:59:25Z</time>
      </trkpt>
      <trkpt lat="37.1085465420" lon="-1.8449725583">
        <ele>6.87</ele>
        <time>2018-11-06T14:59:35Z</time>
      </trkpt>
      <trkpt lat="37.1088643838" lon="-1.8447827082">
        <ele>7.35</ele>
        <time>2018-11-06T14:59:44Z</time>
      </trkpt>
      <trkpt lat="37.1092208661" lon="-1.8445904274">
        <ele>8.31</ele>
        <time>2018-11-06T14:59:54Z</time>
      </trkpt>
      <trkpt lat="37.1096183360" lon="-1.8443818018">
        <ele>9.75</ele>
        <time>2018-11-06T15:00:06Z</time>
      </trkpt>
      <trkpt lat="37.1097821184" lon="-1.8442445900">
        <ele>9.75</ele>
        <time>2018-11-06T15:00:13Z</time>
      </trkpt>
      <trkpt lat="37.1097869799" lon="-1.8442047760">
        <ele>9.27</ele>
        <time>2018-11-06T15:00:14Z</time>
      </trkpt>
      <trkpt lat="37.1097873151" lon="-1.8441652972">
        <ele>9.27</ele>
        <time>2018-11-06T15:00:15Z</time>
      </trkpt>
      <trkpt lat="37.1097889915" lon="-1.8441310152">
        <ele>9.27</ele>
        <time>2018-11-06T15:00:16Z</time>
      </trkpt>
      <trkpt lat="37.1097995527" lon="-1.8440818973">
        <ele>8.79</ele>
        <time>2018-11-06T15:00:17Z</time>
      </trkpt>
      <trkpt lat="37.1098283865" lon="-1.8440318573">
        <ele>8.79</ele>
        <time>2018-11-06T15:00:18Z</time>
      </trkpt>
      <trkpt lat="37.1098696254" lon="-1.8439907860">
        <ele>8.79</ele>
        <time>2018-11-06T15:00:19Z</time>
      </trkpt>
      <trkpt lat="37.1099020634" lon="-1.8439648859">
        <ele>8.79</ele>
        <time>2018-11-06T15:00:20Z</time>
      </trkpt>
      <trkpt lat="37.1099495050" lon="-1.8439319450">
        <ele>8.79</ele>
        <time>2018-11-06T15:00:21Z</time>
      </trkpt>
      <trkpt lat="37.1100750659" lon="-1.8438471202">
        <ele>8.79</ele>
        <time>2018-11-06T15:00:24Z</time>
      </trkpt>
      <trkpt lat="37.1101158857" lon="-1.8438178673">
        <ele>8.79</ele>
        <time>2018-11-06T15:00:25Z</time>
      </trkpt>
      <trkpt lat="37.1105616353" lon="-1.8435529154">
        <ele>9.75</ele>
        <time>2018-11-06T15:00:35Z</time>
      </trkpt>
      <trkpt lat="37.1109839156" lon="-1.8433095049">
        <ele>8.31</ele>
        <time>2018-11-06T15:00:46Z</time>
      </trkpt>
      <trkpt lat="37.1113683097" lon="-1.8430463132">
        <ele>6.87</ele>
        <time>2018-11-06T15:00:56Z</time>
      </trkpt>
      <trkpt lat="37.1118261293" lon="-1.8427257892">
        <ele>5.42</ele>
        <time>2018-11-06T15:01:09Z</time>
      </trkpt>
      <trkpt lat="37.1122875530" lon="-1.8424062710">
        <ele>4.94</ele>
        <time>2018-11-06T15:01:21Z</time>
      </trkpt>
      <trkpt lat="37.1125359926" lon="-1.8422838952">
        <ele>5.42</ele>
        <time>2018-11-06T15:01:27Z</time>
      </trkpt>
      <trkpt lat="37.1127493959" lon="-1.8421741761">
        <ele>5.91</ele>
        <time>2018-11-06T15:01:33Z</time>
      </trkpt>
      <trkpt lat="37.1128506493" lon="-1.8420018442">
        <ele>5.91</ele>
        <time>2018-11-06T15:01:38Z</time>
      </trkpt>
      <trkpt lat="37.1129593626" lon="-1.8416802306">
        <ele>6.39</ele>
        <time>2018-11-06T15:01:45Z</time>
      </trkpt>
      <trkpt lat="37.1129740309" lon="-1.8416343816">
        <ele>6.39</ele>
        <time>2018-11-06T15:01:46Z</time>
      </trkpt>
      <trkpt lat="37.1129955724" lon="-1.8415860180">
        <ele>6.39</ele>
        <time>2018-11-06T15:01:47Z</time>
      </trkpt>
      <trkpt lat="37.1130204666" lon="-1.8415468745">
        <ele>6.39</ele>
        <time>2018-11-06T15:01:48Z</time>
      </trkpt>
      <trkpt lat="37.1130518988" lon="-1.8415048812">
        <ele>6.39</ele>
        <time>2018-11-06T15:01:49Z</time>
      </trkpt>
      <trkpt lat="37.1130831633" lon="-1.8414681684">
        <ele>6.39</ele>
        <time>2018-11-06T15:01:50Z</time>
      </trkpt>
      <trkpt lat="37.1131161880" lon="-1.8414363172">
        <ele>6.39</ele>
        <time>2018-11-06T15:01:51Z</time>
      </trkpt>
      <trkpt lat="37.1131545771" lon="-1.8414085731">
        <ele>6.39</ele>
        <time>2018-11-06T15:01:52Z</time>
      </trkpt>
      <trkpt lat="37.1134144999" lon="-1.8411817588">
        <ele>6.87</ele>
        <time>2018-11-06T15:02:00Z</time>
      </trkpt>
      <trkpt lat="37.1137262229" lon="-1.8409369234">
        <ele>7.83</ele>
        <time>2018-11-06T15:02:09Z</time>
      </trkpt>
      <trkpt lat="37.1138416417" lon="-1.8408410344">
        <ele>7.83</ele>
        <time>2018-11-06T15:02:15Z</time>
      </trkpt>
      <trkpt lat="37.1138499398" lon="-1.8408540264">
        <ele>7.35</ele>
        <time>2018-11-06T15:02:20Z</time>
      </trkpt>
      <trkpt lat="37.1138634346" lon="-1.8408520147">
        <ele>7.35</ele>
        <time>2018-11-06T15:02:21Z</time>
      </trkpt>
      <trkpt lat="37.1138766780" lon="-1.8408425432">
        <ele>7.83</ele>
        <time>2018-11-06T15:02:22Z</time>
      </trkpt>
      <trkpt lat="37.1138906758" lon="-1.8408283778">
        <ele>7.83</ele>
        <time>2018-11-06T15:02:23Z</time>
      </trkpt>
      <trkpt lat="37.1139086969" lon="-1.8408131227">
        <ele>8.31</ele>
        <time>2018-11-06T15:02:24Z</time>
      </trkpt>
      <trkpt lat="37.1140867285" lon="-1.8406543694">
        <ele>8.79</ele>
        <time>2018-11-06T15:02:32Z</time>
      </trkpt>
      <trkpt lat="37.1142660175" lon="-1.8403399643">
        <ele>9.27</ele>
        <time>2018-11-06T15:02:44Z</time>
      </trkpt>
      <trkpt lat="37.1143857110" lon="-1.8400498666">
        <ele>8.79</ele>
        <time>2018-11-06T15:02:53Z</time>
      </trkpt>
      <trkpt lat="37.1145135351" lon="-1.8396824040">
        <ele>8.31</ele>
        <time>2018-11-06T15:03:03Z</time>
      </trkpt>
      <trkpt lat="37.1146758087" lon="-1.8395095691">
        <ele>8.31</ele>
        <time>2018-11-06T15:03:09Z</time>
      </trkpt>
      <trkpt lat="37.1148877870" lon="-1.8394407537">
        <ele>9.27</ele>
        <time>2018-11-06T15:03:17Z</time>
      </trkpt>
      <trkpt lat="37.1151487157" lon="-1.8393526599">
        <ele>10.23</ele>
        <time>2018-11-06T15:03:27Z</time>
      </trkpt>
      <trkpt lat="37.1153901983" lon="-1.8392799888">
        <ele>9.75</ele>
        <time>2018-11-06T15:03:36Z</time>
      </trkpt>
      <trkpt lat="37.1155252308" lon="-1.8392599560">
        <ele>10.71</ele>
        <time>2018-11-06T15:03:42Z</time>
      </trkpt>
      <trkpt lat="37.1155869216" lon="-1.8392253388">
        <ele>10.23</ele>
        <time>2018-11-06T15:03:49Z</time>
      </trkpt>
      <trkpt lat="37.1155806351" lon="-1.8392307870">
        <ele>9.27</ele>
        <time>2018-11-06T15:04:02Z</time>
      </trkpt>
      <trkpt lat="37.1155918669" lon="-1.8392267637">
        <ele>9.75</ele>
        <time>2018-11-06T15:04:27Z</time>
      </trkpt>
      <trkpt lat="37.1156061999" lon="-1.8392214831">
        <ele>9.75</ele>
        <time>2018-11-06T15:04:28Z</time>
      </trkpt>
      <trkpt lat="37.1156242210" lon="-1.8392115086">
        <ele>9.75</ele>
        <time>2018-11-06T15:04:29Z</time>
      </trkpt>
      <trkpt lat="37.1158025879" lon="-1.8390977662">
        <ele>8.31</ele>
        <time>2018-11-06T15:04:36Z</time>
      </trkpt>
      <trkpt lat="37.1160847228" lon="-1.8387819361">
        <ele>7.35</ele>
        <time>2018-11-06T15:04:46Z</time>
      </trkpt>
      <trkpt lat="37.1163580567" lon="-1.8384575564">
        <ele>6.87</ele>
        <time>2018-11-06T15:04:55Z</time>
      </trkpt>
      <trkpt lat="37.1164469048" lon="-1.8383460771">
        <ele>6.87</ele>
        <time>2018-11-06T15:04:58Z</time>
      </trkpt>
      <trkpt lat="37.1164734755" lon="-1.8383023236">
        <ele>6.87</ele>
        <time>2018-11-06T15:04:59Z</time>
      </trkpt>
      <trkpt lat="37.1164940111" lon="-1.8382545467">
        <ele>7.35</ele>
        <time>2018-11-06T15:05:00Z</time>
      </trkpt>
      <trkpt lat="37.1166427061" lon="-1.8377917819">
        <ele>7.83</ele>
        <time>2018-11-06T15:05:09Z</time>
      </trkpt>
      <trkpt lat="37.1168786567" lon="-1.8373381533">
        <ele>8.31</ele>
        <time>2018-11-06T15:05:19Z</time>
      </trkpt>
      <trkpt lat="37.1171680838" lon="-1.8369220756">
        <ele>8.31</ele>
        <time>2018-11-06T15:05:28Z</time>
      </trkpt>
      <trkpt lat="37.1173772123" lon="-1.8365085963">
        <ele>8.31</ele>
        <time>2018-11-06T15:05:37Z</time>
      </trkpt>
      <trkpt lat="37.1176203713" lon="-1.8360710610">
        <ele>8.31</ele>
        <time>2018-11-06T15:05:47Z</time>
      </trkpt>
      <trkpt lat="37.1179013327" lon="-1.8356750999">
        <ele>8.31</ele>
        <time>2018-11-06T15:05:56Z</time>
      </trkpt>
      <trkpt lat="37.1180204395" lon="-1.8355149217">
        <ele>7.83</ele>
        <time>2018-11-06T15:06:00Z</time>
      </trkpt>
      <trkpt lat="37.1183190867" lon="-1.8350857683">
        <ele>7.83</ele>
        <time>2018-11-06T15:06:09Z</time>
      </trkpt>
      <trkpt lat="37.1185174864" lon="-1.8348549306">
        <ele>7.35</ele>
        <time>2018-11-06T15:06:15Z</time>
      </trkpt>
      <trkpt lat="37.1186218411" lon="-1.8347594608">
        <ele>7.35</ele>
        <time>2018-11-06T15:06:18Z</time>
      </trkpt>
      <trkpt lat="37.1186475735" lon="-1.8347238377">
        <ele>7.35</ele>
        <time>2018-11-06T15:06:19Z</time>
      </trkpt>
      <trkpt lat="37.1186633315" lon="-1.8346862029">
        <ele>7.35</ele>
        <time>2018-11-06T15:06:20Z</time>
      </trkpt>
      <trkpt lat="37.1186722163" lon="-1.8346420303">
        <ele>7.35</ele>
        <time>2018-11-06T15:06:21Z</time>
      </trkpt>
      <trkpt lat="37.1186797600" lon="-1.8345949240">
        <ele>6.87</ele>
        <time>2018-11-06T15:06:22Z</time>
      </trkpt>
      <trkpt lat="37.1186918300" lon="-1.8345497455">
        <ele>6.87</ele>
        <time>2018-11-06T15:06:23Z</time>
      </trkpt>
      <trkpt lat="37.1187122818" lon="-1.8345075008">
        <ele>6.87</ele>
        <time>2018-11-06T15:06:24Z</time>
      </trkpt>
      <trkpt lat="37.1187397745" lon="-1.8344738055">
        <ele>6.39</ele>
        <time>2018-11-06T15:06:25Z</time>
      </trkpt>
      <trkpt lat="37.1187704522" lon="-1.8344513420">
        <ele>6.39</ele>
        <time>2018-11-06T15:06:26Z</time>
      </trkpt>
      <trkpt lat="37.1188001242" lon="-1.8344391044">
        <ele>6.39</ele>
        <time>2018-11-06T15:06:27Z</time>
      </trkpt>
      <trkpt lat="37.1188295446" lon="-1.8344275374">
        <ele>6.87</ele>
        <time>2018-11-06T15:06:28Z</time>
      </trkpt>
      <trkpt lat="37.1188587137" lon="-1.8344134558">
        <ele>6.87</ele>
        <time>2018-11-06T15:06:29Z</time>
      </trkpt>
      <trkpt lat="37.1188886371" lon="-1.8343932554">
        <ele>6.87</ele>
        <time>2018-11-06T15:06:30Z</time>
      </trkpt>
      <trkpt lat="37.1189190634" lon="-1.8343706243">
        <ele>6.87</ele>
        <time>2018-11-06T15:06:31Z</time>
      </trkpt>
      <trkpt lat="37.1191742923" lon="-1.8342006393">
        <ele>5.91</ele>
        <time>2018-11-06T15:06:37Z</time>
      </trkpt>
      <trkpt lat="37.1194070578" lon="-1.8341120426">
        <ele>6.87</ele>
        <time>2018-11-06T15:06:42Z</time>
      </trkpt>
      <trkpt lat="37.1195448563" lon="-1.8340926804">
        <ele>7.35</ele>
        <time>2018-11-06T15:06:45Z</time>
      </trkpt>
      <trkpt lat="37.1195862629" lon="-1.8340941053">
        <ele>7.83</ele>
        <time>2018-11-06T15:06:46Z</time>
      </trkpt>
      <trkpt lat="37.1196282562" lon="-1.8341019005">
        <ele>7.83</ele>
        <time>2018-11-06T15:06:47Z</time>
      </trkpt>
      <trkpt lat="37.1197282523" lon="-1.8341031577">
        <ele>8.79</ele>
        <time>2018-11-06T15:06:50Z</time>
      </trkpt>
      <trkpt lat="37.1197524760" lon="-1.8340936024">
        <ele>9.27</ele>
        <time>2018-11-06T15:06:51Z</time>
      </trkpt>
      <trkpt lat="37.1197801363" lon="-1.8340839632">
        <ele>9.27</ele>
        <time>2018-11-06T15:06:52Z</time>
      </trkpt>
      <trkpt lat="37.1200300008" lon="-1.8339847215">
        <ele>10.23</ele>
        <time>2018-11-06T15:06:59Z</time>
      </trkpt>
      <trkpt lat="37.1203571465" lon="-1.8338460010">
        <ele>10.71</ele>
        <time>2018-11-06T15:07:09Z</time>
      </trkpt>
      <trkpt lat="37.1205927618" lon="-1.8337564822">
        <ele>10.71</ele>
        <time>2018-11-06T15:07:17Z</time>
      </trkpt>
      <trkpt lat="37.1207540296" lon="-1.8336693104">
        <ele>10.71</ele>
        <time>2018-11-06T15:07:22Z</time>
      </trkpt>
      <trkpt lat="37.1207959391" lon="-1.8336615991">
        <ele>10.23</ele>
        <time>2018-11-06T15:07:23Z</time>
      </trkpt>
      <trkpt lat="37.1209390182" lon="-1.8336351123">
        <ele>10.71</ele>
        <time>2018-11-06T15:07:26Z</time>
      </trkpt>
      <trkpt lat="37.1209852025" lon="-1.8336197734">
        <ele>10.71</ele>
        <time>2018-11-06T15:07:27Z</time>
      </trkpt>
      <trkpt lat="37.1213574428" lon="-1.8334808014">
        <ele>10.23</ele>
        <time>2018-11-06T15:07:36Z</time>
      </trkpt>
      <trkpt lat="37.1218301822" lon="-1.8333127443">
        <ele>10.23</ele>
        <time>2018-11-06T15:07:46Z</time>
      </trkpt>
      <trkpt lat="37.1220761072" lon="-1.8332261592">
        <ele>9.75</ele>
        <time>2018-11-06T15:07:51Z</time>
      </trkpt>
      <trkpt lat="37.1222157497" lon="-1.8331558350">
        <ele>9.75</ele>
        <time>2018-11-06T15:07:54Z</time>
      </trkpt>
      <trkpt lat="37.1226332523" lon="-1.8329958245">
        <ele>8.79</ele>
        <time>2018-11-06T15:08:03Z</time>
      </trkpt>
      <trkpt lat="37.1228422131" lon="-1.8329115864">
        <ele>8.31</ele>
        <time>2018-11-06T15:08:09Z</time>
      </trkpt>
      <trkpt lat="37.1231640782" lon="-1.8327891268">
        <ele>8.31</ele>
        <time>2018-11-06T15:08:18Z</time>
      </trkpt>
      <trkpt lat="37.1235540882" lon="-1.8327307049">
        <ele>9.27</ele>
        <time>2018-11-06T15:08:30Z</time>
      </trkpt>
      <trkpt lat="37.1239112411" lon="-1.8327237479">
        <ele>9.75</ele>
        <time>2018-11-06T15:08:41Z</time>
      </trkpt>
      <trkpt lat="37.1241372172" lon="-1.8327158689">
        <ele>10.23</ele>
        <time>2018-11-06T15:08:48Z</time>
      </trkpt>
      <trkpt lat="37.1243315935" lon="-1.8327188864">
        <ele>9.75</ele>
        <time>2018-11-06T15:08:54Z</time>
      </trkpt>
      <trkpt lat="37.1244010795" lon="-1.8326692656">
        <ele>9.27</ele>
        <time>2018-11-06T15:08:57Z</time>
      </trkpt>
      <trkpt lat="37.1244271472" lon="-1.8326703552">
        <ele>8.79</ele>
        <time>2018-11-06T15:08:58Z</time>
      </trkpt>
      <trkpt lat="37.1244519576" lon="-1.8326812517">
        <ele>8.79</ele>
        <time>2018-11-06T15:08:59Z</time>
      </trkpt>
      <trkpt lat="37.1244771872" lon="-1.8326969258">
        <ele>8.79</ele>
        <time>2018-11-06T15:09:00Z</time>
      </trkpt>
      <trkpt lat="37.1245059371" lon="-1.8327094987">
        <ele>8.31</ele>
        <time>2018-11-06T15:09:01Z</time>
      </trkpt>
      <trkpt lat="37.1245407220" lon="-1.8327181321">
        <ele>7.83</ele>
        <time>2018-11-06T15:09:02Z</time>
      </trkpt>
      <trkpt lat="37.1246211883" lon="-1.8327358179">
        <ele>7.35</ele>
        <time>2018-11-06T15:09:04Z</time>
      </trkpt>
      <trkpt lat="37.1246680431" lon="-1.8327369075">
        <ele>7.35</ele>
        <time>2018-11-06T15:09:05Z</time>
      </trkpt>
      <trkpt lat="37.1247161552" lon="-1.8327271007">
        <ele>7.35</ele>
        <time>2018-11-06T15:09:06Z</time>
      </trkpt>
      <trkpt lat="37.1247626748" lon="-1.8327096663">
        <ele>6.87</ele>
        <time>2018-11-06T15:09:07Z</time>
      </trkpt>
      <trkpt lat="37.1248074342" lon="-1.8326893821">
        <ele>6.87</ele>
        <time>2018-11-06T15:09:08Z</time>
      </trkpt>
      <trkpt lat="37.1251757350" lon="-1.8325304613">
        <ele>5.91</ele>
        <time>2018-11-06T15:09:16Z</time>
      </trkpt>
      <trkpt lat="37.1257286053" lon="-1.8323005456">
        <ele>6.87</ele>
        <time>2018-11-06T15:09:28Z</time>
      </trkpt>
      <trkpt lat="37.1260516439" lon="-1.8322018906">
        <ele>8.79</ele>
        <time>2018-11-06T15:09:36Z</time>
      </trkpt>
      <trkpt lat="37.1260905359" lon="-1.8321981188">
        <ele>9.27</ele>
        <time>2018-11-06T15:09:37Z</time>
      </trkpt>
      <trkpt lat="37.1261302661" lon="-1.8321950175">
        <ele>9.75</ele>
        <time>2018-11-06T15:09:38Z</time>
      </trkpt>
      <trkpt lat="37.1262174379" lon="-1.8321945146">
        <ele>10.71</ele>
        <time>2018-11-06T15:09:40Z</time>
      </trkpt>
      <trkpt lat="37.1263010055" lon="-1.8322033156">
        <ele>11.19</ele>
        <time>2018-11-06T15:09:42Z</time>
      </trkpt>
      <trkpt lat="37.1267398819" lon="-1.8322701193">
        <ele>12.15</ele>
        <time>2018-11-06T15:09:52Z</time>
      </trkpt>
      <trkpt lat="37.1271270420" lon="-1.8322078418">
        <ele>11.67</ele>
        <time>2018-11-06T15:10:00Z</time>
      </trkpt>
      <trkpt lat="37.1276826784" lon="-1.8320407905">
        <ele>9.75</ele>
        <time>2018-11-06T15:10:10Z</time>
      </trkpt>
      <trkpt lat="37.1284015942" lon="-1.8318174966">
        <ele>8.31</ele>
        <time>2018-11-06T15:10:22Z</time>
      </trkpt>
      <trkpt lat="37.1284616925" lon="-1.8317880761">
        <ele>8.31</ele>
        <time>2018-11-06T15:10:23Z</time>
      </trkpt>
      <trkpt lat="37.1285113972" lon="-1.8317573145">
        <ele>8.31</ele>
        <time>2018-11-06T15:10:24Z</time>
      </trkpt>
      <trkpt lat="37.1287528798" lon="-1.8315600883">
        <ele>8.31</ele>
        <time>2018-11-06T15:10:31Z</time>
      </trkpt>
      <trkpt lat="37.1290203463" lon="-1.8313102238">
        <ele>6.87</ele>
        <time>2018-11-06T15:10:40Z</time>
      </trkpt>
      <trkpt lat="37.1293490846" lon="-1.8310183659">
        <ele>5.42</ele>
        <time>2018-11-06T15:10:50Z</time>
      </trkpt>
      <trkpt lat="37.1293847915" lon="-1.8309886102">
        <ele>5.42</ele>
        <time>2018-11-06T15:10:51Z</time>
      </trkpt>
      <trkpt lat="37.1296838578" lon="-1.8308066390">
        <ele>4.94</ele>
        <time>2018-11-06T15:10:59Z</time>
      </trkpt>
      <trkpt lat="37.1300958283" lon="-1.8307163659">
        <ele>4.46</ele>
        <time>2018-11-06T15:11:08Z</time>
      </trkpt>
      <trkpt lat="37.1305325255" lon="-1.8306318764">
        <ele>4.94</ele>
        <time>2018-11-06T15:11:17Z</time>
      </trkpt>
      <trkpt lat="37.1306215413" lon="-1.8306095805">
        <ele>5.42</ele>
        <time>2018-11-06T15:11:19Z</time>
      </trkpt>
      <trkpt lat="37.1306641214" lon="-1.8305890448">
        <ele>5.42</ele>
        <time>2018-11-06T15:11:20Z</time>
      </trkpt>
      <trkpt lat="37.1308154147" lon="-1.8305018730">
        <ele>4.94</ele>
        <time>2018-11-06T15:11:24Z</time>
      </trkpt>
      <trkpt lat="37.1308595873" lon="-1.8304994423">
        <ele>4.94</ele>
        <time>2018-11-06T15:11:25Z</time>
      </trkpt>
      <trkpt lat="37.1309048496" lon="-1.8305084947">
        <ele>4.94</ele>
        <time>2018-11-06T15:11:26Z</time>
      </trkpt>
      <trkpt lat="37.1310009900" lon="-1.8305332214">
        <ele>4.94</ele>
        <time>2018-11-06T15:11:28Z</time>
      </trkpt>
      <trkpt lat="37.1310506109" lon="-1.8305343110">
        <ele>4.94</ele>
        <time>2018-11-06T15:11:29Z</time>
      </trkpt>
      <trkpt lat="37.1315091010" lon="-1.8304421101">
        <ele>5.91</ele>
        <time>2018-11-06T15:11:39Z</time>
      </trkpt>
      <trkpt lat="37.1319252625" lon="-1.8303595483">
        <ele>6.39</ele>
        <time>2018-11-06T15:11:49Z</time>
      </trkpt>
      <trkpt lat="37.1324259136" lon="-1.8302630726">
        <ele>7.35</ele>
        <time>2018-11-06T15:12:00Z</time>
      </trkpt>
      <trkpt lat="37.1328663826" lon="-1.8301837798">
        <ele>7.83</ele>
        <time>2018-11-06T15:12:10Z</time>
      </trkpt>
      <trkpt lat="37.1333261300" lon="-1.8301184848">
        <ele>8.31</ele>
        <time>2018-11-06T15:12:20Z</time>
      </trkpt>
      <trkpt lat="37.1338023897" lon="-1.8300471548">
        <ele>7.35</ele>
        <time>2018-11-06T15:12:31Z</time>
      </trkpt>
      <trkpt lat="37.1342399251" lon="-1.8299626652">
        <ele>7.83</ele>
        <time>2018-11-06T15:12:41Z</time>
      </trkpt>
      <trkpt lat="37.1346564218" lon="-1.8298426364">
        <ele>8.79</ele>
        <time>2018-11-06T15:12:51Z</time>
      </trkpt>
      <trkpt lat="37.1346960682" lon="-1.8298155628">
        <ele>8.79</ele>
        <time>2018-11-06T15:12:52Z</time>
      </trkpt>
      <trkpt lat="37.1350021753" lon="-1.8295803666">
        <ele>8.31</ele>
        <time>2018-11-06T15:13:00Z</time>
      </trkpt>
      <trkpt lat="37.1350348648" lon="-1.8295466714">
        <ele>7.83</ele>
        <time>2018-11-06T15:13:01Z</time>
      </trkpt>
      <trkpt lat="37.1353138983" lon="-1.8293108884">
        <ele>6.87</ele>
        <time>2018-11-06T15:13:09Z</time>
      </trkpt>
      <trkpt lat="37.1356878150" lon="-1.8291518837">
        <ele>5.91</ele>
        <time>2018-11-06T15:13:19Z</time>
      </trkpt>
      <trkpt lat="37.1360426210" lon="-1.8290359620">
        <ele>5.42</ele>
        <time>2018-11-06T15:13:27Z</time>
      </trkpt>
      <trkpt lat="37.1365568507" lon="-1.8289110716">
        <ele>4.94</ele>
        <time>2018-11-06T15:13:38Z</time>
      </trkpt>
      <trkpt lat="37.1370468568" lon="-1.8288305216">
        <ele>5.42</ele>
        <time>2018-11-06T15:13:48Z</time>
      </trkpt>
      <trkpt lat="37.1376261301" lon="-1.8287377339">
        <ele>5.91</ele>
        <time>2018-11-06T15:13:59Z</time>
      </trkpt>
      <trkpt lat="37.1382215805" lon="-1.8286343850">
        <ele>6.87</ele>
        <time>2018-11-06T15:14:12Z</time>
      </trkpt>
      <trkpt lat="37.1386645641" lon="-1.8285603728">
        <ele>7.35</ele>
        <time>2018-11-06T15:14:21Z</time>
      </trkpt>
      <trkpt lat="37.1392942965" lon="-1.8284500670">
        <ele>6.87</ele>
        <time>2018-11-06T15:14:33Z</time>
      </trkpt>
      <trkpt lat="37.1396369487" lon="-1.8284028769">
        <ele>6.87</ele>
        <time>2018-11-06T15:14:39Z</time>
      </trkpt>
      <trkpt lat="37.1396926045" lon="-1.8284044694">
        <ele>7.35</ele>
        <time>2018-11-06T15:14:40Z</time>
      </trkpt>
      <trkpt lat="37.1397469193" lon="-1.8284107558">
        <ele>7.35</ele>
        <time>2018-11-06T15:14:41Z</time>
      </trkpt>
      <trkpt lat="37.1402028948" lon="-1.8285290245">
        <ele>7.35</ele>
        <time>2018-11-06T15:14:50Z</time>
      </trkpt>
      <trkpt lat="37.1402562875" lon="-1.8285321258">
        <ele>6.87</ele>
        <time>2018-11-06T15:14:51Z</time>
      </trkpt>
      <trkpt lat="37.1403108537" lon="-1.8285289407">
        <ele>7.35</ele>
        <time>2018-11-06T15:14:52Z</time>
      </trkpt>
      <trkpt lat="37.1407680027" lon="-1.8284168746">
        <ele>6.87</ele>
        <time>2018-11-06T15:15:00Z</time>
      </trkpt>
      <trkpt lat="37.1414611861" lon="-1.8281030562">
        <ele>5.91</ele>
        <time>2018-11-06T15:15:13Z</time>
      </trkpt>
      <trkpt lat="37.1416097973" lon="-1.8280482385">
        <ele>5.91</ele>
        <time>2018-11-06T15:15:16Z</time>
      </trkpt>
      <trkpt lat="37.1416551434" lon="-1.8280225061">
        <ele>5.91</ele>
        <time>2018-11-06T15:15:17Z</time>
      </trkpt>
      <trkpt lat="37.1416983940" lon="-1.8279901519">
        <ele>5.91</ele>
        <time>2018-11-06T15:15:18Z</time>
      </trkpt>
      <trkpt lat="37.1417357773" lon="-1.8279519305">
        <ele>5.91</ele>
        <time>2018-11-06T15:15:19Z</time>
      </trkpt>
      <trkpt lat="37.1417743340" lon="-1.8279096019">
        <ele>5.91</ele>
        <time>2018-11-06T15:15:20Z</time>
      </trkpt>
      <trkpt lat="37.1418154053" lon="-1.8278754875">
        <ele>5.91</ele>
        <time>2018-11-06T15:15:21Z</time>
      </trkpt>
      <trkpt lat="37.1418630145" lon="-1.8278479110">
        <ele>5.42</ele>
        <time>2018-11-06T15:15:22Z</time>
      </trkpt>
      <trkpt lat="37.1419151500" lon="-1.8278271239">
        <ele>5.42</ele>
        <time>2018-11-06T15:15:23Z</time>
      </trkpt>
      <trkpt lat="37.1419677883" lon="-1.8278127071">
        <ele>5.42</ele>
        <time>2018-11-06T15:15:24Z</time>
      </trkpt>
      <trkpt lat="37.1420235280" lon="-1.8277972005">
        <ele>5.91</ele>
        <time>2018-11-06T15:15:25Z</time>
      </trkpt>
      <trkpt lat="37.1420743223" lon="-1.8277727254">
        <ele>5.91</ele>
        <time>2018-11-06T15:15:26Z</time>
      </trkpt>
      <trkpt lat="37.1421232726" lon="-1.8277375214">
        <ele>5.91</ele>
        <time>2018-11-06T15:15:27Z</time>
      </trkpt>
      <trkpt lat="37.1421680320" lon="-1.8277013116">
        <ele>5.91</ele>
        <time>2018-11-06T15:15:28Z</time>
      </trkpt>
      <trkpt lat="37.1427209862" lon="-1.8273201864">
        <ele>5.42</ele>
        <time>2018-11-06T15:15:40Z</time>
      </trkpt>
      <trkpt lat="37.1432099864" lon="-1.8270145822">
        <ele>4.94</ele>
        <time>2018-11-06T15:15:51Z</time>
      </trkpt>
      <trkpt lat="37.1436071210" lon="-1.8267675675">
        <ele>4.46</ele>
        <time>2018-11-06T15:16:00Z</time>
      </trkpt>
      <trkpt lat="37.1440723166" lon="-1.8264978379">
        <ele>4.46</ele>
        <time>2018-11-06T15:16:10Z</time>
      </trkpt>
      <trkpt lat="37.1445687767" lon="-1.8263084907">
        <ele>4.94</ele>
        <time>2018-11-06T15:16:20Z</time>
      </trkpt>
      <trkpt lat="37.1451532468" lon="-1.8261157908">
        <ele>5.42</ele>
        <time>2018-11-06T15:16:31Z</time>
      </trkpt>
      <trkpt lat="37.1456655487" lon="-1.8259446323">
        <ele>6.39</ele>
        <time>2018-11-06T15:16:41Z</time>
      </trkpt>
      <trkpt lat="37.1462188382" lon="-1.8257626612">
        <ele>6.87</ele>
        <time>2018-11-06T15:16:51Z</time>
      </trkpt>
      <trkpt lat="37.1468577906" lon="-1.8255442288">
        <ele>7.35</ele>
        <time>2018-11-06T15:17:02Z</time>
      </trkpt>
      <trkpt lat="37.1473318711" lon="-1.8253659457">
        <ele>7.35</ele>
        <time>2018-11-06T15:17:11Z</time>
      </trkpt>
      <trkpt lat="37.1478324383" lon="-1.8252781872">
        <ele>7.83</ele>
        <time>2018-11-06T15:17:21Z</time>
      </trkpt>
      <trkpt lat="37.1480632760" lon="-1.8252714816">
        <ele>7.35</ele>
        <time>2018-11-06T15:17:26Z</time>
      </trkpt>
      <trkpt lat="37.1484894119" lon="-1.8252196815">
        <ele>8.31</ele>
        <time>2018-11-06T15:17:35Z</time>
      </trkpt>
      <trkpt lat="37.1488489956" lon="-1.8251687195">
        <ele>8.79</ele>
        <time>2018-11-06T15:17:43Z</time>
      </trkpt>
      <trkpt lat="37.1488920785" lon="-1.8251667079">
        <ele>8.79</ele>
        <time>2018-11-06T15:17:44Z</time>
      </trkpt>
      <trkpt lat="37.1493456233" lon="-1.8251044303">
        <ele>8.79</ele>
        <time>2018-11-06T15:17:54Z</time>
      </trkpt>
      <trkpt lat="37.1498312708" lon="-1.8250390515">
        <ele>8.79</ele>
        <time>2018-11-06T15:18:03Z</time>
      </trkpt>
      <trkpt lat="37.1501849033" lon="-1.8250643648">
        <ele>9.27</ele>
        <time>2018-11-06T15:18:10Z</time>
      </trkpt>
      <trkpt lat="37.1503602527" lon="-1.8251534645">
        <ele>9.75</ele>
        <time>2018-11-06T15:18:14Z</time>
      </trkpt>
      <trkpt lat="37.1505789366" lon="-1.8252936099">
        <ele>9.27</ele>
        <time>2018-11-06T15:18:20Z</time>
      </trkpt>
      <trkpt lat="37.1506241988" lon="-1.8252952024">
        <ele>9.27</ele>
        <time>2018-11-06T15:18:21Z</time>
      </trkpt>
      <trkpt lat="37.1507632546" lon="-1.8253120501">
        <ele>8.79</ele>
        <time>2018-11-06T15:18:24Z</time>
      </trkpt>
      <trkpt lat="37.1508031525" lon="-1.8253408000">
        <ele>8.79</ele>
        <time>2018-11-06T15:18:25Z</time>
      </trkpt>
      <trkpt lat="37.1508395299" lon="-1.8253809493">
        <ele>8.79</ele>
        <time>2018-11-06T15:18:26Z</time>
      </trkpt>
      <trkpt lat="37.1510721277" lon="-1.8257027306">
        <ele>7.83</ele>
        <time>2018-11-06T15:18:33Z</time>
      </trkpt>
      <trkpt lat="37.1511746384" lon="-1.8259254377">
        <ele>7.83</ele>
        <time>2018-11-06T15:18:37Z</time>
      </trkpt>
      <trkpt lat="37.1512131952" lon="-1.8259813450">
        <ele>7.83</ele>
        <time>2018-11-06T15:18:38Z</time>
      </trkpt>
      <trkpt lat="37.1512435377" lon="-1.8260165490">
        <ele>7.83</ele>
        <time>2018-11-06T15:18:39Z</time>
      </trkpt>
      <trkpt lat="37.1512767300" lon="-1.8260477297">
        <ele>7.83</ele>
        <time>2018-11-06T15:18:40Z</time>
      </trkpt>
      <trkpt lat="37.1513171308" lon="-1.8260785751">
        <ele>7.35</ele>
        <time>2018-11-06T15:18:41Z</time>
      </trkpt>
      <trkpt lat="37.1513675060" lon="-1.8261069898">
        <ele>7.35</ele>
        <time>2018-11-06T15:18:42Z</time>
      </trkpt>
      <trkpt lat="37.1514216531" lon="-1.8261262681">
        <ele>7.35</ele>
        <time>2018-11-06T15:18:43Z</time>
      </trkpt>
      <trkpt lat="37.1514841821" lon="-1.8261376675">
        <ele>7.35</ele>
        <time>2018-11-06T15:18:44Z</time>
      </trkpt>
      <trkpt lat="37.1515451185" lon="-1.8261437863">
        <ele>7.35</ele>
        <time>2018-11-06T15:18:45Z</time>
      </trkpt>
      <trkpt lat="37.1520744357" lon="-1.8261904735">
        <ele>8.79</ele>
        <time>2018-11-06T15:18:54Z</time>
      </trkpt>
      <trkpt lat="37.1521253977" lon="-1.8261964247">
        <ele>9.27</ele>
        <time>2018-11-06T15:18:55Z</time>
      </trkpt>
      <trkpt lat="37.1521742642" lon="-1.8261949997">
        <ele>9.75</ele>
        <time>2018-11-06T15:18:56Z</time>
      </trkpt>
      <trkpt lat="37.1526346821" lon="-1.8261980172">
        <ele>10.23</ele>
        <time>2018-11-06T15:19:05Z</time>
      </trkpt>
      <trkpt lat="37.1530313976" lon="-1.8261063192">
        <ele>10.23</ele>
        <time>2018-11-06T15:19:13Z</time>
      </trkpt>
      <trkpt lat="37.1535808314" lon="-1.8259062432">
        <ele>10.71</ele>
        <time>2018-11-06T15:19:24Z</time>
      </trkpt>
      <trkpt lat="37.1542046964" lon="-1.8256686162">
        <ele>10.23</ele>
        <time>2018-11-06T15:19:36Z</time>
      </trkpt>
      <trkpt lat="37.1548763383" lon="-1.8254213501">
        <ele>9.75</ele>
        <time>2018-11-06T15:19:48Z</time>
      </trkpt>
      <trkpt lat="37.1555392630" lon="-1.8251658697">
        <ele>10.71</ele>
        <time>2018-11-06T15:20:00Z</time>
      </trkpt>
      <trkpt lat="37.1561849210" lon="-1.8249206990">
        <ele>9.75</ele>
        <time>2018-11-06T15:20:13Z</time>
      </trkpt>
      <trkpt lat="37.1567867417" lon="-1.8246905319">
        <ele>8.79</ele>
        <time>2018-11-06T15:20:25Z</time>
      </trkpt>
      <trkpt lat="37.1570989676" lon="-1.8245807290">
        <ele>8.79</ele>
        <time>2018-11-06T15:20:33Z</time>
      </trkpt>
      <trkpt lat="37.1573846228" lon="-1.8244838342">
        <ele>8.79</ele>
        <time>2018-11-06T15:20:42Z</time>
      </trkpt>
      <trkpt lat="37.1574548632" lon="-1.8244638853">
        <ele>8.79</ele>
        <time>2018-11-06T15:20:47Z</time>
      </trkpt>
      <trkpt lat="37.1574471518" lon="-1.8244648073">
        <ele>9.75</ele>
        <time>2018-11-06T15:20:57Z</time>
      </trkpt>
      <trkpt lat="37.1574551146" lon="-1.8244768772">
        <ele>9.75</ele>
        <time>2018-11-06T15:20:58Z</time>
      </trkpt>
      <trkpt lat="37.1574643347" lon="-1.8244940601">
        <ele>9.75</ele>
        <time>2018-11-06T15:20:59Z</time>
      </trkpt>
      <trkpt lat="37.1574769914" lon="-1.8245128356">
        <ele>10.23</ele>
        <time>2018-11-06T15:21:00Z</time>
      </trkpt>
      <trkpt lat="37.1574950125" lon="-1.8245415017">
        <ele>10.23</ele>
        <time>2018-11-06T15:21:01Z</time>
      </trkpt>
      <trkpt lat="37.1575074177" lon="-1.8245619535">
        <ele>10.23</ele>
        <time>2018-11-06T15:21:02Z</time>
      </trkpt>
      <trkpt lat="37.1575199068" lon="-1.8245977443">
        <ele>10.23</ele>
        <time>2018-11-06T15:21:03Z</time>
      </trkpt>
      <trkpt lat="37.1575210802" lon="-1.8246386480">
        <ele>10.23</ele>
        <time>2018-11-06T15:21:04Z</time>
      </trkpt>
      <trkpt lat="37.1575108543" lon="-1.8246774562">
        <ele>10.23</ele>
        <time>2018-11-06T15:21:05Z</time>
      </trkpt>
      <trkpt lat="37.1574633289" lon="-1.8249334395">
        <ele>10.23</ele>
        <time>2018-11-06T15:21:11Z</time>
      </trkpt>
      <trkpt lat="37.1574583836" lon="-1.8252092041">
        <ele>10.71</ele>
        <time>2018-11-06T15:21:18Z</time>
      </trkpt>
      <trkpt lat="37.1574679390" lon="-1.8254493456">
        <ele>10.23</ele>
        <time>2018-11-06T15:21:26Z</time>
      </trkpt>
      <trkpt lat="37.1574842837" lon="-1.8257863820">
        <ele>10.23</ele>
        <time>2018-11-06T15:21:36Z</time>
      </trkpt>
      <trkpt lat="37.1575018018" lon="-1.8261330575">
        <ele>11.19</ele>
        <time>2018-11-06T15:21:46Z</time>
      </trkpt>
      <trkpt lat="37.1574839484" lon="-1.8264390808">
        <ele>12.15</ele>
        <time>2018-11-06T15:21:55Z</time>
      </trkpt>
      <trkpt lat="37.1574268676" lon="-1.8265346345">
        <ele>11.19</ele>
        <time>2018-11-06T15:21:59Z</time>
      </trkpt>
      <trkpt lat="37.1574234311" lon="-1.8265625462">
        <ele>10.71</ele>
        <time>2018-11-06T15:22:00Z</time>
      </trkpt>
      <trkpt lat="37.1574169770" lon="-1.8266278412">
        <ele>10.23</ele>
        <time>2018-11-06T15:22:03Z</time>
      </trkpt>
      <trkpt lat="37.1574132890" lon="-1.8266474549">
        <ele>10.71</ele>
        <time>2018-11-06T15:22:04Z</time>
      </trkpt>
      <trkpt lat="37.1574023087" lon="-1.8266598601">
        <ele>10.71</ele>
        <time>2018-11-06T15:22:05Z</time>
      </trkpt>
      <trkpt lat="37.1573872212" lon="-1.8266633805">
        <ele>11.19</ele>
        <time>2018-11-06T15:22:06Z</time>
      </trkpt>
      <trkpt lat="37.1573522687" lon="-1.8266535737">
        <ele>12.15</ele>
        <time>2018-11-06T15:22:09Z</time>
      </trkpt>
      <trkpt lat="37.1573102754" lon="-1.8266068026">
        <ele>12.63</ele>
        <time>2018-11-06T15:22:18Z</time>
      </trkpt>
      <trkpt lat="37.1572804358" lon="-1.8266028631">
        <ele>13.60</ele>
        <time>2018-11-06T15:22:26Z</time>
      </trkpt>
      <trkpt lat="37.1572801843" lon="-1.8266169447">
        <ele>16.00</ele>
        <time>2018-11-06T15:22:42Z</time>
      </trkpt>
      <trkpt lat="37.1572102793" lon="-1.8268622831">
        <ele>-0.82</ele>
        <time>2018-11-08T07:02:00Z</time>
      </trkpt>
      <trkpt lat="37.1574111935" lon="-1.8267119117">
        <ele>20.32</ele>
        <time>2018-11-08T07:02:20Z</time>
      </trkpt>
      <trkpt lat="37.1574273705" lon="-1.8266966566">
        <ele>23.21</ele>
        <time>2018-11-08T07:02:38Z</time>
      </trkpt>
      <trkpt lat="37.1574439667" lon="-1.8266436830">
        <ele>23.69</ele>
        <time>2018-11-08T07:02:42Z</time>
      </trkpt>
      <trkpt lat="37.1574551146" lon="-1.8265463691">
        <ele>24.65</ele>
        <time>2018-11-08T07:02:46Z</time>
      </trkpt>
      <trkpt lat="37.1574676875" lon="-1.8265270069">
        <ele>24.65</ele>
        <time>2018-11-08T07:02:47Z</time>
      </trkpt>
      <trkpt lat="37.1574749798" lon="-1.8265018612">
        <ele>25.13</ele>
        <time>2018-11-08T07:02:48Z</time>
      </trkpt>
      <trkpt lat="37.1574805118" lon="-1.8264730275">
        <ele>25.13</ele>
        <time>2018-11-08T07:02:49Z</time>
      </trkpt>
      <trkpt lat="37.1574842837" lon="-1.8264446128">
        <ele>25.13</ele>
        <time>2018-11-08T07:02:50Z</time>
      </trkpt>
      <trkpt lat="37.1574846189" lon="-1.8264146056">
        <ele>25.13</ele>
        <time>2018-11-08T07:02:51Z</time>
      </trkpt>
      <trkpt lat="37.1574817691" lon="-1.8263829220">
        <ele>25.13</ele>
        <time>2018-11-08T07:02:52Z</time>
      </trkpt>
      <trkpt lat="37.1574566234" lon="-1.8260846939">
        <ele>24.17</ele>
        <time>2018-11-08T07:02:59Z</time>
      </trkpt>
      <trkpt lat="37.1574473195" lon="-1.8256604020">
        <ele>21.77</ele>
        <time>2018-11-08T07:03:07Z</time>
      </trkpt>
      <trkpt lat="37.1574160550" lon="-1.8251652829">
        <ele>17.92</ele>
        <time>2018-11-08T07:03:16Z</time>
      </trkpt>
      <trkpt lat="37.1573379356" lon="-1.8248496205">
        <ele>15.04</ele>
        <time>2018-11-08T07:03:21Z</time>
      </trkpt>
      <trkpt lat="37.1573090181" lon="-1.8247967307">
        <ele>14.56</ele>
        <time>2018-11-08T07:03:22Z</time>
      </trkpt>
      <trkpt lat="37.1572761610" lon="-1.8247625325">
        <ele>14.08</ele>
        <time>2018-11-08T07:03:23Z</time>
      </trkpt>
      <trkpt lat="37.1572412923" lon="-1.8247404881">
        <ele>13.60</ele>
        <time>2018-11-08T07:03:24Z</time>
      </trkpt>
      <trkpt lat="37.1572016459" lon="-1.8247299269">
        <ele>13.12</ele>
        <time>2018-11-08T07:03:25Z</time>
      </trkpt>
      <trkpt lat="37.1571673639" lon="-1.8247319385">
        <ele>13.12</ele>
        <time>2018-11-08T07:03:26Z</time>
      </trkpt>
      <trkpt lat="37.1571316570" lon="-1.8247405719">
        <ele>13.12</ele>
        <time>2018-11-08T07:03:27Z</time>
      </trkpt>
      <trkpt lat="37.1570982132" lon="-1.8247499596">
        <ele>13.12</ele>
        <time>2018-11-08T07:03:28Z</time>
      </trkpt>
      <trkpt lat="37.1568781883" lon="-1.8248227146">
        <ele>12.15</ele>
        <time>2018-11-08T07:03:36Z</time>
      </trkpt>
      <trkpt lat="37.1567553096" lon="-1.8248838186">
        <ele>11.67</ele>
        <time>2018-11-08T07:03:44Z</time>
      </trkpt>
      <trkpt lat="37.1567511186" lon="-1.8248917814">
        <ele>13.60</ele>
        <time>2018-11-08T07:04:03Z</time>
      </trkpt>
      <trkpt lat="37.1567561477" lon="-1.8248799630">
        <ele>12.15</ele>
        <time>2018-11-08T07:04:23Z</time>
      </trkpt>
      <trkpt lat="37.1567297447" lon="-1.8249000795">
        <ele>11.67</ele>
        <time>2018-11-08T07:04:30Z</time>
      </trkpt>
      <trkpt lat="37.1567313373" lon="-1.8248923682">
        <ele>11.67</ele>
        <time>2018-11-08T07:04:42Z</time>
      </trkpt>
      <trkpt lat="37.1567310020" lon="-1.8248867523">
        <ele>11.19</ele>
        <time>2018-11-08T07:04:55Z</time>
      </trkpt>
      <trkpt lat="37.1567305829" lon="-1.8248902727">
        <ele>10.23</ele>
        <time>2018-11-08T07:05:12Z</time>
      </trkpt>
      <trkpt lat="37.1567306668" lon="-1.8248953018">
        <ele>9.75</ele>
        <time>2018-11-08T07:05:35Z</time>
      </trkpt>
      <trkpt lat="37.1567240451" lon="-1.8248932064">
        <ele>9.75</ele>
        <time>2018-11-08T07:05:57Z</time>
      </trkpt>
      <trkpt lat="37.1567205247" lon="-1.8248857465">
        <ele>9.75</ele>
        <time>2018-11-08T07:06:22Z</time>
      </trkpt>
      <trkpt lat="37.1567276493" lon="-1.8248842377">
        <ele>9.27</ele>
        <time>2018-11-08T07:06:56Z</time>
      </trkpt>
      <trkpt lat="37.1567320917" lon="-1.8248859979">
        <ele>9.75</ele>
        <time>2018-11-08T07:07:23Z</time>
      </trkpt>
      <trkpt lat="37.1567341033" lon="-1.8248828128">
        <ele>9.75</ele>
        <time>2018-11-08T07:07:53Z</time>
      </trkpt>
      <trkpt lat="37.1567348577" lon="-1.8248889316">
        <ele>10.23</ele>
        <time>2018-11-08T07:08:09Z</time>
      </trkpt>
      <trkpt lat="37.1567260567" lon="-1.8248888478">
        <ele>10.23</ele>
        <time>2018-11-08T07:08:11Z</time>
      </trkpt>
      <trkpt lat="37.1565801278" lon="-1.8248936255">
        <ele>10.23</ele>
        <time>2018-11-08T07:08:18Z</time>
      </trkpt>
      <trkpt lat="37.1564103942" lon="-1.8249552324">
        <ele>10.23</ele>
        <time>2018-11-08T07:08:24Z</time>
      </trkpt>
      <trkpt lat="37.1560131758" lon="-1.8250843138">
        <ele>11.19</ele>
        <time>2018-11-08T07:08:34Z</time>
      </trkpt>
      <trkpt lat="37.1556504071" lon="-1.8252179213">
        <ele>11.19</ele>
        <time>2018-11-08T07:08:43Z</time>
      </trkpt>
      <trkpt lat="37.1551445592" lon="-1.8254121300">
        <ele>10.23</ele>
        <time>2018-11-08T07:08:54Z</time>
      </trkpt>
      <trkpt lat="37.1547156572" lon="-1.8255718891">
        <ele>9.75</ele>
        <time>2018-11-08T07:09:02Z</time>
      </trkpt>
      <trkpt lat="37.1539496351" lon="-1.8258655909">
        <ele>9.27</ele>
        <time>2018-11-08T07:09:16Z</time>
      </trkpt>
      <trkpt lat="37.1534364950" lon="-1.8260596320">
        <ele>9.27</ele>
        <time>2018-11-08T07:09:26Z</time>
      </trkpt>
      <trkpt lat="37.1529386938" lon="-1.8262291979">
        <ele>9.27</ele>
        <time>2018-11-08T07:09:36Z</time>
      </trkpt>
      <trkpt lat="37.1524264757" lon="-1.8262882903">
        <ele>8.79</ele>
        <time>2018-11-08T07:09:46Z</time>
      </trkpt>
      <trkpt lat="37.1519399900" lon="-1.8262649886">
        <ele>7.35</ele>
        <time>2018-11-08T07:09:54Z</time>
      </trkpt>
      <trkpt lat="37.1513731219" lon="-1.8261947483">
        <ele>6.39</ele>
        <time>2018-11-08T07:10:03Z</time>
      </trkpt>
      <trkpt lat="37.1513204835" lon="-1.8261644058">
        <ele>6.39</ele>
        <time>2018-11-08T07:10:04Z</time>
      </trkpt>
      <trkpt lat="37.1512755565" lon="-1.8261303753">
        <ele>6.39</ele>
        <time>2018-11-08T07:10:05Z</time>
      </trkpt>
      <trkpt lat="37.1511191502" lon="-1.8260265235">
        <ele>6.39</ele>
        <time>2018-11-08T07:10:08Z</time>
      </trkpt>
      <trkpt lat="37.1510634944" lon="-1.8260146212">
        <ele>6.87</ele>
        <time>2018-11-08T07:10:09Z</time>
      </trkpt>
      <trkpt lat="37.1510090958" lon="-1.8260003719">
        <ele>6.87</ele>
        <time>2018-11-08T07:10:10Z</time>
      </trkpt>
      <trkpt lat="37.1509534400" lon="-1.8259697780">
        <ele>6.87</ele>
        <time>2018-11-08T07:10:11Z</time>
      </trkpt>
      <trkpt lat="37.1509065013" lon="-1.8259299640">
        <ele>6.87</ele>
        <time>2018-11-08T07:10:12Z</time>
      </trkpt>
      <trkpt lat="37.1508591436" lon="-1.8258795887">
        <ele>7.35</ele>
        <time>2018-11-08T07:10:13Z</time>
      </trkpt>
      <trkpt lat="37.1508192457" lon="-1.8258312251">
        <ele>7.35</ele>
        <time>2018-11-08T07:10:14Z</time>
      </trkpt>
      <trkpt lat="37.1504606679" lon="-1.8253396265">
        <ele>8.31</ele>
        <time>2018-11-08T07:10:23Z</time>
      </trkpt>
      <trkpt lat="37.1504142322" lon="-1.8252909277">
        <ele>8.31</ele>
        <time>2018-11-08T07:10:24Z</time>
      </trkpt>
      <trkpt lat="37.1503627673" lon="-1.8252481800">
        <ele>8.31</ele>
        <time>2018-11-08T07:10:25Z</time>
      </trkpt>
      <trkpt lat="37.1503070276" lon="-1.8252103776">
        <ele>7.83</ele>
        <time>2018-11-08T07:10:26Z</time>
      </trkpt>
      <trkpt lat="37.1502470132" lon="-1.8251775205">
        <ele>7.83</ele>
        <time>2018-11-08T07:10:27Z</time>
      </trkpt>
      <trkpt lat="37.1501800418" lon="-1.8251527101">
        <ele>7.83</ele>
        <time>2018-11-08T07:10:28Z</time>
      </trkpt>
      <trkpt lat="37.1501223743" lon="-1.8251397181">
        <ele>7.83</ele>
        <time>2018-11-08T07:10:29Z</time>
      </trkpt>
      <trkpt lat="37.1500603482" lon="-1.8251315039">
        <ele>7.83</ele>
        <time>2018-11-08T07:10:30Z</time>
      </trkpt>
      <trkpt lat="37.1499950532" lon="-1.8251271453">
        <ele>7.83</ele>
        <time>2018-11-08T07:10:31Z</time>
      </trkpt>
      <trkpt lat="37.1495110821" lon="-1.8251566496">
        <ele>8.31</ele>
        <time>2018-11-08T07:10:39Z</time>
      </trkpt>
      <trkpt lat="37.1488719620" lon="-1.8252423964">
        <ele>8.79</ele>
        <time>2018-11-08T07:10:50Z</time>
      </trkpt>
      <trkpt lat="37.1482440736" lon="-1.8253288977">
        <ele>8.79</ele>
        <time>2018-11-08T07:11:01Z</time>
      </trkpt>
      <trkpt lat="37.1476305183" lon="-1.8254064303">
        <ele>8.79</ele>
        <time>2018-11-08T07:11:11Z</time>
      </trkpt>
      <trkpt lat="37.1470942441" lon="-1.8255641777">
        <ele>9.75</ele>
        <time>2018-11-08T07:11:20Z</time>
      </trkpt>
      <trkpt lat="37.1463996358" lon="-1.8258001283">
        <ele>9.75</ele>
        <time>2018-11-08T07:11:32Z</time>
      </trkpt>
      <trkpt lat="37.1457194444" lon="-1.8260301277">
        <ele>8.79</ele>
        <time>2018-11-08T07:11:44Z</time>
      </trkpt>
      <trkpt lat="37.1449797414" lon="-1.8262747955">
        <ele>8.79</ele>
        <time>2018-11-08T07:11:57Z</time>
      </trkpt>
      <trkpt lat="37.1442826185" lon="-1.8265152723">
        <ele>8.31</ele>
        <time>2018-11-08T07:12:09Z</time>
      </trkpt>
      <trkpt lat="37.1438482683" lon="-1.8267362192">
        <ele>9.27</ele>
        <time>2018-11-08T07:12:17Z</time>
      </trkpt>
      <trkpt lat="37.1433553286" lon="-1.8270535581">
        <ele>8.79</ele>
        <time>2018-11-08T07:12:27Z</time>
      </trkpt>
      <trkpt lat="37.1428713575" lon="-1.8273684662">
        <ele>8.79</ele>
        <time>2018-11-08T07:12:37Z</time>
      </trkpt>
      <trkpt lat="37.1423365921" lon="-1.8277335819">
        <ele>8.31</ele>
        <time>2018-11-08T07:12:48Z</time>
      </trkpt>
      <trkpt lat="37.1421166509" lon="-1.8279447220">
        <ele>7.83</ele>
        <time>2018-11-08T07:12:53Z</time>
      </trkpt>
      <trkpt lat="37.1420848835" lon="-1.8280140404">
        <ele>7.83</ele>
        <time>2018-11-08T07:12:54Z</time>
      </trkpt>
      <trkpt lat="37.1420315746" lon="-1.8281504139">
        <ele>7.83</ele>
        <time>2018-11-08T07:12:56Z</time>
      </trkpt>
      <trkpt lat="37.1419857256" lon="-1.8281968497">
        <ele>7.83</ele>
        <time>2018-11-08T07:12:57Z</time>
      </trkpt>
      <trkpt lat="37.1419347636" lon="-1.8282166310">
        <ele>7.83</ele>
        <time>2018-11-08T07:12:58Z</time>
      </trkpt>
      <trkpt lat="37.1418682113" lon="-1.8282132782">
        <ele>7.35</ele>
        <time>2018-11-08T07:12:59Z</time>
      </trkpt>
      <trkpt lat="37.1418122202" lon="-1.8281944189">
        <ele>7.35</ele>
        <time>2018-11-08T07:13:00Z</time>
      </trkpt>
      <trkpt lat="37.1417463385" lon="-1.8281681836">
        <ele>6.87</ele>
        <time>2018-11-08T07:13:01Z</time>
      </trkpt>
      <trkpt lat="37.1416855697" lon="-1.8281546049">
        <ele>6.87</ele>
        <time>2018-11-08T07:13:02Z</time>
      </trkpt>
      <trkpt lat="37.1416247170" lon="-1.8281566165">
        <ele>6.87</ele>
        <time>2018-11-08T07:13:03Z</time>
      </trkpt>
      <trkpt lat="37.1415554825" lon="-1.8281776551">
        <ele>6.87</ele>
        <time>2018-11-08T07:13:04Z</time>
      </trkpt>
      <trkpt lat="37.1414958872" lon="-1.8282011244">
        <ele>6.87</ele>
        <time>2018-11-08T07:13:05Z</time>
      </trkpt>
      <trkpt lat="37.1410449408" lon="-1.8284182996">
        <ele>6.87</ele>
        <time>2018-11-08T07:13:13Z</time>
      </trkpt>
      <trkpt lat="37.1404650807" lon="-1.8285990134">
        <ele>7.35</ele>
        <time>2018-11-08T07:13:23Z</time>
      </trkpt>
      <trkpt lat="37.1400630847" lon="-1.8285891227">
        <ele>7.35</ele>
        <time>2018-11-08T07:13:30Z</time>
      </trkpt>
      <trkpt lat="37.1395394672" lon="-1.8285016995">
        <ele>6.87</ele>
        <time>2018-11-08T07:13:39Z</time>
      </trkpt>
      <trkpt lat="37.1394737530" lon="-1.8285081536">
        <ele>6.87</ele>
        <time>2018-11-08T07:13:40Z</time>
      </trkpt>
      <trkpt lat="37.1389030293" lon="-1.8286108319">
        <ele>7.35</ele>
        <time>2018-11-08T07:13:50Z</time>
      </trkpt>
      <trkpt lat="37.1381740551" lon="-1.8287410866">
        <ele>7.83</ele>
        <time>2018-11-08T07:14:03Z</time>
      </trkpt>
      <trkpt lat="37.1375670377" lon="-1.8288432620">
        <ele>7.83</ele>
        <time>2018-11-08T07:14:14Z</time>
      </trkpt>
      <trkpt lat="37.1368804760" lon="-1.8289518915">
        <ele>8.31</ele>
        <time>2018-11-08T07:14:26Z</time>
      </trkpt>
      <trkpt lat="37.1362216584" lon="-1.8290911987">
        <ele>8.79</ele>
        <time>2018-11-08T07:14:38Z</time>
      </trkpt>
      <trkpt lat="37.1356263757" lon="-1.8293033447">
        <ele>9.27</ele>
        <time>2018-11-08T07:14:50Z</time>
      </trkpt>
      <trkpt lat="37.1353776008" lon="-1.8294294085">
        <ele>9.27</ele>
        <time>2018-11-08T07:14:55Z</time>
      </trkpt>
      <trkpt lat="37.1351164207" lon="-1.8296951987">
        <ele>9.75</ele>
        <time>2018-11-08T07:15:01Z</time>
      </trkpt>
      <trkpt lat="37.1350842342" lon="-1.8297523633">
        <ele>9.75</ele>
        <time>2018-11-08T07:15:02Z</time>
      </trkpt>
      <trkpt lat="37.1350168437" lon="-1.8298994657">
        <ele>10.23</ele>
        <time>2018-11-08T07:15:05Z</time>
      </trkpt>
      <trkpt lat="37.1349972300" lon="-1.8299640901">
        <ele>10.23</ele>
        <time>2018-11-08T07:15:06Z</time>
      </trkpt>
      <trkpt lat="37.1349849924" lon="-1.8300210871">
        <ele>10.23</ele>
        <time>2018-11-08T07:15:07Z</time>
      </trkpt>
      <trkpt lat="37.1349751856" lon="-1.8300867174">
        <ele>10.23</ele>
        <time>2018-11-08T07:15:08Z</time>
      </trkpt>
      <trkpt lat="37.1349693183" lon="-1.8301431276">
        <ele>10.23</ele>
        <time>2018-11-08T07:15:09Z</time>
      </trkpt>
      <trkpt lat="37.1349794604" lon="-1.8306558486">
        <ele>10.23</ele>
        <time>2018-11-08T07:15:18Z</time>
      </trkpt>
      <trkpt lat="37.1350310929" lon="-1.8311530631">
        <ele>12.15</ele>
        <time>2018-11-08T07:15:28Z</time>
      </trkpt>
      <trkpt lat="37.1350527182" lon="-1.8315330986">
        <ele>13.60</ele>
        <time>2018-11-08T07:15:36Z</time>
      </trkpt>
      <trkpt lat="37.1350567415" lon="-1.8320077658">
        <ele>14.56</ele>
        <time>2018-11-08T07:15:47Z</time>
      </trkpt>
      <trkpt lat="37.1349991579" lon="-1.8324311357">
        <ele>15.04</ele>
        <time>2018-11-08T07:15:56Z</time>
      </trkpt>
      <trkpt lat="37.1349587571" lon="-1.8328799866">
        <ele>16.00</ele>
        <time>2018-11-08T07:16:06Z</time>
      </trkpt>
      <trkpt lat="37.1350413188" lon="-1.8331842497">
        <ele>16.96</ele>
        <time>2018-11-08T07:16:14Z</time>
      </trkpt>
      <trkpt lat="37.1352383774" lon="-1.8335210346">
        <ele>17.44</ele>
        <time>2018-11-08T07:16:24Z</time>
      </trkpt>
      <trkpt lat="37.1354584023" lon="-1.8338728230">
        <ele>17.92</ele>
        <time>2018-11-08T07:16:35Z</time>
      </trkpt>
      <trkpt lat="37.1356036607" lon="-1.8341983762">
        <ele>18.88</ele>
        <time>2018-11-08T07:16:44Z</time>
      </trkpt>
      <trkpt lat="37.1356386971" lon="-1.8345986120">
        <ele>19.36</ele>
        <time>2018-11-08T07:16:53Z</time>
      </trkpt>
      <trkpt lat="37.1355721448" lon="-1.8350732792">
        <ele>17.92</ele>
        <time>2018-11-08T07:17:03Z</time>
      </trkpt>
      <trkpt lat="37.1355175786" lon="-1.8354488723">
        <ele>16.96</ele>
        <time>2018-11-08T07:17:12Z</time>
      </trkpt>
      <trkpt lat="37.1355041675" lon="-1.8359372020">
        <ele>16.96</ele>
        <time>2018-11-08T07:17:22Z</time>
      </trkpt>
      <trkpt lat="37.1355923451" lon="-1.8362876493">
        <ele>17.92</ele>
        <time>2018-11-08T07:17:30Z</time>
      </trkpt>
      <trkpt lat="37.1357849613" lon="-1.8365747295">
        <ele>19.36</ele>
        <time>2018-11-08T07:17:39Z</time>
      </trkpt>
      <trkpt lat="37.1360395197" lon="-1.8368056510">
        <ele>21.29</ele>
        <time>2018-11-08T07:17:49Z</time>
      </trkpt>
      <trkpt lat="37.1362701897" lon="-1.8369004503">
        <ele>22.73</ele>
        <time>2018-11-08T07:17:57Z</time>
      </trkpt>
      <trkpt lat="37.1365488879" lon="-1.8370300345">
        <ele>23.69</ele>
        <time>2018-11-08T07:18:08Z</time>
      </trkpt>
      <trkpt lat="37.1367072221" lon="-1.8371055555">
        <ele>24.17</ele>
        <time>2018-11-08T07:18:16Z</time>
      </trkpt>
      <trkpt lat="37.1367116645" lon="-1.8371068127">
        <ele>24.17</ele>
        <time>2018-11-08T07:18:23Z</time>
      </trkpt>
      <trkpt lat="37.1367105749" lon="-1.8371100817">
        <ele>23.69</ele>
        <time>2018-11-08T07:18:43Z</time>
      </trkpt>
      <trkpt lat="37.1367055457" lon="-1.8371094111">
        <ele>23.69</ele>
        <time>2018-11-08T07:19:01Z</time>
      </trkpt>
      <trkpt lat="37.1367047075" lon="-1.8371133506">
        <ele>23.21</ele>
        <time>2018-11-08T07:19:20Z</time>
      </trkpt>
      <trkpt lat="37.1367037017" lon="-1.8371209782">
        <ele>22.73</ele>
        <time>2018-11-08T07:19:33Z</time>
      </trkpt>
      <trkpt lat="37.1367069706" lon="-1.8371208105">
        <ele>22.25</ele>
        <time>2018-11-08T07:19:43Z</time>
      </trkpt>
      <trkpt lat="37.1367112454" lon="-1.8371135183">
        <ele>23.69</ele>
        <time>2018-11-08T07:19:59Z</time>
      </trkpt>
      <trkpt lat="37.1367060486" lon="-1.8371187150">
        <ele>24.17</ele>
        <time>2018-11-08T07:20:16Z</time>
      </trkpt>
      <trkpt lat="37.1367037855" lon="-1.8371175416">
        <ele>24.17</ele>
        <time>2018-11-08T07:20:29Z</time>
      </trkpt>
      <trkpt lat="37.1367064677" lon="-1.8371211458">
        <ele>24.65</ele>
        <time>2018-11-08T07:20:40Z</time>
      </trkpt>
      <trkpt lat="37.1368270833" lon="-1.8372025341">
        <ele>25.13</ele>
        <time>2018-11-08T07:20:47Z</time>
      </trkpt>
      <trkpt lat="37.1370515507" lon="-1.8373834155">
        <ele>27.05</ele>
        <time>2018-11-08T07:20:58Z</time>
      </trkpt>
      <trkpt lat="37.1372592542" lon="-1.8375769537">
        <ele>28.02</ele>
        <time>2018-11-08T07:21:08Z</time>
      </trkpt>
      <trkpt lat="37.1375088673" lon="-1.8378246389">
        <ele>30.42</ele>
        <time>2018-11-08T07:21:20Z</time>
      </trkpt>
      <trkpt lat="37.1377024055" lon="-1.8380481005">
        <ele>32.82</ele>
        <time>2018-11-08T07:21:30Z</time>
      </trkpt>
      <trkpt lat="37.1378898248" lon="-1.8382682092">
        <ele>35.23</ele>
        <time>2018-11-08T07:21:40Z</time>
      </trkpt>
      <trkpt lat="37.1380670182" lon="-1.8384816963">
        <ele>37.63</ele>
        <time>2018-11-08T07:21:51Z</time>
      </trkpt>
      <trkpt lat="37.1382270288" lon="-1.8386732228">
        <ele>39.55</ele>
        <time>2018-11-08T07:22:01Z</time>
      </trkpt>
      <trkpt lat="37.1384296194" lon="-1.8389221653">
        <ele>40.03</ele>
        <time>2018-11-08T07:22:12Z</time>
      </trkpt>
      <trkpt lat="37.1385322977" lon="-1.8390201498">
        <ele>40.51</ele>
        <time>2018-11-08T07:22:17Z</time>
      </trkpt>
      <trkpt lat="37.1385597903" lon="-1.8390158750">
        <ele>40.51</ele>
        <time>2018-11-08T07:22:18Z</time>
      </trkpt>
      <trkpt lat="37.1385870315" lon="-1.8390069902">
        <ele>40.51</ele>
        <time>2018-11-08T07:22:19Z</time>
      </trkpt>
      <trkpt lat="37.1386141889" lon="-1.8389976025">
        <ele>40.99</ele>
        <time>2018-11-08T07:22:20Z</time>
      </trkpt>
      <trkpt lat="37.1386418492" lon="-1.8389877118">
        <ele>40.99</ele>
        <time>2018-11-08T07:22:21Z</time>
      </trkpt>
      <trkpt lat="37.1386695094" lon="-1.8389777374">
        <ele>40.99</ele>
        <time>2018-11-08T07:22:22Z</time>
      </trkpt>
      <trkpt lat="37.1386985108" lon="-1.8389696907">
        <ele>40.99</ele>
        <time>2018-11-08T07:22:23Z</time>
      </trkpt>
      <trkpt lat="37.1387269255" lon="-1.8389659189">
        <ele>40.99</ele>
        <time>2018-11-08T07:22:24Z</time>
      </trkpt>
      <trkpt lat="37.1387555916" lon="-1.8389657512">
        <ele>41.47</ele>
        <time>2018-11-08T07:22:25Z</time>
      </trkpt>
      <trkpt lat="37.1387841739" lon="-1.8389705289">
        <ele>41.47</ele>
        <time>2018-11-08T07:22:26Z</time>
      </trkpt>
      <trkpt lat="37.1388124209" lon="-1.8389800843">
        <ele>41.47</ele>
        <time>2018-11-08T07:22:27Z</time>
      </trkpt>
      <trkpt lat="37.1388392430" lon="-1.8389921542">
        <ele>41.47</ele>
        <time>2018-11-08T07:22:28Z</time>
      </trkpt>
      <trkpt lat="37.1388636343" lon="-1.8390070740">
        <ele>41.47</ele>
        <time>2018-11-08T07:22:29Z</time>
      </trkpt>
      <trkpt lat="37.1388873551" lon="-1.8390268553">
        <ele>41.47</ele>
        <time>2018-11-08T07:22:30Z</time>
      </trkpt>
      <trkpt lat="37.1389089804" lon="-1.8390490673">
        <ele>41.47</ele>
        <time>2018-11-08T07:22:31Z</time>
      </trkpt>
      <trkpt lat="37.1389295161" lon="-1.8390747998">
        <ele>41.47</ele>
        <time>2018-11-08T07:22:32Z</time>
      </trkpt>
      <trkpt lat="37.1389470343" lon="-1.8391037174">
        <ele>41.47</ele>
        <time>2018-11-08T07:22:33Z</time>
      </trkpt>
      <trkpt lat="37.1389612835" lon="-1.8391350657">
        <ele>41.47</ele>
        <time>2018-11-08T07:22:34Z</time>
      </trkpt>
      <trkpt lat="37.1389716770" lon="-1.8391702697">
        <ele>41.47</ele>
        <time>2018-11-08T07:22:35Z</time>
      </trkpt>
      <trkpt lat="37.1389785502" lon="-1.8392043002">
        <ele>41.47</ele>
        <time>2018-11-08T07:22:36Z</time>
      </trkpt>
      <trkpt lat="37.1389598586" lon="-1.8394497223">
        <ele>40.99</ele>
        <time>2018-11-08T07:22:43Z</time>
      </trkpt>
      <trkpt lat="37.1389196254" lon="-1.8395812344">
        <ele>40.99</ele>
        <time>2018-11-08T07:22:47Z</time>
      </trkpt>
      <trkpt lat="37.1389269177" lon="-1.8396143429">
        <ele>40.99</ele>
        <time>2018-11-08T07:22:48Z</time>
      </trkpt>
      <trkpt lat="37.1389363892" lon="-1.8396407459">
        <ele>40.99</ele>
        <time>2018-11-08T07:22:49Z</time>
      </trkpt>
      <trkpt lat="37.1390804742" lon="-1.8399856612">
        <ele>42.44</ele>
        <time>2018-11-08T07:23:00Z</time>
      </trkpt>
      <trkpt lat="37.1391331125" lon="-1.8402440753">
        <ele>43.40</ele>
        <time>2018-11-08T07:23:09Z</time>
      </trkpt>
      <trkpt lat="37.1391346212" lon="-1.8402554747">
        <ele>43.88</ele>
        <time>2018-11-08T07:23:15Z</time>
      </trkpt>
      <trkpt lat="37.1391392313" lon="-1.8403232843">
        <ele>44.84</ele>
        <time>2018-11-08T07:23:23Z</time>
      </trkpt>
      <trkpt lat="37.1391403209" lon="-1.8404936045">
        <ele>44.84</ele>
        <time>2018-11-08T07:23:30Z</time>
      </trkpt>
      <trkpt lat="37.1391311008" lon="-1.8406877294">
        <ele>46.28</ele>
        <time>2018-11-08T07:23:39Z</time>
      </trkpt>
      <trkpt lat="37.1391166002" lon="-1.8409301341">
        <ele>47.72</ele>
        <time>2018-11-08T07:23:49Z</time>
      </trkpt>
      <trkpt lat="37.1391175222" lon="-1.8411213253">
        <ele>49.16</ele>
        <time>2018-11-08T07:23:57Z</time>
      </trkpt>
      <trkpt lat="37.1391082183" lon="-1.8414242472">
        <ele>51.57</ele>
        <time>2018-11-08T07:24:09Z</time>
      </trkpt>
      <trkpt lat="37.1391169354" lon="-1.8416912947">
        <ele>53.01</ele>
        <time>2018-11-08T07:24:20Z</time>
      </trkpt>
      <trkpt lat="37.1391187795" lon="-1.8419184443">
        <ele>54.45</ele>
        <time>2018-11-08T07:24:29Z</time>
      </trkpt>
      <trkpt lat="37.1391310170" lon="-1.8421291653">
        <ele>56.86</ele>
        <time>2018-11-08T07:24:38Z</time>
      </trkpt>
      <trkpt lat="37.1391497087" lon="-1.8423389643">
        <ele>58.78</ele>
        <time>2018-11-08T07:24:47Z</time>
      </trkpt>
      <trkpt lat="37.1391706634" lon="-1.8425527029">
        <ele>61.18</ele>
        <time>2018-11-08T07:24:57Z</time>
      </trkpt>
      <trkpt lat="37.1391840745" lon="-1.8427146412">
        <ele>61.66</ele>
        <time>2018-11-08T07:25:04Z</time>
      </trkpt>
      <trkpt lat="37.1391927078" lon="-1.8428056687">
        <ele>62.62</ele>
        <time>2018-11-08T07:25:09Z</time>
      </trkpt>
      <trkpt lat="37.1391961444" lon="-1.8429805990">
        <ele>64.07</ele>
        <time>2018-11-08T07:25:18Z</time>
      </trkpt>
      <trkpt lat="37.1391963121" lon="-1.8430323154">
        <ele>64.07</ele>
        <time>2018-11-08T07:25:24Z</time>
      </trkpt>
      <trkpt lat="37.1391956415" lon="-1.8430860434">
        <ele>64.55</ele>
        <time>2018-11-08T07:25:28Z</time>
      </trkpt>
      <trkpt lat="37.1391961444" lon="-1.8431010470">
        <ele>64.55</ele>
        <time>2018-11-08T07:25:29Z</time>
      </trkpt>
      <trkpt lat="37.1391955577" lon="-1.8431154639">
        <ele>64.55</ele>
        <time>2018-11-08T07:25:30Z</time>
      </trkpt>
      <trkpt lat="37.1391950548" lon="-1.8431297131">
        <ele>64.55</ele>
        <time>2018-11-08T07:25:31Z</time>
      </trkpt>
      <trkpt lat="37.1391957253" lon="-1.8431453034">
        <ele>64.55</ele>
        <time>2018-11-08T07:25:32Z</time>
      </trkpt>
      <trkpt lat="37.1391964797" lon="-1.8431614805">
        <ele>64.55</ele>
        <time>2018-11-08T07:25:33Z</time>
      </trkpt>
      <trkpt lat="37.1391946357" lon="-1.8431763165">
        <ele>64.55</ele>
        <time>2018-11-08T07:25:34Z</time>
      </trkpt>
      <trkpt lat="37.1391891036" lon="-1.8431908172">
        <ele>64.55</ele>
        <time>2018-11-08T07:25:35Z</time>
      </trkpt>
      <trkpt lat="37.1391854994" lon="-1.8432068266">
        <ele>64.55</ele>
        <time>2018-11-08T07:25:36Z</time>
      </trkpt>
      <trkpt lat="37.1391833201" lon="-1.8432240933">
        <ele>64.55</ele>
        <time>2018-11-08T07:25:37Z</time>
      </trkpt>
      <trkpt lat="37.1391808055" lon="-1.8432405218">
        <ele>64.55</ele>
        <time>2018-11-08T07:25:38Z</time>
      </trkpt>
      <trkpt lat="37.1391528100" lon="-1.8433432002">
        <ele>64.07</ele>
        <time>2018-11-08T07:25:46Z</time>
      </trkpt>
      <trkpt lat="37.1390950587" lon="-1.8435001094">
        <ele>64.07</ele>
        <time>2018-11-08T07:25:55Z</time>
      </trkpt>
      <trkpt lat="37.1390424203" lon="-1.8436818291">
        <ele>65.51</ele>
        <time>2018-11-08T07:26:05Z</time>
      </trkpt>
      <trkpt lat="37.1390378941" lon="-1.8436976708">
        <ele>65.51</ele>
        <time>2018-11-08T07:26:06Z</time>
      </trkpt>
      <trkpt lat="37.1390175261" lon="-1.8438675720">
        <ele>66.95</ele>
        <time>2018-11-08T07:26:16Z</time>
      </trkpt>
      <trkpt lat="37.1390114911" lon="-1.8440122437">
        <ele>68.39</ele>
        <time>2018-11-08T07:26:24Z</time>
      </trkpt>
      <trkpt lat="37.1390198730" lon="-1.8441761099">
        <ele>70.31</ele>
        <time>2018-11-08T07:26:34Z</time>
      </trkpt>
      <trkpt lat="37.1390699130" lon="-1.8443461787">
        <ele>72.24</ele>
        <time>2018-11-08T07:26:44Z</time>
      </trkpt>
      <trkpt lat="37.1391510498" lon="-1.8444906827">
        <ele>73.68</ele>
        <time>2018-11-08T07:26:54Z</time>
      </trkpt>
      <trkpt lat="37.1392542310" lon="-1.8446011562">
        <ele>74.16</ele>
        <time>2018-11-08T07:27:03Z</time>
      </trkpt>
      <trkpt lat="37.1392740961" lon="-1.8446273915">
        <ele>73.68</ele>
        <time>2018-11-08T07:27:05Z</time>
      </trkpt>
      <trkpt lat="37.1392818075" lon="-1.8446439877">
        <ele>73.68</ele>
        <time>2018-11-08T07:27:06Z</time>
      </trkpt>
      <trkpt lat="37.1392934583" lon="-1.8446612544">
        <ele>74.16</ele>
        <time>2018-11-08T07:27:07Z</time>
      </trkpt>
      <trkpt lat="37.1394103020" lon="-1.8448051717">
        <ele>76.08</ele>
        <time>2018-11-08T07:27:17Z</time>
      </trkpt>
      <trkpt lat="37.1394938696" lon="-1.8449522741">
        <ele>77.52</ele>
        <time>2018-11-08T07:27:25Z</time>
      </trkpt>
      <trkpt lat="37.1395663731" lon="-1.8451304734">
        <ele>79.45</ele>
        <time>2018-11-08T07:27:34Z</time>
      </trkpt>
      <trkpt lat="37.1395808738" lon="-1.8451659288">
        <ele>79.93</ele>
        <time>2018-11-08T07:27:37Z</time>
      </trkpt>
      <trkpt lat="37.1395828016" lon="-1.8451813515">
        <ele>80.41</ele>
        <time>2018-11-08T07:27:38Z</time>
      </trkpt>
      <trkpt lat="37.1395866573" lon="-1.8452000432">
        <ele>80.41</ele>
        <time>2018-11-08T07:27:39Z</time>
      </trkpt>
      <trkpt lat="37.1395927761" lon="-1.8452212494">
        <ele>80.41</ele>
        <time>2018-11-08T07:27:40Z</time>
      </trkpt>
      <trkpt lat="37.1395987272" lon="-1.8452403601">
        <ele>80.41</ele>
        <time>2018-11-08T07:27:41Z</time>
      </trkpt>
      <trkpt lat="37.1396056004" lon="-1.8452600576">
        <ele>80.89</ele>
        <time>2018-11-08T07:27:42Z</time>
      </trkpt>
      <trkpt lat="37.1397055127" lon="-1.8454608042">
        <ele>82.81</ele>
        <time>2018-11-08T07:27:54Z</time>
      </trkpt>
      <trkpt lat="37.1398477536" lon="-1.8455680087">
        <ele>84.73</ele>
        <time>2018-11-08T07:28:04Z</time>
      </trkpt>
      <trkpt lat="37.1399932634" lon="-1.8456592038">
        <ele>85.69</ele>
        <time>2018-11-08T07:28:14Z</time>
      </trkpt>
      <trkpt lat="37.1401179023" lon="-1.8457599543">
        <ele>87.62</ele>
        <time>2018-11-08T07:28:23Z</time>
      </trkpt>
      <trkpt lat="37.1401982848" lon="-1.8458766304">
        <ele>88.58</ele>
        <time>2018-11-08T07:28:31Z</time>
      </trkpt>
      <trkpt lat="37.1402328182" lon="-1.8459073082">
        <ele>89.54</ele>
        <time>2018-11-08T07:28:38Z</time>
      </trkpt>
      <trkpt lat="37.1402450558" lon="-1.8459078949">
        <ele>92.42</ele>
        <time>2018-11-08T07:28:55Z</time>
      </trkpt>
      <trkpt lat="37.1402330697" lon="-1.8459146004">
        <ele>89.54</ele>
        <time>2018-11-08T07:29:05Z</time>
      </trkpt>
      <trkpt lat="37.1402472351" lon="-1.8459099066">
        <ele>89.54</ele>
        <time>2018-11-08T07:29:19Z</time>
      </trkpt>
      <trkpt lat="37.1402459778" lon="-1.8459267542">
        <ele>90.98</ele>
        <time>2018-11-08T07:29:29Z</time>
      </trkpt>
      <trkpt lat="37.1402790863" lon="-1.8460783828">
        <ele>92.42</ele>
        <time>2018-11-08T07:29:37Z</time>
      </trkpt>
      <trkpt lat="37.1402970236" lon="-1.8463371322">
        <ele>93.39</ele>
        <time>2018-11-08T07:29:47Z</time>
      </trkpt>
      <trkpt lat="37.1403124463" lon="-1.8465856556">
        <ele>94.83</ele>
        <time>2018-11-08T07:29:56Z</time>
      </trkpt>
      <trkpt lat="37.1403243486" lon="-1.8468652759">
        <ele>95.79</ele>
        <time>2018-11-08T07:30:06Z</time>
      </trkpt>
      <trkpt lat="37.1402916592" lon="-1.8471404538">
        <ele>95.79</ele>
        <time>2018-11-08T07:30:16Z</time>
      </trkpt>
      <trkpt lat="37.1403297968" lon="-1.8472258653">
        <ele>96.27</ele>
        <time>2018-11-08T07:30:21Z</time>
      </trkpt>
      <trkpt lat="37.1403385140" lon="-1.8472312298">
        <ele>96.27</ele>
        <time>2018-11-08T07:30:22Z</time>
      </trkpt>
      <trkpt lat="37.1403536852" lon="-1.8472428806">
        <ele>95.79</ele>
        <time>2018-11-08T07:30:30Z</time>
      </trkpt>
      <trkpt lat="37.1403341554" lon="-1.8472444732">
        <ele>97.71</ele>
        <time>2018-11-08T07:30:48Z</time>
      </trkpt>
      <trkpt lat="37.1403218340" lon="-1.8472409528">
        <ele>96.27</ele>
        <time>2018-11-08T07:31:05Z</time>
      </trkpt>
      <trkpt lat="37.1403017174" lon="-1.8472238537">
        <ele>97.23</ele>
        <time>2018-11-08T07:31:23Z</time>
      </trkpt>
      <trkpt lat="37.1403034776" lon="-1.8472279608">
        <ele>98.67</ele>
        <time>2018-11-08T07:31:32Z</time>
      </trkpt>
      <trkpt lat="37.1403129492" lon="-1.8472419586">
        <ele>99.15</ele>
        <time>2018-11-08T07:31:33Z</time>
      </trkpt>
      <trkpt lat="37.1403445490" lon="-1.8472919147">
        <ele>99.63</ele>
        <time>2018-11-08T07:31:36Z</time>
      </trkpt>
      <trkpt lat="37.1404238418" lon="-1.8475064915">
        <ele>100.11</ele>
        <time>2018-11-08T07:31:44Z</time>
      </trkpt>
      <trkpt lat="37.1405389253" lon="-1.8476384226">
        <ele>98.67</ele>
        <time>2018-11-08T07:31:49Z</time>
      </trkpt>
      <trkpt lat="37.1407135203" lon="-1.8477747962">
        <ele>96.27</ele>
        <time>2018-11-08T07:31:53Z</time>
      </trkpt>
      <trkpt lat="37.1407766361" lon="-1.8477974273">
        <ele>95.79</ele>
        <time>2018-11-08T07:31:54Z</time>
      </trkpt>
      <trkpt lat="37.1408443619" lon="-1.8478046358">
        <ele>94.83</ele>
        <time>2018-11-08T07:31:55Z</time>
      </trkpt>
      <trkpt lat="37.1409082320" lon="-1.8477962539">
        <ele>94.35</ele>
        <time>2018-11-08T07:31:56Z</time>
      </trkpt>
      <trkpt lat="37.1409680787" lon="-1.8477707729">
        <ele>93.39</ele>
        <time>2018-11-08T07:31:57Z</time>
      </trkpt>
      <trkpt lat="37.1410260815" lon="-1.8477291986">
        <ele>92.90</ele>
        <time>2018-11-08T07:31:58Z</time>
      </trkpt>
      <trkpt lat="37.1410828270" lon="-1.8476748839">
        <ele>92.42</ele>
        <time>2018-11-08T07:31:59Z</time>
      </trkpt>
      <trkpt lat="37.1411377285" lon="-1.8476121034">
        <ele>91.94</ele>
        <time>2018-11-08T07:32:00Z</time>
      </trkpt>
      <trkpt lat="37.1411905345" lon="-1.8475423660">
        <ele>90.98</ele>
        <time>2018-11-08T07:32:01Z</time>
      </trkpt>
      <trkpt lat="37.1415618528" lon="-1.8471221812">
        <ele>87.14</ele>
        <time>2018-11-08T07:32:07Z</time>
      </trkpt>
      <trkpt lat="37.1416532993" lon="-1.8470794335">
        <ele>86.66</ele>
        <time>2018-11-08T07:32:08Z</time>
      </trkpt>
      <trkpt lat="37.1417304128" lon="-1.8470651004">
        <ele>86.18</ele>
        <time>2018-11-08T07:32:09Z</time>
      </trkpt>
      <trkpt lat="37.1418061852" lon="-1.8470666092">
        <ele>85.69</ele>
        <time>2018-11-08T07:32:10Z</time>
      </trkpt>
      <trkpt lat="37.1418870706" lon="-1.8470791820">
        <ele>85.21</ele>
        <time>2018-11-08T07:32:11Z</time>
      </trkpt>
      <trkpt lat="37.1419676207" lon="-1.8470951915">
        <ele>84.73</ele>
        <time>2018-11-08T07:32:12Z</time>
      </trkpt>
      <trkpt lat="37.1421976201" lon="-1.8471583072">
        <ele>83.29</ele>
        <time>2018-11-08T07:32:15Z</time>
      </trkpt>
      <trkpt lat="37.1422651783" lon="-1.8471942656">
        <ele>82.81</ele>
        <time>2018-11-08T07:32:16Z</time>
      </trkpt>
      <trkpt lat="37.1423374303" lon="-1.8472524360">
        <ele>82.33</ele>
        <time>2018-11-08T07:32:17Z</time>
      </trkpt>
      <trkpt lat="37.1423789207" lon="-1.8473045714">
        <ele>82.33</ele>
        <time>2018-11-08T07:32:18Z</time>
      </trkpt>
      <trkpt lat="37.1424194891" lon="-1.8473779131">
        <ele>81.85</ele>
        <time>2018-11-08T07:32:19Z</time>
      </trkpt>
      <trkpt lat="37.1424479038" lon="-1.8474577926">
        <ele>81.37</ele>
        <time>2018-11-08T07:32:20Z</time>
      </trkpt>
      <trkpt lat="37.1424648352" lon="-1.8475396000">
        <ele>80.89</ele>
        <time>2018-11-08T07:32:21Z</time>
      </trkpt>
      <trkpt lat="37.1424701158" lon="-1.8476162106">
        <ele>80.41</ele>
        <time>2018-11-08T07:32:22Z</time>
      </trkpt>
      <trkpt lat="37.1424683556" lon="-1.8476983532">
        <ele>79.93</ele>
        <time>2018-11-08T07:32:23Z</time>
      </trkpt>
      <trkpt lat="37.1424619853" lon="-1.8477799091">
        <ele>78.97</ele>
        <time>2018-11-08T07:32:24Z</time>
      </trkpt>
      <trkpt lat="37.1424361691" lon="-1.8480169494">
        <ele>77.52</ele>
        <time>2018-11-08T07:32:27Z</time>
      </trkpt>
      <trkpt lat="37.1424377616" lon="-1.8480837531">
        <ele>77.04</ele>
        <time>2018-11-08T07:32:28Z</time>
      </trkpt>
      <trkpt lat="37.1424480714" lon="-1.8481519818">
        <ele>76.56</ele>
        <time>2018-11-08T07:32:29Z</time>
      </trkpt>
      <trkpt lat="37.1424649190" lon="-1.8482164387">
        <ele>76.08</ele>
        <time>2018-11-08T07:32:30Z</time>
      </trkpt>
      <trkpt lat="37.1424928308" lon="-1.8482805602">
        <ele>75.60</ele>
        <time>2018-11-08T07:32:31Z</time>
      </trkpt>
      <trkpt lat="37.1425307170" lon="-1.8483366352">
        <ele>75.60</ele>
        <time>2018-11-08T07:32:32Z</time>
      </trkpt>
      <trkpt lat="37.1425804216" lon="-1.8483900279">
        <ele>74.64</ele>
        <time>2018-11-08T07:32:33Z</time>
      </trkpt>
      <trkpt lat="37.1426346526" lon="-1.8484301772">
        <ele>74.64</ele>
        <time>2018-11-08T07:32:34Z</time>
      </trkpt>
      <trkpt lat="37.1426982712" lon="-1.8484632857">
        <ele>74.16</ele>
        <time>2018-11-08T07:32:35Z</time>
      </trkpt>
      <trkpt lat="37.1427612193" lon="-1.8484889343">
        <ele>73.68</ele>
        <time>2018-11-08T07:32:36Z</time>
      </trkpt>
      <trkpt lat="37.1428896300" lon="-1.8485488649">
        <ele>73.20</ele>
        <time>2018-11-08T07:32:38Z</time>
      </trkpt>
      <trkpt lat="37.1429482196" lon="-1.8485890981">
        <ele>72.72</ele>
        <time>2018-11-08T07:32:39Z</time>
      </trkpt>
      <trkpt lat="37.1430064738" lon="-1.8486445863">
        <ele>72.72</ele>
        <time>2018-11-08T07:32:40Z</time>
      </trkpt>
      <trkpt lat="37.1430594474" lon="-1.8487042654">
        <ele>71.76</ele>
        <time>2018-11-08T07:32:41Z</time>
      </trkpt>
      <trkpt lat="37.1431132592" lon="-1.8487755954">
        <ele>71.27</ele>
        <time>2018-11-08T07:32:42Z</time>
      </trkpt>
      <trkpt lat="37.1431644727" lon="-1.8488495238">
        <ele>70.79</ele>
        <time>2018-11-08T07:32:43Z</time>
      </trkpt>
      <trkpt lat="37.1434820630" lon="-1.8493456487">
        <ele>67.91</ele>
        <time>2018-11-08T07:32:49Z</time>
      </trkpt>
      <trkpt lat="37.1435124893" lon="-1.8494417891">
        <ele>67.43</ele>
        <time>2018-11-08T07:32:50Z</time>
      </trkpt>
      <trkpt lat="37.1435314324" lon="-1.8495379295">
        <ele>66.95</ele>
        <time>2018-11-08T07:32:51Z</time>
      </trkpt>
      <trkpt lat="37.1435440890" lon="-1.8496425357">
        <ele>66.47</ele>
        <time>2018-11-08T07:32:52Z</time>
      </trkpt>
      <trkpt lat="37.1435567457" lon="-1.8497440405">
        <ele>65.99</ele>
        <time>2018-11-08T07:32:53Z</time>
      </trkpt>
      <trkpt lat="37.1435784549" lon="-1.8498442881">
        <ele>65.51</ele>
        <time>2018-11-08T07:32:54Z</time>
      </trkpt>
      <trkpt lat="37.1436172631" lon="-1.8499445356">
        <ele>65.03</ele>
        <time>2018-11-08T07:32:55Z</time>
      </trkpt>
      <trkpt lat="37.1436678898" lon="-1.8500284385">
        <ele>64.55</ele>
        <time>2018-11-08T07:32:56Z</time>
      </trkpt>
      <trkpt lat="37.1437306702" lon="-1.8501036242">
        <ele>64.55</ele>
        <time>2018-11-08T07:32:57Z</time>
      </trkpt>
      <trkpt lat="37.1437925287" lon="-1.8501648959">
        <ele>64.55</ele>
        <time>2018-11-08T07:32:58Z</time>
      </trkpt>
      <trkpt lat="37.1439013258" lon="-1.8502808176">
        <ele>65.03</ele>
        <time>2018-11-08T07:33:00Z</time>
      </trkpt>
      <trkpt lat="37.1439421456" lon="-1.8503477052">
        <ele>65.51</ele>
        <time>2018-11-08T07:33:01Z</time>
      </trkpt>
      <trkpt lat="37.1439712308" lon="-1.8504130002">
        <ele>65.51</ele>
        <time>2018-11-08T07:33:02Z</time>
      </trkpt>
      <trkpt lat="37.1439909283" lon="-1.8504824024">
        <ele>65.51</ele>
        <time>2018-11-08T07:33:03Z</time>
      </trkpt>
      <trkpt lat="37.1440016571" lon="-1.8505492900">
        <ele>65.51</ele>
        <time>2018-11-08T07:33:04Z</time>
      </trkpt>
      <trkpt lat="37.1440081112" lon="-1.8506170996">
        <ele>65.51</ele>
        <time>2018-11-08T07:33:05Z</time>
      </trkpt>
      <trkpt lat="37.1439865697" lon="-1.8512155674">
        <ele>65.99</ele>
        <time>2018-11-08T07:33:14Z</time>
      </trkpt>
      <trkpt lat="37.1439606696" lon="-1.8513392005">
        <ele>65.99</ele>
        <time>2018-11-08T07:33:16Z</time>
      </trkpt>
      <trkpt lat="37.1437789500" lon="-1.8519296218">
        <ele>65.99</ele>
        <time>2018-11-08T07:33:26Z</time>
      </trkpt>
      <trkpt lat="37.1436428279" lon="-1.8522966653">
        <ele>67.91</ele>
        <time>2018-11-08T07:33:33Z</time>
      </trkpt>
      <trkpt lat="37.1436177660" lon="-1.8523425143">
        <ele>68.39</ele>
        <time>2018-11-08T07:33:34Z</time>
      </trkpt>
      <trkpt lat="37.1435929555" lon="-1.8523837533">
        <ele>68.39</ele>
        <time>2018-11-08T07:33:35Z</time>
      </trkpt>
      <trkpt lat="37.1435647923" lon="-1.8524252437">
        <ele>68.39</ele>
        <time>2018-11-08T07:33:36Z</time>
      </trkpt>
      <trkpt lat="37.1435341984" lon="-1.8524644710">
        <ele>68.87</ele>
        <time>2018-11-08T07:33:37Z</time>
      </trkpt>
      <trkpt lat="37.1435000002" lon="-1.8525036145">
        <ele>68.87</ele>
        <time>2018-11-08T07:33:38Z</time>
      </trkpt>
      <trkpt lat="37.1434648801" lon="-1.8525393214">
        <ele>68.87</ele>
        <time>2018-11-08T07:33:39Z</time>
      </trkpt>
      <trkpt lat="37.1431348007" lon="-1.8528372981">
        <ele>66.95</ele>
        <time>2018-11-08T07:33:46Z</time>
      </trkpt>
      <trkpt lat="37.1429701801" lon="-1.8530025892">
        <ele>65.51</ele>
        <time>2018-11-08T07:33:49Z</time>
      </trkpt>
      <trkpt lat="37.1429210622" lon="-1.8530861568">
        <ele>65.03</ele>
        <time>2018-11-08T07:33:50Z</time>
      </trkpt>
      <trkpt lat="37.1428862773" lon="-1.8531776033">
        <ele>64.07</ele>
        <time>2018-11-08T07:33:51Z</time>
      </trkpt>
      <trkpt lat="37.1428617183" lon="-1.8532842211">
        <ele>63.58</ele>
        <time>2018-11-08T07:33:52Z</time>
      </trkpt>
      <trkpt lat="37.1428434458" lon="-1.8533879891">
        <ele>63.10</ele>
        <time>2018-11-08T07:33:53Z</time>
      </trkpt>
      <trkpt lat="37.1427255962" lon="-1.8541719485">
        <ele>62.14</ele>
        <time>2018-11-08T07:34:01Z</time>
      </trkpt>
      <trkpt lat="37.1426480636" lon="-1.8546492141">
        <ele>63.58</ele>
        <time>2018-11-08T07:34:08Z</time>
      </trkpt>
      <trkpt lat="37.1425705310" lon="-1.8551117275">
        <ele>65.03</ele>
        <time>2018-11-08T07:34:17Z</time>
      </trkpt>
      <trkpt lat="37.1425242629" lon="-1.8553750031">
        <ele>66.47</ele>
        <time>2018-11-08T07:34:25Z</time>
      </trkpt>
      <trkpt lat="37.1424530167" lon="-1.8556579761">
        <ele>67.43</ele>
        <time>2018-11-08T07:34:34Z</time>
      </trkpt>
      <trkpt lat="37.1422881447" lon="-1.8560988642">
        <ele>69.35</ele>
        <time>2018-11-08T07:34:46Z</time>
      </trkpt>
      <trkpt lat="37.1421190817" lon="-1.8564126827">
        <ele>70.31</ele>
        <time>2018-11-08T07:34:55Z</time>
      </trkpt>
      <trkpt lat="37.1419925988" lon="-1.8566275109">
        <ele>71.27</ele>
        <time>2018-11-08T07:35:02Z</time>
      </trkpt>
      <trkpt lat="37.1419011522" lon="-1.8569021858">
        <ele>72.24</ele>
        <time>2018-11-08T07:35:10Z</time>
      </trkpt>
      <trkpt lat="37.1418637689" lon="-1.8570761103">
        <ele>72.24</ele>
        <time>2018-11-08T07:35:15Z</time>
      </trkpt>
      <trkpt lat="37.1417220309" lon="-1.8572980631">
        <ele>72.72</ele>
        <time>2018-11-08T07:35:23Z</time>
      </trkpt>
      <trkpt lat="37.1416403912" lon="-1.8576421402">
        <ele>73.68</ele>
        <time>2018-11-08T07:35:32Z</time>
      </trkpt>
      <trkpt lat="37.1415577456" lon="-1.8579635862">
        <ele>74.64</ele>
        <time>2018-11-08T07:35:41Z</time>
      </trkpt>
      <trkpt lat="37.1414600126" lon="-1.8583392631">
        <ele>76.08</ele>
        <time>2018-11-08T07:35:52Z</time>
      </trkpt>
      <trkpt lat="37.1413624473" lon="-1.8586990982">
        <ele>77.52</ele>
        <time>2018-11-08T07:36:02Z</time>
      </trkpt>
      <trkpt lat="37.1412601043" lon="-1.8590948917">
        <ele>78.48</ele>
        <time>2018-11-08T07:36:13Z</time>
      </trkpt>
      <trkpt lat="37.1411769558" lon="-1.8594455067">
        <ele>79.45</ele>
        <time>2018-11-08T07:36:23Z</time>
      </trkpt>
      <trkpt lat="37.1410998423" lon="-1.8597143982">
        <ele>78.97</ele>
        <time>2018-11-08T07:36:30Z</time>
      </trkpt>
      <trkpt lat="37.1410054620" lon="-1.8600752391">
        <ele>79.45</ele>
        <time>2018-11-08T07:36:40Z</time>
      </trkpt>
      <trkpt lat="37.1409291867" lon="-1.8604452163">
        <ele>80.89</ele>
        <time>2018-11-08T07:36:50Z</time>
      </trkpt>
      <trkpt lat="37.1409762092" lon="-1.8608201388">
        <ele>80.41</ele>
        <time>2018-11-08T07:36:58Z</time>
      </trkpt>
      <trkpt lat="37.1410226449" lon="-1.8609642237">
        <ele>80.41</ele>
        <time>2018-11-08T07:37:01Z</time>
      </trkpt>
      <trkpt lat="37.1410456114" lon="-1.8610140122">
        <ele>79.93</ele>
        <time>2018-11-08T07:37:02Z</time>
      </trkpt>
      <trkpt lat="37.1410649735" lon="-1.8610508926">
        <ele>79.93</ele>
        <time>2018-11-08T07:37:03Z</time>
      </trkpt>
      <trkpt lat="37.1412935480" lon="-1.8612706661">
        <ele>78.48</ele>
        <time>2018-11-08T07:37:10Z</time>
      </trkpt>
      <trkpt lat="37.1413336974" lon="-1.8612934649">
        <ele>78.00</ele>
        <time>2018-11-08T07:37:11Z</time>
      </trkpt>
      <trkpt lat="37.1418309957" lon="-1.8615256436">
        <ele>77.04</ele>
        <time>2018-11-08T07:37:22Z</time>
      </trkpt>
      <trkpt lat="37.1420981269" lon="-1.8616662081">
        <ele>76.08</ele>
        <time>2018-11-08T07:37:29Z</time>
      </trkpt>
      <trkpt lat="37.1423318144" lon="-1.8617897574">
        <ele>74.16</ele>
        <time>2018-11-08T07:37:36Z</time>
      </trkpt>
      <trkpt lat="37.1426717844" lon="-1.8619993050">
        <ele>70.79</ele>
        <time>2018-11-08T07:37:42Z</time>
      </trkpt>
      <trkpt lat="37.1431301069" lon="-1.8622892350">
        <ele>66.95</ele>
        <time>2018-11-08T07:37:48Z</time>
      </trkpt>
      <trkpt lat="37.1437345259" lon="-1.8627434503">
        <ele>62.14</ele>
        <time>2018-11-08T07:37:55Z</time>
      </trkpt>
      <trkpt lat="37.1442144737" lon="-1.8633653875">
        <ele>56.37</ele>
        <time>2018-11-08T07:38:01Z</time>
      </trkpt>
      <trkpt lat="37.1445868816" lon="-1.8637327664">
        <ele>52.53</ele>
        <time>2018-11-08T07:38:05Z</time>
      </trkpt>
      <trkpt lat="37.1449416038" lon="-1.8640164938">
        <ele>49.65</ele>
        <time>2018-11-08T07:38:09Z</time>
      </trkpt>
      <trkpt lat="37.1450084914" lon="-1.8641045038">
        <ele>49.16</ele>
        <time>2018-11-08T07:38:10Z</time>
      </trkpt>
      <trkpt lat="37.1450563520" lon="-1.8642065115">
        <ele>48.20</ele>
        <time>2018-11-08T07:38:11Z</time>
      </trkpt>
      <trkpt lat="37.1450839285" lon="-1.8643166497">
        <ele>47.72</ele>
        <time>2018-11-08T07:38:12Z</time>
      </trkpt>
      <trkpt lat="37.1450930648" lon="-1.8644249439">
        <ele>46.76</ele>
        <time>2018-11-08T07:38:13Z</time>
      </trkpt>
      <trkpt lat="37.1450918913" lon="-1.8645305559">
        <ele>46.28</ele>
        <time>2018-11-08T07:38:14Z</time>
      </trkpt>
      <trkpt lat="37.1450880356" lon="-1.8646309711">
        <ele>45.80</ele>
        <time>2018-11-08T07:38:15Z</time>
      </trkpt>
      <trkpt lat="37.1450794023" lon="-1.8653051276">
        <ele>42.92</ele>
        <time>2018-11-08T07:38:21Z</time>
      </trkpt>
      <trkpt lat="37.1451003570" lon="-1.8654202949">
        <ele>41.95</ele>
        <time>2018-11-08T07:38:22Z</time>
      </trkpt>
      <trkpt lat="37.1453390736" lon="-1.8662511930">
        <ele>38.11</ele>
        <time>2018-11-08T07:38:29Z</time>
      </trkpt>
      <trkpt lat="37.1456842404" lon="-1.8675176147">
        <ele>35.23</ele>
        <time>2018-11-08T07:38:40Z</time>
      </trkpt>
      <trkpt lat="37.1459352784" lon="-1.8685386982">
        <ele>33.78</ele>
        <time>2018-11-08T07:38:50Z</time>
      </trkpt>
      <trkpt lat="37.1460910980" lon="-1.8691462185">
        <ele>33.78</ele>
        <time>2018-11-08T07:38:58Z</time>
      </trkpt>
      <trkpt lat="37.1461470891" lon="-1.8693972565">
        <ele>33.78</ele>
        <time>2018-11-08T07:39:02Z</time>
      </trkpt>
      <trkpt lat="37.1461950336" lon="-1.8695658166">
        <ele>33.78</ele>
        <time>2018-11-08T07:39:05Z</time>
      </trkpt>
      <trkpt lat="37.1463000588" lon="-1.8700068723">
        <ele>34.26</ele>
        <time>2018-11-08T07:39:14Z</time>
      </trkpt>
      <trkpt lat="37.1464397851" lon="-1.8705495168">
        <ele>33.78</ele>
        <time>2018-11-08T07:39:24Z</time>
      </trkpt>
      <trkpt lat="37.1466800943" lon="-1.8711448833">
        <ele>33.30</ele>
        <time>2018-11-08T07:39:34Z</time>
      </trkpt>
      <trkpt lat="37.1469580382" lon="-1.8717316166">
        <ele>33.78</ele>
        <time>2018-11-08T07:39:45Z</time>
      </trkpt>
      <trkpt lat="37.1471887082" lon="-1.8722151686">
        <ele>35.23</ele>
        <time>2018-11-08T07:39:54Z</time>
      </trkpt>
      <trkpt lat="37.1474425122" lon="-1.8727447372">
        <ele>38.11</ele>
        <time>2018-11-08T07:40:05Z</time>
      </trkpt>
      <trkpt lat="37.1476053726" lon="-1.8730851263">
        <ele>40.51</ele>
        <time>2018-11-08T07:40:13Z</time>
      </trkpt>
      <trkpt lat="37.1478030179" lon="-1.8734981027">
        <ele>42.44</ele>
        <time>2018-11-08T07:40:24Z</time>
      </trkpt>
      <trkpt lat="37.1479656268" lon="-1.8738111667">
        <ele>43.40</ele>
        <time>2018-11-08T07:40:33Z</time>
      </trkpt>
      <trkpt lat="37.1481024195" lon="-1.8740544096">
        <ele>43.88</ele>
        <time>2018-11-08T07:40:41Z</time>
      </trkpt>
      <trkpt lat="37.1482385416" lon="-1.8743123207">
        <ele>44.36</ele>
        <time>2018-11-08T07:40:49Z</time>
      </trkpt>
      <trkpt lat="37.1483710594" lon="-1.8745574914">
        <ele>45.32</ele>
        <time>2018-11-08T07:40:59Z</time>
      </trkpt>
      <trkpt lat="37.1484838799" lon="-1.8747421447">
        <ele>45.32</ele>
        <time>2018-11-08T07:41:08Z</time>
      </trkpt>
      <trkpt lat="37.1486507636" lon="-1.8750306498">
        <ele>44.84</ele>
        <time>2018-11-08T07:41:18Z</time>
      </trkpt>
      <trkpt lat="37.1487576328" lon="-1.8752122857">
        <ele>44.36</ele>
        <time>2018-11-08T07:41:26Z</time>
      </trkpt>
      <trkpt lat="37.1489130333" lon="-1.8754826859">
        <ele>44.36</ele>
        <time>2018-11-08T07:41:35Z</time>
      </trkpt>
      <trkpt lat="37.1490404382" lon="-1.8756941613">
        <ele>44.84</ele>
        <time>2018-11-08T07:41:43Z</time>
      </trkpt>
      <trkpt lat="37.1491548512" lon="-1.8759082351">
        <ele>44.84</ele>
        <time>2018-11-08T07:41:50Z</time>
      </trkpt>
      <trkpt lat="37.1493027080" lon="-1.8761773780">
        <ele>44.36</ele>
        <time>2018-11-08T07:41:59Z</time>
      </trkpt>
      <trkpt lat="37.1494544204" lon="-1.8764566630">
        <ele>44.84</ele>
        <time>2018-11-08T07:42:08Z</time>
      </trkpt>
      <trkpt lat="37.1496440191" lon="-1.8767873291">
        <ele>44.84</ele>
        <time>2018-11-08T07:42:18Z</time>
      </trkpt>
      <trkpt lat="37.1498767007" lon="-1.8771882355">
        <ele>44.36</ele>
        <time>2018-11-08T07:42:28Z</time>
      </trkpt>
      <trkpt lat="37.1501181833" lon="-1.8776187301">
        <ele>42.44</ele>
        <time>2018-11-08T07:42:36Z</time>
      </trkpt>
      <trkpt lat="37.1503789444" lon="-1.8780765496">
        <ele>39.07</ele>
        <time>2018-11-08T07:42:42Z</time>
      </trkpt>
      <trkpt lat="37.1507531125" lon="-1.8788214494">
        <ele>36.67</ele>
        <time>2018-11-08T07:42:50Z</time>
      </trkpt>
      <trkpt lat="37.1509118658" lon="-1.8792925961">
        <ele>36.67</ele>
        <time>2018-11-08T07:42:56Z</time>
      </trkpt>
      <trkpt lat="37.1510257758" lon="-1.8798542675">
        <ele>36.67</ele>
        <time>2018-11-08T07:43:05Z</time>
      </trkpt>
      <trkpt lat="37.1511433739" lon="-1.8804360554">
        <ele>36.19</ele>
        <time>2018-11-08T07:43:15Z</time>
      </trkpt>
      <trkpt lat="37.1512824297" lon="-1.8811407220">
        <ele>35.71</ele>
        <time>2018-11-08T07:43:27Z</time>
      </trkpt>
      <trkpt lat="37.1513977647" lon="-1.8817434646">
        <ele>36.19</ele>
        <time>2018-11-08T07:43:38Z</time>
      </trkpt>
      <trkpt lat="37.1515291091" lon="-1.8823892903">
        <ele>35.71</ele>
        <time>2018-11-08T07:43:50Z</time>
      </trkpt>
      <trkpt lat="37.1516508982" lon="-1.8830305059">
        <ele>36.67</ele>
        <time>2018-11-08T07:44:02Z</time>
      </trkpt>
      <trkpt lat="37.1517638024" lon="-1.8836215138">
        <ele>36.67</ele>
        <time>2018-11-08T07:44:13Z</time>
      </trkpt>
      <trkpt lat="37.1518663969" lon="-1.8842099234">
        <ele>37.63</ele>
        <time>2018-11-08T07:44:25Z</time>
      </trkpt>
      <trkpt lat="37.1519668121" lon="-1.8846963253">
        <ele>38.11</ele>
        <time>2018-11-08T07:44:35Z</time>
      </trkpt>
      <trkpt lat="37.1520677302" lon="-1.8852510396">
        <ele>38.59</ele>
        <time>2018-11-08T07:44:46Z</time>
      </trkpt>
      <trkpt lat="37.1522009186" lon="-1.8859329075">
        <ele>38.59</ele>
        <time>2018-11-08T07:44:59Z</time>
      </trkpt>
      <trkpt lat="37.1522398945" lon="-1.8860882241">
        <ele>38.59</ele>
        <time>2018-11-08T07:45:02Z</time>
      </trkpt>
      <trkpt lat="37.1522540599" lon="-1.8861406110">
        <ele>38.59</ele>
        <time>2018-11-08T07:45:03Z</time>
      </trkpt>
      <trkpt lat="37.1523921937" lon="-1.8867700920">
        <ele>39.07</ele>
        <time>2018-11-08T07:45:15Z</time>
      </trkpt>
      <trkpt lat="37.1524034254" lon="-1.8868263345">
        <ele>39.07</ele>
        <time>2018-11-08T07:45:16Z</time>
      </trkpt>
      <trkpt lat="37.1525241248" lon="-1.8874348607">
        <ele>39.07</ele>
        <time>2018-11-08T07:45:27Z</time>
      </trkpt>
      <trkpt lat="37.1526418068" lon="-1.8880624976">
        <ele>40.51</ele>
        <time>2018-11-08T07:45:38Z</time>
      </trkpt>
      <trkpt lat="37.1527445689" lon="-1.8886109255">
        <ele>40.99</ele>
        <time>2018-11-08T07:45:48Z</time>
      </trkpt>
      <trkpt lat="37.1528639272" lon="-1.8891563360">
        <ele>42.44</ele>
        <time>2018-11-08T07:45:59Z</time>
      </trkpt>
      <trkpt lat="37.1529587265" lon="-1.8896904308">
        <ele>43.40</ele>
        <time>2018-11-08T07:46:10Z</time>
      </trkpt>
      <trkpt lat="37.1529970318" lon="-1.8899474200">
        <ele>43.40</ele>
        <time>2018-11-08T07:46:15Z</time>
      </trkpt>
      <trkpt lat="37.1530316491" lon="-1.8901028205">
        <ele>43.88</ele>
        <time>2018-11-08T07:46:18Z</time>
      </trkpt>
      <trkpt lat="37.1531360038" lon="-1.8906256836">
        <ele>45.32</ele>
        <time>2018-11-08T07:46:28Z</time>
      </trkpt>
      <trkpt lat="37.1532361675" lon="-1.8912226427">
        <ele>45.80</ele>
        <time>2018-11-08T07:46:39Z</time>
      </trkpt>
      <trkpt lat="37.1533006243" lon="-1.8915017601">
        <ele>45.80</ele>
        <time>2018-11-08T07:46:46Z</time>
      </trkpt>
      <trkpt lat="37.1533634886" lon="-1.8918014970">
        <ele>46.76</ele>
        <time>2018-11-08T07:46:55Z</time>
      </trkpt>
      <trkpt lat="37.1534517501" lon="-1.8920716457">
        <ele>46.28</ele>
        <time>2018-11-08T07:47:02Z</time>
      </trkpt>
      <trkpt lat="37.1534689330" lon="-1.8920929357">
        <ele>46.28</ele>
        <time>2018-11-08T07:47:07Z</time>
      </trkpt>
      <trkpt lat="37.1534566116" lon="-1.8921079393">
        <ele>44.84</ele>
        <time>2018-11-08T07:47:21Z</time>
      </trkpt>
      <trkpt lat="37.1534644067" lon="-1.8921018206">
        <ele>44.36</ele>
        <time>2018-11-08T07:47:30Z</time>
      </trkpt>
      <trkpt lat="37.1534701064" lon="-1.8920968752">
        <ele>45.32</ele>
        <time>2018-11-08T07:47:39Z</time>
      </trkpt>
      <trkpt lat="37.1534759738" lon="-1.8920972943">
        <ele>45.32</ele>
        <time>2018-11-08T07:47:46Z</time>
      </trkpt>
      <trkpt lat="37.1534808353" lon="-1.8920942768">
        <ele>45.32</ele>
        <time>2018-11-08T07:47:54Z</time>
      </trkpt>
      <trkpt lat="37.1534885466" lon="-1.8920998089">
        <ele>46.76</ele>
        <time>2018-11-08T07:48:08Z</time>
      </trkpt>
      <trkpt lat="37.1534838527" lon="-1.8921014015">
        <ele>47.24</ele>
        <time>2018-11-08T07:48:25Z</time>
      </trkpt>
      <trkpt lat="37.1534821764" lon="-1.8920924328">
        <ele>47.24</ele>
        <time>2018-11-08T07:48:36Z</time>
      </trkpt>
      <trkpt lat="37.1534864511" lon="-1.8921044189">
        <ele>47.24</ele>
        <time>2018-11-08T07:48:38Z</time>
      </trkpt>
      <trkpt lat="37.1534944139" lon="-1.8921181653">
        <ele>47.24</ele>
        <time>2018-11-08T07:48:39Z</time>
      </trkpt>
      <trkpt lat="37.1535005327" lon="-1.8921360187">
        <ele>47.24</ele>
        <time>2018-11-08T07:48:40Z</time>
      </trkpt>
      <trkpt lat="37.1535053104" lon="-1.8921588175">
        <ele>47.24</ele>
        <time>2018-11-08T07:48:41Z</time>
      </trkpt>
      <trkpt lat="37.1535064839" lon="-1.8921862263">
        <ele>47.72</ele>
        <time>2018-11-08T07:48:42Z</time>
      </trkpt>
      <trkpt lat="37.1535085794" lon="-1.8922126293">
        <ele>47.72</ele>
        <time>2018-11-08T07:48:43Z</time>
      </trkpt>
      <trkpt lat="37.1535131894" lon="-1.8922371883">
        <ele>47.72</ele>
        <time>2018-11-08T07:48:44Z</time>
      </trkpt>
      <trkpt lat="37.1535153687" lon="-1.8922621664">
        <ele>47.72</ele>
        <time>2018-11-08T07:48:45Z</time>
      </trkpt>
      <trkpt lat="37.1535126865" lon="-1.8922899105">
        <ele>47.72</ele>
        <time>2018-11-08T07:48:46Z</time>
      </trkpt>
      <trkpt lat="37.1535090823" lon="-1.8923181575">
        <ele>47.72</ele>
        <time>2018-11-08T07:48:47Z</time>
      </trkpt>
      <trkpt lat="37.1535118483" lon="-1.8923646770">
        <ele>48.20</ele>
        <time>2018-11-08T07:48:49Z</time>
      </trkpt>
      <trkpt lat="37.1535191406" lon="-1.8923841231">
        <ele>48.68</ele>
        <time>2018-11-08T07:48:50Z</time>
      </trkpt>
      <trkpt lat="37.1535224095" lon="-1.8924047425">
        <ele>49.16</ele>
        <time>2018-11-08T07:48:51Z</time>
      </trkpt>
      <trkpt lat="37.1535234991" lon="-1.8924246076">
        <ele>49.16</ele>
        <time>2018-11-08T07:48:52Z</time>
      </trkpt>
      <trkpt lat="37.1535263490" lon="-1.8924442213">
        <ele>49.65</ele>
        <time>2018-11-08T07:48:53Z</time>
      </trkpt>
      <trkpt lat="37.1535283606" lon="-1.8924666848">
        <ele>49.65</ele>
        <time>2018-11-08T07:48:54Z</time>
      </trkpt>
      <trkpt lat="37.1535636485" lon="-1.8926813453">
        <ele>49.65</ele>
        <time>2018-11-08T07:49:01Z</time>
      </trkpt>
      <trkpt lat="37.1536360681" lon="-1.8929917272">
        <ele>50.61</ele>
        <time>2018-11-08T07:49:10Z</time>
      </trkpt>
      <trkpt lat="37.1537441947" lon="-1.8933721818">
        <ele>51.09</ele>
        <time>2018-11-08T07:49:20Z</time>
      </trkpt>
      <trkpt lat="37.1538169496" lon="-1.8936771154">
        <ele>52.05</ele>
        <time>2018-11-08T07:49:28Z</time>
      </trkpt>
      <trkpt lat="37.1538837533" lon="-1.8939693086">
        <ele>55.41</ele>
        <time>2018-11-08T07:49:36Z</time>
      </trkpt>
      <trkpt lat="37.1539763734" lon="-1.8943459913">
        <ele>57.82</ele>
        <time>2018-11-08T07:49:46Z</time>
      </trkpt>
      <trkpt lat="37.1540535707" lon="-1.8946308084">
        <ele>58.78</ele>
        <time>2018-11-08T07:49:54Z</time>
      </trkpt>
      <trkpt lat="37.1540972404" lon="-1.8947621528">
        <ele>60.22</ele>
        <time>2018-11-08T07:50:00Z</time>
      </trkpt>
      <trkpt lat="37.1540941391" lon="-1.8947630748">
        <ele>60.22</ele>
        <time>2018-11-08T07:50:12Z</time>
      </trkpt>
      <trkpt lat="37.1541207936" lon="-1.8948261905">
        <ele>60.22</ele>
        <time>2018-11-08T07:50:21Z</time>
      </trkpt>
      <trkpt lat="37.1541661397" lon="-1.8949556910">
        <ele>60.22</ele>
        <time>2018-11-08T07:50:29Z</time>
      </trkpt>
      <trkpt lat="37.1541697439" lon="-1.8949815072">
        <ele>60.70</ele>
        <time>2018-11-08T07:50:31Z</time>
      </trkpt>
      <trkpt lat="37.1541708335" lon="-1.8949971814">
        <ele>60.70</ele>
        <time>2018-11-08T07:50:32Z</time>
      </trkpt>
      <trkpt lat="37.1541722585" lon="-1.8950142805">
        <ele>60.70</ele>
        <time>2018-11-08T07:50:33Z</time>
      </trkpt>
      <trkpt lat="37.1541747730" lon="-1.8950352352">
        <ele>60.70</ele>
        <time>2018-11-08T07:50:34Z</time>
      </trkpt>
      <trkpt lat="37.1541831549" lon="-1.8950644881">
        <ele>60.70</ele>
        <time>2018-11-08T07:50:35Z</time>
      </trkpt>
      <trkpt lat="37.1541910339" lon="-1.8950944114">
        <ele>61.18</ele>
        <time>2018-11-08T07:50:36Z</time>
      </trkpt>
      <trkpt lat="37.1541989129" lon="-1.8951286934">
        <ele>61.18</ele>
        <time>2018-11-08T07:50:37Z</time>
      </trkpt>
      <trkpt lat="37.1542075463" lon="-1.8951615505">
        <ele>61.18</ele>
        <time>2018-11-08T07:50:38Z</time>
      </trkpt>
      <trkpt lat="37.1542620286" lon="-1.8954412546">
        <ele>63.58</ele>
        <time>2018-11-08T07:50:47Z</time>
      </trkpt>
      <trkpt lat="37.1542697400" lon="-1.8956941366">
        <ele>63.10</ele>
        <time>2018-11-08T07:50:55Z</time>
      </trkpt>
      <trkpt lat="37.1542545687" lon="-1.8959473539">
        <ele>62.14</ele>
        <time>2018-11-08T07:51:03Z</time>
      </trkpt>
      <trkpt lat="37.1542390622" lon="-1.8962853961">
        <ele>63.58</ele>
        <time>2018-11-08T07:51:12Z</time>
      </trkpt>
      <trkpt lat="37.1541991644" lon="-1.8965808582">
        <ele>64.07</ele>
        <time>2018-11-08T07:51:20Z</time>
      </trkpt>
      <trkpt lat="37.1541307680" lon="-1.8970759772">
        <ele>65.51</ele>
        <time>2018-11-08T07:51:32Z</time>
      </trkpt>
      <trkpt lat="37.1540783811" lon="-1.8975390773">
        <ele>65.99</ele>
        <time>2018-11-08T07:51:42Z</time>
      </trkpt>
      <trkpt lat="37.1540181991" lon="-1.8979761098">
        <ele>65.99</ele>
        <time>2018-11-08T07:51:51Z</time>
      </trkpt>
      <trkpt lat="37.1539264172" lon="-1.8985375296">
        <ele>66.95</ele>
        <time>2018-11-08T07:52:02Z</time>
      </trkpt>
      <trkpt lat="37.1537915524" lon="-1.8988929223">
        <ele>66.95</ele>
        <time>2018-11-08T07:52:10Z</time>
      </trkpt>
      <trkpt lat="37.1535608824" lon="-1.8992965110">
        <ele>66.47</ele>
        <time>2018-11-08T07:52:20Z</time>
      </trkpt>
      <trkpt lat="37.1533306316" lon="-1.8997188751">
        <ele>65.51</ele>
        <time>2018-11-08T07:52:29Z</time>
      </trkpt>
      <trkpt lat="37.1530592255" lon="-1.9003983960">
        <ele>65.51</ele>
        <time>2018-11-08T07:52:41Z</time>
      </trkpt>
      <trkpt lat="37.1528530307" lon="-1.9009280484">
        <ele>65.03</ele>
        <time>2018-11-08T07:52:50Z</time>
      </trkpt>
      <trkpt lat="37.1525752544" lon="-1.9015431125">
        <ele>64.07</ele>
        <time>2018-11-08T07:53:01Z</time>
      </trkpt>
      <trkpt lat="37.1523091290" lon="-1.9019396603">
        <ele>64.07</ele>
        <time>2018-11-08T07:53:09Z</time>
      </trkpt>
      <trkpt lat="37.1522711590" lon="-1.9019881915">
        <ele>64.07</ele>
        <time>2018-11-08T07:53:10Z</time>
      </trkpt>
      <trkpt lat="37.1519991662" lon="-1.9023353700">
        <ele>64.07</ele>
        <time>2018-11-08T07:53:18Z</time>
      </trkpt>
      <trkpt lat="37.1519660577" lon="-1.9023762736">
        <ele>64.07</ele>
        <time>2018-11-08T07:53:19Z</time>
      </trkpt>
      <trkpt lat="37.1516279317" lon="-1.9028391223">
        <ele>64.07</ele>
        <time>2018-11-08T07:53:29Z</time>
      </trkpt>
      <trkpt lat="37.1511917375" lon="-1.9034226704">
        <ele>63.10</ele>
        <time>2018-11-08T07:53:41Z</time>
      </trkpt>
      <trkpt lat="37.1507611591" lon="-1.9040063024">
        <ele>63.10</ele>
        <time>2018-11-08T07:53:53Z</time>
      </trkpt>
      <trkpt lat="37.1505222749" lon="-1.9044471066">
        <ele>63.10</ele>
        <time>2018-11-08T07:54:01Z</time>
      </trkpt>
      <trkpt lat="37.1503914334" lon="-1.9049789384">
        <ele>62.62</ele>
        <time>2018-11-08T07:54:10Z</time>
      </trkpt>
      <trkpt lat="37.1502822172" lon="-1.9055692758">
        <ele>63.10</ele>
        <time>2018-11-08T07:54:20Z</time>
      </trkpt>
      <trkpt lat="37.1502074506" lon="-1.9059566874">
        <ele>64.07</ele>
        <time>2018-11-08T07:54:28Z</time>
      </trkpt>
      <trkpt lat="37.1501077898" lon="-1.9064903632">
        <ele>63.58</ele>
        <time>2018-11-08T07:54:39Z</time>
      </trkpt>
      <trkpt lat="37.1500619408" lon="-1.9067439158">
        <ele>63.58</ele>
        <time>2018-11-08T07:54:44Z</time>
      </trkpt>
      <trkpt lat="37.1499345358" lon="-1.9074199162">
        <ele>63.58</ele>
        <time>2018-11-08T07:54:57Z</time>
      </trkpt>
      <trkpt lat="37.1498297621" lon="-1.9079641532">
        <ele>63.58</ele>
        <time>2018-11-08T07:55:07Z</time>
      </trkpt>
      <trkpt lat="37.1497086436" lon="-1.9086159300">
        <ele>64.07</ele>
        <time>2018-11-08T07:55:19Z</time>
      </trkpt>
      <trkpt lat="37.1496310271" lon="-1.9089173432">
        <ele>64.07</ele>
        <time>2018-11-08T07:55:27Z</time>
      </trkpt>
      <trkpt lat="37.1495128423" lon="-1.9092562236">
        <ele>64.07</ele>
        <time>2018-11-08T07:55:36Z</time>
      </trkpt>
      <trkpt lat="37.1493172925" lon="-1.9097770751">
        <ele>64.07</ele>
        <time>2018-11-08T07:55:48Z</time>
      </trkpt>
      <trkpt lat="37.1491285320" lon="-1.9102858566">
        <ele>64.55</ele>
        <time>2018-11-08T07:55:59Z</time>
      </trkpt>
      <trkpt lat="37.1490684338" lon="-1.9105067197">
        <ele>64.55</ele>
        <time>2018-11-08T07:56:06Z</time>
      </trkpt>
      <trkpt lat="37.1490681823" lon="-1.9104983378">
        <ele>64.07</ele>
        <time>2018-11-08T07:56:12Z</time>
      </trkpt>
      <trkpt lat="37.1490530111" lon="-1.9104926381">
        <ele>63.58</ele>
        <time>2018-11-08T07:56:34Z</time>
      </trkpt>
      <trkpt lat="37.1490477305" lon="-1.9104979187">
        <ele>63.58</ele>
        <time>2018-11-08T07:56:57Z</time>
      </trkpt>
      <trkpt lat="37.1490419470" lon="-1.9105026126">
        <ele>63.58</ele>
        <time>2018-11-08T07:57:14Z</time>
      </trkpt>
      <trkpt lat="37.1490303800" lon="-1.9105086476">
        <ele>63.58</ele>
        <time>2018-11-08T07:57:21Z</time>
      </trkpt>
      <trkpt lat="37.1490358282" lon="-1.9105332904">
        <ele>63.58</ele>
        <time>2018-11-08T07:57:29Z</time>
      </trkpt>
      <trkpt lat="37.1489684377" lon="-1.9106916245">
        <ele>64.07</ele>
        <time>2018-11-08T07:57:36Z</time>
      </trkpt>
      <trkpt lat="37.1488256939" lon="-1.9110317621">
        <ele>64.55</ele>
        <time>2018-11-08T07:57:44Z</time>
      </trkpt>
      <trkpt lat="37.1486140508" lon="-1.9115568046">
        <ele>65.03</ele>
        <time>2018-11-08T07:57:55Z</time>
      </trkpt>
      <trkpt lat="37.1485116240" lon="-1.9120351598">
        <ele>65.99</ele>
        <time>2018-11-08T07:58:04Z</time>
      </trkpt>
      <trkpt lat="37.1485090256" lon="-1.9123263471">
        <ele>66.47</ele>
        <time>2018-11-08T07:58:09Z</time>
      </trkpt>
      <trkpt lat="37.1485125460" lon="-1.9123861939">
        <ele>66.47</ele>
        <time>2018-11-08T07:58:10Z</time>
      </trkpt>
      <trkpt lat="37.1484900825" lon="-1.9130381383">
        <ele>66.95</ele>
        <time>2018-11-08T07:58:21Z</time>
      </trkpt>
      <trkpt lat="37.1483989712" lon="-1.9136205129">
        <ele>66.95</ele>
        <time>2018-11-08T07:58:31Z</time>
      </trkpt>
      <trkpt lat="37.1482956223" lon="-1.9140209164">
        <ele>67.43</ele>
        <time>2018-11-08T07:58:39Z</time>
      </trkpt>
      <trkpt lat="37.1481872443" lon="-1.9144448731">
        <ele>68.39</ele>
        <time>2018-11-08T07:58:49Z</time>
      </trkpt>
      <trkpt lat="37.1480450034" lon="-1.9149782974">
        <ele>69.83</ele>
        <time>2018-11-08T07:59:02Z</time>
      </trkpt>
      <trkpt lat="37.1479245555" lon="-1.9154411461">
        <ele>70.79</ele>
        <time>2018-11-08T07:59:13Z</time>
      </trkpt>
      <trkpt lat="37.1478064544" lon="-1.9158499315">
        <ele>72.24</ele>
        <time>2018-11-08T07:59:23Z</time>
      </trkpt>
      <trkpt lat="37.1477447636" lon="-1.9161037356">
        <ele>72.72</ele>
        <time>2018-11-08T07:59:30Z</time>
      </trkpt>
      <trkpt lat="37.1476759482" lon="-1.9165782351">
        <ele>74.16</ele>
        <time>2018-11-08T07:59:42Z</time>
      </trkpt>
      <trkpt lat="37.1476591006" lon="-1.9169452786">
        <ele>75.60</ele>
        <time>2018-11-08T07:59:51Z</time>
      </trkpt>
      <trkpt lat="37.1476562507" lon="-1.9173341990">
        <ele>76.08</ele>
        <time>2018-11-08T08:00:00Z</time>
      </trkpt>
      <trkpt lat="37.1476512216" lon="-1.9177811220">
        <ele>77.04</ele>
        <time>2018-11-08T08:00:11Z</time>
      </trkpt>
      <trkpt lat="37.1476428397" lon="-1.9181380235">
        <ele>78.00</ele>
        <time>2018-11-08T08:00:20Z</time>
      </trkpt>
      <trkpt lat="37.1476341225" lon="-1.9185020495">
        <ele>78.97</ele>
        <time>2018-11-08T08:00:29Z</time>
      </trkpt>
      <trkpt lat="37.1476176102" lon="-1.9188680034">
        <ele>79.93</ele>
        <time>2018-11-08T08:00:38Z</time>
      </trkpt>
      <trkpt lat="37.1475713421" lon="-1.9192830753">
        <ele>80.41</ele>
        <time>2018-11-08T08:00:48Z</time>
      </trkpt>
      <trkpt lat="37.1475202125" lon="-1.9197024219">
        <ele>80.41</ele>
        <time>2018-11-08T08:00:58Z</time>
      </trkpt>
      <trkpt lat="37.1474660654" lon="-1.9201867282">
        <ele>80.89</ele>
        <time>2018-11-08T08:01:09Z</time>
      </trkpt>
      <trkpt lat="37.1474168636" lon="-1.9206247665">
        <ele>82.33</ele>
        <time>2018-11-08T08:01:20Z</time>
      </trkpt>
      <trkpt lat="37.1473759599" lon="-1.9210006949">
        <ele>83.77</ele>
        <time>2018-11-08T08:01:29Z</time>
      </trkpt>
      <trkpt lat="37.1473099943" lon="-1.9215109851">
        <ele>85.21</ele>
        <time>2018-11-08T08:01:41Z</time>
      </trkpt>
      <trkpt lat="37.1472570207" lon="-1.9219690561">
        <ele>86.18</ele>
        <time>2018-11-08T08:01:52Z</time>
      </trkpt>
      <trkpt lat="37.1472149435" lon="-1.9223205931">
        <ele>87.14</ele>
        <time>2018-11-08T08:02:01Z</time>
      </trkpt>
      <trkpt lat="37.1471507382" lon="-1.9227113575">
        <ele>88.10</ele>
        <time>2018-11-08T08:02:11Z</time>
      </trkpt>
      <trkpt lat="37.1470504068" lon="-1.9230746292">
        <ele>87.62</ele>
        <time>2018-11-08T08:02:20Z</time>
      </trkpt>
      <trkpt lat="37.1469086688" lon="-1.9234725181">
        <ele>87.14</ele>
        <time>2018-11-08T08:02:29Z</time>
      </trkpt>
      <trkpt lat="37.1467476524" lon="-1.9239241350">
        <ele>87.14</ele>
        <time>2018-11-08T08:02:39Z</time>
      </trkpt>
      <trkpt lat="37.1465783380" lon="-1.9244069327">
        <ele>87.14</ele>
        <time>2018-11-08T08:02:49Z</time>
      </trkpt>
      <trkpt lat="37.1464140527" lon="-1.9248182327">
        <ele>86.66</ele>
        <time>2018-11-08T08:02:58Z</time>
      </trkpt>
      <trkpt lat="37.1462289803" lon="-1.9252145290">
        <ele>85.21</ele>
        <time>2018-11-08T08:03:08Z</time>
      </trkpt>
      <trkpt lat="37.1460369509" lon="-1.9255890325">
        <ele>83.29</ele>
        <time>2018-11-08T08:03:15Z</time>
      </trkpt>
      <trkpt lat="37.1457497869" lon="-1.9261626899">
        <ele>80.41</ele>
        <time>2018-11-08T08:03:23Z</time>
      </trkpt>
      <trkpt lat="37.1457058657" lon="-1.9262304995">
        <ele>80.41</ele>
        <time>2018-11-08T08:03:24Z</time>
      </trkpt>
      <trkpt lat="37.1456543170" lon="-1.9262951240">
        <ele>79.93</ele>
        <time>2018-11-08T08:03:25Z</time>
      </trkpt>
      <trkpt lat="37.1455992479" lon="-1.9263536297">
        <ele>79.45</ele>
        <time>2018-11-08T08:03:26Z</time>
      </trkpt>
      <trkpt lat="37.1455348749" lon="-1.9264038373">
        <ele>79.45</ele>
        <time>2018-11-08T08:03:27Z</time>
      </trkpt>
      <trkpt lat="37.1454675682" lon="-1.9264485128">
        <ele>78.97</ele>
        <time>2018-11-08T08:03:28Z</time>
      </trkpt>
      <trkpt lat="37.1451652329" lon="-1.9266446494">
        <ele>78.97</ele>
        <time>2018-11-08T08:03:33Z</time>
      </trkpt>
      <trkpt lat="37.1451196354" lon="-1.9267051667">
        <ele>79.45</ele>
        <time>2018-11-08T08:03:34Z</time>
      </trkpt>
      <trkpt lat="37.1450909693" lon="-1.9267599843">
        <ele>79.45</ele>
        <time>2018-11-08T08:03:35Z</time>
      </trkpt>
      <trkpt lat="37.1450683381" lon="-1.9268163107">
        <ele>79.93</ele>
        <time>2018-11-08T08:03:36Z</time>
      </trkpt>
      <trkpt lat="37.1450523287" lon="-1.9268673565">
        <ele>80.41</ele>
        <time>2018-11-08T08:03:37Z</time>
      </trkpt>
      <trkpt lat="37.1450427733" lon="-1.9269165583">
        <ele>80.89</ele>
        <time>2018-11-08T08:03:38Z</time>
      </trkpt>
      <trkpt lat="37.1450340562" lon="-1.9269652572">
        <ele>81.37</ele>
        <time>2018-11-08T08:03:39Z</time>
      </trkpt>
      <trkpt lat="37.1449686773" lon="-1.9273573626">
        <ele>84.25</ele>
        <time>2018-11-08T08:03:47Z</time>
      </trkpt>
      <trkpt lat="37.1448440384" lon="-1.9277263340">
        <ele>86.18</ele>
        <time>2018-11-08T08:03:56Z</time>
      </trkpt>
      <trkpt lat="37.1446686052" lon="-1.9280591793">
        <ele>86.18</ele>
        <time>2018-11-08T08:04:04Z</time>
      </trkpt>
      <trkpt lat="37.1445033140" lon="-1.9283720758">
        <ele>86.18</ele>
        <time>2018-11-08T08:04:12Z</time>
      </trkpt>
      <trkpt lat="37.1443081833" lon="-1.9287462439">
        <ele>85.69</ele>
        <time>2018-11-08T08:04:22Z</time>
      </trkpt>
      <trkpt lat="37.1440776810" lon="-1.9291702006">
        <ele>84.25</ele>
        <time>2018-11-08T08:04:33Z</time>
      </trkpt>
      <trkpt lat="37.1439069416" lon="-1.9294825103">
        <ele>83.77</ele>
        <time>2018-11-08T08:04:42Z</time>
      </trkpt>
      <trkpt lat="37.1437939536" lon="-1.9297040440">
        <ele>83.77</ele>
        <time>2018-11-08T08:04:50Z</time>
      </trkpt>
      <trkpt lat="37.1436135750" lon="-1.9300374761">
        <ele>83.29</ele>
        <time>2018-11-08T08:05:01Z</time>
      </trkpt>
      <trkpt lat="37.1433823183" lon="-1.9304878358">
        <ele>81.85</ele>
        <time>2018-11-08T08:05:11Z</time>
      </trkpt>
      <trkpt lat="37.1431617066" lon="-1.9310934283">
        <ele>80.41</ele>
        <time>2018-11-08T08:05:22Z</time>
      </trkpt>
      <trkpt lat="37.1431529894" lon="-1.9311541971">
        <ele>80.41</ele>
        <time>2018-11-08T08:05:23Z</time>
      </trkpt>
      <trkpt lat="37.1431477088" lon="-1.9312104397">
        <ele>80.41</ele>
        <time>2018-11-08T08:05:24Z</time>
      </trkpt>
      <trkpt lat="37.1431471221" lon="-1.9312671851">
        <ele>79.93</ele>
        <time>2018-11-08T08:05:25Z</time>
      </trkpt>
      <trkpt lat="37.1431541629" lon="-1.9313173927">
        <ele>79.93</ele>
        <time>2018-11-08T08:05:26Z</time>
      </trkpt>
      <trkpt lat="37.1431657299" lon="-1.9313661754">
        <ele>79.93</ele>
        <time>2018-11-08T08:05:27Z</time>
      </trkpt>
      <trkpt lat="37.1431845054" lon="-1.9314097613">
        <ele>79.93</ele>
        <time>2018-11-08T08:05:28Z</time>
      </trkpt>
      <trkpt lat="37.1432048734" lon="-1.9314478990">
        <ele>79.93</ele>
        <time>2018-11-08T08:05:29Z</time>
      </trkpt>
      <trkpt lat="37.1433689073" lon="-1.9317803252">
        <ele>80.89</ele>
        <time>2018-11-08T08:05:37Z</time>
      </trkpt>
      <trkpt lat="37.1434984077" lon="-1.9320521504">
        <ele>81.37</ele>
        <time>2018-11-08T08:05:43Z</time>
      </trkpt>
      <trkpt lat="37.1435093880" lon="-1.9320984185">
        <ele>81.85</ele>
        <time>2018-11-08T08:05:44Z</time>
      </trkpt>
      <trkpt lat="37.1434987430" lon="-1.9322757795">
        <ele>82.81</ele>
        <time>2018-11-08T08:05:49Z</time>
      </trkpt>
      <trkpt lat="37.1434456855" lon="-1.9323384762">
        <ele>83.29</ele>
        <time>2018-11-08T08:05:54Z</time>
      </trkpt>
      <trkpt lat="37.1434352919" lon="-1.9323477801">
        <ele>83.77</ele>
        <time>2018-11-08T08:05:55Z</time>
      </trkpt>
      <trkpt lat="37.1434236411" lon="-1.9323567487">
        <ele>83.77</ele>
        <time>2018-11-08T08:05:56Z</time>
      </trkpt>
      <trkpt lat="37.1434109844" lon="-1.9323693216">
        <ele>84.25</ele>
        <time>2018-11-08T08:05:57Z</time>
      </trkpt>
      <trkpt lat="37.1433986630" lon="-1.9323839061">
        <ele>84.25</ele>
        <time>2018-11-08T08:05:58Z</time>
      </trkpt>
      <trkpt lat="37.1433877666" lon="-1.9323969819">
        <ele>84.25</ele>
        <time>2018-11-08T08:05:59Z</time>
      </trkpt>
      <trkpt lat="37.1432368085" lon="-1.9325528853">
        <ele>85.69</ele>
        <time>2018-11-08T08:06:08Z</time>
      </trkpt>
      <trkpt lat="37.1430047974" lon="-1.9327935297">
        <ele>87.62</ele>
        <time>2018-11-08T08:06:18Z</time>
      </trkpt>
      <trkpt lat="37.1428602934" lon="-1.9329488464">
        <ele>89.54</ele>
        <time>2018-11-08T08:06:26Z</time>
      </trkpt>
      <trkpt lat="37.1428541746" lon="-1.9329703040">
        <ele>89.54</ele>
        <time>2018-11-08T08:06:28Z</time>
      </trkpt>
      <trkpt lat="37.1428302862" lon="-1.9330060109">
        <ele>89.54</ele>
        <time>2018-11-08T08:06:36Z</time>
      </trkpt>
      <trkpt lat="37.1428284422" lon="-1.9330124650">
        <ele>88.58</ele>
        <time>2018-11-08T08:06:49Z</time>
      </trkpt>
      <trkpt lat="37.1428372432" lon="-1.9330264628">
        <ele>88.10</ele>
        <time>2018-11-08T08:07:04Z</time>
      </trkpt>
      <trkpt lat="37.1428312082" lon="-1.9330219366">
        <ele>87.14</ele>
        <time>2018-11-08T08:07:25Z</time>
      </trkpt>
      <trkpt lat="37.1428296156" lon="-1.9330120459">
        <ele>87.14</ele>
        <time>2018-11-08T08:07:39Z</time>
      </trkpt>
      <trkpt lat="37.1428325493" lon="-1.9330070168">
        <ele>89.54</ele>
        <time>2018-11-08T08:07:56Z</time>
      </trkpt>
      <trkpt lat="37.1428376622" lon="-1.9330077711">
        <ele>88.10</ele>
        <time>2018-11-08T08:08:10Z</time>
      </trkpt>
      <trkpt lat="37.1428281069" lon="-1.9330114592">
        <ele>87.62</ele>
        <time>2018-11-08T08:08:26Z</time>
      </trkpt>
      <trkpt lat="37.1428358182" lon="-1.9330055919">
        <ele>87.62</ele>
        <time>2018-11-08T08:08:45Z</time>
      </trkpt>
      <trkpt lat="37.1428266820" lon="-1.9330117945">
        <ele>86.66</ele>
        <time>2018-11-08T08:09:07Z</time>
      </trkpt>
      <trkpt lat="37.1428353991" lon="-1.9330190029">
        <ele>86.66</ele>
        <time>2018-11-08T08:09:22Z</time>
      </trkpt>
      <trkpt lat="37.1428220719" lon="-1.9330274686">
        <ele>87.14</ele>
        <time>2018-11-08T08:09:38Z</time>
      </trkpt>
      <trkpt lat="37.1428193897" lon="-1.9330304861">
        <ele>87.62</ele>
        <time>2018-11-08T08:09:55Z</time>
      </trkpt>
      <trkpt lat="37.1428258438" lon="-1.9330118783">
        <ele>88.58</ele>
        <time>2018-11-08T08:10:13Z</time>
      </trkpt>
      <trkpt lat="37.1428217366" lon="-1.9330313243">
        <ele>87.62</ele>
        <time>2018-11-08T08:10:34Z</time>
      </trkpt>
      <trkpt lat="37.1428288613" lon="-1.9330138899">
        <ele>87.62</ele>
        <time>2018-11-08T08:10:56Z</time>
      </trkpt>
      <trkpt lat="37.1428340580" lon="-1.9330277201">
        <ele>86.66</ele>
        <time>2018-11-08T08:11:13Z</time>
      </trkpt>
      <trkpt lat="37.1428279392" lon="-1.9330226909">
        <ele>86.66</ele>
        <time>2018-11-08T08:11:29Z</time>
      </trkpt>
      <trkpt lat="37.1428343095" lon="-1.9330268819">
        <ele>86.18</ele>
        <time>2018-11-08T08:11:45Z</time>
      </trkpt>
      <trkpt lat="37.1428386681" lon="-1.9330220204">
        <ele>86.18</ele>
        <time>2018-11-08T08:11:58Z</time>
      </trkpt>
      <trkpt lat="37.1428379137" lon="-1.9330096990">
        <ele>86.66</ele>
        <time>2018-11-08T08:12:15Z</time>
      </trkpt>
      <trkpt lat="37.1428383328" lon="-1.9330222718">
        <ele>86.66</ele>
        <time>2018-11-08T08:12:31Z</time>
      </trkpt>
      <trkpt lat="37.1428390872" lon="-1.9330190029">
        <ele>90.02</ele>
        <time>2018-11-08T08:12:49Z</time>
      </trkpt>
      <trkpt lat="37.1428426914" lon="-1.9330083579">
        <ele>91.94</ele>
        <time>2018-11-08T08:13:05Z</time>
      </trkpt>
      <trkpt lat="37.1428295318" lon="-1.9330153149">
        <ele>90.50</ele>
        <time>2018-11-08T08:13:21Z</time>
      </trkpt>
      <trkpt lat="37.1428493969" lon="-1.9330106210">
        <ele>90.02</ele>
        <time>2018-11-08T08:13:39Z</time>
      </trkpt>
      <trkpt lat="37.1428300347" lon="-1.9330205955">
        <ele>88.58</ele>
        <time>2018-11-08T08:13:50Z</time>
      </trkpt>
      <trkpt lat="37.1428314596" lon="-1.9330138061">
        <ele>88.10</ele>
        <time>2018-11-08T08:14:06Z</time>
      </trkpt>
      <trkpt lat="37.1428287774" lon="-1.9330128003">
        <ele>88.10</ele>
        <time>2018-11-08T08:14:20Z</time>
      </trkpt>
      <trkpt lat="37.1428428590" lon="-1.9330024067">
        <ele>88.58</ele>
        <time>2018-11-08T08:14:36Z</time>
      </trkpt>
      <trkpt lat="37.1428388357" lon="-1.9329946116">
        <ele>88.10</ele>
        <time>2018-11-08T08:14:52Z</time>
      </trkpt>
      <trkpt lat="37.1428185515" lon="-1.9330091123">
        <ele>88.10</ele>
        <time>2018-11-08T08:15:00Z</time>
      </trkpt>
      <trkpt lat="37.1427936573" lon="-1.9330110401">
        <ele>89.06</ele>
        <time>2018-11-08T08:15:07Z</time>
      </trkpt>
      <trkpt lat="37.1427929867" lon="-1.9330157340">
        <ele>88.58</ele>
        <time>2018-11-08T08:15:10Z</time>
      </trkpt>
      <trkpt lat="37.1427850239" lon="-1.9330253731">
        <ele>88.58</ele>
        <time>2018-11-08T08:15:11Z</time>
      </trkpt>
      <trkpt lat="37.1427757200" lon="-1.9330340065">
        <ele>88.58</ele>
        <time>2018-11-08T08:15:12Z</time>
      </trkpt>
      <trkpt lat="37.1427651588" lon="-1.9330437295">
        <ele>89.06</ele>
        <time>2018-11-08T08:15:13Z</time>
      </trkpt>
      <trkpt lat="37.1427534241" lon="-1.9330573082">
        <ele>89.06</ele>
        <time>2018-11-08T08:15:14Z</time>
      </trkpt>
      <trkpt lat="37.1427430306" lon="-1.9330733176">
        <ele>89.06</ele>
        <time>2018-11-08T08:15:15Z</time>
      </trkpt>
      <trkpt lat="37.1427297033" lon="-1.9330879860">
        <ele>89.06</ele>
        <time>2018-11-08T08:15:16Z</time>
      </trkpt>
      <trkpt lat="37.1427138615" lon="-1.9331001397">
        <ele>89.06</ele>
        <time>2018-11-08T08:15:17Z</time>
      </trkpt>
      <trkpt lat="37.1426974330" lon="-1.9331142213">
        <ele>89.06</ele>
        <time>2018-11-08T08:15:18Z</time>
      </trkpt>
      <trkpt lat="37.1426821779" lon="-1.9331313204">
        <ele>89.06</ele>
        <time>2018-11-08T08:15:19Z</time>
      </trkpt>
      <trkpt lat="37.1426657494" lon="-1.9331496768">
        <ele>89.54</ele>
        <time>2018-11-08T08:15:20Z</time>
      </trkpt>
      <trkpt lat="37.1426484827" lon="-1.9331651833">
        <ele>89.54</ele>
        <time>2018-11-08T08:15:21Z</time>
      </trkpt>
      <trkpt lat="37.1425052360" lon="-1.9333157223">
        <ele>90.50</ele>
        <time>2018-11-08T08:15:30Z</time>
      </trkpt>
      <trkpt lat="37.1423444711" lon="-1.9335390162">
        <ele>92.42</ele>
        <time>2018-11-08T08:15:41Z</time>
      </trkpt>
      <trkpt lat="37.1422607359" lon="-1.9338041358">
        <ele>95.79</ele>
        <time>2018-11-08T08:15:51Z</time>
      </trkpt>
      <trkpt lat="37.1422134619" lon="-1.9340637233">
        <ele>98.19</ele>
        <time>2018-11-08T08:16:01Z</time>
      </trkpt>
      <trkpt lat="37.1421770006" lon="-1.9343248196">
        <ele>100.60</ele>
        <time>2018-11-08T08:16:11Z</time>
      </trkpt>
      <trkpt lat="37.1421754919" lon="-1.9346211199">
        <ele>101.56</ele>
        <time>2018-11-08T08:16:22Z</time>
      </trkpt>
      <trkpt lat="37.1422729734" lon="-1.9348705653">
        <ele>103.00</ele>
        <time>2018-11-08T08:16:33Z</time>
      </trkpt>
      <trkpt lat="37.1424369235" lon="-1.9350665342">
        <ele>104.44</ele>
        <time>2018-11-08T08:16:44Z</time>
      </trkpt>
      <trkpt lat="37.1426413581" lon="-1.9352236111">
        <ele>105.40</ele>
        <time>2018-11-08T08:16:55Z</time>
      </trkpt>
      <trkpt lat="37.1427870356" lon="-1.9353433885">
        <ele>106.36</ele>
        <time>2018-11-08T08:17:04Z</time>
      </trkpt>
      <trkpt lat="37.1429827530" lon="-1.9354954362">
        <ele>107.32</ele>
        <time>2018-11-08T08:17:15Z</time>
      </trkpt>
      <trkpt lat="37.1431503072" lon="-1.9356230926">
        <ele>109.25</ele>
        <time>2018-11-08T08:17:25Z</time>
      </trkpt>
      <trkpt lat="37.1432892792" lon="-1.9357232563">
        <ele>110.21</ele>
        <time>2018-11-08T08:17:33Z</time>
      </trkpt>
      <trkpt lat="37.1434745193" lon="-1.9358188100">
        <ele>111.65</ele>
        <time>2018-11-08T08:17:43Z</time>
      </trkpt>
      <trkpt lat="37.1436755173" lon="-1.9359003659">
        <ele>112.61</ele>
        <time>2018-11-08T08:17:54Z</time>
      </trkpt>
      <trkpt lat="37.1438646968" lon="-1.9359545130">
        <ele>114.53</ele>
        <time>2018-11-08T08:18:04Z</time>
      </trkpt>
      <trkpt lat="37.1440820396" lon="-1.9360227417">
        <ele>116.46</ele>
        <time>2018-11-08T08:18:15Z</time>
      </trkpt>
      <trkpt lat="37.1442783438" lon="-1.9360971730">
        <ele>117.90</ele>
        <time>2018-11-08T08:18:25Z</time>
      </trkpt>
      <trkpt lat="37.1444930043" lon="-1.9362534955">
        <ele>119.34</ele>
        <time>2018-11-08T08:18:37Z</time>
      </trkpt>
      <trkpt lat="37.1446397714" lon="-1.9364187028">
        <ele>118.86</ele>
        <time>2018-11-08T08:18:45Z</time>
      </trkpt>
      <trkpt lat="37.1448152885" lon="-1.9366110675">
        <ele>118.38</ele>
        <time>2018-11-08T08:18:54Z</time>
      </trkpt>
      <trkpt lat="37.1450696792" lon="-1.9368880056">
        <ele>119.82</ele>
        <time>2018-11-08T08:19:06Z</time>
      </trkpt>
      <trkpt lat="37.1453073062" lon="-1.9371535443">
        <ele>121.26</ele>
        <time>2018-11-08T08:19:17Z</time>
      </trkpt>
      <trkpt lat="37.1454448532" lon="-1.9373101182">
        <ele>122.22</ele>
        <time>2018-11-08T08:19:25Z</time>
      </trkpt>
      <trkpt lat="37.1456806362" lon="-1.9375714660">
        <ele>122.71</ele>
        <time>2018-11-08T08:19:37Z</time>
      </trkpt>
      <trkpt lat="37.1459415648" lon="-1.9379261881">
        <ele>124.15</ele>
        <time>2018-11-08T08:19:50Z</time>
      </trkpt>
      <trkpt lat="37.1460520383" lon="-1.9382500648">
        <ele>124.15</ele>
        <time>2018-11-08T08:20:00Z</time>
      </trkpt>
      <trkpt lat="37.1460767649" lon="-1.9384980854">
        <ele>124.63</ele>
        <time>2018-11-08T08:20:09Z</time>
      </trkpt>
      <trkpt lat="37.1460959595" lon="-1.9387857523">
        <ele>124.63</ele>
        <time>2018-11-08T08:20:18Z</time>
      </trkpt>
      <trkpt lat="37.1461134776" lon="-1.9390662108">
        <ele>125.11</ele>
        <time>2018-11-08T08:20:27Z</time>
      </trkpt>
      <trkpt lat="37.1461263858" lon="-1.9394342601">
        <ele>124.63</ele>
        <time>2018-11-08T08:20:38Z</time>
      </trkpt>
      <trkpt lat="37.1461472567" lon="-1.9397065882">
        <ele>125.11</ele>
        <time>2018-11-08T08:20:46Z</time>
      </trkpt>
      <trkpt lat="37.1461728215" lon="-1.9399386831">
        <ele>125.59</ele>
        <time>2018-11-08T08:20:54Z</time>
      </trkpt>
      <trkpt lat="37.1462597419" lon="-1.9402595423">
        <ele>126.55</ele>
        <time>2018-11-08T08:21:04Z</time>
      </trkpt>
      <trkpt lat="37.1464547887" lon="-1.9405927230">
        <ele>127.03</ele>
        <time>2018-11-08T08:21:15Z</time>
      </trkpt>
      <trkpt lat="37.1466111112" lon="-1.9407932181">
        <ele>127.03</ele>
        <time>2018-11-08T08:21:23Z</time>
      </trkpt>
      <trkpt lat="37.1468105167" lon="-1.9410412386">
        <ele>127.99</ele>
        <time>2018-11-08T08:21:33Z</time>
      </trkpt>
      <trkpt lat="37.1470679250" lon="-1.9413447473">
        <ele>128.47</ele>
        <time>2018-11-08T08:21:45Z</time>
      </trkpt>
      <trkpt lat="37.1472029574" lon="-1.9415003993">
        <ele>128.47</ele>
        <time>2018-11-08T08:21:52Z</time>
      </trkpt>
      <trkpt lat="37.1474200487" lon="-1.9417490903">
        <ele>129.43</ele>
        <time>2018-11-08T08:22:01Z</time>
      </trkpt>
      <trkpt lat="37.1477056202" lon="-1.9421274494">
        <ele>130.40</ele>
        <time>2018-11-08T08:22:11Z</time>
      </trkpt>
      <trkpt lat="37.1480317600" lon="-1.9426632207">
        <ele>130.40</ele>
        <time>2018-11-08T08:22:23Z</time>
      </trkpt>
      <trkpt lat="37.1483136434" lon="-1.9430015981">
        <ele>130.88</ele>
        <time>2018-11-08T08:22:32Z</time>
      </trkpt>
      <trkpt lat="37.1486110333" lon="-1.9432884268">
        <ele>130.88</ele>
        <time>2018-11-08T08:22:41Z</time>
      </trkpt>
      <trkpt lat="37.1489522606" lon="-1.9435785245">
        <ele>132.80</ele>
        <time>2018-11-08T08:22:51Z</time>
      </trkpt>
      <trkpt lat="37.1492413525" lon="-1.9438035786">
        <ele>134.72</ele>
        <time>2018-11-08T08:23:01Z</time>
      </trkpt>
      <trkpt lat="37.1495575178" lon="-1.9440437201">
        <ele>137.61</ele>
        <time>2018-11-08T08:23:13Z</time>
      </trkpt>
      <trkpt lat="37.1497562528" lon="-1.9441851228">
        <ele>138.09</ele>
        <time>2018-11-08T08:23:21Z</time>
      </trkpt>
      <trkpt lat="37.1500191931" lon="-1.9443861209">
        <ele>138.57</ele>
        <time>2018-11-08T08:23:31Z</time>
      </trkpt>
      <trkpt lat="37.1501921117" lon="-1.9444969296">
        <ele>139.05</ele>
        <time>2018-11-08T08:23:38Z</time>
      </trkpt>
      <trkpt lat="37.1504821256" lon="-1.9446778949">
        <ele>140.49</ele>
        <time>2018-11-08T08:23:48Z</time>
      </trkpt>
      <trkpt lat="37.1506232768" lon="-1.9447324611">
        <ele>140.97</ele>
        <time>2018-11-08T08:23:55Z</time>
      </trkpt>
      <trkpt lat="37.1508115344" lon="-1.9447940681">
        <ele>141.93</ele>
        <time>2018-11-08T08:24:03Z</time>
      </trkpt>
      <trkpt lat="37.1510709543" lon="-1.9448662363">
        <ele>141.93</ele>
        <time>2018-11-08T08:24:13Z</time>
      </trkpt>
      <trkpt lat="37.1513062343" lon="-1.9449380692">
        <ele>140.97</ele>
        <time>2018-11-08T08:24:21Z</time>
      </trkpt>
      <trkpt lat="37.1516526584" lon="-1.9450668991">
        <ele>140.49</ele>
        <time>2018-11-08T08:24:31Z</time>
      </trkpt>
      <trkpt lat="37.1520875953" lon="-1.9452398177">
        <ele>139.53</ele>
        <time>2018-11-08T08:24:42Z</time>
      </trkpt>
      <trkpt lat="37.1523823868" lon="-1.9454185199">
        <ele>139.05</ele>
        <time>2018-11-08T08:24:51Z</time>
      </trkpt>
      <trkpt lat="37.1526423935" lon="-1.9456964638">
        <ele>139.53</ele>
        <time>2018-11-08T08:25:00Z</time>
      </trkpt>
      <trkpt lat="37.1528541204" lon="-1.9460112043">
        <ele>138.09</ele>
        <time>2018-11-08T08:25:09Z</time>
      </trkpt>
      <trkpt lat="37.1531151328" lon="-1.9463624898">
        <ele>137.61</ele>
        <time>2018-11-08T08:25:19Z</time>
      </trkpt>
      <trkpt lat="37.1533786599" lon="-1.9465861190">
        <ele>137.61</ele>
        <time>2018-11-08T08:25:28Z</time>
      </trkpt>
      <trkpt lat="37.1536710206" lon="-1.9466850255">
        <ele>137.13</ele>
        <time>2018-11-08T08:25:35Z</time>
      </trkpt>
      <trkpt lat="37.1540595219" lon="-1.9467727840">
        <ele>138.09</ele>
        <time>2018-11-08T08:25:44Z</time>
      </trkpt>
      <trkpt lat="37.1545217000" lon="-1.9468962494">
        <ele>139.05</ele>
        <time>2018-11-08T08:25:56Z</time>
      </trkpt>
      <trkpt lat="37.1548207663" lon="-1.9470408373">
        <ele>139.53</ele>
        <time>2018-11-08T08:26:04Z</time>
      </trkpt>
      <trkpt lat="37.1552924160" lon="-1.9473181106">
        <ele>141.45</ele>
        <time>2018-11-08T08:26:17Z</time>
      </trkpt>
      <trkpt lat="37.1555566136" lon="-1.9474804681">
        <ele>143.37</ele>
        <time>2018-11-08T08:26:26Z</time>
      </trkpt>
      <trkpt lat="37.1558287740" lon="-1.9476457592">
        <ele>144.82</ele>
        <time>2018-11-08T08:26:35Z</time>
      </trkpt>
      <trkpt lat="37.1560944803" lon="-1.9478012435">
        <ele>146.74</ele>
        <time>2018-11-08T08:26:45Z</time>
      </trkpt>
      <trkpt lat="37.1563183609" lon="-1.9479359407">
        <ele>147.22</ele>
        <time>2018-11-08T08:26:54Z</time>
      </trkpt>
      <trkpt lat="37.1566021722" lon="-1.9481241982">
        <ele>148.66</ele>
        <time>2018-11-08T08:27:06Z</time>
      </trkpt>
      <trkpt lat="37.1568325069" lon="-1.9482776709">
        <ele>149.14</ele>
        <time>2018-11-08T08:27:16Z</time>
      </trkpt>
      <trkpt lat="37.1570756659" lon="-1.9484522659">
        <ele>150.58</ele>
        <time>2018-11-08T08:27:27Z</time>
      </trkpt>
      <trkpt lat="37.1572330780" lon="-1.9486112706">
        <ele>151.06</ele>
        <time>2018-11-08T08:27:35Z</time>
      </trkpt>
      <trkpt lat="37.1573840361" lon="-1.9488161243">
        <ele>152.99</ele>
        <time>2018-11-08T08:27:44Z</time>
      </trkpt>
      <trkpt lat="37.1575400233" lon="-1.9490188826">
        <ele>154.43</ele>
        <time>2018-11-08T08:27:54Z</time>
      </trkpt>
      <trkpt lat="37.1577686816" lon="-1.9490791485">
        <ele>155.39</ele>
        <time>2018-11-08T08:28:02Z</time>
      </trkpt>
      <trkpt lat="37.1579745412" lon="-1.9492061343">
        <ele>156.35</ele>
        <time>2018-11-08T08:28:10Z</time>
      </trkpt>
      <trkpt lat="37.1582173649" lon="-1.9491688348">
        <ele>156.83</ele>
        <time>2018-11-08T08:28:18Z</time>
      </trkpt>
      <trkpt lat="37.1584601887" lon="-1.9490903802">
        <ele>156.83</ele>
        <time>2018-11-08T08:28:26Z</time>
      </trkpt>
      <trkpt lat="37.1587853227" lon="-1.9489707705">
        <ele>156.35</ele>
        <time>2018-11-08T08:28:35Z</time>
      </trkpt>
      <trkpt lat="37.1591936890" lon="-1.9488394260">
        <ele>156.83</ele>
        <time>2018-11-08T08:28:45Z</time>
      </trkpt>
      <trkpt lat="37.1595597267" lon="-1.9486844447">
        <ele>156.35</ele>
        <time>2018-11-08T08:28:54Z</time>
      </trkpt>
      <trkpt lat="37.1599593759" lon="-1.9484054949">
        <ele>156.83</ele>
        <time>2018-11-08T08:29:05Z</time>
      </trkpt>
      <trkpt lat="37.1602495573" lon="-1.9481081888">
        <ele>157.31</ele>
        <time>2018-11-08T08:29:14Z</time>
      </trkpt>
      <trkpt lat="37.1603972465" lon="-1.9479317497">
        <ele>157.79</ele>
        <time>2018-11-08T08:29:19Z</time>
      </trkpt>
      <trkpt lat="37.1606374718" lon="-1.9475092180">
        <ele>157.79</ele>
        <time>2018-11-08T08:29:29Z</time>
      </trkpt>
      <trkpt lat="37.1607828978" lon="-1.9472448528">
        <ele>157.79</ele>
        <time>2018-11-08T08:29:35Z</time>
      </trkpt>
      <trkpt lat="37.1610226203" lon="-1.9468439464">
        <ele>157.31</ele>
        <time>2018-11-08T08:29:44Z</time>
      </trkpt>
      <trkpt lat="37.1613104548" lon="-1.9463570416">
        <ele>155.87</ele>
        <time>2018-11-08T08:29:54Z</time>
      </trkpt>
      <trkpt lat="37.1616660990" lon="-1.9457838871">
        <ele>153.47</ele>
        <time>2018-11-08T08:30:03Z</time>
      </trkpt>
      <trkpt lat="37.1620642394" lon="-1.9453888480">
        <ele>151.54</ele>
        <time>2018-11-08T08:30:10Z</time>
      </trkpt>
      <trkpt lat="37.1625087317" lon="-1.9451129995">
        <ele>148.18</ele>
        <time>2018-11-08T08:30:16Z</time>
      </trkpt>
      <trkpt lat="37.1631512046" lon="-1.9447700121">
        <ele>145.78</ele>
        <time>2018-11-08T08:30:24Z</time>
      </trkpt>
      <trkpt lat="37.1638664324" lon="-1.9443882164">
        <ele>142.41</ele>
        <time>2018-11-08T08:30:33Z</time>
      </trkpt>
      <trkpt lat="37.1645059716" lon="-1.9439813588">
        <ele>138.57</ele>
        <time>2018-11-08T08:30:41Z</time>
      </trkpt>
      <trkpt lat="37.1648568381" lon="-1.9435857330">
        <ele>135.68</ele>
        <time>2018-11-08T08:30:47Z</time>
      </trkpt>
      <trkpt lat="37.1649819799" lon="-1.9433978107">
        <ele>134.24</ele>
        <time>2018-11-08T08:30:52Z</time>
      </trkpt>
      <trkpt lat="37.1649958100" lon="-1.9433800410">
        <ele>134.24</ele>
        <time>2018-11-08T08:30:53Z</time>
      </trkpt>
      <trkpt lat="37.1650136635" lon="-1.9433625229">
        <ele>133.76</ele>
        <time>2018-11-08T08:30:54Z</time>
      </trkpt>
      <trkpt lat="37.1650308464" lon="-1.9433475193">
        <ele>133.76</ele>
        <time>2018-11-08T08:30:55Z</time>
      </trkpt>
      <trkpt lat="37.1650547348" lon="-1.9433343597">
        <ele>134.24</ele>
        <time>2018-11-08T08:30:56Z</time>
      </trkpt>
      <trkpt lat="37.1650862508" lon="-1.9433226250">
        <ele>134.24</ele>
        <time>2018-11-08T08:30:57Z</time>
      </trkpt>
      <trkpt lat="37.1651120670" lon="-1.9433187693">
        <ele>134.24</ele>
        <time>2018-11-08T08:30:58Z</time>
      </trkpt>
      <trkpt lat="37.1651310939" lon="-1.9433174282">
        <ele>134.72</ele>
        <time>2018-11-08T08:30:59Z</time>
      </trkpt>
      <trkpt lat="37.1651504561" lon="-1.9433154166">
        <ele>134.72</ele>
        <time>2018-11-08T08:31:00Z</time>
      </trkpt>
      <trkpt lat="37.1652779449" lon="-1.9432935398">
        <ele>134.24</ele>
        <time>2018-11-08T08:31:06Z</time>
      </trkpt>
      <trkpt lat="37.1655239537" lon="-1.9432657119">
        <ele>134.72</ele>
        <time>2018-11-08T08:31:14Z</time>
      </trkpt>
      <trkpt lat="37.1657030750" lon="-1.9431730919">
        <ele>134.72</ele>
        <time>2018-11-08T08:31:21Z</time>
      </trkpt>
      <trkpt lat="37.1659533586" lon="-1.9430554938">
        <ele>135.20</ele>
        <time>2018-11-08T08:31:30Z</time>
      </trkpt>
      <trkpt lat="37.1661695279" lon="-1.9430478662">
        <ele>134.72</ele>
        <time>2018-11-08T08:31:37Z</time>
      </trkpt>
      <trkpt lat="37.1665127669" lon="-1.9431411568">
        <ele>133.76</ele>
        <time>2018-11-08T08:31:45Z</time>
      </trkpt>
      <trkpt lat="37.1667477116" lon="-1.9431909453">
        <ele>132.80</ele>
        <time>2018-11-08T08:31:50Z</time>
      </trkpt>
      <trkpt lat="37.1667840052" lon="-1.9431967288">
        <ele>132.80</ele>
        <time>2018-11-08T08:31:51Z</time>
      </trkpt>
      <trkpt lat="37.1668971609" lon="-1.9432151690">
        <ele>132.32</ele>
        <time>2018-11-08T08:31:55Z</time>
      </trkpt>
      <trkpt lat="37.1670866758" lon="-1.9432326872">
        <ele>131.36</ele>
        <time>2018-11-08T08:32:02Z</time>
      </trkpt>
      <trkpt lat="37.1671248972" lon="-1.9432217907">
        <ele>130.88</ele>
        <time>2018-11-08T08:32:06Z</time>
      </trkpt>
      <trkpt lat="37.1671229694" lon="-1.9432186894">
        <ele>130.40</ele>
        <time>2018-11-08T08:32:14Z</time>
      </trkpt>
      <trkpt lat="37.1671241429" lon="-1.9432224613">
        <ele>130.88</ele>
        <time>2018-11-08T08:32:26Z</time>
      </trkpt>
      <trkpt lat="37.1671269927" lon="-1.9432219584">
        <ele>131.36</ele>
        <time>2018-11-08T08:32:36Z</time>
      </trkpt>
      <trkpt lat="37.1671222150" lon="-1.9432193600">
        <ele>130.88</ele>
        <time>2018-11-08T08:32:51Z</time>
      </trkpt>
      <trkpt lat="37.1671207063" lon="-1.9432208687">
        <ele>131.36</ele>
        <time>2018-11-08T08:33:07Z</time>
      </trkpt>
      <trkpt lat="37.1671276633" lon="-1.9432258978">
        <ele>130.88</ele>
        <time>2018-11-08T08:33:16Z</time>
      </trkpt>
      <trkpt lat="37.1671585925" lon="-1.9432286639">
        <ele>130.88</ele>
        <time>2018-11-08T08:33:25Z</time>
      </trkpt>
      <trkpt lat="37.1673258953" lon="-1.9432129897">
        <ele>130.88</ele>
        <time>2018-11-08T08:33:31Z</time>
      </trkpt>
      <trkpt lat="37.1676486824" lon="-1.9432124030">
        <ele>130.40</ele>
        <time>2018-11-08T08:33:41Z</time>
      </trkpt>
      <trkpt lat="37.1678879857" lon="-1.9432362914">
        <ele>130.40</ele>
        <time>2018-11-08T08:33:48Z</time>
      </trkpt>
      <trkpt lat="37.1681794245" lon="-1.9432988204">
        <ele>130.40</ele>
        <time>2018-11-08T08:33:57Z</time>
      </trkpt>
      <trkpt lat="37.1684319712" lon="-1.9433959667">
        <ele>129.92</ele>
        <time>2018-11-08T08:34:05Z</time>
      </trkpt>
      <trkpt lat="37.1686742920" lon="-1.9434877485">
        <ele>130.88</ele>
        <time>2018-11-08T08:34:14Z</time>
      </trkpt>
      <trkpt lat="37.1689378191" lon="-1.9435852300">
        <ele>130.40</ele>
        <time>2018-11-08T08:34:23Z</time>
      </trkpt>
      <trkpt lat="37.1692579240" lon="-1.9437139761">
        <ele>129.92</ele>
        <time>2018-11-08T08:34:33Z</time>
      </trkpt>
      <trkpt lat="37.1694982331" lon="-1.9438629225">
        <ele>131.84</ele>
        <time>2018-11-08T08:34:41Z</time>
      </trkpt>
      <trkpt lat="37.1697107144" lon="-1.9440801814">
        <ele>133.76</ele>
        <time>2018-11-08T08:34:49Z</time>
      </trkpt>
      <trkpt lat="37.1697923541" lon="-1.9442069158">
        <ele>133.76</ele>
        <time>2018-11-08T08:34:55Z</time>
      </trkpt>
      <trkpt lat="37.1698860638" lon="-1.9442949258">
        <ele>134.72</ele>
        <time>2018-11-08T08:35:03Z</time>
      </trkpt>
      <trkpt lat="37.1699051745" lon="-1.9443289563">
        <ele>135.20</ele>
        <time>2018-11-08T08:35:06Z</time>
      </trkpt>
      <trkpt lat="37.1699198429" lon="-1.9443665911">
        <ele>135.20</ele>
        <time>2018-11-08T08:35:09Z</time>
      </trkpt>
      <trkpt lat="37.1699206810" lon="-1.9443864562">
        <ele>135.20</ele>
        <time>2018-11-08T08:35:10Z</time>
      </trkpt>
      <trkpt lat="37.1699217707" lon="-1.9444042258">
        <ele>135.20</ele>
        <time>2018-11-08T08:35:11Z</time>
      </trkpt>
      <trkpt lat="37.1699241176" lon="-1.9444213249">
        <ele>135.20</ele>
        <time>2018-11-08T08:35:12Z</time>
      </trkpt>
      <trkpt lat="37.1699269675" lon="-1.9444404356">
        <ele>134.72</ele>
        <time>2018-11-08T08:35:13Z</time>
      </trkpt>
      <trkpt lat="37.1699302364" lon="-1.9444587082">
        <ele>134.72</ele>
        <time>2018-11-08T08:35:14Z</time>
      </trkpt>
      <trkpt lat="37.1699930169" lon="-1.9446644839">
        <ele>134.24</ele>
        <time>2018-11-08T08:35:23Z</time>
      </trkpt>
      <trkpt lat="37.1700666100" lon="-1.9449374825">
        <ele>133.28</ele>
        <time>2018-11-08T08:35:31Z</time>
      </trkpt>
      <trkpt lat="37.1701867227" lon="-1.9452509657">
        <ele>131.36</ele>
        <time>2018-11-08T08:35:37Z</time>
      </trkpt>
      <trkpt lat="37.1702189930" lon="-1.9453084655">
        <ele>131.36</ele>
        <time>2018-11-08T08:35:38Z</time>
      </trkpt>
      <trkpt lat="37.1703456435" lon="-1.9454756845">
        <ele>130.88</ele>
        <time>2018-11-08T08:35:41Z</time>
      </trkpt>
      <trkpt lat="37.1703952644" lon="-1.9455263950">
        <ele>130.40</ele>
        <time>2018-11-08T08:35:42Z</time>
      </trkpt>
      <trkpt lat="37.1704471484" lon="-1.9455699809">
        <ele>130.40</ele>
        <time>2018-11-08T08:35:43Z</time>
      </trkpt>
      <trkpt lat="37.1705062408" lon="-1.9456082862">
        <ele>130.40</ele>
        <time>2018-11-08T08:35:44Z</time>
      </trkpt>
      <trkpt lat="37.1705647465" lon="-1.9456361979">
        <ele>129.92</ele>
        <time>2018-11-08T08:35:45Z</time>
      </trkpt>
      <trkpt lat="37.1706253476" lon="-1.9456577394">
        <ele>129.92</ele>
        <time>2018-11-08T08:35:46Z</time>
      </trkpt>
      <trkpt lat="37.1706893854" lon="-1.9456760958">
        <ele>129.92</ele>
        <time>2018-11-08T08:35:47Z</time>
      </trkpt>
      <trkpt lat="37.1710343845" lon="-1.9457424805">
        <ele>130.40</ele>
        <time>2018-11-08T08:35:54Z</time>
      </trkpt>
      <trkpt lat="37.1712450217" lon="-1.9457799476">
        <ele>131.84</ele>
        <time>2018-11-08T08:36:01Z</time>
      </trkpt>
      <trkpt lat="37.1715637855" lon="-1.9458473381">
        <ele>134.24</ele>
        <time>2018-11-08T08:36:12Z</time>
      </trkpt>
      <trkpt lat="37.1717401408" lon="-1.9459035806">
        <ele>136.16</ele>
        <time>2018-11-08T08:36:20Z</time>
      </trkpt>
      <trkpt lat="37.1719423961" lon="-1.9460355118">
        <ele>138.09</ele>
        <time>2018-11-08T08:36:30Z</time>
      </trkpt>
      <trkpt lat="37.1721474174" lon="-1.9462096039">
        <ele>141.93</ele>
        <time>2018-11-08T08:36:41Z</time>
      </trkpt>
      <trkpt lat="37.1722620819" lon="-1.9463568740">
        <ele>143.85</ele>
        <time>2018-11-08T08:36:49Z</time>
      </trkpt>
      <trkpt lat="37.1723489184" lon="-1.9465204887">
        <ele>145.30</ele>
        <time>2018-11-08T08:36:57Z</time>
      </trkpt>
      <trkpt lat="37.1724008024" lon="-1.9466532581">
        <ele>146.74</ele>
        <time>2018-11-08T08:37:04Z</time>
      </trkpt>
      <trkpt lat="37.1724531893" lon="-1.9468080718">
        <ele>147.70</ele>
        <time>2018-11-08T08:37:12Z</time>
      </trkpt>
      <trkpt lat="37.1725090966" lon="-1.9469597843">
        <ele>148.66</ele>
        <time>2018-11-08T08:37:21Z</time>
      </trkpt>
      <trkpt lat="37.1725883894" lon="-1.9471722655">
        <ele>150.58</ele>
        <time>2018-11-08T08:37:32Z</time>
      </trkpt>
      <trkpt lat="37.1726117749" lon="-1.9472512230">
        <ele>151.06</ele>
        <time>2018-11-08T08:37:37Z</time>
      </trkpt>
      <trkpt lat="37.1726149600" lon="-1.9472662266">
        <ele>151.06</ele>
        <time>2018-11-08T08:37:38Z</time>
      </trkpt>
      <trkpt lat="37.1726206597" lon="-1.9472790509">
        <ele>151.06</ele>
        <time>2018-11-08T08:37:39Z</time>
      </trkpt>
      <trkpt lat="37.1726251021" lon="-1.9472917076">
        <ele>151.06</ele>
        <time>2018-11-08T08:37:40Z</time>
      </trkpt>
      <trkpt lat="37.1726253536" lon="-1.9473083876">
        <ele>151.54</ele>
        <time>2018-11-08T08:37:41Z</time>
      </trkpt>
      <trkpt lat="37.1726258565" lon="-1.9473277498">
        <ele>151.54</ele>
        <time>2018-11-08T08:37:42Z</time>
      </trkpt>
      <trkpt lat="37.1726772375" lon="-1.9474573340">
        <ele>152.51</ele>
        <time>2018-11-08T08:37:49Z</time>
      </trkpt>
      <trkpt lat="37.1727385931" lon="-1.9476276543">
        <ele>154.43</ele>
        <time>2018-11-08T08:37:57Z</time>
      </trkpt>
      <trkpt lat="37.1728025470" lon="-1.9478028361">
        <ele>155.87</ele>
        <time>2018-11-08T08:38:06Z</time>
      </trkpt>
      <trkpt lat="37.1728592087" lon="-1.9479863998">
        <ele>157.31</ele>
        <time>2018-11-08T08:38:16Z</time>
      </trkpt>
      <trkpt lat="37.1729462966" lon="-1.9482101128">
        <ele>159.24</ele>
        <time>2018-11-08T08:38:27Z</time>
      </trkpt>
      <trkpt lat="37.1730042156" lon="-1.9483795948">
        <ele>160.68</ele>
        <time>2018-11-08T08:38:36Z</time>
      </trkpt>
      <trkpt lat="37.1730664931" lon="-1.9485345762">
        <ele>162.12</ele>
        <time>2018-11-08T08:38:44Z</time>
      </trkpt>
      <trkpt lat="37.1731234901" lon="-1.9486456364">
        <ele>163.56</ele>
        <time>2018-11-08T08:38:52Z</time>
      </trkpt>
      <trkpt lat="37.1731514018" lon="-1.9487128593">
        <ele>164.04</ele>
        <time>2018-11-08T08:38:59Z</time>
      </trkpt>
      <trkpt lat="37.1731949877" lon="-1.9488209859">
        <ele>165.00</ele>
        <time>2018-11-08T08:39:09Z</time>
      </trkpt>
      <trkpt lat="37.1731881984" lon="-1.9488259312">
        <ele>164.04</ele>
        <time>2018-11-08T08:39:21Z</time>
      </trkpt>
      <trkpt lat="37.1731844265" lon="-1.9487996958">
        <ele>160.20</ele>
        <time>2018-11-08T08:39:42Z</time>
      </trkpt>
      <trkpt lat="37.1731757093" lon="-1.9488312118">
        <ele>160.20</ele>
        <time>2018-11-08T08:40:04Z</time>
      </trkpt>
      <trkpt lat="37.1731887013" lon="-1.9488417730">
        <ele>160.68</ele>
        <time>2018-11-08T08:40:25Z</time>
      </trkpt>
      <trkpt lat="37.1731971670" lon="-1.9488164596">
        <ele>163.56</ele>
        <time>2018-11-08T08:40:37Z</time>
      </trkpt>
      <trkpt lat="37.1731876116" lon="-1.9488283619">
        <ele>164.04</ele>
        <time>2018-11-08T08:40:46Z</time>
      </trkpt>
      <trkpt lat="37.1731892880" lon="-1.9488110952">
        <ele>165.48</ele>
        <time>2018-11-08T08:41:02Z</time>
      </trkpt>
      <trkpt lat="37.1731918864" lon="-1.9488100056">
        <ele>166.45</ele>
        <time>2018-11-08T08:41:18Z</time>
      </trkpt>
      <trkpt lat="37.1731897071" lon="-1.9488105923">
        <ele>167.41</ele>
        <time>2018-11-08T08:41:41Z</time>
      </trkpt>
      <trkpt lat="37.1731883660" lon="-1.9488314632">
        <ele>166.93</ele>
        <time>2018-11-08T08:42:02Z</time>
      </trkpt>
      <trkpt lat="37.1731875278" lon="-1.9488289487">
        <ele>167.41</ele>
        <time>2018-11-08T08:42:22Z</time>
      </trkpt>
      <trkpt lat="37.1731863543" lon="-1.9488156214">
        <ele>165.48</ele>
        <time>2018-11-08T08:42:40Z</time>
      </trkpt>
      <trkpt lat="37.1731821634" lon="-1.9488259312">
        <ele>165.00</ele>
        <time>2018-11-08T08:43:01Z</time>
      </trkpt>
      <trkpt lat="37.1731799003" lon="-1.9488230813">
        <ele>164.52</ele>
        <time>2018-11-08T08:43:16Z</time>
      </trkpt>
      <trkpt lat="37.1731904615" lon="-1.9488162920">
        <ele>165.00</ele>
        <time>2018-11-08T08:43:35Z</time>
      </trkpt>
      <trkpt lat="37.1731938142" lon="-1.9488118496">
        <ele>163.56</ele>
        <time>2018-11-08T08:43:54Z</time>
      </trkpt>
      <trkpt lat="37.1731928922" lon="-1.9488170464">
        <ele>163.56</ele>
        <time>2018-11-08T08:44:12Z</time>
      </trkpt>
      <trkpt lat="37.1731979214" lon="-1.9488200638">
        <ele>165.00</ele>
        <time>2018-11-08T08:44:28Z</time>
      </trkpt>
      <trkpt lat="37.1731879469" lon="-1.9488269370">
        <ele>165.48</ele>
        <time>2018-11-08T08:44:45Z</time>
      </trkpt>
      <trkpt lat="37.1731891204" lon="-1.9488183875">
        <ele>164.52</ele>
        <time>2018-11-08T08:45:00Z</time>
      </trkpt>
      <trkpt lat="37.1731944848" lon="-1.9488203153">
        <ele>165.96</ele>
        <time>2018-11-08T08:45:15Z</time>
      </trkpt>
      <trkpt lat="37.1732026152" lon="-1.9488183036">
        <ele>165.48</ele>
        <time>2018-11-08T08:45:27Z</time>
      </trkpt>
      <trkpt lat="37.1731989272" lon="-1.9488231651">
        <ele>165.00</ele>
        <time>2018-11-08T08:45:32Z</time>
      </trkpt>
      <trkpt lat="37.1732285991" lon="-1.9489444513">
        <ele>165.96</ele>
        <time>2018-11-08T08:45:40Z</time>
      </trkpt>
      <trkpt lat="37.1733477060" lon="-1.9491632190">
        <ele>167.41</ele>
        <time>2018-11-08T08:45:50Z</time>
      </trkpt>
      <trkpt lat="37.1735067107" lon="-1.9493514765">
        <ele>169.33</ele>
        <time>2018-11-08T08:46:00Z</time>
      </trkpt>
      <trkpt lat="37.1736893523" lon="-1.9495630357">
        <ele>171.73</ele>
        <time>2018-11-08T08:46:11Z</time>
      </trkpt>
      <trkpt lat="37.1738531347" lon="-1.9498008303">
        <ele>174.14</ele>
        <time>2018-11-08T08:46:22Z</time>
      </trkpt>
      <trkpt lat="37.1739755943" lon="-1.9500483479">
        <ele>176.06</ele>
        <time>2018-11-08T08:46:33Z</time>
      </trkpt>
      <trkpt lat="37.1740558092" lon="-1.9502433948">
        <ele>177.50</ele>
        <time>2018-11-08T08:46:42Z</time>
      </trkpt>
      <trkpt lat="37.1741431486" lon="-1.9504631683">
        <ele>178.94</ele>
        <time>2018-11-08T08:46:52Z</time>
      </trkpt>
      <trkpt lat="37.1741908416" lon="-1.9505717140">
        <ele>180.38</ele>
        <time>2018-11-08T08:46:59Z</time>
      </trkpt>
      <trkpt lat="37.1742389537" lon="-1.9506827742">
        <ele>181.83</ele>
        <time>2018-11-08T08:47:06Z</time>
      </trkpt>
      <trkpt lat="37.1743080206" lon="-1.9508188963">
        <ele>183.75</ele>
        <time>2018-11-08T08:47:15Z</time>
      </trkpt>
      <trkpt lat="37.1743575577" lon="-1.9509780686">
        <ele>184.71</ele>
        <time>2018-11-08T08:47:24Z</time>
      </trkpt>
      <trkpt lat="37.1743885707" lon="-1.9510911405">
        <ele>186.15</ele>
        <time>2018-11-08T08:47:32Z</time>
      </trkpt>
      <trkpt lat="37.1744343359" lon="-1.9512712676">
        <ele>187.59</ele>
        <time>2018-11-08T08:47:42Z</time>
      </trkpt>
      <trkpt lat="37.1744905785" lon="-1.9515232276">
        <ele>189.52</ele>
        <time>2018-11-08T08:47:54Z</time>
      </trkpt>
      <trkpt lat="37.1745039057" lon="-1.9515807275">
        <ele>190.48</ele>
        <time>2018-11-08T08:47:58Z</time>
      </trkpt>
      <trkpt lat="37.1745308116" lon="-1.9517470244">
        <ele>191.92</ele>
        <time>2018-11-08T08:48:07Z</time>
      </trkpt>
      <trkpt lat="37.1745490003" lon="-1.9518452603">
        <ele>192.40</ele>
        <time>2018-11-08T08:48:14Z</time>
      </trkpt>
      <trkpt lat="37.1745677758" lon="-1.9520092104">
        <ele>194.80</ele>
        <time>2018-11-08T08:48:23Z</time>
      </trkpt>
      <trkpt lat="37.1746018063" lon="-1.9522253796">
        <ele>196.73</ele>
        <time>2018-11-08T08:48:33Z</time>
      </trkpt>
      <trkpt lat="37.1746426262" lon="-1.9524564687">
        <ele>198.17</ele>
        <time>2018-11-08T08:48:43Z</time>
      </trkpt>
      <trkpt lat="37.1747075859" lon="-1.9526817743">
        <ele>199.13</ele>
        <time>2018-11-08T08:48:53Z</time>
      </trkpt>
      <trkpt lat="37.1747850347" lon="-1.9528615661">
        <ele>200.57</ele>
        <time>2018-11-08T08:49:02Z</time>
      </trkpt>
      <trkpt lat="37.1748941671" lon="-1.9530858658">
        <ele>201.53</ele>
        <time>2018-11-08T08:49:13Z</time>
      </trkpt>
      <trkpt lat="37.1748939157" lon="-1.9531217404">
        <ele>201.05</ele>
        <time>2018-11-08T08:49:16Z</time>
      </trkpt>
      <trkpt lat="37.1748968493" lon="-1.9531360734">
        <ele>201.05</ele>
        <time>2018-11-08T08:49:17Z</time>
      </trkpt>
      <trkpt lat="37.1749010403" lon="-1.9531495683">
        <ele>201.05</ele>
        <time>2018-11-08T08:49:18Z</time>
      </trkpt>
      <trkpt lat="37.1749102604" lon="-1.9531616382">
        <ele>201.53</ele>
        <time>2018-11-08T08:49:19Z</time>
      </trkpt>
      <trkpt lat="37.1749441233" lon="-1.9531892147">
        <ele>202.49</ele>
        <time>2018-11-08T08:49:25Z</time>
      </trkpt>
      <trkpt lat="37.1749485657" lon="-1.9532049727">
        <ele>202.01</ele>
        <time>2018-11-08T08:49:26Z</time>
      </trkpt>
      <trkpt lat="37.1749523375" lon="-1.9532252569">
        <ele>202.01</ele>
        <time>2018-11-08T08:49:27Z</time>
      </trkpt>
      <trkpt lat="37.1750104241" lon="-1.9534807373">
        <ele>202.49</ele>
        <time>2018-11-08T08:49:37Z</time>
      </trkpt>
      <trkpt lat="37.1750262659" lon="-1.9536831602">
        <ele>202.98</ele>
        <time>2018-11-08T08:49:45Z</time>
      </trkpt>
      <trkpt lat="37.1750176325" lon="-1.9538854156">
        <ele>202.49</ele>
        <time>2018-11-08T08:49:53Z</time>
      </trkpt>
      <trkpt lat="37.1749748848" lon="-1.9541566540">
        <ele>202.49</ele>
        <time>2018-11-08T08:50:01Z</time>
      </trkpt>
      <trkpt lat="37.1749341488" lon="-1.9544146489">
        <ele>202.98</ele>
        <time>2018-11-08T08:50:09Z</time>
      </trkpt>
      <trkpt lat="37.1748922393" lon="-1.9546063431">
        <ele>203.94</ele>
        <time>2018-11-08T08:50:16Z</time>
      </trkpt>
      <trkpt lat="37.1748387627" lon="-1.9549017213">
        <ele>204.90</ele>
        <time>2018-11-08T08:50:25Z</time>
      </trkpt>
      <trkpt lat="37.1747712046" lon="-1.9552396797">
        <ele>205.86</ele>
        <time>2018-11-08T08:50:35Z</time>
      </trkpt>
      <trkpt lat="37.1747422032" lon="-1.9554132689">
        <ele>206.34</ele>
        <time>2018-11-08T08:50:42Z</time>
      </trkpt>
      <trkpt lat="37.1746990364" lon="-1.9556515664">
        <ele>206.82</ele>
        <time>2018-11-08T08:50:50Z</time>
      </trkpt>
      <trkpt lat="37.1746986173" lon="-1.9556786399">
        <ele>206.82</ele>
        <time>2018-11-08T08:50:56Z</time>
      </trkpt>
      <trkpt lat="37.1747046523" lon="-1.9556705933">
        <ele>208.26</ele>
        <time>2018-11-08T08:51:06Z</time>
      </trkpt>
      <trkpt lat="37.1746980306" lon="-1.9557048753">
        <ele>208.74</ele>
        <time>2018-11-08T08:51:09Z</time>
      </trkpt>
      <trkpt lat="37.1746920794" lon="-1.9557233993">
        <ele>208.74</ele>
        <time>2018-11-08T08:51:10Z</time>
      </trkpt>
      <trkpt lat="37.1746875532" lon="-1.9557476230">
        <ele>209.22</ele>
        <time>2018-11-08T08:51:11Z</time>
      </trkpt>
      <trkpt lat="37.1746815182" lon="-1.9557770435">
        <ele>209.22</ele>
        <time>2018-11-08T08:51:12Z</time>
      </trkpt>
      <trkpt lat="37.1746756509" lon="-1.9558070507">
        <ele>209.22</ele>
        <time>2018-11-08T08:51:13Z</time>
      </trkpt>
      <trkpt lat="37.1746714599" lon="-1.9558410812">
        <ele>209.22</ele>
        <time>2018-11-08T08:51:14Z</time>
      </trkpt>
      <trkpt lat="37.1746130381" lon="-1.9561843202">
        <ele>208.74</ele>
        <time>2018-11-08T08:51:23Z</time>
      </trkpt>
      <trkpt lat="37.1745768283" lon="-1.9564689696">
        <ele>207.30</ele>
        <time>2018-11-08T08:51:32Z</time>
      </trkpt>
      <trkpt lat="37.1745540295" lon="-1.9568678644">
        <ele>206.82</ele>
        <time>2018-11-08T08:51:44Z</time>
      </trkpt>
      <trkpt lat="37.1746039018" lon="-1.9571044017">
        <ele>208.26</ele>
        <time>2018-11-08T08:51:51Z</time>
      </trkpt>
      <trkpt lat="37.1747238468" lon="-1.9572863728">
        <ele>209.70</ele>
        <time>2018-11-08T08:51:59Z</time>
      </trkpt>
      <trkpt lat="37.1748844441" lon="-1.9575093314">
        <ele>211.15</ele>
        <time>2018-11-08T08:52:10Z</time>
      </trkpt>
      <trkpt lat="37.1749944147" lon="-1.9576612115">
        <ele>212.59</ele>
        <time>2018-11-08T08:52:19Z</time>
      </trkpt>
      <trkpt lat="37.1751021221" lon="-1.9578031171">
        <ele>214.03</ele>
        <time>2018-11-08T08:52:28Z</time>
      </trkpt>
      <trkpt lat="37.1752042137" lon="-1.9579431787">
        <ele>215.47</ele>
        <time>2018-11-08T08:52:37Z</time>
      </trkpt>
      <trkpt lat="37.1752943192" lon="-1.9580710866">
        <ele>216.43</ele>
        <time>2018-11-08T08:52:45Z</time>
      </trkpt>
      <trkpt lat="37.1754276752" lon="-1.9582562428">
        <ele>218.36</ele>
        <time>2018-11-08T08:52:55Z</time>
      </trkpt>
      <trkpt lat="37.1755149309" lon="-1.9583931193">
        <ele>220.28</ele>
        <time>2018-11-08T08:53:03Z</time>
      </trkpt>
      <trkpt lat="37.1755897813" lon="-1.9584929477">
        <ele>221.24</ele>
        <time>2018-11-08T08:53:10Z</time>
      </trkpt>
      <trkpt lat="37.1757020988" lon="-1.9586438220">
        <ele>222.20</ele>
        <time>2018-11-08T08:53:19Z</time>
      </trkpt>
      <trkpt lat="37.1758214571" lon="-1.9588381983">
        <ele>223.16</ele>
        <time>2018-11-08T08:53:29Z</time>
      </trkpt>
      <trkpt lat="37.1759077068" lon="-1.9590070099">
        <ele>223.16</ele>
        <time>2018-11-08T08:53:38Z</time>
      </trkpt>
      <trkpt lat="37.1759339422" lon="-1.9590837881">
        <ele>223.64</ele>
        <time>2018-11-08T08:53:43Z</time>
      </trkpt>
      <trkpt lat="37.1759368759" lon="-1.9590975344">
        <ele>223.64</ele>
        <time>2018-11-08T08:53:44Z</time>
      </trkpt>
      <trkpt lat="37.1759440843" lon="-1.9591100235">
        <ele>223.64</ele>
        <time>2018-11-08T08:53:45Z</time>
      </trkpt>
      <trkpt lat="37.1759516280" lon="-1.9591245241">
        <ele>223.64</ele>
        <time>2018-11-08T08:53:46Z</time>
      </trkpt>
      <trkpt lat="37.1759576630" lon="-1.9591387734">
        <ele>223.64</ele>
        <time>2018-11-08T08:53:47Z</time>
      </trkpt>
      <trkpt lat="37.1760391351" lon="-1.9593396038">
        <ele>222.68</ele>
        <time>2018-11-08T08:53:55Z</time>
      </trkpt>
      <trkpt lat="37.1761755086" lon="-1.9596967567">
        <ele>221.24</ele>
        <time>2018-11-08T08:54:02Z</time>
      </trkpt>
      <trkpt lat="37.1763565578" lon="-1.9601916242">
        <ele>220.76</ele>
        <time>2018-11-08T08:54:11Z</time>
      </trkpt>
      <trkpt lat="37.1764205955" lon="-1.9603401516">
        <ele>221.72</ele>
        <time>2018-11-08T08:54:17Z</time>
      </trkpt>
      <trkpt lat="37.1765278000" lon="-1.9605551474">
        <ele>223.64</ele>
        <time>2018-11-08T08:54:26Z</time>
      </trkpt>
      <trkpt lat="37.1766740642" lon="-1.9607327599">
        <ele>226.05</ele>
        <time>2018-11-08T08:54:35Z</time>
      </trkpt>
      <trkpt lat="37.1768243518" lon="-1.9607884996">
        <ele>227.97</ele>
        <time>2018-11-08T08:54:42Z</time>
      </trkpt>
      <trkpt lat="37.1769595519" lon="-1.9607087038">
        <ele>230.37</ele>
        <time>2018-11-08T08:54:49Z</time>
      </trkpt>
      <trkpt lat="37.1770689357" lon="-1.9605129026">
        <ele>230.85</ele>
        <time>2018-11-08T08:54:58Z</time>
      </trkpt>
      <trkpt lat="37.1771636512" lon="-1.9602393173">
        <ele>232.30</ele>
        <time>2018-11-08T08:55:09Z</time>
      </trkpt>
      <trkpt lat="37.1772339754" lon="-1.9599762093">
        <ele>233.26</ele>
        <time>2018-11-08T08:55:19Z</time>
      </trkpt>
      <trkpt lat="37.1772431955" lon="-1.9599610381">
        <ele>233.26</ele>
        <time>2018-11-08T08:55:25Z</time>
      </trkpt>
      <trkpt lat="37.1772462130" lon="-1.9599788915">
        <ele>232.78</ele>
        <time>2018-11-08T08:55:49Z</time>
      </trkpt>
      <trkpt lat="37.1772428602" lon="-1.9599454477">
        <ele>231.81</ele>
        <time>2018-11-08T08:56:03Z</time>
      </trkpt>
      <trkpt lat="37.1772916429" lon="-1.9598172884">
        <ele>232.78</ele>
        <time>2018-11-08T08:56:10Z</time>
      </trkpt>
      <trkpt lat="37.1773596201" lon="-1.9596489798">
        <ele>233.74</ele>
        <time>2018-11-08T08:56:18Z</time>
      </trkpt>
      <trkpt lat="37.1775009390" lon="-1.9594771508">
        <ele>234.70</ele>
        <time>2018-11-08T08:56:28Z</time>
      </trkpt>
      <trkpt lat="37.1776375640" lon="-1.9594020490">
        <ele>235.66</ele>
        <time>2018-11-08T08:56:36Z</time>
      </trkpt>
      <trkpt lat="37.1777873486" lon="-1.9593717903">
        <ele>236.62</ele>
        <time>2018-11-08T08:56:44Z</time>
      </trkpt>
      <trkpt lat="37.1780219581" lon="-1.9593800884">
        <ele>238.06</ele>
        <time>2018-11-08T08:56:55Z</time>
      </trkpt>
      <trkpt lat="37.1782275662" lon="-1.9593757298">
        <ele>239.02</ele>
        <time>2018-11-08T08:57:06Z</time>
      </trkpt>
      <trkpt lat="37.1783686336" lon="-1.9593824353">
        <ele>240.95</ele>
        <time>2018-11-08T08:57:14Z</time>
      </trkpt>
      <trkpt lat="37.1785174124" lon="-1.9594116043">
        <ele>241.91</ele>
        <time>2018-11-08T08:57:22Z</time>
      </trkpt>
      <trkpt lat="37.1786607429" lon="-1.9595132768">
        <ele>241.91</ele>
        <time>2018-11-08T08:57:31Z</time>
      </trkpt>
      <trkpt lat="37.1786996350" lon="-1.9595569465">
        <ele>242.39</ele>
        <time>2018-11-08T08:57:35Z</time>
      </trkpt>
      <trkpt lat="37.1787076816" lon="-1.9595684297">
        <ele>241.91</ele>
        <time>2018-11-08T08:57:36Z</time>
      </trkpt>
      <trkpt lat="37.1787248645" lon="-1.9595864508">
        <ele>242.39</ele>
        <time>2018-11-08T08:57:38Z</time>
      </trkpt>
      <trkpt lat="37.1787915844" lon="-1.9597268477">
        <ele>242.87</ele>
        <time>2018-11-08T08:57:46Z</time>
      </trkpt>
      <trkpt lat="37.1788505092" lon="-1.9598923065">
        <ele>243.35</ele>
        <time>2018-11-08T08:57:53Z</time>
      </trkpt>
      <trkpt lat="37.1788919996" lon="-1.9600941427">
        <ele>243.83</ele>
        <time>2018-11-08T08:58:00Z</time>
      </trkpt>
      <trkpt lat="37.1789362561" lon="-1.9603790436">
        <ele>244.31</ele>
        <time>2018-11-08T08:58:08Z</time>
      </trkpt>
      <trkpt lat="37.1789950971" lon="-1.9607818779">
        <ele>244.79</ele>
        <time>2018-11-08T08:58:17Z</time>
      </trkpt>
      <trkpt lat="37.1790559497" lon="-1.9611380249">
        <ele>245.27</ele>
        <time>2018-11-08T08:58:26Z</time>
      </trkpt>
      <trkpt lat="37.1791201551" lon="-1.9615235925">
        <ele>246.23</ele>
        <time>2018-11-08T08:58:37Z</time>
      </trkpt>
      <trkpt lat="37.1791897248" lon="-1.9618750457">
        <ele>246.23</ele>
        <time>2018-11-08T08:58:47Z</time>
      </trkpt>
      <trkpt lat="37.1792688500" lon="-1.9623300154">
        <ele>247.20</ele>
        <time>2018-11-08T08:59:00Z</time>
      </trkpt>
      <trkpt lat="37.1793423593" lon="-1.9626436662">
        <ele>247.68</ele>
        <time>2018-11-08T08:59:09Z</time>
      </trkpt>
      <trkpt lat="37.1794540901" lon="-1.9629811216">
        <ele>248.64</ele>
        <time>2018-11-08T08:59:19Z</time>
      </trkpt>
      <trkpt lat="37.1795799024" lon="-1.9633029029">
        <ele>249.60</ele>
        <time>2018-11-08T08:59:29Z</time>
      </trkpt>
      <trkpt lat="37.1796883643" lon="-1.9635681063">
        <ele>250.56</ele>
        <time>2018-11-08T08:59:38Z</time>
      </trkpt>
      <trkpt lat="37.1798290964" lon="-1.9638798293">
        <ele>251.04</ele>
        <time>2018-11-08T08:59:49Z</time>
      </trkpt>
      <trkpt lat="37.1799433418" lon="-1.9641384948">
        <ele>252.00</ele>
        <time>2018-11-08T08:59:59Z</time>
      </trkpt>
      <trkpt lat="37.1800357103" lon="-1.9643920474">
        <ele>252.48</ele>
        <time>2018-11-08T09:00:08Z</time>
      </trkpt>
      <trkpt lat="37.1801288333" lon="-1.9647864159">
        <ele>253.93</ele>
        <time>2018-11-08T09:00:20Z</time>
      </trkpt>
      <trkpt lat="37.1801466867" lon="-1.9651377015">
        <ele>254.41</ele>
        <time>2018-11-08T09:00:29Z</time>
      </trkpt>
      <trkpt lat="37.1800984070" lon="-1.9654898252">
        <ele>254.41</ele>
        <time>2018-11-08T09:00:39Z</time>
      </trkpt>
      <trkpt lat="37.1800282504" lon="-1.9657857064">
        <ele>254.89</ele>
        <time>2018-11-08T09:00:48Z</time>
      </trkpt>
      <trkpt lat="37.1799625363" lon="-1.9661079906">
        <ele>255.85</ele>
        <time>2018-11-08T09:00:58Z</time>
      </trkpt>
      <trkpt lat="37.1799358819" lon="-1.9664075598">
        <ele>256.81</ele>
        <time>2018-11-08T09:01:07Z</time>
      </trkpt>
      <trkpt lat="37.1799385641" lon="-1.9666909520">
        <ele>257.77</ele>
        <time>2018-11-08T09:01:15Z</time>
      </trkpt>
      <trkpt lat="37.1799940523" lon="-1.9669760205">
        <ele>259.21</ele>
        <time>2018-11-08T09:01:24Z</time>
      </trkpt>
      <trkpt lat="37.1801174339" lon="-1.9672657829">
        <ele>260.17</ele>
        <time>2018-11-08T09:01:34Z</time>
      </trkpt>
      <trkpt lat="37.1802422404" lon="-1.9674331695">
        <ele>260.17</ele>
        <time>2018-11-08T09:01:41Z</time>
      </trkpt>
      <trkpt lat="37.1804382093" lon="-1.9676490035">
        <ele>260.65</ele>
        <time>2018-11-08T09:01:50Z</time>
      </trkpt>
      <trkpt lat="37.1806776803" lon="-1.9678326510">
        <ele>261.14</ele>
        <time>2018-11-08T09:01:59Z</time>
      </trkpt>
      <trkpt lat="37.1808940172" lon="-1.9679271989">
        <ele>261.62</ele>
        <time>2018-11-08T09:02:07Z</time>
      </trkpt>
      <trkpt lat="37.1811621543" lon="-1.9679559488">
        <ele>263.06</ele>
        <time>2018-11-08T09:02:17Z</time>
      </trkpt>
      <trkpt lat="37.1814015415" lon="-1.9679233432">
        <ele>264.50</ele>
        <time>2018-11-08T09:02:26Z</time>
      </trkpt>
      <trkpt lat="37.1816121787" lon="-1.9678417034">
        <ele>265.94</ele>
        <time>2018-11-08T09:02:34Z</time>
      </trkpt>
      <trkpt lat="37.1818441898" lon="-1.9677165616">
        <ele>268.35</ele>
        <time>2018-11-08T09:02:43Z</time>
      </trkpt>
      <trkpt lat="37.1820523962" lon="-1.9676238578">
        <ele>268.83</ele>
        <time>2018-11-08T09:02:51Z</time>
      </trkpt>
      <trkpt lat="37.1822801325" lon="-1.9675185811">
        <ele>268.83</ele>
        <time>2018-11-08T09:03:00Z</time>
      </trkpt>
      <trkpt lat="37.1825325117" lon="-1.9674341753">
        <ele>269.31</ele>
        <time>2018-11-08T09:03:10Z</time>
      </trkpt>
      <trkpt lat="37.1827678755" lon="-1.9674463291">
        <ele>269.31</ele>
        <time>2018-11-08T09:03:19Z</time>
      </trkpt>
      <trkpt lat="37.1829481702" lon="-1.9675107859">
        <ele>270.27</ele>
        <time>2018-11-08T09:03:26Z</time>
      </trkpt>
      <trkpt lat="37.1831205860" lon="-1.9675972033">
        <ele>270.27</ele>
        <time>2018-11-08T09:03:33Z</time>
      </trkpt>
      <trkpt lat="37.1833025571" lon="-1.9677313138">
        <ele>270.75</ele>
        <time>2018-11-08T09:03:41Z</time>
      </trkpt>
      <trkpt lat="37.1834730450" lon="-1.9678831939">
        <ele>270.75</ele>
        <time>2018-11-08T09:03:49Z</time>
      </trkpt>
      <trkpt lat="37.1836557705" lon="-1.9680376723">
        <ele>271.23</ele>
        <time>2018-11-08T09:03:57Z</time>
      </trkpt>
      <trkpt lat="37.1839093231" lon="-1.9682629779">
        <ele>271.71</ele>
        <time>2018-11-08T09:04:08Z</time>
      </trkpt>
      <trkpt lat="37.1841163561" lon="-1.9684342202">
        <ele>272.67</ele>
        <time>2018-11-08T09:04:17Z</time>
      </trkpt>
      <trkpt lat="37.1842918731" lon="-1.9685852621">
        <ele>273.63</ele>
        <time>2018-11-08T09:04:26Z</time>
      </trkpt>
      <trkpt lat="37.1843515523" lon="-1.9685912970">
        <ele>274.11</ele>
        <time>2018-11-08T09:04:33Z</time>
      </trkpt>
      <trkpt lat="37.1843413264" lon="-1.9685862679">
        <ele>274.11</ele>
        <time>2018-11-08T09:04:42Z</time>
      </trkpt>
      <trkpt lat="37.1843475290" lon="-1.9686161075">
        <ele>272.67</ele>
        <time>2018-11-08T09:05:06Z</time>
      </trkpt>
      <trkpt lat="37.1843550727" lon="-1.9686156046">
        <ele>272.67</ele>
        <time>2018-11-08T09:05:31Z</time>
      </trkpt>
      <trkpt lat="37.1843697410" lon="-1.9685951527">
        <ele>272.67</ele>
        <time>2018-11-08T09:05:54Z</time>
      </trkpt>
      <trkpt lat="37.1843415778" lon="-1.9685766287">
        <ele>274.11</ele>
        <time>2018-11-08T09:06:14Z</time>
      </trkpt>
      <trkpt lat="37.1843308490" lon="-1.9685776345">
        <ele>272.19</ele>
        <time>2018-11-08T09:06:42Z</time>
      </trkpt>
      <trkpt lat="37.1843356267" lon="-1.9685896207">
        <ele>273.63</ele>
        <time>2018-11-08T09:07:08Z</time>
      </trkpt>
      <trkpt lat="37.1843393985" lon="-1.9685958233">
        <ele>274.59</ele>
        <time>2018-11-08T09:07:23Z</time>
      </trkpt>
      <trkpt lat="37.1843409911" lon="-1.9685898721">
        <ele>273.63</ele>
        <time>2018-11-08T09:07:37Z</time>
      </trkpt>
      <trkpt lat="37.1843340341" lon="-1.9685921352">
        <ele>273.63</ele>
        <time>2018-11-08T09:07:53Z</time>
      </trkpt>
      <trkpt lat="37.1843278315" lon="-1.9685964938">
        <ele>275.07</ele>
        <time>2018-11-08T09:08:07Z</time>
      </trkpt>
      <trkpt lat="37.1843386441" lon="-1.9685962424">
        <ele>273.63</ele>
        <time>2018-11-08T09:08:18Z</time>
      </trkpt>
      <trkpt lat="37.1843481157" lon="-1.9685935602">
        <ele>274.11</ele>
        <time>2018-11-08T09:08:33Z</time>
      </trkpt>
      <trkpt lat="37.1843498759" lon="-1.9685860164">
        <ele>275.07</ele>
        <time>2018-11-08T09:08:44Z</time>
      </trkpt>
      <trkpt lat="37.1843572520" lon="-1.9686023612">
        <ele>272.67</ele>
        <time>2018-11-08T09:08:54Z</time>
      </trkpt>
      <trkpt lat="37.1843502950" lon="-1.9685911294">
        <ele>273.63</ele>
        <time>2018-11-08T09:09:08Z</time>
      </trkpt>
      <trkpt lat="37.1843439247" lon="-1.9685855974">
        <ele>273.63</ele>
        <time>2018-11-08T09:09:20Z</time>
      </trkpt>
      <trkpt lat="37.1843388956" lon="-1.9685612060">
        <ele>272.67</ele>
        <time>2018-11-08T09:09:34Z</time>
      </trkpt>
      <trkpt lat="37.1843372192" lon="-1.9685830828">
        <ele>274.59</ele>
        <time>2018-11-08T09:09:47Z</time>
      </trkpt>
      <trkpt lat="37.1843441762" lon="-1.9685882796">
        <ele>272.67</ele>
        <time>2018-11-08T09:10:01Z</time>
      </trkpt>
      <trkpt lat="37.1843326092" lon="-1.9685956556">
        <ele>273.15</ele>
        <time>2018-11-08T09:10:09Z</time>
      </trkpt>
      <trkpt lat="37.1843401529" lon="-1.9685971644">
        <ele>273.63</ele>
        <time>2018-11-08T09:10:16Z</time>
      </trkpt>
      <trkpt lat="37.1843458526" lon="-1.9685972482">
        <ele>273.15</ele>
        <time>2018-11-08T09:10:31Z</time>
      </trkpt>
      <trkpt lat="37.1843448468" lon="-1.9686284289">
        <ele>273.63</ele>
        <time>2018-11-08T09:10:38Z</time>
      </trkpt>
      <trkpt lat="37.1843467746" lon="-1.9686344638">
        <ele>273.63</ele>
        <time>2018-11-08T09:10:39Z</time>
      </trkpt>
      <trkpt lat="37.1844310127" lon="-1.9687026925">
        <ele>274.11</ele>
        <time>2018-11-08T09:10:45Z</time>
      </trkpt>
      <trkpt lat="37.1845911071" lon="-1.9688366354">
        <ele>274.59</ele>
        <time>2018-11-08T09:10:53Z</time>
      </trkpt>
      <trkpt lat="37.1848023310" lon="-1.9690129906">
        <ele>276.04</ele>
        <time>2018-11-08T09:11:02Z</time>
      </trkpt>
      <trkpt lat="37.1850967035" lon="-1.9692345243">
        <ele>276.52</ele>
        <time>2018-11-08T09:11:14Z</time>
      </trkpt>
      <trkpt lat="37.1853460651" lon="-1.9693444949">
        <ele>276.52</ele>
        <time>2018-11-08T09:11:23Z</time>
      </trkpt>
      <trkpt lat="37.1855997853" lon="-1.9693790283">
        <ele>277.00</ele>
        <time>2018-11-08T09:11:32Z</time>
      </trkpt>
      <trkpt lat="37.1859344747" lon="-1.9693384599">
        <ele>277.48</ele>
        <time>2018-11-08T09:11:44Z</time>
      </trkpt>
      <trkpt lat="37.1862330381" lon="-1.9692994840">
        <ele>279.40</ele>
        <time>2018-11-08T09:11:55Z</time>
      </trkpt>
      <trkpt lat="37.1864780411" lon="-1.9693938643">
        <ele>279.88</ele>
        <time>2018-11-08T09:12:04Z</time>
      </trkpt>
      <trkpt lat="37.1866278257" lon="-1.9696383644">
        <ele>279.88</ele>
        <time>2018-11-08T09:12:13Z</time>
      </trkpt>
      <trkpt lat="37.1866911929" lon="-1.9698706269">
        <ele>281.32</ele>
        <time>2018-11-08T09:12:23Z</time>
      </trkpt>
      <trkpt lat="37.1867512912" lon="-1.9700790849">
        <ele>283.73</ele>
        <time>2018-11-08T09:12:33Z</time>
      </trkpt>
      <trkpt lat="37.1868146583" lon="-1.9702518359">
        <ele>286.13</ele>
        <time>2018-11-08T09:12:42Z</time>
      </trkpt>
      <trkpt lat="37.1868522931" lon="-1.9703844376">
        <ele>287.09</ele>
        <time>2018-11-08T09:12:50Z</time>
      </trkpt>
      <trkpt lat="37.1868954599" lon="-1.9705302827">
        <ele>288.53</ele>
        <time>2018-11-08T09:12:59Z</time>
      </trkpt>
      <trkpt lat="37.1869578212" lon="-1.9706699252">
        <ele>289.49</ele>
        <time>2018-11-08T09:13:08Z</time>
      </trkpt>
      <trkpt lat="37.1869777702" lon="-1.9707757886">
        <ele>291.90</ele>
        <time>2018-11-08T09:13:14Z</time>
      </trkpt>
      <trkpt lat="37.1869863197" lon="-1.9707911275">
        <ele>292.38</ele>
        <time>2018-11-08T09:13:15Z</time>
      </trkpt>
      <trkpt lat="37.1869968809" lon="-1.9708103221">
        <ele>292.38</ele>
        <time>2018-11-08T09:13:16Z</time>
      </trkpt>
      <trkpt lat="37.1870614216" lon="-1.9709959812">
        <ele>293.82</ele>
        <time>2018-11-08T09:13:25Z</time>
      </trkpt>
      <trkpt lat="37.1871112101" lon="-1.9711590093">
        <ele>295.26</ele>
        <time>2018-11-08T09:13:34Z</time>
      </trkpt>
      <trkpt lat="37.1872046683" lon="-1.9713287428">
        <ele>295.74</ele>
        <time>2018-11-08T09:13:44Z</time>
      </trkpt>
      <trkpt lat="37.1873040777" lon="-1.9715041760">
        <ele>296.22</ele>
        <time>2018-11-08T09:13:53Z</time>
      </trkpt>
      <trkpt lat="37.1874506772" lon="-1.9717645179">
        <ele>296.70</ele>
        <time>2018-11-08T09:14:05Z</time>
      </trkpt>
      <trkpt lat="37.1875375975" lon="-1.9719141349">
        <ele>297.67</ele>
        <time>2018-11-08T09:14:14Z</time>
      </trkpt>
      <trkpt lat="37.1877017990" lon="-1.9721722975">
        <ele>298.15</ele>
        <time>2018-11-08T09:14:26Z</time>
      </trkpt>
      <trkpt lat="37.1878411062" lon="-1.9723868743">
        <ele>299.11</ele>
        <time>2018-11-08T09:14:36Z</time>
      </trkpt>
      <trkpt lat="37.1879851911" lon="-1.9726312906">
        <ele>300.55</ele>
        <time>2018-11-08T09:14:47Z</time>
      </trkpt>
      <trkpt lat="37.1880655736" lon="-1.9729254954">
        <ele>302.47</ele>
        <time>2018-11-08T09:14:58Z</time>
      </trkpt>
      <trkpt lat="37.1880955808" lon="-1.9732837379">
        <ele>303.43</ele>
        <time>2018-11-08T09:15:10Z</time>
      </trkpt>
      <trkpt lat="37.1881136857" lon="-1.9736070279">
        <ele>305.36</ele>
        <time>2018-11-08T09:15:21Z</time>
      </trkpt>
      <trkpt lat="37.1881642286" lon="-1.9738769252">
        <ele>306.32</ele>
        <time>2018-11-08T09:15:31Z</time>
      </trkpt>
      <trkpt lat="37.1882683318" lon="-1.9740815274">
        <ele>307.28</ele>
        <time>2018-11-08T09:15:40Z</time>
      </trkpt>
      <trkpt lat="37.1884477884" lon="-1.9742577989">
        <ele>309.20</ele>
        <time>2018-11-08T09:15:50Z</time>
      </trkpt>
      <trkpt lat="37.1886989940" lon="-1.9743438810">
        <ele>310.64</ele>
        <time>2018-11-08T09:16:01Z</time>
      </trkpt>
      <trkpt lat="37.1889640298" lon="-1.9743570406">
        <ele>312.09</ele>
        <time>2018-11-08T09:16:13Z</time>
      </trkpt>
      <trkpt lat="37.1891403850" lon="-1.9743455574">
        <ele>313.53</ele>
        <time>2018-11-08T09:16:21Z</time>
      </trkpt>
      <trkpt lat="37.1893896628" lon="-1.9743048213">
        <ele>314.49</ele>
        <time>2018-11-08T09:16:32Z</time>
      </trkpt>
      <trkpt lat="37.1895536967" lon="-1.9743118621">
        <ele>314.97</ele>
        <time>2018-11-08T09:16:40Z</time>
      </trkpt>
      <trkpt lat="37.1896906570" lon="-1.9744251855">
        <ele>315.93</ele>
        <time>2018-11-08T09:16:48Z</time>
      </trkpt>
      <trkpt lat="37.1898041479" lon="-1.9746035524">
        <ele>317.37</ele>
        <time>2018-11-08T09:16:58Z</time>
      </trkpt>
      <trkpt lat="37.1898966003" lon="-1.9747320469">
        <ele>319.30</ele>
        <time>2018-11-08T09:17:07Z</time>
      </trkpt>
      <trkpt lat="37.1899215784" lon="-1.9747883733">
        <ele>320.26</ele>
        <time>2018-11-08T09:17:12Z</time>
      </trkpt>
      <trkpt lat="37.1899208240" lon="-1.9748031255">
        <ele>320.26</ele>
        <time>2018-11-08T09:17:13Z</time>
      </trkpt>
      <trkpt lat="37.1899264399" lon="-1.9748171233">
        <ele>320.26</ele>
        <time>2018-11-08T09:17:14Z</time>
      </trkpt>
      <trkpt lat="37.1899370849" lon="-1.9748261757">
        <ele>320.74</ele>
        <time>2018-11-08T09:17:15Z</time>
      </trkpt>
      <trkpt lat="37.1899489872" lon="-1.9748340547">
        <ele>320.74</ele>
        <time>2018-11-08T09:17:16Z</time>
      </trkpt>
      <trkpt lat="37.1899620630" lon="-1.9748398382">
        <ele>321.22</ele>
        <time>2018-11-08T09:17:17Z</time>
      </trkpt>
      <trkpt lat="37.1899748873" lon="-1.9748461246">
        <ele>321.22</ele>
        <time>2018-11-08T09:17:18Z</time>
      </trkpt>
      <trkpt lat="37.1899854485" lon="-1.9748564344">
        <ele>321.22</ele>
        <time>2018-11-08T09:17:19Z</time>
      </trkpt>
      <trkpt lat="37.1899940819" lon="-1.9748696778">
        <ele>321.70</ele>
        <time>2018-11-08T09:17:20Z</time>
      </trkpt>
      <trkpt lat="37.1899991110" lon="-1.9748830888">
        <ele>321.70</ele>
        <time>2018-11-08T09:17:21Z</time>
      </trkpt>
      <trkpt lat="37.1900091693" lon="-1.9749341346">
        <ele>322.18</ele>
        <time>2018-11-08T09:17:25Z</time>
      </trkpt>
      <trkpt lat="37.1900158748" lon="-1.9749426004">
        <ele>322.18</ele>
        <time>2018-11-08T09:17:26Z</time>
      </trkpt>
      <trkpt lat="37.1900261845" lon="-1.9749459531">
        <ele>322.18</ele>
        <time>2018-11-08T09:17:27Z</time>
      </trkpt>
      <trkpt lat="37.1900384221" lon="-1.9749471266">
        <ele>322.66</ele>
        <time>2018-11-08T09:17:28Z</time>
      </trkpt>
      <trkpt lat="37.1900517493" lon="-1.9749471266">
        <ele>322.66</ele>
        <time>2018-11-08T09:17:29Z</time>
      </trkpt>
      <trkpt lat="37.1900647413" lon="-1.9749503117">
        <ele>322.66</ele>
        <time>2018-11-08T09:17:30Z</time>
      </trkpt>
      <trkpt lat="37.1900775656" lon="-1.9749571010">
        <ele>322.66</ele>
        <time>2018-11-08T09:17:31Z</time>
      </trkpt>
      <trkpt lat="37.1900878754" lon="-1.9749694224">
        <ele>323.14</ele>
        <time>2018-11-08T09:17:32Z</time>
      </trkpt>
      <trkpt lat="37.1900992747" lon="-1.9749835040">
        <ele>323.14</ele>
        <time>2018-11-08T09:17:33Z</time>
      </trkpt>
      <trkpt lat="37.1901084110" lon="-1.9749945682">
        <ele>323.62</ele>
        <time>2018-11-08T09:17:34Z</time>
      </trkpt>
      <trkpt lat="37.1901203133" lon="-1.9750057999">
        <ele>323.62</ele>
        <time>2018-11-08T09:17:35Z</time>
      </trkpt>
      <trkpt lat="37.1901312098" lon="-1.9750160258">
        <ele>324.10</ele>
        <time>2018-11-08T09:17:36Z</time>
      </trkpt>
      <trkpt lat="37.1901428606" lon="-1.9750285987">
        <ele>324.58</ele>
        <time>2018-11-08T09:17:37Z</time>
      </trkpt>
      <trkpt lat="37.1901562717" lon="-1.9750363939">
        <ele>324.58</ele>
        <time>2018-11-08T09:17:38Z</time>
      </trkpt>
      <trkpt lat="37.1901695151" lon="-1.9750433508">
        <ele>324.58</ele>
        <time>2018-11-08T09:17:39Z</time>
      </trkpt>
      <trkpt lat="37.1903076489" lon="-1.9751147646">
        <ele>325.54</ele>
        <time>2018-11-08T09:17:48Z</time>
      </trkpt>
      <trkpt lat="37.1905167773" lon="-1.9752406608">
        <ele>326.99</ele>
        <time>2018-11-08T09:18:00Z</time>
      </trkpt>
      <trkpt lat="37.1906926297" lon="-1.9753164332">
        <ele>328.43</ele>
        <time>2018-11-08T09:18:10Z</time>
      </trkpt>
      <trkpt lat="37.1908776183" lon="-1.9753704127">
        <ele>330.83</ele>
        <time>2018-11-08T09:18:20Z</time>
      </trkpt>
      <trkpt lat="37.1910769399" lon="-1.9753818959">
        <ele>333.23</ele>
        <time>2018-11-08T09:18:31Z</time>
      </trkpt>
      <trkpt lat="37.1912039258" lon="-1.9753792137">
        <ele>334.20</ele>
        <time>2018-11-08T09:18:40Z</time>
      </trkpt>
      <trkpt lat="37.1913093701" lon="-1.9753849134">
        <ele>334.68</ele>
        <time>2018-11-08T09:18:47Z</time>
      </trkpt>
      <trkpt lat="37.1914869826" lon="-1.9754032698">
        <ele>337.08</ele>
        <time>2018-11-08T09:18:57Z</time>
      </trkpt>
      <trkpt lat="37.1916803531" lon="-1.9754453469">
        <ele>338.04</ele>
        <time>2018-11-08T09:19:08Z</time>
      </trkpt>
      <trkpt lat="37.1918184869" lon="-1.9754963089">
        <ele>338.52</ele>
        <time>2018-11-08T09:19:16Z</time>
      </trkpt>
      <trkpt lat="37.1919688582" lon="-1.9755158387">
        <ele>339.48</ele>
        <time>2018-11-08T09:19:25Z</time>
      </trkpt>
      <trkpt lat="37.1920074988" lon="-1.9755042717">
        <ele>339.96</ele>
        <time>2018-11-08T09:19:28Z</time>
      </trkpt>
      <trkpt lat="37.1920209099" lon="-1.9755027629">
        <ele>339.96</ele>
        <time>2018-11-08T09:19:29Z</time>
      </trkpt>
      <trkpt lat="37.1921674255" lon="-1.9754267391">
        <ele>341.41</ele>
        <time>2018-11-08T09:19:38Z</time>
      </trkpt>
      <trkpt lat="37.1922421921" lon="-1.9753788784">
        <ele>341.89</ele>
        <time>2018-11-08T09:19:43Z</time>
      </trkpt>
      <trkpt lat="37.1922561061" lon="-1.9753715023">
        <ele>342.37</ele>
        <time>2018-11-08T09:19:44Z</time>
      </trkpt>
      <trkpt lat="37.1922709420" lon="-1.9753633719">
        <ele>342.37</ele>
        <time>2018-11-08T09:19:45Z</time>
      </trkpt>
      <trkpt lat="37.1922861133" lon="-1.9753552414">
        <ele>342.85</ele>
        <time>2018-11-08T09:19:46Z</time>
      </trkpt>
      <trkpt lat="37.1923015360" lon="-1.9753485359">
        <ele>342.85</ele>
        <time>2018-11-08T09:19:47Z</time>
      </trkpt>
      <trkpt lat="37.1924833395" lon="-1.9752878509">
        <ele>343.81</ele>
        <time>2018-11-08T09:19:57Z</time>
      </trkpt>
      <trkpt lat="37.1926309448" lon="-1.9752455223">
        <ele>345.25</ele>
        <time>2018-11-08T09:20:05Z</time>
      </trkpt>
      <trkpt lat="37.1927563380" lon="-1.9752466120">
        <ele>346.21</ele>
        <time>2018-11-08T09:20:12Z</time>
      </trkpt>
      <trkpt lat="37.1928306855" lon="-1.9753984082">
        <ele>349.10</ele>
        <time>2018-11-08T09:20:20Z</time>
      </trkpt>
      <trkpt lat="37.1927606966" lon="-1.9755076244">
        <ele>349.58</ele>
        <time>2018-11-08T09:20:26Z</time>
      </trkpt>
      <trkpt lat="37.1925995126" lon="-1.9755633641">
        <ele>351.02</ele>
        <time>2018-11-08T09:20:35Z</time>
      </trkpt>
      <trkpt lat="37.1925825812" lon="-1.9755709078">
        <ele>351.50</ele>
        <time>2018-11-08T09:20:37Z</time>
      </trkpt>
      <trkpt lat="37.1924866084" lon="-1.9757119752">
        <ele>351.98</ele>
        <time>2018-11-08T09:20:46Z</time>
      </trkpt>
      <trkpt lat="37.1924659889" lon="-1.9759398792">
        <ele>352.94</ele>
        <time>2018-11-08T09:20:55Z</time>
      </trkpt>
      <trkpt lat="37.1924516559" lon="-1.9761687052">
        <ele>353.90</ele>
        <time>2018-11-08T09:21:04Z</time>
      </trkpt>
      <trkpt lat="37.1923864447" lon="-1.9763154723">
        <ele>353.90</ele>
        <time>2018-11-08T09:21:12Z</time>
      </trkpt>
      <trkpt lat="37.1922395099" lon="-1.9764206652">
        <ele>354.38</ele>
        <time>2018-11-08T09:21:20Z</time>
      </trkpt>
      <trkpt lat="37.1920791641" lon="-1.9764484093">
        <ele>355.34</ele>
        <time>2018-11-08T09:21:27Z</time>
      </trkpt>
      <trkpt lat="37.1918993723" lon="-1.9764097687">
        <ele>355.83</ele>
        <time>2018-11-08T09:21:36Z</time>
      </trkpt>
      <trkpt lat="37.1917811874" lon="-1.9763725530">
        <ele>355.34</ele>
        <time>2018-11-08T09:21:42Z</time>
      </trkpt>
      <trkpt lat="37.1916390304" lon="-1.9763343316">
        <ele>356.31</ele>
        <time>2018-11-08T09:21:49Z</time>
      </trkpt>
      <trkpt lat="37.1915582288" lon="-1.9763701223">
        <ele>356.79</ele>
        <time>2018-11-08T09:21:53Z</time>
      </trkpt>
      <trkpt lat="37.1915465780" lon="-1.9763951842">
        <ele>357.27</ele>
        <time>2018-11-08T09:21:54Z</time>
      </trkpt>
      <trkpt lat="37.1915430576" lon="-1.9764235150">
        <ele>357.27</ele>
        <time>2018-11-08T09:21:55Z</time>
      </trkpt>
      <trkpt lat="37.1915489249" lon="-1.9764495827">
        <ele>357.75</ele>
        <time>2018-11-08T09:21:56Z</time>
      </trkpt>
      <trkpt lat="37.1915604919" lon="-1.9764738902">
        <ele>357.75</ele>
        <time>2018-11-08T09:21:57Z</time>
      </trkpt>
      <trkpt lat="37.1915759984" lon="-1.9764951803">
        <ele>358.23</ele>
        <time>2018-11-08T09:21:58Z</time>
      </trkpt>
      <trkpt lat="37.1915972047" lon="-1.9765090942">
        <ele>358.23</ele>
        <time>2018-11-08T09:21:59Z</time>
      </trkpt>
      <trkpt lat="37.1916197520" lon="-1.9765169732">
        <ele>358.71</ele>
        <time>2018-11-08T09:22:00Z</time>
      </trkpt>
      <trkpt lat="37.1916430537" lon="-1.9765244331">
        <ele>358.71</ele>
        <time>2018-11-08T09:22:01Z</time>
      </trkpt>
      <trkpt lat="37.1916676965" lon="-1.9765306357">
        <ele>359.19</ele>
        <time>2018-11-08T09:22:02Z</time>
      </trkpt>
      <trkpt lat="37.1916908305" lon="-1.9765341561">
        <ele>359.19</ele>
        <time>2018-11-08T09:22:03Z</time>
      </trkpt>
      <trkpt lat="37.1917133778" lon="-1.9765401911">
        <ele>359.19</ele>
        <time>2018-11-08T09:22:04Z</time>
      </trkpt>
      <trkpt lat="37.1917376854" lon="-1.9765473995">
        <ele>359.67</ele>
        <time>2018-11-08T09:22:05Z</time>
      </trkpt>
      <trkpt lat="37.1917609032" lon="-1.9765528478">
        <ele>360.15</ele>
        <time>2018-11-08T09:22:06Z</time>
      </trkpt>
      <trkpt lat="37.1917837020" lon="-1.9765572064">
        <ele>360.15</ele>
        <time>2018-11-08T09:22:07Z</time>
      </trkpt>
      <trkpt lat="37.1920035593" lon="-1.9765954278">
        <ele>362.07</ele>
        <time>2018-11-08T09:22:17Z</time>
      </trkpt>
      <trkpt lat="37.1921033878" lon="-1.9766024686">
        <ele>363.52</ele>
        <time>2018-11-08T09:22:23Z</time>
      </trkpt>
      <trkpt lat="37.1921017114" lon="-1.9766157120">
        <ele>364.00</ele>
        <time>2018-11-08T09:22:30Z</time>
      </trkpt>
      <trkpt lat="37.1921079978" lon="-1.9766116049">
        <ele>364.00</ele>
        <time>2018-11-08T09:22:42Z</time>
      </trkpt>
      <trkpt lat="37.1921115182" lon="-1.9766169693">
        <ele>364.00</ele>
        <time>2018-11-08T09:22:50Z</time>
      </trkpt>
      <trkpt lat="37.1921329759" lon="-1.9766231719">
        <ele>364.00</ele>
        <time>2018-11-08T09:22:52Z</time>
      </trkpt>
      <trkpt lat="37.1921514161" lon="-1.9766252674">
        <ele>364.00</ele>
        <time>2018-11-08T09:22:53Z</time>
      </trkpt>
      <trkpt lat="37.1921722870" lon="-1.9766254351">
        <ele>364.48</ele>
        <time>2018-11-08T09:22:54Z</time>
      </trkpt>
      <trkpt lat="37.1921934932" lon="-1.9766250998">
        <ele>364.48</ele>
        <time>2018-11-08T09:22:55Z</time>
      </trkpt>
      <trkpt lat="37.1922144480" lon="-1.9766235910">
        <ele>364.48</ele>
        <time>2018-11-08T09:22:56Z</time>
      </trkpt>
      <trkpt lat="37.1922341455" lon="-1.9766243454">
        <ele>364.48</ele>
        <time>2018-11-08T09:22:57Z</time>
      </trkpt>
      <trkpt lat="37.1924845129" lon="-1.9765966851">
        <ele>366.40</ele>
        <time>2018-11-08T09:23:08Z</time>
      </trkpt>
      <trkpt lat="37.1926829964" lon="-1.9766054861">
        <ele>367.84</ele>
        <time>2018-11-08T09:23:17Z</time>
      </trkpt>
      <trkpt lat="37.1928260755" lon="-1.9767493196">
        <ele>369.28</ele>
        <time>2018-11-08T09:23:26Z</time>
      </trkpt>
      <trkpt lat="37.1929010935" lon="-1.9769345596">
        <ele>371.21</ele>
        <time>2018-11-08T09:23:34Z</time>
      </trkpt>
      <trkpt lat="37.1929380577" lon="-1.9771568477">
        <ele>372.65</ele>
        <time>2018-11-08T09:23:43Z</time>
      </trkpt>
      <trkpt lat="37.1929635387" lon="-1.9773783814">
        <ele>375.05</ele>
        <time>2018-11-08T09:23:52Z</time>
      </trkpt>
      <trkpt lat="37.1929624490" lon="-1.9774980750">
        <ele>375.05</ele>
        <time>2018-11-08T09:23:57Z</time>
      </trkpt>
      <trkpt lat="37.1929527260" lon="-1.9775185268">
        <ele>375.05</ele>
        <time>2018-11-08T09:23:58Z</time>
      </trkpt>
      <trkpt lat="37.1929452661" lon="-1.9775371347">
        <ele>375.05</ele>
        <time>2018-11-08T09:23:59Z</time>
      </trkpt>
      <trkpt lat="37.1928585134" lon="-1.9777419884">
        <ele>376.49</ele>
        <time>2018-11-08T09:24:09Z</time>
      </trkpt>
      <trkpt lat="37.1927679051" lon="-1.9778422359">
        <ele>377.45</ele>
        <time>2018-11-08T09:24:16Z</time>
      </trkpt>
      <trkpt lat="37.1925662365" lon="-1.9779391307">
        <ele>377.94</ele>
        <time>2018-11-08T09:24:26Z</time>
      </trkpt>
      <trkpt lat="37.1924019512" lon="-1.9779633544">
        <ele>378.42</ele>
        <time>2018-11-08T09:24:33Z</time>
      </trkpt>
      <trkpt lat="37.1922740433" lon="-1.9779542182">
        <ele>378.42</ele>
        <time>2018-11-08T09:24:39Z</time>
      </trkpt>
      <trkpt lat="37.1920944192" lon="-1.9779345207">
        <ele>378.90</ele>
        <time>2018-11-08T09:24:48Z</time>
      </trkpt>
      <trkpt lat="37.1919107717" lon="-1.9778614305">
        <ele>378.42</ele>
        <time>2018-11-08T09:24:56Z</time>
      </trkpt>
      <trkpt lat="37.1917625796" lon="-1.9777739234">
        <ele>378.42</ele>
        <time>2018-11-08T09:25:03Z</time>
      </trkpt>
      <trkpt lat="37.1915325802" lon="-1.9776157569">
        <ele>377.94</ele>
        <time>2018-11-08T09:25:13Z</time>
      </trkpt>
      <trkpt lat="37.1913961228" lon="-1.9776124042">
        <ele>378.42</ele>
        <time>2018-11-08T09:25:19Z</time>
      </trkpt>
      <trkpt lat="37.1912724897" lon="-1.9776970614">
        <ele>379.86</ele>
        <time>2018-11-08T09:25:25Z</time>
      </trkpt>
      <trkpt lat="37.1912721545" lon="-1.9778689742">
        <ele>380.82</ele>
        <time>2018-11-08T09:25:31Z</time>
      </trkpt>
      <trkpt lat="37.1913496032" lon="-1.9780220278">
        <ele>380.82</ele>
        <time>2018-11-08T09:25:38Z</time>
      </trkpt>
      <trkpt lat="37.1914240345" lon="-1.9781496003">
        <ele>380.82</ele>
        <time>2018-11-08T09:25:44Z</time>
      </trkpt>
      <trkpt lat="37.1914315782" lon="-1.9781698007">
        <ele>380.82</ele>
        <time>2018-11-08T09:25:47Z</time>
      </trkpt>
      <trkpt lat="37.1914394572" lon="-1.9781867322">
        <ele>380.82</ele>
        <time>2018-11-08T09:25:48Z</time>
      </trkpt>
      <trkpt lat="37.1914550476" lon="-1.9782210141">
        <ele>381.30</ele>
        <time>2018-11-08T09:25:52Z</time>
      </trkpt>
      <trkpt lat="37.1914610825" lon="-1.9782309048">
        <ele>381.30</ele>
        <time>2018-11-08T09:25:53Z</time>
      </trkpt>
      <trkpt lat="37.1914665308" lon="-1.9782490097">
        <ele>381.30</ele>
        <time>2018-11-08T09:25:54Z</time>
      </trkpt>
      <trkpt lat="37.1915741544" lon="-1.9784134626">
        <ele>381.78</ele>
        <time>2018-11-08T09:26:01Z</time>
      </trkpt>
      <trkpt lat="37.1917953528" lon="-1.9785757363">
        <ele>382.74</ele>
        <time>2018-11-08T09:26:10Z</time>
      </trkpt>
      <trkpt lat="37.1920611430" lon="-1.9787106849">
        <ele>384.66</ele>
        <time>2018-11-08T09:26:21Z</time>
      </trkpt>
      <trkpt lat="37.1921795793" lon="-1.9787657540">
        <ele>385.15</ele>
        <time>2018-11-08T09:26:27Z</time>
      </trkpt>
      <trkpt lat="37.1923637297" lon="-1.9788758922">
        <ele>386.59</ele>
        <time>2018-11-08T09:26:35Z</time>
      </trkpt>
      <trkpt lat="37.1925362293" lon="-1.9790090807">
        <ele>388.99</ele>
        <time>2018-11-08T09:26:44Z</time>
      </trkpt>
      <trkpt lat="37.1925988421" lon="-1.9791584462">
        <ele>391.39</ele>
        <time>2018-11-08T09:26:51Z</time>
      </trkpt>
      <trkpt lat="37.1926141810" lon="-1.9793533254">
        <ele>393.32</ele>
        <time>2018-11-08T09:26:59Z</time>
      </trkpt>
      <trkpt lat="37.1926241554" lon="-1.9796201214">
        <ele>394.28</ele>
        <time>2018-11-08T09:27:09Z</time>
      </trkpt>
      <trkpt lat="37.1926166117" lon="-1.9799092133">
        <ele>395.72</ele>
        <time>2018-11-08T09:27:20Z</time>
      </trkpt>
      <trkpt lat="37.1925767139" lon="-1.9801724888">
        <ele>397.16</ele>
        <time>2018-11-08T09:27:30Z</time>
      </trkpt>
      <trkpt lat="37.1925615426" lon="-1.9802174158">
        <ele>397.16</ele>
        <time>2018-11-08T09:27:32Z</time>
      </trkpt>
      <trkpt lat="37.1925608721" lon="-1.9802369457">
        <ele>397.64</ele>
        <time>2018-11-08T09:27:33Z</time>
      </trkpt>
      <trkpt lat="37.1925566811" lon="-1.9802549668">
        <ele>397.64</ele>
        <time>2018-11-08T09:27:34Z</time>
      </trkpt>
      <trkpt lat="37.1925471257" lon="-1.9802712277">
        <ele>397.64</ele>
        <time>2018-11-08T09:27:35Z</time>
      </trkpt>
      <trkpt lat="37.1925343014" lon="-1.9802905899">
        <ele>397.64</ele>
        <time>2018-11-08T09:27:36Z</time>
      </trkpt>
      <trkpt lat="37.1924602892" lon="-1.9803861436">
        <ele>397.64</ele>
        <time>2018-11-08T09:27:43Z</time>
      </trkpt>
      <trkpt lat="37.1924420167" lon="-1.9803863112">
        <ele>399.08</ele>
        <time>2018-11-08T09:27:48Z</time>
      </trkpt>
      <trkpt lat="37.1924480516" lon="-1.9803956151">
        <ele>400.05</ele>
        <time>2018-11-08T09:27:58Z</time>
      </trkpt>
      <trkpt lat="37.1924381610" lon="-1.9803835452">
        <ele>400.53</ele>
        <time>2018-11-08T09:28:19Z</time>
      </trkpt>
      <trkpt lat="37.1924363170" lon="-1.9803756662">
        <ele>401.49</ele>
        <time>2018-11-08T09:28:41Z</time>
      </trkpt>
      <trkpt lat="37.1924454533" lon="-1.9803869817">
        <ele>402.45</ele>
        <time>2018-11-08T09:29:01Z</time>
      </trkpt>
      <trkpt lat="37.1924552601" lon="-1.9803794380">
        <ele>402.93</ele>
        <time>2018-11-08T09:29:29Z</time>
      </trkpt>
      <trkpt lat="37.1924511530" lon="-1.9803842157">
        <ele>401.01</ele>
        <time>2018-11-08T09:29:59Z</time>
      </trkpt>
      <trkpt lat="37.1924235765" lon="-1.9803548791">
        <ele>400.05</ele>
        <time>2018-11-08T09:30:30Z</time>
      </trkpt>
      <trkpt lat="37.1924452018" lon="-1.9803871494">
        <ele>399.57</ele>
        <time>2018-11-08T09:31:02Z</time>
      </trkpt>
      <trkpt lat="37.1924591996" lon="-1.9803783484">
        <ele>401.01</ele>
        <time>2018-11-08T09:31:25Z</time>
      </trkpt>
      <trkpt lat="37.1924623847" lon="-1.9803713076">
        <ele>401.97</ele>
        <time>2018-11-08T09:31:43Z</time>
      </trkpt>
      <trkpt lat="37.1924573556" lon="-1.9803722296">
        <ele>402.45</ele>
        <time>2018-11-08T09:32:09Z</time>
      </trkpt>
      <trkpt lat="37.1924605407" lon="-1.9803744089">
        <ele>402.45</ele>
        <time>2018-11-08T09:32:34Z</time>
      </trkpt>
      <trkpt lat="37.1924540866" lon="-1.9803669490">
        <ele>401.97</ele>
        <time>2018-11-08T09:32:58Z</time>
      </trkpt>
      <trkpt lat="37.1924539190" lon="-1.9803646021">
        <ele>401.49</ele>
        <time>2018-11-08T09:33:24Z</time>
      </trkpt>
      <trkpt lat="37.1924623009" lon="-1.9803702179">
        <ele>402.93</ele>
        <time>2018-11-08T09:33:49Z</time>
      </trkpt>
      <trkpt lat="37.1924559306" lon="-1.9803727325">
        <ele>403.89</ele>
        <time>2018-11-08T09:34:08Z</time>
      </trkpt>
      <trkpt lat="37.1924643125" lon="-1.9803706370">
        <ele>404.85</ele>
        <time>2018-11-08T09:34:29Z</time>
      </trkpt>
      <trkpt lat="37.1924568526" lon="-1.9803768396">
        <ele>403.41</ele>
        <time>2018-11-08T09:34:47Z</time>
      </trkpt>
      <trkpt lat="37.1924702637" lon="-1.9803868979">
        <ele>401.97</ele>
        <time>2018-11-08T09:35:08Z</time>
      </trkpt>
      <trkpt lat="37.1924644802" lon="-1.9803640153">
        <ele>402.45</ele>
        <time>2018-11-08T09:35:30Z</time>
      </trkpt>
      <trkpt lat="37.1924373228" lon="-1.9803369418">
        <ele>404.37</ele>
        <time>2018-11-08T09:35:58Z</time>
      </trkpt>
      <trkpt lat="37.1924351435" lon="-1.9803166576">
        <ele>405.81</ele>
        <time>2018-11-08T09:36:18Z</time>
      </trkpt>
      <trkpt lat="37.1924400888" lon="-1.9803180825">
        <ele>407.26</ele>
        <time>2018-11-08T09:36:36Z</time>
      </trkpt>
      <trkpt lat="37.1924474649" lon="-1.9803410489">
        <ele>406.29</ele>
        <time>2018-11-08T09:36:54Z</time>
      </trkpt>
      <trkpt lat="37.1924504824" lon="-1.9803621713">
        <ele>406.29</ele>
        <time>2018-11-08T09:37:11Z</time>
      </trkpt>
      <trkpt lat="37.1924495604" lon="-1.9803636800">
        <ele>405.33</ele>
        <time>2018-11-08T09:37:29Z</time>
      </trkpt>
      <trkpt lat="37.1924449503" lon="-1.9803776778">
        <ele>403.41</ele>
        <time>2018-11-08T09:37:46Z</time>
      </trkpt>
      <trkpt lat="37.1924516559" lon="-1.9803867303">
        <ele>401.49</ele>
        <time>2018-11-08T09:38:00Z</time>
      </trkpt>
      <trkpt lat="37.1924533322" lon="-1.9803936873">
        <ele>401.49</ele>
        <time>2018-11-08T09:38:14Z</time>
      </trkpt>
      <trkpt lat="37.1924437769" lon="-1.9803924300">
        <ele>399.57</ele>
        <time>2018-11-08T09:38:27Z</time>
      </trkpt>
      <trkpt lat="37.1924408432" lon="-1.9803872332">
        <ele>401.01</ele>
        <time>2018-11-08T09:38:41Z</time>
      </trkpt>
      <trkpt lat="37.1924566012" lon="-1.9803800248">
        <ele>403.41</ele>
        <time>2018-11-08T09:38:56Z</time>
      </trkpt>
      <trkpt lat="37.1924573556" lon="-1.9803716429">
        <ele>404.37</ele>
        <time>2018-11-08T09:39:09Z</time>
      </trkpt>
      <trkpt lat="37.1924659051" lon="-1.9803647697">
        <ele>404.85</ele>
        <time>2018-11-08T09:39:26Z</time>
      </trkpt>
      <trkpt lat="37.1924676653" lon="-1.9803678710">
        <ele>404.37</ele>
        <time>2018-11-08T09:39:38Z</time>
      </trkpt>
      <trkpt lat="37.1924601216" lon="-1.9803607464">
        <ele>403.41</ele>
        <time>2018-11-08T09:39:52Z</time>
      </trkpt>
      <trkpt lat="37.1924626362" lon="-1.9803590700">
        <ele>402.45</ele>
        <time>2018-11-08T09:40:02Z</time>
      </trkpt>
      <trkpt lat="37.1924705990" lon="-1.9803692121">
        <ele>402.93</ele>
        <time>2018-11-08T09:40:20Z</time>
      </trkpt>
      <trkpt lat="37.1924718563" lon="-1.9803617522">
        <ele>401.01</ele>
        <time>2018-11-08T09:40:33Z</time>
      </trkpt>
      <trkpt lat="37.1924685035" lon="-1.9803615008">
        <ele>400.05</ele>
        <time>2018-11-08T09:40:49Z</time>
      </trkpt>
      <trkpt lat="37.1924742870" lon="-1.9803668652">
        <ele>399.08</ele>
        <time>2018-11-08T09:41:06Z</time>
      </trkpt>
      <trkpt lat="37.1924703475" lon="-1.9803852215">
        <ele>400.05</ele>
        <time>2018-11-08T09:41:24Z</time>
      </trkpt>
      <trkpt lat="37.1924595349" lon="-1.9803745765">
        <ele>401.49</ele>
        <time>2018-11-08T09:41:38Z</time>
      </trkpt>
      <trkpt lat="37.1924452856" lon="-1.9803778455">
        <ele>400.53</ele>
        <time>2018-11-08T09:41:54Z</time>
      </trkpt>
      <trkpt lat="37.1924380772" lon="-1.9803923462">
        <ele>399.08</ele>
        <time>2018-11-08T09:42:14Z</time>
      </trkpt>
      <trkpt lat="37.1924431901" lon="-1.9803922623">
        <ele>398.12</ele>
        <time>2018-11-08T09:42:31Z</time>
      </trkpt>
      <trkpt lat="37.1924438607" lon="-1.9803868141">
        <ele>397.64</ele>
        <time>2018-11-08T09:42:50Z</time>
      </trkpt>
      <trkpt lat="37.1924555115" lon="-1.9803745765">
        <ele>396.68</ele>
        <time>2018-11-08T09:43:05Z</time>
      </trkpt>
      <trkpt lat="37.1924612112" lon="-1.9803906698">
        <ele>395.72</ele>
        <time>2018-11-08T09:43:19Z</time>
      </trkpt>
      <trkpt lat="37.1924582776" lon="-1.9804070983">
        <ele>395.24</ele>
        <time>2018-11-08T09:43:34Z</time>
      </trkpt>
      <trkpt lat="37.1924488898" lon="-1.9803855568">
        <ele>395.72</ele>
        <time>2018-11-08T09:43:59Z</time>
      </trkpt>
      <trkpt lat="37.1924433578" lon="-1.9803882390">
        <ele>397.16</ele>
        <time>2018-11-08T09:44:14Z</time>
      </trkpt>
      <trkpt lat="37.1924370714" lon="-1.9803785998">
        <ele>397.64</ele>
        <time>2018-11-08T09:44:30Z</time>
      </trkpt>
      <trkpt lat="37.1924441960" lon="-1.9803714752">
        <ele>398.12</ele>
        <time>2018-11-08T09:44:43Z</time>
      </trkpt>
      <trkpt lat="37.1924470458" lon="-1.9803768396">
        <ele>397.64</ele>
        <time>2018-11-08T09:45:03Z</time>
      </trkpt>
      <trkpt lat="37.1924466267" lon="-1.9803844672">
        <ele>398.60</ele>
        <time>2018-11-08T09:45:13Z</time>
      </trkpt>
      <trkpt lat="37.1924440283" lon="-1.9803970400">
        <ele>396.20</ele>
        <time>2018-11-08T09:45:32Z</time>
      </trkpt>
      <trkpt lat="37.1924503148" lon="-1.9803889934">
        <ele>396.68</ele>
        <time>2018-11-08T09:45:48Z</time>
      </trkpt>
      <trkpt lat="37.1924560145" lon="-1.9803943578">
        <ele>398.12</ele>
        <time>2018-11-08T09:46:02Z</time>
      </trkpt>
      <trkpt lat="37.1924454533" lon="-1.9803859759">
        <ele>401.97</ele>
        <time>2018-11-08T09:46:20Z</time>
      </trkpt>
      <trkpt lat="37.1924432740" lon="-1.9803812820">
        <ele>400.53</ele>
        <time>2018-11-08T09:46:36Z</time>
      </trkpt>
      <trkpt lat="37.1924478840" lon="-1.9803612493">
        <ele>398.60</ele>
        <time>2018-11-08T09:46:54Z</time>
      </trkpt>
      <trkpt lat="37.1924493928" lon="-1.9803914241">
        <ele>398.60</ele>
        <time>2018-11-08T09:47:03Z</time>
      </trkpt>
      <trkpt lat="37.1924358141" lon="-1.9804138038">
        <ele>398.60</ele>
        <time>2018-11-08T09:47:05Z</time>
      </trkpt>
      <trkpt lat="37.1924260072" lon="-1.9804241136">
        <ele>398.60</ele>
        <time>2018-11-08T09:47:06Z</time>
      </trkpt>
      <trkpt lat="37.1924153622" lon="-1.9804350939">
        <ele>399.08</ele>
        <time>2018-11-08T09:47:07Z</time>
      </trkpt>
      <trkpt lat="37.1924023703" lon="-1.9804452360">
        <ele>399.08</ele>
        <time>2018-11-08T09:47:08Z</time>
      </trkpt>
      <trkpt lat="37.1923915576" lon="-1.9804482535">
        <ele>399.57</ele>
        <time>2018-11-08T09:47:09Z</time>
      </trkpt>
      <trkpt lat="37.1923803259" lon="-1.9804481696">
        <ele>399.57</ele>
        <time>2018-11-08T09:47:10Z</time>
      </trkpt>
      <trkpt lat="37.1923688427" lon="-1.9804502651">
        <ele>400.05</ele>
        <time>2018-11-08T09:47:11Z</time>
      </trkpt>
      <trkpt lat="37.1923508216" lon="-1.9804723933">
        <ele>399.08</ele>
        <time>2018-11-08T09:47:17Z</time>
      </trkpt>
      <trkpt lat="37.1923322976" lon="-1.9804905821">
        <ele>399.57</ele>
        <time>2018-11-08T09:47:19Z</time>
      </trkpt>
      <trkpt lat="37.1923224907" lon="-1.9805060048">
        <ele>399.57</ele>
        <time>2018-11-08T09:47:20Z</time>
      </trkpt>
      <trkpt lat="37.1923105046" lon="-1.9805231038">
        <ele>400.05</ele>
        <time>2018-11-08T09:47:21Z</time>
      </trkpt>
      <trkpt lat="37.1923016198" lon="-1.9805414602">
        <ele>400.53</ele>
        <time>2018-11-08T09:47:22Z</time>
      </trkpt>
      <trkpt lat="37.1922943275" lon="-1.9805593975">
        <ele>401.01</ele>
        <time>2018-11-08T09:47:23Z</time>
      </trkpt>
      <trkpt lat="37.1922845207" lon="-1.9805792626">
        <ele>401.01</ele>
        <time>2018-11-08T09:47:24Z</time>
      </trkpt>
      <trkpt lat="37.1921597142" lon="-1.9806955196">
        <ele>401.97</ele>
        <time>2018-11-08T09:47:31Z</time>
      </trkpt>
      <trkpt lat="37.1919714566" lon="-1.9807025604">
        <ele>401.49</ele>
        <time>2018-11-08T09:47:39Z</time>
      </trkpt>
      <trkpt lat="37.1918646712" lon="-1.9806691166">
        <ele>401.97</ele>
        <time>2018-11-08T09:47:44Z</time>
      </trkpt>
      <trkpt lat="37.1917899046" lon="-1.9805708807">
        <ele>402.93</ele>
        <time>2018-11-08T09:47:49Z</time>
      </trkpt>
      <trkpt lat="37.1916393656" lon="-1.9803548791">
        <ele>404.37</ele>
        <time>2018-11-08T09:47:59Z</time>
      </trkpt>
      <trkpt lat="37.1914853901" lon="-1.9802539609">
        <ele>405.81</ele>
        <time>2018-11-08T09:48:06Z</time>
      </trkpt>
      <trkpt lat="37.1913576499" lon="-1.9802572299">
        <ele>406.77</ele>
        <time>2018-11-08T09:48:12Z</time>
      </trkpt>
      <trkpt lat="37.1912397165" lon="-1.9803765882">
        <ele>410.62</ele>
        <time>2018-11-08T09:48:19Z</time>
      </trkpt>
      <trkpt lat="37.1911443304" lon="-1.9805177394">
        <ele>412.06</ele>
        <time>2018-11-08T09:48:26Z</time>
      </trkpt>
      <trkpt lat="37.1910082083" lon="-1.9806108624">
        <ele>412.54</ele>
        <time>2018-11-08T09:48:33Z</time>
      </trkpt>
      <trkpt lat="37.1908616927" lon="-1.9806658477">
        <ele>413.02</ele>
        <time>2018-11-08T09:48:41Z</time>
      </trkpt>
      <trkpt lat="37.1907112375" lon="-1.9807636645">
        <ele>412.06</ele>
        <time>2018-11-08T09:48:49Z</time>
      </trkpt>
      <trkpt lat="37.1905336250" lon="-1.9809542689">
        <ele>410.14</ele>
        <time>2018-11-08T09:48:57Z</time>
      </trkpt>
      <trkpt lat="37.1905023605" lon="-1.9810265210">
        <ele>408.70</ele>
        <time>2018-11-08T09:49:01Z</time>
      </trkpt>
      <trkpt lat="37.1904990915" lon="-1.9810603000">
        <ele>408.70</ele>
        <time>2018-11-08T09:49:02Z</time>
      </trkpt>
      <trkpt lat="37.1905047912" lon="-1.9811465498">
        <ele>408.70</ele>
        <time>2018-11-08T09:49:07Z</time>
      </trkpt>
      <trkpt lat="37.1905104909" lon="-1.9811427779">
        <ele>409.18</ele>
        <time>2018-11-08T09:49:19Z</time>
      </trkpt>
      <trkpt lat="37.1904995106" lon="-1.9812007807">
        <ele>409.18</ele>
        <time>2018-11-08T09:49:27Z</time>
      </trkpt>
      <trkpt lat="37.1904516499" lon="-1.9813015312">
        <ele>409.66</ele>
        <time>2018-11-08T09:49:34Z</time>
      </trkpt>
      <trkpt lat="37.1904344670" lon="-1.9813129306">
        <ele>408.70</ele>
        <time>2018-11-08T09:49:40Z</time>
      </trkpt>
      <trkpt lat="37.1904074773" lon="-1.9813084044">
        <ele>405.81</ele>
        <time>2018-11-08T09:49:55Z</time>
      </trkpt>
      <trkpt lat="37.1904158592" lon="-1.9812935684">
        <ele>404.85</ele>
        <time>2018-11-08T09:50:20Z</time>
      </trkpt>
      <trkpt lat="37.1904145181" lon="-1.9812861085">
        <ele>405.81</ele>
        <time>2018-11-08T09:50:42Z</time>
      </trkpt>
      <trkpt lat="37.1904166974" lon="-1.9813173730">
        <ele>406.29</ele>
        <time>2018-11-08T09:50:54Z</time>
      </trkpt>
      <trkpt lat="37.1903888695" lon="-1.9813790638">
        <ele>405.81</ele>
        <time>2018-11-08T09:51:02Z</time>
      </trkpt>
      <trkpt lat="37.1903466247" lon="-1.9815505575">
        <ele>406.77</ele>
        <time>2018-11-08T09:51:09Z</time>
      </trkpt>
      <trkpt lat="37.1903256699" lon="-1.9817412458">
        <ele>405.81</ele>
        <time>2018-11-08T09:51:14Z</time>
      </trkpt>
      <trkpt lat="37.1902946569" lon="-1.9819662161">
        <ele>403.89</ele>
        <time>2018-11-08T09:51:21Z</time>
      </trkpt>
      <trkpt lat="37.1903055534" lon="-1.9820863288">
        <ele>402.45</ele>
        <time>2018-11-08T09:51:25Z</time>
      </trkpt>
      <trkpt lat="37.1902377438" lon="-1.9821792841">
        <ele>402.93</ele>
        <time>2018-11-08T09:51:31Z</time>
      </trkpt>
      <trkpt lat="37.1901882906" lon="-1.9821592513">
        <ele>402.93</ele>
        <time>2018-11-08T09:51:33Z</time>
      </trkpt>
      <trkpt lat="37.1900109295" lon="-1.9820713252">
        <ele>401.49</ele>
        <time>2018-11-08T09:51:41Z</time>
      </trkpt>
      <trkpt lat="37.1899005398" lon="-1.9819875900">
        <ele>401.97</ele>
        <time>2018-11-08T09:51:48Z</time>
      </trkpt>
      <trkpt lat="37.1898892242" lon="-1.9819705747">
        <ele>401.01</ele>
        <time>2018-11-08T09:51:55Z</time>
      </trkpt>
      <trkpt lat="37.1898938343" lon="-1.9819532242">
        <ele>399.57</ele>
        <time>2018-11-08T09:52:03Z</time>
      </trkpt>
      <trkpt lat="37.1899028867" lon="-1.9819125719">
        <ele>395.24</ele>
        <time>2018-11-08T09:52:33Z</time>
      </trkpt>
      <trkpt lat="37.1899063233" lon="-1.9819341134">
        <ele>392.36</ele>
        <time>2018-11-08T09:52:57Z</time>
      </trkpt>
      <trkpt lat="37.1899033897" lon="-1.9819481112">
        <ele>389.95</ele>
        <time>2018-11-08T09:53:13Z</time>
      </trkpt>
      <trkpt lat="37.1898955945" lon="-1.9819486979">
        <ele>386.59</ele>
        <time>2018-11-08T09:53:35Z</time>
      </trkpt>
      <trkpt lat="37.1899033058" lon="-1.9819524698">
        <ele>388.03</ele>
        <time>2018-11-08T09:53:52Z</time>
      </trkpt>
      <trkpt lat="37.1899034735" lon="-1.9819568284">
        <ele>388.99</ele>
        <time>2018-11-08T09:54:16Z</time>
      </trkpt>
      <trkpt lat="37.1899014618" lon="-1.9819722511">
        <ele>389.95</ele>
        <time>2018-11-08T09:54:26Z</time>
      </trkpt>
      <trkpt lat="37.1898957621" lon="-1.9819582533">
        <ele>392.84</ele>
        <time>2018-11-08T09:54:43Z</time>
      </trkpt>
      <trkpt lat="37.1898931637" lon="-1.9819497876">
        <ele>393.32</ele>
        <time>2018-11-08T09:54:45Z</time>
      </trkpt>
      <trkpt lat="37.1898951754" lon="-1.9819792919">
        <ele>393.32</ele>
        <time>2018-11-08T09:54:49Z</time>
      </trkpt>
      <trkpt lat="37.1899446286" lon="-1.9820218720">
        <ele>393.80</ele>
        <time>2018-11-08T09:54:53Z</time>
      </trkpt>
      <trkpt lat="37.1900824271" lon="-1.9821152464">
        <ele>392.36</ele>
        <time>2018-11-08T09:54:59Z</time>
      </trkpt>
      <trkpt lat="37.1902258415" lon="-1.9821583293">
        <ele>393.32</ele>
        <time>2018-11-08T09:55:05Z</time>
      </trkpt>
      <trkpt lat="37.1902947407" lon="-1.9820948783">
        <ele>394.76</ele>
        <time>2018-11-08T09:55:09Z</time>
      </trkpt>
      <trkpt lat="37.1903082356" lon="-1.9818820618">
        <ele>396.20</ele>
        <time>2018-11-08T09:55:18Z</time>
      </trkpt>
      <trkpt lat="37.1903231554" lon="-1.9816955645">
        <ele>397.16</ele>
        <time>2018-11-08T09:55:27Z</time>
      </trkpt>
      <trkpt lat="37.1903543361" lon="-1.9815633819">
        <ele>399.08</ele>
        <time>2018-11-08T09:55:33Z</time>
      </trkpt>
      <trkpt lat="37.1904001851" lon="-1.9814121723">
        <ele>398.60</ele>
        <time>2018-11-08T09:55:39Z</time>
      </trkpt>
      <trkpt lat="37.1904038731" lon="-1.9813693408">
        <ele>400.53</ele>
        <time>2018-11-08T09:55:45Z</time>
      </trkpt>
      <trkpt lat="37.1904037055" lon="-1.9813547563">
        <ele>402.93</ele>
        <time>2018-11-08T09:56:07Z</time>
      </trkpt>
      <trkpt lat="37.1904706769" lon="-1.9812468812">
        <ele>403.41</ele>
        <time>2018-11-08T09:56:14Z</time>
      </trkpt>
      <trkpt lat="37.1904862672" lon="-1.9811682589">
        <ele>404.37</ele>
        <time>2018-11-08T09:56:17Z</time>
      </trkpt>
      <trkpt lat="37.1904987562" lon="-1.9809694402">
        <ele>404.37</ele>
        <time>2018-11-08T09:56:25Z</time>
      </trkpt>
      <trkpt lat="37.1905955672" lon="-1.9808665104">
        <ele>404.85</ele>
        <time>2018-11-08T09:56:31Z</time>
      </trkpt>
      <trkpt lat="37.1907264087" lon="-1.9807387702">
        <ele>404.37</ele>
        <time>2018-11-08T09:56:38Z</time>
      </trkpt>
      <trkpt lat="37.1908472758" lon="-1.9806660153">
        <ele>406.77</ele>
        <time>2018-11-08T09:56:45Z</time>
      </trkpt>
      <trkpt lat="37.1909502894" lon="-1.9806369301">
        <ele>407.26</ele>
        <time>2018-11-08T09:56:52Z</time>
      </trkpt>
      <trkpt lat="37.1909735072" lon="-1.9806339964">
        <ele>407.26</ele>
        <time>2018-11-08T09:56:53Z</time>
      </trkpt>
      <trkpt lat="37.1910025086" lon="-1.9806233514">
        <ele>406.77</ele>
        <time>2018-11-08T09:56:54Z</time>
      </trkpt>
      <trkpt lat="37.1910306718" lon="-1.9806097727">
        <ele>406.77</ele>
        <time>2018-11-08T09:56:55Z</time>
      </trkpt>
      <trkpt lat="37.1910636965" lon="-1.9805868901">
        <ele>406.77</ele>
        <time>2018-11-08T09:56:56Z</time>
      </trkpt>
      <trkpt lat="37.1910956316" lon="-1.9805595651">
        <ele>406.77</ele>
        <time>2018-11-08T09:56:57Z</time>
      </trkpt>
      <trkpt lat="37.1911258064" lon="-1.9805310667">
        <ele>406.77</ele>
        <time>2018-11-08T09:56:58Z</time>
      </trkpt>
      <trkpt lat="37.1912975516" lon="-1.9802888297">
        <ele>406.77</ele>
        <time>2018-11-08T09:57:04Z</time>
      </trkpt>
      <trkpt lat="37.1913362760" lon="-1.9802594092">
        <ele>405.81</ele>
        <time>2018-11-08T09:57:05Z</time>
      </trkpt>
      <trkpt lat="37.1913705580" lon="-1.9802418072">
        <ele>405.33</ele>
        <time>2018-11-08T09:57:06Z</time>
      </trkpt>
      <trkpt lat="37.1914180834" lon="-1.9802283123">
        <ele>404.85</ele>
        <time>2018-11-08T09:57:07Z</time>
      </trkpt>
      <trkpt lat="37.1914695483" lon="-1.9802282285">
        <ele>403.89</ele>
        <time>2018-11-08T09:57:08Z</time>
      </trkpt>
      <trkpt lat="37.1915199235" lon="-1.9802399632">
        <ele>403.41</ele>
        <time>2018-11-08T09:57:09Z</time>
      </trkpt>
      <trkpt lat="37.1916291397" lon="-1.9802984688">
        <ele>401.97</ele>
        <time>2018-11-08T09:57:11Z</time>
      </trkpt>
      <trkpt lat="37.1916807722" lon="-1.9803470839">
        <ele>401.49</ele>
        <time>2018-11-08T09:57:12Z</time>
      </trkpt>
      <trkpt lat="37.1917112824" lon="-1.9803909212">
        <ele>401.49</ele>
        <time>2018-11-08T09:57:13Z</time>
      </trkpt>
      <trkpt lat="37.1917401161" lon="-1.9804384466">
        <ele>401.01</ele>
        <time>2018-11-08T09:57:14Z</time>
      </trkpt>
      <trkpt lat="37.1917697880" lon="-1.9804998860">
        <ele>401.01</ele>
        <time>2018-11-08T09:57:15Z</time>
      </trkpt>
      <trkpt lat="37.1917919163" lon="-1.9805424660">
        <ele>400.53</ele>
        <time>2018-11-08T09:57:16Z</time>
      </trkpt>
      <trkpt lat="37.1918189898" lon="-1.9805883151">
        <ele>400.53</ele>
        <time>2018-11-08T09:57:17Z</time>
      </trkpt>
      <trkpt lat="37.1918449737" lon="-1.9806252792">
        <ele>400.05</ele>
        <time>2018-11-08T09:57:18Z</time>
      </trkpt>
      <trkpt lat="37.1918794233" lon="-1.9806557894">
        <ele>399.57</ele>
        <time>2018-11-08T09:57:19Z</time>
      </trkpt>
      <trkpt lat="37.1919562854" lon="-1.9806873053">
        <ele>399.08</ele>
        <time>2018-11-08T09:57:21Z</time>
      </trkpt>
      <trkpt lat="37.1921228338" lon="-1.9807249401">
        <ele>398.12</ele>
        <time>2018-11-08T09:57:26Z</time>
      </trkpt>
      <trkpt lat="37.1921452973" lon="-1.9807436317">
        <ele>398.60</ele>
        <time>2018-11-08T09:57:27Z</time>
      </trkpt>
      <trkpt lat="37.1921573672" lon="-1.9807633292">
        <ele>398.60</ele>
        <time>2018-11-08T09:57:28Z</time>
      </trkpt>
      <trkpt lat="37.1921630669" lon="-1.9807938393">
        <ele>399.08</ele>
        <time>2018-11-08T09:57:29Z</time>
      </trkpt>
      <trkpt lat="37.1921589598" lon="-1.9808290433">
        <ele>399.57</ele>
        <time>2018-11-08T09:57:30Z</time>
      </trkpt>
      <trkpt lat="37.1921544336" lon="-1.9808522612">
        <ele>400.05</ele>
        <time>2018-11-08T09:57:31Z</time>
      </trkpt>
      <trkpt lat="37.1920691058" lon="-1.9810603000">
        <ele>404.37</ele>
        <time>2018-11-08T09:57:40Z</time>
      </trkpt>
      <trkpt lat="37.1919731330" lon="-1.9813242462">
        <ele>406.77</ele>
        <time>2018-11-08T09:57:51Z</time>
      </trkpt>
      <trkpt lat="37.1918965224" lon="-1.9815371465">
        <ele>407.74</ele>
        <time>2018-11-08T09:58:00Z</time>
      </trkpt>
      <trkpt lat="37.1918380167" lon="-1.9817207940">
        <ele>408.22</ele>
        <time>2018-11-08T09:58:09Z</time>
      </trkpt>
      <trkpt lat="37.1917893179" lon="-1.9819268212">
        <ele>408.70</ele>
        <time>2018-11-08T09:58:18Z</time>
      </trkpt>
      <trkpt lat="37.1917902399" lon="-1.9821507018">
        <ele>410.62</ele>
        <time>2018-11-08T09:58:27Z</time>
      </trkpt>
      <trkpt lat="37.1917894855" lon="-1.9823615905">
        <ele>412.54</ele>
        <time>2018-11-08T09:58:36Z</time>
      </trkpt>
      <trkpt lat="37.1917911619" lon="-1.9825827051">
        <ele>414.47</ele>
        <time>2018-11-08T09:58:45Z</time>
      </trkpt>
      <trkpt lat="37.1917678602" lon="-1.9828052446">
        <ele>415.43</ele>
        <time>2018-11-08T09:58:54Z</time>
      </trkpt>
      <trkpt lat="37.1917668544" lon="-1.9830651674">
        <ele>415.43</ele>
        <time>2018-11-08T09:59:03Z</time>
      </trkpt>
      <trkpt lat="37.1917962749" lon="-1.9833415188">
        <ele>413.98</ele>
        <time>2018-11-08T09:59:12Z</time>
      </trkpt>
      <trkpt lat="37.1918031480" lon="-1.9835422654">
        <ele>413.50</ele>
        <time>2018-11-08T09:59:20Z</time>
      </trkpt>
      <trkpt lat="37.1918284614" lon="-1.9836857636">
        <ele>413.02</ele>
        <time>2018-11-08T09:59:28Z</time>
      </trkpt>
      <trkpt lat="37.1918856259" lon="-1.9839290064">
        <ele>413.02</ele>
        <time>2018-11-08T09:59:39Z</time>
      </trkpt>
      <trkpt lat="37.1919257753" lon="-1.9841179345">
        <ele>412.54</ele>
        <time>2018-11-08T09:59:47Z</time>
      </trkpt>
      <trkpt lat="37.1920227539" lon="-1.9844071101">
        <ele>412.06</ele>
        <time>2018-11-08T09:59:57Z</time>
      </trkpt>
      <trkpt lat="37.1921782382" lon="-1.9846949447">
        <ele>411.58</ele>
        <time>2018-11-08T10:00:06Z</time>
      </trkpt>
      <trkpt lat="37.1922480594" lon="-1.9850021414">
        <ele>411.10</ele>
        <time>2018-11-08T10:00:13Z</time>
      </trkpt>
      <trkpt lat="37.1922724508" lon="-1.9851603080">
        <ele>410.62</ele>
        <time>2018-11-08T10:00:16Z</time>
      </trkpt>
      <trkpt lat="37.1922908910" lon="-1.9852078333">
        <ele>410.62</ele>
        <time>2018-11-08T10:00:17Z</time>
      </trkpt>
      <trkpt lat="37.1923172940" lon="-1.9852542691">
        <ele>410.62</ele>
        <time>2018-11-08T10:00:18Z</time>
      </trkpt>
      <trkpt lat="37.1923453733" lon="-1.9852982741">
        <ele>411.10</ele>
        <time>2018-11-08T10:00:19Z</time>
      </trkpt>
      <trkpt lat="37.1923735365" lon="-1.9853385910">
        <ele>411.58</ele>
        <time>2018-11-08T10:00:20Z</time>
      </trkpt>
      <trkpt lat="37.1923926473" lon="-1.9853634015">
        <ele>411.58</ele>
        <time>2018-11-08T10:00:21Z</time>
      </trkpt>
      <trkpt lat="37.1924199723" lon="-1.9853873737">
        <ele>412.06</ele>
        <time>2018-11-08T10:00:22Z</time>
      </trkpt>
      <trkpt lat="37.1924459562" lon="-1.9854006171">
        <ele>412.06</ele>
        <time>2018-11-08T10:00:23Z</time>
      </trkpt>
      <trkpt lat="37.1924716886" lon="-1.9854036346">
        <ele>412.06</ele>
        <time>2018-11-08T10:00:24Z</time>
      </trkpt>
      <trkpt lat="37.1924928948" lon="-1.9854008686">
        <ele>412.54</ele>
        <time>2018-11-08T10:00:25Z</time>
      </trkpt>
      <trkpt lat="37.1926357225" lon="-1.9853210729">
        <ele>413.50</ele>
        <time>2018-11-08T10:00:32Z</time>
      </trkpt>
      <trkpt lat="37.1927740239" lon="-1.9851250201">
        <ele>414.95</ele>
        <time>2018-11-08T10:00:41Z</time>
      </trkpt>
      <trkpt lat="37.1928637940" lon="-1.9848395325">
        <ele>416.39</ele>
        <time>2018-11-08T10:00:51Z</time>
      </trkpt>
      <trkpt lat="37.1928963158" lon="-1.9845212717">
        <ele>417.83</ele>
        <time>2018-11-08T10:01:02Z</time>
      </trkpt>
      <trkpt lat="37.1928679012" lon="-1.9842769392">
        <ele>419.27</ele>
        <time>2018-11-08T10:01:12Z</time>
      </trkpt>
      <trkpt lat="37.1927498840" lon="-1.9840442576">
        <ele>420.71</ele>
        <time>2018-11-08T10:01:23Z</time>
      </trkpt>
      <trkpt lat="37.1927373949" lon="-1.9838384818">
        <ele>422.16</ele>
        <time>2018-11-08T10:01:31Z</time>
      </trkpt>
      <trkpt lat="37.1928182803" lon="-1.9837014377">
        <ele>423.60</ele>
        <time>2018-11-08T10:01:38Z</time>
      </trkpt>
      <trkpt lat="37.1929844934" lon="-1.9836321194">
        <ele>424.56</ele>
        <time>2018-11-08T10:01:47Z</time>
      </trkpt>
      <trkpt lat="37.1932170074" lon="-1.9835571852">
        <ele>426.48</ele>
        <time>2018-11-08T10:01:59Z</time>
      </trkpt>
      <trkpt lat="37.1933762636" lon="-1.9835534971">
        <ele>428.89</ele>
        <time>2018-11-08T10:02:07Z</time>
      </trkpt>
      <trkpt lat="37.1934774332" lon="-1.9836789742">
        <ele>430.81</ele>
        <time>2018-11-08T10:02:14Z</time>
      </trkpt>
      <trkpt lat="37.1935029980" lon="-1.9838841632">
        <ele>431.29</ele>
        <time>2018-11-08T10:02:23Z</time>
      </trkpt>
      <trkpt lat="37.1935470030" lon="-1.9840610214">
        <ele>432.25</ele>
        <time>2018-11-08T10:02:33Z</time>
      </trkpt>
      <trkpt lat="37.1936795209" lon="-1.9842437468">
        <ele>434.17</ele>
        <time>2018-11-08T10:02:45Z</time>
      </trkpt>
      <trkpt lat="37.1937935147" lon="-1.9843633566">
        <ele>435.61</ele>
        <time>2018-11-08T10:02:54Z</time>
      </trkpt>
      <trkpt lat="37.1939109452" lon="-1.9843837246">
        <ele>436.58</ele>
        <time>2018-11-08T10:03:01Z</time>
      </trkpt>
      <trkpt lat="37.1940270346" lon="-1.9842858240">
        <ele>438.50</ele>
        <time>2018-11-08T10:03:09Z</time>
      </trkpt>
      <trkpt lat="37.1941085067" lon="-1.9841323514">
        <ele>439.94</ele>
        <time>2018-11-08T10:03:17Z</time>
      </trkpt>
      <trkpt lat="37.1941980254" lon="-1.9839786272">
        <ele>441.38</ele>
        <time>2018-11-08T10:03:25Z</time>
      </trkpt>
      <trkpt lat="37.1942882147" lon="-1.9839254022">
        <ele>441.86</ele>
        <time>2018-11-08T10:03:30Z</time>
      </trkpt>
      <trkpt lat="37.1944001131" lon="-1.9839804713">
        <ele>442.82</ele>
        <time>2018-11-08T10:03:37Z</time>
      </trkpt>
      <trkpt lat="37.1944679227" lon="-1.9840961415">
        <ele>443.31</ele>
        <time>2018-11-08T10:03:46Z</time>
      </trkpt>
      <trkpt lat="37.1944511589" lon="-1.9842341915">
        <ele>443.79</ele>
        <time>2018-11-08T10:03:54Z</time>
      </trkpt>
      <trkpt lat="37.1943748835" lon="-1.9843510352">
        <ele>445.23</ele>
        <time>2018-11-08T10:04:02Z</time>
      </trkpt>
      <trkpt lat="37.1942136995" lon="-1.9845198467">
        <ele>446.67</ele>
        <time>2018-11-08T10:04:14Z</time>
      </trkpt>
      <trkpt lat="37.1940655075" lon="-1.9846547116">
        <ele>448.11</ele>
        <time>2018-11-08T10:04:24Z</time>
      </trkpt>
      <trkpt lat="37.1939401142" lon="-1.9847635925">
        <ele>449.07</ele>
        <time>2018-11-08T10:04:32Z</time>
      </trkpt>
      <trkpt lat="37.1938102785" lon="-1.9848961942">
        <ele>450.52</ele>
        <time>2018-11-08T10:04:41Z</time>
      </trkpt>
      <trkpt lat="37.1936559677" lon="-1.9850701187">
        <ele>452.44</ele>
        <time>2018-11-08T10:04:52Z</time>
      </trkpt>
      <trkpt lat="37.1935496014" lon="-1.9853132777">
        <ele>454.36</ele>
        <time>2018-11-08T10:05:04Z</time>
      </trkpt>
      <trkpt lat="37.1935665328" lon="-1.9854101725">
        <ele>455.80</ele>
        <time>2018-11-08T10:05:10Z</time>
      </trkpt>
      <trkpt lat="37.1935918462" lon="-1.9854350667">
        <ele>456.76</ele>
        <time>2018-11-08T10:05:12Z</time>
      </trkpt>
      <trkpt lat="37.1936048381" lon="-1.9854422752">
        <ele>457.24</ele>
        <time>2018-11-08T10:05:13Z</time>
      </trkpt>
      <trkpt lat="37.1936190035" lon="-1.9854445383">
        <ele>457.72</ele>
        <time>2018-11-08T10:05:14Z</time>
      </trkpt>
      <trkpt lat="37.1937139705" lon="-1.9853346515">
        <ele>458.69</ele>
        <time>2018-11-08T10:05:22Z</time>
      </trkpt>
      <trkpt lat="37.1937319078" lon="-1.9852081686">
        <ele>459.17</ele>
        <time>2018-11-08T10:05:29Z</time>
      </trkpt>
      <trkpt lat="37.1938206721" lon="-1.9850902352">
        <ele>460.61</ele>
        <time>2018-11-08T10:05:37Z</time>
      </trkpt>
      <trkpt lat="37.1939741448" lon="-1.9850826915">
        <ele>461.09</ele>
        <time>2018-11-08T10:05:46Z</time>
      </trkpt>
      <trkpt lat="37.1940088458" lon="-1.9851004612">
        <ele>460.61</ele>
        <time>2018-11-08T10:05:52Z</time>
      </trkpt>
      <trkpt lat="37.1940193232" lon="-1.9851169735">
        <ele>461.09</ele>
        <time>2018-11-08T10:05:55Z</time>
      </trkpt>
      <trkpt lat="37.1940281242" lon="-1.9851297978">
        <ele>461.09</ele>
        <time>2018-11-08T10:05:56Z</time>
      </trkpt>
      <trkpt lat="37.1940393560" lon="-1.9851412810">
        <ele>461.09</ele>
        <time>2018-11-08T10:05:57Z</time>
      </trkpt>
      <trkpt lat="37.1940528508" lon="-1.9851569552">
        <ele>461.57</ele>
        <time>2018-11-08T10:05:58Z</time>
      </trkpt>
      <trkpt lat="37.1940635797" lon="-1.9851764850">
        <ele>461.57</ele>
        <time>2018-11-08T10:05:59Z</time>
      </trkpt>
      <trkpt lat="37.1941151284" lon="-1.9853530917">
        <ele>462.05</ele>
        <time>2018-11-08T10:06:07Z</time>
      </trkpt>
      <trkpt lat="37.1941556130" lon="-1.9855647348">
        <ele>463.49</ele>
        <time>2018-11-08T10:06:16Z</time>
      </trkpt>
      <trkpt lat="37.1941697784" lon="-1.9857600331">
        <ele>464.45</ele>
        <time>2018-11-08T10:06:24Z</time>
      </trkpt>
      <trkpt lat="37.1941857040" lon="-1.9860150106">
        <ele>466.38</ele>
        <time>2018-11-08T10:06:34Z</time>
      </trkpt>
      <trkpt lat="37.1942263562" lon="-1.9862692337">
        <ele>468.30</ele>
        <time>2018-11-08T10:06:44Z</time>
      </trkpt>
      <trkpt lat="37.1943508275" lon="-1.9863334391">
        <ele>470.70</ele>
        <time>2018-11-08T10:06:51Z</time>
      </trkpt>
      <trkpt lat="37.1944800764" lon="-1.9862107281">
        <ele>473.11</ele>
        <time>2018-11-08T10:06:59Z</time>
      </trkpt>
      <trkpt lat="37.1945150290" lon="-1.9861612748">
        <ele>473.59</ele>
        <time>2018-11-08T10:07:03Z</time>
      </trkpt>
      <trkpt lat="37.1945210639" lon="-1.9861464389">
        <ele>473.59</ele>
        <time>2018-11-08T10:07:04Z</time>
      </trkpt>
      <trkpt lat="37.1945296135" lon="-1.9861318544">
        <ele>474.07</ele>
        <time>2018-11-08T10:07:05Z</time>
      </trkpt>
      <trkpt lat="37.1945407614" lon="-1.9861172698">
        <ele>474.07</ele>
        <time>2018-11-08T10:07:06Z</time>
      </trkpt>
      <trkpt lat="37.1945529990" lon="-1.9861032721">
        <ele>474.07</ele>
        <time>2018-11-08T10:07:07Z</time>
      </trkpt>
      <trkpt lat="37.1946367342" lon="-1.9860006776">
        <ele>475.03</ele>
        <time>2018-11-08T10:07:15Z</time>
      </trkpt>
      <trkpt lat="37.1946914680" lon="-1.9859512243">
        <ele>476.47</ele>
        <time>2018-11-08T10:07:20Z</time>
      </trkpt>
      <trkpt lat="37.1948414203" lon="-1.9858852588">
        <ele>476.95</ele>
        <time>2018-11-08T10:07:28Z</time>
      </trkpt>
      <trkpt lat="37.1950305998" lon="-1.9859005976">
        <ele>479.84</ele>
        <time>2018-11-08T10:07:38Z</time>
      </trkpt>
      <trkpt lat="37.1951680630" lon="-1.9860031083">
        <ele>480.32</ele>
        <time>2018-11-08T10:07:46Z</time>
      </trkpt>
      <trkpt lat="37.1952184383" lon="-1.9860285893">
        <ele>480.32</ele>
        <time>2018-11-08T10:07:49Z</time>
      </trkpt>
      <trkpt lat="37.1952299215" lon="-1.9860391505">
        <ele>480.32</ele>
        <time>2018-11-08T10:07:50Z</time>
      </trkpt>
      <trkpt lat="37.1953640319" lon="-1.9861436728">
        <ele>480.80</ele>
        <time>2018-11-08T10:07:59Z</time>
      </trkpt>
      <trkpt lat="37.1955139842" lon="-1.9862554874">
        <ele>481.76</ele>
        <time>2018-11-08T10:08:08Z</time>
      </trkpt>
      <trkpt lat="37.1956902556" lon="-1.9863290805">
        <ele>482.24</ele>
        <time>2018-11-08T10:08:17Z</time>
      </trkpt>
      <trkpt lat="37.1958862245" lon="-1.9863408152">
        <ele>484.16</ele>
        <time>2018-11-08T10:08:26Z</time>
      </trkpt>
      <trkpt lat="37.1960687824" lon="-1.9863561541">
        <ele>485.12</ele>
        <time>2018-11-08T10:08:35Z</time>
      </trkpt>
      <trkpt lat="37.1960942633" lon="-1.9863530528">
        <ele>485.12</ele>
        <time>2018-11-08T10:08:42Z</time>
      </trkpt>
      <trkpt lat="37.1960979514" lon="-1.9863586687">
        <ele>485.12</ele>
        <time>2018-11-08T10:08:53Z</time>
      </trkpt>
      <trkpt lat="37.1960976161" lon="-1.9863494486">
        <ele>484.16</ele>
        <time>2018-11-08T10:09:09Z</time>
      </trkpt>
      <trkpt lat="37.1960965265" lon="-1.9863508735">
        <ele>483.68</ele>
        <time>2018-11-08T10:09:24Z</time>
      </trkpt>
      <trkpt lat="37.1960934252" lon="-1.9863595068">
        <ele>483.68</ele>
        <time>2018-11-08T10:09:39Z</time>
      </trkpt>
      <trkpt lat="37.1960956883" lon="-1.9863516279">
        <ele>485.60</ele>
        <time>2018-11-08T10:09:56Z</time>
      </trkpt>
      <trkpt lat="37.1960914973" lon="-1.9863405637">
        <ele>485.60</ele>
        <time>2018-11-08T10:10:15Z</time>
      </trkpt>
      <trkpt lat="37.1960954368" lon="-1.9863513764">
        <ele>485.12</ele>
        <time>2018-11-08T10:10:29Z</time>
      </trkpt>
      <trkpt lat="37.1960971132" lon="-1.9863385521">
        <ele>484.64</ele>
        <time>2018-11-08T10:10:43Z</time>
      </trkpt>
      <trkpt lat="37.1961033996" lon="-1.9863393903">
        <ele>484.16</ele>
        <time>2018-11-08T10:10:55Z</time>
      </trkpt>
      <trkpt lat="37.1961039025" lon="-1.9863380492">
        <ele>484.16</ele>
        <time>2018-11-08T10:11:13Z</time>
      </trkpt>
      <trkpt lat="37.1961028129" lon="-1.9863533042">
        <ele>484.64</ele>
        <time>2018-11-08T10:11:37Z</time>
      </trkpt>
      <trkpt lat="37.1961092670" lon="-1.9863436650">
        <ele>483.68</ele>
        <time>2018-11-08T10:11:57Z</time>
      </trkpt>
      <trkpt lat="37.1961002983" lon="-1.9863475207">
        <ele>484.64</ele>
        <time>2018-11-08T10:12:17Z</time>
      </trkpt>
      <trkpt lat="37.1961120330" lon="-1.9863376301">
        <ele>483.68</ele>
        <time>2018-11-08T10:12:33Z</time>
      </trkpt>
      <trkpt lat="37.1961000469" lon="-1.9863559026">
        <ele>484.64</ele>
        <time>2018-11-08T10:12:48Z</time>
      </trkpt>
      <trkpt lat="37.1961005498" lon="-1.9863409828">
        <ele>484.16</ele>
        <time>2018-11-08T10:13:05Z</time>
      </trkpt>
      <trkpt lat="37.1961123683" lon="-1.9863465987">
        <ele>485.12</ele>
        <time>2018-11-08T10:13:19Z</time>
      </trkpt>
      <trkpt lat="37.1961052436" lon="-1.9863445871">
        <ele>485.60</ele>
        <time>2018-11-08T10:13:38Z</time>
      </trkpt>
      <trkpt lat="37.1961068362" lon="-1.9863459282">
        <ele>485.60</ele>
        <time>2018-11-08T10:14:09Z</time>
      </trkpt>
      <trkpt lat="37.1960980352" lon="-1.9863494486">
        <ele>486.08</ele>
        <time>2018-11-08T10:14:26Z</time>
      </trkpt>
      <trkpt lat="37.1960883122" lon="-1.9863588363">
        <ele>487.53</ele>
        <time>2018-11-08T10:14:51Z</time>
      </trkpt>
      <trkpt lat="37.1960868035" lon="-1.9863677211">
        <ele>487.53</ele>
        <time>2018-11-08T10:15:10Z</time>
      </trkpt>
      <trkpt lat="37.1960854623" lon="-1.9863390550">
        <ele>486.08</ele>
        <time>2018-11-08T10:15:27Z</time>
      </trkpt>
      <trkpt lat="37.1960890666" lon="-1.9863354508">
        <ele>485.60</ele>
        <time>2018-11-08T10:15:51Z</time>
      </trkpt>
      <trkpt lat="37.1960915811" lon="-1.9863393065">
        <ele>487.53</ele>
        <time>2018-11-08T10:16:12Z</time>
      </trkpt>
      <trkpt lat="37.1960920841" lon="-1.9863455929">
        <ele>486.56</ele>
        <time>2018-11-08T10:16:27Z</time>
      </trkpt>
      <trkpt lat="37.1961049084" lon="-1.9863605965">
        <ele>486.08</ele>
        <time>2018-11-08T10:16:37Z</time>
      </trkpt>
      <trkpt lat="37.1961045731" lon="-1.9863579143">
        <ele>486.08</ele>
        <time>2018-11-08T10:16:51Z</time>
      </trkpt>
      <trkpt lat="37.1961145476" lon="-1.9863560703">
        <ele>485.60</ele>
        <time>2018-11-08T10:17:02Z</time>
      </trkpt>
      <trkpt lat="37.1961831953" lon="-1.9864262268">
        <ele>486.08</ele>
        <time>2018-11-08T10:17:09Z</time>
      </trkpt>
      <trkpt lat="37.1963195689" lon="-1.9864945393">
        <ele>486.56</ele>
        <time>2018-11-08T10:17:18Z</time>
      </trkpt>
      <trkpt lat="37.1963525936" lon="-1.9865061063">
        <ele>486.56</ele>
        <time>2018-11-08T10:17:20Z</time>
      </trkpt>
      <trkpt lat="37.1963728778" lon="-1.9865043461">
        <ele>486.56</ele>
        <time>2018-11-08T10:17:21Z</time>
      </trkpt>
      <trkpt lat="37.1964949183" lon="-1.9864750933">
        <ele>487.05</ele>
        <time>2018-11-08T10:17:27Z</time>
      </trkpt>
      <trkpt lat="37.1965146158" lon="-1.9864611793">
        <ele>487.05</ele>
        <time>2018-11-08T10:17:28Z</time>
      </trkpt>
      <trkpt lat="37.1966747101" lon="-1.9863809645">
        <ele>487.05</ele>
        <time>2018-11-08T10:17:37Z</time>
      </trkpt>
      <trkpt lat="37.1968280151" lon="-1.9863756839">
        <ele>487.05</ele>
        <time>2018-11-08T10:17:44Z</time>
      </trkpt>
      <trkpt lat="37.1970360540" lon="-1.9865050167">
        <ele>486.08</ele>
        <time>2018-11-08T10:17:50Z</time>
      </trkpt>
      <trkpt lat="37.1973103099" lon="-1.9867703039">
        <ele>484.64</ele>
        <time>2018-11-08T10:17:56Z</time>
      </trkpt>
      <trkpt lat="37.1973708272" lon="-1.9868055917">
        <ele>484.64</ele>
        <time>2018-11-08T10:17:57Z</time>
      </trkpt>
      <trkpt lat="37.1974279918" lon="-1.9868279714">
        <ele>484.64</ele>
        <time>2018-11-08T10:17:58Z</time>
      </trkpt>
      <trkpt lat="37.1974899340" lon="-1.9868461601">
        <ele>484.64</ele>
        <time>2018-11-08T10:17:59Z</time>
      </trkpt>
      <trkpt lat="37.1975568216" lon="-1.9868621696">
        <ele>484.16</ele>
        <time>2018-11-08T10:18:00Z</time>
      </trkpt>
      <trkpt lat="37.1980013978" lon="-1.9869729783">
        <ele>484.64</ele>
        <time>2018-11-08T10:18:08Z</time>
      </trkpt>
      <trkpt lat="37.1981164813" lon="-1.9870186597">
        <ele>484.64</ele>
        <time>2018-11-08T10:18:12Z</time>
      </trkpt>
      <trkpt lat="37.1981044114" lon="-1.9870148040">
        <ele>483.68</ele>
        <time>2018-11-08T10:18:20Z</time>
      </trkpt>
      <trkpt lat="37.1980972029" lon="-1.9870065060">
        <ele>481.76</ele>
        <time>2018-11-08T10:18:40Z</time>
      </trkpt>
      <trkpt lat="37.1981029026" lon="-1.9870174862">
        <ele>481.76</ele>
        <time>2018-11-08T10:18:45Z</time>
      </trkpt>
      <trkpt lat="37.1981137991" lon="-1.9870261196">
        <ele>481.76</ele>
        <time>2018-11-08T10:18:46Z</time>
      </trkpt>
      <trkpt lat="37.1981274616" lon="-1.9870320708">
        <ele>481.76</ele>
        <time>2018-11-08T10:18:47Z</time>
      </trkpt>
      <trkpt lat="37.1981431358" lon="-1.9870387763">
        <ele>481.76</ele>
        <time>2018-11-08T10:18:48Z</time>
      </trkpt>
      <trkpt lat="37.1981598157" lon="-1.9870479964">
        <ele>481.76</ele>
        <time>2018-11-08T10:18:49Z</time>
      </trkpt>
      <trkpt lat="37.1981798485" lon="-1.9870609045">
        <ele>482.24</ele>
        <time>2018-11-08T10:18:50Z</time>
      </trkpt>
      <trkpt lat="37.1983624063" lon="-1.9871655107">
        <ele>483.20</ele>
        <time>2018-11-08T10:18:58Z</time>
      </trkpt>
      <trkpt lat="37.1986240894" lon="-1.9873613957">
        <ele>485.60</ele>
        <time>2018-11-08T10:19:08Z</time>
      </trkpt>
      <trkpt lat="37.1987156197" lon="-1.9875529222">
        <ele>487.05</ele>
        <time>2018-11-08T10:19:14Z</time>
      </trkpt>
      <trkpt lat="37.1987974271" lon="-1.9879332930">
        <ele>488.97</ele>
        <time>2018-11-08T10:19:24Z</time>
      </trkpt>
      <trkpt lat="37.1988785639" lon="-1.9880166091">
        <ele>490.41</ele>
        <time>2018-11-08T10:19:28Z</time>
      </trkpt>
      <trkpt lat="37.1989021171" lon="-1.9880175311">
        <ele>491.37</ele>
        <time>2018-11-08T10:19:29Z</time>
      </trkpt>
      <trkpt lat="37.1989222337" lon="-1.9880115800">
        <ele>491.37</ele>
        <time>2018-11-08T10:19:30Z</time>
      </trkpt>
      <trkpt lat="37.1989477985" lon="-1.9879956543">
        <ele>491.85</ele>
        <time>2018-11-08T10:19:31Z</time>
      </trkpt>
      <trkpt lat="37.1989700943" lon="-1.9879782200">
        <ele>492.33</ele>
        <time>2018-11-08T10:19:32Z</time>
      </trkpt>
      <trkpt lat="37.1989899594" lon="-1.9879612885">
        <ele>492.81</ele>
        <time>2018-11-08T10:19:33Z</time>
      </trkpt>
      <trkpt lat="37.1990063041" lon="-1.9879417587">
        <ele>492.81</ele>
        <time>2018-11-08T10:19:34Z</time>
      </trkpt>
      <trkpt lat="37.1990177874" lon="-1.9879268389">
        <ele>492.81</ele>
        <time>2018-11-08T10:19:35Z</time>
      </trkpt>
      <trkpt lat="37.1990298573" lon="-1.9879135955">
        <ele>492.81</ele>
        <time>2018-11-08T10:19:36Z</time>
      </trkpt>
      <trkpt lat="37.1991487127" lon="-1.9877635594">
        <ele>494.74</ele>
        <time>2018-11-08T10:19:45Z</time>
      </trkpt>
      <trkpt lat="37.1992671490" lon="-1.9876496494">
        <ele>496.18</ele>
        <time>2018-11-08T10:19:54Z</time>
      </trkpt>
      <trkpt lat="37.1994138323" lon="-1.9876425248">
        <ele>495.70</ele>
        <time>2018-11-08T10:20:03Z</time>
      </trkpt>
      <trkpt lat="37.1995345317" lon="-1.9877483882">
        <ele>496.66</ele>
        <time>2018-11-08T10:20:13Z</time>
      </trkpt>
      <trkpt lat="37.1996119805" lon="-1.9879297726">
        <ele>496.66</ele>
        <time>2018-11-08T10:20:23Z</time>
      </trkpt>
      <trkpt lat="37.1996623557" lon="-1.9880906213">
        <ele>498.10</ele>
        <time>2018-11-08T10:20:32Z</time>
      </trkpt>
      <trkpt lat="37.1997097973" lon="-1.9882526435">
        <ele>500.02</ele>
        <time>2018-11-08T10:20:41Z</time>
      </trkpt>
      <trkpt lat="37.1997481864" lon="-1.9884367101">
        <ele>500.98</ele>
        <time>2018-11-08T10:20:50Z</time>
      </trkpt>
      <trkpt lat="37.1997616813" lon="-1.9886372052">
        <ele>501.46</ele>
        <time>2018-11-08T10:21:00Z</time>
      </trkpt>
      <trkpt lat="37.1997792833" lon="-1.9888700545">
        <ele>503.39</ele>
        <time>2018-11-08T10:21:12Z</time>
      </trkpt>
      <trkpt lat="37.1997927781" lon="-1.9890685380">
        <ele>504.35</ele>
        <time>2018-11-08T10:21:22Z</time>
      </trkpt>
      <trkpt lat="37.1998118050" lon="-1.9892325718">
        <ele>505.79</ele>
        <time>2018-11-08T10:21:30Z</time>
      </trkpt>
      <trkpt lat="37.1998201031" lon="-1.9893103559">
        <ele>506.75</ele>
        <time>2018-11-08T10:21:34Z</time>
      </trkpt>
      <trkpt lat="37.1998213604" lon="-1.9893306401">
        <ele>506.75</ele>
        <time>2018-11-08T10:21:35Z</time>
      </trkpt>
      <trkpt lat="37.1998221148" lon="-1.9893502537">
        <ele>507.23</ele>
        <time>2018-11-08T10:21:36Z</time>
      </trkpt>
      <trkpt lat="37.1998666227" lon="-1.9894960988">
        <ele>507.71</ele>
        <time>2018-11-08T10:21:44Z</time>
      </trkpt>
      <trkpt lat="37.1999421436" lon="-1.9896430336">
        <ele>508.67</ele>
        <time>2018-11-08T10:21:53Z</time>
      </trkpt>
      <trkpt lat="37.1999911778" lon="-1.9897407666">
        <ele>508.67</ele>
        <time>2018-11-08T10:21:59Z</time>
      </trkpt>
      <trkpt lat="37.2000500187" lon="-1.9898439478">
        <ele>509.64</ele>
        <time>2018-11-08T10:22:06Z</time>
      </trkpt>
      <trkpt lat="37.2001275513" lon="-1.9899284374">
        <ele>512.04</ele>
        <time>2018-11-08T10:22:14Z</time>
      </trkpt>
      <trkpt lat="37.2002697922" lon="-1.9900200516">
        <ele>513.96</ele>
        <time>2018-11-08T10:22:24Z</time>
      </trkpt>
      <trkpt lat="37.2004099376" lon="-1.9901155215">
        <ele>514.92</ele>
        <time>2018-11-08T10:22:34Z</time>
      </trkpt>
      <trkpt lat="37.2004435491" lon="-1.9901409186">
        <ele>515.88</ele>
        <time>2018-11-08T10:22:38Z</time>
      </trkpt>
      <trkpt lat="37.2004520148" lon="-1.9901541620">
        <ele>515.88</ele>
        <time>2018-11-08T10:22:39Z</time>
      </trkpt>
      <trkpt lat="37.2004622407" lon="-1.9901700877">
        <ele>515.88</ele>
        <time>2018-11-08T10:22:40Z</time>
      </trkpt>
      <trkpt lat="37.2004708741" lon="-1.9901840016">
        <ele>516.37</ele>
        <time>2018-11-08T10:22:41Z</time>
      </trkpt>
      <trkpt lat="37.2004832793" lon="-1.9901981670">
        <ele>516.37</ele>
        <time>2018-11-08T10:22:42Z</time>
      </trkpt>
      <trkpt lat="37.2004929185" lon="-1.9902116619">
        <ele>516.37</ele>
        <time>2018-11-08T10:22:43Z</time>
      </trkpt>
      <trkpt lat="37.2005032282" lon="-1.9902263302">
        <ele>516.37</ele>
        <time>2018-11-08T10:22:44Z</time>
      </trkpt>
      <trkpt lat="37.2005794197" lon="-1.9903484546">
        <ele>517.81</ele>
        <time>2018-11-08T10:22:53Z</time>
      </trkpt>
      <trkpt lat="37.2006009612" lon="-1.9905258156">
        <ele>518.77</ele>
        <time>2018-11-08T10:23:03Z</time>
      </trkpt>
      <trkpt lat="37.2006005421" lon="-1.9907113072">
        <ele>519.25</ele>
        <time>2018-11-08T10:23:13Z</time>
      </trkpt>
      <trkpt lat="37.2006134503" lon="-1.9907758478">
        <ele>520.21</ele>
        <time>2018-11-08T10:23:18Z</time>
      </trkpt>
      <trkpt lat="37.2006196529" lon="-1.9907892589">
        <ele>520.21</ele>
        <time>2018-11-08T10:23:19Z</time>
      </trkpt>
      <trkpt lat="37.2006229218" lon="-1.9908046816">
        <ele>520.69</ele>
        <time>2018-11-08T10:23:20Z</time>
      </trkpt>
      <trkpt lat="37.2006210778" lon="-1.9908217806">
        <ele>520.69</ele>
        <time>2018-11-08T10:23:21Z</time>
      </trkpt>
      <trkpt lat="37.2006183956" lon="-1.9908398855">
        <ele>520.69</ele>
        <time>2018-11-08T10:23:22Z</time>
      </trkpt>
      <trkpt lat="37.2006156296" lon="-1.9908574875">
        <ele>520.69</ele>
        <time>2018-11-08T10:23:23Z</time>
      </trkpt>
      <trkpt lat="37.2006143723" lon="-1.9908763468">
        <ele>520.69</ele>
        <time>2018-11-08T10:23:24Z</time>
      </trkpt>
      <trkpt lat="37.2006137855" lon="-1.9908959605">
        <ele>520.69</ele>
        <time>2018-11-08T10:23:25Z</time>
      </trkpt>
      <trkpt lat="37.2006056551" lon="-1.9910974614">
        <ele>522.13</ele>
        <time>2018-11-08T10:23:36Z</time>
      </trkpt>
      <trkpt lat="37.2006068286" lon="-1.9912863895">
        <ele>524.06</ele>
        <time>2018-11-08T10:23:47Z</time>
      </trkpt>
      <trkpt lat="37.2005934175" lon="-1.9914187398">
        <ele>524.54</ele>
        <time>2018-11-08T10:23:55Z</time>
      </trkpt>
      <trkpt lat="37.2005821858" lon="-1.9915888924">
        <ele>526.46</ele>
        <time>2018-11-08T10:24:05Z</time>
      </trkpt>
      <trkpt lat="37.2005687747" lon="-1.9917395152">
        <ele>526.94</ele>
        <time>2018-11-08T10:24:13Z</time>
      </trkpt>
      <trkpt lat="37.2005367558" lon="-1.9919265993">
        <ele>528.38</ele>
        <time>2018-11-08T10:24:22Z</time>
      </trkpt>
      <trkpt lat="37.2004722152" lon="-1.9921354763">
        <ele>529.82</ele>
        <time>2018-11-08T10:24:32Z</time>
      </trkpt>
      <trkpt lat="37.2003876418" lon="-1.9923540764">
        <ele>530.79</ele>
        <time>2018-11-08T10:24:43Z</time>
      </trkpt>
      <trkpt lat="37.2003548685" lon="-1.9925109856">
        <ele>531.75</ele>
        <time>2018-11-08T10:24:51Z</time>
      </trkpt>
      <trkpt lat="37.2003543656" lon="-1.9927229639">
        <ele>533.67</ele>
        <time>2018-11-08T10:25:02Z</time>
      </trkpt>
      <trkpt lat="37.2003602330" lon="-1.9929118082">
        <ele>533.67</ele>
        <time>2018-11-08T10:25:11Z</time>
      </trkpt>
      <trkpt lat="37.2003803495" lon="-1.9931047596">
        <ele>534.63</ele>
        <time>2018-11-08T10:25:20Z</time>
      </trkpt>
      <trkpt lat="37.2004052438" lon="-1.9932622556">
        <ele>536.07</ele>
        <time>2018-11-08T10:25:29Z</time>
      </trkpt>
      <trkpt lat="37.2004172299" lon="-1.9934060052">
        <ele>536.55</ele>
        <time>2018-11-08T10:25:37Z</time>
      </trkpt>
      <trkpt lat="37.2004341614" lon="-1.9935562089">
        <ele>537.51</ele>
        <time>2018-11-08T10:25:45Z</time>
      </trkpt>
      <trkpt lat="37.2004671022" lon="-1.9937085919">
        <ele>538.48</ele>
        <time>2018-11-08T10:25:53Z</time>
      </trkpt>
      <trkpt lat="37.2004833631" lon="-1.9939021301">
        <ele>539.92</ele>
        <time>2018-11-08T10:26:03Z</time>
      </trkpt>
      <trkpt lat="37.2004791722" lon="-1.9940563571">
        <ele>540.40</ele>
        <time>2018-11-08T10:26:11Z</time>
      </trkpt>
      <trkpt lat="37.2004728857" lon="-1.9940857776">
        <ele>540.88</ele>
        <time>2018-11-08T10:26:13Z</time>
      </trkpt>
      <trkpt lat="37.2004679404" lon="-1.9941053074">
        <ele>540.88</ele>
        <time>2018-11-08T10:26:14Z</time>
      </trkpt>
      <trkpt lat="37.2004062496" lon="-1.9943078142">
        <ele>542.80</ele>
        <time>2018-11-08T10:26:24Z</time>
      </trkpt>
      <trkpt lat="37.2002811916" lon="-1.9944410864">
        <ele>542.80</ele>
        <time>2018-11-08T10:26:33Z</time>
      </trkpt>
      <trkpt lat="37.2001173254" lon="-1.9945590198">
        <ele>543.28</ele>
        <time>2018-11-08T10:26:43Z</time>
      </trkpt>
      <trkpt lat="37.1999359410" lon="-1.9947052840">
        <ele>544.24</ele>
        <time>2018-11-08T10:26:54Z</time>
      </trkpt>
      <trkpt lat="37.1998272277" lon="-1.9948543981">
        <ele>544.72</ele>
        <time>2018-11-08T10:27:03Z</time>
      </trkpt>
      <trkpt lat="37.1997371223" lon="-1.9950134028">
        <ele>544.72</ele>
        <time>2018-11-08T10:27:11Z</time>
      </trkpt>
      <trkpt lat="37.1997024212" lon="-1.9951392151">
        <ele>544.72</ele>
        <time>2018-11-08T10:27:18Z</time>
      </trkpt>
      <trkpt lat="37.1996984817" lon="-1.9951512013">
        <ele>545.20</ele>
        <time>2018-11-08T10:27:26Z</time>
      </trkpt>
      <trkpt lat="37.1996925306" lon="-1.9951615948">
        <ele>543.76</ele>
        <time>2018-11-08T10:27:36Z</time>
      </trkpt>
      <trkpt lat="37.1997030079" lon="-1.9951536320">
        <ele>545.69</ele>
        <time>2018-11-08T10:27:50Z</time>
      </trkpt>
      <trkpt lat="37.1997040976" lon="-1.9951087888">
        <ele>546.65</ele>
        <time>2018-11-08T10:28:11Z</time>
      </trkpt>
      <trkpt lat="37.1996968053" lon="-1.9951344375">
        <ele>545.69</ele>
        <time>2018-11-08T10:28:30Z</time>
      </trkpt>
      <trkpt lat="37.1996829752" lon="-1.9951460883">
        <ele>545.69</ele>
        <time>2018-11-08T10:28:52Z</time>
      </trkpt>
      <trkpt lat="37.1996987332" lon="-1.9951224513">
        <ele>544.72</ele>
        <time>2018-11-08T10:29:11Z</time>
      </trkpt>
      <trkpt lat="37.1996919438" lon="-1.9951077830">
        <ele>547.13</ele>
        <time>2018-11-08T10:29:28Z</time>
      </trkpt>
      <trkpt lat="37.1996750962" lon="-1.9951268099">
        <ele>549.05</ele>
        <time>2018-11-08T10:29:47Z</time>
      </trkpt>
      <trkpt lat="37.1996846516" lon="-1.9951454177">
        <ele>547.61</ele>
        <time>2018-11-08T10:30:07Z</time>
      </trkpt>
      <trkpt lat="37.1996903513" lon="-1.9951472618">
        <ele>546.17</ele>
        <time>2018-11-08T10:30:26Z</time>
      </trkpt>
      <trkpt lat="37.1996690612" lon="-1.9951075315">
        <ele>544.24</ele>
        <time>2018-11-08T10:30:46Z</time>
      </trkpt>
      <trkpt lat="37.1996827237" lon="-1.9951493572">
        <ele>545.69</ele>
        <time>2018-11-08T10:31:08Z</time>
      </trkpt>
      <trkpt lat="37.1996867470" lon="-1.9951290730">
        <ele>546.65</ele>
        <time>2018-11-08T10:31:32Z</time>
      </trkpt>
      <trkpt lat="37.1997084562" lon="-1.9951374549">
        <ele>544.72</ele>
        <time>2018-11-08T10:31:47Z</time>
      </trkpt>
      <trkpt lat="37.1997004095" lon="-1.9951659534">
        <ele>544.24</ele>
        <time>2018-11-08T10:31:58Z</time>
      </trkpt>
      <trkpt lat="37.1996965539" lon="-1.9951658696">
        <ele>545.20</ele>
        <time>2018-11-08T10:32:07Z</time>
      </trkpt>
      <trkpt lat="37.1996781975" lon="-1.9951742515">
        <ele>544.24</ele>
        <time>2018-11-08T10:32:15Z</time>
      </trkpt>
      <trkpt lat="37.1996697318" lon="-1.9951785263">
        <ele>545.20</ele>
        <time>2018-11-08T10:32:19Z</time>
      </trkpt>
      <trkpt lat="37.1996024251" lon="-1.9952689670">
        <ele>546.17</ele>
        <time>2018-11-08T10:32:27Z</time>
      </trkpt>
      <trkpt lat="37.1994537301" lon="-1.9954566378">
        <ele>547.61</ele>
        <time>2018-11-08T10:32:38Z</time>
      </trkpt>
      <trkpt lat="37.1993139200" lon="-1.9956099428">
        <ele>549.05</ele>
        <time>2018-11-08T10:32:47Z</time>
      </trkpt>
      <trkpt lat="37.1991509758" lon="-1.9957769942">
        <ele>550.97</ele>
        <time>2018-11-08T10:32:57Z</time>
      </trkpt>
      <trkpt lat="37.1989369020" lon="-1.9959560316">
        <ele>553.38</ele>
        <time>2018-11-08T10:33:09Z</time>
      </trkpt>
      <trkpt lat="37.1988460422" lon="-1.9960322231">
        <ele>554.34</ele>
        <time>2018-11-08T10:33:15Z</time>
      </trkpt>
      <trkpt lat="37.1987577807" lon="-1.9961608853">
        <ele>554.34</ele>
        <time>2018-11-08T10:33:22Z</time>
      </trkpt>
      <trkpt lat="37.1987831779" lon="-1.9963418506">
        <ele>554.82</ele>
        <time>2018-11-08T10:33:29Z</time>
      </trkpt>
      <trkpt lat="37.1988900471" lon="-1.9963956624">
        <ele>556.26</ele>
        <time>2018-11-08T10:33:35Z</time>
      </trkpt>
      <trkpt lat="37.1990956552" lon="-1.9964192994">
        <ele>558.66</ele>
        <time>2018-11-08T10:33:45Z</time>
      </trkpt>
      <trkpt lat="37.1992694959" lon="-1.9965055492">
        <ele>559.62</ele>
        <time>2018-11-08T10:33:54Z</time>
      </trkpt>
      <trkpt lat="37.1994497068" lon="-1.9966454431">
        <ele>560.59</ele>
        <time>2018-11-08T10:34:04Z</time>
      </trkpt>
      <trkpt lat="37.1995679755" lon="-1.9967056252">
        <ele>561.55</ele>
        <time>2018-11-08T10:34:11Z</time>
      </trkpt>
      <trkpt lat="37.1997833066" lon="-1.9967497140">
        <ele>563.47</ele>
        <time>2018-11-08T10:34:22Z</time>
      </trkpt>
      <trkpt lat="37.1999128908" lon="-1.9968151767">
        <ele>564.43</ele>
        <time>2018-11-08T10:34:30Z</time>
      </trkpt>
      <trkpt lat="37.2000775114" lon="-1.9969816413">
        <ele>566.35</ele>
        <time>2018-11-08T10:34:40Z</time>
      </trkpt>
      <trkpt lat="37.2001877334" lon="-1.9971384667">
        <ele>568.76</ele>
        <time>2018-11-08T10:34:49Z</time>
      </trkpt>
      <trkpt lat="37.2002299782" lon="-1.9972062763">
        <ele>569.24</ele>
        <time>2018-11-08T10:34:55Z</time>
      </trkpt>
      <trkpt lat="37.2003346682" lon="-1.9973325916">
        <ele>570.68</ele>
        <time>2018-11-08T10:35:04Z</time>
      </trkpt>
      <trkpt lat="37.2004625760" lon="-1.9973660354">
        <ele>572.12</ele>
        <time>2018-11-08T10:35:12Z</time>
      </trkpt>
      <trkpt lat="37.2005561180" lon="-1.9972540531">
        <ele>573.08</ele>
        <time>2018-11-08T10:35:19Z</time>
      </trkpt>
      <trkpt lat="37.2005445510" lon="-1.9970515464">
        <ele>572.60</ele>
        <time>2018-11-08T10:35:26Z</time>
      </trkpt>
      <trkpt lat="37.2004774958" lon="-1.9968174398">
        <ele>572.12</ele>
        <time>2018-11-08T10:35:33Z</time>
      </trkpt>
      <trkpt lat="37.2004832793" lon="-1.9965379871">
        <ele>572.60</ele>
        <time>2018-11-08T10:35:40Z</time>
      </trkpt>
      <trkpt lat="37.2006287053" lon="-1.9961997773">
        <ele>572.60</ele>
        <time>2018-11-08T10:35:48Z</time>
      </trkpt>
      <trkpt lat="37.2007202357" lon="-1.9961061515">
        <ele>572.60</ele>
        <time>2018-11-08T10:35:51Z</time>
      </trkpt>
      <trkpt lat="37.2007565293" lon="-1.9960837718">
        <ele>573.08</ele>
        <time>2018-11-08T10:35:52Z</time>
      </trkpt>
      <trkpt lat="37.2007946670" lon="-1.9960665889">
        <ele>573.08</ele>
        <time>2018-11-08T10:35:53Z</time>
      </trkpt>
      <trkpt lat="37.2008404322" lon="-1.9960522559">
        <ele>572.60</ele>
        <time>2018-11-08T10:35:54Z</time>
      </trkpt>
      <trkpt lat="37.2008813359" lon="-1.9960423652">
        <ele>572.60</ele>
        <time>2018-11-08T10:35:55Z</time>
      </trkpt>
      <trkpt lat="37.2009237483" lon="-1.9960337318">
        <ele>572.60</ele>
        <time>2018-11-08T10:35:56Z</time>
      </trkpt>
      <trkpt lat="37.2013917938" lon="-1.9959410280">
        <ele>572.60</ele>
        <time>2018-11-08T10:36:07Z</time>
      </trkpt>
      <trkpt lat="37.2018244676" lon="-1.9958558679">
        <ele>574.04</ele>
        <time>2018-11-08T10:36:18Z</time>
      </trkpt>
      <trkpt lat="37.2019991465" lon="-1.9958935864">
        <ele>575.01</ele>
        <time>2018-11-08T10:36:25Z</time>
      </trkpt>
      <trkpt lat="37.2022550460" lon="-1.9960557763">
        <ele>575.97</ele>
        <time>2018-11-08T10:36:35Z</time>
      </trkpt>
      <trkpt lat="37.2025637515" lon="-1.9963104185">
        <ele>579.33</ele>
        <time>2018-11-08T10:36:48Z</time>
      </trkpt>
      <trkpt lat="37.2026958503" lon="-1.9965380710">
        <ele>580.77</ele>
        <time>2018-11-08T10:36:56Z</time>
      </trkpt>
      <trkpt lat="37.2028091736" lon="-1.9967321120">
        <ele>581.25</ele>
        <time>2018-11-08T10:37:05Z</time>
      </trkpt>
      <trkpt lat="37.2029803321" lon="-1.9967999216">
        <ele>581.73</ele>
        <time>2018-11-08T10:37:12Z</time>
      </trkpt>
      <trkpt lat="37.2032248322" lon="-1.9967788830">
        <ele>582.22</ele>
        <time>2018-11-08T10:37:21Z</time>
      </trkpt>
      <trkpt lat="37.2035130858" lon="-1.9968705811">
        <ele>582.70</ele>
        <time>2018-11-08T10:37:31Z</time>
      </trkpt>
      <trkpt lat="37.2036984097" lon="-1.9970313460">
        <ele>583.66</ele>
        <time>2018-11-08T10:37:39Z</time>
      </trkpt>
      <trkpt lat="37.2038880084" lon="-1.9972877484">
        <ele>585.10</ele>
        <time>2018-11-08T10:37:48Z</time>
      </trkpt>
      <trkpt lat="37.2040449176" lon="-1.9976631738">
        <ele>585.58</ele>
        <time>2018-11-08T10:37:59Z</time>
      </trkpt>
      <trkpt lat="37.2042102087" lon="-1.9978537783">
        <ele>587.02</ele>
        <time>2018-11-08T10:38:07Z</time>
      </trkpt>
      <trkpt lat="37.2043873183" lon="-1.9979675207">
        <ele>588.46</ele>
        <time>2018-11-08T10:38:17Z</time>
      </trkpt>
      <trkpt lat="37.2045175731" lon="-1.9981261063">
        <ele>590.87</ele>
        <time>2018-11-08T10:38:26Z</time>
      </trkpt>
      <trkpt lat="37.2045489214" lon="-1.9982123561">
        <ele>591.35</ele>
        <time>2018-11-08T10:38:33Z</time>
      </trkpt>
      <trkpt lat="37.2045656014" lon="-1.9983090833">
        <ele>591.35</ele>
        <time>2018-11-08T10:38:41Z</time>
      </trkpt>
      <trkpt lat="37.2045957763" lon="-1.9984737039">
        <ele>591.83</ele>
        <time>2018-11-08T10:38:51Z</time>
      </trkpt>
      <trkpt lat="37.2045935970" lon="-1.9984923955">
        <ele>591.83</ele>
        <time>2018-11-08T10:38:52Z</time>
      </trkpt>
      <trkpt lat="37.2045905795" lon="-1.9985108357">
        <ele>591.83</ele>
        <time>2018-11-08T10:38:53Z</time>
      </trkpt>
      <trkpt lat="37.2045875620" lon="-1.9985303655">
        <ele>592.31</ele>
        <time>2018-11-08T10:38:54Z</time>
      </trkpt>
      <trkpt lat="37.2045845445" lon="-1.9985477161">
        <ele>592.31</ele>
        <time>2018-11-08T10:38:55Z</time>
      </trkpt>
      <trkpt lat="37.2045821138" lon="-1.9985671621">
        <ele>592.31</ele>
        <time>2018-11-08T10:38:56Z</time>
      </trkpt>
      <trkpt lat="37.2045792639" lon="-1.9985882845">
        <ele>592.31</ele>
        <time>2018-11-08T10:38:57Z</time>
      </trkpt>
      <trkpt lat="37.2045768332" lon="-1.9986077305">
        <ele>592.31</ele>
        <time>2018-11-08T10:38:58Z</time>
      </trkpt>
      <trkpt lat="37.2045202553" lon="-1.9988701679">
        <ele>593.75</ele>
        <time>2018-11-08T10:39:10Z</time>
      </trkpt>
      <trkpt lat="37.2044666950" lon="-1.9991418254">
        <ele>595.67</ele>
        <time>2018-11-08T10:39:21Z</time>
      </trkpt>
      <trkpt lat="37.2044697125" lon="-1.9994227868">
        <ele>596.64</ele>
        <time>2018-11-08T10:39:32Z</time>
      </trkpt>
      <trkpt lat="37.2044838779" lon="-1.9997086935">
        <ele>597.60</ele>
        <time>2018-11-08T10:39:43Z</time>
      </trkpt>
      <trkpt lat="37.2044661921" lon="-1.9998639263">
        <ele>598.56</ele>
        <time>2018-11-08T10:39:49Z</time>
      </trkpt>
      <trkpt lat="37.2043615859" lon="-2.0001396071">
        <ele>600.48</ele>
        <time>2018-11-08T10:39:58Z</time>
      </trkpt>
      <trkpt lat="37.2042466700" lon="-2.0003856160">
        <ele>600.48</ele>
        <time>2018-11-08T10:40:06Z</time>
      </trkpt>
      <trkpt lat="37.2042620089" lon="-2.0007012784">
        <ele>600.48</ele>
        <time>2018-11-08T10:40:15Z</time>
      </trkpt>
      <trkpt lat="37.2042542975" lon="-2.0010346267">
        <ele>601.92</ele>
        <time>2018-11-08T10:40:24Z</time>
      </trkpt>
      <trkpt lat="37.2041284852" lon="-2.0013284124">
        <ele>603.85</ele>
        <time>2018-11-08T10:40:33Z</time>
      </trkpt>
      <trkpt lat="37.2040778585" lon="-2.0015603397">
        <ele>605.29</ele>
        <time>2018-11-08T10:40:40Z</time>
      </trkpt>
      <trkpt lat="37.2040627711" lon="-2.0019096974">
        <ele>606.73</ele>
        <time>2018-11-08T10:40:50Z</time>
      </trkpt>
      <trkpt lat="37.2040002421" lon="-2.0020685345">
        <ele>607.21</ele>
        <time>2018-11-08T10:40:58Z</time>
      </trkpt>
      <trkpt lat="37.2039149981" lon="-2.0021757390">
        <ele>607.69</ele>
        <time>2018-11-08T10:41:05Z</time>
      </trkpt>
      <trkpt lat="37.2038307600" lon="-2.0023618173">
        <ele>607.69</ele>
        <time>2018-11-08T10:41:14Z</time>
      </trkpt>
      <trkpt lat="37.2038161755" lon="-2.0025517512">
        <ele>607.69</ele>
        <time>2018-11-08T10:41:22Z</time>
      </trkpt>
      <trkpt lat="37.2038170975" lon="-2.0025689341">
        <ele>607.69</ele>
        <time>2018-11-08T10:41:23Z</time>
      </trkpt>
      <trkpt lat="37.2038206179" lon="-2.0025848597">
        <ele>607.69</ele>
        <time>2018-11-08T10:41:24Z</time>
      </trkpt>
      <trkpt lat="37.2038204502" lon="-2.0026132744">
        <ele>607.69</ele>
        <time>2018-11-08T10:41:26Z</time>
      </trkpt>
      <trkpt lat="37.2038186062" lon="-2.0026303735">
        <ele>607.69</ele>
        <time>2018-11-08T10:41:27Z</time>
      </trkpt>
      <trkpt lat="37.2038206179" lon="-2.0026507415">
        <ele>607.69</ele>
        <time>2018-11-08T10:41:28Z</time>
      </trkpt>
      <trkpt lat="37.2038255632" lon="-2.0026721992">
        <ele>607.69</ele>
        <time>2018-11-08T10:41:29Z</time>
      </trkpt>
      <trkpt lat="37.2038279939" lon="-2.0026938245">
        <ele>607.69</ele>
        <time>2018-11-08T10:41:30Z</time>
      </trkpt>
      <trkpt lat="37.2038275748" lon="-2.0027172100">
        <ele>607.69</ele>
        <time>2018-11-08T10:41:31Z</time>
      </trkpt>
      <trkpt lat="37.2038257308" lon="-2.0027407631">
        <ele>607.69</ele>
        <time>2018-11-08T10:41:32Z</time>
      </trkpt>
      <trkpt lat="37.2038253117" lon="-2.0027638972">
        <ele>607.69</ele>
        <time>2018-11-08T10:41:33Z</time>
      </trkpt>
      <trkpt lat="37.2038276587" lon="-2.0027866960">
        <ele>608.17</ele>
        <time>2018-11-08T10:41:34Z</time>
      </trkpt>
      <trkpt lat="37.2038297541" lon="-2.0028081536">
        <ele>608.17</ele>
        <time>2018-11-08T10:41:35Z</time>
      </trkpt>
      <trkpt lat="37.2038321849" lon="-2.0028313715">
        <ele>607.69</ele>
        <time>2018-11-08T10:41:36Z</time>
      </trkpt>
      <trkpt lat="37.2038340289" lon="-2.0028520748">
        <ele>607.69</ele>
        <time>2018-11-08T10:41:37Z</time>
      </trkpt>
      <trkpt lat="37.2038341966" lon="-2.0028757118">
        <ele>607.69</ele>
        <time>2018-11-08T10:41:38Z</time>
      </trkpt>
      <trkpt lat="37.2038476076" lon="-2.0029428508">
        <ele>607.69</ele>
        <time>2018-11-08T10:41:44Z</time>
      </trkpt>
      <trkpt lat="37.2038391419" lon="-2.0029527415">
        <ele>607.69</ele>
        <time>2018-11-08T10:41:56Z</time>
      </trkpt>
      <trkpt lat="37.2038510442" lon="-2.0029492211">
        <ele>608.17</ele>
        <time>2018-11-08T10:42:20Z</time>
      </trkpt>
      <trkpt lat="37.2038357053" lon="-2.0029508974">
        <ele>607.21</ele>
        <time>2018-11-08T10:42:39Z</time>
      </trkpt>
      <trkpt lat="37.2038444225" lon="-2.0029530767">
        <ele>608.17</ele>
        <time>2018-11-08T10:42:57Z</time>
      </trkpt>
      <trkpt lat="37.2038471885" lon="-2.0030178688">
        <ele>607.69</ele>
        <time>2018-11-08T10:43:08Z</time>
      </trkpt>
      <trkpt lat="37.2038930375" lon="-2.0032761153">
        <ele>607.69</ele>
        <time>2018-11-08T10:43:17Z</time>
      </trkpt>
      <trkpt lat="37.2040147427" lon="-2.0035272371">
        <ele>609.61</ele>
        <time>2018-11-08T10:43:26Z</time>
      </trkpt>
      <trkpt lat="37.2042073589" lon="-2.0037131477">
        <ele>612.50</ele>
        <time>2018-11-08T10:43:35Z</time>
      </trkpt>
      <trkpt lat="37.2044051718" lon="-2.0038979687">
        <ele>614.42</ele>
        <time>2018-11-08T10:43:45Z</time>
      </trkpt>
      <trkpt lat="37.2045283858" lon="-2.0040394552">
        <ele>615.38</ele>
        <time>2018-11-08T10:43:52Z</time>
      </trkpt>
      <trkpt lat="37.2046324052" lon="-2.0042373519">
        <ele>614.90</ele>
        <time>2018-11-08T10:44:00Z</time>
      </trkpt>
      <trkpt lat="37.2046616580" lon="-2.0044935867">
        <ele>614.42</ele>
        <time>2018-11-08T10:44:09Z</time>
      </trkpt>
      <trkpt lat="37.2046711296" lon="-2.0047283638">
        <ele>614.90</ele>
        <time>2018-11-08T10:44:17Z</time>
      </trkpt>
      <trkpt lat="37.2046654299" lon="-2.0049973391">
        <ele>614.42</ele>
        <time>2018-11-08T10:44:24Z</time>
      </trkpt>
      <trkpt lat="37.2046475764" lon="-2.0053888578">
        <ele>612.50</ele>
        <time>2018-11-08T10:44:30Z</time>
      </trkpt>
      <trkpt lat="37.2046215087" lon="-2.0059952047">
        <ele>608.65</ele>
        <time>2018-11-08T10:44:36Z</time>
      </trkpt>
      <trkpt lat="37.2046313155" lon="-2.0063588116">
        <ele>606.25</ele>
        <time>2018-11-08T10:44:39Z</time>
      </trkpt>
      <trkpt lat="37.2046521865" lon="-2.0064899884">
        <ele>605.77</ele>
        <time>2018-11-08T10:44:40Z</time>
      </trkpt>
      <trkpt lat="37.2046803497" lon="-2.0066172257">
        <ele>604.81</ele>
        <time>2018-11-08T10:44:41Z</time>
      </trkpt>
      <trkpt lat="37.2047806811" lon="-2.0071518235">
        <ele>601.44</ele>
        <time>2018-11-08T10:44:45Z</time>
      </trkpt>
      <trkpt lat="37.2047809325" lon="-2.0072935615">
        <ele>600.96</ele>
        <time>2018-11-08T10:44:46Z</time>
      </trkpt>
      <trkpt lat="37.2047666833" lon="-2.0074301027">
        <ele>600.48</ele>
        <time>2018-11-08T10:44:47Z</time>
      </trkpt>
      <trkpt lat="37.2047391068" lon="-2.0075591002">
        <ele>600.48</ele>
        <time>2018-11-08T10:44:48Z</time>
      </trkpt>
      <trkpt lat="37.2046892345" lon="-2.0076889358">
        <ele>600.48</ele>
        <time>2018-11-08T10:44:49Z</time>
      </trkpt>
      <trkpt lat="37.2046308126" lon="-2.0077924524">
        <ele>600.48</ele>
        <time>2018-11-08T10:44:50Z</time>
      </trkpt>
      <trkpt lat="37.2045599855" lon="-2.0078962203">
        <ele>600.48</ele>
        <time>2018-11-08T10:44:51Z</time>
      </trkpt>
      <trkpt lat="37.2044977080" lon="-2.0080014132">
        <ele>600.48</ele>
        <time>2018-11-08T10:44:52Z</time>
      </trkpt>
      <trkpt lat="37.2044497635" lon="-2.0081056003">
        <ele>600.48</ele>
        <time>2018-11-08T10:44:53Z</time>
      </trkpt>
      <trkpt lat="37.2044123802" lon="-2.0082128048">
        <ele>600.48</ele>
        <time>2018-11-08T10:44:54Z</time>
      </trkpt>
      <trkpt lat="37.2043825407" lon="-2.0083252061">
        <ele>600.96</ele>
        <time>2018-11-08T10:44:55Z</time>
      </trkpt>
      <trkpt lat="37.2043590713" lon="-2.0084283873">
        <ele>600.96</ele>
        <time>2018-11-08T10:44:56Z</time>
      </trkpt>
      <trkpt lat="37.2042279784" lon="-2.0089624822">
        <ele>601.92</ele>
        <time>2018-11-08T10:45:02Z</time>
      </trkpt>
      <trkpt lat="37.2041990608" lon="-2.0090267714">
        <ele>602.40</ele>
        <time>2018-11-08T10:45:03Z</time>
      </trkpt>
      <trkpt lat="37.2041641083" lon="-2.0090883784">
        <ele>602.88</ele>
        <time>2018-11-08T10:45:04Z</time>
      </trkpt>
      <trkpt lat="37.2041304130" lon="-2.0091377478">
        <ele>602.88</ele>
        <time>2018-11-08T10:45:05Z</time>
      </trkpt>
      <trkpt lat="37.2040948737" lon="-2.0091844350">
        <ele>603.36</ele>
        <time>2018-11-08T10:45:06Z</time>
      </trkpt>
      <trkpt lat="37.2039775271" lon="-2.0093382429">
        <ele>603.85</ele>
        <time>2018-11-08T10:45:12Z</time>
      </trkpt>
      <trkpt lat="37.2039628588" lon="-2.0093474630">
        <ele>603.85</ele>
        <time>2018-11-08T10:45:20Z</time>
      </trkpt>
      <trkpt lat="37.2038625274" lon="-2.0094681624">
        <ele>603.85</ele>
        <time>2018-11-08T10:45:26Z</time>
      </trkpt>
      <trkpt lat="37.2036322765" lon="-2.0097973198">
        <ele>602.88</ele>
        <time>2018-11-08T10:45:36Z</time>
      </trkpt>
      <trkpt lat="37.2036012635" lon="-2.0100687258">
        <ele>602.40</ele>
        <time>2018-11-08T10:45:42Z</time>
      </trkpt>
      <trkpt lat="37.2036107350" lon="-2.0101208612">
        <ele>602.40</ele>
        <time>2018-11-08T10:45:43Z</time>
      </trkpt>
      <trkpt lat="37.2037414089" lon="-2.0104903355">
        <ele>600.00</ele>
        <time>2018-11-08T10:45:49Z</time>
      </trkpt>
      <trkpt lat="37.2038577497" lon="-2.0106933452">
        <ele>598.56</ele>
        <time>2018-11-08T10:45:52Z</time>
      </trkpt>
      <trkpt lat="37.2038890980" lon="-2.0107394457">
        <ele>598.56</ele>
        <time>2018-11-08T10:45:53Z</time>
      </trkpt>
      <trkpt lat="37.2039519623" lon="-2.0108334906">
        <ele>598.08</ele>
        <time>2018-11-08T10:45:57Z</time>
      </trkpt>
      <trkpt lat="37.2039519623" lon="-2.0108360890">
        <ele>598.56</ele>
        <time>2018-11-08T10:46:11Z</time>
      </trkpt>
      <trkpt lat="37.2039901838" lon="-2.0109147113">
        <ele>598.56</ele>
        <time>2018-11-08T10:46:22Z</time>
      </trkpt>
      <trkpt lat="37.2040047683" lon="-2.0109990332">
        <ele>598.08</ele>
        <time>2018-11-08T10:46:24Z</time>
      </trkpt>
      <trkpt lat="37.2040205263" lon="-2.0110551920">
        <ele>597.60</ele>
        <time>2018-11-08T10:46:25Z</time>
      </trkpt>
      <trkpt lat="37.2041291557" lon="-2.0113796555">
        <ele>596.15</ele>
        <time>2018-11-08T10:46:31Z</time>
      </trkpt>
      <trkpt lat="37.2041252162" lon="-2.0113824215">
        <ele>596.15</ele>
        <time>2018-11-08T10:46:36Z</time>
      </trkpt>
      <trkpt lat="37.2041213606" lon="-2.0113786496">
        <ele>595.19</ele>
        <time>2018-11-08T10:46:49Z</time>
      </trkpt>
      <trkpt lat="37.2041209415" lon="-2.0113774762">
        <ele>595.19</ele>
        <time>2018-11-08T10:47:00Z</time>
      </trkpt>
      <trkpt lat="37.2041203547" lon="-2.0113783982">
        <ele>595.19</ele>
        <time>2018-11-08T10:47:12Z</time>
      </trkpt>
      <trkpt lat="37.2041180916" lon="-2.0113908034">
        <ele>595.67</ele>
        <time>2018-11-08T10:47:25Z</time>
      </trkpt>
      <trkpt lat="37.2041180916" lon="-2.0113879535">
        <ele>595.19</ele>
        <time>2018-11-08T10:47:36Z</time>
      </trkpt>
      <trkpt lat="37.2041208576" lon="-2.0113895461">
        <ele>595.19</ele>
        <time>2018-11-08T10:47:48Z</time>
      </trkpt>
      <trkpt lat="37.2041191813" lon="-2.0113899652">
        <ele>593.75</ele>
        <time>2018-11-08T10:47:55Z</time>
      </trkpt>
      <trkpt lat="37.2041217797" lon="-2.0113980118">
        <ele>594.23</ele>
        <time>2018-11-08T10:48:02Z</time>
      </trkpt>
      <trkpt lat="37.2041210253" lon="-2.0113921445">
        <ele>593.75</ele>
        <time>2018-11-08T10:48:15Z</time>
      </trkpt>
      <trkpt lat="37.2041067760" lon="-2.0113931503">
        <ele>592.79</ele>
        <time>2018-11-08T10:48:29Z</time>
      </trkpt>
      <trkpt lat="37.2041026689" lon="-2.0113948267">
        <ele>592.31</ele>
        <time>2018-11-08T10:48:43Z</time>
      </trkpt>
      <trkpt lat="37.2041067760" lon="-2.0113915578">
        <ele>591.83</ele>
        <time>2018-11-08T10:48:58Z</time>
      </trkpt>
      <trkpt lat="37.2041144874" lon="-2.0113885403">
        <ele>593.27</ele>
        <time>2018-11-08T10:49:08Z</time>
      </trkpt>
      <trkpt lat="37.2041284852" lon="-2.0113894623">
        <ele>594.23</ele>
        <time>2018-11-08T10:49:16Z</time>
      </trkpt>
      <trkpt lat="37.2041308321" lon="-2.0113954972">
        <ele>594.23</ele>
        <time>2018-11-08T10:49:25Z</time>
      </trkpt>
      <trkpt lat="37.2041435726" lon="-2.0114031248">
        <ele>594.23</ele>
        <time>2018-11-08T10:49:33Z</time>
      </trkpt>
      <trkpt lat="37.2041553073" lon="-2.0114141889">
        <ele>594.23</ele>
        <time>2018-11-08T10:49:34Z</time>
      </trkpt>
      <trkpt lat="37.2042668704" lon="-2.0115634706">
        <ele>593.27</ele>
        <time>2018-11-08T10:49:40Z</time>
      </trkpt>
      <trkpt lat="37.2045657691" lon="-2.0119561628">
        <ele>593.27</ele>
        <time>2018-11-08T10:49:51Z</time>
      </trkpt>
      <trkpt lat="37.2046479117" lon="-2.0120535605">
        <ele>593.75</ele>
        <time>2018-11-08T10:49:56Z</time>
      </trkpt>
      <trkpt lat="37.2046728060" lon="-2.0120914467">
        <ele>593.75</ele>
        <time>2018-11-08T10:50:07Z</time>
      </trkpt>
      <trkpt lat="37.2048058268" lon="-2.0122518763">
        <ele>594.23</ele>
        <time>2018-11-08T10:50:14Z</time>
      </trkpt>
      <trkpt lat="37.2050485667" lon="-2.0125173312">
        <ele>595.19</ele>
        <time>2018-11-08T10:50:23Z</time>
      </trkpt>
      <trkpt lat="37.2053190507" lon="-2.0127721410">
        <ele>595.19</ele>
        <time>2018-11-08T10:50:32Z</time>
      </trkpt>
      <trkpt lat="37.2055581026" lon="-2.0131114405">
        <ele>594.71</ele>
        <time>2018-11-08T10:50:42Z</time>
      </trkpt>
      <trkpt lat="37.2056860104" lon="-2.0133918151">
        <ele>592.79</ele>
        <time>2018-11-08T10:50:47Z</time>
      </trkpt>
      <trkpt lat="37.2057066299" lon="-2.0134692639">
        <ele>592.31</ele>
        <time>2018-11-08T10:50:48Z</time>
      </trkpt>
      <trkpt lat="37.2057211306" lon="-2.0135579444">
        <ele>591.35</ele>
        <time>2018-11-08T10:50:49Z</time>
      </trkpt>
      <trkpt lat="37.2057282552" lon="-2.0136591978">
        <ele>590.39</ele>
        <time>2018-11-08T10:50:50Z</time>
      </trkpt>
      <trkpt lat="37.2057290096" lon="-2.0137608703">
        <ele>589.43</ele>
        <time>2018-11-08T10:50:51Z</time>
      </trkpt>
      <trkpt lat="37.2057269141" lon="-2.0138685778">
        <ele>588.95</ele>
        <time>2018-11-08T10:50:52Z</time>
      </trkpt>
      <trkpt lat="37.2057455219" lon="-2.0143189374">
        <ele>585.10</ele>
        <time>2018-11-08T10:50:56Z</time>
      </trkpt>
      <trkpt lat="37.2057648003" lon="-2.0143988170">
        <ele>584.62</ele>
        <time>2018-11-08T10:50:57Z</time>
      </trkpt>
      <trkpt lat="37.2058043629" lon="-2.0144579094">
        <ele>584.14</ele>
        <time>2018-11-08T10:50:58Z</time>
      </trkpt>
      <trkpt lat="37.2058585938" lon="-2.0144807920">
        <ele>583.66</ele>
        <time>2018-11-08T10:50:59Z</time>
      </trkpt>
      <trkpt lat="37.2059219610" lon="-2.0144662075">
        <ele>583.66</ele>
        <time>2018-11-08T10:51:00Z</time>
      </trkpt>
      <trkpt lat="37.2059777845" lon="-2.0144206099">
        <ele>582.70</ele>
        <time>2018-11-08T10:51:01Z</time>
      </trkpt>
      <trkpt lat="37.2060244717" lon="-2.0143576618">
        <ele>582.22</ele>
        <time>2018-11-08T10:51:02Z</time>
      </trkpt>
      <trkpt lat="37.2060658783" lon="-2.0142757706">
        <ele>581.73</ele>
        <time>2018-11-08T10:51:03Z</time>
      </trkpt>
      <trkpt lat="37.2060978971" lon="-2.0141930413">
        <ele>581.25</ele>
        <time>2018-11-08T10:51:04Z</time>
      </trkpt>
      <trkpt lat="37.2061293293" lon="-2.0141070429">
        <ele>580.29</ele>
        <time>2018-11-08T10:51:05Z</time>
      </trkpt>
      <trkpt lat="37.2061721608" lon="-2.0140155125">
        <ele>579.33</ele>
        <time>2018-11-08T10:51:06Z</time>
      </trkpt>
      <trkpt lat="37.2062191833" lon="-2.0139342919">
        <ele>578.37</ele>
        <time>2018-11-08T10:51:07Z</time>
      </trkpt>
      <trkpt lat="37.2062799521" lon="-2.0138565917">
        <ele>577.41</ele>
        <time>2018-11-08T10:51:08Z</time>
      </trkpt>
      <trkpt lat="37.2063560598" lon="-2.0137847587">
        <ele>576.45</ele>
        <time>2018-11-08T10:51:09Z</time>
      </trkpt>
      <trkpt lat="37.2064339276" lon="-2.0137311984">
        <ele>575.49</ele>
        <time>2018-11-08T10:51:10Z</time>
      </trkpt>
      <trkpt lat="37.2065216862" lon="-2.0136976708">
        <ele>574.53</ele>
        <time>2018-11-08T10:51:11Z</time>
      </trkpt>
      <trkpt lat="37.2066173237" lon="-2.0136901271">
        <ele>573.56</ele>
        <time>2018-11-08T10:51:12Z</time>
      </trkpt>
      <trkpt lat="37.2067021485" lon="-2.0137135964">
        <ele>572.60</ele>
        <time>2018-11-08T10:51:13Z</time>
      </trkpt>
      <trkpt lat="37.2067769151" lon="-2.0137612894">
        <ele>571.64</ele>
        <time>2018-11-08T10:51:14Z</time>
      </trkpt>
      <trkpt lat="37.2068541124" lon="-2.0138227288">
        <ele>570.68</ele>
        <time>2018-11-08T10:51:15Z</time>
      </trkpt>
      <trkpt lat="37.2070251033" lon="-2.0139337890">
        <ele>569.24</ele>
        <time>2018-11-08T10:51:17Z</time>
      </trkpt>
      <trkpt lat="37.2071248479" lon="-2.0139688253">
        <ele>568.28</ele>
        <time>2018-11-08T10:51:18Z</time>
      </trkpt>
      <trkpt lat="37.2072315495" lon="-2.0139885228">
        <ele>566.83</ele>
        <time>2018-11-08T10:51:19Z</time>
      </trkpt>
      <trkpt lat="37.2078414168" lon="-2.0140804723">
        <ele>562.03</ele>
        <time>2018-11-08T10:51:25Z</time>
      </trkpt>
      <trkpt lat="37.2079451848" lon="-2.0140656363">
        <ele>561.55</ele>
        <time>2018-11-08T10:51:26Z</time>
      </trkpt>
      <trkpt lat="37.2080327757" lon="-2.0140281692">
        <ele>560.59</ele>
        <time>2018-11-08T10:51:27Z</time>
      </trkpt>
      <trkpt lat="37.2081239708" lon="-2.0139684062">
        <ele>560.11</ele>
        <time>2018-11-08T10:51:28Z</time>
      </trkpt>
      <trkpt lat="37.2082065325" lon="-2.0139171090">
        <ele>559.14</ele>
        <time>2018-11-08T10:51:29Z</time>
      </trkpt>
      <trkpt lat="37.2082968894" lon="-2.0138792228">
        <ele>558.66</ele>
        <time>2018-11-08T10:51:30Z</time>
      </trkpt>
      <trkpt lat="37.2083969694" lon="-2.0138541609">
        <ele>557.70</ele>
        <time>2018-11-08T10:51:31Z</time>
      </trkpt>
      <trkpt lat="37.2084928583" lon="-2.0138451084">
        <ele>557.22</ele>
        <time>2018-11-08T10:51:32Z</time>
      </trkpt>
      <trkpt lat="37.2085957043" lon="-2.0138448570">
        <ele>556.74</ele>
        <time>2018-11-08T10:51:33Z</time>
      </trkpt>
      <trkpt lat="37.2086983826" lon="-2.0138554182">
        <ele>555.78</ele>
        <time>2018-11-08T10:51:34Z</time>
      </trkpt>
      <trkpt lat="37.2088016476" lon="-2.0138809830">
        <ele>554.82</ele>
        <time>2018-11-08T10:51:35Z</time>
      </trkpt>
      <trkpt lat="37.2088940162" lon="-2.0139145944">
        <ele>553.86</ele>
        <time>2018-11-08T10:51:36Z</time>
      </trkpt>
      <trkpt lat="37.2094918136" lon="-2.0140347909">
        <ele>549.05</ele>
        <time>2018-11-08T10:51:42Z</time>
      </trkpt>
      <trkpt lat="37.2101116553" lon="-2.0139871817">
        <ele>544.72</ele>
        <time>2018-11-08T10:51:48Z</time>
      </trkpt>
      <trkpt lat="37.2105004918" lon="-2.0139340404">
        <ele>542.32</ele>
        <time>2018-11-08T10:51:52Z</time>
      </trkpt>
      <trkpt lat="37.2105971351" lon="-2.0139391534">
        <ele>541.36</ele>
        <time>2018-11-08T10:51:53Z</time>
      </trkpt>
      <trkpt lat="37.2106903419" lon="-2.0139572583">
        <ele>540.40</ele>
        <time>2018-11-08T10:51:54Z</time>
      </trkpt>
      <trkpt lat="37.2107853089" lon="-2.0139874332">
        <ele>538.96</ele>
        <time>2018-11-08T10:51:55Z</time>
      </trkpt>
      <trkpt lat="37.2108795214" lon="-2.0140258223">
        <ele>537.51</ele>
        <time>2018-11-08T10:51:56Z</time>
      </trkpt>
      <trkpt lat="37.2116536740" lon="-2.0143465139">
        <ele>528.38</ele>
        <time>2018-11-08T10:52:04Z</time>
      </trkpt>
      <trkpt lat="37.2117527481" lon="-2.0143592544">
        <ele>526.94</ele>
        <time>2018-11-08T10:52:05Z</time>
      </trkpt>
      <trkpt lat="37.2118423507" lon="-2.0143447537">
        <ele>525.98</ele>
        <time>2018-11-08T10:52:06Z</time>
      </trkpt>
      <trkpt lat="37.2119300254" lon="-2.0143009163">
        <ele>525.02</ele>
        <time>2018-11-08T10:52:07Z</time>
      </trkpt>
      <trkpt lat="37.2120122518" lon="-2.0142326877">
        <ele>524.06</ele>
        <time>2018-11-08T10:52:08Z</time>
      </trkpt>
      <trkpt lat="37.2120763734" lon="-2.0141565800">
        <ele>523.58</ele>
        <time>2018-11-08T10:52:09Z</time>
      </trkpt>
      <trkpt lat="37.2121202108" lon="-2.0140631218">
        <ele>522.61</ele>
        <time>2018-11-08T10:52:10Z</time>
      </trkpt>
      <trkpt lat="37.2121446859" lon="-2.0139791351">
        <ele>522.13</ele>
        <time>2018-11-08T10:52:11Z</time>
      </trkpt>
      <trkpt lat="37.2121804766" lon="-2.0139019378">
        <ele>521.17</ele>
        <time>2018-11-08T10:52:12Z</time>
      </trkpt>
      <trkpt lat="37.2122271638" lon="-2.0138575137">
        <ele>520.69</ele>
        <time>2018-11-08T10:52:13Z</time>
      </trkpt>
      <trkpt lat="37.2122847475" lon="-2.0138446894">
        <ele>519.73</ele>
        <time>2018-11-08T10:52:14Z</time>
      </trkpt>
      <trkpt lat="37.2123426665" lon="-2.0138580166">
        <ele>518.77</ele>
        <time>2018-11-08T10:52:15Z</time>
      </trkpt>
      <trkpt lat="37.2124010045" lon="-2.0138936397">
        <ele>517.81</ele>
        <time>2018-11-08T10:52:16Z</time>
      </trkpt>
      <trkpt lat="37.2124504577" lon="-2.0139397401">
        <ele>516.85</ele>
        <time>2018-11-08T10:52:17Z</time>
      </trkpt>
      <trkpt lat="37.2124985699" lon="-2.0139964018">
        <ele>515.88</ele>
        <time>2018-11-08T10:52:18Z</time>
      </trkpt>
      <trkpt lat="37.2125378810" lon="-2.0140627865">
        <ele>515.40</ele>
        <time>2018-11-08T10:52:19Z</time>
      </trkpt>
      <trkpt lat="37.2125640325" lon="-2.0141427498">
        <ele>514.44</ele>
        <time>2018-11-08T10:52:20Z</time>
      </trkpt>
      <trkpt lat="37.2125790361" lon="-2.0142344479">
        <ele>513.48</ele>
        <time>2018-11-08T10:52:21Z</time>
      </trkpt>
      <trkpt lat="37.2125863284" lon="-2.0143281575">
        <ele>512.52</ele>
        <time>2018-11-08T10:52:22Z</time>
      </trkpt>
      <trkpt lat="37.2125906032" lon="-2.0144208614">
        <ele>512.04</ele>
        <time>2018-11-08T10:52:23Z</time>
      </trkpt>
      <trkpt lat="37.2126023378" lon="-2.0145173371">
        <ele>511.08</ele>
        <time>2018-11-08T10:52:24Z</time>
      </trkpt>
      <trkpt lat="37.2126320936" lon="-2.0146142319">
        <ele>510.12</ele>
        <time>2018-11-08T10:52:25Z</time>
      </trkpt>
      <trkpt lat="37.2126832232" lon="-2.0147066005">
        <ele>509.16</ele>
        <time>2018-11-08T10:52:26Z</time>
      </trkpt>
      <trkpt lat="37.2127556428" lon="-2.0147959515">
        <ele>508.67</ele>
        <time>2018-11-08T10:52:27Z</time>
      </trkpt>
      <trkpt lat="37.2128242068" lon="-2.0148708858">
        <ele>507.71</ele>
        <time>2018-11-08T10:52:28Z</time>
      </trkpt>
      <trkpt lat="37.2129524499" lon="-2.0150219277">
        <ele>505.79</ele>
        <time>2018-11-08T10:52:30Z</time>
      </trkpt>
      <trkpt lat="37.2129951976" lon="-2.0150980353">
        <ele>505.31</ele>
        <time>2018-11-08T10:52:31Z</time>
      </trkpt>
      <trkpt lat="37.2130156495" lon="-2.0151764061">
        <ele>504.35</ele>
        <time>2018-11-08T10:52:32Z</time>
      </trkpt>
      <trkpt lat="37.2130103689" lon="-2.0152517594">
        <ele>503.87</ele>
        <time>2018-11-08T10:52:33Z</time>
      </trkpt>
      <trkpt lat="37.2129787691" lon="-2.0153137855">
        <ele>503.87</ele>
        <time>2018-11-08T10:52:34Z</time>
      </trkpt>
      <trkpt lat="37.2129223589" lon="-2.0153556950">
        <ele>503.39</ele>
        <time>2018-11-08T10:52:35Z</time>
      </trkpt>
      <trkpt lat="37.2128534596" lon="-2.0153708663">
        <ele>502.91</ele>
        <time>2018-11-08T10:52:36Z</time>
      </trkpt>
      <trkpt lat="37.2127822135" lon="-2.0153609756">
        <ele>502.43</ele>
        <time>2018-11-08T10:52:37Z</time>
      </trkpt>
      <trkpt lat="37.2127128951" lon="-2.0153280348">
        <ele>501.95</ele>
        <time>2018-11-08T10:52:38Z</time>
      </trkpt>
      <trkpt lat="37.2126449179" lon="-2.0152784977">
        <ele>500.98</ele>
        <time>2018-11-08T10:52:39Z</time>
      </trkpt>
      <trkpt lat="37.2125766892" lon="-2.0152241830">
        <ele>500.50</ele>
        <time>2018-11-08T10:52:40Z</time>
      </trkpt>
      <trkpt lat="37.2124355379" lon="-2.0151247736">
        <ele>499.06</ele>
        <time>2018-11-08T10:52:42Z</time>
      </trkpt>
      <trkpt lat="37.2123597655" lon="-2.0150934253">
        <ele>498.10</ele>
        <time>2018-11-08T10:52:43Z</time>
      </trkpt>
      <trkpt lat="37.2122783773" lon="-2.0150835346">
        <ele>497.62</ele>
        <time>2018-11-08T10:52:44Z</time>
      </trkpt>
      <trkpt lat="37.2121954802" lon="-2.0150959399">
        <ele>496.66</ele>
        <time>2018-11-08T10:52:45Z</time>
      </trkpt>
      <trkpt lat="37.2121157683" lon="-2.0151270367">
        <ele>495.70</ele>
        <time>2018-11-08T10:52:46Z</time>
      </trkpt>
      <trkpt lat="37.2120386548" lon="-2.0151792560">
        <ele>494.74</ele>
        <time>2018-11-08T10:52:47Z</time>
      </trkpt>
      <trkpt lat="37.2119724378" lon="-2.0152484067">
        <ele>494.26</ele>
        <time>2018-11-08T10:52:48Z</time>
      </trkpt>
      <trkpt lat="37.2119135130" lon="-2.0153315552">
        <ele>493.29</ele>
        <time>2018-11-08T10:52:49Z</time>
      </trkpt>
      <trkpt lat="37.2118550912" lon="-2.0154100098">
        <ele>492.81</ele>
        <time>2018-11-08T10:52:50Z</time>
      </trkpt>
      <trkpt lat="37.2117992677" lon="-2.0154712815">
        <ele>491.85</ele>
        <time>2018-11-08T10:52:51Z</time>
      </trkpt>
      <trkpt lat="37.2117452044" lon="-2.0155216567">
        <ele>491.37</ele>
        <time>2018-11-08T10:52:52Z</time>
      </trkpt>
      <trkpt lat="37.2116944101" lon="-2.0155656617">
        <ele>490.89</ele>
        <time>2018-11-08T10:52:53Z</time>
      </trkpt>
      <trkpt lat="37.2114857007" lon="-2.0157488063">
        <ele>488.01</ele>
        <time>2018-11-08T10:52:59Z</time>
      </trkpt>
      <trkpt lat="37.2114501614" lon="-2.0157876145">
        <ele>487.53</ele>
        <time>2018-11-08T10:53:04Z</time>
      </trkpt>
      <trkpt lat="37.2114576213" lon="-2.0157753769">
        <ele>487.05</ele>
        <time>2018-11-08T10:53:20Z</time>
      </trkpt>
      <trkpt lat="37.2114533465" lon="-2.0157860219">
        <ele>487.53</ele>
        <time>2018-11-08T10:53:44Z</time>
      </trkpt>
      <trkpt lat="37.2114539333" lon="-2.0157883689">
        <ele>487.53</ele>
        <time>2018-11-08T10:53:56Z</time>
      </trkpt>
      <trkpt lat="37.2114580404" lon="-2.0157855190">
        <ele>487.05</ele>
        <time>2018-11-08T10:54:14Z</time>
      </trkpt>
      <trkpt lat="37.2114522569" lon="-2.0157721080">
        <ele>487.05</ele>
        <time>2018-11-08T10:54:33Z</time>
      </trkpt>
      <trkpt lat="37.2114419471" lon="-2.0157705992">
        <ele>486.56</ele>
        <time>2018-11-08T10:54:42Z</time>
      </trkpt>
      <trkpt lat="37.2114350740" lon="-2.0157690905">
        <ele>486.56</ele>
        <time>2018-11-08T10:54:44Z</time>
      </trkpt>
      <trkpt lat="37.2114198189" lon="-2.0157702640">
        <ele>486.56</ele>
        <time>2018-11-08T10:54:45Z</time>
      </trkpt>
      <trkpt lat="37.2112443019" lon="-2.0157420170">
        <ele>485.60</ele>
        <time>2018-11-08T10:54:51Z</time>
      </trkpt>
      <trkpt lat="37.2112091817" lon="-2.0157188829">
        <ele>485.12</ele>
        <time>2018-11-08T10:54:52Z</time>
      </trkpt>
      <trkpt lat="37.2111680266" lon="-2.0156872831">
        <ele>484.64</ele>
        <time>2018-11-08T10:54:53Z</time>
      </trkpt>
      <trkpt lat="37.2109019011" lon="-2.0154376701">
        <ele>482.72</ele>
        <time>2018-11-08T10:54:58Z</time>
      </trkpt>
      <trkpt lat="37.2106945328" lon="-2.0152752288">
        <ele>480.32</ele>
        <time>2018-11-08T10:55:01Z</time>
      </trkpt>
      <trkpt lat="37.2106280643" lon="-2.0152459759">
        <ele>479.84</ele>
        <time>2018-11-08T10:55:02Z</time>
      </trkpt>
      <trkpt lat="37.2105609253" lon="-2.0152434614">
        <ele>478.87</ele>
        <time>2018-11-08T10:55:03Z</time>
      </trkpt>
      <trkpt lat="37.2104968037" lon="-2.0152741391">
        <ele>478.39</ele>
        <time>2018-11-08T10:55:04Z</time>
      </trkpt>
      <trkpt lat="37.2104337718" lon="-2.0153303817">
        <ele>477.91</ele>
        <time>2018-11-08T10:55:05Z</time>
      </trkpt>
      <trkpt lat="37.2103711590" lon="-2.0153831877">
        <ele>476.95</ele>
        <time>2018-11-08T10:55:06Z</time>
      </trkpt>
      <trkpt lat="37.2102976497" lon="-2.0154327247">
        <ele>476.47</ele>
        <time>2018-11-08T10:55:07Z</time>
      </trkpt>
      <trkpt lat="37.2102124896" lon="-2.0154800825">
        <ele>475.51</ele>
        <time>2018-11-08T10:55:08Z</time>
      </trkpt>
      <trkpt lat="37.2101261560" lon="-2.0155163761">
        <ele>475.03</ele>
        <time>2018-11-08T10:55:09Z</time>
      </trkpt>
      <trkpt lat="37.2100380622" lon="-2.0155411866">
        <ele>474.07</ele>
        <time>2018-11-08T10:55:10Z</time>
      </trkpt>
      <trkpt lat="37.2099442687" lon="-2.0155576151">
        <ele>473.11</ele>
        <time>2018-11-08T10:55:11Z</time>
      </trkpt>
      <trkpt lat="37.2098449431" lon="-2.0155659132">
        <ele>472.63</ele>
        <time>2018-11-08T10:55:12Z</time>
      </trkpt>
      <trkpt lat="37.2096706834" lon="-2.0155893825">
        <ele>470.70</ele>
        <time>2018-11-08T10:55:14Z</time>
      </trkpt>
      <trkpt lat="37.2095958330" lon="-2.0156300347">
        <ele>469.74</ele>
        <time>2018-11-08T10:55:15Z</time>
      </trkpt>
      <trkpt lat="37.2095386684" lon="-2.0157003589">
        <ele>468.78</ele>
        <time>2018-11-08T10:55:16Z</time>
      </trkpt>
      <trkpt lat="37.2095063142" lon="-2.0157828368">
        <ele>468.30</ele>
        <time>2018-11-08T10:55:17Z</time>
      </trkpt>
      <trkpt lat="37.2094763909" lon="-2.0158753730">
        <ele>467.34</ele>
        <time>2018-11-08T10:55:18Z</time>
      </trkpt>
      <trkpt lat="37.2094022948" lon="-2.0160463639">
        <ele>465.90</ele>
        <time>2018-11-08T10:55:20Z</time>
      </trkpt>
      <trkpt lat="37.2093430348" lon="-2.0161145926">
        <ele>465.42</ele>
        <time>2018-11-08T10:55:21Z</time>
      </trkpt>
      <trkpt lat="37.2092792485" lon="-2.0161593519">
        <ele>464.93</ele>
        <time>2018-11-08T10:55:22Z</time>
      </trkpt>
      <trkpt lat="37.2092028894" lon="-2.0161958132">
        <ele>464.45</ele>
        <time>2018-11-08T10:55:23Z</time>
      </trkpt>
      <trkpt lat="37.2091229260" lon="-2.0162270777">
        <ele>463.97</ele>
        <time>2018-11-08T10:55:24Z</time>
      </trkpt>
      <trkpt lat="37.2090413701" lon="-2.0162640419">
        <ele>463.01</ele>
        <time>2018-11-08T10:55:25Z</time>
      </trkpt>
      <trkpt lat="37.2089725547" lon="-2.0163129084">
        <ele>462.53</ele>
        <time>2018-11-08T10:55:26Z</time>
      </trkpt>
      <trkpt lat="37.2089084331" lon="-2.0163844898">
        <ele>461.57</ele>
        <time>2018-11-08T10:55:27Z</time>
      </trkpt>
      <trkpt lat="37.2088565491" lon="-2.0164754335">
        <ele>460.61</ele>
        <time>2018-11-08T10:55:28Z</time>
      </trkpt>
      <trkpt lat="37.2088111192" lon="-2.0165843982">
        <ele>459.65</ele>
        <time>2018-11-08T10:55:29Z</time>
      </trkpt>
      <trkpt lat="37.2087804414" lon="-2.0166757610">
        <ele>458.69</ele>
        <time>2018-11-08T10:55:30Z</time>
      </trkpt>
      <trkpt lat="37.2087606601" lon="-2.0167594124">
        <ele>458.21</ele>
        <time>2018-11-08T10:55:31Z</time>
      </trkpt>
      <trkpt lat="37.2087557148" lon="-2.0168366097">
        <ele>457.24</ele>
        <time>2018-11-08T10:55:32Z</time>
      </trkpt>
      <trkpt lat="37.2087728139" lon="-2.0168970432">
        <ele>456.76</ele>
        <time>2018-11-08T10:55:33Z</time>
      </trkpt>
      <trkpt lat="37.2088122927" lon="-2.0169537049">
        <ele>456.28</ele>
        <time>2018-11-08T10:55:34Z</time>
      </trkpt>
      <trkpt lat="37.2088634223" lon="-2.0170033257">
        <ele>455.80</ele>
        <time>2018-11-08T10:55:35Z</time>
      </trkpt>
      <trkpt lat="37.2089201678" lon="-2.0170517731">
        <ele>455.32</ele>
        <time>2018-11-08T10:55:36Z</time>
      </trkpt>
      <trkpt lat="37.2091784980" lon="-2.0172552858">
        <ele>453.40</ele>
        <time>2018-11-08T10:55:40Z</time>
      </trkpt>
      <trkpt lat="37.2092529293" lon="-2.0172816049">
        <ele>452.92</ele>
        <time>2018-11-08T10:55:41Z</time>
      </trkpt>
      <trkpt lat="37.2093998641" lon="-2.0173256099">
        <ele>451.96</ele>
        <time>2018-11-08T10:55:43Z</time>
      </trkpt>
      <trkpt lat="37.2094639856" lon="-2.0173833612">
        <ele>451.48</ele>
        <time>2018-11-08T10:55:44Z</time>
      </trkpt>
      <trkpt lat="37.2095084097" lon="-2.0174568705">
        <ele>450.52</ele>
        <time>2018-11-08T10:55:45Z</time>
      </trkpt>
      <trkpt lat="37.2095430270" lon="-2.0175513346">
        <ele>450.03</ele>
        <time>2018-11-08T10:55:46Z</time>
      </trkpt>
      <trkpt lat="37.2095721122" lon="-2.0176536776">
        <ele>449.07</ele>
        <time>2018-11-08T10:55:47Z</time>
      </trkpt>
      <trkpt lat="37.2096448671" lon="-2.0178505685">
        <ele>447.15</ele>
        <time>2018-11-08T10:55:49Z</time>
      </trkpt>
      <trkpt lat="37.2097060550" lon="-2.0179285202">
        <ele>446.19</ele>
        <time>2018-11-08T10:55:50Z</time>
      </trkpt>
      <trkpt lat="37.2097807378" lon="-2.0179922227">
        <ele>445.23</ele>
        <time>2018-11-08T10:55:51Z</time>
      </trkpt>
      <trkpt lat="37.2103975620" lon="-2.0184557419">
        <ele>439.46</ele>
        <time>2018-11-08T10:55:58Z</time>
      </trkpt>
      <trkpt lat="37.2109216824" lon="-2.0188061055">
        <ele>434.17</ele>
        <time>2018-11-08T10:56:04Z</time>
      </trkpt>
      <trkpt lat="37.2109925095" lon="-2.0188752562">
        <ele>433.69</ele>
        <time>2018-11-08T10:56:05Z</time>
      </trkpt>
      <trkpt lat="37.2110565472" lon="-2.0189610031">
        <ele>432.73</ele>
        <time>2018-11-08T10:56:06Z</time>
      </trkpt>
      <trkpt lat="37.2111150529" lon="-2.0190555509">
        <ele>431.77</ele>
        <time>2018-11-08T10:56:07Z</time>
      </trkpt>
      <trkpt lat="37.2111660149" lon="-2.0191564690">
        <ele>430.81</ele>
        <time>2018-11-08T10:56:08Z</time>
      </trkpt>
      <trkpt lat="37.2112050746" lon="-2.0192661043">
        <ele>430.33</ele>
        <time>2018-11-08T10:56:09Z</time>
      </trkpt>
      <trkpt lat="37.2112321481" lon="-2.0193873066">
        <ele>429.37</ele>
        <time>2018-11-08T10:56:10Z</time>
      </trkpt>
      <trkpt lat="37.2112500854" lon="-2.0195143763">
        <ele>428.40</ele>
        <time>2018-11-08T10:56:11Z</time>
      </trkpt>
      <trkpt lat="37.2112691961" lon="-2.0196437929">
        <ele>426.96</ele>
        <time>2018-11-08T10:56:12Z</time>
      </trkpt>
      <trkpt lat="37.2112980299" lon="-2.0197683480">
        <ele>426.00</ele>
        <time>2018-11-08T10:56:13Z</time>
      </trkpt>
      <trkpt lat="37.2113343235" lon="-2.0198853593">
        <ele>425.04</ele>
        <time>2018-11-08T10:56:14Z</time>
      </trkpt>
      <trkpt lat="37.2113717906" lon="-2.0199976768">
        <ele>424.56</ele>
        <time>2018-11-08T10:56:15Z</time>
      </trkpt>
      <trkpt lat="37.2114033904" lon="-2.0201077312">
        <ele>423.60</ele>
        <time>2018-11-08T10:56:16Z</time>
      </trkpt>
      <trkpt lat="37.2114244290" lon="-2.0202090684">
        <ele>423.12</ele>
        <time>2018-11-08T10:56:17Z</time>
      </trkpt>
      <trkpt lat="37.2114363313" lon="-2.0202960726">
        <ele>422.64</ele>
        <time>2018-11-08T10:56:18Z</time>
      </trkpt>
      <trkpt lat="37.2114403546" lon="-2.0203686599">
        <ele>422.16</ele>
        <time>2018-11-08T10:56:19Z</time>
      </trkpt>
      <trkpt lat="37.2114344873" lon="-2.0204275008">
        <ele>421.68</ele>
        <time>2018-11-08T10:56:20Z</time>
      </trkpt>
      <trkpt lat="37.2114201542" lon="-2.0204808097">
        <ele>421.19</ele>
        <time>2018-11-08T10:56:21Z</time>
      </trkpt>
      <trkpt lat="37.2114039771" lon="-2.0205181930">
        <ele>421.19</ele>
        <time>2018-11-08T10:56:22Z</time>
      </trkpt>
      <trkpt lat="37.2113905661" lon="-2.0205395669">
        <ele>421.19</ele>
        <time>2018-11-08T10:56:23Z</time>
      </trkpt>
      <trkpt lat="37.2113727964" lon="-2.0205618627">
        <ele>420.23</ele>
        <time>2018-11-08T10:56:29Z</time>
      </trkpt>
      <trkpt lat="37.2113660909" lon="-2.0205656346">
        <ele>420.71</ele>
        <time>2018-11-08T10:56:40Z</time>
      </trkpt>
      <trkpt lat="37.2113701142" lon="-2.0205718372">
        <ele>421.19</ele>
        <time>2018-11-08T10:56:57Z</time>
      </trkpt>
      <trkpt lat="37.2113763168" lon="-2.0205727592">
        <ele>420.71</ele>
        <time>2018-11-08T10:57:17Z</time>
      </trkpt>
      <trkpt lat="37.2113725450" lon="-2.0205720887">
        <ele>421.68</ele>
        <time>2018-11-08T10:57:39Z</time>
      </trkpt>
      <trkpt lat="37.2113615647" lon="-2.0205720887">
        <ele>420.71</ele>
        <time>2018-11-08T10:58:02Z</time>
      </trkpt>
      <trkpt lat="37.2113718744" lon="-2.0205746870">
        <ele>419.75</ele>
        <time>2018-11-08T10:58:24Z</time>
      </trkpt>
      <trkpt lat="37.2113717906" lon="-2.0205701608">
        <ele>419.75</ele>
        <time>2018-11-08T10:58:44Z</time>
      </trkpt>
      <trkpt lat="37.2113683540" lon="-2.0205806382">
        <ele>420.23</ele>
        <time>2018-11-08T10:59:07Z</time>
      </trkpt>
      <trkpt lat="37.2113876324" lon="-2.0205953903">
        <ele>420.71</ele>
        <time>2018-11-08T10:59:17Z</time>
      </trkpt>
      <trkpt lat="37.2114173882" lon="-2.0205961447">
        <ele>421.19</ele>
        <time>2018-11-08T10:59:23Z</time>
      </trkpt>
      <trkpt lat="37.2114351578" lon="-2.0206052810">
        <ele>421.19</ele>
        <time>2018-11-08T10:59:24Z</time>
      </trkpt>
      <trkpt lat="37.2115269396" lon="-2.0206708275">
        <ele>419.75</ele>
        <time>2018-11-08T10:59:27Z</time>
      </trkpt>
      <trkpt lat="37.2115750518" lon="-2.0206861664">
        <ele>419.27</ele>
        <time>2018-11-08T10:59:28Z</time>
      </trkpt>
      <trkpt lat="37.2116311267" lon="-2.0206927881">
        <ele>418.31</ele>
        <time>2018-11-08T10:59:29Z</time>
      </trkpt>
      <trkpt lat="37.2117634770" lon="-2.0207145810">
        <ele>417.35</ele>
        <time>2018-11-08T10:59:31Z</time>
      </trkpt>
      <trkpt lat="37.2118275985" lon="-2.0207487792">
        <ele>416.87</ele>
        <time>2018-11-08T10:59:32Z</time>
      </trkpt>
      <trkpt lat="37.2118918039" lon="-2.0208019204">
        <ele>416.39</ele>
        <time>2018-11-08T10:59:33Z</time>
      </trkpt>
      <trkpt lat="37.2119473759" lon="-2.0208622701">
        <ele>415.91</ele>
        <time>2018-11-08T10:59:34Z</time>
      </trkpt>
      <trkpt lat="37.2119977511" lon="-2.0209247991">
        <ele>415.43</ele>
        <time>2018-11-08T10:59:35Z</time>
      </trkpt>
      <trkpt lat="37.2120489646" lon="-2.0209759288">
        <ele>414.47</ele>
        <time>2018-11-08T10:59:36Z</time>
      </trkpt>
      <trkpt lat="37.2121065482" lon="-2.0210125577">
        <ele>413.98</ele>
        <time>2018-11-08T10:59:37Z</time>
      </trkpt>
      <trkpt lat="37.2121719271" lon="-2.0210266393">
        <ele>413.50</ele>
        <time>2018-11-08T10:59:38Z</time>
      </trkpt>
      <trkpt lat="37.2122343723" lon="-2.0210091211">
        <ele>413.02</ele>
        <time>2018-11-08T10:59:39Z</time>
      </trkpt>
      <trkpt lat="37.2122879326" lon="-2.0209637750">
        <ele>412.54</ele>
        <time>2018-11-08T10:59:40Z</time>
      </trkpt>
      <trkpt lat="37.2123274952" lon="-2.0208887570">
        <ele>411.58</ele>
        <time>2018-11-08T10:59:41Z</time>
      </trkpt>
      <trkpt lat="37.2123554908" lon="-2.0208063629">
        <ele>411.10</ele>
        <time>2018-11-08T10:59:42Z</time>
      </trkpt>
      <trkpt lat="37.2123908624" lon="-2.0207239687">
        <ele>410.62</ele>
        <time>2018-11-08T10:59:43Z</time>
      </trkpt>
      <trkpt lat="37.2124404833" lon="-2.0206415746">
        <ele>409.66</ele>
        <time>2018-11-08T10:59:44Z</time>
      </trkpt>
      <trkpt lat="37.2124975640" lon="-2.0205720887">
        <ele>409.18</ele>
        <time>2018-11-08T10:59:45Z</time>
      </trkpt>
      <trkpt lat="37.2125659604" lon="-2.0205109008">
        <ele>408.22</ele>
        <time>2018-11-08T10:59:46Z</time>
      </trkpt>
      <trkpt lat="37.2126374580" lon="-2.0204669796">
        <ele>407.74</ele>
        <time>2018-11-08T10:59:47Z</time>
      </trkpt>
      <trkpt lat="37.2127166670" lon="-2.0204444323">
        <ele>407.26</ele>
        <time>2018-11-08T10:59:48Z</time>
      </trkpt>
      <trkpt lat="37.2128085326" lon="-2.0204470307">
        <ele>406.29</ele>
        <time>2018-11-08T10:59:49Z</time>
      </trkpt>
      <trkpt lat="37.2128956206" lon="-2.0204732660">
        <ele>405.33</ele>
        <time>2018-11-08T10:59:50Z</time>
      </trkpt>
      <trkpt lat="37.2129774280" lon="-2.0205204561">
        <ele>404.85</ele>
        <time>2018-11-08T10:59:51Z</time>
      </trkpt>
      <trkpt lat="37.2130560502" lon="-2.0205883496">
        <ele>403.89</ele>
        <time>2018-11-08T10:59:52Z</time>
      </trkpt>
      <trkpt lat="37.2131179087" lon="-2.0206726715">
        <ele>402.93</ele>
        <time>2018-11-08T10:59:53Z</time>
      </trkpt>
      <trkpt lat="37.2131680325" lon="-2.0207788702">
        <ele>401.97</ele>
        <time>2018-11-08T10:59:54Z</time>
      </trkpt>
      <trkpt lat="37.2132080141" lon="-2.0208918583">
        <ele>401.01</ele>
        <time>2018-11-08T10:59:55Z</time>
      </trkpt>
      <trkpt lat="37.2132479120" lon="-2.0210163295">
        <ele>400.05</ele>
        <time>2018-11-08T10:59:56Z</time>
      </trkpt>
      <trkpt lat="37.2135214973" lon="-2.0217964333">
        <ele>394.76</ele>
        <time>2018-11-08T11:00:02Z</time>
      </trkpt>
      <trkpt lat="37.2135840263" lon="-2.0219297055">
        <ele>393.80</ele>
        <time>2018-11-08T11:00:03Z</time>
      </trkpt>
      <trkpt lat="37.2136520036" lon="-2.0220509078">
        <ele>392.84</ele>
        <time>2018-11-08T11:00:04Z</time>
      </trkpt>
      <trkpt lat="37.2138912231" lon="-2.0224489644">
        <ele>388.99</ele>
        <time>2018-11-08T11:00:08Z</time>
      </trkpt>
      <trkpt lat="37.2139498126" lon="-2.0225114096">
        <ele>388.51</ele>
        <time>2018-11-08T11:00:09Z</time>
      </trkpt>
      <trkpt lat="37.2140249144" lon="-2.0225550793">
        <ele>388.03</ele>
        <time>2018-11-08T11:00:10Z</time>
      </trkpt>
      <trkpt lat="37.2142705042" lon="-2.0226300973">
        <ele>386.11</ele>
        <time>2018-11-08T11:00:13Z</time>
      </trkpt>
      <trkpt lat="37.2143642139" lon="-2.0226157643">
        <ele>385.63</ele>
        <time>2018-11-08T11:00:14Z</time>
      </trkpt>
      <trkpt lat="37.2148708161" lon="-2.0224902872">
        <ele>381.78</ele>
        <time>2018-11-08T11:00:20Z</time>
      </trkpt>
      <trkpt lat="37.2149480134" lon="-2.0224935561">
        <ele>381.30</ele>
        <time>2018-11-08T11:00:21Z</time>
      </trkpt>
      <trkpt lat="37.2150058486" lon="-2.0225192048">
        <ele>381.30</ele>
        <time>2018-11-08T11:00:22Z</time>
      </trkpt>
      <trkpt lat="37.2150568105" lon="-2.0225633774">
        <ele>380.82</ele>
        <time>2018-11-08T11:00:23Z</time>
      </trkpt>
      <trkpt lat="37.2150987200" lon="-2.0226135850">
        <ele>380.82</ele>
        <time>2018-11-08T11:00:24Z</time>
      </trkpt>
      <trkpt lat="37.2151383664" lon="-2.0226647146">
        <ele>380.82</ele>
        <time>2018-11-08T11:00:25Z</time>
      </trkpt>
      <trkpt lat="37.2152562160" lon="-2.0228623599">
        <ele>380.34</ele>
        <time>2018-11-08T11:00:30Z</time>
      </trkpt>
      <trkpt lat="37.2152683698" lon="-2.0228773635">
        <ele>380.34</ele>
        <time>2018-11-08T11:00:31Z</time>
      </trkpt>
      <trkpt lat="37.2152997181" lon="-2.0228977315">
        <ele>380.82</ele>
        <time>2018-11-08T11:00:37Z</time>
      </trkpt>
      <trkpt lat="37.2152965330" lon="-2.0228888467">
        <ele>379.86</ele>
        <time>2018-11-08T11:00:56Z</time>
      </trkpt>
      <trkpt lat="37.2152977902" lon="-2.0228924509">
        <ele>379.86</ele>
        <time>2018-11-08T11:01:12Z</time>
      </trkpt>
      <trkpt lat="37.2152972035" lon="-2.0229092147">
        <ele>380.34</ele>
        <time>2018-11-08T11:01:20Z</time>
      </trkpt>
      <trkpt lat="37.2153032385" lon="-2.0229274873">
        <ele>380.34</ele>
        <time>2018-11-08T11:01:21Z</time>
      </trkpt>
      <trkpt lat="37.2153131291" lon="-2.0229470171">
        <ele>380.34</ele>
        <time>2018-11-08T11:01:22Z</time>
      </trkpt>
      <trkpt lat="37.2153289709" lon="-2.0229699835">
        <ele>380.34</ele>
        <time>2018-11-08T11:01:23Z</time>
      </trkpt>
      <trkpt lat="37.2153474949" lon="-2.0229936205">
        <ele>380.34</ele>
        <time>2018-11-08T11:01:24Z</time>
      </trkpt>
      <trkpt lat="37.2153724730" lon="-2.0230266452">
        <ele>380.34</ele>
        <time>2018-11-08T11:01:25Z</time>
      </trkpt>
      <trkpt lat="37.2153971158" lon="-2.0230640285">
        <ele>379.86</ele>
        <time>2018-11-08T11:01:26Z</time>
      </trkpt>
      <trkpt lat="37.2154750675" lon="-2.0232148189">
        <ele>379.38</ele>
        <time>2018-11-08T11:01:29Z</time>
      </trkpt>
      <trkpt lat="37.2155952640" lon="-2.0235384442">
        <ele>378.42</ele>
        <time>2018-11-08T11:01:34Z</time>
      </trkpt>
      <trkpt lat="37.2156334016" lon="-2.0235614106">
        <ele>378.42</ele>
        <time>2018-11-08T11:01:35Z</time>
      </trkpt>
      <trkpt lat="37.2156681865" lon="-2.0235606562">
        <ele>378.90</ele>
        <time>2018-11-08T11:01:36Z</time>
      </trkpt>
      <trkpt lat="37.2157040611" lon="-2.0235502627">
        <ele>378.90</ele>
        <time>2018-11-08T11:01:37Z</time>
      </trkpt>
      <trkpt lat="37.2157357447" lon="-2.0235396177">
        <ele>379.86</ele>
        <time>2018-11-08T11:01:38Z</time>
      </trkpt>
      <trkpt lat="37.2157708649" lon="-2.0235315710">
        <ele>379.86</ele>
        <time>2018-11-08T11:01:39Z</time>
      </trkpt>
      <trkpt lat="37.2159797419" lon="-2.0235045813">
        <ele>381.78</ele>
        <time>2018-11-08T11:01:46Z</time>
      </trkpt>
      <trkpt lat="37.2161068954" lon="-2.0234941877">
        <ele>381.78</ele>
        <time>2018-11-08T11:01:52Z</time>
      </trkpt>
      <trkpt lat="37.2162368987" lon="-2.0235893223">
        <ele>382.26</ele>
        <time>2018-11-08T11:01:58Z</time>
      </trkpt>
      <trkpt lat="37.2164108232" lon="-2.0236346684">
        <ele>384.18</ele>
        <time>2018-11-08T11:02:06Z</time>
      </trkpt>
      <trkpt lat="37.2165380605" lon="-2.0236626640">
        <ele>383.70</ele>
        <time>2018-11-08T11:02:14Z</time>
      </trkpt>
      <trkpt lat="37.2167397290" lon="-2.0236848760">
        <ele>384.18</ele>
        <time>2018-11-08T11:02:23Z</time>
      </trkpt>
      <trkpt lat="37.2168555669" lon="-2.0238457248">
        <ele>383.70</ele>
        <time>2018-11-08T11:02:30Z</time>
      </trkpt>
      <trkpt lat="37.2169570718" lon="-2.0240960084">
        <ele>384.66</ele>
        <time>2018-11-08T11:02:39Z</time>
      </trkpt>
      <trkpt lat="37.2170380410" lon="-2.0242934860">
        <ele>384.66</ele>
        <time>2018-11-08T11:02:48Z</time>
      </trkpt>
      <trkpt lat="37.2171394620" lon="-2.0245190430">
        <ele>385.15</ele>
        <time>2018-11-08T11:02:59Z</time>
      </trkpt>
      <trkpt lat="37.2172472533" lon="-2.0247411635">
        <ele>386.11</ele>
        <time>2018-11-08T11:03:10Z</time>
      </trkpt>
      <trkpt lat="37.2173235286" lon="-2.0249394793">
        <ele>387.55</ele>
        <time>2018-11-08T11:03:20Z</time>
      </trkpt>
      <trkpt lat="37.2173736524" lon="-2.0251443330">
        <ele>388.99</ele>
        <time>2018-11-08T11:03:30Z</time>
      </trkpt>
      <trkpt lat="37.2173809446" lon="-2.0253299922">
        <ele>390.91</ele>
        <time>2018-11-08T11:03:39Z</time>
      </trkpt>
      <trkpt lat="37.2173778433" lon="-2.0254358556">
        <ele>391.39</ele>
        <time>2018-11-08T11:03:44Z</time>
      </trkpt>
      <trkpt lat="37.2173749097" lon="-2.0254585706">
        <ele>391.87</ele>
        <time>2018-11-08T11:03:45Z</time>
      </trkpt>
      <trkpt lat="37.2173651867" lon="-2.0257307310">
        <ele>392.84</ele>
        <time>2018-11-08T11:03:57Z</time>
      </trkpt>
      <trkpt lat="37.2173599061" lon="-2.0259698667">
        <ele>394.76</ele>
        <time>2018-11-08T11:04:07Z</time>
      </trkpt>
      <trkpt lat="37.2173581459" lon="-2.0262100082">
        <ele>395.24</ele>
        <time>2018-11-08T11:04:17Z</time>
      </trkpt>
      <trkpt lat="37.2173464950" lon="-2.0263856091">
        <ele>396.68</ele>
        <time>2018-11-08T11:04:25Z</time>
      </trkpt>
      <trkpt lat="37.2172889952" lon="-2.0266506448">
        <ele>397.64</ele>
        <time>2018-11-08T11:04:37Z</time>
      </trkpt>
      <trkpt lat="37.2171900049" lon="-2.0268566720">
        <ele>398.60</ele>
        <time>2018-11-08T11:04:48Z</time>
      </trkpt>
      <trkpt lat="37.2170909308" lon="-2.0270362962">
        <ele>400.05</ele>
        <time>2018-11-08T11:04:58Z</time>
      </trkpt>
      <trkpt lat="37.2170025017" lon="-2.0271637850">
        <ele>401.49</ele>
        <time>2018-11-08T11:05:06Z</time>
      </trkpt>
      <trkpt lat="37.2168737557" lon="-2.0273122285">
        <ele>402.93</ele>
        <time>2018-11-08T11:05:16Z</time>
      </trkpt>
      <trkpt lat="37.2167751845" lon="-2.0274106320">
        <ele>403.89</ele>
        <time>2018-11-08T11:05:24Z</time>
      </trkpt>
      <trkpt lat="37.2167630307" lon="-2.0274232887">
        <ele>403.89</ele>
        <time>2018-11-08T11:05:30Z</time>
      </trkpt>
      <trkpt lat="37.2167625278" lon="-2.0274243783">
        <ele>402.93</ele>
        <time>2018-11-08T11:05:48Z</time>
      </trkpt>
      <trkpt lat="37.2167630307" lon="-2.0274221152">
        <ele>401.49</ele>
        <time>2018-11-08T11:06:05Z</time>
      </trkpt>
      <trkpt lat="37.2167662997" lon="-2.0274144877">
        <ele>403.89</ele>
        <time>2018-11-08T11:06:21Z</time>
      </trkpt>
      <trkpt lat="37.2167364601" lon="-2.0274407230">
        <ele>403.89</ele>
        <time>2018-11-08T11:06:35Z</time>
      </trkpt>
      <trkpt lat="37.2166402359" lon="-2.0275868196">
        <ele>404.85</ele>
        <time>2018-11-08T11:06:42Z</time>
      </trkpt>
      <trkpt lat="37.2165864240" lon="-2.0277993847">
        <ele>405.81</ele>
        <time>2018-11-08T11:06:50Z</time>
      </trkpt>
      <trkpt lat="37.2165738512" lon="-2.0281020552">
        <ele>407.74</ele>
        <time>2018-11-08T11:07:01Z</time>
      </trkpt>
      <trkpt lat="37.2166186944" lon="-2.0284077432">
        <ele>410.62</ele>
        <time>2018-11-08T11:07:12Z</time>
      </trkpt>
      <trkpt lat="37.2166787088" lon="-2.0287789777">
        <ele>412.54</ele>
        <time>2018-11-08T11:07:25Z</time>
      </trkpt>
      <trkpt lat="37.2167495359" lon="-2.0290259924">
        <ele>414.47</ele>
        <time>2018-11-08T11:07:34Z</time>
      </trkpt>
      <trkpt lat="37.2168922797" lon="-2.0292543992">
        <ele>415.43</ele>
        <time>2018-11-08T11:07:45Z</time>
      </trkpt>
      <trkpt lat="37.2170729097" lon="-2.0294807106">
        <ele>416.39</ele>
        <time>2018-11-08T11:07:57Z</time>
      </trkpt>
      <trkpt lat="37.2171398811" lon="-2.0295717381">
        <ele>416.87</ele>
        <time>2018-11-08T11:08:03Z</time>
      </trkpt>
      <trkpt lat="37.2172889952" lon="-2.0297101233">
        <ele>417.83</ele>
        <time>2018-11-08T11:08:13Z</time>
      </trkpt>
      <trkpt lat="37.2174541187" lon="-2.0298252907">
        <ele>419.27</ele>
        <time>2018-11-08T11:08:23Z</time>
      </trkpt>
      <trkpt lat="37.2176084295" lon="-2.0299087744">
        <ele>420.71</ele>
        <time>2018-11-08T11:08:32Z</time>
      </trkpt>
      <trkpt lat="37.2177846171" lon="-2.0299797691">
        <ele>422.64</ele>
        <time>2018-11-08T11:08:41Z</time>
      </trkpt>
      <trkpt lat="37.2179751378" lon="-2.0300643425">
        <ele>424.56</ele>
        <time>2018-11-08T11:08:51Z</time>
      </trkpt>
      <trkpt lat="37.2180748824" lon="-2.0302028116">
        <ele>425.52</ele>
        <time>2018-11-08T11:09:00Z</time>
      </trkpt>
      <trkpt lat="37.2181301191" lon="-2.0304139517">
        <ele>426.48</ele>
        <time>2018-11-08T11:09:09Z</time>
      </trkpt>
      <trkpt lat="37.2181319632" lon="-2.0306848548">
        <ele>427.92</ele>
        <time>2018-11-08T11:09:20Z</time>
      </trkpt>
      <trkpt lat="37.2181030456" lon="-2.0309112500">
        <ele>429.37</ele>
        <time>2018-11-08T11:09:30Z</time>
      </trkpt>
      <trkpt lat="37.2180833481" lon="-2.0311292633">
        <ele>431.29</ele>
        <time>2018-11-08T11:09:41Z</time>
      </trkpt>
      <trkpt lat="37.2181016207" lon="-2.0313246455">
        <ele>433.21</ele>
        <time>2018-11-08T11:09:51Z</time>
      </trkpt>
      <trkpt lat="37.2182349768" lon="-2.0314246416">
        <ele>434.17</ele>
        <time>2018-11-08T11:10:00Z</time>
      </trkpt>
      <trkpt lat="37.2183899581" lon="-2.0313529763">
        <ele>435.61</ele>
        <time>2018-11-08T11:10:09Z</time>
      </trkpt>
      <trkpt lat="37.2185400780" lon="-2.0312349591">
        <ele>436.10</ele>
        <time>2018-11-08T11:10:18Z</time>
      </trkpt>
      <trkpt lat="37.2187326103" lon="-2.0311680716">
        <ele>437.06</ele>
        <time>2018-11-08T11:10:28Z</time>
      </trkpt>
      <trkpt lat="37.2188290022" lon="-2.0311685745">
        <ele>438.02</ele>
        <time>2018-11-08T11:10:35Z</time>
      </trkpt>
      <trkpt lat="37.2188370489" lon="-2.0311638806">
        <ele>437.54</ele>
        <time>2018-11-08T11:10:44Z</time>
      </trkpt>
      <trkpt lat="37.2188370489" lon="-2.0311740227">
        <ele>436.58</ele>
        <time>2018-11-08T11:10:51Z</time>
      </trkpt>
      <trkpt lat="37.2188352048" lon="-2.0311676525">
        <ele>436.10</ele>
        <time>2018-11-08T11:11:05Z</time>
      </trkpt>
      <trkpt lat="37.2188427486" lon="-2.0311520621">
        <ele>438.98</ele>
        <time>2018-11-08T11:11:21Z</time>
      </trkpt>
      <trkpt lat="37.2188443411" lon="-2.0311655570">
        <ele>437.54</ele>
        <time>2018-11-08T11:11:35Z</time>
      </trkpt>
      <trkpt lat="37.2188379709" lon="-2.0311645512">
        <ele>437.06</ele>
        <time>2018-11-08T11:11:49Z</time>
      </trkpt>
      <trkpt lat="37.2188435867" lon="-2.0311709214">
        <ele>437.06</ele>
        <time>2018-11-08T11:12:01Z</time>
      </trkpt>
      <trkpt lat="37.2188404854" lon="-2.0311727654">
        <ele>435.61</ele>
        <time>2018-11-08T11:12:15Z</time>
      </trkpt>
      <trkpt lat="37.2188446764" lon="-2.0311798062">
        <ele>436.10</ele>
        <time>2018-11-08T11:12:25Z</time>
      </trkpt>
      <trkpt lat="37.2188511305" lon="-2.0311689097">
        <ele>436.10</ele>
        <time>2018-11-08T11:12:37Z</time>
      </trkpt>
      <trkpt lat="37.2188554052" lon="-2.0311566722">
        <ele>434.65</ele>
        <time>2018-11-08T11:12:47Z</time>
      </trkpt>
      <trkpt lat="37.2188517172" lon="-2.0311608631">
        <ele>435.13</ele>
        <time>2018-11-08T11:13:00Z</time>
      </trkpt>
      <trkpt lat="37.2188333608" lon="-2.0311573427">
        <ele>434.17</ele>
        <time>2018-11-08T11:13:14Z</time>
      </trkpt>
      <trkpt lat="37.2188434191" lon="-2.0311518945">
        <ele>434.17</ele>
        <time>2018-11-08T11:13:28Z</time>
      </trkpt>
      <trkpt lat="37.2188461013" lon="-2.0311596896">
        <ele>434.65</ele>
        <time>2018-11-08T11:13:40Z</time>
      </trkpt>
      <trkpt lat="37.2188452631" lon="-2.0311786328">
        <ele>435.61</ele>
        <time>2018-11-08T11:13:51Z</time>
      </trkpt>
      <trkpt lat="37.2188513819" lon="-2.0312223863">
        <ele>436.58</ele>
        <time>2018-11-08T11:13:58Z</time>
      </trkpt>
      <trkpt lat="37.2188533936" lon="-2.0312231407">
        <ele>437.54</ele>
        <time>2018-11-08T11:14:08Z</time>
      </trkpt>
      <trkpt lat="37.2188528068" lon="-2.0312653854">
        <ele>437.54</ele>
        <time>2018-11-08T11:14:12Z</time>
      </trkpt>
      <trkpt lat="37.2188548185" lon="-2.0312813111">
        <ele>437.54</ele>
        <time>2018-11-08T11:14:13Z</time>
      </trkpt>
      <trkpt lat="37.2188714985" lon="-2.0314816386">
        <ele>439.46</ele>
        <time>2018-11-08T11:14:23Z</time>
      </trkpt>
      <trkpt lat="37.2188495379" lon="-2.0316476841">
        <ele>440.90</ele>
        <time>2018-11-08T11:14:30Z</time>
      </trkpt>
      <trkpt lat="37.2188056167" lon="-2.0318692178">
        <ele>442.82</ele>
        <time>2018-11-08T11:14:39Z</time>
      </trkpt>
      <trkpt lat="37.2187497094" lon="-2.0321166515">
        <ele>444.27</ele>
        <time>2018-11-08T11:14:50Z</time>
      </trkpt>
      <trkpt lat="37.2187055368" lon="-2.0323016401">
        <ele>444.75</ele>
        <time>2018-11-08T11:14:59Z</time>
      </trkpt>
      <trkpt lat="37.2186647169" lon="-2.0324974414">
        <ele>446.67</ele>
        <time>2018-11-08T11:15:08Z</time>
      </trkpt>
      <trkpt lat="37.2185876872" lon="-2.0327178016">
        <ele>447.63</ele>
        <time>2018-11-08T11:15:19Z</time>
      </trkpt>
      <trkpt lat="37.2185191233" lon="-2.0328740403">
        <ele>449.07</ele>
        <time>2018-11-08T11:15:28Z</time>
      </trkpt>
      <trkpt lat="37.2184418421" lon="-2.0330292732">
        <ele>450.03</ele>
        <time>2018-11-08T11:15:37Z</time>
      </trkpt>
      <trkpt lat="37.2183814924" lon="-2.0331695862">
        <ele>451.00</ele>
        <time>2018-11-08T11:15:45Z</time>
      </trkpt>
      <trkpt lat="37.2183432709" lon="-2.0333717577">
        <ele>451.96</ele>
        <time>2018-11-08T11:15:56Z</time>
      </trkpt>
      <trkpt lat="37.2183655668" lon="-2.0335890166">
        <ele>453.40</ele>
        <time>2018-11-08T11:16:07Z</time>
      </trkpt>
      <trkpt lat="37.2183951549" lon="-2.0337549783">
        <ele>455.32</ele>
        <time>2018-11-08T11:16:16Z</time>
      </trkpt>
      <trkpt lat="37.2184393276" lon="-2.0339019131">
        <ele>456.28</ele>
        <time>2018-11-08T11:16:25Z</time>
      </trkpt>
      <trkpt lat="37.2185071371" lon="-2.0340834651">
        <ele>457.72</ele>
        <time>2018-11-08T11:16:35Z</time>
      </trkpt>
      <trkpt lat="37.2185687441" lon="-2.0342291426">
        <ele>457.72</ele>
        <time>2018-11-08T11:16:43Z</time>
      </trkpt>
      <trkpt lat="37.2186352964" lon="-2.0343977865">
        <ele>458.69</ele>
        <time>2018-11-08T11:16:53Z</time>
      </trkpt>
      <trkpt lat="37.2186950594" lon="-2.0345503371">
        <ele>459.17</ele>
        <time>2018-11-08T11:17:02Z</time>
      </trkpt>
      <trkpt lat="37.2187138349" lon="-2.0346163865">
        <ele>459.65</ele>
        <time>2018-11-08T11:17:08Z</time>
      </trkpt>
      <trkpt lat="37.2187682334" lon="-2.0347659197">
        <ele>461.09</ele>
        <time>2018-11-08T11:17:17Z</time>
      </trkpt>
      <trkpt lat="37.2188015096" lon="-2.0349214878">
        <ele>462.05</ele>
        <time>2018-11-08T11:17:25Z</time>
      </trkpt>
      <trkpt lat="37.2188235540" lon="-2.0351552591">
        <ele>463.49</ele>
        <time>2018-11-08T11:17:36Z</time>
      </trkpt>
      <trkpt lat="37.2187842429" lon="-2.0353959873">
        <ele>464.93</ele>
        <time>2018-11-08T11:17:46Z</time>
      </trkpt>
      <trkpt lat="37.2187407408" lon="-2.0356244780">
        <ele>465.42</ele>
        <time>2018-11-08T11:17:56Z</time>
      </trkpt>
      <trkpt lat="37.2186979931" lon="-2.0358740073">
        <ele>466.38</ele>
        <time>2018-11-08T11:18:06Z</time>
      </trkpt>
      <trkpt lat="37.2186543234" lon="-2.0360977203">
        <ele>468.30</ele>
        <time>2018-11-08T11:18:16Z</time>
      </trkpt>
      <trkpt lat="37.2186103184" lon="-2.0363254566">
        <ele>469.74</ele>
        <time>2018-11-08T11:18:27Z</time>
      </trkpt>
      <trkpt lat="37.2185697500" lon="-2.0365514327">
        <ele>471.18</ele>
        <time>2018-11-08T11:18:37Z</time>
      </trkpt>
      <trkpt lat="37.2185289301" lon="-2.0367992856">
        <ele>471.66</ele>
        <time>2018-11-08T11:18:48Z</time>
      </trkpt>
      <trkpt lat="37.2185114957" lon="-2.0369949192">
        <ele>473.11</ele>
        <time>2018-11-08T11:18:57Z</time>
      </trkpt>
      <trkpt lat="37.2184869368" lon="-2.0371986832">
        <ele>474.55</ele>
        <time>2018-11-08T11:19:06Z</time>
      </trkpt>
      <trkpt lat="37.2184630483" lon="-2.0374223962">
        <ele>475.51</ele>
        <time>2018-11-08T11:19:16Z</time>
      </trkpt>
      <trkpt lat="37.2184513137" lon="-2.0376414154">
        <ele>475.51</ele>
        <time>2018-11-08T11:19:25Z</time>
      </trkpt>
      <trkpt lat="37.2184353881" lon="-2.0378297567">
        <ele>475.51</ele>
        <time>2018-11-08T11:19:33Z</time>
      </trkpt>
      <trkpt lat="37.2184320353" lon="-2.0380237140">
        <ele>475.51</ele>
        <time>2018-11-08T11:19:41Z</time>
      </trkpt>
      <trkpt lat="37.2184250783" lon="-2.0382733271">
        <ele>475.03</ele>
        <time>2018-11-08T11:19:50Z</time>
      </trkpt>
      <trkpt lat="37.2184383217" lon="-2.0385906659">
        <ele>474.55</ele>
        <time>2018-11-08T11:19:58Z</time>
      </trkpt>
      <trkpt lat="37.2184984200" lon="-2.0390059054">
        <ele>473.59</ele>
        <time>2018-11-08T11:20:05Z</time>
      </trkpt>
      <trkpt lat="37.2186277527" lon="-2.0395080652">
        <ele>470.70</ele>
        <time>2018-11-08T11:20:11Z</time>
      </trkpt>
      <trkpt lat="37.2186986636" lon="-2.0401728339">
        <ele>467.34</ele>
        <time>2018-11-08T11:20:17Z</time>
      </trkpt>
      <trkpt lat="37.2185735218" lon="-2.0409225114">
        <ele>463.49</ele>
        <time>2018-11-08T11:20:23Z</time>
      </trkpt>
      <trkpt lat="37.2182939854" lon="-2.0417884458">
        <ele>460.13</ele>
        <time>2018-11-08T11:20:30Z</time>
      </trkpt>
      <trkpt lat="37.2180094197" lon="-2.0429380238">
        <ele>458.69</ele>
        <time>2018-11-08T11:20:39Z</time>
      </trkpt>
      <trkpt lat="37.2176886443" lon="-2.0439471211">
        <ele>456.76</ele>
        <time>2018-11-08T11:20:48Z</time>
      </trkpt>
      <trkpt lat="37.2175099421" lon="-2.0445048530">
        <ele>458.69</ele>
        <time>2018-11-08T11:20:54Z</time>
      </trkpt>
      <trkpt lat="37.2174388636" lon="-2.0446838066">
        <ele>460.13</ele>
        <time>2018-11-08T11:20:58Z</time>
      </trkpt>
      <trkpt lat="37.2173884884" lon="-2.0448354352">
        <ele>462.05</ele>
        <time>2018-11-08T11:21:05Z</time>
      </trkpt>
      <trkpt lat="37.2173003107" lon="-2.0450656023">
        <ele>464.45</ele>
        <time>2018-11-08T11:21:15Z</time>
      </trkpt>
      <trkpt lat="37.2172314953" lon="-2.0452425443">
        <ele>465.90</ele>
        <time>2018-11-08T11:21:23Z</time>
      </trkpt>
      <trkpt lat="37.2171693854" lon="-2.0453918260">
        <ele>465.90</ele>
        <time>2018-11-08T11:21:30Z</time>
      </trkpt>
      <trkpt lat="37.2171402164" lon="-2.0455666725">
        <ele>467.82</ele>
        <time>2018-11-08T11:21:38Z</time>
      </trkpt>
      <trkpt lat="37.2171263024" lon="-2.0458291937">
        <ele>468.78</ele>
        <time>2018-11-08T11:21:48Z</time>
      </trkpt>
      <trkpt lat="37.2171536274" lon="-2.0460925531">
        <ele>470.22</ele>
        <time>2018-11-08T11:21:58Z</time>
      </trkpt>
      <trkpt lat="37.2171755880" lon="-2.0462098997">
        <ele>470.70</ele>
        <time>2018-11-08T11:22:03Z</time>
      </trkpt>
      <trkpt lat="37.2171829641" lon="-2.0462285914">
        <ele>470.70</ele>
        <time>2018-11-08T11:22:04Z</time>
      </trkpt>
      <trkpt lat="37.2171892505" lon="-2.0462527312">
        <ele>470.70</ele>
        <time>2018-11-08T11:22:05Z</time>
      </trkpt>
      <trkpt lat="37.2172586527" lon="-2.0465551503">
        <ele>471.66</ele>
        <time>2018-11-08T11:22:17Z</time>
      </trkpt>
      <trkpt lat="37.2173119616" lon="-2.0467434917">
        <ele>471.66</ele>
        <time>2018-11-08T11:22:25Z</time>
      </trkpt>
      <trkpt lat="37.2173449863" lon="-2.0469354372">
        <ele>472.63</ele>
        <time>2018-11-08T11:22:32Z</time>
      </trkpt>
      <trkpt lat="37.2173444834" lon="-2.0471797697">
        <ele>472.63</ele>
        <time>2018-11-08T11:22:41Z</time>
      </trkpt>
      <trkpt lat="37.2172752488" lon="-2.0474277064">
        <ele>472.14</ele>
        <time>2018-11-08T11:22:49Z</time>
      </trkpt>
      <trkpt lat="37.2171656974" lon="-2.0477373339">
        <ele>470.70</ele>
        <time>2018-11-08T11:22:56Z</time>
      </trkpt>
      <trkpt lat="37.2170039266" lon="-2.0481676608">
        <ele>467.82</ele>
        <time>2018-11-08T11:23:02Z</time>
      </trkpt>
      <trkpt lat="37.2168351989" lon="-2.0486882608">
        <ele>463.49</ele>
        <time>2018-11-08T11:23:07Z</time>
      </trkpt>
      <trkpt lat="37.2165913694" lon="-2.0495206676">
        <ele>457.24</ele>
        <time>2018-11-08T11:23:13Z</time>
      </trkpt>
      <trkpt lat="37.2162556741" lon="-2.0507673919">
        <ele>449.55</ele>
        <time>2018-11-08T11:23:21Z</time>
      </trkpt>
      <trkpt lat="37.2158522531" lon="-2.0518798381">
        <ele>448.11</ele>
        <time>2018-11-08T11:23:29Z</time>
      </trkpt>
      <trkpt lat="37.2155551985" lon="-2.0523193013">
        <ele>450.03</ele>
        <time>2018-11-08T11:23:34Z</time>
      </trkpt>
      <trkpt lat="37.2153477464" lon="-2.0525539108">
        <ele>452.92</ele>
        <time>2018-11-08T11:23:39Z</time>
      </trkpt>
      <trkpt lat="37.2152541205" lon="-2.0526751969">
        <ele>454.36</ele>
        <time>2018-11-08T11:23:44Z</time>
      </trkpt>
      <trkpt lat="37.2151710559" lon="-2.0528066251">
        <ele>455.80</ele>
        <time>2018-11-08T11:23:51Z</time>
      </trkpt>
      <trkpt lat="37.2150760051" lon="-2.0529848244">
        <ele>457.72</ele>
        <time>2018-11-08T11:23:59Z</time>
      </trkpt>
      <trkpt lat="37.2149643581" lon="-2.0531906839">
        <ele>459.17</ele>
        <time>2018-11-08T11:24:09Z</time>
      </trkpt>
      <trkpt lat="37.2149409726" lon="-2.0532478485">
        <ele>459.17</ele>
        <time>2018-11-08T11:24:12Z</time>
      </trkpt>
      <trkpt lat="37.2149297409" lon="-2.0532667078">
        <ele>459.65</ele>
        <time>2018-11-08T11:24:13Z</time>
      </trkpt>
      <trkpt lat="37.2148279008" lon="-2.0534343459">
        <ele>462.05</ele>
        <time>2018-11-08T11:24:22Z</time>
      </trkpt>
      <trkpt lat="37.2147651203" lon="-2.0535440650">
        <ele>463.49</ele>
        <time>2018-11-08T11:24:29Z</time>
      </trkpt>
      <trkpt lat="37.2146457620" lon="-2.0537752379">
        <ele>464.45</ele>
        <time>2018-11-08T11:24:41Z</time>
      </trkpt>
      <trkpt lat="37.2145647090" lon="-2.0539991185">
        <ele>465.42</ele>
        <time>2018-11-08T11:24:52Z</time>
      </trkpt>
      <trkpt lat="37.2145067900" lon="-2.0542210713">
        <ele>465.90</ele>
        <time>2018-11-08T11:25:02Z</time>
      </trkpt>
      <trkpt lat="37.2144632041" lon="-2.0544228237">
        <ele>466.86</ele>
        <time>2018-11-08T11:25:11Z</time>
      </trkpt>
      <trkpt lat="37.2144169360" lon="-2.0546394121">
        <ele>467.82</ele>
        <time>2018-11-08T11:25:20Z</time>
      </trkpt>
      <trkpt lat="37.2143813130" lon="-2.0549462736">
        <ele>468.78</ele>
        <time>2018-11-08T11:25:32Z</time>
      </trkpt>
      <trkpt lat="37.2143719252" lon="-2.0550828148">
        <ele>469.26</ele>
        <time>2018-11-08T11:25:39Z</time>
      </trkpt>
      <trkpt lat="37.2143580113" lon="-2.0552704018">
        <ele>469.74</ele>
        <time>2018-11-08T11:25:48Z</time>
      </trkpt>
      <trkpt lat="37.2143405769" lon="-2.0554394647">
        <ele>470.70</ele>
        <time>2018-11-08T11:25:56Z</time>
      </trkpt>
      <trkpt lat="37.2143886890" lon="-2.0556091983">
        <ele>470.70</ele>
        <time>2018-11-08T11:26:05Z</time>
      </trkpt>
      <trkpt lat="37.2144201212" lon="-2.0557359327">
        <ele>471.66</ele>
        <time>2018-11-08T11:26:13Z</time>
      </trkpt>
      <trkpt lat="37.2144204564" lon="-2.0557630062">
        <ele>472.63</ele>
        <time>2018-11-08T11:26:22Z</time>
      </trkpt>
      <trkpt lat="37.2144301794" lon="-2.0557711367">
        <ele>473.11</ele>
        <time>2018-11-08T11:26:29Z</time>
      </trkpt>
      <trkpt lat="37.2144335322" lon="-2.0557744894">
        <ele>472.63</ele>
        <time>2018-11-08T11:26:38Z</time>
      </trkpt>
      <trkpt lat="37.2144267429" lon="-2.0557752438">
        <ele>470.70</ele>
        <time>2018-11-08T11:26:53Z</time>
      </trkpt>
      <trkpt lat="37.2144297604" lon="-2.0557757467">
        <ele>471.18</ele>
        <time>2018-11-08T11:27:15Z</time>
      </trkpt>
      <trkpt lat="37.2144460212" lon="-2.0557740703">
        <ele>470.70</ele>
        <time>2018-11-08T11:27:33Z</time>
      </trkpt>
      <trkpt lat="37.2144421656" lon="-2.0557837933">
        <ele>470.22</ele>
        <time>2018-11-08T11:27:49Z</time>
      </trkpt>
      <trkpt lat="37.2144382261" lon="-2.0557806920">
        <ele>470.70</ele>
        <time>2018-11-08T11:28:09Z</time>
      </trkpt>
      <trkpt lat="37.2144383099" lon="-2.0557686221">
        <ele>470.70</ele>
        <time>2018-11-08T11:28:21Z</time>
      </trkpt>
      <trkpt lat="37.2144300956" lon="-2.0557714719">
        <ele>470.22</ele>
        <time>2018-11-08T11:28:37Z</time>
      </trkpt>
      <trkpt lat="37.2144321073" lon="-2.0557841286">
        <ele>471.66</ele>
        <time>2018-11-08T11:28:56Z</time>
      </trkpt>
      <trkpt lat="37.2144296765" lon="-2.0557724778">
        <ele>471.66</ele>
        <time>2018-11-08T11:29:13Z</time>
      </trkpt>
      <trkpt lat="37.2144300118" lon="-2.0557702985">
        <ele>472.63</ele>
        <time>2018-11-08T11:29:38Z</time>
      </trkpt>
      <trkpt lat="37.2144329455" lon="-2.0557659399">
        <ele>472.14</ele>
        <time>2018-11-08T11:29:59Z</time>
      </trkpt>
      <trkpt lat="37.2144346219" lon="-2.0557535347">
        <ele>472.63</ele>
        <time>2018-11-08T11:30:15Z</time>
      </trkpt>
      <trkpt lat="37.2144287545" lon="-2.0557584800">
        <ele>473.11</ele>
        <time>2018-11-08T11:30:36Z</time>
      </trkpt>
      <trkpt lat="37.2144259047" lon="-2.0557584800">
        <ele>474.55</ele>
        <time>2018-11-08T11:30:56Z</time>
      </trkpt>
      <trkpt lat="37.2144173551" lon="-2.0557669457">
        <ele>474.55</ele>
        <time>2018-11-08T11:31:16Z</time>
      </trkpt>
      <trkpt lat="37.2144221328" lon="-2.0557749085">
        <ele>475.51</ele>
        <time>2018-11-08T11:31:35Z</time>
      </trkpt>
      <trkpt lat="37.2144166846" lon="-2.0557738189">
        <ele>475.03</ele>
        <time>2018-11-08T11:31:51Z</time>
      </trkpt>
      <trkpt lat="37.2144296765" lon="-2.0557770040">
        <ele>473.59</ele>
        <time>2018-11-08T11:32:12Z</time>
      </trkpt>
      <trkpt lat="37.2144243959" lon="-2.0557714719">
        <ele>472.63</ele>
        <time>2018-11-08T11:32:32Z</time>
      </trkpt>
      <trkpt lat="37.2144317720" lon="-2.0557770040">
        <ele>474.07</ele>
        <time>2018-11-08T11:32:59Z</time>
      </trkpt>
      <trkpt lat="37.2144266590" lon="-2.0557725616">
        <ele>474.55</ele>
        <time>2018-11-08T11:33:23Z</time>
      </trkpt>
      <trkpt lat="37.2144181095" lon="-2.0557685383">
        <ele>475.03</ele>
        <time>2018-11-08T11:33:47Z</time>
      </trkpt>
      <trkpt lat="37.2144129965" lon="-2.0557641797">
        <ele>475.51</ele>
        <time>2018-11-08T11:34:12Z</time>
      </trkpt>
      <trkpt lat="37.2144119069" lon="-2.0557742380">
        <ele>475.03</ele>
        <time>2018-11-08T11:34:35Z</time>
      </trkpt>
      <trkpt lat="37.2144175228" lon="-2.0557650179">
        <ele>474.55</ele>
        <time>2018-11-08T11:34:56Z</time>
      </trkpt>
      <trkpt lat="37.2144112363" lon="-2.0557526965">
        <ele>473.59</ele>
        <time>2018-11-08T11:35:15Z</time>
      </trkpt>
      <trkpt lat="37.2144191992" lon="-2.0557497628">
        <ele>473.59</ele>
        <time>2018-11-08T11:35:34Z</time>
      </trkpt>
      <trkpt lat="37.2144140024" lon="-2.0557516068">
        <ele>472.63</ele>
        <time>2018-11-08T11:35:51Z</time>
      </trkpt>
      <trkpt lat="37.2144041955" lon="-2.0557610784">
        <ele>472.63</ele>
        <time>2018-11-08T11:36:08Z</time>
      </trkpt>
      <trkpt lat="37.2144068778" lon="-2.0557590667">
        <ele>472.63</ele>
        <time>2018-11-08T11:36:23Z</time>
      </trkpt>
      <trkpt lat="37.2144096438" lon="-2.0557666104">
        <ele>473.11</ele>
        <time>2018-11-08T11:36:38Z</time>
      </trkpt>
      <trkpt lat="37.2144150082" lon="-2.0557646826">
        <ele>473.11</ele>
        <time>2018-11-08T11:36:51Z</time>
      </trkpt>
      <trkpt lat="37.2144129965" lon="-2.0557596534">
        <ele>473.11</ele>
        <time>2018-11-08T11:37:07Z</time>
      </trkpt>
      <trkpt lat="37.2144186962" lon="-2.0557547081">
        <ele>473.59</ele>
        <time>2018-11-08T11:37:20Z</time>
      </trkpt>
      <trkpt lat="37.2144330293" lon="-2.0557542890">
        <ele>473.11</ele>
        <time>2018-11-08T11:37:32Z</time>
      </trkpt>
      <trkpt lat="37.2144347895" lon="-2.0557537861">
        <ele>473.11</ele>
        <time>2018-11-08T11:37:44Z</time>
      </trkpt>
      <trkpt lat="37.2144329455" lon="-2.0557680354">
        <ele>473.11</ele>
        <time>2018-11-08T11:37:59Z</time>
      </trkpt>
      <trkpt lat="37.2144235577" lon="-2.0557585638">
        <ele>473.59</ele>
        <time>2018-11-08T11:38:16Z</time>
      </trkpt>
      <trkpt lat="37.2144245636" lon="-2.0557703823">
        <ele>475.03</ele>
        <time>2018-11-08T11:38:29Z</time>
      </trkpt>
      <trkpt lat="37.2144098952" lon="-2.0557563007">
        <ele>474.55</ele>
        <time>2018-11-08T11:38:42Z</time>
      </trkpt>
      <trkpt lat="37.2144110687" lon="-2.0557554625">
        <ele>473.59</ele>
        <time>2018-11-08T11:38:57Z</time>
      </trkpt>
      <trkpt lat="37.2144118231" lon="-2.0557541214">
        <ele>474.07</ele>
        <time>2018-11-08T11:39:13Z</time>
      </trkpt>
      <trkpt lat="37.2144207917" lon="-2.0557530317">
        <ele>474.55</ele>
        <time>2018-11-08T11:39:26Z</time>
      </trkpt>
      <trkpt lat="37.2144192830" lon="-2.0557528641">
        <ele>474.55</ele>
        <time>2018-11-08T11:39:42Z</time>
      </trkpt>
      <trkpt lat="37.2144214623" lon="-2.0557510201">
        <ele>474.07</ele>
        <time>2018-11-08T11:39:56Z</time>
      </trkpt>
      <trkpt lat="37.2144132480" lon="-2.0557548758">
        <ele>473.59</ele>
        <time>2018-11-08T11:40:10Z</time>
      </trkpt>
      <trkpt lat="37.2144166008" lon="-2.0557624195">
        <ele>473.11</ele>
        <time>2018-11-08T11:40:21Z</time>
      </trkpt>
      <trkpt lat="37.2144179419" lon="-2.0557577256">
        <ele>473.59</ele>
        <time>2018-11-08T11:40:37Z</time>
      </trkpt>
      <trkpt lat="37.2144167684" lon="-2.0557653531">
        <ele>472.63</ele>
        <time>2018-11-08T11:40:50Z</time>
      </trkpt>
      <trkpt lat="37.2144173551" lon="-2.0557699632">
        <ele>471.18</ele>
        <time>2018-11-08T11:41:07Z</time>
      </trkpt>
      <trkpt lat="37.2144137509" lon="-2.0557801053">
        <ele>471.18</ele>
        <time>2018-11-08T11:41:27Z</time>
      </trkpt>
      <trkpt lat="37.2144124098" lon="-2.0557870623">
        <ele>471.18</ele>
        <time>2018-11-08T11:41:42Z</time>
      </trkpt>
      <trkpt lat="37.2144077159" lon="-2.0557866432">
        <ele>470.70</ele>
        <time>2018-11-08T11:41:55Z</time>
      </trkpt>
      <trkpt lat="37.2144013457" lon="-2.0557692926">
        <ele>470.70</ele>
        <time>2018-11-08T11:42:14Z</time>
      </trkpt>
      <trkpt lat="37.2144082189" lon="-2.0557814464">
        <ele>471.66</ele>
        <time>2018-11-08T11:42:32Z</time>
      </trkpt>
      <trkpt lat="37.2144019324" lon="-2.0557822008">
        <ele>471.66</ele>
        <time>2018-11-08T11:42:59Z</time>
      </trkpt>
      <trkpt lat="37.2144019324" lon="-2.0557930134">
        <ele>472.14</ele>
        <time>2018-11-08T11:43:22Z</time>
      </trkpt>
      <trkpt lat="37.2144197021" lon="-2.0557728969">
        <ele>472.63</ele>
        <time>2018-11-08T11:43:41Z</time>
      </trkpt>
      <trkpt lat="37.2144233063" lon="-2.0557760820">
        <ele>472.14</ele>
        <time>2018-11-08T11:43:57Z</time>
      </trkpt>
      <trkpt lat="37.2144132480" lon="-2.0557798538">
        <ele>471.66</ele>
        <time>2018-11-08T11:44:13Z</time>
      </trkpt>
      <trkpt lat="37.2144140024" lon="-2.0557727292">
        <ele>472.14</ele>
        <time>2018-11-08T11:44:31Z</time>
      </trkpt>
      <trkpt lat="37.2144169360" lon="-2.0557766687">
        <ele>472.63</ele>
        <time>2018-11-08T11:44:49Z</time>
      </trkpt>
      <trkpt lat="37.2144234739" lon="-2.0557800215">
        <ele>472.63</ele>
        <time>2018-11-08T11:45:05Z</time>
      </trkpt>
      <trkpt lat="37.2144195344" lon="-2.0557804406">
        <ele>472.63</ele>
        <time>2018-11-08T11:45:22Z</time>
      </trkpt>
      <trkpt lat="37.2144286707" lon="-2.0557730645">
        <ele>474.07</ele>
        <time>2018-11-08T11:45:35Z</time>
      </trkpt>
      <trkpt lat="37.2144138347" lon="-2.0557728130">
        <ele>474.55</ele>
        <time>2018-11-08T11:45:51Z</time>
      </trkpt>
      <trkpt lat="37.2144088056" lon="-2.0557697956">
        <ele>473.59</ele>
        <time>2018-11-08T11:46:08Z</time>
      </trkpt>
      <trkpt lat="37.2144154273" lon="-2.0557747409">
        <ele>473.59</ele>
        <time>2018-11-08T11:46:26Z</time>
      </trkpt>
      <trkpt lat="37.2144279163" lon="-2.0557699632">
        <ele>472.63</ele>
        <time>2018-11-08T11:46:43Z</time>
      </trkpt>
      <trkpt lat="37.2144189477" lon="-2.0557810273">
        <ele>472.63</ele>
        <time>2018-11-08T11:46:55Z</time>
      </trkpt>
      <trkpt lat="37.2144196182" lon="-2.0557705499">
        <ele>473.11</ele>
        <time>2018-11-08T11:47:09Z</time>
      </trkpt>
      <trkpt lat="37.2144251503" lon="-2.0557699632">
        <ele>473.11</ele>
        <time>2018-11-08T11:47:28Z</time>
      </trkpt>
      <trkpt lat="37.2144258209" lon="-2.0557717234">
        <ele>472.14</ele>
        <time>2018-11-08T11:47:43Z</time>
      </trkpt>
      <trkpt lat="37.2144252341" lon="-2.0557817817">
        <ele>471.66</ele>
        <time>2018-11-08T11:47:57Z</time>
      </trkpt>
      <trkpt lat="37.2144207917" lon="-2.0557881519">
        <ele>470.70</ele>
        <time>2018-11-08T11:48:13Z</time>
      </trkpt>
      <trkpt lat="37.2144111525" lon="-2.0557918400">
        <ele>472.14</ele>
        <time>2018-11-08T11:48:27Z</time>
      </trkpt>
      <trkpt lat="37.2144109849" lon="-2.0557868108">
        <ele>474.07</ele>
        <time>2018-11-08T11:48:47Z</time>
      </trkpt>
      <trkpt lat="37.2144169360" lon="-2.0557754114">
        <ele>474.55</ele>
        <time>2018-11-08T11:49:04Z</time>
      </trkpt>
      <trkpt lat="37.2144095600" lon="-2.0557734836">
        <ele>473.11</ele>
        <time>2018-11-08T11:49:20Z</time>
      </trkpt>
      <trkpt lat="37.2144192830" lon="-2.0557776745">
        <ele>474.07</ele>
        <time>2018-11-08T11:49:37Z</time>
      </trkpt>
      <trkpt lat="37.2144334484" lon="-2.0557728969">
        <ele>473.11</ele>
        <time>2018-11-08T11:49:54Z</time>
      </trkpt>
      <trkpt lat="37.2144274972" lon="-2.0557848830">
        <ele>474.07</ele>
        <time>2018-11-08T11:50:12Z</time>
      </trkpt>
      <trkpt lat="37.2144304309" lon="-2.0557802729">
        <ele>473.59</ele>
        <time>2018-11-08T11:50:29Z</time>
      </trkpt>
      <trkpt lat="37.2144313529" lon="-2.0557773393">
        <ele>473.11</ele>
        <time>2018-11-08T11:50:40Z</time>
      </trkpt>
      <trkpt lat="37.2144302633" lon="-2.0557688735">
        <ele>472.63</ele>
        <time>2018-11-08T11:51:00Z</time>
      </trkpt>
      <trkpt lat="37.2144270781" lon="-2.0557786804">
        <ele>472.63</ele>
        <time>2018-11-08T11:51:16Z</time>
      </trkpt>
      <trkpt lat="37.2144276649" lon="-2.0557783451">
        <ele>473.59</ele>
        <time>2018-11-08T11:51:30Z</time>
      </trkpt>
      <trkpt lat="37.2144228034" lon="-2.0557746571">
        <ele>473.59</ele>
        <time>2018-11-08T11:51:42Z</time>
      </trkpt>
      <trkpt lat="37.2144208755" lon="-2.0557765011">
        <ele>473.59</ele>
        <time>2018-11-08T11:51:57Z</time>
      </trkpt>
      <trkpt lat="37.2144187801" lon="-2.0557756629">
        <ele>473.11</ele>
        <time>2018-11-08T11:52:10Z</time>
      </trkpt>
      <trkpt lat="37.2144229710" lon="-2.0557785966">
        <ele>473.11</ele>
        <time>2018-11-08T11:52:28Z</time>
      </trkpt>
      <trkpt lat="37.2144275811" lon="-2.0557766687">
        <ele>473.11</ele>
        <time>2018-11-08T11:52:41Z</time>
      </trkpt>
      <trkpt lat="37.2144231386" lon="-2.0557790156">
        <ele>473.59</ele>
        <time>2018-11-08T11:52:52Z</time>
      </trkpt>
      <trkpt lat="37.2144164331" lon="-2.0557790156">
        <ele>474.07</ele>
        <time>2018-11-08T11:53:03Z</time>
      </trkpt>
      <trkpt lat="37.2144094761" lon="-2.0557931811">
        <ele>473.59</ele>
        <time>2018-11-08T11:53:24Z</time>
      </trkpt>
      <trkpt lat="37.2144100629" lon="-2.0557896607">
        <ele>473.11</ele>
        <time>2018-11-08T11:53:39Z</time>
      </trkpt>
      <trkpt lat="37.2144165169" lon="-2.0557873137">
        <ele>473.59</ele>
        <time>2018-11-08T11:53:53Z</time>
      </trkpt>
      <trkpt lat="37.2144262400" lon="-2.0557827875">
        <ele>474.07</ele>
        <time>2018-11-08T11:54:08Z</time>
      </trkpt>
      <trkpt lat="37.2144155949" lon="-2.0557863917">
        <ele>474.07</ele>
        <time>2018-11-08T11:54:25Z</time>
      </trkpt>
      <trkpt lat="37.2144092247" lon="-2.0557915885">
        <ele>473.11</ele>
        <time>2018-11-08T11:54:38Z</time>
      </trkpt>
      <trkpt lat="37.2144007590" lon="-2.0558065921">
        <ele>473.11</ele>
        <time>2018-11-08T11:54:51Z</time>
      </trkpt>
      <trkpt lat="37.2144081350" lon="-2.0558049157">
        <ele>472.63</ele>
        <time>2018-11-08T11:55:03Z</time>
      </trkpt>
      <trkpt lat="37.2144188639" lon="-2.0557996351">
        <ele>472.63</ele>
        <time>2018-11-08T11:55:18Z</time>
      </trkpt>
      <trkpt lat="37.2144202888" lon="-2.0557942707">
        <ele>473.11</ele>
        <time>2018-11-08T11:55:31Z</time>
      </trkpt>
      <trkpt lat="37.2144188639" lon="-2.0557873975">
        <ele>473.11</ele>
        <time>2018-11-08T11:55:47Z</time>
      </trkpt>
      <trkpt lat="37.2144308500" lon="-2.0557802729">
        <ele>473.11</ele>
        <time>2018-11-08T11:56:01Z</time>
      </trkpt>
      <trkpt lat="37.2144211270" lon="-2.0557852183">
        <ele>471.66</ele>
        <time>2018-11-08T11:56:16Z</time>
      </trkpt>
      <trkpt lat="37.2144195344" lon="-2.0557827037">
        <ele>470.70</ele>
        <time>2018-11-08T11:56:30Z</time>
      </trkpt>
      <trkpt lat="37.2144248150" lon="-2.0557769202">
        <ele>471.66</ele>
        <time>2018-11-08T11:56:47Z</time>
      </trkpt>
      <trkpt lat="37.2144235577" lon="-2.0557794347">
        <ele>472.63</ele>
        <time>2018-11-08T11:57:03Z</time>
      </trkpt>
      <trkpt lat="37.2144093923" lon="-2.0557870623">
        <ele>473.11</ele>
        <time>2018-11-08T11:57:23Z</time>
      </trkpt>
      <trkpt lat="37.2144067939" lon="-2.0557831228">
        <ele>471.66</ele>
        <time>2018-11-08T11:57:41Z</time>
      </trkpt>
      <trkpt lat="37.2144160978" lon="-2.0557705499">
        <ele>471.18</ele>
        <time>2018-11-08T11:58:01Z</time>
      </trkpt>
      <trkpt lat="37.2144132480" lon="-2.0557782613">
        <ele>472.63</ele>
        <time>2018-11-08T11:58:22Z</time>
      </trkpt>
      <trkpt lat="37.2144130804" lon="-2.0557683706">
        <ele>473.11</ele>
        <time>2018-11-08T11:58:39Z</time>
      </trkpt>
      <trkpt lat="37.2144130804" lon="-2.0557681192">
        <ele>473.11</ele>
        <time>2018-11-08T11:58:55Z</time>
      </trkpt>
      <trkpt lat="37.2144070454" lon="-2.0557672810">
        <ele>474.07</ele>
        <time>2018-11-08T11:59:17Z</time>
      </trkpt>
      <trkpt lat="37.2144041955" lon="-2.0557685383">
        <ele>474.55</ele>
        <time>2018-11-08T11:59:35Z</time>
      </trkpt>
      <trkpt lat="37.2144134995" lon="-2.0557617489">
        <ele>474.07</ele>
        <time>2018-11-08T11:59:53Z</time>
      </trkpt>
      <trkpt lat="37.2144181933" lon="-2.0557771716">
        <ele>472.63</ele>
        <time>2018-11-08T12:00:10Z</time>
      </trkpt>
      <trkpt lat="37.2144189477" lon="-2.0557873975">
        <ele>473.11</ele>
        <time>2018-11-08T12:00:26Z</time>
      </trkpt>
      <trkpt lat="37.2144246474" lon="-2.0557843801">
        <ele>472.14</ele>
        <time>2018-11-08T12:00:41Z</time>
      </trkpt>
      <trkpt lat="37.2144245636" lon="-2.0557928458">
        <ele>472.14</ele>
        <time>2018-11-08T12:01:01Z</time>
      </trkpt>
      <trkpt lat="37.2144242283" lon="-2.0557894092">
        <ele>472.63</ele>
        <time>2018-11-08T12:01:17Z</time>
      </trkpt>
      <trkpt lat="37.2144153435" lon="-2.0557946060">
        <ele>472.14</ele>
        <time>2018-11-08T12:01:38Z</time>
      </trkpt>
      <trkpt lat="37.2144225519" lon="-2.0557894092">
        <ele>472.14</ele>
        <time>2018-11-08T12:01:53Z</time>
      </trkpt>
      <trkpt lat="37.2144321073" lon="-2.0557910018">
        <ele>470.22</ele>
        <time>2018-11-08T12:02:12Z</time>
      </trkpt>
      <trkpt lat="37.2144364659" lon="-2.0557920914">
        <ele>469.26</ele>
        <time>2018-11-08T12:02:29Z</time>
      </trkpt>
      <trkpt lat="37.2144267429" lon="-2.0558055863">
        <ele>469.74</ele>
        <time>2018-11-08T12:02:54Z</time>
      </trkpt>
      <trkpt lat="37.2144231386" lon="-2.0557867270">
        <ele>470.70</ele>
        <time>2018-11-08T12:03:18Z</time>
      </trkpt>
      <trkpt lat="37.2144175228" lon="-2.0557789318">
        <ele>471.66</ele>
        <time>2018-11-08T12:03:42Z</time>
      </trkpt>
      <trkpt lat="37.2144219652" lon="-2.0557808597">
        <ele>472.63</ele>
        <time>2018-11-08T12:04:06Z</time>
      </trkpt>
      <trkpt lat="37.2144098114" lon="-2.0557827037">
        <ele>472.14</ele>
        <time>2018-11-08T12:04:25Z</time>
      </trkpt>
      <trkpt lat="37.2144134995" lon="-2.0557900798">
        <ele>471.18</ele>
        <time>2018-11-08T12:04:46Z</time>
      </trkpt>
      <trkpt lat="37.2144157626" lon="-2.0557940193">
        <ele>472.14</ele>
        <time>2018-11-08T12:05:05Z</time>
      </trkpt>
      <trkpt lat="37.2144236416" lon="-2.0557868108">
        <ele>473.11</ele>
        <time>2018-11-08T12:05:24Z</time>
      </trkpt>
      <trkpt lat="37.2144279163" lon="-2.0557742380">
        <ele>474.55</ele>
        <time>2018-11-08T12:05:41Z</time>
      </trkpt>
      <trkpt lat="37.2144152597" lon="-2.0557801891">
        <ele>475.51</ele>
        <time>2018-11-08T12:06:00Z</time>
      </trkpt>
      <trkpt lat="37.2144207917" lon="-2.0557733998">
        <ele>475.03</ele>
        <time>2018-11-08T12:06:26Z</time>
      </trkpt>
      <trkpt lat="37.2144290060" lon="-2.0557776745">
        <ele>475.99</ele>
        <time>2018-11-08T12:06:38Z</time>
      </trkpt>
      <trkpt lat="37.2144270781" lon="-2.0557698794">
        <ele>476.95</ele>
        <time>2018-11-08T12:06:58Z</time>
      </trkpt>
      <trkpt lat="37.2144327778" lon="-2.0557663590">
        <ele>477.43</ele>
        <time>2018-11-08T12:07:19Z</time>
      </trkpt>
      <trkpt lat="37.2144230548" lon="-2.0557736512">
        <ele>476.95</ele>
        <time>2018-11-08T12:07:49Z</time>
      </trkpt>
      <trkpt lat="37.2144194506" lon="-2.0557733998">
        <ele>475.99</ele>
        <time>2018-11-08T12:08:10Z</time>
      </trkpt>
      <trkpt lat="37.2144349571" lon="-2.0557790156">
        <ele>476.95</ele>
        <time>2018-11-08T12:08:37Z</time>
      </trkpt>
      <trkpt lat="37.2144188639" lon="-2.0557770878">
        <ele>479.35</ele>
        <time>2018-11-08T12:09:09Z</time>
      </trkpt>
      <trkpt lat="37.2144160978" lon="-2.0557772554">
        <ele>478.87</ele>
        <time>2018-11-08T12:09:33Z</time>
      </trkpt>
      <trkpt lat="37.2144141700" lon="-2.0557749923">
        <ele>478.39</ele>
        <time>2018-11-08T12:09:52Z</time>
      </trkpt>
      <trkpt lat="37.2144140024" lon="-2.0557705499">
        <ele>478.87</ele>
        <time>2018-11-08T12:10:16Z</time>
      </trkpt>
      <trkpt lat="37.2144199535" lon="-2.0557686221">
        <ele>480.32</ele>
        <time>2018-11-08T12:10:41Z</time>
      </trkpt>
      <trkpt lat="37.2144197859" lon="-2.0557677001">
        <ele>478.87</ele>
        <time>2018-11-08T12:11:04Z</time>
      </trkpt>
      <trkpt lat="37.2144186962" lon="-2.0557630062">
        <ele>478.87</ele>
        <time>2018-11-08T12:11:28Z</time>
      </trkpt>
      <trkpt lat="37.2144238930" lon="-2.0557749923">
        <ele>478.87</ele>
        <time>2018-11-08T12:11:47Z</time>
      </trkpt>
      <trkpt lat="37.2144264914" lon="-2.0557728130">
        <ele>478.39</ele>
        <time>2018-11-08T12:12:10Z</time>
      </trkpt>
      <trkpt lat="37.2144327778" lon="-2.0557592344">
        <ele>478.39</ele>
        <time>2018-11-08T12:12:28Z</time>
      </trkpt>
      <trkpt lat="37.2144181095" lon="-2.0557695441">
        <ele>479.84</ele>
        <time>2018-11-08T12:12:46Z</time>
      </trkpt>
      <trkpt lat="37.2144150082" lon="-2.0557640120">
        <ele>479.84</ele>
        <time>2018-11-08T12:13:11Z</time>
      </trkpt>
      <trkpt lat="37.2144364659" lon="-2.0557624195">
        <ele>479.35</ele>
        <time>2018-11-08T12:13:32Z</time>
      </trkpt>
      <trkpt lat="37.2144276649" lon="-2.0557670295">
        <ele>478.39</ele>
        <time>2018-11-08T12:13:47Z</time>
      </trkpt>
      <trkpt lat="37.2144182771" lon="-2.0557807758">
        <ele>477.91</ele>
        <time>2018-11-08T12:14:05Z</time>
      </trkpt>
      <trkpt lat="37.2144057043" lon="-2.0557926781">
        <ele>476.95</ele>
        <time>2018-11-08T12:14:30Z</time>
      </trkpt>
      <trkpt lat="37.2144171037" lon="-2.0557788480">
        <ele>475.99</ele>
        <time>2018-11-08T12:14:48Z</time>
      </trkpt>
      <trkpt lat="37.2144198697" lon="-2.0557835419">
        <ele>475.51</ele>
        <time>2018-11-08T12:15:07Z</time>
      </trkpt>
      <trkpt lat="37.2144275811" lon="-2.0557769202">
        <ele>476.95</ele>
        <time>2018-11-08T12:15:21Z</time>
      </trkpt>
      <trkpt lat="37.2144340351" lon="-2.0557734836">
        <ele>476.47</ele>
        <time>2018-11-08T12:15:37Z</time>
      </trkpt>
      <trkpt lat="37.2144336998" lon="-2.0557769202">
        <ele>474.55</ele>
        <time>2018-11-08T12:15:53Z</time>
      </trkpt>
      <trkpt lat="37.2144353762" lon="-2.0557837933">
        <ele>473.59</ele>
        <time>2018-11-08T12:16:09Z</time>
      </trkpt>
      <trkpt lat="37.2144401539" lon="-2.0557767525">
        <ele>473.59</ele>
        <time>2018-11-08T12:16:26Z</time>
      </trkpt>
      <trkpt lat="37.2144425847" lon="-2.0557788480">
        <ele>473.11</ele>
        <time>2018-11-08T12:16:41Z</time>
      </trkpt>
      <trkpt lat="37.2144331131" lon="-2.0557796862">
        <ele>474.55</ele>
        <time>2018-11-08T12:17:02Z</time>
      </trkpt>
      <trkpt lat="37.2144285031" lon="-2.0557831228">
        <ele>475.99</ele>
        <time>2018-11-08T12:17:21Z</time>
      </trkpt>
      <trkpt lat="37.2144164331" lon="-2.0557813626">
        <ele>476.95</ele>
        <time>2018-11-08T12:17:35Z</time>
      </trkpt>
      <trkpt lat="37.2144136671" lon="-2.0557650179">
        <ele>476.47</ele>
        <time>2018-11-08T12:17:49Z</time>
      </trkpt>
      <trkpt lat="37.2144095600" lon="-2.0557775907">
        <ele>477.91</ele>
        <time>2018-11-08T12:18:06Z</time>
      </trkpt>
      <trkpt lat="37.2144146729" lon="-2.0557774231">
        <ele>476.95</ele>
        <time>2018-11-08T12:18:21Z</time>
      </trkpt>
      <trkpt lat="37.2144139186" lon="-2.0557709690">
        <ele>476.95</ele>
        <time>2018-11-08T12:18:37Z</time>
      </trkpt>
      <trkpt lat="37.2144245636" lon="-2.0557721425">
        <ele>475.99</ele>
        <time>2018-11-08T12:18:55Z</time>
      </trkpt>
      <trkpt lat="37.2144138347" lon="-2.0557669457">
        <ele>475.51</ele>
        <time>2018-11-08T12:19:10Z</time>
      </trkpt>
      <trkpt lat="37.2144088056" lon="-2.0557695441">
        <ele>476.47</ele>
        <time>2018-11-08T12:19:25Z</time>
      </trkpt>
      <trkpt lat="37.2144134156" lon="-2.0557823684">
        <ele>476.47</ele>
        <time>2018-11-08T12:19:42Z</time>
      </trkpt>
      <trkpt lat="37.2144263238" lon="-2.0557901636">
        <ele>475.51</ele>
        <time>2018-11-08T12:19:57Z</time>
      </trkpt>
      <trkpt lat="37.2144238092" lon="-2.0557831228">
        <ele>475.03</ele>
        <time>2018-11-08T12:20:12Z</time>
      </trkpt>
      <trkpt lat="37.2144140862" lon="-2.0557805244">
        <ele>474.55</ele>
        <time>2018-11-08T12:20:28Z</time>
      </trkpt>
      <trkpt lat="37.2144129965" lon="-2.0557747409">
        <ele>475.99</ele>
        <time>2018-11-08T12:20:49Z</time>
      </trkpt>
      <trkpt lat="37.2144269943" lon="-2.0557745732">
        <ele>475.99</ele>
        <time>2018-11-08T12:21:11Z</time>
      </trkpt>
      <trkpt lat="37.2144318558" lon="-2.0557797700">
        <ele>474.07</ele>
        <time>2018-11-08T12:21:28Z</time>
      </trkpt>
      <trkpt lat="37.2144412436" lon="-2.0557777584">
        <ele>473.59</ele>
        <time>2018-11-08T12:21:44Z</time>
      </trkpt>
      <trkpt lat="37.2144499607" lon="-2.0557874814">
        <ele>472.14</ele>
        <time>2018-11-08T12:22:08Z</time>
      </trkpt>
      <trkpt lat="37.2144549899" lon="-2.0557890739">
        <ele>470.70</ele>
        <time>2018-11-08T12:22:31Z</time>
      </trkpt>
      <trkpt lat="37.2144389804" lon="-2.0557806082">
        <ele>472.63</ele>
        <time>2018-11-08T12:22:55Z</time>
      </trkpt>
      <trkpt lat="37.2144362144" lon="-2.0557809435">
        <ele>473.59</ele>
        <time>2018-11-08T12:23:13Z</time>
      </trkpt>
      <trkpt lat="37.2144269943" lon="-2.0557914209">
        <ele>474.07</ele>
        <time>2018-11-08T12:23:31Z</time>
      </trkpt>
      <trkpt lat="37.2144158464" lon="-2.0557850506">
        <ele>475.03</ele>
        <time>2018-11-08T12:23:48Z</time>
      </trkpt>
      <trkpt lat="37.2144208755" lon="-2.0557800215">
        <ele>475.03</ele>
        <time>2018-11-08T12:24:08Z</time>
      </trkpt>
      <trkpt lat="37.2144230548" lon="-2.0557851344">
        <ele>474.55</ele>
        <time>2018-11-08T12:24:28Z</time>
      </trkpt>
      <trkpt lat="37.2144280002" lon="-2.0557949413">
        <ele>473.11</ele>
        <time>2018-11-08T12:24:51Z</time>
      </trkpt>
      <trkpt lat="37.2144269105" lon="-2.0557842962">
        <ele>474.07</ele>
        <time>2018-11-08T12:25:03Z</time>
      </trkpt>
      <trkpt lat="37.2144300118" lon="-2.0557826199">
        <ele>473.11</ele>
        <time>2018-11-08T12:25:20Z</time>
      </trkpt>
      <trkpt lat="37.2144274134" lon="-2.0557890739">
        <ele>472.63</ele>
        <time>2018-11-08T12:25:39Z</time>
      </trkpt>
      <trkpt lat="37.2144245636" lon="-2.0557864755">
        <ele>473.11</ele>
        <time>2018-11-08T12:26:01Z</time>
      </trkpt>
      <trkpt lat="37.2144357953" lon="-2.0557837095">
        <ele>473.11</ele>
        <time>2018-11-08T12:26:20Z</time>
      </trkpt>
      <trkpt lat="37.2144217137" lon="-2.0557948574">
        <ele>474.07</ele>
        <time>2018-11-08T12:26:36Z</time>
      </trkpt>
      <trkpt lat="37.2144340351" lon="-2.0557889063">
        <ele>474.55</ele>
        <time>2018-11-08T12:27:00Z</time>
      </trkpt>
      <trkpt lat="37.2144462727" lon="-2.0557788480">
        <ele>472.63</ele>
        <time>2018-11-08T12:27:18Z</time>
      </trkpt>
      <trkpt lat="37.2144298442" lon="-2.0557880681">
        <ele>473.11</ele>
        <time>2018-11-08T12:27:35Z</time>
      </trkpt>
      <trkpt lat="37.2144250665" lon="-2.0557795186">
        <ele>474.55</ele>
        <time>2018-11-08T12:27:52Z</time>
      </trkpt>
      <trkpt lat="37.2144130804" lon="-2.0557714719">
        <ele>474.07</ele>
        <time>2018-11-08T12:28:11Z</time>
      </trkpt>
      <trkpt lat="37.2144142538" lon="-2.0557684544">
        <ele>474.55</ele>
        <time>2018-11-08T12:28:27Z</time>
      </trkpt>
      <trkpt lat="37.2144190315" lon="-2.0557730645">
        <ele>474.55</ele>
        <time>2018-11-08T12:28:47Z</time>
      </trkpt>
      <trkpt lat="37.2144220490" lon="-2.0557825360">
        <ele>475.03</ele>
        <time>2018-11-08T12:29:03Z</time>
      </trkpt>
      <trkpt lat="37.2144355439" lon="-2.0557899121">
        <ele>473.11</ele>
        <time>2018-11-08T12:29:23Z</time>
      </trkpt>
      <trkpt lat="37.2144304309" lon="-2.0557996351">
        <ele>472.63</ele>
        <time>2018-11-08T12:29:44Z</time>
      </trkpt>
      <trkpt lat="37.2144226357" lon="-2.0557842124">
        <ele>475.51</ele>
        <time>2018-11-08T12:30:02Z</time>
      </trkpt>
      <trkpt lat="37.2144096438" lon="-2.0557936840">
        <ele>476.95</ele>
        <time>2018-11-08T12:30:18Z</time>
      </trkpt>
      <trkpt lat="37.2144050337" lon="-2.0557949413">
        <ele>475.51</ele>
        <time>2018-11-08T12:30:26Z</time>
      </trkpt>
      <trkpt lat="37.2143895272" lon="-2.0558355097">
        <ele>475.99</ele>
        <time>2018-11-08T12:30:31Z</time>
      </trkpt>
      <trkpt lat="37.2143836599" lon="-2.0558466576">
        <ele>475.99</ele>
        <time>2018-11-08T12:30:32Z</time>
      </trkpt>
      <trkpt lat="37.2143544070" lon="-2.0559981186">
        <ele>475.03</ele>
        <time>2018-11-08T12:30:43Z</time>
      </trkpt>
      <trkpt lat="37.2143117432" lon="-2.0561813470">
        <ele>475.03</ele>
        <time>2018-11-08T12:30:56Z</time>
      </trkpt>
      <trkpt lat="37.2142621223" lon="-2.0562820975">
        <ele>475.03</ele>
        <time>2018-11-08T12:31:05Z</time>
      </trkpt>
      <trkpt lat="37.2142706718" lon="-2.0562827680">
        <ele>473.59</ele>
        <time>2018-11-08T12:31:11Z</time>
      </trkpt>
      <trkpt lat="37.2142767068" lon="-2.0562908985">
        <ele>474.07</ele>
        <time>2018-11-08T12:31:18Z</time>
      </trkpt>
      <trkpt lat="37.2142706718" lon="-2.0563018788">
        <ele>475.03</ele>
        <time>2018-11-08T12:31:28Z</time>
      </trkpt>
      <trkpt lat="37.2142399102" lon="-2.0564307086">
        <ele>475.99</ele>
        <time>2018-11-08T12:31:35Z</time>
      </trkpt>
      <trkpt lat="37.2142115794" lon="-2.0566388313">
        <ele>477.43</ele>
        <time>2018-11-08T12:31:44Z</time>
      </trkpt>
      <trkpt lat="37.2141864337" lon="-2.0568396617">
        <ele>478.87</ele>
        <time>2018-11-08T12:31:53Z</time>
      </trkpt>
      <trkpt lat="37.2141651437" lon="-2.0570771210">
        <ele>480.80</ele>
        <time>2018-11-08T12:32:04Z</time>
      </trkpt>
      <trkpt lat="37.2141651437" lon="-2.0572655462">
        <ele>481.28</ele>
        <time>2018-11-08T12:32:13Z</time>
      </trkpt>
      <trkpt lat="37.2141678259" lon="-2.0574284904">
        <ele>482.72</ele>
        <time>2018-11-08T12:32:21Z</time>
      </trkpt>
      <trkpt lat="37.2141527385" lon="-2.0576195978">
        <ele>484.16</ele>
        <time>2018-11-08T12:32:30Z</time>
      </trkpt>
      <trkpt lat="37.2141557559" lon="-2.0577765908">
        <ele>486.08</ele>
        <time>2018-11-08T12:32:38Z</time>
      </trkpt>
      <trkpt lat="37.2141963243" lon="-2.0579808578">
        <ele>488.01</ele>
        <time>2018-11-08T12:32:49Z</time>
      </trkpt>
      <trkpt lat="37.2142419219" lon="-2.0580787584">
        <ele>489.45</ele>
        <time>2018-11-08T12:32:56Z</time>
      </trkpt>
      <trkpt lat="37.2143266629" lon="-2.0582321472">
        <ele>489.93</ele>
        <time>2018-11-08T12:33:06Z</time>
      </trkpt>
      <trkpt lat="37.2143927962" lon="-2.0583406091">
        <ele>491.37</ele>
        <time>2018-11-08T12:33:13Z</time>
      </trkpt>
      <trkpt lat="37.2144548222" lon="-2.0584620629">
        <ele>493.29</ele>
        <time>2018-11-08T12:33:21Z</time>
      </trkpt>
      <trkpt lat="37.2145123221" lon="-2.0585834328">
        <ele>494.74</ele>
        <time>2018-11-08T12:33:29Z</time>
      </trkpt>
      <trkpt lat="37.2145813890" lon="-2.0587167889">
        <ele>495.70</ele>
        <time>2018-11-08T12:33:38Z</time>
      </trkpt>
      <trkpt lat="37.2146227956" lon="-2.0588107500">
        <ele>496.18</ele>
        <time>2018-11-08T12:33:45Z</time>
      </trkpt>
      <trkpt lat="37.2146795411" lon="-2.0589484647">
        <ele>497.14</ele>
        <time>2018-11-08T12:33:55Z</time>
      </trkpt>
      <trkpt lat="37.2147200257" lon="-2.0590433478">
        <ele>498.58</ele>
        <time>2018-11-08T12:34:03Z</time>
      </trkpt>
      <trkpt lat="37.2147712391" lon="-2.0591648854">
        <ele>500.50</ele>
        <time>2018-11-08T12:34:12Z</time>
      </trkpt>
      <trkpt lat="37.2148113884" lon="-2.0592875127">
        <ele>501.95</ele>
        <time>2018-11-08T12:34:21Z</time>
      </trkpt>
      <trkpt lat="37.2148507833" lon="-2.0594222937">
        <ele>503.39</ele>
        <time>2018-11-08T12:34:31Z</time>
      </trkpt>
      <trkpt lat="37.2148727439" lon="-2.0595212001">
        <ele>504.35</ele>
        <time>2018-11-08T12:34:39Z</time>
      </trkpt>
      <trkpt lat="37.2149176709" lon="-2.0596641116">
        <ele>504.83</ele>
        <time>2018-11-08T12:34:49Z</time>
      </trkpt>
      <trkpt lat="37.2149542999" lon="-2.0598293189">
        <ele>506.27</ele>
        <time>2018-11-08T12:35:01Z</time>
      </trkpt>
      <trkpt lat="37.2149724886" lon="-2.0599689614">
        <ele>507.23</ele>
        <time>2018-11-08T12:35:11Z</time>
      </trkpt>
      <trkpt lat="37.2149901744" lon="-2.0601392817">
        <ele>509.64</ele>
        <time>2018-11-08T12:35:24Z</time>
      </trkpt>
      <trkpt lat="37.2150207683" lon="-2.0602869708">
        <ele>511.08</ele>
        <time>2018-11-08T12:35:35Z</time>
      </trkpt>
      <trkpt lat="37.2150310781" lon="-2.0603650063">
        <ele>511.56</ele>
        <time>2018-11-08T12:35:45Z</time>
      </trkpt>
      <trkpt lat="37.2150387894" lon="-2.0604454726">
        <ele>511.56</ele>
        <time>2018-11-08T12:35:54Z</time>
      </trkpt>
      <trkpt lat="37.2150558885" lon="-2.0606148709">
        <ele>513.48</ele>
        <time>2018-11-08T12:36:06Z</time>
      </trkpt>
      <trkpt lat="37.2150621749" lon="-2.0606482308">
        <ele>513.48</ele>
        <time>2018-11-08T12:36:14Z</time>
      </trkpt>
      <trkpt lat="37.2150542121" lon="-2.0606608875">
        <ele>513.48</ele>
        <time>2018-11-08T12:36:28Z</time>
      </trkpt>
      <trkpt lat="37.2150466684" lon="-2.0607348997">
        <ele>513.96</ele>
        <time>2018-11-08T12:36:34Z</time>
      </trkpt>
      <trkpt lat="37.2150202654" lon="-2.0607949141">
        <ele>513.96</ele>
        <time>2018-11-08T12:36:36Z</time>
      </trkpt>
      <trkpt lat="37.2149927728" lon="-2.0608214848">
        <ele>513.96</ele>
        <time>2018-11-08T12:36:37Z</time>
      </trkpt>
      <trkpt lat="37.2149652801" lon="-2.0608405117">
        <ele>513.96</ele>
        <time>2018-11-08T12:36:38Z</time>
      </trkpt>
      <trkpt lat="37.2149297409" lon="-2.0608581137">
        <ele>513.48</ele>
        <time>2018-11-08T12:36:39Z</time>
      </trkpt>
      <trkpt lat="37.2148947883" lon="-2.0608702675">
        <ele>513.00</ele>
        <time>2018-11-08T12:36:40Z</time>
      </trkpt>
      <trkpt lat="37.2146502882" lon="-2.0609894581">
        <ele>509.64</ele>
        <time>2018-11-08T12:36:45Z</time>
      </trkpt>
      <trkpt lat="37.2145910282" lon="-2.0610298589">
        <ele>508.67</ele>
        <time>2018-11-08T12:36:46Z</time>
      </trkpt>
      <trkpt lat="37.2145261522" lon="-2.0610866044">
        <ele>507.71</ele>
        <time>2018-11-08T12:36:47Z</time>
      </trkpt>
      <trkpt lat="37.2144663893" lon="-2.0611542463">
        <ele>507.23</ele>
        <time>2018-11-08T12:36:48Z</time>
      </trkpt>
      <trkpt lat="37.2144077998" lon="-2.0612325333">
        <ele>506.27</ele>
        <time>2018-11-08T12:36:49Z</time>
      </trkpt>
      <trkpt lat="37.2143440973" lon="-2.0613251533">
        <ele>505.31</ele>
        <time>2018-11-08T12:36:50Z</time>
      </trkpt>
      <trkpt lat="37.2139258403" lon="-2.0619515330">
        <ele>499.54</ele>
        <time>2018-11-08T12:36:56Z</time>
      </trkpt>
      <trkpt lat="37.2133437172" lon="-2.0628322195">
        <ele>495.70</ele>
        <time>2018-11-08T12:37:04Z</time>
      </trkpt>
      <trkpt lat="37.2132531926" lon="-2.0629566908">
        <ele>496.66</ele>
        <time>2018-11-08T12:37:07Z</time>
      </trkpt>
      <trkpt lat="37.2131699603" lon="-2.0630984288">
        <ele>497.14</ele>
        <time>2018-11-08T12:37:13Z</time>
      </trkpt>
      <trkpt lat="37.2131583933" lon="-2.0630969200">
        <ele>497.14</ele>
        <time>2018-11-08T12:37:14Z</time>
      </trkpt>
      <trkpt lat="37.2131495085" lon="-2.0630797371">
        <ele>497.62</ele>
        <time>2018-11-08T12:37:15Z</time>
      </trkpt>
      <trkpt lat="37.2131503467" lon="-2.0630584471">
        <ele>497.62</ele>
        <time>2018-11-08T12:37:16Z</time>
      </trkpt>
      <trkpt lat="37.2131659370" lon="-2.0630294457">
        <ele>498.10</ele>
        <time>2018-11-08T12:37:17Z</time>
      </trkpt>
      <trkpt lat="37.2131859697" lon="-2.0630067308">
        <ele>498.10</ele>
        <time>2018-11-08T12:37:18Z</time>
      </trkpt>
      <trkpt lat="37.2132062539" lon="-2.0629869495">
        <ele>498.10</ele>
        <time>2018-11-08T12:37:19Z</time>
      </trkpt>
      <trkpt lat="37.2132338304" lon="-2.0629629772">
        <ele>498.10</ele>
        <time>2018-11-08T12:37:20Z</time>
      </trkpt>
      <trkpt lat="37.2133168951" lon="-2.0628753025">
        <ele>497.62</ele>
        <time>2018-11-08T12:37:25Z</time>
      </trkpt>
      <trkpt lat="37.2133170627" lon="-2.0628818404">
        <ele>498.10</ele>
        <time>2018-11-08T12:37:37Z</time>
      </trkpt>
      <trkpt lat="37.2133119497" lon="-2.0628838520">
        <ele>498.58</ele>
        <time>2018-11-08T12:37:49Z</time>
      </trkpt>
      <trkpt lat="37.2133186553" lon="-2.0628777333">
        <ele>498.10</ele>
        <time>2018-11-08T12:37:54Z</time>
      </trkpt>
      <trkpt lat="37.2133147158" lon="-2.0628666691">
        <ele>498.10</ele>
        <time>2018-11-08T12:37:55Z</time>
      </trkpt>
      <trkpt lat="37.2132963594" lon="-2.0628577005">
        <ele>498.10</ele>
        <time>2018-11-08T12:37:57Z</time>
      </trkpt>
      <trkpt lat="37.2132470738" lon="-2.0629710238">
        <ele>498.10</ele>
        <time>2018-11-08T12:38:02Z</time>
      </trkpt>
      <trkpt lat="37.2131425515" lon="-2.0631385781">
        <ele>499.06</ele>
        <time>2018-11-08T12:38:09Z</time>
      </trkpt>
      <trkpt lat="37.2129736561" lon="-2.0633844193">
        <ele>500.02</ele>
        <time>2018-11-08T12:38:18Z</time>
      </trkpt>
      <trkpt lat="37.2127394658" lon="-2.0637141634">
        <ele>501.46</ele>
        <time>2018-11-08T12:38:30Z</time>
      </trkpt>
      <trkpt lat="37.2125094663" lon="-2.0640558098">
        <ele>503.39</ele>
        <time>2018-11-08T12:38:43Z</time>
      </trkpt>
      <trkpt lat="37.2123141680" lon="-2.0643407106">
        <ele>505.31</ele>
        <time>2018-11-08T12:38:55Z</time>
      </trkpt>
      <trkpt lat="37.2121472843" lon="-2.0645793434">
        <ele>505.79</ele>
        <time>2018-11-08T12:39:05Z</time>
      </trkpt>
      <trkpt lat="37.2119881120" lon="-2.0648408588">
        <ele>507.71</ele>
        <time>2018-11-08T12:39:16Z</time>
      </trkpt>
      <trkpt lat="37.2118316218" lon="-2.0651125163">
        <ele>509.64</ele>
        <time>2018-11-08T12:39:27Z</time>
      </trkpt>
      <trkpt lat="37.2117550950" lon="-2.0652443636">
        <ele>510.60</ele>
        <time>2018-11-08T12:39:34Z</time>
      </trkpt>
      <trkpt lat="37.2116269358" lon="-2.0654735249">
        <ele>512.52</ele>
        <time>2018-11-08T12:39:45Z</time>
      </trkpt>
      <trkpt lat="37.2115224134" lon="-2.0657000877">
        <ele>513.96</ele>
        <time>2018-11-08T12:39:55Z</time>
      </trkpt>
      <trkpt lat="37.2114683501" lon="-2.0658834837">
        <ele>514.92</ele>
        <time>2018-11-08T12:40:03Z</time>
      </trkpt>
      <trkpt lat="37.2114164662" lon="-2.0660839789">
        <ele>516.37</ele>
        <time>2018-11-08T12:40:13Z</time>
      </trkpt>
      <trkpt lat="37.2113590501" lon="-2.0662768465">
        <ele>517.33</ele>
        <time>2018-11-08T12:40:22Z</time>
      </trkpt>
      <trkpt lat="37.2112908214" lon="-2.0665048342">
        <ele>518.29</ele>
        <time>2018-11-08T12:40:32Z</time>
      </trkpt>
      <trkpt lat="37.2112050746" lon="-2.0668540243">
        <ele>520.69</ele>
        <time>2018-11-08T12:40:47Z</time>
      </trkpt>
      <trkpt lat="37.2111425456" lon="-2.0670673437">
        <ele>522.13</ele>
        <time>2018-11-08T12:40:58Z</time>
      </trkpt>
      <trkpt lat="37.2110805195" lon="-2.0672875363">
        <ele>523.58</ele>
        <time>2018-11-08T12:41:08Z</time>
      </trkpt>
      <trkpt lat="37.2110013105" lon="-2.0675810706">
        <ele>525.02</ele>
        <time>2018-11-08T12:41:21Z</time>
      </trkpt>
      <trkpt lat="37.2109268792" lon="-2.0678413287">
        <ele>526.46</ele>
        <time>2018-11-08T12:41:32Z</time>
      </trkpt>
      <trkpt lat="37.2108577285" lon="-2.0680945460">
        <ele>527.90</ele>
        <time>2018-11-08T12:41:43Z</time>
      </trkpt>
      <trkpt lat="37.2107920982" lon="-2.0683506131">
        <ele>529.34</ele>
        <time>2018-11-08T12:41:55Z</time>
      </trkpt>
      <trkpt lat="37.2107320838" lon="-2.0685936883">
        <ele>530.79</ele>
        <time>2018-11-08T12:42:06Z</time>
      </trkpt>
      <trkpt lat="37.2106537130" lon="-2.0688671060">
        <ele>532.23</ele>
        <time>2018-11-08T12:42:18Z</time>
      </trkpt>
      <trkpt lat="37.2106062714" lon="-2.0690549444">
        <ele>533.19</ele>
        <time>2018-11-08T12:42:27Z</time>
      </trkpt>
      <trkpt lat="37.2105558123" lon="-2.0693013724">
        <ele>534.15</ele>
        <time>2018-11-08T12:42:38Z</time>
      </trkpt>
      <trkpt lat="37.2105135676" lon="-2.0694610476">
        <ele>534.63</ele>
        <time>2018-11-08T12:42:45Z</time>
      </trkpt>
      <trkpt lat="37.2104549780" lon="-2.0696887840">
        <ele>535.59</ele>
        <time>2018-11-08T12:42:56Z</time>
      </trkpt>
      <trkpt lat="37.2104057763" lon="-2.0698842499">
        <ele>536.55</ele>
        <time>2018-11-08T12:43:05Z</time>
      </trkpt>
      <trkpt lat="37.2103489470" lon="-2.0701485313">
        <ele>537.99</ele>
        <time>2018-11-08T12:43:16Z</time>
      </trkpt>
      <trkpt lat="37.2103054449" lon="-2.0703239646">
        <ele>539.44</ele>
        <time>2018-11-08T12:43:25Z</time>
      </trkpt>
      <trkpt lat="37.2102864180" lon="-2.0704325102">
        <ele>539.44</ele>
        <time>2018-11-08T12:43:32Z</time>
      </trkpt>
      <trkpt lat="37.2102626134" lon="-2.0705428999">
        <ele>539.44</ele>
        <time>2018-11-08T12:43:39Z</time>
      </trkpt>
      <trkpt lat="37.2102405690" lon="-2.0706439856">
        <ele>539.44</ele>
        <time>2018-11-08T12:43:46Z</time>
      </trkpt>
      <trkpt lat="37.2101966478" lon="-2.0707232784">
        <ele>540.40</ele>
        <time>2018-11-08T12:43:52Z</time>
      </trkpt>
      <trkpt lat="37.2101978213" lon="-2.0707371086">
        <ele>540.40</ele>
        <time>2018-11-08T12:43:53Z</time>
      </trkpt>
      <trkpt lat="37.2101986594" lon="-2.0707506873">
        <ele>540.40</ele>
        <time>2018-11-08T12:43:54Z</time>
      </trkpt>
      <trkpt lat="37.2101925407" lon="-2.0707643498">
        <ele>540.40</ele>
        <time>2018-11-08T12:43:55Z</time>
      </trkpt>
      <trkpt lat="37.2101820633" lon="-2.0707765874">
        <ele>540.40</ele>
        <time>2018-11-08T12:43:56Z</time>
      </trkpt>
      <trkpt lat="37.2101715021" lon="-2.0707903337">
        <ele>540.88</ele>
        <time>2018-11-08T12:43:57Z</time>
      </trkpt>
      <trkpt lat="37.2101642936" lon="-2.0708037447">
        <ele>540.40</ele>
        <time>2018-11-08T12:43:58Z</time>
      </trkpt>
      <trkpt lat="37.2101550736" lon="-2.0708228555">
        <ele>540.40</ele>
        <time>2018-11-08T12:43:59Z</time>
      </trkpt>
      <trkpt lat="37.2101456020" lon="-2.0708421338">
        <ele>540.88</ele>
        <time>2018-11-08T12:44:00Z</time>
      </trkpt>
      <trkpt lat="37.2101346217" lon="-2.0708620828">
        <ele>540.88</ele>
        <time>2018-11-08T12:44:01Z</time>
      </trkpt>
      <trkpt lat="37.2100575082" lon="-2.0710364264">
        <ele>540.40</ele>
        <time>2018-11-08T12:44:09Z</time>
      </trkpt>
      <trkpt lat="37.2099988349" lon="-2.0712425373">
        <ele>540.40</ele>
        <time>2018-11-08T12:44:17Z</time>
      </trkpt>
      <trkpt lat="37.2099538241" lon="-2.0715578645">
        <ele>539.92</ele>
        <time>2018-11-08T12:44:27Z</time>
      </trkpt>
      <trkpt lat="37.2098791413" lon="-2.0719189569">
        <ele>539.44</ele>
        <time>2018-11-08T12:44:37Z</time>
      </trkpt>
      <trkpt lat="37.2097598668" lon="-2.0722635370">
        <ele>539.44</ele>
        <time>2018-11-08T12:44:48Z</time>
      </trkpt>
      <trkpt lat="37.2096551768" lon="-2.0725392178">
        <ele>540.40</ele>
        <time>2018-11-08T12:44:59Z</time>
      </trkpt>
      <trkpt lat="37.2095607966" lon="-2.0728238672">
        <ele>540.88</ele>
        <time>2018-11-08T12:45:08Z</time>
      </trkpt>
      <trkpt lat="37.2094563581" lon="-2.0730806887">
        <ele>541.84</ele>
        <time>2018-11-08T12:45:17Z</time>
      </trkpt>
      <trkpt lat="37.2093091719" lon="-2.0733627398">
        <ele>542.32</ele>
        <time>2018-11-08T12:45:27Z</time>
      </trkpt>
      <trkpt lat="37.2092363331" lon="-2.0737197250">
        <ele>542.32</ele>
        <time>2018-11-08T12:45:37Z</time>
      </trkpt>
      <trkpt lat="37.2092429549" lon="-2.0740321185">
        <ele>542.80</ele>
        <time>2018-11-08T12:45:46Z</time>
      </trkpt>
      <trkpt lat="37.2092826013" lon="-2.0742818154">
        <ele>542.80</ele>
        <time>2018-11-08T12:45:54Z</time>
      </trkpt>
      <trkpt lat="37.2092510015" lon="-2.0745575801">
        <ele>544.72</ele>
        <time>2018-11-08T12:46:03Z</time>
      </trkpt>
      <trkpt lat="37.2091454733" lon="-2.0747584943">
        <ele>545.69</ele>
        <time>2018-11-08T12:46:13Z</time>
      </trkpt>
      <trkpt lat="37.2090488300" lon="-2.0749252941">
        <ele>547.13</ele>
        <time>2018-11-08T12:46:23Z</time>
      </trkpt>
      <trkpt lat="37.2089397814" lon="-2.0751169045">
        <ele>548.57</ele>
        <time>2018-11-08T12:46:34Z</time>
      </trkpt>
      <trkpt lat="37.2088285536" lon="-2.0752941817">
        <ele>550.01</ele>
        <time>2018-11-08T12:46:44Z</time>
      </trkpt>
      <trkpt lat="37.2087442316" lon="-2.0754271187">
        <ele>551.45</ele>
        <time>2018-11-08T12:46:52Z</time>
      </trkpt>
      <trkpt lat="37.2086784337" lon="-2.0755097643">
        <ele>552.41</ele>
        <time>2018-11-08T12:47:00Z</time>
      </trkpt>
      <trkpt lat="37.2085786052" lon="-2.0756179746">
        <ele>552.90</ele>
        <time>2018-11-08T12:47:10Z</time>
      </trkpt>
      <trkpt lat="37.2084667906" lon="-2.0757163782">
        <ele>553.86</ele>
        <time>2018-11-08T12:47:19Z</time>
      </trkpt>
      <trkpt lat="37.2084237076" lon="-2.0757584553">
        <ele>553.86</ele>
        <time>2018-11-08T12:47:25Z</time>
      </trkpt>
      <trkpt lat="37.2084139846" lon="-2.0757645741">
        <ele>553.86</ele>
        <time>2018-11-08T12:47:26Z</time>
      </trkpt>
      <trkpt lat="37.2084040940" lon="-2.0757744648">
        <ele>553.86</ele>
        <time>2018-11-08T12:47:27Z</time>
      </trkpt>
      <trkpt lat="37.2082968894" lon="-2.0758707728">
        <ele>554.82</ele>
        <time>2018-11-08T12:47:37Z</time>
      </trkpt>
      <trkpt lat="37.2081907745" lon="-2.0759568550">
        <ele>555.30</ele>
        <time>2018-11-08T12:47:46Z</time>
      </trkpt>
      <trkpt lat="37.2081107274" lon="-2.0760410093">
        <ele>556.26</ele>
        <time>2018-11-08T12:47:54Z</time>
      </trkpt>
      <trkpt lat="37.2081025969" lon="-2.0760498103">
        <ele>556.26</ele>
        <time>2018-11-08T12:47:55Z</time>
      </trkpt>
      <trkpt lat="37.2080952208" lon="-2.0760611258">
        <ele>556.26</ele>
        <time>2018-11-08T12:47:56Z</time>
      </trkpt>
      <trkpt lat="37.2080889344" lon="-2.0760760456">
        <ele>556.26</ele>
        <time>2018-11-08T12:47:57Z</time>
      </trkpt>
      <trkpt lat="37.2080808040" lon="-2.0760923903">
        <ele>556.74</ele>
        <time>2018-11-08T12:47:58Z</time>
      </trkpt>
      <trkpt lat="37.2080723383" lon="-2.0761068910">
        <ele>556.74</ele>
        <time>2018-11-08T12:47:59Z</time>
      </trkpt>
      <trkpt lat="37.2080626991" lon="-2.0761219785">
        <ele>556.74</ele>
        <time>2018-11-08T12:48:00Z</time>
      </trkpt>
      <trkpt lat="37.2080542333" lon="-2.0761363115">
        <ele>556.74</ele>
        <time>2018-11-08T12:48:01Z</time>
      </trkpt>
      <trkpt lat="37.2080464382" lon="-2.0761519857">
        <ele>557.22</ele>
        <time>2018-11-08T12:48:02Z</time>
      </trkpt>
      <trkpt lat="37.2080369666" lon="-2.0761677437">
        <ele>557.22</ele>
        <time>2018-11-08T12:48:03Z</time>
      </trkpt>
      <trkpt lat="37.2080257349" lon="-2.0761832502">
        <ele>557.22</ele>
        <time>2018-11-08T12:48:04Z</time>
      </trkpt>
      <trkpt lat="37.2079678997" lon="-2.0763285086">
        <ele>558.66</ele>
        <time>2018-11-08T12:48:12Z</time>
      </trkpt>
      <trkpt lat="37.2079331148" lon="-2.0765393134">
        <ele>560.59</ele>
        <time>2018-11-08T12:48:22Z</time>
      </trkpt>
      <trkpt lat="37.2079424188" lon="-2.0767616853">
        <ele>562.03</ele>
        <time>2018-11-08T12:48:32Z</time>
      </trkpt>
      <trkpt lat="37.2079655528" lon="-2.0768805407">
        <ele>561.55</ele>
        <time>2018-11-08T12:48:39Z</time>
      </trkpt>
      <trkpt lat="37.2079893574" lon="-2.0770379528">
        <ele>562.03</ele>
        <time>2018-11-08T12:48:46Z</time>
      </trkpt>
      <trkpt lat="37.2079883516" lon="-2.0772086084">
        <ele>562.51</ele>
        <time>2018-11-08T12:48:53Z</time>
      </trkpt>
      <trkpt lat="37.2079882678" lon="-2.0773901604">
        <ele>562.99</ele>
        <time>2018-11-08T12:49:00Z</time>
      </trkpt>
      <trkpt lat="37.2079730127" lon="-2.0775642525">
        <ele>563.47</ele>
        <time>2018-11-08T12:49:08Z</time>
      </trkpt>
      <trkpt lat="37.2079311870" lon="-2.0777706150">
        <ele>563.47</ele>
        <time>2018-11-08T12:49:16Z</time>
      </trkpt>
      <trkpt lat="37.2078596894" lon="-2.0781544223">
        <ele>563.47</ele>
        <time>2018-11-08T12:49:27Z</time>
      </trkpt>
      <trkpt lat="37.2077084798" lon="-2.0784383174">
        <ele>562.51</ele>
        <time>2018-11-08T12:49:34Z</time>
      </trkpt>
      <trkpt lat="37.2076796461" lon="-2.0784698334">
        <ele>562.03</ele>
        <time>2018-11-08T12:49:35Z</time>
      </trkpt>
      <trkpt lat="37.2074198071" lon="-2.0786709152">
        <ele>562.51</ele>
        <time>2018-11-08T12:49:43Z</time>
      </trkpt>
      <trkpt lat="37.2072984371" lon="-2.0788222086">
        <ele>564.43</ele>
        <time>2018-11-08T12:49:51Z</time>
      </trkpt>
      <trkpt lat="37.2072471399" lon="-2.0790987276">
        <ele>566.35</ele>
        <time>2018-11-08T12:50:01Z</time>
      </trkpt>
      <trkpt lat="37.2072209883" lon="-2.0793497656">
        <ele>568.28</ele>
        <time>2018-11-08T12:50:10Z</time>
      </trkpt>
      <trkpt lat="37.2071932442" lon="-2.0795944333">
        <ele>569.72</ele>
        <time>2018-11-08T12:50:20Z</time>
      </trkpt>
      <trkpt lat="37.2071744688" lon="-2.0798032265">
        <ele>571.16</ele>
        <time>2018-11-08T12:50:30Z</time>
      </trkpt>
      <trkpt lat="37.2072228324" lon="-2.0800248440">
        <ele>573.08</ele>
        <time>2018-11-08T12:50:40Z</time>
      </trkpt>
      <trkpt lat="37.2072991077" lon="-2.0802348107">
        <ele>573.56</ele>
        <time>2018-11-08T12:50:51Z</time>
      </trkpt>
      <trkpt lat="37.2072858643" lon="-2.0804702584">
        <ele>575.97</ele>
        <time>2018-11-08T12:51:01Z</time>
      </trkpt>
      <trkpt lat="37.2072526719" lon="-2.0806622040">
        <ele>577.89</ele>
        <time>2018-11-08T12:51:10Z</time>
      </trkpt>
      <trkpt lat="37.2072340641" lon="-2.0807865914">
        <ele>579.33</ele>
        <time>2018-11-08T12:51:18Z</time>
      </trkpt>
      <trkpt lat="37.2072342318" lon="-2.0807829872">
        <ele>579.81</ele>
        <time>2018-11-08T12:51:25Z</time>
      </trkpt>
      <trkpt lat="37.2072275262" lon="-2.0808279980">
        <ele>581.25</ele>
        <time>2018-11-08T12:51:38Z</time>
      </trkpt>
      <trkpt lat="37.2071892209" lon="-2.0810038503">
        <ele>581.73</ele>
        <time>2018-11-08T12:51:49Z</time>
      </trkpt>
      <trkpt lat="37.2071454674" lon="-2.0812206063">
        <ele>580.77</ele>
        <time>2018-11-08T12:52:03Z</time>
      </trkpt>
      <trkpt lat="37.2071168013" lon="-2.0814072713">
        <ele>580.77</ele>
        <time>2018-11-08T12:52:14Z</time>
      </trkpt>
      <trkpt lat="37.2070917394" lon="-2.0816164836">
        <ele>582.22</ele>
        <time>2018-11-08T12:52:26Z</time>
      </trkpt>
      <trkpt lat="37.2070721257" lon="-2.0818708744">
        <ele>582.22</ele>
        <time>2018-11-08T12:52:41Z</time>
      </trkpt>
      <trkpt lat="37.2070620675" lon="-2.0819109399">
        <ele>582.70</ele>
        <time>2018-11-08T12:52:44Z</time>
      </trkpt>
      <trkpt lat="37.2070624866" lon="-2.0819261950">
        <ele>583.18</ele>
        <time>2018-11-08T12:52:45Z</time>
      </trkpt>
      <trkpt lat="37.2070654202" lon="-2.0819411986">
        <ele>583.18</ele>
        <time>2018-11-08T12:52:46Z</time>
      </trkpt>
      <trkpt lat="37.2070696950" lon="-2.0819538552">
        <ele>583.18</ele>
        <time>2018-11-08T12:52:47Z</time>
      </trkpt>
      <trkpt lat="37.2070789151" lon="-2.0819741394">
        <ele>582.70</ele>
        <time>2018-11-08T12:52:53Z</time>
      </trkpt>
      <trkpt lat="37.2070841957" lon="-2.0819754805">
        <ele>581.73</ele>
        <time>2018-11-08T12:53:01Z</time>
      </trkpt>
      <trkpt lat="37.2070773225" lon="-2.0819731336">
        <ele>580.77</ele>
        <time>2018-11-08T12:53:26Z</time>
      </trkpt>
      <trkpt lat="37.2070782445" lon="-2.0819841977">
        <ele>580.29</ele>
        <time>2018-11-08T12:53:53Z</time>
      </trkpt>
      <trkpt lat="37.2070795856" lon="-2.0819876343">
        <ele>579.33</ele>
        <time>2018-11-08T12:54:16Z</time>
      </trkpt>
      <trkpt lat="37.2070703655" lon="-2.0819688588">
        <ele>580.29</ele>
        <time>2018-11-08T12:54:37Z</time>
      </trkpt>
      <trkpt lat="37.2070685215" lon="-2.0819784980">
        <ele>580.29</ele>
        <time>2018-11-08T12:54:58Z</time>
      </trkpt>
      <trkpt lat="37.2070763167" lon="-2.0819850359">
        <ele>580.77</ele>
        <time>2018-11-08T12:55:09Z</time>
      </trkpt>
      <trkpt lat="37.2070665937" lon="-2.0820134506">
        <ele>581.25</ele>
        <time>2018-11-08T12:55:12Z</time>
      </trkpt>
      <trkpt lat="37.2070646659" lon="-2.0820311364">
        <ele>581.25</ele>
        <time>2018-11-08T12:55:13Z</time>
      </trkpt>
      <trkpt lat="37.2070442978" lon="-2.0822841022">
        <ele>583.18</ele>
        <time>2018-11-08T12:55:29Z</time>
      </trkpt>
      <trkpt lat="37.2070285399" lon="-2.0824853517">
        <ele>585.58</ele>
        <time>2018-11-08T12:55:41Z</time>
      </trkpt>
      <trkpt lat="37.2069776617" lon="-2.0826972462">
        <ele>587.50</ele>
        <time>2018-11-08T12:55:54Z</time>
      </trkpt>
      <trkpt lat="37.2068859637" lon="-2.0828308538">
        <ele>587.98</ele>
        <time>2018-11-08T12:56:05Z</time>
      </trkpt>
      <trkpt lat="37.2067220137" lon="-2.0829309337">
        <ele>590.87</ele>
        <time>2018-11-08T12:56:18Z</time>
      </trkpt>
      <trkpt lat="37.2065948602" lon="-2.0829218812">
        <ele>593.75</ele>
        <time>2018-11-08T12:56:28Z</time>
      </trkpt>
      <trkpt lat="37.2064143140" lon="-2.0828836598">
        <ele>594.23</ele>
        <time>2018-11-08T12:56:41Z</time>
      </trkpt>
      <trkpt lat="37.2062403057" lon="-2.0827973261">
        <ele>595.19</ele>
        <time>2018-11-08T12:56:54Z</time>
      </trkpt>
      <trkpt lat="37.2061014175" lon="-2.0826624613">
        <ele>596.15</ele>
        <time>2018-11-08T12:57:07Z</time>
      </trkpt>
      <trkpt lat="37.2060270701" lon="-2.0825219806">
        <ele>597.12</ele>
        <time>2018-11-08T12:57:18Z</time>
      </trkpt>
      <trkpt lat="37.2060051933" lon="-2.0824362338">
        <ele>598.56</ele>
        <time>2018-11-08T12:57:27Z</time>
      </trkpt>
      <trkpt lat="37.2060077917" lon="-2.0823535044">
        <ele>598.56</ele>
        <time>2018-11-08T12:57:41Z</time>
      </trkpt>
      <trkpt lat="37.2060377151" lon="-2.0821599662">
        <ele>600.00</ele>
        <time>2018-11-08T12:57:54Z</time>
      </trkpt>
      <trkpt lat="37.2060657106" lon="-2.0819785818">
        <ele>601.44</ele>
        <time>2018-11-08T12:58:05Z</time>
      </trkpt>
      <trkpt lat="37.2060720809" lon="-2.0817450620">
        <ele>601.92</ele>
        <time>2018-11-08T12:58:18Z</time>
      </trkpt>
      <trkpt lat="37.2060339432" lon="-2.0815646835">
        <ele>603.85</ele>
        <time>2018-11-08T12:58:29Z</time>
      </trkpt>
      <trkpt lat="37.2059383057" lon="-2.0814212691">
        <ele>604.33</ele>
        <time>2018-11-08T12:58:40Z</time>
      </trkpt>
      <trkpt lat="37.2058219649" lon="-2.0813831314">
        <ele>605.29</ele>
        <time>2018-11-08T12:58:50Z</time>
      </trkpt>
      <trkpt lat="37.2056673188" lon="-2.0814196765">
        <ele>606.73</ele>
        <time>2018-11-08T12:59:02Z</time>
      </trkpt>
      <trkpt lat="37.2056105733" lon="-2.0814539585">
        <ele>607.69</ele>
        <time>2018-11-08T12:59:12Z</time>
      </trkpt>
      <trkpt lat="37.2055878583" lon="-2.0814692136">
        <ele>606.25</ele>
        <time>2018-11-08T12:59:22Z</time>
      </trkpt>
      <trkpt lat="37.2055828292" lon="-2.0814728178">
        <ele>606.25</ele>
        <time>2018-11-08T12:59:31Z</time>
      </trkpt>
      <trkpt lat="37.2055876069" lon="-2.0814723987">
        <ele>606.25</ele>
        <time>2018-11-08T12:59:50Z</time>
      </trkpt>
      <trkpt lat="37.2055708431" lon="-2.0814923476">
        <ele>606.73</ele>
        <time>2018-11-08T13:00:03Z</time>
      </trkpt>
      <trkpt lat="37.2054739483" lon="-2.0815987140">
        <ele>608.17</ele>
        <time>2018-11-08T13:00:13Z</time>
      </trkpt>
      <trkpt lat="37.2054373194" lon="-2.0817566290">
        <ele>610.09</ele>
        <time>2018-11-08T13:00:24Z</time>
      </trkpt>
      <trkpt lat="37.2054348048" lon="-2.0817615744">
        <ele>612.50</ele>
        <time>2018-11-08T13:00:35Z</time>
      </trkpt>
      <trkpt lat="37.2054328769" lon="-2.0817865524">
        <ele>613.46</ele>
        <time>2018-11-08T13:00:42Z</time>
      </trkpt>
      <trkpt lat="37.2054341342" lon="-2.0818018913">
        <ele>613.46</ele>
        <time>2018-11-08T13:00:43Z</time>
      </trkpt>
      <trkpt lat="37.2054349724" lon="-2.0818217564">
        <ele>613.94</ele>
        <time>2018-11-08T13:00:44Z</time>
      </trkpt>
      <trkpt lat="37.2054350562" lon="-2.0818398613">
        <ele>613.94</ele>
        <time>2018-11-08T13:00:45Z</time>
      </trkpt>
      <trkpt lat="37.2054361459" lon="-2.0818591397">
        <ele>614.42</ele>
        <time>2018-11-08T13:00:46Z</time>
      </trkpt>
      <trkpt lat="37.2054367326" lon="-2.0820690226">
        <ele>616.34</ele>
        <time>2018-11-08T13:00:55Z</time>
      </trkpt>
      <trkpt lat="37.2054250818" lon="-2.0823124330">
        <ele>617.78</ele>
        <time>2018-11-08T13:01:05Z</time>
      </trkpt>
      <trkpt lat="37.2054261714" lon="-2.0825240761">
        <ele>619.23</ele>
        <time>2018-11-08T13:01:14Z</time>
      </trkpt>
      <trkpt lat="37.2054492217" lon="-2.0827659778">
        <ele>621.15</ele>
        <time>2018-11-08T13:01:24Z</time>
      </trkpt>
      <trkpt lat="37.2055129241" lon="-2.0829191152">
        <ele>619.23</ele>
        <time>2018-11-08T13:01:32Z</time>
      </trkpt>
      <trkpt lat="37.2056056280" lon="-2.0831230469">
        <ele>619.23</ele>
        <time>2018-11-08T13:01:42Z</time>
      </trkpt>
      <trkpt lat="37.2056558356" lon="-2.0833667926">
        <ele>619.71</ele>
        <time>2018-11-08T13:01:53Z</time>
      </trkpt>
      <trkpt lat="37.2056538239" lon="-2.0835851412">
        <ele>620.19</ele>
        <time>2018-11-08T13:02:02Z</time>
      </trkpt>
      <trkpt lat="37.2056090645" lon="-2.0838014781">
        <ele>622.59</ele>
        <time>2018-11-08T13:02:13Z</time>
      </trkpt>
      <trkpt lat="37.2055652272" lon="-2.0840301365">
        <ele>623.55</ele>
        <time>2018-11-08T13:02:24Z</time>
      </trkpt>
      <trkpt lat="37.2055327054" lon="-2.0842498261">
        <ele>625.47</ele>
        <time>2018-11-08T13:02:34Z</time>
      </trkpt>
      <trkpt lat="37.2055762913" lon="-2.0844407659">
        <ele>625.47</ele>
        <time>2018-11-08T13:02:43Z</time>
      </trkpt>
      <trkpt lat="37.2056916263" lon="-2.0846331306">
        <ele>627.40</ele>
        <time>2018-11-08T13:02:53Z</time>
      </trkpt>
      <trkpt lat="37.2058259882" lon="-2.0847790595">
        <ele>628.36</ele>
        <time>2018-11-08T13:03:03Z</time>
      </trkpt>
      <trkpt lat="37.2059320193" lon="-2.0849082246">
        <ele>629.32</ele>
        <time>2018-11-08T13:03:12Z</time>
      </trkpt>
      <trkpt lat="37.2059769463" lon="-2.0849958993">
        <ele>630.76</ele>
        <time>2018-11-08T13:03:17Z</time>
      </trkpt>
      <trkpt lat="37.2059719171" lon="-2.0851699915">
        <ele>631.72</ele>
        <time>2018-11-08T13:03:25Z</time>
      </trkpt>
      <trkpt lat="37.2058849130" lon="-2.0852544811">
        <ele>632.20</ele>
        <time>2018-11-08T13:03:32Z</time>
      </trkpt>
      <trkpt lat="37.2057938855" lon="-2.0852605160">
        <ele>633.17</ele>
        <time>2018-11-08T13:03:39Z</time>
      </trkpt>
      <trkpt lat="37.2057799716" lon="-2.0852721669">
        <ele>633.17</ele>
        <time>2018-11-08T13:03:45Z</time>
      </trkpt>
      <trkpt lat="37.2057680693" lon="-2.0852775313">
        <ele>633.65</ele>
        <time>2018-11-08T13:03:46Z</time>
      </trkpt>
      <trkpt lat="37.2057546582" lon="-2.0852787886">
        <ele>633.65</ele>
        <time>2018-11-08T13:03:47Z</time>
      </trkpt>
      <trkpt lat="37.2057409119" lon="-2.0852720831">
        <ele>634.13</ele>
        <time>2018-11-08T13:03:48Z</time>
      </trkpt>
      <trkpt lat="37.2057264112" lon="-2.0852574147">
        <ele>633.17</ele>
        <time>2018-11-08T13:03:55Z</time>
      </trkpt>
      <trkpt lat="37.2057198733" lon="-2.0852601808">
        <ele>632.68</ele>
        <time>2018-11-08T13:04:10Z</time>
      </trkpt>
      <trkpt lat="37.2056691628" lon="-2.0852147508">
        <ele>633.17</ele>
        <time>2018-11-08T13:04:17Z</time>
      </trkpt>
      <trkpt lat="37.2055158578" lon="-2.0850518905">
        <ele>634.13</ele>
        <time>2018-11-08T13:04:32Z</time>
      </trkpt>
      <trkpt lat="37.2053855192" lon="-2.0849104039">
        <ele>636.05</ele>
        <time>2018-11-08T13:04:45Z</time>
      </trkpt>
      <trkpt lat="37.2052154504" lon="-2.0848156884">
        <ele>638.93</ele>
        <time>2018-11-08T13:04:59Z</time>
      </trkpt>
      <trkpt lat="37.2050768137" lon="-2.0848535746">
        <ele>640.86</ele>
        <time>2018-11-08T13:05:10Z</time>
      </trkpt>
      <trkpt lat="37.2049812600" lon="-2.0849839970">
        <ele>642.30</ele>
        <time>2018-11-08T13:05:21Z</time>
      </trkpt>
      <trkpt lat="37.2049777396" lon="-2.0851388946">
        <ele>642.78</ele>
        <time>2018-11-08T13:05:32Z</time>
      </trkpt>
      <trkpt lat="37.2050137818" lon="-2.0853631943">
        <ele>643.74</ele>
        <time>2018-11-08T13:05:46Z</time>
      </trkpt>
      <trkpt lat="37.2050252650" lon="-2.0854099654">
        <ele>643.26</ele>
        <time>2018-11-08T13:05:53Z</time>
      </trkpt>
      <trkpt lat="37.2050302941" lon="-2.0854094625">
        <ele>641.82</ele>
        <time>2018-11-08T13:06:11Z</time>
      </trkpt>
      <trkpt lat="37.2050292045" lon="-2.0854156651">
        <ele>640.86</ele>
        <time>2018-11-08T13:06:25Z</time>
      </trkpt>
      <trkpt lat="37.2050338984" lon="-2.0854153298">
        <ele>640.86</ele>
        <time>2018-11-08T13:06:40Z</time>
      </trkpt>
      <trkpt lat="37.2050444596" lon="-2.0854160003">
        <ele>640.38</ele>
        <time>2018-11-08T13:07:04Z</time>
      </trkpt>
      <trkpt lat="37.2050385922" lon="-2.0854980592">
        <ele>641.34</ele>
        <time>2018-11-08T13:07:13Z</time>
      </trkpt>
      <trkpt lat="37.2050173860" lon="-2.0857025776">
        <ele>642.78</ele>
        <time>2018-11-08T13:07:25Z</time>
      </trkpt>
      <trkpt lat="37.2049685195" lon="-2.0859506819">
        <ele>645.66</ele>
        <time>2018-11-08T13:07:40Z</time>
      </trkpt>
      <trkpt lat="37.2049323935" lon="-2.0861208346">
        <ele>647.10</ele>
        <time>2018-11-08T13:07:50Z</time>
      </trkpt>
      <trkpt lat="37.2048904002" lon="-2.0863445476">
        <ele>648.55</ele>
        <time>2018-11-08T13:08:03Z</time>
      </trkpt>
      <trkpt lat="37.2048876341" lon="-2.0863843616">
        <ele>648.55</ele>
        <time>2018-11-08T13:08:11Z</time>
      </trkpt>
      <trkpt lat="37.2048964351" lon="-2.0863831881">
        <ele>648.07</ele>
        <time>2018-11-08T13:08:29Z</time>
      </trkpt>
      <trkpt lat="37.2048897296" lon="-2.0863891393">
        <ele>647.59</ele>
        <time>2018-11-08T13:08:58Z</time>
      </trkpt>
      <trkpt lat="37.2048773244" lon="-2.0863797516">
        <ele>647.59</ele>
        <time>2018-11-08T13:09:21Z</time>
      </trkpt>
      <trkpt lat="37.2048741393" lon="-2.0864296239">
        <ele>648.07</ele>
        <time>2018-11-08T13:09:30Z</time>
      </trkpt>
      <trkpt lat="37.2048340738" lon="-2.0866367407">
        <ele>649.03</ele>
        <time>2018-11-08T13:09:42Z</time>
      </trkpt>
      <trkpt lat="37.2047860455" lon="-2.0868942328">
        <ele>650.47</ele>
        <time>2018-11-08T13:09:57Z</time>
      </trkpt>
      <trkpt lat="37.2047298029" lon="-2.0870970748">
        <ele>652.87</ele>
        <time>2018-11-08T13:10:09Z</time>
      </trkpt>
      <trkpt lat="37.2046450619" lon="-2.0873656310">
        <ele>654.31</ele>
        <time>2018-11-08T13:10:25Z</time>
      </trkpt>
      <trkpt lat="37.2045836225" lon="-2.0875306707">
        <ele>655.76</ele>
        <time>2018-11-08T13:10:36Z</time>
      </trkpt>
      <trkpt lat="37.2045827843" lon="-2.0875283238">
        <ele>656.24</ele>
        <time>2018-11-08T13:10:46Z</time>
      </trkpt>
      <trkpt lat="37.2045672778" lon="-2.0875720773">
        <ele>655.76</ele>
        <time>2018-11-08T13:10:59Z</time>
      </trkpt>
      <trkpt lat="37.2044986300" lon="-2.0877482649">
        <ele>657.20</ele>
        <time>2018-11-08T13:11:10Z</time>
      </trkpt>
      <trkpt lat="37.2043941077" lon="-2.0879932679">
        <ele>659.60</ele>
        <time>2018-11-08T13:11:25Z</time>
      </trkpt>
      <trkpt lat="37.2043225262" lon="-2.0881458186">
        <ele>661.04</ele>
        <time>2018-11-08T13:11:35Z</time>
      </trkpt>
      <trkpt lat="37.2042157408" lon="-2.0883142948">
        <ele>662.49</ele>
        <time>2018-11-08T13:11:48Z</time>
      </trkpt>
      <trkpt lat="37.2040961310" lon="-2.0884625707">
        <ele>664.41</ele>
        <time>2018-11-08T13:12:00Z</time>
      </trkpt>
      <trkpt lat="37.2039350308" lon="-2.0885787439">
        <ele>666.81</ele>
        <time>2018-11-08T13:12:13Z</time>
      </trkpt>
      <trkpt lat="37.2037687339" lon="-2.0886145346">
        <ele>667.77</ele>
        <time>2018-11-08T13:12:25Z</time>
      </trkpt>
      <trkpt lat="37.2035679873" lon="-2.0885126106">
        <ele>669.70</ele>
        <time>2018-11-08T13:12:40Z</time>
      </trkpt>
      <trkpt lat="37.2033969127" lon="-2.0883843675">
        <ele>671.62</ele>
        <time>2018-11-08T13:12:54Z</time>
      </trkpt>
      <trkpt lat="37.2033819929" lon="-2.0883750636">
        <ele>672.10</ele>
        <time>2018-11-08T13:13:01Z</time>
      </trkpt>
      <trkpt lat="37.2033729404" lon="-2.0883779973">
        <ele>670.66</ele>
        <time>2018-11-08T13:13:16Z</time>
      </trkpt>
      <trkpt lat="37.2033206373" lon="-2.0883477386">
        <ele>670.66</ele>
        <time>2018-11-08T13:13:24Z</time>
      </trkpt>
      <trkpt lat="37.2031462099" lon="-2.0882667694">
        <ele>672.58</ele>
        <time>2018-11-08T13:13:38Z</time>
      </trkpt>
      <trkpt lat="37.2029566113" lon="-2.0882607345">
        <ele>674.98</ele>
        <time>2018-11-08T13:13:51Z</time>
      </trkpt>
      <trkpt lat="37.2027947567" lon="-2.0882940944">
        <ele>676.42</ele>
        <time>2018-11-08T13:14:03Z</time>
      </trkpt>
      <trkpt lat="37.2027511708" lon="-2.0883000456">
        <ele>677.87</ele>
        <time>2018-11-08T13:14:10Z</time>
      </trkpt>
      <trkpt lat="37.2025489993" lon="-2.0883618202">
        <ele>678.83</ele>
        <time>2018-11-08T13:14:25Z</time>
      </trkpt>
      <trkpt lat="37.2024765797" lon="-2.0884656720">
        <ele>679.79</ele>
        <time>2018-11-08T13:14:35Z</time>
      </trkpt>
      <trkpt lat="37.2024602350" lon="-2.0885460544">
        <ele>680.27</ele>
        <time>2018-11-08T13:14:43Z</time>
      </trkpt>
      <trkpt lat="37.2024742328" lon="-2.0887080766">
        <ele>681.23</ele>
        <time>2018-11-08T13:14:54Z</time>
      </trkpt>
      <trkpt lat="37.2024825308" lon="-2.0887770597">
        <ele>682.19</ele>
        <time>2018-11-08T13:15:02Z</time>
      </trkpt>
      <trkpt lat="37.2025389411" lon="-2.0889617968">
        <ele>683.63</ele>
        <time>2018-11-08T13:15:15Z</time>
      </trkpt>
      <trkpt lat="37.2026079241" lon="-2.0890674926">
        <ele>684.60</ele>
        <time>2018-11-08T13:15:26Z</time>
      </trkpt>
      <trkpt lat="37.2027120274" lon="-2.0891711768">
        <ele>685.56</ele>
        <time>2018-11-08T13:15:37Z</time>
      </trkpt>
      <trkpt lat="37.2028552741" lon="-2.0892812312">
        <ele>687.00</ele>
        <time>2018-11-08T13:15:49Z</time>
      </trkpt>
      <trkpt lat="37.2029812541" lon="-2.0893820655">
        <ele>688.92</ele>
        <time>2018-11-08T13:16:03Z</time>
      </trkpt>
      <trkpt lat="37.2030815855" lon="-2.0894478634">
        <ele>689.88</ele>
        <time>2018-11-08T13:16:13Z</time>
      </trkpt>
      <trkpt lat="37.2031190526" lon="-2.0894496236">
        <ele>688.92</ele>
        <time>2018-11-08T13:16:21Z</time>
      </trkpt>
      <trkpt lat="37.2031126823" lon="-2.0894477796">
        <ele>688.92</ele>
        <time>2018-11-08T13:16:43Z</time>
      </trkpt>
      <trkpt lat="37.2031020373" lon="-2.0894495398">
        <ele>691.81</ele>
        <time>2018-11-08T13:17:19Z</time>
      </trkpt>
      <trkpt lat="37.2031168733" lon="-2.0894399844">
        <ele>688.92</ele>
        <time>2018-11-08T13:17:42Z</time>
      </trkpt>
      <trkpt lat="37.2031125147" lon="-2.0894569159">
        <ele>689.40</ele>
        <time>2018-11-08T13:18:07Z</time>
      </trkpt>
      <trkpt lat="37.2031109221" lon="-2.0894534793">
        <ele>689.40</ele>
        <time>2018-11-08T13:18:26Z</time>
      </trkpt>
      <trkpt lat="37.2031117603" lon="-2.0894569997">
        <ele>689.88</ele>
        <time>2018-11-08T13:18:43Z</time>
      </trkpt>
      <trkpt lat="37.2030982655" lon="-2.0894528087">
        <ele>688.92</ele>
        <time>2018-11-08T13:18:58Z</time>
      </trkpt>
      <trkpt lat="37.2031055577" lon="-2.0894688182">
        <ele>691.33</ele>
        <time>2018-11-08T13:19:14Z</time>
      </trkpt>
      <trkpt lat="37.2030937392" lon="-2.0894518867">
        <ele>691.33</ele>
        <time>2018-11-08T13:19:30Z</time>
      </trkpt>
      <trkpt lat="37.2031018697" lon="-2.0894595981">
        <ele>690.36</ele>
        <time>2018-11-08T13:19:45Z</time>
      </trkpt>
      <trkpt lat="37.2031140234" lon="-2.0894617774">
        <ele>689.88</ele>
        <time>2018-11-08T13:20:00Z</time>
      </trkpt>
      <trkpt lat="37.2031112574" lon="-2.0894679800">
        <ele>690.84</ele>
        <time>2018-11-08T13:20:13Z</time>
      </trkpt>
      <trkpt lat="37.2030850220" lon="-2.0894383080">
        <ele>692.29</ele>
        <time>2018-11-08T13:20:29Z</time>
      </trkpt>
      <trkpt lat="37.2030929010" lon="-2.0894502103">
        <ele>692.29</ele>
        <time>2018-11-08T13:20:47Z</time>
      </trkpt>
      <trkpt lat="37.2031192202" lon="-2.0894547366">
        <ele>690.36</ele>
        <time>2018-11-08T13:21:03Z</time>
      </trkpt>
      <trkpt lat="37.2031150293" lon="-2.0894370507">
        <ele>688.92</ele>
        <time>2018-11-08T13:21:20Z</time>
      </trkpt>
      <trkpt lat="37.2031146102" lon="-2.0894412417">
        <ele>687.48</ele>
        <time>2018-11-08T13:21:33Z</time>
      </trkpt>
      <trkpt lat="37.2031377442" lon="-2.0894279983">
        <ele>685.08</ele>
        <time>2018-11-08T13:21:57Z</time>
      </trkpt>
      <trkpt lat="37.2031239979" lon="-2.0894349553">
        <ele>687.48</ele>
        <time>2018-11-08T13:22:11Z</time>
      </trkpt>
      <trkpt lat="37.2031323798" lon="-2.0894600172">
        <ele>688.44</ele>
        <time>2018-11-08T13:22:34Z</time>
      </trkpt>
      <trkpt lat="37.2031064797" lon="-2.0894554071">
        <ele>689.88</ele>
        <time>2018-11-08T13:22:59Z</time>
      </trkpt>
      <trkpt lat="37.2031208966" lon="-2.0894699078">
        <ele>688.92</ele>
        <time>2018-11-08T13:23:12Z</time>
      </trkpt>
      <trkpt lat="37.2031304520" lon="-2.0894854143">
        <ele>688.44</ele>
        <time>2018-11-08T13:23:14Z</time>
      </trkpt>
      <trkpt lat="37.2031954117" lon="-2.0895930380">
        <ele>689.40</ele>
        <time>2018-11-08T13:23:24Z</time>
      </trkpt>
      <trkpt lat="37.2032093257" lon="-2.0897776913">
        <ele>689.88</ele>
        <time>2018-11-08T13:23:36Z</time>
      </trkpt>
      <trkpt lat="37.2031322122" lon="-2.0899163280">
        <ele>690.84</ele>
        <time>2018-11-08T13:23:46Z</time>
      </trkpt>
      <trkpt lat="37.2029917315" lon="-2.0899639372">
        <ele>691.81</ele>
        <time>2018-11-08T13:23:56Z</time>
      </trkpt>
      <trkpt lat="37.2027964331" lon="-2.0899944473">
        <ele>693.73</ele>
        <time>2018-11-08T13:24:10Z</time>
      </trkpt>
      <trkpt lat="37.2026039846" lon="-2.0900107082">
        <ele>695.65</ele>
        <time>2018-11-08T13:24:24Z</time>
      </trkpt>
      <trkpt lat="37.2024219297" lon="-2.0900089480">
        <ele>698.05</ele>
        <time>2018-11-08T13:24:37Z</time>
      </trkpt>
      <trkpt lat="37.2022584826" lon="-2.0899766777">
        <ele>699.02</ele>
        <time>2018-11-08T13:24:49Z</time>
      </trkpt>
      <trkpt lat="37.2020834684" lon="-2.0899303257">
        <ele>700.46</ele>
        <time>2018-11-08T13:25:02Z</time>
      </trkpt>
      <trkpt lat="37.2018977255" lon="-2.0899427310">
        <ele>701.42</ele>
        <time>2018-11-08T13:25:16Z</time>
      </trkpt>
      <trkpt lat="37.2018542234" lon="-2.0899769291">
        <ele>701.42</ele>
        <time>2018-11-08T13:25:20Z</time>
      </trkpt>
      <trkpt lat="37.2017665487" lon="-2.0902021509">
        <ele>703.82</ele>
        <time>2018-11-08T13:25:35Z</time>
      </trkpt>
      <trkpt lat="37.2017212026" lon="-2.0904190745">
        <ele>705.26</ele>
        <time>2018-11-08T13:25:48Z</time>
      </trkpt>
      <trkpt lat="37.2017248906" lon="-2.0904768258">
        <ele>703.82</ele>
        <time>2018-11-08T13:25:55Z</time>
      </trkpt>
      <trkpt lat="37.2017187718" lon="-2.0904726349">
        <ele>701.90</ele>
        <time>2018-11-08T13:26:05Z</time>
      </trkpt>
      <trkpt lat="37.2017113119" lon="-2.0904730540">
        <ele>699.98</ele>
        <time>2018-11-08T13:26:27Z</time>
      </trkpt>
      <trkpt lat="37.2017133236" lon="-2.0904960204">
        <ele>699.98</ele>
        <time>2018-11-08T13:26:58Z</time>
      </trkpt>
      <trkpt lat="37.2017239686" lon="-2.0904655941">
        <ele>699.98</ele>
        <time>2018-11-08T13:27:26Z</time>
      </trkpt>
      <trkpt lat="37.2017205320" lon="-2.0904886443">
        <ele>701.90</ele>
        <time>2018-11-08T13:27:44Z</time>
      </trkpt>
      <trkpt lat="37.2017189395" lon="-2.0905037317">
        <ele>702.38</ele>
        <time>2018-11-08T13:28:14Z</time>
      </trkpt>
      <trkpt lat="37.2017157543" lon="-2.0904888958">
        <ele>702.38</ele>
        <time>2018-11-08T13:28:25Z</time>
      </trkpt>
      <trkpt lat="37.2017276566" lon="-2.0904821903">
        <ele>700.94</ele>
        <time>2018-11-08T13:28:39Z</time>
      </trkpt>
      <trkpt lat="37.2017310094" lon="-2.0904795080">
        <ele>700.46</ele>
        <time>2018-11-08T13:28:57Z</time>
      </trkpt>
      <trkpt lat="37.2017364576" lon="-2.0904728863">
        <ele>699.50</ele>
        <time>2018-11-08T13:29:18Z</time>
      </trkpt>
      <trkpt lat="37.2017351165" lon="-2.0904636662">
        <ele>698.53</ele>
        <time>2018-11-08T13:29:33Z</time>
      </trkpt>
      <trkpt lat="37.2017219570" lon="-2.0904816035">
        <ele>699.02</ele>
        <time>2018-11-08T13:29:47Z</time>
      </trkpt>
      <trkpt lat="37.2017120663" lon="-2.0904844534">
        <ele>699.50</ele>
        <time>2018-11-08T13:29:54Z</time>
      </trkpt>
      <trkpt lat="37.2016822267" lon="-2.0906002913">
        <ele>700.94</ele>
        <time>2018-11-08T13:30:01Z</time>
      </trkpt>
      <trkpt lat="37.2016718332" lon="-2.0906290412">
        <ele>701.42</ele>
        <time>2018-11-08T13:30:02Z</time>
      </trkpt>
      <trkpt lat="37.2015804704" lon="-2.0908944122">
        <ele>700.94</ele>
        <time>2018-11-08T13:30:11Z</time>
      </trkpt>
      <trkpt lat="37.2015099786" lon="-2.0912254136">
        <ele>698.53</ele>
        <time>2018-11-08T13:30:17Z</time>
      </trkpt>
      <trkpt lat="37.2014840785" lon="-2.0915474463">
        <ele>696.61</ele>
        <time>2018-11-08T13:30:21Z</time>
      </trkpt>
      <trkpt lat="37.2014679853" lon="-2.0916211233">
        <ele>696.61</ele>
        <time>2018-11-08T13:30:22Z</time>
      </trkpt>
      <trkpt lat="37.2014378943" lon="-2.0916905254">
        <ele>696.13</ele>
        <time>2018-11-08T13:30:23Z</time>
      </trkpt>
      <trkpt lat="37.2013962362" lon="-2.0917507075">
        <ele>696.13</ele>
        <time>2018-11-08T13:30:24Z</time>
      </trkpt>
      <trkpt lat="37.2013422567" lon="-2.0917964727">
        <ele>695.65</ele>
        <time>2018-11-08T13:30:25Z</time>
      </trkpt>
      <trkpt lat="37.2012760397" lon="-2.0918309223">
        <ele>695.65</ele>
        <time>2018-11-08T13:30:26Z</time>
      </trkpt>
      <trkpt lat="37.2012096550" lon="-2.0918538887">
        <ele>695.17</ele>
        <time>2018-11-08T13:30:27Z</time>
      </trkpt>
      <trkpt lat="37.2011440247" lon="-2.0918684732">
        <ele>694.69</ele>
        <time>2018-11-08T13:30:28Z</time>
      </trkpt>
      <trkpt lat="37.2010813281" lon="-2.0918800402">
        <ele>694.21</ele>
        <time>2018-11-08T13:30:29Z</time>
      </trkpt>
      <trkpt lat="37.2009440325" lon="-2.0919096284">
        <ele>693.25</ele>
        <time>2018-11-08T13:30:33Z</time>
      </trkpt>
      <trkpt lat="37.2008967586" lon="-2.0919313375">
        <ele>692.29</ele>
        <time>2018-11-08T13:30:40Z</time>
      </trkpt>
      <trkpt lat="37.2008831799" lon="-2.0919366181">
        <ele>693.73</ele>
        <time>2018-11-08T13:30:59Z</time>
      </trkpt>
      <trkpt lat="37.2007116023" lon="-2.0919802878">
        <ele>692.77</ele>
        <time>2018-11-08T13:31:05Z</time>
      </trkpt>
      <trkpt lat="37.2004646715" lon="-2.0921610016">
        <ele>690.84</ele>
        <time>2018-11-08T13:31:10Z</time>
      </trkpt>
      <trkpt lat="37.2000650223" lon="-2.0925069228">
        <ele>686.52</ele>
        <time>2018-11-08T13:31:16Z</time>
      </trkpt>
      <trkpt lat="37.1999862324" lon="-2.0925796777">
        <ele>685.56</ele>
        <time>2018-11-08T13:31:17Z</time>
      </trkpt>
      <trkpt lat="37.1999147348" lon="-2.0926629100">
        <ele>685.08</ele>
        <time>2018-11-08T13:31:18Z</time>
      </trkpt>
      <trkpt lat="37.1998473443" lon="-2.0927580446">
        <ele>684.12</ele>
        <time>2018-11-08T13:31:19Z</time>
      </trkpt>
      <trkpt lat="37.1995627787" lon="-2.0932829194">
        <ele>680.27</ele>
        <time>2018-11-08T13:31:24Z</time>
      </trkpt>
      <trkpt lat="37.1995305084" lon="-2.0933912136">
        <ele>679.79</ele>
        <time>2018-11-08T13:31:25Z</time>
      </trkpt>
      <trkpt lat="37.1995155048" lon="-2.0935031958">
        <ele>678.83</ele>
        <time>2018-11-08T13:31:26Z</time>
      </trkpt>
      <trkpt lat="37.1995135769" lon="-2.0936334506">
        <ele>677.87</ele>
        <time>2018-11-08T13:31:27Z</time>
      </trkpt>
      <trkpt lat="37.1995143313" lon="-2.0937564131">
        <ele>677.39</ele>
        <time>2018-11-08T13:31:28Z</time>
      </trkpt>
      <trkpt lat="37.1994154248" lon="-2.0945220161">
        <ele>673.06</ele>
        <time>2018-11-08T13:31:34Z</time>
      </trkpt>
      <trkpt lat="37.1993456036" lon="-2.0947437175">
        <ele>671.62</ele>
        <time>2018-11-08T13:31:36Z</time>
      </trkpt>
      <trkpt lat="37.1992939711" lon="-2.0948383491">
        <ele>670.66</ele>
        <time>2018-11-08T13:31:37Z</time>
      </trkpt>
      <trkpt lat="37.1992249042" lon="-2.0949289575">
        <ele>670.18</ele>
        <time>2018-11-08T13:31:38Z</time>
      </trkpt>
      <trkpt lat="37.1991547477" lon="-2.0949993655">
        <ele>669.70</ele>
        <time>2018-11-08T13:31:39Z</time>
      </trkpt>
      <trkpt lat="37.1990660671" lon="-2.0950714499">
        <ele>669.22</ele>
        <time>2018-11-08T13:31:40Z</time>
      </trkpt>
      <trkpt lat="37.1989784762" lon="-2.0951296203">
        <ele>668.73</ele>
        <time>2018-11-08T13:31:41Z</time>
      </trkpt>
      <trkpt lat="37.1988829225" lon="-2.0951737929">
        <ele>668.25</ele>
        <time>2018-11-08T13:31:42Z</time>
      </trkpt>
      <trkpt lat="37.1987965889" lon="-2.0951970946">
        <ele>667.77</ele>
        <time>2018-11-08T13:31:43Z</time>
      </trkpt>
      <trkpt lat="37.1986934077" lon="-2.0952024590">
        <ele>667.29</ele>
        <time>2018-11-08T13:31:44Z</time>
      </trkpt>
      <trkpt lat="37.1986015420" lon="-2.0951898862">
        <ele>666.81</ele>
        <time>2018-11-08T13:31:45Z</time>
      </trkpt>
      <trkpt lat="37.1984979417" lon="-2.0951642375">
        <ele>666.33</ele>
        <time>2018-11-08T13:31:46Z</time>
      </trkpt>
      <trkpt lat="37.1984116081" lon="-2.0951451268">
        <ele>665.85</ele>
        <time>2018-11-08T13:31:47Z</time>
      </trkpt>
      <trkpt lat="37.1983091813" lon="-2.0951332245">
        <ele>665.37</ele>
        <time>2018-11-08T13:31:48Z</time>
      </trkpt>
      <trkpt lat="37.1982122026" lon="-2.0951364096">
        <ele>664.89</ele>
        <time>2018-11-08T13:31:49Z</time>
      </trkpt>
      <trkpt lat="37.1974462643" lon="-2.0951972622">
        <ele>660.08</ele>
        <time>2018-11-08T13:31:57Z</time>
      </trkpt>
      <trkpt lat="37.1973625291" lon="-2.0952371601">
        <ele>659.60</ele>
        <time>2018-11-08T13:31:58Z</time>
      </trkpt>
      <trkpt lat="37.1972698253" lon="-2.0953049697">
        <ele>659.12</ele>
        <time>2018-11-08T13:31:59Z</time>
      </trkpt>
      <trkpt lat="37.1966464631" lon="-2.0958269108">
        <ele>653.83</ele>
        <time>2018-11-08T13:32:06Z</time>
      </trkpt>
      <trkpt lat="37.1957052592" lon="-2.0964871533">
        <ele>644.22</ele>
        <time>2018-11-08T13:32:15Z</time>
      </trkpt>
      <trkpt lat="37.1953850705" lon="-2.0967414603">
        <ele>642.30</ele>
        <time>2018-11-08T13:32:18Z</time>
      </trkpt>
      <trkpt lat="37.1953088790" lon="-2.0968257822">
        <ele>641.82</ele>
        <time>2018-11-08T13:32:19Z</time>
      </trkpt>
      <trkpt lat="37.1949775424" lon="-2.0973089989">
        <ele>641.34</ele>
        <time>2018-11-08T13:32:24Z</time>
      </trkpt>
      <trkpt lat="37.1947605349" lon="-2.0976901241">
        <ele>638.93</ele>
        <time>2018-11-08T13:32:28Z</time>
      </trkpt>
      <trkpt lat="37.1946887858" lon="-2.0977720153">
        <ele>638.45</ele>
        <time>2018-11-08T13:32:29Z</time>
      </trkpt>
      <trkpt lat="37.1946020331" lon="-2.0978473686">
        <ele>637.49</ele>
        <time>2018-11-08T13:32:30Z</time>
      </trkpt>
      <trkpt lat="37.1945189685" lon="-2.0979007613">
        <ele>637.01</ele>
        <time>2018-11-08T13:32:31Z</time>
      </trkpt>
      <trkpt lat="37.1944240015" lon="-2.0979459397">
        <ele>636.05</ele>
        <time>2018-11-08T13:32:32Z</time>
      </trkpt>
      <trkpt lat="37.1943256818" lon="-2.0979795512">
        <ele>635.09</ele>
        <time>2018-11-08T13:32:33Z</time>
      </trkpt>
      <trkpt lat="37.1942257695" lon="-2.0980074629">
        <ele>634.61</ele>
        <time>2018-11-08T13:32:34Z</time>
      </trkpt>
      <trkpt lat="37.1934729069" lon="-2.0982615184">
        <ele>625.96</ele>
        <time>2018-11-08T13:32:41Z</time>
      </trkpt>
      <trkpt lat="37.1925886162" lon="-2.0986475889">
        <ele>619.23</ele>
        <time>2018-11-08T13:32:49Z</time>
      </trkpt>
      <trkpt lat="37.1918028966" lon="-2.0989601500">
        <ele>616.34</ele>
        <time>2018-11-08T13:32:57Z</time>
      </trkpt>
      <trkpt lat="37.1912393812" lon="-2.0992345735">
        <ele>614.42</ele>
        <time>2018-11-08T13:33:04Z</time>
      </trkpt>
      <trkpt lat="37.1911586635" lon="-2.0992616471">
        <ele>613.94</ele>
        <time>2018-11-08T13:33:05Z</time>
      </trkpt>
      <trkpt lat="37.1910799574" lon="-2.0992651675">
        <ele>613.94</ele>
        <time>2018-11-08T13:33:06Z</time>
      </trkpt>
      <trkpt lat="37.1909969766" lon="-2.0992491581">
        <ele>613.46</ele>
        <time>2018-11-08T13:33:07Z</time>
      </trkpt>
      <trkpt lat="37.1909110621" lon="-2.0992106013">
        <ele>612.98</ele>
        <time>2018-11-08T13:33:08Z</time>
      </trkpt>
      <trkpt lat="37.1908540651" lon="-2.0991757326">
        <ele>612.98</ele>
        <time>2018-11-08T13:33:09Z</time>
      </trkpt>
      <trkpt lat="37.1907866746" lon="-2.0991334878">
        <ele>612.50</ele>
        <time>2018-11-08T13:33:10Z</time>
      </trkpt>
      <trkpt lat="37.1905017737" lon="-2.0989801828">
        <ele>610.57</ele>
        <time>2018-11-08T13:33:14Z</time>
      </trkpt>
      <trkpt lat="37.1904182062" lon="-2.0989604853">
        <ele>610.09</ele>
        <time>2018-11-08T13:33:15Z</time>
      </trkpt>
      <trkpt lat="37.1903338004" lon="-2.0989534445">
        <ele>609.13</ele>
        <time>2018-11-08T13:33:16Z</time>
      </trkpt>
      <trkpt lat="37.1902461257" lon="-2.0989570487">
        <ele>608.65</ele>
        <time>2018-11-08T13:33:17Z</time>
      </trkpt>
      <trkpt lat="37.1901534218" lon="-2.0989715494">
        <ele>608.17</ele>
        <time>2018-11-08T13:33:18Z</time>
      </trkpt>
      <trkpt lat="37.1900636517" lon="-2.0989919174">
        <ele>607.69</ele>
        <time>2018-11-08T13:33:19Z</time>
      </trkpt>
      <trkpt lat="37.1894456539" lon="-2.0992162172">
        <ele>605.29</ele>
        <time>2018-11-08T13:33:26Z</time>
      </trkpt>
      <trkpt lat="37.1888666321" lon="-2.0995818358">
        <ele>603.36</ele>
        <time>2018-11-08T13:33:34Z</time>
      </trkpt>
      <trkpt lat="37.1884604450" lon="-2.0999158546">
        <ele>602.40</ele>
        <time>2018-11-08T13:33:41Z</time>
      </trkpt>
      <trkpt lat="37.1881395020" lon="-2.1001647972">
        <ele>602.88</ele>
        <time>2018-11-08T13:33:48Z</time>
      </trkpt>
      <trkpt lat="37.1876728814" lon="-2.1004246362">
        <ele>602.40</ele>
        <time>2018-11-08T13:33:58Z</time>
      </trkpt>
      <trkpt lat="37.1870972961" lon="-2.1006892528">
        <ele>600.96</ele>
        <time>2018-11-08T13:34:09Z</time>
      </trkpt>
      <trkpt lat="37.1867052745" lon="-2.1008828748">
        <ele>601.44</ele>
        <time>2018-11-08T13:34:17Z</time>
      </trkpt>
      <trkpt lat="37.1862492152" lon="-2.1011099406">
        <ele>601.44</ele>
        <time>2018-11-08T13:34:27Z</time>
      </trkpt>
      <trkpt lat="37.1862016059" lon="-2.1011240222">
        <ele>601.44</ele>
        <time>2018-11-08T13:34:28Z</time>
      </trkpt>
      <trkpt lat="37.1860384103" lon="-2.1011537779">
        <ele>600.48</ele>
        <time>2018-11-08T13:34:31Z</time>
      </trkpt>
      <trkpt lat="37.1856313851" lon="-2.1011222620">
        <ele>598.08</ele>
        <time>2018-11-08T13:34:37Z</time>
      </trkpt>
      <trkpt lat="37.1854812652" lon="-2.1011375170">
        <ele>597.60</ele>
        <time>2018-11-08T13:34:39Z</time>
      </trkpt>
      <trkpt lat="37.1854122821" lon="-2.1011633333">
        <ele>597.60</ele>
        <time>2018-11-08T13:34:40Z</time>
      </trkpt>
      <trkpt lat="37.1853425447" lon="-2.1012038179">
        <ele>597.60</ele>
        <time>2018-11-08T13:34:41Z</time>
      </trkpt>
      <trkpt lat="37.1852843743" lon="-2.1012522653">
        <ele>597.60</ele>
        <time>2018-11-08T13:34:42Z</time>
      </trkpt>
      <trkpt lat="37.1852329094" lon="-2.1013037302">
        <ele>597.60</ele>
        <time>2018-11-08T13:34:43Z</time>
      </trkpt>
      <trkpt lat="37.1849797759" lon="-2.1015816741">
        <ele>598.56</ele>
        <time>2018-11-08T13:34:49Z</time>
      </trkpt>
      <trkpt lat="37.1845485270" lon="-2.1019381564">
        <ele>598.08</ele>
        <time>2018-11-08T13:34:59Z</time>
      </trkpt>
      <trkpt lat="37.1840229817" lon="-2.1022923756">
        <ele>595.19</ele>
        <time>2018-11-08T13:35:10Z</time>
      </trkpt>
      <trkpt lat="37.1837095823" lon="-2.1026095469">
        <ele>592.79</ele>
        <time>2018-11-08T13:35:16Z</time>
      </trkpt>
      <trkpt lat="37.1836495679" lon="-2.1026592515">
        <ele>592.31</ele>
        <time>2018-11-08T13:35:17Z</time>
      </trkpt>
      <trkpt lat="37.1835820097" lon="-2.1027082019">
        <ele>591.35</ele>
        <time>2018-11-08T13:35:18Z</time>
      </trkpt>
      <trkpt lat="37.1830968652" lon="-2.1029635984">
        <ele>587.50</ele>
        <time>2018-11-08T13:35:24Z</time>
      </trkpt>
      <trkpt lat="37.1823929530" lon="-2.1032686159">
        <ele>583.66</ele>
        <time>2018-11-08T13:35:32Z</time>
      </trkpt>
      <trkpt lat="37.1815988515" lon="-2.1036048140">
        <ele>581.25</ele>
        <time>2018-11-08T13:35:42Z</time>
      </trkpt>
      <trkpt lat="37.1808161493" lon="-2.1039277688">
        <ele>578.85</ele>
        <time>2018-11-08T13:35:53Z</time>
      </trkpt>
      <trkpt lat="37.1802783664" lon="-2.1042714268">
        <ele>576.45</ele>
        <time>2018-11-08T13:36:01Z</time>
      </trkpt>
      <trkpt lat="37.1795783099" lon="-2.1048589144">
        <ele>572.60</ele>
        <time>2018-11-08T13:36:11Z</time>
      </trkpt>
      <trkpt lat="37.1788558736" lon="-2.1052706335">
        <ele>571.16</ele>
        <time>2018-11-08T13:36:21Z</time>
      </trkpt>
      <trkpt lat="37.1782205254" lon="-2.1055014711">
        <ele>571.16</ele>
        <time>2018-11-08T13:36:30Z</time>
      </trkpt>
      <trkpt lat="37.1775687486" lon="-2.1055999584">
        <ele>569.24</ele>
        <time>2018-11-08T13:36:39Z</time>
      </trkpt>
      <trkpt lat="37.1770767309" lon="-2.1057240944">
        <ele>567.32</ele>
        <time>2018-11-08T13:36:45Z</time>
      </trkpt>
      <trkpt lat="37.1769387648" lon="-2.1058043931">
        <ele>567.80</ele>
        <time>2018-11-08T13:36:47Z</time>
      </trkpt>
      <trkpt lat="37.1767147165" lon="-2.1059628110">
        <ele>569.72</ele>
        <time>2018-11-08T13:36:52Z</time>
      </trkpt>
      <trkpt lat="37.1764769219" lon="-2.1061722748">
        <ele>570.20</ele>
        <time>2018-11-08T13:37:00Z</time>
      </trkpt>
      <trkpt lat="37.1763060987" lon="-2.1064186189">
        <ele>571.64</ele>
        <time>2018-11-08T13:37:07Z</time>
      </trkpt>
      <trkpt lat="37.1762668714" lon="-2.1065920405">
        <ele>573.08</ele>
        <time>2018-11-08T13:37:13Z</time>
      </trkpt>
      <trkpt lat="37.1762687154" lon="-2.1068909392">
        <ele>574.53</ele>
        <time>2018-11-08T13:37:21Z</time>
      </trkpt>
      <trkpt lat="37.1762579028" lon="-2.1071563102">
        <ele>575.49</ele>
        <time>2018-11-08T13:37:29Z</time>
      </trkpt>
      <trkpt lat="37.1761231218" lon="-2.1073936019">
        <ele>576.45</ele>
        <time>2018-11-08T13:37:37Z</time>
      </trkpt>
      <trkpt lat="37.1759453416" lon="-2.1075268742">
        <ele>575.97</ele>
        <time>2018-11-08T13:37:44Z</time>
      </trkpt>
      <trkpt lat="37.1756659728" lon="-2.1076810174">
        <ele>576.93</ele>
        <time>2018-11-08T13:37:55Z</time>
      </trkpt>
      <trkpt lat="37.1754192095" lon="-2.1077976096">
        <ele>575.97</ele>
        <time>2018-11-08T13:38:02Z</time>
      </trkpt>
      <trkpt lat="37.1749230847" lon="-2.1079778206">
        <ele>575.01</ele>
        <time>2018-11-08T13:38:11Z</time>
      </trkpt>
      <trkpt lat="37.1743137203" lon="-2.1082006115">
        <ele>573.08</ele>
        <time>2018-11-08T13:38:22Z</time>
      </trkpt>
      <trkpt lat="37.1738679707" lon="-2.1083498932">
        <ele>572.60</ele>
        <time>2018-11-08T13:38:31Z</time>
      </trkpt>
      <trkpt lat="37.1732940618" lon="-2.1085261647">
        <ele>572.60</ele>
        <time>2018-11-08T13:38:42Z</time>
      </trkpt>
      <trkpt lat="37.1726051532" lon="-2.1087346226">
        <ele>572.60</ele>
        <time>2018-11-08T13:38:55Z</time>
      </trkpt>
      <trkpt lat="37.1719683800" lon="-2.1089568269">
        <ele>571.16</ele>
        <time>2018-11-08T13:39:07Z</time>
      </trkpt>
      <trkpt lat="37.1712518949" lon="-2.1091777738">
        <ele>568.76</ele>
        <time>2018-11-08T13:39:19Z</time>
      </trkpt>
      <trkpt lat="37.1707633976" lon="-2.1091724932">
        <ele>567.80</ele>
        <time>2018-11-08T13:39:27Z</time>
      </trkpt>
      <trkpt lat="37.1706300415" lon="-2.1091860719">
        <ele>566.83</ele>
        <time>2018-11-08T13:39:29Z</time>
      </trkpt>
      <trkpt lat="37.1705606394" lon="-2.1092061047">
        <ele>566.35</ele>
        <time>2018-11-08T13:39:30Z</time>
      </trkpt>
      <trkpt lat="37.1704922430" lon="-2.1092364471">
        <ele>565.87</ele>
        <time>2018-11-08T13:39:31Z</time>
      </trkpt>
      <trkpt lat="37.1704177279" lon="-2.1092835534">
        <ele>565.39</ele>
        <time>2018-11-08T13:39:32Z</time>
      </trkpt>
      <trkpt lat="37.1703540254" lon="-2.1093317494">
        <ele>564.91</ele>
        <time>2018-11-08T13:39:33Z</time>
      </trkpt>
      <trkpt lat="37.1699135564" lon="-2.1096728928">
        <ele>561.07</ele>
        <time>2018-11-08T13:39:39Z</time>
      </trkpt>
      <trkpt lat="37.1698262170" lon="-2.1097105276">
        <ele>560.59</ele>
        <time>2018-11-08T13:39:40Z</time>
      </trkpt>
      <trkpt lat="37.1697320044" lon="-2.1097346675">
        <ele>560.11</ele>
        <time>2018-11-08T13:39:41Z</time>
      </trkpt>
      <trkpt lat="37.1690425090" lon="-2.1098753996">
        <ele>555.30</ele>
        <time>2018-11-08T13:39:48Z</time>
      </trkpt>
      <trkpt lat="37.1682683565" lon="-2.1101239230">
        <ele>549.53</ele>
        <time>2018-11-08T13:39:56Z</time>
      </trkpt>
      <trkpt lat="37.1675284021" lon="-2.1102576144">
        <ele>544.72</ele>
        <time>2018-11-08T13:40:03Z</time>
      </trkpt>
      <trkpt lat="37.1669349633" lon="-2.1102687623">
        <ele>543.76</ele>
        <time>2018-11-08T13:40:09Z</time>
      </trkpt>
      <trkpt lat="37.1663772315" lon="-2.1101817582">
        <ele>543.28</ele>
        <time>2018-11-08T13:40:16Z</time>
      </trkpt>
      <trkpt lat="37.1659495868" lon="-2.1101095062">
        <ele>543.76</ele>
        <time>2018-11-08T13:40:23Z</time>
      </trkpt>
      <trkpt lat="37.1656104550" lon="-2.1100803372">
        <ele>543.28</ele>
        <time>2018-11-08T13:40:30Z</time>
      </trkpt>
      <trkpt lat="37.1652325150" lon="-2.1100712847">
        <ele>542.80</ele>
        <time>2018-11-08T13:40:39Z</time>
      </trkpt>
      <trkpt lat="37.1651620232" lon="-2.1100950055">
        <ele>543.28</ele>
        <time>2018-11-08T13:40:45Z</time>
      </trkpt>
      <trkpt lat="37.1651673038" lon="-2.1100840252">
        <ele>544.24</ele>
        <time>2018-11-08T13:40:56Z</time>
      </trkpt>
      <trkpt lat="37.1651622746" lon="-2.1100850310">
        <ele>543.76</ele>
        <time>2018-11-08T13:41:21Z</time>
      </trkpt>
      <trkpt lat="37.1651702374" lon="-2.1100893896">
        <ele>541.36</ele>
        <time>2018-11-08T13:41:50Z</time>
      </trkpt>
      <trkpt lat="37.1651640348" lon="-2.1100864559">
        <ele>541.84</ele>
        <time>2018-11-08T13:42:00Z</time>
      </trkpt>
      <trkpt lat="37.1651572455" lon="-2.1100833546">
        <ele>541.84</ele>
        <time>2018-11-08T13:42:01Z</time>
      </trkpt>
      <trkpt lat="37.1651444212" lon="-2.1100794151">
        <ele>541.84</ele>
        <time>2018-11-08T13:42:02Z</time>
      </trkpt>
      <trkpt lat="37.1651286632" lon="-2.1100776549">
        <ele>541.84</ele>
        <time>2018-11-08T13:42:03Z</time>
      </trkpt>
      <trkpt lat="37.1651087981" lon="-2.1100779902">
        <ele>541.84</ele>
        <time>2018-11-08T13:42:04Z</time>
      </trkpt>
      <trkpt lat="37.1650819760" lon="-2.1100796666">
        <ele>541.84</ele>
        <time>2018-11-08T13:42:05Z</time>
      </trkpt>
      <trkpt lat="37.1648197901" lon="-2.1101166308">
        <ele>540.88</ele>
        <time>2018-11-08T13:42:12Z</time>
      </trkpt>
      <trkpt lat="37.1647741925" lon="-2.1101271920">
        <ele>540.88</ele>
        <time>2018-11-08T13:42:13Z</time>
      </trkpt>
      <trkpt lat="37.1642596275" lon="-2.1103063133">
        <ele>539.92</ele>
        <time>2018-11-08T13:42:23Z</time>
      </trkpt>
      <trkpt lat="37.1636688709" lon="-2.1105286852">
        <ele>538.96</ele>
        <time>2018-11-08T13:42:34Z</time>
      </trkpt>
      <trkpt lat="37.1629757714" lon="-2.1108263265">
        <ele>537.51</ele>
        <time>2018-11-08T13:42:46Z</time>
      </trkpt>
      <trkpt lat="37.1622985974" lon="-2.1111082938">
        <ele>535.11</ele>
        <time>2018-11-08T13:42:57Z</time>
      </trkpt>
      <trkpt lat="37.1617966052" lon="-2.1114006545">
        <ele>533.19</ele>
        <time>2018-11-08T13:43:06Z</time>
      </trkpt>
      <trkpt lat="37.1615054179" lon="-2.1116889920">
        <ele>533.19</ele>
        <time>2018-11-08T13:43:13Z</time>
      </trkpt>
      <trkpt lat="37.1612145659" lon="-2.1119681094">
        <ele>534.63</ele>
        <time>2018-11-08T13:43:21Z</time>
      </trkpt>
      <trkpt lat="37.1609595884" lon="-2.1122207399">
        <ele>535.59</ele>
        <time>2018-11-08T13:43:30Z</time>
      </trkpt>
      <trkpt lat="37.1606896911" lon="-2.1124873683">
        <ele>537.03</ele>
        <time>2018-11-08T13:43:40Z</time>
      </trkpt>
      <trkpt lat="37.1604632121" lon="-2.1126773860">
        <ele>538.48</ele>
        <time>2018-11-08T13:43:50Z</time>
      </trkpt>
      <trkpt lat="37.1602195501" lon="-2.1127912123">
        <ele>539.44</ele>
        <time>2018-11-08T13:44:00Z</time>
      </trkpt>
      <trkpt lat="37.1598808374" lon="-2.1128031146">
        <ele>541.36</ele>
        <time>2018-11-08T13:44:13Z</time>
      </trkpt>
      <trkpt lat="37.1596012171" lon="-2.1128063835">
        <ele>541.36</ele>
        <time>2018-11-08T13:44:22Z</time>
      </trkpt>
      <trkpt lat="37.1592856385" lon="-2.1128028631">
        <ele>541.36</ele>
        <time>2018-11-08T13:44:31Z</time>
      </trkpt>
      <trkpt lat="37.1589923557" lon="-2.1128026955">
        <ele>541.84</ele>
        <time>2018-11-08T13:44:40Z</time>
      </trkpt>
      <trkpt lat="37.1586507931" lon="-2.1127644740">
        <ele>542.32</ele>
        <time>2018-11-08T13:44:51Z</time>
      </trkpt>
      <trkpt lat="37.1583303530" lon="-2.1127234865">
        <ele>543.28</ele>
        <time>2018-11-08T13:45:02Z</time>
      </trkpt>
      <trkpt lat="37.1582146827" lon="-2.1127939783">
        <ele>543.76</ele>
        <time>2018-11-08T13:45:08Z</time>
      </trkpt>
      <trkpt lat="37.1581216436" lon="-2.1129478700">
        <ele>545.20</ele>
        <time>2018-11-08T13:45:16Z</time>
      </trkpt>
      <trkpt lat="37.1580053866" lon="-2.1131191961">
        <ele>546.65</ele>
        <time>2018-11-08T13:45:26Z</time>
      </trkpt>
      <trkpt lat="37.1578509081" lon="-2.1132044401">
        <ele>547.61</ele>
        <time>2018-11-08T13:45:35Z</time>
      </trkpt>
      <trkpt lat="37.1576467250" lon="-2.1132305078">
        <ele>549.53</ele>
        <time>2018-11-08T13:45:46Z</time>
      </trkpt>
      <trkpt lat="37.1574523486" lon="-2.1131628659">
        <ele>551.93</ele>
        <time>2018-11-08T13:45:57Z</time>
      </trkpt>
      <trkpt lat="37.1573249437" lon="-2.1130987443">
        <ele>552.41</ele>
        <time>2018-11-08T13:46:05Z</time>
      </trkpt>
      <trkpt lat="37.1571533661" lon="-2.1130530629">
        <ele>552.90</ele>
        <time>2018-11-08T13:46:13Z</time>
      </trkpt>
      <trkpt lat="37.1570027433" lon="-2.1131449286">
        <ele>553.38</ele>
        <time>2018-11-08T13:46:21Z</time>
      </trkpt>
      <trkpt lat="37.1568506956" lon="-2.1132825594">
        <ele>554.34</ele>
        <time>2018-11-08T13:46:30Z</time>
      </trkpt>
      <trkpt lat="37.1567169204" lon="-2.1134036779">
        <ele>555.30</ele>
        <time>2018-11-08T13:46:39Z</time>
      </trkpt>
      <trkpt lat="37.1566052735" lon="-2.1135159116">
        <ele>556.74</ele>
        <time>2018-11-08T13:46:46Z</time>
      </trkpt>
      <trkpt lat="37.1564652957" lon="-2.1136417240">
        <ele>557.70</ele>
        <time>2018-11-08T13:46:55Z</time>
      </trkpt>
      <trkpt lat="37.1563427523" lon="-2.1137390379">
        <ele>558.66</ele>
        <time>2018-11-08T13:47:03Z</time>
      </trkpt>
      <trkpt lat="37.1561834123" lon="-2.1138153970">
        <ele>559.62</ele>
        <time>2018-11-08T13:47:12Z</time>
      </trkpt>
      <trkpt lat="37.1560022794" lon="-2.1138537023">
        <ele>561.07</ele>
        <time>2018-11-08T13:47:22Z</time>
      </trkpt>
      <trkpt lat="37.1557970066" lon="-2.1138903312">
        <ele>562.03</ele>
        <time>2018-11-08T13:47:33Z</time>
      </trkpt>
      <trkpt lat="37.1556394268" lon="-2.1138656046">
        <ele>562.03</ele>
        <time>2018-11-08T13:47:41Z</time>
      </trkpt>
      <trkpt lat="37.1555491537" lon="-2.1137004811">
        <ele>563.47</ele>
        <time>2018-11-08T13:47:48Z</time>
      </trkpt>
      <trkpt lat="37.1554148756" lon="-2.1135206893">
        <ele>563.95</ele>
        <time>2018-11-08T13:47:56Z</time>
      </trkpt>
      <trkpt lat="37.1552425437" lon="-2.1134066954">
        <ele>563.95</ele>
        <time>2018-11-08T13:48:04Z</time>
      </trkpt>
      <trkpt lat="37.1550311521" lon="-2.1133372933">
        <ele>564.43</ele>
        <time>2018-11-08T13:48:12Z</time>
      </trkpt>
      <trkpt lat="37.1548387036" lon="-2.1132730879">
        <ele>564.43</ele>
        <time>2018-11-08T13:48:19Z</time>
      </trkpt>
      <trkpt lat="37.1548268013" lon="-2.1132688131">
        <ele>564.43</ele>
        <time>2018-11-08T13:48:24Z</time>
      </trkpt>
      <trkpt lat="37.1548268851" lon="-2.1132540610">
        <ele>564.43</ele>
        <time>2018-11-08T13:48:35Z</time>
      </trkpt>
      <trkpt lat="37.1548238676" lon="-2.1132547315">
        <ele>564.91</ele>
        <time>2018-11-08T13:48:51Z</time>
      </trkpt>
      <trkpt lat="37.1548273880" lon="-2.1132515464">
        <ele>564.91</ele>
        <time>2018-11-08T13:49:04Z</time>
      </trkpt>
      <trkpt lat="37.1548211016" lon="-2.1132579166">
        <ele>565.39</ele>
        <time>2018-11-08T13:49:23Z</time>
      </trkpt>
      <trkpt lat="37.1548263822" lon="-2.1132579166">
        <ele>564.43</ele>
        <time>2018-11-08T13:49:35Z</time>
      </trkpt>
      <trkpt lat="37.1548286453" lon="-2.1132605989">
        <ele>563.95</ele>
        <time>2018-11-08T13:49:57Z</time>
      </trkpt>
      <trkpt lat="37.1547438204" lon="-2.1132460143">
        <ele>563.95</ele>
        <time>2018-11-08T13:50:05Z</time>
      </trkpt>
      <trkpt lat="37.1545343567" lon="-2.1131712478">
        <ele>562.03</ele>
        <time>2018-11-08T13:50:11Z</time>
      </trkpt>
      <trkpt lat="37.1540990006" lon="-2.1130243130">
        <ele>562.03</ele>
        <time>2018-11-08T13:50:20Z</time>
      </trkpt>
      <trkpt lat="37.1537366509" lon="-2.1127980854">
        <ele>559.14</ele>
        <time>2018-11-08T13:50:28Z</time>
      </trkpt>
      <trkpt lat="37.1536872815" lon="-2.1127447765">
        <ele>558.66</ele>
        <time>2018-11-08T13:50:29Z</time>
      </trkpt>
      <trkpt lat="37.1536368225" lon="-2.1126837563">
        <ele>558.18</ele>
        <time>2018-11-08T13:50:30Z</time>
      </trkpt>
      <trkpt lat="37.1535897162" lon="-2.1126158629">
        <ele>557.70</ele>
        <time>2018-11-08T13:50:31Z</time>
      </trkpt>
      <trkpt lat="37.1535498183" lon="-2.1125412639">
        <ele>557.70</ele>
        <time>2018-11-08T13:50:32Z</time>
      </trkpt>
      <trkpt lat="37.1535157040" lon="-2.1124607977">
        <ele>557.22</ele>
        <time>2018-11-08T13:50:33Z</time>
      </trkpt>
      <trkpt lat="37.1534897201" lon="-2.1123826783">
        <ele>557.22</ele>
        <time>2018-11-08T13:50:34Z</time>
      </trkpt>
      <trkpt lat="37.1534693521" lon="-2.1123002004">
        <ele>556.74</ele>
        <time>2018-11-08T13:50:35Z</time>
      </trkpt>
      <trkpt lat="37.1534564439" lon="-2.1122214105">
        <ele>556.74</ele>
        <time>2018-11-08T13:50:36Z</time>
      </trkpt>
      <trkpt lat="37.1534487326" lon="-2.1121421177">
        <ele>556.74</ele>
        <time>2018-11-08T13:50:37Z</time>
      </trkpt>
      <trkpt lat="37.1534464695" lon="-2.1120722964">
        <ele>556.74</ele>
        <time>2018-11-08T13:50:38Z</time>
      </trkpt>
      <trkpt lat="37.1534478944" lon="-2.1120069176">
        <ele>557.22</ele>
        <time>2018-11-08T13:50:39Z</time>
      </trkpt>
      <trkpt lat="37.1534514986" lon="-2.1119536087">
        <ele>557.22</ele>
        <time>2018-11-08T13:50:40Z</time>
      </trkpt>
      <trkpt lat="37.1534660831" lon="-2.1117975377">
        <ele>558.18</ele>
        <time>2018-11-08T13:50:45Z</time>
      </trkpt>
      <trkpt lat="37.1534743812" lon="-2.1117712185">
        <ele>558.66</ele>
        <time>2018-11-08T13:50:50Z</time>
      </trkpt>
      <trkpt lat="37.1534985211" lon="-2.1115631796">
        <ele>562.51</ele>
        <time>2018-11-08T13:51:02Z</time>
      </trkpt>
      <trkpt lat="37.1535099205" lon="-2.1114381216">
        <ele>563.95</ele>
        <time>2018-11-08T13:51:10Z</time>
      </trkpt>
      <trkpt lat="37.1535114292" lon="-2.1113260556">
        <ele>565.39</ele>
        <time>2018-11-08T13:51:20Z</time>
      </trkpt>
      <trkpt lat="37.1535162907" lon="-2.1112890914">
        <ele>565.87</ele>
        <time>2018-11-08T13:51:26Z</time>
      </trkpt>
      <trkpt lat="37.1535151172" lon="-2.1112634428">
        <ele>564.91</ele>
        <time>2018-11-08T13:51:37Z</time>
      </trkpt>
      <trkpt lat="37.1535099205" lon="-2.1110989060">
        <ele>566.83</ele>
        <time>2018-11-08T13:51:48Z</time>
      </trkpt>
      <trkpt lat="37.1535022929" lon="-2.1109419130">
        <ele>568.76</ele>
        <time>2018-11-08T13:51:58Z</time>
      </trkpt>
      <trkpt lat="37.1534892172" lon="-2.1107382327">
        <ele>571.16</ele>
        <time>2018-11-08T13:52:11Z</time>
      </trkpt>
      <trkpt lat="37.1534654964" lon="-2.1105662361">
        <ele>572.12</ele>
        <time>2018-11-08T13:52:22Z</time>
      </trkpt>
      <trkpt lat="37.1534497384" lon="-2.1104638092">
        <ele>571.64</ele>
        <time>2018-11-08T13:52:31Z</time>
      </trkpt>
      <trkpt lat="37.1534544323" lon="-2.1104424354">
        <ele>572.12</ele>
        <time>2018-11-08T13:52:40Z</time>
      </trkpt>
      <trkpt lat="37.1534563601" lon="-2.1104256716">
        <ele>572.12</ele>
        <time>2018-11-08T13:52:41Z</time>
      </trkpt>
      <trkpt lat="37.1534528397" lon="-2.1104016155">
        <ele>572.12</ele>
        <time>2018-11-08T13:52:42Z</time>
      </trkpt>
      <trkpt lat="37.1534469724" lon="-2.1103776433">
        <ele>572.12</ele>
        <time>2018-11-08T13:52:43Z</time>
      </trkpt>
      <trkpt lat="37.1534417756" lon="-2.1103553474">
        <ele>572.12</ele>
        <time>2018-11-08T13:52:44Z</time>
      </trkpt>
      <trkpt lat="37.1534359921" lon="-2.1103339735">
        <ele>572.12</ele>
        <time>2018-11-08T13:52:45Z</time>
      </trkpt>
      <trkpt lat="37.1534291189" lon="-2.1103161201">
        <ele>572.12</ele>
        <time>2018-11-08T13:52:46Z</time>
      </trkpt>
      <trkpt lat="37.1534219943" lon="-2.1102961712">
        <ele>572.12</ele>
        <time>2018-11-08T13:52:47Z</time>
      </trkpt>
      <trkpt lat="37.1534137800" lon="-2.1102749649">
        <ele>572.12</ele>
        <time>2018-11-08T13:52:48Z</time>
      </trkpt>
      <trkpt lat="37.1534040570" lon="-2.1102514956">
        <ele>572.12</ele>
        <time>2018-11-08T13:52:49Z</time>
      </trkpt>
      <trkpt lat="37.1533971000" lon="-2.1102271043">
        <ele>572.12</ele>
        <time>2018-11-08T13:52:50Z</time>
      </trkpt>
      <trkpt lat="37.1533712838" lon="-2.1099597216">
        <ele>571.16</ele>
        <time>2018-11-08T13:52:59Z</time>
      </trkpt>
      <trkpt lat="37.1534508280" lon="-2.1096488368">
        <ele>568.76</ele>
        <time>2018-11-08T13:53:05Z</time>
      </trkpt>
      <trkpt lat="37.1534927376" lon="-2.1095034946">
        <ele>567.80</ele>
        <time>2018-11-08T13:53:07Z</time>
      </trkpt>
      <trkpt lat="37.1535056457" lon="-2.1094190050">
        <ele>567.32</ele>
        <time>2018-11-08T13:53:08Z</time>
      </trkpt>
      <trkpt lat="37.1535081603" lon="-2.1093381196">
        <ele>566.83</ele>
        <time>2018-11-08T13:53:09Z</time>
      </trkpt>
      <trkpt lat="37.1535022929" lon="-2.1092524566">
        <ele>566.83</ele>
        <time>2018-11-08T13:53:10Z</time>
      </trkpt>
      <trkpt lat="37.1534877084" lon="-2.1091695596">
        <ele>566.35</ele>
        <time>2018-11-08T13:53:11Z</time>
      </trkpt>
      <trkpt lat="37.1534654126" lon="-2.1090969723">
        <ele>566.35</ele>
        <time>2018-11-08T13:53:12Z</time>
      </trkpt>
      <trkpt lat="37.1534351539" lon="-2.1090301685">
        <ele>566.35</ele>
        <time>2018-11-08T13:53:13Z</time>
      </trkpt>
      <trkpt lat="37.1533974353" lon="-2.1089685615">
        <ele>566.35</ele>
        <time>2018-11-08T13:53:14Z</time>
      </trkpt>
      <trkpt lat="37.1533592138" lon="-2.1089203656">
        <ele>566.35</ele>
        <time>2018-11-08T13:53:15Z</time>
      </trkpt>
      <trkpt lat="37.1533143707" lon="-2.1088844910">
        <ele>566.83</ele>
        <time>2018-11-08T13:53:16Z</time>
      </trkpt>
      <trkpt lat="37.1532698628" lon="-2.1088668890">
        <ele>566.83</ele>
        <time>2018-11-08T13:53:17Z</time>
      </trkpt>
      <trkpt lat="37.1532266960" lon="-2.1088559087">
        <ele>567.32</ele>
        <time>2018-11-08T13:53:18Z</time>
      </trkpt>
      <trkpt lat="37.1530599799" lon="-2.1088263206">
        <ele>568.76</ele>
        <time>2018-11-08T13:53:24Z</time>
      </trkpt>
      <trkpt lat="37.1528699622" lon="-2.1087207925">
        <ele>569.72</ele>
        <time>2018-11-08T13:53:32Z</time>
      </trkpt>
      <trkpt lat="37.1526724007" lon="-2.1085579321">
        <ele>569.24</ele>
        <time>2018-11-08T13:53:40Z</time>
      </trkpt>
      <trkpt lat="37.1524211951" lon="-2.1084203850">
        <ele>566.35</ele>
        <time>2018-11-08T13:53:48Z</time>
      </trkpt>
      <trkpt lat="37.1522546466" lon="-2.1082135197">
        <ele>563.47</ele>
        <time>2018-11-08T13:53:54Z</time>
      </trkpt>
      <trkpt lat="37.1522176825" lon="-2.1081730351">
        <ele>562.99</ele>
        <time>2018-11-08T13:53:55Z</time>
      </trkpt>
      <trkpt lat="37.1521743480" lon="-2.1081373282">
        <ele>562.51</ele>
        <time>2018-11-08T13:53:56Z</time>
      </trkpt>
      <trkpt lat="37.1521227993" lon="-2.1081114281">
        <ele>562.03</ele>
        <time>2018-11-08T13:53:57Z</time>
      </trkpt>
      <trkpt lat="37.1520623658" lon="-2.1080925688">
        <ele>561.55</ele>
        <time>2018-11-08T13:53:58Z</time>
      </trkpt>
      <trkpt lat="37.1519886050" lon="-2.1080786549">
        <ele>560.59</ele>
        <time>2018-11-08T13:53:59Z</time>
      </trkpt>
      <trkpt lat="37.1519088093" lon="-2.1080723684">
        <ele>559.62</ele>
        <time>2018-11-08T13:54:00Z</time>
      </trkpt>
      <trkpt lat="37.1518280916" lon="-2.1080705244">
        <ele>559.14</ele>
        <time>2018-11-08T13:54:01Z</time>
      </trkpt>
      <trkpt lat="37.1516544186" lon="-2.1080493182">
        <ele>557.70</ele>
        <time>2018-11-08T13:54:03Z</time>
      </trkpt>
      <trkpt lat="37.1515713539" lon="-2.1080215741">
        <ele>557.22</ele>
        <time>2018-11-08T13:54:04Z</time>
      </trkpt>
      <trkpt lat="37.1514879540" lon="-2.1079742163">
        <ele>557.22</ele>
        <time>2018-11-08T13:54:05Z</time>
      </trkpt>
      <trkpt lat="37.1514193062" lon="-2.1079173032">
        <ele>556.74</ele>
        <time>2018-11-08T13:54:06Z</time>
      </trkpt>
      <trkpt lat="37.1513525024" lon="-2.1078541037">
        <ele>556.74</ele>
        <time>2018-11-08T13:54:07Z</time>
      </trkpt>
      <trkpt lat="37.1510797553" lon="-2.1075564623">
        <ele>558.18</ele>
        <time>2018-11-08T13:54:12Z</time>
      </trkpt>
      <trkpt lat="37.1510442998" lon="-2.1075153910">
        <ele>558.18</ele>
        <time>2018-11-08T13:54:13Z</time>
      </trkpt>
      <trkpt lat="37.1510167234" lon="-2.1074786782">
        <ele>558.66</ele>
        <time>2018-11-08T13:54:14Z</time>
      </trkpt>
      <trkpt lat="37.1509906556" lon="-2.1074505989">
        <ele>559.62</ele>
        <time>2018-11-08T13:54:15Z</time>
      </trkpt>
      <trkpt lat="37.1509678569" lon="-2.1074293926">
        <ele>560.11</ele>
        <time>2018-11-08T13:54:16Z</time>
      </trkpt>
      <trkpt lat="37.1509427950" lon="-2.1074091084">
        <ele>560.59</ele>
        <time>2018-11-08T13:54:17Z</time>
      </trkpt>
      <trkpt lat="37.1506947745" lon="-2.1072547976">
        <ele>562.99</ele>
        <time>2018-11-08T13:54:25Z</time>
      </trkpt>
      <trkpt lat="37.1504694689" lon="-2.1071185917">
        <ele>563.47</ele>
        <time>2018-11-08T13:54:33Z</time>
      </trkpt>
      <trkpt lat="37.1502320096" lon="-2.1069356985">
        <ele>562.99</ele>
        <time>2018-11-08T13:54:42Z</time>
      </trkpt>
      <trkpt lat="37.1501988173" lon="-2.1069051884">
        <ele>562.99</ele>
        <time>2018-11-08T13:54:43Z</time>
      </trkpt>
      <trkpt lat="37.1501657926" lon="-2.1068676375">
        <ele>562.99</ele>
        <time>2018-11-08T13:54:44Z</time>
      </trkpt>
      <trkpt lat="37.1498929616" lon="-2.1065552440">
        <ele>560.11</ele>
        <time>2018-11-08T13:54:50Z</time>
      </trkpt>
      <trkpt lat="37.1498319414" lon="-2.1065065451">
        <ele>559.62</ele>
        <time>2018-11-08T13:54:51Z</time>
      </trkpt>
      <trkpt lat="37.1497642994" lon="-2.1064644679">
        <ele>559.62</ele>
        <time>2018-11-08T13:54:52Z</time>
      </trkpt>
      <trkpt lat="37.1497027762" lon="-2.1064337902">
        <ele>559.62</ele>
        <time>2018-11-08T13:54:53Z</time>
      </trkpt>
      <trkpt lat="37.1496400796" lon="-2.1064070519">
        <ele>560.11</ele>
        <time>2018-11-08T13:54:54Z</time>
      </trkpt>
      <trkpt lat="37.1495787241" lon="-2.1063842531">
        <ele>560.11</ele>
        <time>2018-11-08T13:54:55Z</time>
      </trkpt>
      <trkpt lat="37.1492193080" lon="-2.1062481310">
        <ele>559.62</ele>
        <time>2018-11-08T13:55:02Z</time>
      </trkpt>
      <trkpt lat="37.1489753947" lon="-2.1061504818">
        <ele>558.66</ele>
        <time>2018-11-08T13:55:08Z</time>
      </trkpt>
      <trkpt lat="37.1489273664" lon="-2.1061354782">
        <ele>558.18</ele>
        <time>2018-11-08T13:55:11Z</time>
      </trkpt>
      <trkpt lat="37.1488815174" lon="-2.1061361488">
        <ele>557.70</ele>
        <time>2018-11-08T13:55:17Z</time>
      </trkpt>
      <trkpt lat="37.1488805953" lon="-2.1061257552">
        <ele>556.74</ele>
        <time>2018-11-08T13:55:32Z</time>
      </trkpt>
      <trkpt lat="37.1488534380" lon="-2.1061275993">
        <ele>555.78</ele>
        <time>2018-11-08T13:55:48Z</time>
      </trkpt>
      <trkpt lat="37.1486576367" lon="-2.1060949098">
        <ele>554.82</ele>
        <time>2018-11-08T13:55:54Z</time>
      </trkpt>
      <trkpt lat="37.1484776773" lon="-2.1060397569">
        <ele>553.86</ele>
        <time>2018-11-08T13:55:58Z</time>
      </trkpt>
      <trkpt lat="37.1483203489" lon="-2.1059582010">
        <ele>551.93</ele>
        <time>2018-11-08T13:56:02Z</time>
      </trkpt>
      <trkpt lat="37.1482279804" lon="-2.1059359889">
        <ele>551.45</ele>
        <time>2018-11-08T13:56:04Z</time>
      </trkpt>
      <trkpt lat="37.1481801197" lon="-2.1059365757">
        <ele>551.45</ele>
        <time>2018-11-08T13:56:05Z</time>
      </trkpt>
      <trkpt lat="37.1481313370" lon="-2.1059453767">
        <ele>551.45</ele>
        <time>2018-11-08T13:56:06Z</time>
      </trkpt>
      <trkpt lat="37.1480791178" lon="-2.1059605479">
        <ele>550.97</ele>
        <time>2018-11-08T13:56:07Z</time>
      </trkpt>
      <trkpt lat="37.1480305865" lon="-2.1059772279">
        <ele>550.97</ele>
        <time>2018-11-08T13:56:08Z</time>
      </trkpt>
      <trkpt lat="37.1476193704" lon="-2.1060628071">
        <ele>549.53</ele>
        <time>2018-11-08T13:56:15Z</time>
      </trkpt>
      <trkpt lat="37.1470354032" lon="-2.1061222348">
        <ele>546.17</ele>
        <time>2018-11-08T13:56:23Z</time>
      </trkpt>
      <trkpt lat="37.1467762347" lon="-2.1061239950">
        <ele>544.24</ele>
        <time>2018-11-08T13:56:26Z</time>
      </trkpt>
      <trkpt lat="37.1466877218" lon="-2.1061031241">
        <ele>543.28</ele>
        <time>2018-11-08T13:56:27Z</time>
      </trkpt>
      <trkpt lat="37.1465941798" lon="-2.1060668305">
        <ele>542.32</ele>
        <time>2018-11-08T13:56:28Z</time>
      </trkpt>
      <trkpt lat="37.1458906867" lon="-2.1058002021">
        <ele>535.11</ele>
        <time>2018-11-08T13:56:35Z</time>
      </trkpt>
      <trkpt lat="37.1448022127" lon="-2.1054795943">
        <ele>528.38</ele>
        <time>2018-11-08T13:56:45Z</time>
      </trkpt>
      <trkpt lat="37.1445057448" lon="-2.1053721383">
        <ele>531.27</ele>
        <time>2018-11-08T13:56:49Z</time>
      </trkpt>
      <trkpt lat="37.1443446446" lon="-2.1052678674">
        <ele>532.71</ele>
        <time>2018-11-08T13:56:53Z</time>
      </trkpt>
      <trkpt lat="37.1440983843" lon="-2.1050503571">
        <ele>534.63</ele>
        <time>2018-11-08T13:57:02Z</time>
      </trkpt>
      <trkpt lat="37.1438342705" lon="-2.1048488561">
        <ele>535.59</ele>
        <time>2018-11-08T13:57:12Z</time>
      </trkpt>
      <trkpt lat="37.1436344460" lon="-2.1046804637">
        <ele>535.11</ele>
        <time>2018-11-08T13:57:21Z</time>
      </trkpt>
      <trkpt lat="37.1434159297" lon="-2.1044335328">
        <ele>532.23</ele>
        <time>2018-11-08T13:57:27Z</time>
      </trkpt>
      <trkpt lat="37.1430581063" lon="-2.1040227357">
        <ele>526.94</ele>
        <time>2018-11-08T13:57:33Z</time>
      </trkpt>
      <trkpt lat="37.1426577028" lon="-2.1034406126">
        <ele>521.65</ele>
        <time>2018-11-08T13:57:39Z</time>
      </trkpt>
      <trkpt lat="37.1424019709" lon="-2.1030518599">
        <ele>519.25</ele>
        <time>2018-11-08T13:57:43Z</time>
      </trkpt>
      <trkpt lat="37.1423247736" lon="-2.1029713098">
        <ele>518.77</ele>
        <time>2018-11-08T13:57:44Z</time>
      </trkpt>
      <trkpt lat="37.1422376856" lon="-2.1029001474">
        <ele>517.81</ele>
        <time>2018-11-08T13:57:45Z</time>
      </trkpt>
      <trkpt lat="37.1417183429" lon="-2.1024747659">
        <ele>513.48</ele>
        <time>2018-11-08T13:57:51Z</time>
      </trkpt>
      <trkpt lat="37.1416607592" lon="-2.1023853309">
        <ele>513.48</ele>
        <time>2018-11-08T13:57:52Z</time>
      </trkpt>
      <trkpt lat="37.1416147426" lon="-2.1022855863">
        <ele>513.00</ele>
        <time>2018-11-08T13:57:53Z</time>
      </trkpt>
      <trkpt lat="37.1413925383" lon="-2.1017493121">
        <ele>512.52</ele>
        <time>2018-11-08T13:57:59Z</time>
      </trkpt>
      <trkpt lat="37.1413211245" lon="-2.1015996952">
        <ele>512.04</ele>
        <time>2018-11-08T13:58:01Z</time>
      </trkpt>
      <trkpt lat="37.1412768681" lon="-2.1015290357">
        <ele>511.56</ele>
        <time>2018-11-08T13:58:02Z</time>
      </trkpt>
      <trkpt lat="37.1410995070" lon="-2.1012375969">
        <ele>508.67</ele>
        <time>2018-11-08T13:58:06Z</time>
      </trkpt>
      <trkpt lat="37.1410676558" lon="-2.1011567954">
        <ele>508.19</ele>
        <time>2018-11-08T13:58:07Z</time>
      </trkpt>
      <trkpt lat="37.1410472039" lon="-2.1010725573">
        <ele>507.71</ele>
        <time>2018-11-08T13:58:08Z</time>
      </trkpt>
      <trkpt lat="37.1410399955" lon="-2.1009755787">
        <ele>506.75</ele>
        <time>2018-11-08T13:58:09Z</time>
      </trkpt>
      <trkpt lat="37.1410458628" lon="-2.1008769237">
        <ele>505.79</ele>
        <time>2018-11-08T13:58:10Z</time>
      </trkpt>
      <trkpt lat="37.1410583518" lon="-2.1007857285">
        <ele>504.83</ele>
        <time>2018-11-08T13:58:11Z</time>
      </trkpt>
      <trkpt lat="37.1410788875" lon="-2.1006810386">
        <ele>503.87</ele>
        <time>2018-11-08T13:58:12Z</time>
      </trkpt>
      <trkpt lat="37.1411041170" lon="-2.1005822998">
        <ele>502.43</ele>
        <time>2018-11-08T13:58:13Z</time>
      </trkpt>
      <trkpt lat="37.1411347110" lon="-2.1004811302">
        <ele>501.46</ele>
        <time>2018-11-08T13:58:14Z</time>
      </trkpt>
      <trkpt lat="37.1411668137" lon="-2.1004012506">
        <ele>500.50</ele>
        <time>2018-11-08T13:58:15Z</time>
      </trkpt>
      <trkpt lat="37.1412082203" lon="-2.1003158391">
        <ele>499.06</ele>
        <time>2018-11-08T13:58:16Z</time>
      </trkpt>
      <trkpt lat="37.1412501298" lon="-2.1002361272">
        <ele>498.10</ele>
        <time>2018-11-08T13:58:17Z</time>
      </trkpt>
      <trkpt lat="37.1413518861" lon="-2.1000257414">
        <ele>495.22</ele>
        <time>2018-11-08T13:58:20Z</time>
      </trkpt>
      <trkpt lat="37.1413687337" lon="-2.0999446046">
        <ele>494.74</ele>
        <time>2018-11-08T13:58:21Z</time>
      </trkpt>
      <trkpt lat="37.1413734276" lon="-2.0998490509">
        <ele>493.29</ele>
        <time>2018-11-08T13:58:22Z</time>
      </trkpt>
      <trkpt lat="37.1413678117" lon="-2.0997392479">
        <ele>491.85</ele>
        <time>2018-11-08T13:58:23Z</time>
      </trkpt>
      <trkpt lat="37.1413603518" lon="-2.0996224042">
        <ele>490.41</ele>
        <time>2018-11-08T13:58:24Z</time>
      </trkpt>
      <trkpt lat="37.1413605195" lon="-2.0995001961">
        <ele>488.97</ele>
        <time>2018-11-08T13:58:25Z</time>
      </trkpt>
      <trkpt lat="37.1413651295" lon="-2.0993746351">
        <ele>487.53</ele>
        <time>2018-11-08T13:58:26Z</time>
      </trkpt>
      <trkpt lat="37.1413927060" lon="-2.0989525225">
        <ele>483.20</ele>
        <time>2018-11-08T13:58:30Z</time>
      </trkpt>
      <trkpt lat="37.1414099727" lon="-2.0988754090">
        <ele>482.72</ele>
        <time>2018-11-08T13:58:31Z</time>
      </trkpt>
      <trkpt lat="37.1414398961" lon="-2.0988091081">
        <ele>481.76</ele>
        <time>2018-11-08T13:58:32Z</time>
      </trkpt>
      <trkpt lat="37.1414823923" lon="-2.0987548772">
        <ele>480.80</ele>
        <time>2018-11-08T13:58:33Z</time>
      </trkpt>
      <trkpt lat="37.1415362880" lon="-2.0987096149">
        <ele>480.32</ele>
        <time>2018-11-08T13:58:34Z</time>
      </trkpt>
      <trkpt lat="37.1415907703" lon="-2.0986689627">
        <ele>479.35</ele>
        <time>2018-11-08T13:58:35Z</time>
      </trkpt>
      <trkpt lat="37.1416372061" lon="-2.0986232813">
        <ele>478.87</ele>
        <time>2018-11-08T13:58:36Z</time>
      </trkpt>
      <trkpt lat="37.1416673809" lon="-2.0985622611">
        <ele>478.39</ele>
        <time>2018-11-08T13:58:37Z</time>
      </trkpt>
      <trkpt lat="37.1416718233" lon="-2.0984869916">
        <ele>477.43</ele>
        <time>2018-11-08T13:58:38Z</time>
      </trkpt>
      <trkpt lat="37.1416569874" lon="-2.0984051004">
        <ele>476.47</ele>
        <time>2018-11-08T13:58:39Z</time>
      </trkpt>
      <trkpt lat="37.1416352782" lon="-2.0983122289">
        <ele>475.03</ele>
        <time>2018-11-08T13:58:40Z</time>
      </trkpt>
      <trkpt lat="37.1416007448" lon="-2.0980906114">
        <ele>472.63</ele>
        <time>2018-11-08T13:58:42Z</time>
      </trkpt>
      <trkpt lat="37.1415966377" lon="-2.0979691576">
        <ele>471.18</ele>
        <time>2018-11-08T13:58:43Z</time>
      </trkpt>
      <trkpt lat="37.1416029241" lon="-2.0978367236">
        <ele>469.74</ele>
        <time>2018-11-08T13:58:44Z</time>
      </trkpt>
      <trkpt lat="37.1416450851" lon="-2.0974996872">
        <ele>466.38</ele>
        <time>2018-11-08T13:58:47Z</time>
      </trkpt>
      <trkpt lat="37.1416377928" lon="-2.0974100847">
        <ele>465.42</ele>
        <time>2018-11-08T13:58:48Z</time>
      </trkpt>
      <trkpt lat="37.1416056901" lon="-2.0973452087">
        <ele>465.42</ele>
        <time>2018-11-08T13:58:49Z</time>
      </trkpt>
      <trkpt lat="37.1415548958" lon="-2.0973046403">
        <ele>464.93</ele>
        <time>2018-11-08T13:58:50Z</time>
      </trkpt>
      <trkpt lat="37.1415036824" lon="-2.0972711965">
        <ele>464.93</ele>
        <time>2018-11-08T13:58:51Z</time>
      </trkpt>
      <trkpt lat="37.1414660476" lon="-2.0972215757">
        <ele>464.45</ele>
        <time>2018-11-08T13:58:52Z</time>
      </trkpt>
      <trkpt lat="37.1414506249" lon="-2.0971580409">
        <ele>464.45</ele>
        <time>2018-11-08T13:58:53Z</time>
      </trkpt>
      <trkpt lat="37.1414552350" lon="-2.0970914885">
        <ele>464.45</ele>
        <time>2018-11-08T13:58:54Z</time>
      </trkpt>
      <trkpt lat="37.1414719988" lon="-2.0970303845">
        <ele>463.97</ele>
        <time>2018-11-08T13:58:55Z</time>
      </trkpt>
      <trkpt lat="37.1414914448" lon="-2.0969694480">
        <ele>463.49</ele>
        <time>2018-11-08T13:58:56Z</time>
      </trkpt>
      <trkpt lat="37.1415083762" lon="-2.0969021413">
        <ele>462.53</ele>
        <time>2018-11-08T13:58:57Z</time>
      </trkpt>
      <trkpt lat="37.1415227931" lon="-2.0968240220">
        <ele>461.57</ele>
        <time>2018-11-08T13:58:58Z</time>
      </trkpt>
      <trkpt lat="37.1415528841" lon="-2.0966417156">
        <ele>460.61</ele>
        <time>2018-11-08T13:59:00Z</time>
      </trkpt>
      <trkpt lat="37.1415833943" lon="-2.0965561364">
        <ele>460.13</ele>
        <time>2018-11-08T13:59:01Z</time>
      </trkpt>
      <trkpt lat="37.1416286565" lon="-2.0964812022">
        <ele>459.17</ele>
        <time>2018-11-08T13:59:02Z</time>
      </trkpt>
      <trkpt lat="37.1416875813" lon="-2.0964130573">
        <ele>458.21</ele>
        <time>2018-11-08T13:59:03Z</time>
      </trkpt>
      <trkpt lat="37.1417457517" lon="-2.0963523723">
        <ele>457.72</ele>
        <time>2018-11-08T13:59:04Z</time>
      </trkpt>
      <trkpt lat="37.1418045927" lon="-2.0962784439">
        <ele>456.28</ele>
        <time>2018-11-08T13:59:05Z</time>
      </trkpt>
      <trkpt lat="37.1418439038" lon="-2.0961939543">
        <ele>455.32</ele>
        <time>2018-11-08T13:59:06Z</time>
      </trkpt>
      <trkpt lat="37.1418666188" lon="-2.0961139910">
        <ele>454.84</ele>
        <time>2018-11-08T13:59:07Z</time>
      </trkpt>
      <trkpt lat="37.1419249568" lon="-2.0959191117">
        <ele>453.40</ele>
        <time>2018-11-08T13:59:09Z</time>
      </trkpt>
      <trkpt lat="37.1419706382" lon="-2.0958462730">
        <ele>453.40</ele>
        <time>2018-11-08T13:59:10Z</time>
      </trkpt>
      <trkpt lat="37.1420458239" lon="-2.0957839116">
        <ele>452.92</ele>
        <time>2018-11-08T13:59:11Z</time>
      </trkpt>
      <trkpt lat="37.1420995519" lon="-2.0957611129">
        <ele>452.44</ele>
        <time>2018-11-08T13:59:12Z</time>
      </trkpt>
      <trkpt lat="37.1421754919" lon="-2.0957378112">
        <ele>451.96</ele>
        <time>2018-11-08T13:59:13Z</time>
      </trkpt>
      <trkpt lat="37.1422505099" lon="-2.0957117435">
        <ele>451.48</ele>
        <time>2018-11-08T13:59:14Z</time>
      </trkpt>
      <trkpt lat="37.1423139609" lon="-2.0956760366">
        <ele>450.52</ele>
        <time>2018-11-08T13:59:15Z</time>
      </trkpt>
      <trkpt lat="37.1423703711" lon="-2.0956216380">
        <ele>449.55</ele>
        <time>2018-11-08T13:59:16Z</time>
      </trkpt>
      <trkpt lat="37.1424142923" lon="-2.0955503918">
        <ele>448.11</ele>
        <time>2018-11-08T13:59:17Z</time>
      </trkpt>
      <trkpt lat="37.1424559504" lon="-2.0954721887">
        <ele>447.15</ele>
        <time>2018-11-08T13:59:18Z</time>
      </trkpt>
      <trkpt lat="37.1426929906" lon="-2.0950286184">
        <ele>441.86</ele>
        <time>2018-11-08T13:59:23Z</time>
      </trkpt>
      <trkpt lat="37.1427289490" lon="-2.0949260239">
        <ele>440.42</ele>
        <time>2018-11-08T13:59:24Z</time>
      </trkpt>
      <trkpt lat="37.1427576989" lon="-2.0948227588">
        <ele>438.98</ele>
        <time>2018-11-08T13:59:25Z</time>
      </trkpt>
      <trkpt lat="37.1427763905" lon="-2.0947210863">
        <ele>437.54</ele>
        <time>2018-11-08T13:59:26Z</time>
      </trkpt>
      <trkpt lat="37.1427863650" lon="-2.0946299750">
        <ele>436.10</ele>
        <time>2018-11-08T13:59:27Z</time>
      </trkpt>
      <trkpt lat="37.1427853592" lon="-2.0945416298">
        <ele>434.65</ele>
        <time>2018-11-08T13:59:28Z</time>
      </trkpt>
      <trkpt lat="37.1427643206" lon="-2.0944703836">
        <ele>433.69</ele>
        <time>2018-11-08T13:59:29Z</time>
      </trkpt>
      <trkpt lat="37.1427191421" lon="-2.0944154821">
        <ele>432.73</ele>
        <time>2018-11-08T13:59:30Z</time>
      </trkpt>
      <trkpt lat="37.1426588763" lon="-2.0943920128">
        <ele>431.77</ele>
        <time>2018-11-08T13:59:31Z</time>
      </trkpt>
      <trkpt lat="37.1425933298" lon="-2.0943929348">
        <ele>430.81</ele>
        <time>2018-11-08T13:59:32Z</time>
      </trkpt>
      <trkpt lat="37.1425320581" lon="-2.0944086090">
        <ele>430.33</ele>
        <time>2018-11-08T13:59:33Z</time>
      </trkpt>
      <trkpt lat="37.1424717922" lon="-2.0944136381">
        <ele>429.85</ele>
        <time>2018-11-08T13:59:34Z</time>
      </trkpt>
      <trkpt lat="37.1424240153" lon="-2.0943925995">
        <ele>429.37</ele>
        <time>2018-11-08T13:59:35Z</time>
      </trkpt>
      <trkpt lat="37.1423888952" lon="-2.0943480916">
        <ele>428.89</ele>
        <time>2018-11-08T13:59:36Z</time>
      </trkpt>
      <trkpt lat="37.1423748136" lon="-2.0942838024">
        <ele>428.89</ele>
        <time>2018-11-08T13:59:37Z</time>
      </trkpt>
      <trkpt lat="37.1423859615" lon="-2.0942177530">
        <ele>428.40</ele>
        <time>2018-11-08T13:59:38Z</time>
      </trkpt>
      <trkpt lat="37.1424152981" lon="-2.0941580739">
        <ele>427.92</ele>
        <time>2018-11-08T13:59:39Z</time>
      </trkpt>
      <trkpt lat="37.1424589679" lon="-2.0941013284">
        <ele>427.92</ele>
        <time>2018-11-08T13:59:40Z</time>
      </trkpt>
      <trkpt lat="37.1425009612" lon="-2.0940498635">
        <ele>427.44</ele>
        <time>2018-11-08T13:59:41Z</time>
      </trkpt>
      <trkpt lat="37.1425390989" lon="-2.0939943753">
        <ele>426.96</ele>
        <time>2018-11-08T13:59:42Z</time>
      </trkpt>
      <trkpt lat="37.1425727941" lon="-2.0939325169">
        <ele>426.96</ele>
        <time>2018-11-08T13:59:43Z</time>
      </trkpt>
      <trkpt lat="37.1426041424" lon="-2.0938592590">
        <ele>426.96</ele>
        <time>2018-11-08T13:59:44Z</time>
      </trkpt>
      <trkpt lat="37.1426277794" lon="-2.0937846601">
        <ele>426.48</ele>
        <time>2018-11-08T13:59:45Z</time>
      </trkpt>
      <trkpt lat="37.1426442079" lon="-2.0937027689">
        <ele>426.00</ele>
        <time>2018-11-08T13:59:46Z</time>
      </trkpt>
      <trkpt lat="37.1426569484" lon="-2.0936092269">
        <ele>425.52</ele>
        <time>2018-11-08T13:59:47Z</time>
      </trkpt>
      <trkpt lat="37.1426681802" lon="-2.0935146790">
        <ele>425.04</ele>
        <time>2018-11-08T13:59:48Z</time>
      </trkpt>
      <trkpt lat="37.1427064016" lon="-2.0933174528">
        <ele>424.08</ele>
        <time>2018-11-08T13:59:50Z</time>
      </trkpt>
      <trkpt lat="37.1427380852" lon="-2.0932137687">
        <ele>423.60</ele>
        <time>2018-11-08T13:59:51Z</time>
      </trkpt>
      <trkpt lat="37.1427948307" lon="-2.0930133574">
        <ele>423.12</ele>
        <time>2018-11-08T13:59:53Z</time>
      </trkpt>
      <trkpt lat="37.1428126842" lon="-2.0929013751">
        <ele>422.16</ele>
        <time>2018-11-08T13:59:54Z</time>
      </trkpt>
      <trkpt lat="37.1429421008" lon="-2.0921542961">
        <ele>420.71</ele>
        <time>2018-11-08T14:00:01Z</time>
      </trkpt>
      <trkpt lat="37.1430946514" lon="-2.0915928762">
        <ele>420.23</ele>
        <time>2018-11-08T14:00:07Z</time>
      </trkpt>
      <trkpt lat="37.1431288496" lon="-2.0915149245">
        <ele>420.23</ele>
        <time>2018-11-08T14:00:08Z</time>
      </trkpt>
      <trkpt lat="37.1431666519" lon="-2.0914427564">
        <ele>420.23</ele>
        <time>2018-11-08T14:00:09Z</time>
      </trkpt>
      <trkpt lat="37.1434373874" lon="-2.0909618866">
        <ele>419.27</ele>
        <time>2018-11-08T14:00:16Z</time>
      </trkpt>
      <trkpt lat="37.1434519719" lon="-2.0908923168">
        <ele>419.27</ele>
        <time>2018-11-08T14:00:17Z</time>
      </trkpt>
      <trkpt lat="37.1434589289" lon="-2.0908313803">
        <ele>419.27</ele>
        <time>2018-11-08T14:00:18Z</time>
      </trkpt>
      <trkpt lat="37.1435095556" lon="-2.0906263590">
        <ele>418.79</ele>
        <time>2018-11-08T14:00:23Z</time>
      </trkpt>
      <trkpt lat="37.1435228828" lon="-2.0906038117">
        <ele>419.27</ele>
        <time>2018-11-08T14:00:28Z</time>
      </trkpt>
      <trkpt lat="37.1435205359" lon="-2.0906072482">
        <ele>419.75</ele>
        <time>2018-11-08T14:00:43Z</time>
      </trkpt>
      <trkpt lat="37.1435250621" lon="-2.0906042308">
        <ele>420.23</ele>
        <time>2018-11-08T14:01:11Z</time>
      </trkpt>
      <trkpt lat="37.1435215417" lon="-2.0906019676">
        <ele>420.23</ele>
        <time>2018-11-08T14:01:28Z</time>
      </trkpt>
      <trkpt lat="37.1435242239" lon="-2.0906123612">
        <ele>421.19</ele>
        <time>2018-11-08T14:01:46Z</time>
      </trkpt>
      <trkpt lat="37.1435228828" lon="-2.0906126127">
        <ele>421.19</ele>
        <time>2018-11-08T14:01:58Z</time>
      </trkpt>
      <trkpt lat="37.1435238048" lon="-2.0906142890">
        <ele>421.19</ele>
        <time>2018-11-08T14:02:24Z</time>
      </trkpt>
      <trkpt lat="37.1435284149" lon="-2.0906062424">
        <ele>421.19</ele>
        <time>2018-11-08T14:02:39Z</time>
      </trkpt>
      <trkpt lat="37.1435377188" lon="-2.0905980282">
        <ele>420.71</ele>
        <time>2018-11-08T14:02:40Z</time>
      </trkpt>
      <trkpt lat="37.1435486153" lon="-2.0905899815">
        <ele>420.71</ele>
        <time>2018-11-08T14:02:41Z</time>
      </trkpt>
      <trkpt lat="37.1435610205" lon="-2.0905824378">
        <ele>420.71</ele>
        <time>2018-11-08T14:02:42Z</time>
      </trkpt>
      <trkpt lat="37.1435763594" lon="-2.0905758161">
        <ele>420.23</ele>
        <time>2018-11-08T14:02:43Z</time>
      </trkpt>
      <trkpt lat="37.1435936261" lon="-2.0905663446">
        <ele>420.23</ele>
        <time>2018-11-08T14:02:44Z</time>
      </trkpt>
      <trkpt lat="37.1436138265" lon="-2.0905554481">
        <ele>419.75</ele>
        <time>2018-11-08T14:02:45Z</time>
      </trkpt>
      <trkpt lat="37.1436336078" lon="-2.0905473176">
        <ele>419.75</ele>
        <time>2018-11-08T14:02:46Z</time>
      </trkpt>
      <trkpt lat="37.1438404731" lon="-2.0904732216">
        <ele>418.31</ele>
        <time>2018-11-08T14:02:53Z</time>
      </trkpt>
      <trkpt lat="37.1440425608" lon="-2.0902771689">
        <ele>415.91</ele>
        <time>2018-11-08T14:03:00Z</time>
      </trkpt>
      <trkpt lat="37.1441587340" lon="-2.0901768375">
        <ele>414.47</ele>
        <time>2018-11-08T14:03:05Z</time>
      </trkpt>
      <trkpt lat="37.1443433873" lon="-2.0900960360">
        <ele>414.47</ele>
        <time>2018-11-08T14:03:11Z</time>
      </trkpt>
      <trkpt lat="37.1445011348" lon="-2.0899972133">
        <ele>414.47</ele>
        <time>2018-11-08T14:03:16Z</time>
      </trkpt>
      <trkpt lat="37.1446772385" lon="-2.0898601692">
        <ele>412.06</ele>
        <time>2018-11-08T14:03:20Z</time>
      </trkpt>
      <trkpt lat="37.1447296254" lon="-2.0898368675">
        <ele>411.58</ele>
        <time>2018-11-08T14:03:21Z</time>
      </trkpt>
      <trkpt lat="37.1447834373" lon="-2.0898247138">
        <ele>411.10</ele>
        <time>2018-11-08T14:03:22Z</time>
      </trkpt>
      <trkpt lat="37.1449665818" lon="-2.0897836424">
        <ele>408.22</ele>
        <time>2018-11-08T14:03:26Z</time>
      </trkpt>
      <trkpt lat="37.1450092457" lon="-2.0897627715">
        <ele>407.74</ele>
        <time>2018-11-08T14:03:27Z</time>
      </trkpt>
      <trkpt lat="37.1450400073" lon="-2.0897347759">
        <ele>407.26</ele>
        <time>2018-11-08T14:03:28Z</time>
      </trkpt>
      <trkpt lat="37.1450603753" lon="-2.0896942075">
        <ele>406.77</ele>
        <time>2018-11-08T14:03:29Z</time>
      </trkpt>
      <trkpt lat="37.1450742055" lon="-2.0896420721">
        <ele>406.29</ele>
        <time>2018-11-08T14:03:30Z</time>
      </trkpt>
      <trkpt lat="37.1450801566" lon="-2.0895994920">
        <ele>406.29</ele>
        <time>2018-11-08T14:03:31Z</time>
      </trkpt>
      <trkpt lat="37.1450834256" lon="-2.0895460993">
        <ele>406.77</ele>
        <time>2018-11-08T14:03:32Z</time>
      </trkpt>
      <trkpt lat="37.1450841799" lon="-2.0895056985">
        <ele>406.77</ele>
        <time>2018-11-08T14:03:33Z</time>
      </trkpt>
      <trkpt lat="37.1450752113" lon="-2.0893359650">
        <ele>409.18</ele>
        <time>2018-11-08T14:03:39Z</time>
      </trkpt>
      <trkpt lat="37.1451008599" lon="-2.0891356375">
        <ele>411.10</ele>
        <time>2018-11-08T14:03:47Z</time>
      </trkpt>
      <trkpt lat="37.1451371536" lon="-2.0889384113">
        <ele>413.98</ele>
        <time>2018-11-08T14:03:55Z</time>
      </trkpt>
      <trkpt lat="37.1451778896" lon="-2.0886811707">
        <ele>415.91</ele>
        <time>2018-11-08T14:04:04Z</time>
      </trkpt>
      <trkpt lat="37.1451919712" lon="-2.0884510875">
        <ele>416.87</ele>
        <time>2018-11-08T14:04:13Z</time>
      </trkpt>
      <trkpt lat="37.1451228205" lon="-2.0881784242">
        <ele>416.39</ele>
        <time>2018-11-08T14:04:22Z</time>
      </trkpt>
      <trkpt lat="37.1449944098" lon="-2.0879498497">
        <ele>416.87</ele>
        <time>2018-11-08T14:04:29Z</time>
      </trkpt>
      <trkpt lat="37.1448105108" lon="-2.0876960456">
        <ele>415.91</ele>
        <time>2018-11-08T14:04:37Z</time>
      </trkpt>
      <trkpt lat="37.1445812657" lon="-2.0874059480">
        <ele>414.95</ele>
        <time>2018-11-08T14:04:46Z</time>
      </trkpt>
      <trkpt lat="37.1444461495" lon="-2.0871719252">
        <ele>413.02</ele>
        <time>2018-11-08T14:04:53Z</time>
      </trkpt>
      <trkpt lat="37.1443915833" lon="-2.0869064704">
        <ele>411.10</ele>
        <time>2018-11-08T14:04:58Z</time>
      </trkpt>
      <trkpt lat="37.1443673596" lon="-2.0864333957">
        <ele>409.66</ele>
        <time>2018-11-08T14:05:04Z</time>
      </trkpt>
      <trkpt lat="37.1443490032" lon="-2.0862853713">
        <ele>409.66</ele>
        <time>2018-11-08T14:05:06Z</time>
      </trkpt>
      <trkpt lat="37.1443341672" lon="-2.0862227585">
        <ele>409.66</ele>
        <time>2018-11-08T14:05:07Z</time>
      </trkpt>
      <trkpt lat="37.1443108656" lon="-2.0861603972">
        <ele>409.66</ele>
        <time>2018-11-08T14:05:08Z</time>
      </trkpt>
      <trkpt lat="37.1442791820" lon="-2.0861059148">
        <ele>409.18</ele>
        <time>2018-11-08T14:05:09Z</time>
      </trkpt>
      <trkpt lat="37.1442419663" lon="-2.0860532764">
        <ele>408.70</ele>
        <time>2018-11-08T14:05:10Z</time>
      </trkpt>
      <trkpt lat="37.1439615078" lon="-2.0856368635">
        <ele>405.33</ele>
        <time>2018-11-08T14:05:17Z</time>
      </trkpt>
      <trkpt lat="37.1439145692" lon="-2.0855890028">
        <ele>404.37</ele>
        <time>2018-11-08T14:05:18Z</time>
      </trkpt>
      <trkpt lat="37.1438637748" lon="-2.0855459198">
        <ele>403.89</ele>
        <time>2018-11-08T14:05:19Z</time>
      </trkpt>
      <trkpt lat="37.1438165009" lon="-2.0855084527">
        <ele>402.93</ele>
        <time>2018-11-08T14:05:20Z</time>
      </trkpt>
      <trkpt lat="37.1437768545" lon="-2.0854627714">
        <ele>401.49</ele>
        <time>2018-11-08T14:05:21Z</time>
      </trkpt>
      <trkpt lat="37.1437509544" lon="-2.0854066126">
        <ele>401.01</ele>
        <time>2018-11-08T14:05:22Z</time>
      </trkpt>
      <trkpt lat="37.1437358670" lon="-2.0853370428">
        <ele>400.05</ele>
        <time>2018-11-08T14:05:23Z</time>
      </trkpt>
      <trkpt lat="37.1437279880" lon="-2.0852702390">
        <ele>399.08</ele>
        <time>2018-11-08T14:05:24Z</time>
      </trkpt>
      <trkpt lat="37.1437070332" lon="-2.0850079693">
        <ele>396.20</ele>
        <time>2018-11-08T14:05:29Z</time>
      </trkpt>
      <trkpt lat="37.1436168440" lon="-2.0846194681">
        <ele>395.24</ele>
        <time>2018-11-08T14:05:38Z</time>
      </trkpt>
      <trkpt lat="37.1436212026" lon="-2.0843559410">
        <ele>394.28</ele>
        <time>2018-11-08T14:05:44Z</time>
      </trkpt>
      <trkpt lat="37.1437009145" lon="-2.0841470640">
        <ele>394.76</ele>
        <time>2018-11-08T14:05:51Z</time>
      </trkpt>
      <trkpt lat="37.1437331010" lon="-2.0838801842">
        <ele>394.76</ele>
        <time>2018-11-08T14:05:58Z</time>
      </trkpt>
      <trkpt lat="37.1437365375" lon="-2.0838438906">
        <ele>394.28</ele>
        <time>2018-11-08T14:06:03Z</time>
      </trkpt>
      <trkpt lat="37.1437325142" lon="-2.0838450640">
        <ele>393.80</ele>
        <time>2018-11-08T14:06:17Z</time>
      </trkpt>
      <trkpt lat="37.1437230427" lon="-2.0838296413">
        <ele>393.32</ele>
        <time>2018-11-08T14:06:27Z</time>
      </trkpt>
      <trkpt lat="37.1437225398" lon="-2.0838291384">
        <ele>393.32</ele>
        <time>2018-11-08T14:06:33Z</time>
      </trkpt>
      <trkpt lat="37.1437225398" lon="-2.0838389453">
        <ele>394.28</ele>
        <time>2018-11-08T14:06:55Z</time>
      </trkpt>
      <trkpt lat="37.1437169239" lon="-2.0838451479">
        <ele>394.28</ele>
        <time>2018-11-08T14:07:15Z</time>
      </trkpt>
      <trkpt lat="37.1437208634" lon="-2.0838401187">
        <ele>394.76</ele>
        <time>2018-11-08T14:07:24Z</time>
      </trkpt>
      <trkpt lat="37.1437225398" lon="-2.0837548748">
        <ele>393.80</ele>
        <time>2018-11-08T14:07:31Z</time>
      </trkpt>
      <trkpt lat="37.1437137388" lon="-2.0834505279">
        <ele>393.32</ele>
        <time>2018-11-08T14:07:40Z</time>
      </trkpt>
      <trkpt lat="37.1436952148" lon="-2.0832268987">
        <ele>393.80</ele>
        <time>2018-11-08T14:07:46Z</time>
      </trkpt>
      <trkpt lat="37.1436149161" lon="-2.0828901976">
        <ele>394.76</ele>
        <time>2018-11-08T14:07:55Z</time>
      </trkpt>
      <trkpt lat="37.1435284149" lon="-2.0826083981">
        <ele>394.76</ele>
        <time>2018-11-08T14:08:02Z</time>
      </trkpt>
      <trkpt lat="37.1434611082" lon="-2.0822865330">
        <ele>393.80</ele>
        <time>2018-11-08T14:08:10Z</time>
      </trkpt>
      <trkpt lat="37.1434636228" lon="-2.0819244348">
        <ele>392.84</ele>
        <time>2018-11-08T14:08:19Z</time>
      </trkpt>
      <trkpt lat="37.1435734257" lon="-2.0815150626">
        <ele>390.91</ele>
        <time>2018-11-08T14:08:28Z</time>
      </trkpt>
      <trkpt lat="37.1438074484" lon="-2.0810480230">
        <ele>389.47</ele>
        <time>2018-11-08T14:08:38Z</time>
      </trkpt>
      <trkpt lat="37.1439557243" lon="-2.0805990044">
        <ele>388.99</ele>
        <time>2018-11-08T14:08:47Z</time>
      </trkpt>
      <trkpt lat="37.1439801995" lon="-2.0801880397">
        <ele>389.47</ele>
        <time>2018-11-08T14:08:56Z</time>
      </trkpt>
      <trkpt lat="37.1439568140" lon="-2.0798064955">
        <ele>389.95</ele>
        <time>2018-11-08T14:09:03Z</time>
      </trkpt>
      <trkpt lat="37.1439077798" lon="-2.0795119554">
        <ele>390.43</ele>
        <time>2018-11-08T14:09:10Z</time>
      </trkpt>
      <trkpt lat="37.1438730787" lon="-2.0793546271">
        <ele>390.91</ele>
        <time>2018-11-08T14:09:18Z</time>
      </trkpt>
      <trkpt lat="37.1438512020" lon="-2.0792169124">
        <ele>390.91</ele>
        <time>2018-11-08T14:09:24Z</time>
      </trkpt>
      <trkpt lat="37.1437726635" lon="-2.0789406449">
        <ele>390.91</ele>
        <time>2018-11-08T14:09:31Z</time>
      </trkpt>
      <trkpt lat="37.1437140740" lon="-2.0786979888">
        <ele>390.43</ele>
        <time>2018-11-08T14:09:37Z</time>
      </trkpt>
      <trkpt lat="37.1438165009" lon="-2.0784953982">
        <ele>390.43</ele>
        <time>2018-11-08T14:09:44Z</time>
      </trkpt>
      <trkpt lat="37.1439695545" lon="-2.0784584340">
        <ele>390.91</ele>
        <time>2018-11-08T14:09:50Z</time>
      </trkpt>
      <trkpt lat="37.1442101989" lon="-2.0783621259">
        <ele>390.91</ele>
        <time>2018-11-08T14:09:58Z</time>
      </trkpt>
      <trkpt lat="37.1445645019" lon="-2.0781065617">
        <ele>390.91</ele>
        <time>2018-11-08T14:10:09Z</time>
      </trkpt>
      <trkpt lat="37.1449516620" lon="-2.0779018756">
        <ele>391.87</ele>
        <time>2018-11-08T14:10:20Z</time>
      </trkpt>
      <trkpt lat="37.1452993434" lon="-2.0778136980">
        <ele>391.87</ele>
        <time>2018-11-08T14:10:29Z</time>
      </trkpt>
      <trkpt lat="37.1456138324" lon="-2.0777183119">
        <ele>391.39</ele>
        <time>2018-11-08T14:10:38Z</time>
      </trkpt>
      <trkpt lat="37.1457666345" lon="-2.0776593871">
        <ele>390.91</ele>
        <time>2018-11-08T14:10:42Z</time>
      </trkpt>
      <trkpt lat="37.1460771002" lon="-2.0776273683">
        <ele>390.43</ele>
        <time>2018-11-08T14:10:51Z</time>
      </trkpt>
      <trkpt lat="37.1462488454" lon="-2.0776101854">
        <ele>390.43</ele>
        <time>2018-11-08T14:10:56Z</time>
      </trkpt>
      <trkpt lat="37.1462743264" lon="-2.0775908232">
        <ele>390.91</ele>
        <time>2018-11-08T14:10:57Z</time>
      </trkpt>
      <trkpt lat="37.1462917607" lon="-2.0775608998">
        <ele>391.39</ele>
        <time>2018-11-08T14:10:58Z</time>
      </trkpt>
      <trkpt lat="37.1463000588" lon="-2.0775272045">
        <ele>391.87</ele>
        <time>2018-11-08T14:10:59Z</time>
      </trkpt>
      <trkpt lat="37.1462994721" lon="-2.0775106084">
        <ele>391.87</ele>
        <time>2018-11-08T14:11:00Z</time>
      </trkpt>
      <trkpt lat="37.1462914255" lon="-2.0774824452">
        <ele>392.84</ele>
        <time>2018-11-08T14:11:01Z</time>
      </trkpt>
      <trkpt lat="37.1462749131" lon="-2.0774606522">
        <ele>393.32</ele>
        <time>2018-11-08T14:11:02Z</time>
      </trkpt>
      <trkpt lat="37.1462570596" lon="-2.0774443913">
        <ele>393.80</ele>
        <time>2018-11-08T14:11:03Z</time>
      </trkpt>
      <trkpt lat="37.1462423075" lon="-2.0774359256">
        <ele>394.28</ele>
        <time>2018-11-08T14:11:04Z</time>
      </trkpt>
      <trkpt lat="37.1462161560" lon="-2.0774243586">
        <ele>395.24</ele>
        <time>2018-11-08T14:11:05Z</time>
      </trkpt>
      <trkpt lat="37.1461968776" lon="-2.0774194971">
        <ele>395.72</ele>
        <time>2018-11-08T14:11:06Z</time>
      </trkpt>
      <trkpt lat="37.1461755037" lon="-2.0774191618">
        <ele>396.20</ele>
        <time>2018-11-08T14:11:07Z</time>
      </trkpt>
      <trkpt lat="37.1461547166" lon="-2.0774170663">
        <ele>396.68</ele>
        <time>2018-11-08T14:11:08Z</time>
      </trkpt>
      <trkpt lat="37.1461326722" lon="-2.0774125401">
        <ele>397.16</ele>
        <time>2018-11-08T14:11:09Z</time>
      </trkpt>
      <trkpt lat="37.1461066045" lon="-2.0774063375">
        <ele>397.64</ele>
        <time>2018-11-08T14:11:10Z</time>
      </trkpt>
      <trkpt lat="37.1460843924" lon="-2.0774015598">
        <ele>398.12</ele>
        <time>2018-11-08T14:11:11Z</time>
      </trkpt>
      <trkpt lat="37.1460600011" lon="-2.0773977879">
        <ele>398.12</ele>
        <time>2018-11-08T14:11:12Z</time>
      </trkpt>
      <trkpt lat="37.1460335143" lon="-2.0773926750">
        <ele>398.60</ele>
        <time>2018-11-08T14:11:13Z</time>
      </trkpt>
      <trkpt lat="37.1460125595" lon="-2.0773858856">
        <ele>398.60</ele>
        <time>2018-11-08T14:11:14Z</time>
      </trkpt>
      <trkpt lat="37.1459902637" lon="-2.0773836225">
        <ele>398.60</ele>
        <time>2018-11-08T14:11:15Z</time>
      </trkpt>
      <trkpt lat="37.1459668782" lon="-2.0773794316">
        <ele>399.08</ele>
        <time>2018-11-08T14:11:16Z</time>
      </trkpt>
      <trkpt lat="37.1459446661" lon="-2.0773714688">
        <ele>399.08</ele>
        <time>2018-11-08T14:11:17Z</time>
      </trkpt>
      <trkpt lat="37.1459222026" lon="-2.0773625001">
        <ele>399.08</ele>
        <time>2018-11-08T14:11:18Z</time>
      </trkpt>
      <trkpt lat="37.1459024213" lon="-2.0773470774">
        <ele>399.08</ele>
        <time>2018-11-08T14:11:19Z</time>
      </trkpt>
      <trkpt lat="37.1458860766" lon="-2.0773195010">
        <ele>399.08</ele>
        <time>2018-11-08T14:11:20Z</time>
      </trkpt>
      <trkpt lat="37.1458774433" lon="-2.0772991329">
        <ele>399.08</ele>
        <time>2018-11-08T14:11:21Z</time>
      </trkpt>
      <trkpt lat="37.1458645351" lon="-2.0772716403">
        <ele>399.08</ele>
        <time>2018-11-08T14:11:22Z</time>
      </trkpt>
      <trkpt lat="37.1458543930" lon="-2.0772519428">
        <ele>398.60</ele>
        <time>2018-11-08T14:11:23Z</time>
      </trkpt>
      <trkpt lat="37.1458421554" lon="-2.0772353467">
        <ele>398.60</ele>
        <time>2018-11-08T14:11:24Z</time>
      </trkpt>
      <trkpt lat="37.1458341088" lon="-2.0772211812">
        <ele>398.12</ele>
        <time>2018-11-08T14:11:30Z</time>
      </trkpt>
      <trkpt lat="37.1458394732" lon="-2.0771908388">
        <ele>401.49</ele>
        <time>2018-11-08T14:11:49Z</time>
      </trkpt>
      <trkpt lat="37.1458349470" lon="-2.0771818701">
        <ele>401.49</ele>
        <time>2018-11-08T14:11:50Z</time>
      </trkpt>
      <trkpt lat="37.1458257269" lon="-2.0771617536">
        <ele>401.49</ele>
        <time>2018-11-08T14:11:51Z</time>
      </trkpt>
      <trkpt lat="37.1457233839" lon="-2.0769275632">
        <ele>401.97</ele>
        <time>2018-11-08T14:11:58Z</time>
      </trkpt>
      <trkpt lat="37.1456079651" lon="-2.0765865035">
        <ele>401.97</ele>
        <time>2018-11-08T14:12:09Z</time>
      </trkpt>
      <trkpt lat="37.1456090547" lon="-2.0765108149">
        <ele>401.97</ele>
        <time>2018-11-08T14:12:12Z</time>
      </trkpt>
      <trkpt lat="37.1456196997" lon="-2.0764954761">
        <ele>401.97</ele>
        <time>2018-11-08T14:12:13Z</time>
      </trkpt>
      <trkpt lat="37.1456301771" lon="-2.0764857531">
        <ele>401.97</ele>
        <time>2018-11-08T14:12:14Z</time>
      </trkpt>
      <trkpt lat="37.1456384752" lon="-2.0764818974">
        <ele>401.97</ele>
        <time>2018-11-08T14:12:20Z</time>
      </trkpt>
      <trkpt lat="37.1456328593" lon="-2.0764663070">
        <ele>401.01</ele>
        <time>2018-11-08T14:12:37Z</time>
      </trkpt>
      <trkpt lat="37.1456434205" lon="-2.0764700789">
        <ele>402.93</ele>
        <time>2018-11-08T14:12:48Z</time>
      </trkpt>
      <trkpt lat="37.1456348710" lon="-2.0765010081">
        <ele>404.37</ele>
        <time>2018-11-08T14:13:08Z</time>
      </trkpt>
      <trkpt lat="37.1456306800" lon="-2.0765139163">
        <ele>403.89</ele>
        <time>2018-11-08T14:13:21Z</time>
      </trkpt>
      <trkpt lat="37.1456189454" lon="-2.0765077975">
        <ele>404.85</ele>
        <time>2018-11-08T14:13:39Z</time>
      </trkpt>
      <trkpt lat="37.1456166822" lon="-2.0765177719">
        <ele>405.81</ele>
        <time>2018-11-08T14:13:51Z</time>
      </trkpt>
      <trkpt lat="37.1456166822" lon="-2.0765387267">
        <ele>404.85</ele>
        <time>2018-11-08T14:14:07Z</time>
      </trkpt>
      <trkpt lat="37.1456055343" lon="-2.0765522216">
        <ele>404.37</ele>
        <time>2018-11-08T14:14:18Z</time>
      </trkpt>
      <trkpt lat="37.1455945540" lon="-2.0765602682">
        <ele>404.37</ele>
        <time>2018-11-08T14:14:34Z</time>
      </trkpt>
      <trkpt lat="37.1456014272" lon="-2.0765416604">
        <ele>406.29</ele>
        <time>2018-11-08T14:14:48Z</time>
      </trkpt>
      <trkpt lat="37.1455979068" lon="-2.0765497070">
        <ele>406.29</ele>
        <time>2018-11-08T14:15:02Z</time>
      </trkpt>
      <trkpt lat="37.1455915365" lon="-2.0765780378">
        <ele>404.37</ele>
        <time>2018-11-08T14:15:16Z</time>
      </trkpt>
      <trkpt lat="37.1456046123" lon="-2.0765869226">
        <ele>402.45</ele>
        <time>2018-11-08T14:15:30Z</time>
      </trkpt>
      <trkpt lat="37.1456031036" lon="-2.0765709132">
        <ele>401.97</ele>
        <time>2018-11-08T14:15:43Z</time>
      </trkpt>
      <trkpt lat="37.1456062887" lon="-2.0765595138">
        <ele>403.41</ele>
        <time>2018-11-08T14:15:54Z</time>
      </trkpt>
      <trkpt lat="37.1455916204" lon="-2.0765594300">
        <ele>402.45</ele>
        <time>2018-11-08T14:16:05Z</time>
      </trkpt>
      <trkpt lat="37.1455932967" lon="-2.0765577536">
        <ele>401.97</ele>
        <time>2018-11-08T14:16:17Z</time>
      </trkpt>
      <trkpt lat="37.1456041932" lon="-2.0765508804">
        <ele>401.97</ele>
        <time>2018-11-08T14:16:30Z</time>
      </trkpt>
      <trkpt lat="37.1456089709" lon="-2.0765558258">
        <ele>402.93</ele>
        <time>2018-11-08T14:16:42Z</time>
      </trkpt>
      <trkpt lat="37.1456167661" lon="-2.0765534788">
        <ele>402.93</ele>
        <time>2018-11-08T14:16:54Z</time>
      </trkpt>
      <trkpt lat="37.1456314344" lon="-2.0765468571">
        <ele>404.37</ele>
        <time>2018-11-08T14:17:09Z</time>
      </trkpt>
      <trkpt lat="37.1456378885" lon="-2.0765463542">
        <ele>405.33</ele>
        <time>2018-11-08T14:17:24Z</time>
      </trkpt>
      <trkpt lat="37.1456269920" lon="-2.0765488688">
        <ele>405.81</ele>
        <time>2018-11-08T14:17:38Z</time>
      </trkpt>
      <trkpt lat="37.1456143353" lon="-2.0765536465">
        <ele>405.33</ele>
        <time>2018-11-08T14:17:54Z</time>
      </trkpt>
      <trkpt lat="37.1456078812" lon="-2.0765628666">
        <ele>406.29</ele>
        <time>2018-11-08T14:18:12Z</time>
      </trkpt>
      <trkpt lat="37.1456018463" lon="-2.0765727572">
        <ele>407.26</ele>
        <time>2018-11-08T14:18:25Z</time>
      </trkpt>
      <trkpt lat="37.1456086356" lon="-2.0765751880">
        <ele>407.26</ele>
        <time>2018-11-08T14:18:39Z</time>
      </trkpt>
      <trkpt lat="37.1456150897" lon="-2.0765773673">
        <ele>405.81</ele>
        <time>2018-11-08T14:18:57Z</time>
      </trkpt>
      <trkpt lat="37.1456081327" lon="-2.0765831508">
        <ele>407.26</ele>
        <time>2018-11-08T14:19:12Z</time>
      </trkpt>
      <trkpt lat="37.1455962304" lon="-2.0765744336">
        <ele>408.22</ele>
        <time>2018-11-08T14:19:29Z</time>
      </trkpt>
      <trkpt lat="37.1455977391" lon="-2.0765777864">
        <ele>407.26</ele>
        <time>2018-11-08T14:19:41Z</time>
      </trkpt>
      <trkpt lat="37.1456097253" lon="-2.0765769482">
        <ele>407.74</ele>
        <time>2018-11-08T14:19:54Z</time>
      </trkpt>
      <trkpt lat="37.1456201188" lon="-2.0765722543">
        <ele>408.22</ele>
        <time>2018-11-08T14:20:06Z</time>
      </trkpt>
      <trkpt lat="37.1456196159" lon="-2.0765672252">
        <ele>409.18</ele>
        <time>2018-11-08T14:20:20Z</time>
      </trkpt>
      <trkpt lat="37.1456113178" lon="-2.0765543170">
        <ele>409.18</ele>
        <time>2018-11-08T14:20:38Z</time>
      </trkpt>
      <trkpt lat="37.1456016786" lon="-2.0765676443">
        <ele>406.77</ele>
        <time>2018-11-08T14:20:55Z</time>
      </trkpt>
      <trkpt lat="37.1456137486" lon="-2.0765552390">
        <ele>406.29</ele>
        <time>2018-11-08T14:21:13Z</time>
      </trkpt>
      <trkpt lat="37.1456170175" lon="-2.0765498746">
        <ele>405.33</ele>
        <time>2018-11-08T14:21:24Z</time>
      </trkpt>
      <trkpt lat="37.1456157602" lon="-2.0765448455">
        <ele>406.29</ele>
        <time>2018-11-08T14:21:40Z</time>
      </trkpt>
      <trkpt lat="37.1456126589" lon="-2.0765317697">
        <ele>407.74</ele>
        <time>2018-11-08T14:21:55Z</time>
      </trkpt>
      <trkpt lat="37.1456149220" lon="-2.0765250642">
        <ele>407.26</ele>
        <time>2018-11-08T14:22:04Z</time>
      </trkpt>
      <trkpt lat="37.1455943864" lon="-2.0765257347">
        <ele>406.77</ele>
        <time>2018-11-08T14:22:14Z</time>
      </trkpt>
      <trkpt lat="37.1455863398" lon="-2.0765207894">
        <ele>406.77</ele>
        <time>2018-11-08T14:22:15Z</time>
      </trkpt>
      <trkpt lat="37.1455792990" lon="-2.0765103120">
        <ele>406.77</ele>
        <time>2018-11-08T14:22:16Z</time>
      </trkpt>
      <trkpt lat="37.1455741860" lon="-2.0764988288">
        <ele>406.77</ele>
        <time>2018-11-08T14:22:17Z</time>
      </trkpt>
      <trkpt lat="37.1455704980" lon="-2.0764863398">
        <ele>406.77</ele>
        <time>2018-11-08T14:22:18Z</time>
      </trkpt>
      <trkpt lat="37.1455653012" lon="-2.0764720906">
        <ele>407.26</ele>
        <time>2018-11-08T14:22:19Z</time>
      </trkpt>
      <trkpt lat="37.1455605235" lon="-2.0764570031">
        <ele>407.26</ele>
        <time>2018-11-08T14:22:20Z</time>
      </trkpt>
      <trkpt lat="37.1455143392" lon="-2.0762992557">
        <ele>408.22</ele>
        <time>2018-11-08T14:22:31Z</time>
      </trkpt>
      <trkpt lat="37.1454999223" lon="-2.0762631297">
        <ele>407.26</ele>
        <time>2018-11-08T14:22:38Z</time>
      </trkpt>
      <trkpt lat="37.1455171052" lon="-2.0762487128">
        <ele>405.81</ele>
        <time>2018-11-08T14:22:45Z</time>
      </trkpt>
      <trkpt lat="37.1455394011" lon="-2.0762254111">
        <ele>406.29</ele>
        <time>2018-11-08T14:22:51Z</time>
      </trkpt>
      <trkpt lat="37.1455423348" lon="-2.0762099884">
        <ele>405.81</ele>
        <time>2018-11-08T14:22:57Z</time>
      </trkpt>
      <trkpt lat="37.1455379762" lon="-2.0762210526">
        <ele>405.81</ele>
        <time>2018-11-08T14:23:10Z</time>
      </trkpt>
      <trkpt lat="37.1455345396" lon="-2.0762129221">
        <ele>401.97</ele>
        <time>2018-11-08T14:23:30Z</time>
      </trkpt>
      <trkpt lat="37.1455346234" lon="-2.0762184542">
        <ele>399.08</ele>
        <time>2018-11-08T14:23:44Z</time>
      </trkpt>
      <trkpt lat="37.1455399040" lon="-2.0762135927">
        <ele>397.16</ele>
        <time>2018-11-08T14:23:56Z</time>
      </trkpt>
      <trkpt lat="37.1455508005" lon="-2.0762149338">
        <ele>397.16</ele>
        <time>2018-11-08T14:24:07Z</time>
      </trkpt>
      <trkpt lat="37.1455496270" lon="-2.0762133412">
        <ele>396.20</ele>
        <time>2018-11-08T14:24:17Z</time>
      </trkpt>
      <trkpt lat="37.1455379762" lon="-2.0762300212">
        <ele>395.72</ele>
        <time>2018-11-08T14:24:28Z</time>
      </trkpt>
      <trkpt lat="37.1455424186" lon="-2.0761950687">
        <ele>398.12</ele>
        <time>2018-11-08T14:24:35Z</time>
      </trkpt>
      <trkpt lat="37.1455409937" lon="-2.0761399157">
        <ele>403.41</ele>
        <time>2018-11-08T14:24:50Z</time>
      </trkpt>
      <trkpt lat="37.1455553267" lon="-2.0761338808">
        <ele>406.29</ele>
        <time>2018-11-08T14:25:09Z</time>
      </trkpt>
      <trkpt lat="37.1455905307" lon="-2.0761389099">
        <ele>405.81</ele>
        <time>2018-11-08T14:25:30Z</time>
      </trkpt>
      <trkpt lat="37.1455869265" lon="-2.0761060528">
        <ele>403.89</ele>
        <time>2018-11-08T14:25:49Z</time>
      </trkpt>
      <trkpt lat="37.1455850825" lon="-2.0761156082">
        <ele>401.97</ele>
        <time>2018-11-08T14:26:06Z</time>
      </trkpt>
      <trkpt lat="37.1455484536" lon="-2.0761363953">
        <ele>397.16</ele>
        <time>2018-11-08T14:26:21Z</time>
      </trkpt>
      <trkpt lat="37.1455324441" lon="-2.0761275943">
        <ele>395.24</ele>
        <time>2018-11-08T14:26:40Z</time>
      </trkpt>
      <trkpt lat="37.1455532312" lon="-2.0761500578">
        <ele>394.28</ele>
        <time>2018-11-08T14:26:58Z</time>
      </trkpt>
      <trkpt lat="37.1455601882" lon="-2.0761346351">
        <ele>392.36</ele>
        <time>2018-11-08T14:27:15Z</time>
      </trkpt>
      <trkpt lat="37.1455770358" lon="-2.0761160273">
        <ele>392.84</ele>
        <time>2018-11-08T14:27:35Z</time>
      </trkpt>
      <trkpt lat="37.1456123237" lon="-2.0761399996">
        <ele>394.28</ele>
        <time>2018-11-08T14:27:55Z</time>
      </trkpt>
      <trkpt lat="37.1456023492" lon="-2.0761348866">
        <ele>395.24</ele>
        <time>2018-11-08T14:28:12Z</time>
      </trkpt>
      <trkpt lat="37.1455851663" lon="-2.0761097409">
        <ele>396.20</ele>
        <time>2018-11-08T14:28:31Z</time>
      </trkpt>
      <trkpt lat="37.1455627866" lon="-2.0760861877">
        <ele>398.12</ele>
        <time>2018-11-08T14:28:49Z</time>
      </trkpt>
      <trkpt lat="37.1455839928" lon="-2.0761147700">
        <ele>397.16</ele>
        <time>2018-11-08T14:29:04Z</time>
      </trkpt>
      <trkpt lat="37.1455996670" lon="-2.0764848311">
        <ele>413.98</ele>
        <time>2018-11-09T06:22:32Z</time>
      </trkpt>
      <trkpt lat="37.1456455998" lon="-2.0763826557">
        <ele>414.47</ele>
        <time>2018-11-09T06:22:41Z</time>
      </trkpt>
      <trkpt lat="37.1455855016" lon="-2.0762547478">
        <ele>411.10</ele>
        <time>2018-11-09T06:22:54Z</time>
      </trkpt>
      <trkpt lat="37.1454704180" lon="-2.0761482976">
        <ele>404.37</ele>
        <time>2018-11-09T06:23:35Z</time>
      </trkpt>
      <trkpt lat="37.1454625390" lon="-2.0761749521">
        <ele>401.01</ele>
        <time>2018-11-09T06:23:47Z</time>
      </trkpt>
      <trkpt lat="37.1454706695" lon="-2.0761699229">
        <ele>400.05</ele>
        <time>2018-11-09T06:24:01Z</time>
      </trkpt>
      <trkpt lat="37.1454710886" lon="-2.0761704259">
        <ele>397.64</ele>
        <time>2018-11-09T06:24:13Z</time>
      </trkpt>
      <trkpt lat="37.1454698313" lon="-2.0761770476">
        <ele>396.68</ele>
        <time>2018-11-09T06:24:20Z</time>
      </trkpt>
      <trkpt lat="37.1454710048" lon="-2.0761875249">
        <ele>396.68</ele>
        <time>2018-11-09T06:24:28Z</time>
      </trkpt>
      <trkpt lat="37.1454746090" lon="-2.0762020256">
        <ele>396.68</ele>
        <time>2018-11-09T06:24:34Z</time>
      </trkpt>
      <trkpt lat="37.1454945579" lon="-2.0761565957">
        <ele>392.36</ele>
        <time>2018-11-09T06:24:45Z</time>
      </trkpt>
      <trkpt lat="37.1455435921" lon="-2.0761900395">
        <ele>388.99</ele>
        <time>2018-11-09T06:25:01Z</time>
      </trkpt>
      <trkpt lat="37.1455461904" lon="-2.0762102399">
        <ele>391.87</ele>
        <time>2018-11-09T06:25:10Z</time>
      </trkpt>
      <trkpt lat="37.1455755271" lon="-2.0763452724">
        <ele>394.28</ele>
        <time>2018-11-09T06:25:21Z</time>
      </trkpt>
      <trkpt lat="37.1455958113" lon="-2.0764011797">
        <ele>395.72</ele>
        <time>2018-11-09T06:25:30Z</time>
      </trkpt>
      <trkpt lat="37.1455937158" lon="-2.0764202066">
        <ele>395.72</ele>
        <time>2018-11-09T06:25:42Z</time>
      </trkpt>
      <trkpt lat="37.1455920395" lon="-2.0764185302">
        <ele>396.20</ele>
        <time>2018-11-09T06:25:57Z</time>
      </trkpt>
      <trkpt lat="37.1455925424" lon="-2.0764189493">
        <ele>397.16</ele>
        <time>2018-11-09T06:26:16Z</time>
      </trkpt>
      <trkpt lat="37.1455909498" lon="-2.0764357969">
        <ele>397.16</ele>
        <time>2018-11-09T06:26:35Z</time>
      </trkpt>
      <trkpt lat="37.1455900278" lon="-2.0764502976">
        <ele>398.12</ele>
        <time>2018-11-09T06:26:43Z</time>
      </trkpt>
      <trkpt lat="37.1455911174" lon="-2.0764528960">
        <ele>398.12</ele>
        <time>2018-11-09T06:26:44Z</time>
      </trkpt>
      <trkpt lat="37.1455473639" lon="-2.0765597653">
        <ele>397.64</ele>
        <time>2018-11-09T06:26:51Z</time>
      </trkpt>
      <trkpt lat="37.1454197913" lon="-2.0766440034">
        <ele>397.16</ele>
        <time>2018-11-09T06:26:59Z</time>
      </trkpt>
      <trkpt lat="37.1452764608" lon="-2.0767197758">
        <ele>397.16</ele>
        <time>2018-11-09T06:27:07Z</time>
      </trkpt>
      <trkpt lat="37.1452618763" lon="-2.0767280739">
        <ele>397.16</ele>
        <time>2018-11-09T06:27:08Z</time>
      </trkpt>
      <trkpt lat="37.1452221461" lon="-2.0767404791">
        <ele>397.16</ele>
        <time>2018-11-09T06:27:10Z</time>
      </trkpt>
      <trkpt lat="37.1451763809" lon="-2.0767276548">
        <ele>397.16</ele>
        <time>2018-11-09T06:27:12Z</time>
      </trkpt>
      <trkpt lat="37.1451581921" lon="-2.0767108910">
        <ele>397.16</ele>
        <time>2018-11-09T06:27:13Z</time>
      </trkpt>
      <trkpt lat="37.1451464575" lon="-2.0766937081">
        <ele>397.16</ele>
        <time>2018-11-09T06:27:14Z</time>
      </trkpt>
      <trkpt lat="37.1451345552" lon="-2.0766678918">
        <ele>397.16</ele>
        <time>2018-11-09T06:27:15Z</time>
      </trkpt>
      <trkpt lat="37.1450746246" lon="-2.0764928777">
        <ele>397.64</ele>
        <time>2018-11-09T06:27:21Z</time>
      </trkpt>
      <trkpt lat="37.1449794061" lon="-2.0761804841">
        <ele>397.64</ele>
        <time>2018-11-09T06:27:30Z</time>
      </trkpt>
      <trkpt lat="37.1448944975" lon="-2.0759279374">
        <ele>396.68</ele>
        <time>2018-11-09T06:27:37Z</time>
      </trkpt>
      <trkpt lat="37.1447632369" lon="-2.0755490754">
        <ele>396.20</ele>
        <time>2018-11-09T06:27:47Z</time>
      </trkpt>
      <trkpt lat="37.1446665097" lon="-2.0752626657">
        <ele>395.72</ele>
        <time>2018-11-09T06:27:55Z</time>
      </trkpt>
      <trkpt lat="37.1446522605" lon="-2.0752469916">
        <ele>395.72</ele>
        <time>2018-11-09T06:27:56Z</time>
      </trkpt>
      <trkpt lat="37.1444844548" lon="-2.0752381906">
        <ele>394.76</ele>
        <time>2018-11-09T06:28:02Z</time>
      </trkpt>
      <trkpt lat="37.1441572253" lon="-2.0752937626">
        <ele>393.32</ele>
        <time>2018-11-09T06:28:10Z</time>
      </trkpt>
      <trkpt lat="37.1438050177" lon="-2.0753327385">
        <ele>391.39</ele>
        <time>2018-11-09T06:28:17Z</time>
      </trkpt>
      <trkpt lat="37.1433399059" lon="-2.0751947723">
        <ele>389.47</ele>
        <time>2018-11-09T06:28:26Z</time>
      </trkpt>
      <trkpt lat="37.1429189667" lon="-2.0750671159">
        <ele>388.03</ele>
        <time>2018-11-09T06:28:35Z</time>
      </trkpt>
      <trkpt lat="37.1425690223" lon="-2.0749265514">
        <ele>387.55</ele>
        <time>2018-11-09T06:28:43Z</time>
      </trkpt>
      <trkpt lat="37.1422282979" lon="-2.0746733341">
        <ele>387.07</ele>
        <time>2018-11-09T06:28:51Z</time>
      </trkpt>
      <trkpt lat="37.1418969613" lon="-2.0742754452">
        <ele>386.59</ele>
        <time>2018-11-09T06:29:00Z</time>
      </trkpt>
      <trkpt lat="37.1415307559" lon="-2.0738659892">
        <ele>386.59</ele>
        <time>2018-11-09T06:29:10Z</time>
      </trkpt>
      <trkpt lat="37.1411866788" lon="-2.0734834392">
        <ele>386.59</ele>
        <time>2018-11-09T06:29:19Z</time>
      </trkpt>
      <trkpt lat="37.1408027876" lon="-2.0730486698">
        <ele>386.59</ele>
        <time>2018-11-09T06:29:29Z</time>
      </trkpt>
      <trkpt lat="37.1403711196" lon="-2.0724998228">
        <ele>386.59</ele>
        <time>2018-11-09T06:29:41Z</time>
      </trkpt>
      <trkpt lat="37.1400772501" lon="-2.0721723419">
        <ele>386.59</ele>
        <time>2018-11-09T06:29:50Z</time>
      </trkpt>
      <trkpt lat="37.1397176664" lon="-2.0718349703">
        <ele>387.07</ele>
        <time>2018-11-09T06:29:59Z</time>
      </trkpt>
      <trkpt lat="37.1395682171" lon="-2.0716770552">
        <ele>387.55</ele>
        <time>2018-11-09T06:30:03Z</time>
      </trkpt>
      <trkpt lat="37.1392258164" lon="-2.0711973589">
        <ele>388.51</ele>
        <time>2018-11-09T06:30:14Z</time>
      </trkpt>
      <trkpt lat="37.1389225591" lon="-2.0709057525">
        <ele>389.47</ele>
        <time>2018-11-09T06:30:23Z</time>
      </trkpt>
      <trkpt lat="37.1384241711" lon="-2.0705891680">
        <ele>389.95</ele>
        <time>2018-11-09T06:30:36Z</time>
      </trkpt>
      <trkpt lat="37.1380508412" lon="-2.0704067778">
        <ele>389.95</ele>
        <time>2018-11-09T06:30:45Z</time>
      </trkpt>
      <trkpt lat="37.1376964543" lon="-2.0702156704">
        <ele>390.91</ele>
        <time>2018-11-09T06:30:54Z</time>
      </trkpt>
      <trkpt lat="37.1373471804" lon="-2.0698593557">
        <ele>392.36</ele>
        <time>2018-11-09T06:31:05Z</time>
      </trkpt>
      <trkpt lat="37.1370778698" lon="-2.0693895500">
        <ele>392.84</ele>
        <time>2018-11-09T06:31:16Z</time>
      </trkpt>
      <trkpt lat="37.1368247364" lon="-2.0689073391">
        <ele>392.36</ele>
        <time>2018-11-09T06:31:27Z</time>
      </trkpt>
      <trkpt lat="37.1366261691" lon="-2.0684765931">
        <ele>391.87</ele>
        <time>2018-11-09T06:31:36Z</time>
      </trkpt>
      <trkpt lat="37.1365718544" lon="-2.0683686342">
        <ele>391.87</ele>
        <time>2018-11-09T06:31:41Z</time>
      </trkpt>
      <trkpt lat="37.1365686692" lon="-2.0683695562">
        <ele>392.36</ele>
        <time>2018-11-09T06:31:51Z</time>
      </trkpt>
      <trkpt lat="37.1365735307" lon="-2.0683833864">
        <ele>391.87</ele>
        <time>2018-11-09T06:32:07Z</time>
      </trkpt>
      <trkpt lat="37.1365264244" lon="-2.0682850666">
        <ele>391.87</ele>
        <time>2018-11-09T06:32:14Z</time>
      </trkpt>
      <trkpt lat="37.1363978460" lon="-2.0679758582">
        <ele>390.91</ele>
        <time>2018-11-09T06:32:22Z</time>
      </trkpt>
      <trkpt lat="37.1361958422" lon="-2.0674830861">
        <ele>389.47</ele>
        <time>2018-11-09T06:32:31Z</time>
      </trkpt>
      <trkpt lat="37.1359791700" lon="-2.0669418667">
        <ele>388.03</ele>
        <time>2018-11-09T06:32:39Z</time>
      </trkpt>
      <trkpt lat="37.1356183290" lon="-2.0661139861">
        <ele>386.11</ele>
        <time>2018-11-09T06:32:50Z</time>
      </trkpt>
      <trkpt lat="37.1353514493" lon="-2.0656285062">
        <ele>386.11</ele>
        <time>2018-11-09T06:32:58Z</time>
      </trkpt>
      <trkpt lat="37.1351069491" lon="-2.0651074033">
        <ele>388.51</ele>
        <time>2018-11-09T06:33:08Z</time>
      </trkpt>
      <trkpt lat="37.1350490302" lon="-2.0648726262">
        <ele>389.95</ele>
        <time>2018-11-09T06:33:12Z</time>
      </trkpt>
      <trkpt lat="37.1349875908" lon="-2.0644526090">
        <ele>392.36</ele>
        <time>2018-11-09T06:33:21Z</time>
      </trkpt>
      <trkpt lat="37.1349119022" lon="-2.0643107872">
        <ele>392.84</ele>
        <time>2018-11-09T06:33:27Z</time>
      </trkpt>
      <trkpt lat="37.1348963957" lon="-2.0643189177">
        <ele>393.32</ele>
        <time>2018-11-09T06:33:33Z</time>
      </trkpt>
      <trkpt lat="37.1348989103" lon="-2.0643210970">
        <ele>394.28</ele>
        <time>2018-11-09T06:33:55Z</time>
      </trkpt>
      <trkpt lat="37.1348890197" lon="-2.0643252041">
        <ele>394.28</ele>
        <time>2018-11-09T06:33:57Z</time>
      </trkpt>
      <trkpt lat="37.1348720044" lon="-2.0643308200">
        <ele>394.76</ele>
        <time>2018-11-09T06:33:58Z</time>
      </trkpt>
      <trkpt lat="37.1348585095" lon="-2.0643392019">
        <ele>394.76</ele>
        <time>2018-11-09T06:33:59Z</time>
      </trkpt>
      <trkpt lat="37.1348399855" lon="-2.0643540379">
        <ele>394.76</ele>
        <time>2018-11-09T06:34:00Z</time>
      </trkpt>
      <trkpt lat="37.1348213777" lon="-2.0643692091">
        <ele>394.76</ele>
        <time>2018-11-09T06:34:01Z</time>
      </trkpt>
      <trkpt lat="37.1347852517" lon="-2.0644012280">
        <ele>395.24</ele>
        <time>2018-11-09T06:34:03Z</time>
      </trkpt>
      <trkpt lat="37.1347659733" lon="-2.0644242782">
        <ele>395.24</ele>
        <time>2018-11-09T06:34:04Z</time>
      </trkpt>
      <trkpt lat="37.1347436775" lon="-2.0644445624">
        <ele>395.24</ele>
        <time>2018-11-09T06:34:05Z</time>
      </trkpt>
      <trkpt lat="37.1346416697" lon="-2.0645614062">
        <ele>394.76</ele>
        <time>2018-11-09T06:34:11Z</time>
      </trkpt>
      <trkpt lat="37.1345106605" lon="-2.0646804292">
        <ele>394.28</ele>
        <time>2018-11-09T06:34:19Z</time>
      </trkpt>
      <trkpt lat="37.1343984269" lon="-2.0647937525">
        <ele>394.28</ele>
        <time>2018-11-09T06:34:23Z</time>
      </trkpt>
      <trkpt lat="37.1341074072" lon="-2.0651538391">
        <ele>393.80</ele>
        <time>2018-11-09T06:34:32Z</time>
      </trkpt>
      <trkpt lat="37.1337939240" lon="-2.0655194577">
        <ele>393.80</ele>
        <time>2018-11-09T06:34:42Z</time>
      </trkpt>
      <trkpt lat="37.1335474961" lon="-2.0657831524">
        <ele>394.76</ele>
        <time>2018-11-09T06:34:51Z</time>
      </trkpt>
      <trkpt lat="37.1332508605" lon="-2.0660729986">
        <ele>395.24</ele>
        <time>2018-11-09T06:35:01Z</time>
      </trkpt>
      <trkpt lat="37.1329367068" lon="-2.0663545467">
        <ele>395.24</ele>
        <time>2018-11-09T06:35:11Z</time>
      </trkpt>
      <trkpt lat="37.1326894406" lon="-2.0665693749">
        <ele>395.24</ele>
        <time>2018-11-09T06:35:19Z</time>
      </trkpt>
      <trkpt lat="37.1323406696" lon="-2.0668865461">
        <ele>396.20</ele>
        <time>2018-11-09T06:35:31Z</time>
      </trkpt>
      <trkpt lat="37.1320628095" lon="-2.0671349019">
        <ele>396.68</ele>
        <time>2018-11-09T06:35:41Z</time>
      </trkpt>
      <trkpt lat="37.1317999531" lon="-2.0673662424">
        <ele>398.12</ele>
        <time>2018-11-09T06:35:51Z</time>
      </trkpt>
      <trkpt lat="37.1315736417" lon="-2.0675728563">
        <ele>400.05</ele>
        <time>2018-11-09T06:36:00Z</time>
      </trkpt>
      <trkpt lat="37.1313392837" lon="-2.0677813981">
        <ele>401.49</ele>
        <time>2018-11-09T06:36:10Z</time>
      </trkpt>
      <trkpt lat="37.1311160736" lon="-2.0679820608">
        <ele>403.41</ele>
        <time>2018-11-09T06:36:20Z</time>
      </trkpt>
      <trkpt lat="37.1309313364" lon="-2.0681555662">
        <ele>403.89</ele>
        <time>2018-11-09T06:36:29Z</time>
      </trkpt>
      <trkpt lat="37.1307581663" lon="-2.0683439914">
        <ele>404.85</ele>
        <time>2018-11-09T06:36:38Z</time>
      </trkpt>
      <trkpt lat="37.1306188591" lon="-2.0685195923">
        <ele>405.33</ele>
        <time>2018-11-09T06:36:46Z</time>
      </trkpt>
      <trkpt lat="37.1305140015" lon="-2.0686720591">
        <ele>406.29</ele>
        <time>2018-11-09T06:36:53Z</time>
      </trkpt>
      <trkpt lat="37.1303321142" lon="-2.0689415373">
        <ele>407.74</ele>
        <time>2018-11-09T06:37:05Z</time>
      </trkpt>
      <trkpt lat="37.1302081458" lon="-2.0691071637">
        <ele>408.70</ele>
        <time>2018-11-09T06:37:13Z</time>
      </trkpt>
      <trkpt lat="37.1301447786" lon="-2.0691833552">
        <ele>409.18</ele>
        <time>2018-11-09T06:37:20Z</time>
      </trkpt>
      <trkpt lat="37.1301437728" lon="-2.0691816788">
        <ele>409.66</ele>
        <time>2018-11-09T06:37:35Z</time>
      </trkpt>
      <trkpt lat="37.1301510651" lon="-2.0691898093">
        <ele>410.62</ele>
        <time>2018-11-09T06:37:56Z</time>
      </trkpt>
      <trkpt lat="37.1301486343" lon="-2.0691748057">
        <ele>410.14</ele>
        <time>2018-11-09T06:38:09Z</time>
      </trkpt>
      <trkpt lat="37.1301447786" lon="-2.0691704471">
        <ele>409.66</ele>
        <time>2018-11-09T06:38:25Z</time>
      </trkpt>
      <trkpt lat="37.1301250812" lon="-2.0692018792">
        <ele>410.62</ele>
        <time>2018-11-09T06:38:36Z</time>
      </trkpt>
      <trkpt lat="37.1300538350" lon="-2.0692972653">
        <ele>409.66</ele>
        <time>2018-11-09T06:38:42Z</time>
      </trkpt>
      <trkpt lat="37.1298977640" lon="-2.0694598742">
        <ele>410.62</ele>
        <time>2018-11-09T06:38:50Z</time>
      </trkpt>
      <trkpt lat="37.1296659205" lon="-2.0696835034">
        <ele>412.06</ele>
        <time>2018-11-09T06:39:00Z</time>
      </trkpt>
      <trkpt lat="37.1294915769" lon="-2.0698233135">
        <ele>412.06</ele>
        <time>2018-11-09T06:39:08Z</time>
      </trkpt>
      <trkpt lat="37.1292336658" lon="-2.0700313523">
        <ele>413.98</ele>
        <time>2018-11-09T06:39:20Z</time>
      </trkpt>
      <trkpt lat="37.1289990563" lon="-2.0702383853">
        <ele>414.95</ele>
        <time>2018-11-09T06:39:31Z</time>
      </trkpt>
      <trkpt lat="37.1288347710" lon="-2.0703993179">
        <ele>415.91</ele>
        <time>2018-11-09T06:39:40Z</time>
      </trkpt>
      <trkpt lat="37.1287260577" lon="-2.0705176704">
        <ele>416.87</ele>
        <time>2018-11-09T06:39:47Z</time>
      </trkpt>
      <trkpt lat="37.1285776142" lon="-2.0707183331">
        <ele>418.79</ele>
        <time>2018-11-09T06:39:57Z</time>
      </trkpt>
      <trkpt lat="37.1284810547" lon="-2.0708657708">
        <ele>419.27</ele>
        <time>2018-11-09T06:40:05Z</time>
      </trkpt>
      <trkpt lat="37.1283709165" lon="-2.0710577164">
        <ele>420.23</ele>
        <time>2018-11-09T06:40:15Z</time>
      </trkpt>
      <trkpt lat="37.1282186173" lon="-2.0713318046">
        <ele>421.19</ele>
        <time>2018-11-09T06:40:27Z</time>
      </trkpt>
      <trkpt lat="37.1280970797" lon="-2.0715589542">
        <ele>422.16</ele>
        <time>2018-11-09T06:40:37Z</time>
      </trkpt>
      <trkpt lat="37.1279465407" lon="-2.0718463697">
        <ele>422.64</ele>
        <time>2018-11-09T06:40:49Z</time>
      </trkpt>
      <trkpt lat="37.1277936548" lon="-2.0721421670">
        <ele>423.12</ele>
        <time>2018-11-09T06:41:00Z</time>
      </trkpt>
      <trkpt lat="37.1276380867" lon="-2.0724341925">
        <ele>424.08</ele>
        <time>2018-11-09T06:41:11Z</time>
      </trkpt>
      <trkpt lat="37.1274873801" lon="-2.0726677123">
        <ele>425.52</ele>
        <time>2018-11-09T06:41:20Z</time>
      </trkpt>
      <trkpt lat="37.1273211669" lon="-2.0728918444">
        <ele>424.56</ele>
        <time>2018-11-09T06:41:29Z</time>
      </trkpt>
      <trkpt lat="37.1270984598" lon="-2.0731720515">
        <ele>424.56</ele>
        <time>2018-11-09T06:41:41Z</time>
      </trkpt>
      <trkpt lat="37.1268907562" lon="-2.0734060742">
        <ele>423.12</ele>
        <time>2018-11-09T06:41:52Z</time>
      </trkpt>
      <trkpt lat="37.1266606729" lon="-2.0736716967">
        <ele>421.68</ele>
        <time>2018-11-09T06:42:00Z</time>
      </trkpt>
      <trkpt lat="37.1263566613" lon="-2.0739964955">
        <ele>420.71</ele>
        <time>2018-11-09T06:42:09Z</time>
      </trkpt>
      <trkpt lat="37.1260336228" lon="-2.0742121618">
        <ele>418.79</ele>
        <time>2018-11-09T06:42:16Z</time>
      </trkpt>
      <trkpt lat="37.1257257555" lon="-2.0743075479">
        <ele>417.35</ele>
        <time>2018-11-09T06:42:21Z</time>
      </trkpt>
      <trkpt lat="37.1252950095" lon="-2.0742875990">
        <ele>414.95</ele>
        <time>2018-11-09T06:42:27Z</time>
      </trkpt>
      <trkpt lat="37.1246377844" lon="-2.0741969068">
        <ele>412.54</ele>
        <time>2018-11-09T06:42:35Z</time>
      </trkpt>
      <trkpt lat="37.1239190362" lon="-2.0741094835">
        <ele>409.66</ele>
        <time>2018-11-09T06:42:44Z</time>
      </trkpt>
      <trkpt lat="37.1234886255" lon="-2.0740828291">
        <ele>407.74</ele>
        <time>2018-11-09T06:42:51Z</time>
      </trkpt>
      <trkpt lat="37.1231245156" lon="-2.0741244871">
        <ele>407.26</ele>
        <time>2018-11-09T06:42:59Z</time>
      </trkpt>
      <trkpt lat="37.1227189153" lon="-2.0742680691">
        <ele>406.29</ele>
        <time>2018-11-09T06:43:09Z</time>
      </trkpt>
      <trkpt lat="37.1223439090" lon="-2.0743993297">
        <ele>406.29</ele>
        <time>2018-11-09T06:43:19Z</time>
      </trkpt>
      <trkpt lat="37.1219441760" lon="-2.0745127369">
        <ele>405.33</ele>
        <time>2018-11-09T06:43:30Z</time>
      </trkpt>
      <trkpt lat="37.1215512324" lon="-2.0745471027">
        <ele>404.85</ele>
        <time>2018-11-09T06:43:41Z</time>
      </trkpt>
      <trkpt lat="37.1211393457" lon="-2.0744793769">
        <ele>403.89</ele>
        <time>2018-11-09T06:43:50Z</time>
      </trkpt>
      <trkpt lat="37.1206480823" lon="-2.0743129123">
        <ele>402.45</ele>
        <time>2018-11-09T06:43:59Z</time>
      </trkpt>
      <trkpt lat="37.1202968806" lon="-2.0741829090">
        <ele>401.97</ele>
        <time>2018-11-09T06:44:06Z</time>
      </trkpt>
      <trkpt lat="37.1197196189" lon="-2.0739721041">
        <ele>400.05</ele>
        <time>2018-11-09T06:44:18Z</time>
      </trkpt>
      <trkpt lat="37.1190612204" lon="-2.0737284422">
        <ele>397.64</ele>
        <time>2018-11-09T06:44:30Z</time>
      </trkpt>
      <trkpt lat="37.1186461486" lon="-2.0735697728">
        <ele>396.68</ele>
        <time>2018-11-09T06:44:37Z</time>
      </trkpt>
      <trkpt lat="37.1179195214" lon="-2.0733005460">
        <ele>394.28</ele>
        <time>2018-11-09T06:44:49Z</time>
      </trkpt>
      <trkpt lat="37.1175948903" lon="-2.0732044894">
        <ele>392.84</ele>
        <time>2018-11-09T06:44:54Z</time>
      </trkpt>
      <trkpt lat="37.1175282542" lon="-2.0732003823">
        <ele>392.84</ele>
        <time>2018-11-09T06:44:55Z</time>
      </trkpt>
      <trkpt lat="37.1174513083" lon="-2.0732090995">
        <ele>392.84</ele>
        <time>2018-11-09T06:44:56Z</time>
      </trkpt>
      <trkpt lat="37.1173822414" lon="-2.0732237678">
        <ele>392.84</ele>
        <time>2018-11-09T06:44:57Z</time>
      </trkpt>
      <trkpt lat="37.1173120849" lon="-2.0732481591">
        <ele>392.84</ele>
        <time>2018-11-09T06:44:58Z</time>
      </trkpt>
      <trkpt lat="37.1172443591" lon="-2.0732782502">
        <ele>392.84</ele>
        <time>2018-11-09T06:44:59Z</time>
      </trkpt>
      <trkpt lat="37.1171731967" lon="-2.0733177289">
        <ele>392.84</ele>
        <time>2018-11-09T06:45:00Z</time>
      </trkpt>
      <trkpt lat="37.1171145234" lon="-2.0733624045">
        <ele>392.84</ele>
        <time>2018-11-09T06:45:01Z</time>
      </trkpt>
      <trkpt lat="37.1170545928" lon="-2.0734162163">
        <ele>392.36</ele>
        <time>2018-11-09T06:45:02Z</time>
      </trkpt>
      <trkpt lat="37.1170016192" lon="-2.0734769013">
        <ele>391.87</ele>
        <time>2018-11-09T06:45:03Z</time>
      </trkpt>
      <trkpt lat="37.1169540938" lon="-2.0735485666">
        <ele>391.87</ele>
        <time>2018-11-09T06:45:04Z</time>
      </trkpt>
      <trkpt lat="37.1169131901" lon="-2.0736228302">
        <ele>391.39</ele>
        <time>2018-11-09T06:45:05Z</time>
      </trkpt>
      <trkpt lat="37.1168793272" lon="-2.0736963395">
        <ele>391.39</ele>
        <time>2018-11-09T06:45:06Z</time>
      </trkpt>
      <trkpt lat="37.1168544330" lon="-2.0737696812">
        <ele>390.91</ele>
        <time>2018-11-09T06:45:07Z</time>
      </trkpt>
      <trkpt lat="37.1168321371" lon="-2.0738491416">
        <ele>390.91</ele>
        <time>2018-11-09T06:45:08Z</time>
      </trkpt>
      <trkpt lat="37.1167434566" lon="-2.0743555762">
        <ele>388.99</ele>
        <time>2018-11-09T06:45:15Z</time>
      </trkpt>
      <trkpt lat="37.1166608948" lon="-2.0749544632">
        <ele>387.55</ele>
        <time>2018-11-09T06:45:25Z</time>
      </trkpt>
      <trkpt lat="37.1165943425" lon="-2.0753894839">
        <ele>385.63</ele>
        <time>2018-11-09T06:45:34Z</time>
      </trkpt>
      <trkpt lat="37.1165110264" lon="-2.0758664142">
        <ele>384.66</ele>
        <time>2018-11-09T06:45:43Z</time>
      </trkpt>
      <trkpt lat="37.1163378563" lon="-2.0764993317">
        <ele>382.26</ele>
        <time>2018-11-09T06:45:53Z</time>
      </trkpt>
      <trkpt lat="37.1160634328" lon="-2.0771779306">
        <ele>379.38</ele>
        <time>2018-11-09T06:46:02Z</time>
      </trkpt>
      <trkpt lat="37.1156831458" lon="-2.0779983513">
        <ele>376.01</ele>
        <time>2018-11-09T06:46:12Z</time>
      </trkpt>
      <trkpt lat="37.1152016893" lon="-2.0790332649">
        <ele>371.69</ele>
        <time>2018-11-09T06:46:24Z</time>
      </trkpt>
      <trkpt lat="37.1149733663" lon="-2.0795174874">
        <ele>370.24</ele>
        <time>2018-11-09T06:46:31Z</time>
      </trkpt>
      <trkpt lat="37.1146633197" lon="-2.0800027996">
        <ele>368.32</ele>
        <time>2018-11-09T06:46:40Z</time>
      </trkpt>
      <trkpt lat="37.1142830327" lon="-2.0803468768">
        <ele>366.88</ele>
        <time>2018-11-09T06:46:48Z</time>
      </trkpt>
      <trkpt lat="37.1138201840" lon="-2.0806157682">
        <ele>365.92</ele>
        <time>2018-11-09T06:46:57Z</time>
      </trkpt>
      <trkpt lat="37.1132549923" lon="-2.0808936283">
        <ele>364.96</ele>
        <time>2018-11-09T06:47:08Z</time>
      </trkpt>
      <trkpt lat="37.1129286010" lon="-2.0810508728">
        <ele>364.96</ele>
        <time>2018-11-09T06:47:15Z</time>
      </trkpt>
      <trkpt lat="37.1125984378" lon="-2.0812910143">
        <ele>363.52</ele>
        <time>2018-11-09T06:47:24Z</time>
      </trkpt>
      <trkpt lat="37.1123700310" lon="-2.0816174895">
        <ele>363.04</ele>
        <time>2018-11-09T06:47:32Z</time>
      </trkpt>
      <trkpt lat="37.1121259499" lon="-2.0820735488">
        <ele>361.59</ele>
        <time>2018-11-09T06:47:42Z</time>
      </trkpt>
      <trkpt lat="37.1118765045" lon="-2.0825714339">
        <ele>359.67</ele>
        <time>2018-11-09T06:47:53Z</time>
      </trkpt>
      <trkpt lat="37.1116718184" lon="-2.0830162615">
        <ele>357.75</ele>
        <time>2018-11-09T06:48:03Z</time>
      </trkpt>
      <trkpt lat="37.1115797851" lon="-2.0833296608">
        <ele>356.79</ele>
        <time>2018-11-09T06:48:08Z</time>
      </trkpt>
      <trkpt lat="37.1115753427" lon="-2.0834047627">
        <ele>356.31</ele>
        <time>2018-11-09T06:48:09Z</time>
      </trkpt>
      <trkpt lat="37.1115767676" lon="-2.0834822115">
        <ele>355.83</ele>
        <time>2018-11-09T06:48:10Z</time>
      </trkpt>
      <trkpt lat="37.1115851495" lon="-2.0835651923">
        <ele>355.34</ele>
        <time>2018-11-09T06:48:11Z</time>
      </trkpt>
      <trkpt lat="37.1115989797" lon="-2.0836387854">
        <ele>355.34</ele>
        <time>2018-11-09T06:48:12Z</time>
      </trkpt>
      <trkpt lat="37.1116223652" lon="-2.0837174077">
        <ele>354.86</ele>
        <time>2018-11-09T06:48:13Z</time>
      </trkpt>
      <trkpt lat="37.1116533782" lon="-2.0837874804">
        <ele>354.38</ele>
        <time>2018-11-09T06:48:14Z</time>
      </trkpt>
      <trkpt lat="37.1116900072" lon="-2.0838488359">
        <ele>353.90</ele>
        <time>2018-11-09T06:48:15Z</time>
      </trkpt>
      <trkpt lat="37.1117320843" lon="-2.0839013066">
        <ele>353.90</ele>
        <time>2018-11-09T06:48:16Z</time>
      </trkpt>
      <trkpt lat="37.1117807832" lon="-2.0839552861">
        <ele>353.42</ele>
        <time>2018-11-09T06:48:17Z</time>
      </trkpt>
      <trkpt lat="37.1118314937" lon="-2.0839968603">
        <ele>352.94</ele>
        <time>2018-11-09T06:48:18Z</time>
      </trkpt>
      <trkpt lat="37.1118924301" lon="-2.0840335730">
        <ele>352.94</ele>
        <time>2018-11-09T06:48:19Z</time>
      </trkpt>
      <trkpt lat="37.1119546238" lon="-2.0840608981">
        <ele>352.46</ele>
        <time>2018-11-09T06:48:20Z</time>
      </trkpt>
      <trkpt lat="37.1120208409" lon="-2.0840785839">
        <ele>352.46</ele>
        <time>2018-11-09T06:48:21Z</time>
      </trkpt>
      <trkpt lat="37.1120840404" lon="-2.0840867981">
        <ele>352.46</ele>
        <time>2018-11-09T06:48:22Z</time>
      </trkpt>
      <trkpt lat="37.1121478267" lon="-2.0840852056">
        <ele>352.46</ele>
        <time>2018-11-09T06:48:23Z</time>
      </trkpt>
      <trkpt lat="37.1122073382" lon="-2.0840769913">
        <ele>351.98</ele>
        <time>2018-11-09T06:48:24Z</time>
      </trkpt>
      <trkpt lat="37.1122689452" lon="-2.0840639155">
        <ele>351.98</ele>
        <time>2018-11-09T06:48:25Z</time>
      </trkpt>
      <trkpt lat="37.1123334859" lon="-2.0840481576">
        <ele>351.98</ele>
        <time>2018-11-09T06:48:26Z</time>
      </trkpt>
      <trkpt lat="37.1125130262" lon="-2.0840099361">
        <ele>351.98</ele>
        <time>2018-11-09T06:48:29Z</time>
      </trkpt>
      <trkpt lat="37.1130715124" lon="-2.0840494148">
        <ele>350.54</ele>
        <time>2018-11-09T06:48:38Z</time>
      </trkpt>
      <trkpt lat="37.1135414019" lon="-2.0842158794">
        <ele>348.13</ele>
        <time>2018-11-09T06:48:45Z</time>
      </trkpt>
      <trkpt lat="37.1137387957" lon="-2.0843035541">
        <ele>346.69</ele>
        <time>2018-11-09T06:48:50Z</time>
      </trkpt>
      <trkpt lat="37.1138931066" lon="-2.0843710285">
        <ele>346.21</ele>
        <time>2018-11-09T06:48:57Z</time>
      </trkpt>
      <trkpt lat="37.1139430627" lon="-2.0844086632">
        <ele>346.21</ele>
        <time>2018-11-09T06:49:03Z</time>
      </trkpt>
      <trkpt lat="37.1139340103" lon="-2.0843990240">
        <ele>347.65</ele>
        <time>2018-11-09T06:49:16Z</time>
      </trkpt>
      <trkpt lat="37.1139345132" lon="-2.0843977667">
        <ele>347.17</ele>
        <time>2018-11-09T06:49:29Z</time>
      </trkpt>
      <trkpt lat="37.1139336750" lon="-2.0844016224">
        <ele>347.17</ele>
        <time>2018-11-09T06:49:51Z</time>
      </trkpt>
      <trkpt lat="37.1139367763" lon="-2.0844179671">
        <ele>346.69</ele>
        <time>2018-11-09T06:49:59Z</time>
      </trkpt>
      <trkpt lat="37.1139425598" lon="-2.0844355691">
        <ele>346.69</ele>
        <time>2018-11-09T06:50:00Z</time>
      </trkpt>
      <trkpt lat="37.1139537916" lon="-2.0844573621">
        <ele>346.69</ele>
        <time>2018-11-09T06:50:01Z</time>
      </trkpt>
      <trkpt lat="37.1139704715" lon="-2.0844780654">
        <ele>346.69</ele>
        <time>2018-11-09T06:50:02Z</time>
      </trkpt>
      <trkpt lat="37.1139928512" lon="-2.0845015347">
        <ele>346.21</ele>
        <time>2018-11-09T06:50:03Z</time>
      </trkpt>
      <trkpt lat="37.1141136345" lon="-2.0847498067">
        <ele>344.77</ele>
        <time>2018-11-09T06:50:09Z</time>
      </trkpt>
      <trkpt lat="37.1141278837" lon="-2.0848063007">
        <ele>344.77</ele>
        <time>2018-11-09T06:50:10Z</time>
      </trkpt>
      <trkpt lat="37.1141393669" lon="-2.0848731045">
        <ele>344.29</ele>
        <time>2018-11-09T06:50:11Z</time>
      </trkpt>
      <trkpt lat="37.1141476650" lon="-2.0849391539">
        <ele>343.81</ele>
        <time>2018-11-09T06:50:12Z</time>
      </trkpt>
      <trkpt lat="37.1141527779" lon="-2.0850099809">
        <ele>343.81</ele>
        <time>2018-11-09T06:50:13Z</time>
      </trkpt>
      <trkpt lat="37.1141524427" lon="-2.0850813948">
        <ele>343.33</ele>
        <time>2018-11-09T06:50:14Z</time>
      </trkpt>
      <trkpt lat="37.1141454019" lon="-2.0851595141">
        <ele>343.33</ele>
        <time>2018-11-09T06:50:15Z</time>
      </trkpt>
      <trkpt lat="37.1141314041" lon="-2.0852374658">
        <ele>342.85</ele>
        <time>2018-11-09T06:50:16Z</time>
      </trkpt>
      <trkpt lat="37.1141093597" lon="-2.0853115618">
        <ele>342.85</ele>
        <time>2018-11-09T06:50:17Z</time>
      </trkpt>
      <trkpt lat="37.1140771732" lon="-2.0853884239">
        <ele>342.37</ele>
        <time>2018-11-09T06:50:18Z</time>
      </trkpt>
      <trkpt lat="37.1140385326" lon="-2.0854574908">
        <ele>341.89</ele>
        <time>2018-11-09T06:50:19Z</time>
      </trkpt>
      <trkpt lat="37.1139912587" lon="-2.0855273120">
        <ele>341.41</ele>
        <time>2018-11-09T06:50:20Z</time>
      </trkpt>
      <trkpt lat="37.1139393747" lon="-2.0855918527">
        <ele>340.92</ele>
        <time>2018-11-09T06:50:21Z</time>
      </trkpt>
      <trkpt lat="37.1138712298" lon="-2.0856568124">
        <ele>340.44</ele>
        <time>2018-11-09T06:50:22Z</time>
      </trkpt>
      <trkpt lat="37.1138054319" lon="-2.0857043378">
        <ele>339.96</ele>
        <time>2018-11-09T06:50:23Z</time>
      </trkpt>
      <trkpt lat="37.1137310006" lon="-2.0857514441">
        <ele>339.48</ele>
        <time>2018-11-09T06:50:24Z</time>
      </trkpt>
      <trkpt lat="37.1131406631" lon="-2.0860961918">
        <ele>335.16</ele>
        <time>2018-11-09T06:50:32Z</time>
      </trkpt>
      <trkpt lat="37.1127181314" lon="-2.0865442045">
        <ele>332.27</ele>
        <time>2018-11-09T06:50:39Z</time>
      </trkpt>
      <trkpt lat="37.1122252755" lon="-2.0872462727">
        <ele>330.83</ele>
        <time>2018-11-09T06:50:49Z</time>
      </trkpt>
      <trkpt lat="37.1118983813" lon="-2.0876713190">
        <ele>331.31</ele>
        <time>2018-11-09T06:50:57Z</time>
      </trkpt>
      <trkpt lat="37.1114797890" lon="-2.0880798530">
        <ele>331.31</ele>
        <time>2018-11-09T06:51:07Z</time>
      </trkpt>
      <trkpt lat="37.1110791340" lon="-2.0883459784">
        <ele>332.75</ele>
        <time>2018-11-09T06:51:17Z</time>
      </trkpt>
      <trkpt lat="37.1110377274" lon="-2.0883681905">
        <ele>332.75</ele>
        <time>2018-11-09T06:51:18Z</time>
      </trkpt>
      <trkpt lat="37.1106182970" lon="-2.0885665063">
        <ele>334.20</ele>
        <time>2018-11-09T06:51:29Z</time>
      </trkpt>
      <trkpt lat="37.1103066579" lon="-2.0887185540">
        <ele>335.64</ele>
        <time>2018-11-09T06:51:38Z</time>
      </trkpt>
      <trkpt lat="37.1100025624" lon="-2.0888666622">
        <ele>337.56</ele>
        <time>2018-11-09T06:51:47Z</time>
      </trkpt>
      <trkpt lat="37.1096654423" lon="-2.0890471246">
        <ele>338.04</ele>
        <time>2018-11-09T06:51:58Z</time>
      </trkpt>
      <trkpt lat="37.1093774401" lon="-2.0892446861">
        <ele>338.52</ele>
        <time>2018-11-09T06:52:08Z</time>
      </trkpt>
      <trkpt lat="37.1091495361" lon="-2.0894723386">
        <ele>339.48</ele>
        <time>2018-11-09T06:52:18Z</time>
      </trkpt>
      <trkpt lat="37.1089081373" lon="-2.0897736680">
        <ele>339.96</ele>
        <time>2018-11-09T06:52:29Z</time>
      </trkpt>
      <trkpt lat="37.1087793075" lon="-2.0899664517">
        <ele>341.41</ele>
        <time>2018-11-09T06:52:37Z</time>
      </trkpt>
      <trkpt lat="37.1086401679" lon="-2.0901891589">
        <ele>342.85</ele>
        <time>2018-11-09T06:52:46Z</time>
      </trkpt>
      <trkpt lat="37.1084750444" lon="-2.0904858783">
        <ele>343.33</ele>
        <time>2018-11-09T06:52:56Z</time>
      </trkpt>
      <trkpt lat="37.1083150338" lon="-2.0907588769">
        <ele>343.33</ele>
        <time>2018-11-09T06:53:05Z</time>
      </trkpt>
      <trkpt lat="37.1081589628" lon="-2.0909826737">
        <ele>342.85</ele>
        <time>2018-11-09T06:53:14Z</time>
      </trkpt>
      <trkpt lat="37.1081381757" lon="-2.0910224877">
        <ele>342.85</ele>
        <time>2018-11-09T06:53:20Z</time>
      </trkpt>
      <trkpt lat="37.1081346553" lon="-2.0910224039">
        <ele>342.37</ele>
        <time>2018-11-09T06:53:33Z</time>
      </trkpt>
      <trkpt lat="37.1081276145" lon="-2.0910270140">
        <ele>341.89</ele>
        <time>2018-11-09T06:53:37Z</time>
      </trkpt>
      <trkpt lat="37.1081176400" lon="-2.0910345577">
        <ele>341.89</ele>
        <time>2018-11-09T06:53:38Z</time>
      </trkpt>
      <trkpt lat="37.1079987846" lon="-2.0911667403">
        <ele>341.89</ele>
        <time>2018-11-09T06:53:47Z</time>
      </trkpt>
      <trkpt lat="37.1078704577" lon="-2.0912798960">
        <ele>341.41</ele>
        <time>2018-11-09T06:53:54Z</time>
      </trkpt>
      <trkpt lat="37.1076775901" lon="-2.0914260764">
        <ele>340.92</ele>
        <time>2018-11-09T06:54:03Z</time>
      </trkpt>
      <trkpt lat="37.1073684655" lon="-2.0916263200">
        <ele>340.92</ele>
        <time>2018-11-09T06:54:14Z</time>
      </trkpt>
      <trkpt lat="37.1070516296" lon="-2.0918277372">
        <ele>340.44</ele>
        <time>2018-11-09T06:54:23Z</time>
      </trkpt>
      <trkpt lat="37.1066290140" lon="-2.0920967963">
        <ele>339.48</ele>
        <time>2018-11-09T06:54:33Z</time>
      </trkpt>
      <trkpt lat="37.1061971784" lon="-2.0924217626">
        <ele>338.52</ele>
        <time>2018-11-09T06:54:45Z</time>
      </trkpt>
      <trkpt lat="37.1058560349" lon="-2.0927416999">
        <ele>337.08</ele>
        <time>2018-11-09T06:54:56Z</time>
      </trkpt>
      <trkpt lat="37.1054489259" lon="-2.0932151098">
        <ele>335.64</ele>
        <time>2018-11-09T06:55:09Z</time>
      </trkpt>
      <trkpt lat="37.1050968021" lon="-2.0936584286">
        <ele>334.68</ele>
        <time>2018-11-09T06:55:19Z</time>
      </trkpt>
      <trkpt lat="37.1046360489" lon="-2.0942341816">
        <ele>332.75</ele>
        <time>2018-11-09T06:55:31Z</time>
      </trkpt>
      <trkpt lat="37.1043091547" lon="-2.0946526062">
        <ele>331.79</ele>
        <time>2018-11-09T06:55:40Z</time>
      </trkpt>
      <trkpt lat="37.1038912330" lon="-2.0952529181">
        <ele>329.87</ele>
        <time>2018-11-09T06:55:53Z</time>
      </trkpt>
      <trkpt lat="37.1035834495" lon="-2.0958523080">
        <ele>328.91</ele>
        <time>2018-11-09T06:56:04Z</time>
      </trkpt>
      <trkpt lat="37.1033829544" lon="-2.0963134803">
        <ele>328.43</ele>
        <time>2018-11-09T06:56:14Z</time>
      </trkpt>
      <trkpt lat="37.1031131409" lon="-2.0968956873">
        <ele>329.39</ele>
        <time>2018-11-09T06:56:26Z</time>
      </trkpt>
      <trkpt lat="37.1029584110" lon="-2.0972246770">
        <ele>328.91</ele>
        <time>2018-11-09T06:56:34Z</time>
      </trkpt>
      <trkpt lat="37.1027136594" lon="-2.0976768807">
        <ele>328.91</ele>
        <time>2018-11-09T06:56:45Z</time>
      </trkpt>
      <trkpt lat="37.1024445165" lon="-2.0981105603">
        <ele>328.91</ele>
        <time>2018-11-09T06:56:55Z</time>
      </trkpt>
      <trkpt lat="37.1022519842" lon="-2.0984113030">
        <ele>328.43</ele>
        <time>2018-11-09T06:57:03Z</time>
      </trkpt>
      <trkpt lat="37.1020083223" lon="-2.0987909194">
        <ele>328.43</ele>
        <time>2018-11-09T06:57:13Z</time>
      </trkpt>
      <trkpt lat="37.1017226670" lon="-2.0992128644">
        <ele>329.87</ele>
        <time>2018-11-09T06:57:24Z</time>
      </trkpt>
      <trkpt lat="37.1015547775" lon="-2.0994581189">
        <ele>330.83</ele>
        <time>2018-11-09T06:57:32Z</time>
      </trkpt>
      <trkpt lat="37.1013366804" lon="-2.0997882821">
        <ele>331.31</ele>
        <time>2018-11-09T06:57:43Z</time>
      </trkpt>
      <trkpt lat="37.1012241114" lon="-2.0999511424">
        <ele>331.79</ele>
        <time>2018-11-09T06:57:51Z</time>
      </trkpt>
      <trkpt lat="37.1011946909" lon="-2.0999907050">
        <ele>331.79</ele>
        <time>2018-11-09T06:57:58Z</time>
      </trkpt>
      <trkpt lat="37.1011555474" lon="-2.1000477858">
        <ele>332.27</ele>
        <time>2018-11-09T06:58:05Z</time>
      </trkpt>
      <trkpt lat="37.1009378694" lon="-2.1003768593">
        <ele>332.75</ele>
        <time>2018-11-09T06:58:16Z</time>
      </trkpt>
      <trkpt lat="37.1007414814" lon="-2.1006786916">
        <ele>333.23</ele>
        <time>2018-11-09T06:58:26Z</time>
      </trkpt>
      <trkpt lat="37.1005533915" lon="-2.1009588148">
        <ele>334.20</ele>
        <time>2018-11-09T06:58:35Z</time>
      </trkpt>
      <trkpt lat="37.1003856696" lon="-2.1012085956">
        <ele>335.16</ele>
        <time>2018-11-09T06:58:43Z</time>
      </trkpt>
      <trkpt lat="37.1002021898" lon="-2.1014867909">
        <ele>335.64</ele>
        <time>2018-11-09T06:58:53Z</time>
      </trkpt>
      <trkpt lat="37.0999849308" lon="-2.1018121764">
        <ele>336.60</ele>
        <time>2018-11-09T06:59:05Z</time>
      </trkpt>
      <trkpt lat="37.0998036303" lon="-2.1020867676">
        <ele>337.08</ele>
        <time>2018-11-09T06:59:16Z</time>
      </trkpt>
      <trkpt lat="37.0996272750" lon="-2.1023632027">
        <ele>336.60</ele>
        <time>2018-11-09T06:59:26Z</time>
      </trkpt>
      <trkpt lat="37.0993980300" lon="-2.1026970539">
        <ele>337.56</ele>
        <time>2018-11-09T06:59:37Z</time>
      </trkpt>
      <trkpt lat="37.0991235226" lon="-2.1030930988">
        <ele>339.00</ele>
        <time>2018-11-09T06:59:50Z</time>
      </trkpt>
      <trkpt lat="37.0988620911" lon="-2.1034779120">
        <ele>339.48</ele>
        <time>2018-11-09T07:00:02Z</time>
      </trkpt>
      <trkpt lat="37.0986287389" lon="-2.1038307063">
        <ele>339.48</ele>
        <time>2018-11-09T07:00:13Z</time>
      </trkpt>
      <trkpt lat="37.0984273218" lon="-2.1041596122">
        <ele>339.96</ele>
        <time>2018-11-09T07:00:23Z</time>
      </trkpt>
      <trkpt lat="37.0982984081" lon="-2.1043843310">
        <ele>339.96</ele>
        <time>2018-11-09T07:00:31Z</time>
      </trkpt>
      <trkpt lat="37.0981729310" lon="-2.1046071220">
        <ele>341.41</ele>
        <time>2018-11-09T07:00:39Z</time>
      </trkpt>
      <trkpt lat="37.0980249066" lon="-2.1048688889">
        <ele>342.85</ele>
        <time>2018-11-09T07:00:49Z</time>
      </trkpt>
      <trkpt lat="37.0979137626" lon="-2.1050591581">
        <ele>344.29</ele>
        <time>2018-11-09T07:00:57Z</time>
      </trkpt>
      <trkpt lat="37.0977688394" lon="-2.1053173207">
        <ele>346.21</ele>
        <time>2018-11-09T07:01:08Z</time>
      </trkpt>
      <trkpt lat="37.0976289455" lon="-2.1055536903">
        <ele>348.13</ele>
        <time>2018-11-09T07:01:18Z</time>
      </trkpt>
      <trkpt lat="37.0974748861" lon="-2.1058288682">
        <ele>350.06</ele>
        <time>2018-11-09T07:01:29Z</time>
      </trkpt>
      <trkpt lat="37.0973624848" lon="-2.1060423553">
        <ele>350.54</ele>
        <time>2018-11-09T07:01:38Z</time>
      </trkpt>
      <trkpt lat="37.0972206630" lon="-2.1062901244">
        <ele>351.98</ele>
        <time>2018-11-09T07:01:48Z</time>
      </trkpt>
      <trkpt lat="37.0971285459" lon="-2.1064568404">
        <ele>353.42</ele>
        <time>2018-11-09T07:01:55Z</time>
      </trkpt>
      <trkpt lat="37.0970083494" lon="-2.1067424119">
        <ele>354.86</ele>
        <time>2018-11-09T07:02:06Z</time>
      </trkpt>
      <trkpt lat="37.0969484188" lon="-2.1069482714">
        <ele>356.79</ele>
        <time>2018-11-09T07:02:15Z</time>
      </trkpt>
      <trkpt lat="37.0969121251" lon="-2.1071596630">
        <ele>357.75</ele>
        <time>2018-11-09T07:02:24Z</time>
      </trkpt>
      <trkpt lat="37.0968748257" lon="-2.1074132156">
        <ele>358.23</ele>
        <time>2018-11-09T07:02:34Z</time>
      </trkpt>
      <trkpt lat="37.0968119614" lon="-2.1076592244">
        <ele>359.67</ele>
        <time>2018-11-09T07:02:44Z</time>
      </trkpt>
      <trkpt lat="37.0967812836" lon="-2.1078354958">
        <ele>360.63</ele>
        <time>2018-11-09T07:02:52Z</time>
      </trkpt>
      <trkpt lat="37.0967420563" lon="-2.1080494020">
        <ele>361.59</ele>
        <time>2018-11-09T07:03:02Z</time>
      </trkpt>
      <trkpt lat="37.0967118815" lon="-2.1082185488">
        <ele>362.55</ele>
        <time>2018-11-09T07:03:11Z</time>
      </trkpt>
      <trkpt lat="37.0966672897" lon="-2.1084228158">
        <ele>363.52</ele>
        <time>2018-11-09T07:03:20Z</time>
      </trkpt>
      <trkpt lat="37.0966253802" lon="-2.1085841674">
        <ele>363.52</ele>
        <time>2018-11-09T07:03:28Z</time>
      </trkpt>
      <trkpt lat="37.0965714846" lon="-2.1087878477">
        <ele>364.48</ele>
        <time>2018-11-09T07:03:37Z</time>
      </trkpt>
      <trkpt lat="37.0964999031" lon="-2.1089645382">
        <ele>365.44</ele>
        <time>2018-11-09T07:03:45Z</time>
      </trkpt>
      <trkpt lat="37.0964223705" lon="-2.1091371216">
        <ele>365.92</ele>
        <time>2018-11-09T07:03:54Z</time>
      </trkpt>
      <trkpt lat="37.0963398926" lon="-2.1093164105">
        <ele>365.92</ele>
        <time>2018-11-09T07:04:01Z</time>
      </trkpt>
      <trkpt lat="37.0961737633" lon="-2.1096912492">
        <ele>364.96</ele>
        <time>2018-11-09T07:04:12Z</time>
      </trkpt>
      <trkpt lat="37.0960150938" lon="-2.1100324765">
        <ele>364.48</ele>
        <time>2018-11-09T07:04:23Z</time>
      </trkpt>
      <trkpt lat="37.0958944783" lon="-2.1102817543">
        <ele>364.48</ele>
        <time>2018-11-09T07:04:31Z</time>
      </trkpt>
      <trkpt lat="37.0956997667" lon="-2.1107096504">
        <ele>363.52</ele>
        <time>2018-11-09T07:04:41Z</time>
      </trkpt>
      <trkpt lat="37.0955331344" lon="-2.1110638697">
        <ele>362.55</ele>
        <time>2018-11-09T07:04:50Z</time>
      </trkpt>
      <trkpt lat="37.0953553542" lon="-2.1114502754">
        <ele>362.55</ele>
        <time>2018-11-09T07:04:59Z</time>
      </trkpt>
      <trkpt lat="37.0951692760" lon="-2.1118490025">
        <ele>363.04</ele>
        <time>2018-11-09T07:05:09Z</time>
      </trkpt>
      <trkpt lat="37.0950344950" lon="-2.1121155471">
        <ele>363.52</ele>
        <time>2018-11-09T07:05:17Z</time>
      </trkpt>
      <trkpt lat="37.0948832855" lon="-2.1123847738">
        <ele>364.00</ele>
        <time>2018-11-09T07:05:25Z</time>
      </trkpt>
      <trkpt lat="37.0947697945" lon="-2.1127058845">
        <ele>364.96</ele>
        <time>2018-11-09T07:05:34Z</time>
      </trkpt>
      <trkpt lat="37.0946616679" lon="-2.1129166894">
        <ele>365.44</ele>
        <time>2018-11-09T07:05:42Z</time>
      </trkpt>
      <trkpt lat="37.0945351012" lon="-2.1129173599">
        <ele>364.48</ele>
        <time>2018-11-09T07:05:48Z</time>
      </trkpt>
      <trkpt lat="37.0945192594" lon="-2.1129066311">
        <ele>364.00</ele>
        <time>2018-11-09T07:05:54Z</time>
      </trkpt>
      <trkpt lat="37.0945237018" lon="-2.1128983330">
        <ele>362.55</ele>
        <time>2018-11-09T07:06:11Z</time>
      </trkpt>
      <trkpt lat="37.0945232827" lon="-2.1129056253">
        <ele>362.55</ele>
        <time>2018-11-09T07:06:26Z</time>
      </trkpt>
      <trkpt lat="37.0945180859" lon="-2.1128979977">
        <ele>363.52</ele>
        <time>2018-11-09T07:06:37Z</time>
      </trkpt>
      <trkpt lat="37.0945076086" lon="-2.1128750313">
        <ele>364.00</ele>
        <time>2018-11-09T07:06:45Z</time>
      </trkpt>
      <trkpt lat="37.0945053454" lon="-2.1128642187">
        <ele>364.00</ele>
        <time>2018-11-09T07:06:46Z</time>
      </trkpt>
      <trkpt lat="37.0945050940" lon="-2.1128516458">
        <ele>364.48</ele>
        <time>2018-11-09T07:06:47Z</time>
      </trkpt>
      <trkpt lat="37.0945011545" lon="-2.1128219739">
        <ele>364.96</ele>
        <time>2018-11-09T07:06:55Z</time>
      </trkpt>
      <trkpt lat="37.0945316646" lon="-2.1128229797">
        <ele>365.44</ele>
        <time>2018-11-09T07:07:11Z</time>
      </trkpt>
      <trkpt lat="37.0945156552" lon="-2.1128131729">
        <ele>364.00</ele>
        <time>2018-11-09T07:07:29Z</time>
      </trkpt>
      <trkpt lat="37.0945174992" lon="-2.1128231473">
        <ele>364.00</ele>
        <time>2018-11-09T07:07:56Z</time>
      </trkpt>
      <trkpt lat="37.0944938622" lon="-2.1128306910">
        <ele>364.96</ele>
        <time>2018-11-09T07:08:23Z</time>
      </trkpt>
      <trkpt lat="37.0944913477" lon="-2.1128389053">
        <ele>365.92</ele>
        <time>2018-11-09T07:08:50Z</time>
      </trkpt>
      <trkpt lat="37.0945128892" lon="-2.1128456108">
        <ele>365.92</ele>
        <time>2018-11-09T07:09:21Z</time>
      </trkpt>
      <trkpt lat="37.0944930241" lon="-2.1128228959">
        <ele>365.44</ele>
        <time>2018-11-09T07:09:57Z</time>
      </trkpt>
      <trkpt lat="37.0944946166" lon="-2.1128343791">
        <ele>366.40</ele>
        <time>2018-11-09T07:10:29Z</time>
      </trkpt>
      <trkpt lat="37.0945044234" lon="-2.1128282603">
        <ele>366.40</ele>
        <time>2018-11-09T07:11:00Z</time>
      </trkpt>
      <trkpt lat="37.0945009030" lon="-2.1128286794">
        <ele>364.48</ele>
        <time>2018-11-09T07:11:33Z</time>
      </trkpt>
      <trkpt lat="37.0944997296" lon="-2.1128384024">
        <ele>363.04</ele>
        <time>2018-11-09T07:11:48Z</time>
      </trkpt>
      <trkpt lat="37.0945172478" lon="-2.1128294338">
        <ele>362.55</ele>
        <time>2018-11-09T07:12:18Z</time>
      </trkpt>
      <trkpt lat="37.0944926888" lon="-2.1128275059">
        <ele>365.44</ele>
        <time>2018-11-09T07:12:42Z</time>
      </trkpt>
      <trkpt lat="37.0945011545" lon="-2.1127998456">
        <ele>364.48</ele>
        <time>2018-11-09T07:12:50Z</time>
      </trkpt>
      <trkpt lat="37.0944816247" lon="-2.1127394121">
        <ele>364.00</ele>
        <time>2018-11-09T07:13:01Z</time>
      </trkpt>
      <trkpt lat="37.0944356080" lon="-2.1125213150">
        <ele>363.04</ele>
        <time>2018-11-09T07:13:07Z</time>
      </trkpt>
      <trkpt lat="37.0943999849" lon="-2.1121974383">
        <ele>361.11</ele>
        <time>2018-11-09T07:13:13Z</time>
      </trkpt>
      <trkpt lat="37.0943830535" lon="-2.1120049059">
        <ele>360.15</ele>
        <time>2018-11-09T07:13:18Z</time>
      </trkpt>
      <trkpt lat="37.0943642780" lon="-2.1116550453">
        <ele>358.23</ele>
        <time>2018-11-09T07:13:25Z</time>
      </trkpt>
      <trkpt lat="37.0943641942" lon="-2.1115965396">
        <ele>358.23</ele>
        <time>2018-11-09T07:13:26Z</time>
      </trkpt>
      <trkpt lat="37.0943999849" lon="-2.1111632790">
        <ele>356.31</ele>
        <time>2018-11-09T07:13:32Z</time>
      </trkpt>
      <trkpt lat="37.0945479255" lon="-2.1105378214">
        <ele>353.90</ele>
        <time>2018-11-09T07:13:39Z</time>
      </trkpt>
      <trkpt lat="37.0945629291" lon="-2.1104330476">
        <ele>353.42</ele>
        <time>2018-11-09T07:13:40Z</time>
      </trkpt>
      <trkpt lat="37.0945673715" lon="-2.1103312075">
        <ele>352.94</ele>
        <time>2018-11-09T07:13:41Z</time>
      </trkpt>
      <trkpt lat="37.0945589058" lon="-2.1102249250">
        <ele>352.46</ele>
        <time>2018-11-09T07:13:42Z</time>
      </trkpt>
      <trkpt lat="37.0945327543" lon="-2.1101185586">
        <ele>351.98</ele>
        <time>2018-11-09T07:13:43Z</time>
      </trkpt>
      <trkpt lat="37.0944916829" lon="-2.1100300457">
        <ele>351.50</ele>
        <time>2018-11-09T07:13:44Z</time>
      </trkpt>
      <trkpt lat="37.0944345184" lon="-2.1099542733">
        <ele>351.02</ele>
        <time>2018-11-09T07:13:45Z</time>
      </trkpt>
      <trkpt lat="37.0943717379" lon="-2.1099036466">
        <ele>350.54</ele>
        <time>2018-11-09T07:13:46Z</time>
      </trkpt>
      <trkpt lat="37.0943035092" lon="-2.1098726336">
        <ele>349.58</ele>
        <time>2018-11-09T07:13:47Z</time>
      </trkpt>
      <trkpt lat="37.0942299999" lon="-2.1098682750">
        <ele>349.10</ele>
        <time>2018-11-09T07:13:48Z</time>
      </trkpt>
      <trkpt lat="37.0941536408" lon="-2.1098910738">
        <ele>348.62</ele>
        <time>2018-11-09T07:13:49Z</time>
      </trkpt>
      <trkpt lat="37.0940735098" lon="-2.1099345759">
        <ele>347.65</ele>
        <time>2018-11-09T07:13:50Z</time>
      </trkpt>
      <trkpt lat="37.0940207038" lon="-2.1099792514">
        <ele>347.17</ele>
        <time>2018-11-09T07:13:51Z</time>
      </trkpt>
      <trkpt lat="37.0939798839" lon="-2.1100246813">
        <ele>346.69</ele>
        <time>2018-11-09T07:13:52Z</time>
      </trkpt>
      <trkpt lat="37.0939084701" lon="-2.1100991126">
        <ele>345.25</ele>
        <time>2018-11-09T07:13:56Z</time>
      </trkpt>
      <trkpt lat="37.0938957296" lon="-2.1101087518">
        <ele>344.29</ele>
        <time>2018-11-09T07:14:01Z</time>
      </trkpt>
      <trkpt lat="37.0938984118" lon="-2.1101100091">
        <ele>344.29</ele>
        <time>2018-11-09T07:14:08Z</time>
      </trkpt>
      <trkpt lat="37.0938861743" lon="-2.1101258509">
        <ele>344.29</ele>
        <time>2018-11-09T07:14:09Z</time>
      </trkpt>
      <trkpt lat="37.0937679056" lon="-2.1102468856">
        <ele>343.33</ele>
        <time>2018-11-09T07:14:15Z</time>
      </trkpt>
      <trkpt lat="37.0936650597" lon="-2.1103390865">
        <ele>341.89</ele>
        <time>2018-11-09T07:14:22Z</time>
      </trkpt>
      <trkpt lat="37.0935687516" lon="-2.1104407590">
        <ele>340.92</ele>
        <time>2018-11-09T07:14:30Z</time>
      </trkpt>
      <trkpt lat="37.0933866128" lon="-2.1106102411">
        <ele>339.00</ele>
        <time>2018-11-09T07:14:37Z</time>
      </trkpt>
      <trkpt lat="37.0931573678" lon="-2.1107983310">
        <ele>337.56</ele>
        <time>2018-11-09T07:14:43Z</time>
      </trkpt>
      <trkpt lat="37.0931054838" lon="-2.1108270809">
        <ele>337.08</ele>
        <time>2018-11-09T07:14:44Z</time>
      </trkpt>
      <trkpt lat="37.0930522587" lon="-2.1108481195">
        <ele>337.08</ele>
        <time>2018-11-09T07:14:45Z</time>
      </trkpt>
      <trkpt lat="37.0929968543" lon="-2.1108577587">
        <ele>336.60</ele>
        <time>2018-11-09T07:14:46Z</time>
      </trkpt>
      <trkpt lat="37.0929437969" lon="-2.1108562499">
        <ele>336.60</ele>
        <time>2018-11-09T07:14:47Z</time>
      </trkpt>
      <trkpt lat="37.0928955171" lon="-2.1108446829">
        <ele>336.12</ele>
        <time>2018-11-09T07:14:48Z</time>
      </trkpt>
      <trkpt lat="37.0928543620" lon="-2.1108255722">
        <ele>335.64</ele>
        <time>2018-11-09T07:14:49Z</time>
      </trkpt>
      <trkpt lat="37.0928169787" lon="-2.1108029410">
        <ele>335.64</ele>
        <time>2018-11-09T07:14:50Z</time>
      </trkpt>
      <trkpt lat="37.0926547050" lon="-2.1106691658">
        <ele>335.16</ele>
        <time>2018-11-09T07:14:56Z</time>
      </trkpt>
      <trkpt lat="37.0924170781" lon="-2.1104297787">
        <ele>336.12</ele>
        <time>2018-11-09T07:15:07Z</time>
      </trkpt>
      <trkpt lat="37.0922779385" lon="-2.1102035511">
        <ele>336.12</ele>
        <time>2018-11-09T07:15:14Z</time>
      </trkpt>
      <trkpt lat="37.0922815427" lon="-2.1099629905">
        <ele>336.60</ele>
        <time>2018-11-09T07:15:20Z</time>
      </trkpt>
      <trkpt lat="37.0924034156" lon="-2.1097245254">
        <ele>336.12</ele>
        <time>2018-11-09T07:15:27Z</time>
      </trkpt>
      <trkpt lat="37.0926631708" lon="-2.1093645226">
        <ele>335.64</ele>
        <time>2018-11-09T07:15:37Z</time>
      </trkpt>
      <trkpt lat="37.0929769892" lon="-2.1089108102">
        <ele>333.71</ele>
        <time>2018-11-09T07:15:48Z</time>
      </trkpt>
      <trkpt lat="37.0932335593" lon="-2.1084384900">
        <ele>332.75</ele>
        <time>2018-11-09T07:15:57Z</time>
      </trkpt>
      <trkpt lat="37.0932835992" lon="-2.1082744561">
        <ele>332.75</ele>
        <time>2018-11-09T07:16:00Z</time>
      </trkpt>
      <trkpt lat="37.0934423525" lon="-2.1076842863">
        <ele>333.23</ele>
        <time>2018-11-09T07:16:12Z</time>
      </trkpt>
      <trkpt lat="37.0935525745" lon="-2.1073067654">
        <ele>333.71</ele>
        <time>2018-11-09T07:16:21Z</time>
      </trkpt>
      <trkpt lat="37.0936686639" lon="-2.1069258917">
        <ele>334.20</ele>
        <time>2018-11-09T07:16:32Z</time>
      </trkpt>
      <trkpt lat="37.0937328693" lon="-2.1067077108">
        <ele>333.71</ele>
        <time>2018-11-09T07:16:41Z</time>
      </trkpt>
      <trkpt lat="37.0937967394" lon="-2.1064689104">
        <ele>334.20</ele>
        <time>2018-11-09T07:16:48Z</time>
      </trkpt>
      <trkpt lat="37.0938921254" lon="-2.1061194688">
        <ele>334.20</ele>
        <time>2018-11-09T07:16:56Z</time>
      </trkpt>
      <trkpt lat="37.0940403175" lon="-2.1055820212">
        <ele>334.68</ele>
        <time>2018-11-09T07:17:07Z</time>
      </trkpt>
      <trkpt lat="37.0940923691" lon="-2.1051823720">
        <ele>335.64</ele>
        <time>2018-11-09T07:17:15Z</time>
      </trkpt>
      <trkpt lat="37.0940644573" lon="-2.1049449127">
        <ele>336.60</ele>
        <time>2018-11-09T07:17:22Z</time>
      </trkpt>
      <trkpt lat="37.0940003358" lon="-2.1047114767">
        <ele>337.56</ele>
        <time>2018-11-09T07:17:31Z</time>
      </trkpt>
      <trkpt lat="37.0939308498" lon="-2.1044409927">
        <ele>338.04</ele>
        <time>2018-11-09T07:17:42Z</time>
      </trkpt>
      <trkpt lat="37.0938548259" lon="-2.1041591093">
        <ele>339.00</ele>
        <time>2018-11-09T07:17:53Z</time>
      </trkpt>
      <trkpt lat="37.0937861782" lon="-2.1038893797">
        <ele>340.92</ele>
        <time>2018-11-09T07:18:04Z</time>
      </trkpt>
      <trkpt lat="37.0937037840" lon="-2.1036082506">
        <ele>341.89</ele>
        <time>2018-11-09T07:18:15Z</time>
      </trkpt>
      <trkpt lat="37.0936167799" lon="-2.1032852121">
        <ele>342.85</ele>
        <time>2018-11-09T07:18:28Z</time>
      </trkpt>
      <trkpt lat="37.0935467072" lon="-2.1030487586">
        <ele>344.29</ele>
        <time>2018-11-09T07:18:38Z</time>
      </trkpt>
      <trkpt lat="37.0934889559" lon="-2.1028347686">
        <ele>345.25</ele>
        <time>2018-11-09T07:18:47Z</time>
      </trkpt>
      <trkpt lat="37.0934172906" lon="-2.1025615185">
        <ele>346.69</ele>
        <time>2018-11-09T07:18:59Z</time>
      </trkpt>
      <trkpt lat="37.0933778118" lon="-2.1023266576">
        <ele>347.65</ele>
        <time>2018-11-09T07:19:09Z</time>
      </trkpt>
      <trkpt lat="37.0933659095" lon="-2.1020923834">
        <ele>349.10</ele>
        <time>2018-11-09T07:19:19Z</time>
      </trkpt>
      <trkpt lat="37.0933783986" lon="-2.1018966660">
        <ele>350.06</ele>
        <time>2018-11-09T07:19:27Z</time>
      </trkpt>
      <trkpt lat="37.0933922287" lon="-2.1015630662">
        <ele>351.98</ele>
        <time>2018-11-09T07:19:41Z</time>
      </trkpt>
      <trkpt lat="37.0934005268" lon="-2.1013364196">
        <ele>352.94</ele>
        <time>2018-11-09T07:19:50Z</time>
      </trkpt>
      <trkpt lat="37.0934073161" lon="-2.1011031512">
        <ele>353.90</ele>
        <time>2018-11-09T07:19:59Z</time>
      </trkpt>
      <trkpt lat="37.0934120100" lon="-2.1008811146">
        <ele>355.34</ele>
        <time>2018-11-09T07:20:08Z</time>
      </trkpt>
      <trkpt lat="37.0934076514" lon="-2.1007235348">
        <ele>356.31</ele>
        <time>2018-11-09T07:20:15Z</time>
      </trkpt>
      <trkpt lat="37.0934031252" lon="-2.1004758496">
        <ele>357.75</ele>
        <time>2018-11-09T07:20:26Z</time>
      </trkpt>
      <trkpt lat="37.0933991019" lon="-2.1002762765">
        <ele>359.19</ele>
        <time>2018-11-09T07:20:35Z</time>
      </trkpt>
      <trkpt lat="37.0934132673" lon="-2.1000566706">
        <ele>360.63</ele>
        <time>2018-11-09T07:20:46Z</time>
      </trkpt>
      <trkpt lat="37.0934700128" lon="-2.0998423453">
        <ele>361.59</ele>
        <time>2018-11-09T07:20:56Z</time>
      </trkpt>
      <trkpt lat="37.0935546700" lon="-2.0996230748">
        <ele>362.55</ele>
        <time>2018-11-09T07:21:06Z</time>
      </trkpt>
      <trkpt lat="37.0936078951" lon="-2.0994385891">
        <ele>363.52</ele>
        <time>2018-11-09T07:21:15Z</time>
      </trkpt>
      <trkpt lat="37.0936275087" lon="-2.0992178097">
        <ele>365.92</ele>
        <time>2018-11-09T07:21:25Z</time>
      </trkpt>
      <trkpt lat="37.0935931429" lon="-2.0990443043">
        <ele>366.88</ele>
        <time>2018-11-09T07:21:33Z</time>
      </trkpt>
      <trkpt lat="37.0934970863" lon="-2.0988361817">
        <ele>368.32</ele>
        <time>2018-11-09T07:21:43Z</time>
      </trkpt>
      <trkpt lat="37.0933840144" lon="-2.0986471698">
        <ele>369.76</ele>
        <time>2018-11-09T07:21:53Z</time>
      </trkpt>
      <trkpt lat="37.0933722798" lon="-2.0986401290">
        <ele>369.76</ele>
        <time>2018-11-09T07:21:54Z</time>
      </trkpt>
      <trkpt lat="37.0933692623" lon="-2.0986297354">
        <ele>369.76</ele>
        <time>2018-11-09T07:22:00Z</time>
      </trkpt>
      <trkpt lat="37.0933718607" lon="-2.0986443199">
        <ele>368.80</ele>
        <time>2018-11-09T07:22:15Z</time>
      </trkpt>
      <trkpt lat="37.0933722798" lon="-2.0986335911">
        <ele>369.28</ele>
        <time>2018-11-09T07:22:42Z</time>
      </trkpt>
      <trkpt lat="37.0933799073" lon="-2.0986302383">
        <ele>369.28</ele>
        <time>2018-11-09T07:23:11Z</time>
      </trkpt>
      <trkpt lat="37.0933752973" lon="-2.0986319147">
        <ele>368.32</ele>
        <time>2018-11-09T07:23:35Z</time>
      </trkpt>
      <trkpt lat="37.0933668315" lon="-2.0986330882">
        <ele>366.88</ele>
        <time>2018-11-09T07:24:06Z</time>
      </trkpt>
      <trkpt lat="37.0933589526" lon="-2.0986388717">
        <ele>368.32</ele>
        <time>2018-11-09T07:24:32Z</time>
      </trkpt>
      <trkpt lat="37.0933749620" lon="-2.0986374468">
        <ele>368.32</ele>
        <time>2018-11-09T07:25:00Z</time>
      </trkpt>
      <trkpt lat="37.0933655743" lon="-2.0986334234">
        <ele>368.80</ele>
        <time>2018-11-09T07:25:30Z</time>
      </trkpt>
      <trkpt lat="37.0933616348" lon="-2.0986192580">
        <ele>369.28</ele>
        <time>2018-11-09T07:25:48Z</time>
      </trkpt>
      <trkpt lat="37.0933660772" lon="-2.0986120496">
        <ele>369.28</ele>
        <time>2018-11-09T07:26:06Z</time>
      </trkpt>
      <trkpt lat="37.0933690108" lon="-2.0986222755">
        <ele>369.28</ele>
        <time>2018-11-09T07:26:18Z</time>
      </trkpt>
      <trkpt lat="37.0933758002" lon="-2.0986333396">
        <ele>367.84</ele>
        <time>2018-11-09T07:26:49Z</time>
      </trkpt>
      <trkpt lat="37.0933714416" lon="-2.0986304898">
        <ele>367.36</ele>
        <time>2018-11-09T07:27:13Z</time>
      </trkpt>
      <trkpt lat="37.0933703519" lon="-2.0986327529">
        <ele>368.80</ele>
        <time>2018-11-09T07:27:36Z</time>
      </trkpt>
      <trkpt lat="37.0933725312" lon="-2.0986358542">
        <ele>369.28</ele>
        <time>2018-11-09T07:28:00Z</time>
      </trkpt>
      <trkpt lat="37.0933664124" lon="-2.0986260474">
        <ele>369.28</ele>
        <time>2018-11-09T07:28:20Z</time>
      </trkpt>
      <trkpt lat="37.0933649875" lon="-2.0986319985">
        <ele>369.28</ele>
        <time>2018-11-09T07:28:40Z</time>
      </trkpt>
      <trkpt lat="37.0933697652" lon="-2.0986415539">
        <ele>369.28</ele>
        <time>2018-11-09T07:28:57Z</time>
      </trkpt>
      <trkpt lat="37.0933737885" lon="-2.0986237843">
        <ele>368.80</ele>
        <time>2018-11-09T07:29:05Z</time>
      </trkpt>
      <trkpt lat="37.0933671668" lon="-2.0985991415">
        <ele>369.28</ele>
        <time>2018-11-09T07:29:12Z</time>
      </trkpt>
      <trkpt lat="37.0933648199" lon="-2.0985936094">
        <ele>369.76</ele>
        <time>2018-11-09T07:29:14Z</time>
      </trkpt>
      <trkpt lat="37.0933122654" lon="-2.0984838065">
        <ele>369.76</ele>
        <time>2018-11-09T07:29:21Z</time>
      </trkpt>
      <trkpt lat="37.0931893028" lon="-2.0982494485">
        <ele>370.24</ele>
        <time>2018-11-09T07:29:31Z</time>
      </trkpt>
      <trkpt lat="37.0930806734" lon="-2.0980952214">
        <ele>370.73</ele>
        <time>2018-11-09T07:29:38Z</time>
      </trkpt>
      <trkpt lat="37.0928987861" lon="-2.0979564171">
        <ele>371.69</ele>
        <time>2018-11-09T07:29:46Z</time>
      </trkpt>
      <trkpt lat="37.0926323254" lon="-2.0978140924">
        <ele>370.73</ele>
        <time>2018-11-09T07:29:55Z</time>
      </trkpt>
      <trkpt lat="37.0923459996" lon="-2.0976923034">
        <ele>369.76</ele>
        <time>2018-11-09T07:30:02Z</time>
      </trkpt>
      <trkpt lat="37.0922062732" lon="-2.0976156928">
        <ele>369.28</ele>
        <time>2018-11-09T07:30:05Z</time>
      </trkpt>
      <trkpt lat="37.0921621844" lon="-2.0975806564">
        <ele>369.28</ele>
        <time>2018-11-09T07:30:06Z</time>
      </trkpt>
      <trkpt lat="37.0921181794" lon="-2.0975362323">
        <ele>368.80</ele>
        <time>2018-11-09T07:30:07Z</time>
      </trkpt>
      <trkpt lat="37.0920784492" lon="-2.0974880364">
        <ele>368.80</ele>
        <time>2018-11-09T07:30:08Z</time>
      </trkpt>
      <trkpt lat="37.0920403954" lon="-2.0974318776">
        <ele>368.80</ele>
        <time>2018-11-09T07:30:09Z</time>
      </trkpt>
      <trkpt lat="37.0920063648" lon="-2.0973731205">
        <ele>368.32</ele>
        <time>2018-11-09T07:30:10Z</time>
      </trkpt>
      <trkpt lat="37.0919752680" lon="-2.0973058976">
        <ele>367.84</ele>
        <time>2018-11-09T07:30:11Z</time>
      </trkpt>
      <trkpt lat="37.0919518825" lon="-2.0972365793">
        <ele>367.84</ele>
        <time>2018-11-09T07:30:12Z</time>
      </trkpt>
      <trkpt lat="37.0919325203" lon="-2.0971598849">
        <ele>367.36</ele>
        <time>2018-11-09T07:30:13Z</time>
      </trkpt>
      <trkpt lat="37.0919195283" lon="-2.0970841963">
        <ele>367.36</ele>
        <time>2018-11-09T07:30:14Z</time>
      </trkpt>
      <trkpt lat="37.0919155050" lon="-2.0970049035">
        <ele>367.36</ele>
        <time>2018-11-09T07:30:15Z</time>
      </trkpt>
      <trkpt lat="37.0919191092" lon="-2.0969322324">
        <ele>366.88</ele>
        <time>2018-11-09T07:30:16Z</time>
      </trkpt>
      <trkpt lat="37.0919306763" lon="-2.0968571305">
        <ele>366.88</ele>
        <time>2018-11-09T07:30:17Z</time>
      </trkpt>
      <trkpt lat="37.0919505414" lon="-2.0967883151">
        <ele>366.88</ele>
        <time>2018-11-09T07:30:18Z</time>
      </trkpt>
      <trkpt lat="37.0919791237" lon="-2.0967222657">
        <ele>366.40</ele>
        <time>2018-11-09T07:30:19Z</time>
      </trkpt>
      <trkpt lat="37.0920135733" lon="-2.0966647658">
        <ele>366.40</ele>
        <time>2018-11-09T07:30:20Z</time>
      </trkpt>
      <trkpt lat="37.0920543931" lon="-2.0966084395">
        <ele>365.92</ele>
        <time>2018-11-09T07:30:21Z</time>
      </trkpt>
      <trkpt lat="37.0920967218" lon="-2.0965573937">
        <ele>365.92</ele>
        <time>2018-11-09T07:30:22Z</time>
      </trkpt>
      <trkpt lat="37.0923168305" lon="-2.0962769352">
        <ele>364.48</ele>
        <time>2018-11-09T07:30:27Z</time>
      </trkpt>
      <trkpt lat="37.0923475083" lon="-2.0961969718">
        <ele>364.00</ele>
        <time>2018-11-09T07:30:28Z</time>
      </trkpt>
      <trkpt lat="37.0923666190" lon="-2.0961103868">
        <ele>363.52</ele>
        <time>2018-11-09T07:30:29Z</time>
      </trkpt>
      <trkpt lat="37.0923743304" lon="-2.0960124023">
        <ele>362.55</ele>
        <time>2018-11-09T07:30:30Z</time>
      </trkpt>
      <trkpt lat="37.0923689660" lon="-2.0959152561">
        <ele>362.07</ele>
        <time>2018-11-09T07:30:31Z</time>
      </trkpt>
      <trkpt lat="37.0923549682" lon="-2.0958098117">
        <ele>361.59</ele>
        <time>2018-11-09T07:30:32Z</time>
      </trkpt>
      <trkpt lat="37.0923196804" lon="-2.0954810735">
        <ele>359.19</ele>
        <time>2018-11-09T07:30:35Z</time>
      </trkpt>
      <trkpt lat="37.0923200995" lon="-2.0953674987">
        <ele>358.71</ele>
        <time>2018-11-09T07:30:36Z</time>
      </trkpt>
      <trkpt lat="37.0923268888" lon="-2.0952457935">
        <ele>358.23</ele>
        <time>2018-11-09T07:30:37Z</time>
      </trkpt>
      <trkpt lat="37.0923434012" lon="-2.0949000400">
        <ele>355.83</ele>
        <time>2018-11-09T07:30:40Z</time>
      </trkpt>
      <trkpt lat="37.0923296548" lon="-2.0947832800">
        <ele>354.86</ele>
        <time>2018-11-09T07:30:41Z</time>
      </trkpt>
      <trkpt lat="37.0922980551" lon="-2.0946762431">
        <ele>353.90</ele>
        <time>2018-11-09T07:30:42Z</time>
      </trkpt>
      <trkpt lat="37.0922440756" lon="-2.0945733134">
        <ele>352.94</ele>
        <time>2018-11-09T07:30:43Z</time>
      </trkpt>
      <trkpt lat="37.0921802055" lon="-2.0944958646">
        <ele>352.46</ele>
        <time>2018-11-09T07:30:44Z</time>
      </trkpt>
      <trkpt lat="37.0920936204" lon="-2.0944215171">
        <ele>351.50</ele>
        <time>2018-11-09T07:30:45Z</time>
      </trkpt>
      <trkpt lat="37.0920173451" lon="-2.0943655260">
        <ele>351.02</ele>
        <time>2018-11-09T07:30:46Z</time>
      </trkpt>
      <trkpt lat="37.0919348672" lon="-2.0943076070">
        <ele>350.54</ele>
        <time>2018-11-09T07:30:47Z</time>
      </trkpt>
      <trkpt lat="37.0918504614" lon="-2.0942362770">
        <ele>350.06</ele>
        <time>2018-11-09T07:30:48Z</time>
      </trkpt>
      <trkpt lat="37.0917889383" lon="-2.0941631868">
        <ele>349.58</ele>
        <time>2018-11-09T07:30:49Z</time>
      </trkpt>
      <trkpt lat="37.0917318575" lon="-2.0940579940">
        <ele>348.62</ele>
        <time>2018-11-09T07:30:50Z</time>
      </trkpt>
      <trkpt lat="37.0917033590" lon="-2.0939568244">
        <ele>348.62</ele>
        <time>2018-11-09T07:30:51Z</time>
      </trkpt>
      <trkpt lat="37.0916940551" lon="-2.0938468538">
        <ele>348.13</ele>
        <time>2018-11-09T07:30:52Z</time>
      </trkpt>
      <trkpt lat="37.0917018503" lon="-2.0937305968">
        <ele>347.65</ele>
        <time>2018-11-09T07:30:53Z</time>
      </trkpt>
      <trkpt lat="37.0917230565" lon="-2.0936246496">
        <ele>347.65</ele>
        <time>2018-11-09T07:30:54Z</time>
      </trkpt>
      <trkpt lat="37.0917535666" lon="-2.0935254917">
        <ele>347.65</ele>
        <time>2018-11-09T07:30:55Z</time>
      </trkpt>
      <trkpt lat="37.0917927101" lon="-2.0934223104">
        <ele>347.17</ele>
        <time>2018-11-09T07:30:56Z</time>
      </trkpt>
      <trkpt lat="37.0919234678" lon="-2.0931526646">
        <ele>346.69</ele>
        <time>2018-11-09T07:30:59Z</time>
      </trkpt>
      <trkpt lat="37.0919896848" lon="-2.0930900518">
        <ele>346.69</ele>
        <time>2018-11-09T07:31:00Z</time>
      </trkpt>
      <trkpt lat="37.0920657087" lon="-2.0930486452">
        <ele>346.69</ele>
        <time>2018-11-09T07:31:01Z</time>
      </trkpt>
      <trkpt lat="37.0921432413" lon="-2.0930206496">
        <ele>346.69</ele>
        <time>2018-11-09T07:31:02Z</time>
      </trkpt>
      <trkpt lat="37.0921942871" lon="-2.0930104237">
        <ele>346.69</ele>
        <time>2018-11-09T07:31:03Z</time>
      </trkpt>
      <trkpt lat="37.0922589116" lon="-2.0930043049">
        <ele>347.17</ele>
        <time>2018-11-09T07:31:04Z</time>
      </trkpt>
      <trkpt lat="37.0923173334" lon="-2.0929993596">
        <ele>347.17</ele>
        <time>2018-11-09T07:31:05Z</time>
      </trkpt>
      <trkpt lat="37.0925347600" lon="-2.0929628983">
        <ele>347.65</ele>
        <time>2018-11-09T07:31:09Z</time>
      </trkpt>
      <trkpt lat="37.0925848000" lon="-2.0929398481">
        <ele>348.13</ele>
        <time>2018-11-09T07:31:10Z</time>
      </trkpt>
      <trkpt lat="37.0926264580" lon="-2.0929160435">
        <ele>348.13</ele>
        <time>2018-11-09T07:31:11Z</time>
      </trkpt>
      <trkpt lat="37.0926656853" lon="-2.0928866230">
        <ele>348.13</ele>
        <time>2018-11-09T07:31:12Z</time>
      </trkpt>
      <trkpt lat="37.0926955249" lon="-2.0928569511">
        <ele>348.62</ele>
        <time>2018-11-09T07:31:13Z</time>
      </trkpt>
      <trkpt lat="37.0927203353" lon="-2.0928284526">
        <ele>348.62</ele>
        <time>2018-11-09T07:31:14Z</time>
      </trkpt>
      <trkpt lat="37.0928027295" lon="-2.0926992875">
        <ele>349.10</ele>
        <time>2018-11-09T07:31:20Z</time>
      </trkpt>
      <trkpt lat="37.0928936731" lon="-2.0924821962">
        <ele>350.06</ele>
        <time>2018-11-09T07:31:30Z</time>
      </trkpt>
      <trkpt lat="37.0929548610" lon="-2.0922595728">
        <ele>351.02</ele>
        <time>2018-11-09T07:31:39Z</time>
      </trkpt>
      <trkpt lat="37.0929773245" lon="-2.0920145698">
        <ele>351.98</ele>
        <time>2018-11-09T07:31:49Z</time>
      </trkpt>
      <trkpt lat="37.0929329842" lon="-2.0918181818">
        <ele>353.90</ele>
        <time>2018-11-09T07:31:58Z</time>
      </trkpt>
      <trkpt lat="37.0928301383" lon="-2.0916057844">
        <ele>355.34</ele>
        <time>2018-11-09T07:32:08Z</time>
      </trkpt>
      <trkpt lat="37.0926747378" lon="-2.0914018527">
        <ele>357.27</ele>
        <time>2018-11-09T07:32:20Z</time>
      </trkpt>
      <trkpt lat="37.0925570559" lon="-2.0912547503">
        <ele>357.75</ele>
        <time>2018-11-09T07:32:29Z</time>
      </trkpt>
      <trkpt lat="37.0924334228" lon="-2.0910431910">
        <ele>358.71</ele>
        <time>2018-11-09T07:32:40Z</time>
      </trkpt>
      <trkpt lat="37.0923812874" lon="-2.0907646604">
        <ele>359.19</ele>
        <time>2018-11-09T07:32:51Z</time>
      </trkpt>
      <trkpt lat="37.0923757553" lon="-2.0904767420">
        <ele>360.15</ele>
        <time>2018-11-09T07:33:02Z</time>
      </trkpt>
      <trkpt lat="37.0923676249" lon="-2.0902237762">
        <ele>361.59</ele>
        <time>2018-11-09T07:33:12Z</time>
      </trkpt>
      <trkpt lat="37.0923511963" lon="-2.0899754204">
        <ele>362.55</ele>
        <time>2018-11-09T07:33:22Z</time>
      </trkpt>
      <trkpt lat="37.0923217759" lon="-2.0897962991">
        <ele>363.04</ele>
        <time>2018-11-09T07:33:30Z</time>
      </trkpt>
      <trkpt lat="37.0922562294" lon="-2.0895127393">
        <ele>363.52</ele>
        <time>2018-11-09T07:33:42Z</time>
      </trkpt>
      <trkpt lat="37.0922579896" lon="-2.0892926306">
        <ele>363.04</ele>
        <time>2018-11-09T07:33:51Z</time>
      </trkpt>
      <trkpt lat="37.0923212729" lon="-2.0891174488">
        <ele>364.00</ele>
        <time>2018-11-09T07:33:59Z</time>
      </trkpt>
      <trkpt lat="37.0924459118" lon="-2.0889115054">
        <ele>364.96</ele>
        <time>2018-11-09T07:34:09Z</time>
      </trkpt>
      <trkpt lat="37.0926177409" lon="-2.0886862837">
        <ele>366.40</ele>
        <time>2018-11-09T07:34:21Z</time>
      </trkpt>
      <trkpt lat="37.0928161405" lon="-2.0884354133">
        <ele>367.84</ele>
        <time>2018-11-09T07:34:35Z</time>
      </trkpt>
      <trkpt lat="37.0929654222" lon="-2.0882399473">
        <ele>368.80</ele>
        <time>2018-11-09T07:34:46Z</time>
      </trkpt>
      <trkpt lat="37.0930905640" lon="-2.0881011430">
        <ele>369.76</ele>
        <time>2018-11-09T07:34:55Z</time>
      </trkpt>
      <trkpt lat="37.0932190586" lon="-2.0880034100">
        <ele>371.69</ele>
        <time>2018-11-09T07:35:03Z</time>
      </trkpt>
      <trkpt lat="37.0933851041" lon="-2.0879268833">
        <ele>373.13</ele>
        <time>2018-11-09T07:35:12Z</time>
      </trkpt>
      <trkpt lat="37.0935514849" lon="-2.0878354367">
        <ele>374.09</ele>
        <time>2018-11-09T07:35:21Z</time>
      </trkpt>
      <trkpt lat="37.0937302709" lon="-2.0876822155">
        <ele>374.57</ele>
        <time>2018-11-09T07:35:32Z</time>
      </trkpt>
      <trkpt lat="37.0938496292" lon="-2.0874583349">
        <ele>375.53</ele>
        <time>2018-11-09T07:35:43Z</time>
      </trkpt>
      <trkpt lat="37.0939005073" lon="-2.0872831531">
        <ele>376.97</ele>
        <time>2018-11-09T07:35:51Z</time>
      </trkpt>
      <trkpt lat="37.0939721726" lon="-2.0870715100">
        <ele>377.45</ele>
        <time>2018-11-09T07:36:01Z</time>
      </trkpt>
      <trkpt lat="37.0940933749" lon="-2.0868970826">
        <ele>378.42</ele>
        <time>2018-11-09T07:36:11Z</time>
      </trkpt>
      <trkpt lat="37.0942603424" lon="-2.0868081506">
        <ele>380.34</ele>
        <time>2018-11-09T07:36:21Z</time>
      </trkpt>
      <trkpt lat="37.0944427326" lon="-2.0868347213">
        <ele>382.26</ele>
        <time>2018-11-09T07:36:30Z</time>
      </trkpt>
      <trkpt lat="37.0946405455" lon="-2.0868819952">
        <ele>384.66</ele>
        <time>2018-11-09T07:36:40Z</time>
      </trkpt>
      <trkpt lat="37.0948173199" lon="-2.0868465398">
        <ele>386.11</ele>
        <time>2018-11-09T07:36:50Z</time>
      </trkpt>
      <trkpt lat="37.0949687809" lon="-2.0866976772">
        <ele>387.55</ele>
        <time>2018-11-09T07:37:01Z</time>
      </trkpt>
      <trkpt lat="37.0950650889" lon="-2.0865279436">
        <ele>388.99</ele>
        <time>2018-11-09T07:37:11Z</time>
      </trkpt>
      <trkpt lat="37.0951537695" lon="-2.0863523427">
        <ele>390.43</ele>
        <time>2018-11-09T07:37:21Z</time>
      </trkpt>
      <trkpt lat="37.0952209085" lon="-2.0861681923">
        <ele>392.36</ele>
        <time>2018-11-09T07:37:30Z</time>
      </trkpt>
      <trkpt lat="37.0952627342" lon="-2.0861175656">
        <ele>393.32</ele>
        <time>2018-11-09T07:37:35Z</time>
      </trkpt>
      <trkpt lat="37.0952733792" lon="-2.0861168113">
        <ele>393.32</ele>
        <time>2018-11-09T07:37:36Z</time>
      </trkpt>
      <trkpt lat="37.0953817572" lon="-2.0861175656">
        <ele>393.80</ele>
        <time>2018-11-09T07:37:45Z</time>
      </trkpt>
      <trkpt lat="37.0954278577" lon="-2.0861122012">
        <ele>394.28</ele>
        <time>2018-11-09T07:37:52Z</time>
      </trkpt>
      <trkpt lat="37.0954297855" lon="-2.0861495007">
        <ele>394.76</ele>
        <time>2018-11-09T07:38:00Z</time>
      </trkpt>
      <trkpt lat="37.0954672527" lon="-2.0861521829">
        <ele>395.24</ele>
        <time>2018-11-09T07:38:07Z</time>
      </trkpt>
      <trkpt lat="37.0954585355" lon="-2.0861523505">
        <ele>394.76</ele>
        <time>2018-11-09T07:38:17Z</time>
      </trkpt>
      <trkpt lat="37.0954507403" lon="-2.0861577149">
        <ele>393.80</ele>
        <time>2018-11-09T07:38:39Z</time>
      </trkpt>
      <trkpt lat="37.0954582002" lon="-2.0861614030">
        <ele>393.32</ele>
        <time>2018-11-09T07:38:53Z</time>
      </trkpt>
      <trkpt lat="37.0954563562" lon="-2.0861603972">
        <ele>392.36</ele>
        <time>2018-11-09T07:39:18Z</time>
      </trkpt>
      <trkpt lat="37.0954635646" lon="-2.0861605648">
        <ele>392.84</ele>
        <time>2018-11-09T07:39:39Z</time>
      </trkpt>
      <trkpt lat="37.0954607986" lon="-2.0861633308">
        <ele>394.76</ele>
        <time>2018-11-09T07:40:00Z</time>
      </trkpt>
      <trkpt lat="37.0954588708" lon="-2.0861753169">
        <ele>394.28</ele>
        <time>2018-11-09T07:40:17Z</time>
      </trkpt>
      <trkpt lat="37.0954487287" lon="-2.0861634146">
        <ele>393.80</ele>
        <time>2018-11-09T07:40:41Z</time>
      </trkpt>
      <trkpt lat="37.0954473037" lon="-2.0861645043">
        <ele>395.24</ele>
        <time>2018-11-09T07:41:04Z</time>
      </trkpt>
      <trkpt lat="37.0954423584" lon="-2.0861666836">
        <ele>394.76</ele>
        <time>2018-11-09T07:41:24Z</time>
      </trkpt>
      <trkpt lat="37.0954618044" lon="-2.0861663483">
        <ele>393.80</ele>
        <time>2018-11-09T07:41:49Z</time>
      </trkpt>
      <trkpt lat="37.0954567753" lon="-2.0861761551">
        <ele>393.32</ele>
        <time>2018-11-09T07:42:05Z</time>
      </trkpt>
      <trkpt lat="37.0954530034" lon="-2.0861711260">
        <ele>393.32</ele>
        <time>2018-11-09T07:42:28Z</time>
      </trkpt>
      <trkpt lat="37.0954564400" lon="-2.0861662645">
        <ele>394.28</ele>
        <time>2018-11-09T07:42:52Z</time>
      </trkpt>
      <trkpt lat="37.0954456273" lon="-2.0861655101">
        <ele>393.80</ele>
        <time>2018-11-09T07:43:12Z</time>
      </trkpt>
      <trkpt lat="37.0954504889" lon="-2.0861495845">
        <ele>394.76</ele>
        <time>2018-11-09T07:43:32Z</time>
      </trkpt>
      <trkpt lat="37.0954504889" lon="-2.0861510932">
        <ele>394.76</ele>
        <time>2018-11-09T07:43:53Z</time>
      </trkpt>
      <trkpt lat="37.0954496507" lon="-2.0861565415">
        <ele>394.76</ele>
        <time>2018-11-09T07:44:14Z</time>
      </trkpt>
      <trkpt lat="37.0954441186" lon="-2.0861526858">
        <ele>395.24</ele>
        <time>2018-11-09T07:44:32Z</time>
      </trkpt>
      <trkpt lat="37.0954553504" lon="-2.0861532725">
        <ele>393.80</ele>
        <time>2018-11-09T07:44:54Z</time>
      </trkpt>
      <trkpt lat="37.0954588708" lon="-2.0861639176">
        <ele>393.80</ele>
        <time>2018-11-09T07:45:13Z</time>
      </trkpt>
      <trkpt lat="37.0954525843" lon="-2.0861766580">
        <ele>393.80</ele>
        <time>2018-11-09T07:45:15Z</time>
      </trkpt>
      <trkpt lat="37.0954242535" lon="-2.0861212537">
        <ele>393.32</ele>
        <time>2018-11-09T07:45:21Z</time>
      </trkpt>
      <trkpt lat="37.0954130217" lon="-2.0861135423">
        <ele>393.32</ele>
        <time>2018-11-09T07:45:23Z</time>
      </trkpt>
      <trkpt lat="37.0954010356" lon="-2.0861258637">
        <ele>393.32</ele>
        <time>2018-11-09T07:45:30Z</time>
      </trkpt>
      <trkpt lat="37.0953663345" lon="-2.0861351676">
        <ele>392.84</ele>
        <time>2018-11-09T07:45:33Z</time>
      </trkpt>
      <trkpt lat="37.0952388458" lon="-2.0860886481">
        <ele>393.32</ele>
        <time>2018-11-09T07:45:40Z</time>
      </trkpt>
      <trkpt lat="37.0951502491" lon="-2.0859623328">
        <ele>393.80</ele>
        <time>2018-11-09T07:45:46Z</time>
      </trkpt>
      <trkpt lat="37.0950233471" lon="-2.0856527891">
        <ele>395.72</ele>
        <time>2018-11-09T07:45:58Z</time>
      </trkpt>
      <trkpt lat="37.0949103590" lon="-2.0854004100">
        <ele>397.64</ele>
        <time>2018-11-09T07:46:08Z</time>
      </trkpt>
      <trkpt lat="37.0947903302" lon="-2.0852393098">
        <ele>399.08</ele>
        <time>2018-11-09T07:46:16Z</time>
      </trkpt>
      <trkpt lat="37.0946179982" lon="-2.0850989129">
        <ele>401.49</ele>
        <time>2018-11-09T07:46:26Z</time>
      </trkpt>
      <trkpt lat="37.0944289863" lon="-2.0849907026">
        <ele>403.41</ele>
        <time>2018-11-09T07:46:36Z</time>
      </trkpt>
      <trkpt lat="37.0942440815" lon="-2.0849828236">
        <ele>404.85</ele>
        <time>2018-11-09T07:46:46Z</time>
      </trkpt>
      <trkpt lat="37.0940098912" lon="-2.0850283373">
        <ele>406.29</ele>
        <time>2018-11-09T07:46:58Z</time>
      </trkpt>
      <trkpt lat="37.0937593561" lon="-2.0851414092">
        <ele>406.77</ele>
        <time>2018-11-09T07:47:11Z</time>
      </trkpt>
      <trkpt lat="37.0936003514" lon="-2.0852375496">
        <ele>406.77</ele>
        <time>2018-11-09T07:47:20Z</time>
      </trkpt>
      <trkpt lat="37.0934166200" lon="-2.0853418205">
        <ele>407.26</ele>
        <time>2018-11-09T07:47:29Z</time>
      </trkpt>
      <trkpt lat="37.0931841061" lon="-2.0854628552">
        <ele>407.74</ele>
        <time>2018-11-09T07:47:40Z</time>
      </trkpt>
      <trkpt lat="37.0929074194" lon="-2.0854938682">
        <ele>409.18</ele>
        <time>2018-11-09T07:47:52Z</time>
      </trkpt>
      <trkpt lat="37.0926654339" lon="-2.0854264777">
        <ele>410.14</ele>
        <time>2018-11-09T07:48:02Z</time>
      </trkpt>
      <trkpt lat="37.0924262982" lon="-2.0853742585">
        <ele>411.10</ele>
        <time>2018-11-09T07:48:11Z</time>
      </trkpt>
      <trkpt lat="37.0920995716" lon="-2.0853457600">
        <ele>410.62</ele>
        <time>2018-11-09T07:48:23Z</time>
      </trkpt>
      <trkpt lat="37.0918453485" lon="-2.0852374658">
        <ele>410.14</ele>
        <time>2018-11-09T07:48:32Z</time>
      </trkpt>
      <trkpt lat="37.0915700868" lon="-2.0849749446">
        <ele>408.22</ele>
        <time>2018-11-09T07:48:40Z</time>
      </trkpt>
      <trkpt lat="37.0911994390" lon="-2.0845642313">
        <ele>408.22</ele>
        <time>2018-11-09T07:48:50Z</time>
      </trkpt>
      <trkpt lat="37.0909144543" lon="-2.0840362553">
        <ele>406.29</ele>
        <time>2018-11-09T07:48:59Z</time>
      </trkpt>
      <trkpt lat="37.0906547830" lon="-2.0835270546">
        <ele>403.89</ele>
        <time>2018-11-09T07:49:06Z</time>
      </trkpt>
      <trkpt lat="37.0905852970" lon="-2.0834168326">
        <ele>403.41</ele>
        <time>2018-11-09T07:49:09Z</time>
      </trkpt>
      <trkpt lat="37.0905011427" lon="-2.0833547227">
        <ele>403.41</ele>
        <time>2018-11-09T07:49:16Z</time>
      </trkpt>
      <trkpt lat="37.0904512703" lon="-2.0833600871">
        <ele>402.93</ele>
        <time>2018-11-09T07:49:24Z</time>
      </trkpt>
      <trkpt lat="37.0904523600" lon="-2.0833544713">
        <ele>402.45</ele>
        <time>2018-11-09T07:49:38Z</time>
      </trkpt>
      <trkpt lat="37.0903999731" lon="-2.0833746716">
        <ele>402.93</ele>
        <time>2018-11-09T07:49:46Z</time>
      </trkpt>
      <trkpt lat="37.0902382862" lon="-2.0835128054">
        <ele>403.41</ele>
        <time>2018-11-09T07:49:54Z</time>
      </trkpt>
      <trkpt lat="37.0900610089" lon="-2.0836947765">
        <ele>404.37</ele>
        <time>2018-11-09T07:50:03Z</time>
      </trkpt>
      <trkpt lat="37.0898799598" lon="-2.0838830341">
        <ele>405.33</ele>
        <time>2018-11-09T07:50:13Z</time>
      </trkpt>
      <trkpt lat="37.0897578355" lon="-2.0840165578">
        <ele>406.29</ele>
        <time>2018-11-09T07:50:21Z</time>
      </trkpt>
      <trkpt lat="37.0896280836" lon="-2.0841492433">
        <ele>407.26</ele>
        <time>2018-11-09T07:50:30Z</time>
      </trkpt>
      <trkpt lat="37.0894775447" lon="-2.0842991956">
        <ele>407.74</ele>
        <time>2018-11-09T07:50:40Z</time>
      </trkpt>
      <trkpt lat="37.0893383212" lon="-2.0844515786">
        <ele>409.18</ele>
        <time>2018-11-09T07:50:50Z</time>
      </trkpt>
      <trkpt lat="37.0891979244" lon="-2.0845984295">
        <ele>411.58</ele>
        <time>2018-11-09T07:50:59Z</time>
      </trkpt>
      <trkpt lat="37.0890670829" lon="-2.0847493038">
        <ele>412.54</ele>
        <time>2018-11-09T07:51:08Z</time>
      </trkpt>
      <trkpt lat="37.0889359061" lon="-2.0849352982">
        <ele>412.54</ele>
        <time>2018-11-09T07:51:18Z</time>
      </trkpt>
      <trkpt lat="37.0888568647" lon="-2.0850487053">
        <ele>412.54</ele>
        <time>2018-11-09T07:51:24Z</time>
      </trkpt>
      <trkpt lat="37.0887145400" lon="-2.0852505416">
        <ele>414.47</ele>
        <time>2018-11-09T07:51:33Z</time>
      </trkpt>
      <trkpt lat="37.0885877218" lon="-2.0854535513">
        <ele>415.43</ele>
        <time>2018-11-09T07:51:42Z</time>
      </trkpt>
      <trkpt lat="37.0884507615" lon="-2.0856879931">
        <ele>415.91</ele>
        <time>2018-11-09T07:51:52Z</time>
      </trkpt>
      <trkpt lat="37.0883446466" lon="-2.0858702157">
        <ele>416.39</ele>
        <time>2018-11-09T07:52:00Z</time>
      </trkpt>
      <trkpt lat="37.0881390385" lon="-2.0862071682">
        <ele>417.35</ele>
        <time>2018-11-09T07:52:12Z</time>
      </trkpt>
      <trkpt lat="37.0879840571" lon="-2.0864329766">
        <ele>417.83</ele>
        <time>2018-11-09T07:52:20Z</time>
      </trkpt>
      <trkpt lat="37.0878442470" lon="-2.0866777282">
        <ele>418.31</ele>
        <time>2018-11-09T07:52:28Z</time>
      </trkpt>
      <trkpt lat="37.0877191890" lon="-2.0869886968">
        <ele>417.83</ele>
        <time>2018-11-09T07:52:37Z</time>
      </trkpt>
      <trkpt lat="37.0875880960" lon="-2.0873402338">
        <ele>417.83</ele>
        <time>2018-11-09T07:52:47Z</time>
      </trkpt>
      <trkpt lat="37.0874741860" lon="-2.0875903498">
        <ele>417.35</ele>
        <time>2018-11-09T07:52:55Z</time>
      </trkpt>
      <trkpt lat="37.0872352179" lon="-2.0879733190">
        <ele>416.87</ele>
        <time>2018-11-09T07:53:05Z</time>
      </trkpt>
      <trkpt lat="37.0870628022" lon="-2.0882892329">
        <ele>417.83</ele>
        <time>2018-11-09T07:53:14Z</time>
      </trkpt>
      <trkpt lat="37.0869703498" lon="-2.0884338208">
        <ele>418.79</ele>
        <time>2018-11-09T07:53:22Z</time>
      </trkpt>
      <trkpt lat="37.0868623909" lon="-2.0885088388">
        <ele>417.35</ele>
        <time>2018-11-09T07:53:31Z</time>
      </trkpt>
      <trkpt lat="37.0866320562" lon="-2.0886086673">
        <ele>415.91</ele>
        <time>2018-11-09T07:53:37Z</time>
      </trkpt>
      <trkpt lat="37.0861566346" lon="-2.0887938235">
        <ele>416.39</ele>
        <time>2018-11-09T07:53:48Z</time>
      </trkpt>
      <trkpt lat="37.0859054290" lon="-2.0889791474">
        <ele>416.87</ele>
        <time>2018-11-09T07:53:56Z</time>
      </trkpt>
      <trkpt lat="37.0856298320" lon="-2.0892406628">
        <ele>418.31</ele>
        <time>2018-11-09T07:54:05Z</time>
      </trkpt>
      <trkpt lat="37.0853782073" lon="-2.0895590074">
        <ele>419.27</ele>
        <time>2018-11-09T07:54:15Z</time>
      </trkpt>
      <trkpt lat="37.0852369722" lon="-2.0898940321">
        <ele>419.75</ele>
        <time>2018-11-09T07:54:24Z</time>
      </trkpt>
      <trkpt lat="37.0850957371" lon="-2.0902535319">
        <ele>420.71</ele>
        <time>2018-11-09T07:54:34Z</time>
      </trkpt>
      <trkpt lat="37.0849230699" lon="-2.0905439649">
        <ele>422.64</ele>
        <time>2018-11-09T07:54:44Z</time>
      </trkpt>
      <trkpt lat="37.0847695973" lon="-2.0907245111">
        <ele>422.64</ele>
        <time>2018-11-09T07:54:53Z</time>
      </trkpt>
      <trkpt lat="37.0845962595" lon="-2.0909659937">
        <ele>423.12</ele>
        <time>2018-11-09T07:55:02Z</time>
      </trkpt>
      <trkpt lat="37.0843621530" lon="-2.0912686642">
        <ele>424.08</ele>
        <time>2018-11-09T07:55:13Z</time>
      </trkpt>
      <trkpt lat="37.0841182396" lon="-2.0915280841">
        <ele>425.52</ele>
        <time>2018-11-09T07:55:23Z</time>
      </trkpt>
      <trkpt lat="37.0839290600" lon="-2.0918124821">
        <ele>426.00</ele>
        <time>2018-11-09T07:55:32Z</time>
      </trkpt>
      <trkpt lat="37.0837176684" lon="-2.0921444893">
        <ele>426.48</ele>
        <time>2018-11-09T07:55:43Z</time>
      </trkpt>
      <trkpt lat="37.0835237950" lon="-2.0924310666">
        <ele>424.08</ele>
        <time>2018-11-09T07:55:49Z</time>
      </trkpt>
      <trkpt lat="37.0832611900" lon="-2.0927764848">
        <ele>419.75</ele>
        <time>2018-11-09T07:55:54Z</time>
      </trkpt>
      <trkpt lat="37.0828394126" lon="-2.0933081489">
        <ele>418.31</ele>
        <time>2018-11-09T07:56:01Z</time>
      </trkpt>
      <trkpt lat="37.0825324673" lon="-2.0937369671">
        <ele>419.27</ele>
        <time>2018-11-09T07:56:08Z</time>
      </trkpt>
      <trkpt lat="37.0823967643" lon="-2.0939330198">
        <ele>419.75</ele>
        <time>2018-11-09T07:56:13Z</time>
      </trkpt>
      <trkpt lat="37.0822959300" lon="-2.0941028371">
        <ele>420.23</ele>
        <time>2018-11-09T07:56:20Z</time>
      </trkpt>
      <trkpt lat="37.0822665934" lon="-2.0941284858">
        <ele>420.23</ele>
        <time>2018-11-09T07:56:26Z</time>
      </trkpt>
      <trkpt lat="37.0822696947" lon="-2.0941332635">
        <ele>419.27</ele>
        <time>2018-11-09T07:56:36Z</time>
      </trkpt>
      <trkpt lat="37.0822681859" lon="-2.0941356104">
        <ele>418.31</ele>
        <time>2018-11-09T07:56:52Z</time>
      </trkpt>
      <trkpt lat="37.0822564512" lon="-2.0941400528">
        <ele>418.31</ele>
        <time>2018-11-09T07:56:54Z</time>
      </trkpt>
      <trkpt lat="37.0821524318" lon="-2.0941786095">
        <ele>418.31</ele>
        <time>2018-11-09T07:57:00Z</time>
      </trkpt>
      <trkpt lat="37.0820323192" lon="-2.0942443237">
        <ele>418.31</ele>
        <time>2018-11-09T07:57:08Z</time>
      </trkpt>
      <trkpt lat="37.0820087660" lon="-2.0942644402">
        <ele>418.79</ele>
        <time>2018-11-09T07:57:14Z</time>
      </trkpt>
      <trkpt lat="37.0820055809" lon="-2.0942622609">
        <ele>418.31</ele>
        <time>2018-11-09T07:57:24Z</time>
      </trkpt>
      <trkpt lat="37.0820060000" lon="-2.0942626800">
        <ele>418.79</ele>
        <time>2018-11-09T07:57:39Z</time>
      </trkpt>
      <trkpt lat="37.0819999650" lon="-2.0942654461">
        <ele>416.87</ele>
        <time>2018-11-09T07:57:57Z</time>
      </trkpt>
      <trkpt lat="37.0819999650" lon="-2.0942668710">
        <ele>416.87</ele>
        <time>2018-11-09T07:58:12Z</time>
      </trkpt>
      <trkpt lat="37.0819997974" lon="-2.0942635182">
        <ele>416.39</ele>
        <time>2018-11-09T07:58:34Z</time>
      </trkpt>
      <trkpt lat="37.0819957741" lon="-2.0942686312">
        <ele>416.39</ele>
        <time>2018-11-09T07:58:44Z</time>
      </trkpt>
      <trkpt lat="37.0819837041" lon="-2.0942716487">
        <ele>416.87</ele>
        <time>2018-11-09T07:58:45Z</time>
      </trkpt>
      <trkpt lat="37.0819697063" lon="-2.0942765940">
        <ele>416.87</ele>
        <time>2018-11-09T07:58:46Z</time>
      </trkpt>
      <trkpt lat="37.0819545351" lon="-2.0942822099">
        <ele>416.87</ele>
        <time>2018-11-09T07:58:47Z</time>
      </trkpt>
      <trkpt lat="37.0819366816" lon="-2.0942884963">
        <ele>416.87</ele>
        <time>2018-11-09T07:58:48Z</time>
      </trkpt>
      <trkpt lat="37.0819182415" lon="-2.0942967944">
        <ele>417.35</ele>
        <time>2018-11-09T07:58:49Z</time>
      </trkpt>
      <trkpt lat="37.0819001365" lon="-2.0943046734">
        <ele>417.35</ele>
        <time>2018-11-09T07:58:50Z</time>
      </trkpt>
      <trkpt lat="37.0818822831" lon="-2.0943133906">
        <ele>417.35</ele>
        <time>2018-11-09T07:58:51Z</time>
      </trkpt>
      <trkpt lat="37.0818649326" lon="-2.0943221916">
        <ele>417.35</ele>
        <time>2018-11-09T07:58:52Z</time>
      </trkpt>
      <trkpt lat="37.0817355160" lon="-2.0944239479">
        <ele>416.39</ele>
        <time>2018-11-09T07:59:00Z</time>
      </trkpt>
      <trkpt lat="37.0815368649" lon="-2.0944916736">
        <ele>415.91</ele>
        <time>2018-11-09T07:59:08Z</time>
      </trkpt>
      <trkpt lat="37.0812537242" lon="-2.0944595709">
        <ele>416.87</ele>
        <time>2018-11-09T07:59:17Z</time>
      </trkpt>
      <trkpt lat="37.0809734333" lon="-2.0945059229">
        <ele>417.83</ele>
        <time>2018-11-09T07:59:26Z</time>
      </trkpt>
      <trkpt lat="37.0806730259" lon="-2.0945293084">
        <ele>418.31</ele>
        <time>2018-11-09T07:59:36Z</time>
      </trkpt>
      <trkpt lat="37.0804374944" lon="-2.0945101138">
        <ele>419.27</ele>
        <time>2018-11-09T07:59:44Z</time>
      </trkpt>
      <trkpt lat="37.0802213252" lon="-2.0944837108">
        <ele>420.71</ele>
        <time>2018-11-09T07:59:52Z</time>
      </trkpt>
      <trkpt lat="37.0800029766" lon="-2.0944339223">
        <ele>421.19</ele>
        <time>2018-11-09T08:00:00Z</time>
      </trkpt>
      <trkpt lat="37.0798214246" lon="-2.0944221877">
        <ele>421.68</ele>
        <time>2018-11-09T08:00:08Z</time>
      </trkpt>
      <trkpt lat="37.0797329955" lon="-2.0944484230">
        <ele>421.19</ele>
        <time>2018-11-09T08:00:14Z</time>
      </trkpt>
      <trkpt lat="37.0796805248" lon="-2.0944711380">
        <ele>422.16</ele>
        <time>2018-11-09T08:00:21Z</time>
      </trkpt>
      <trkpt lat="37.0796368551" lon="-2.0944838785">
        <ele>422.64</ele>
        <time>2018-11-09T08:00:25Z</time>
      </trkpt>
      <trkpt lat="37.0796249527" lon="-2.0944894105">
        <ele>423.12</ele>
        <time>2018-11-09T08:00:26Z</time>
      </trkpt>
      <trkpt lat="37.0794937760" lon="-2.0945453178">
        <ele>424.08</ele>
        <time>2018-11-09T08:00:37Z</time>
      </trkpt>
      <trkpt lat="37.0794700552" lon="-2.0945559628">
        <ele>424.56</ele>
        <time>2018-11-09T08:00:39Z</time>
      </trkpt>
      <trkpt lat="37.0794586558" lon="-2.0945604891">
        <ele>424.56</ele>
        <time>2018-11-09T08:00:40Z</time>
      </trkpt>
      <trkpt lat="37.0794479270" lon="-2.0945680328">
        <ele>424.56</ele>
        <time>2018-11-09T08:00:41Z</time>
      </trkpt>
      <trkpt lat="37.0794366952" lon="-2.0945740677">
        <ele>425.04</ele>
        <time>2018-11-09T08:00:42Z</time>
      </trkpt>
      <trkpt lat="37.0794265531" lon="-2.0945797674">
        <ele>425.04</ele>
        <time>2018-11-09T08:00:43Z</time>
      </trkpt>
      <trkpt lat="37.0792990644" lon="-2.0946402848">
        <ele>426.96</ele>
        <time>2018-11-09T08:00:53Z</time>
      </trkpt>
      <trkpt lat="37.0792362001" lon="-2.0946854632">
        <ele>428.40</ele>
        <time>2018-11-09T08:00:58Z</time>
      </trkpt>
      <trkpt lat="37.0792231243" lon="-2.0946904086">
        <ele>428.40</ele>
        <time>2018-11-09T08:00:59Z</time>
      </trkpt>
      <trkpt lat="37.0792118087" lon="-2.0946951862">
        <ele>428.40</ele>
        <time>2018-11-09T08:01:00Z</time>
      </trkpt>
      <trkpt lat="37.0791992359" lon="-2.0947045740">
        <ele>428.89</ele>
        <time>2018-11-09T08:01:01Z</time>
      </trkpt>
      <trkpt lat="37.0791846514" lon="-2.0947111119">
        <ele>429.37</ele>
        <time>2018-11-09T08:01:02Z</time>
      </trkpt>
      <trkpt lat="37.0791699830" lon="-2.0947175659">
        <ele>429.37</ele>
        <time>2018-11-09T08:01:03Z</time>
      </trkpt>
      <trkpt lat="37.0791567396" lon="-2.0947257802">
        <ele>429.37</ele>
        <time>2018-11-09T08:01:04Z</time>
      </trkpt>
      <trkpt lat="37.0791429933" lon="-2.0947326533">
        <ele>429.85</ele>
        <time>2018-11-09T08:01:05Z</time>
      </trkpt>
      <trkpt lat="37.0791277383" lon="-2.0947378501">
        <ele>429.85</ele>
        <time>2018-11-09T08:01:06Z</time>
      </trkpt>
      <trkpt lat="37.0789699070" lon="-2.0947925001">
        <ele>431.29</ele>
        <time>2018-11-09T08:01:17Z</time>
      </trkpt>
      <trkpt lat="37.0789116528" lon="-2.0948079228">
        <ele>431.77</ele>
        <time>2018-11-09T08:01:24Z</time>
      </trkpt>
      <trkpt lat="37.0788693242" lon="-2.0948328171">
        <ele>432.25</ele>
        <time>2018-11-09T08:01:32Z</time>
      </trkpt>
      <trkpt lat="37.0788706653" lon="-2.0948390197">
        <ele>432.73</ele>
        <time>2018-11-09T08:01:47Z</time>
      </trkpt>
      <trkpt lat="37.0788842440" lon="-2.0948349964">
        <ele>431.29</ele>
        <time>2018-11-09T08:02:00Z</time>
      </trkpt>
      <trkpt lat="37.0788424183" lon="-2.0948333200">
        <ele>431.77</ele>
        <time>2018-11-09T08:02:13Z</time>
      </trkpt>
      <trkpt lat="37.0787544083" lon="-2.0949048176">
        <ele>432.25</ele>
        <time>2018-11-09T08:02:19Z</time>
      </trkpt>
      <trkpt lat="37.0786468685" lon="-2.0950236730">
        <ele>432.73</ele>
        <time>2018-11-09T08:02:26Z</time>
      </trkpt>
      <trkpt lat="37.0785597805" lon="-2.0951399300">
        <ele>434.17</ele>
        <time>2018-11-09T08:02:33Z</time>
      </trkpt>
      <trkpt lat="37.0784175396" lon="-2.0952782314">
        <ele>435.61</ele>
        <time>2018-11-09T08:02:42Z</time>
      </trkpt>
      <trkpt lat="37.0782403462" lon="-2.0952775609">
        <ele>435.13</ele>
        <time>2018-11-09T08:02:50Z</time>
      </trkpt>
      <trkpt lat="37.0780751389" lon="-2.0951852761">
        <ele>435.13</ele>
        <time>2018-11-09T08:02:57Z</time>
      </trkpt>
      <trkpt lat="37.0779315569" lon="-2.0951626450">
        <ele>436.58</ele>
        <time>2018-11-09T08:03:04Z</time>
      </trkpt>
      <trkpt lat="37.0778311417" lon="-2.0953033771">
        <ele>437.06</ele>
        <time>2018-11-09T08:03:11Z</time>
      </trkpt>
      <trkpt lat="37.0776908286" lon="-2.0955247432">
        <ele>438.02</ele>
        <time>2018-11-09T08:03:21Z</time>
      </trkpt>
      <trkpt lat="37.0775608253" lon="-2.0957360510">
        <ele>439.94</ele>
        <time>2018-11-09T08:03:30Z</time>
      </trkpt>
      <trkpt lat="37.0774302352" lon="-2.0959435031">
        <ele>440.42</ele>
        <time>2018-11-09T08:03:40Z</time>
      </trkpt>
      <trkpt lat="37.0772932749" lon="-2.0961605944">
        <ele>442.34</ele>
        <time>2018-11-09T08:03:50Z</time>
      </trkpt>
      <trkpt lat="37.0771392994" lon="-2.0963786077">
        <ele>443.31</ele>
        <time>2018-11-09T08:04:00Z</time>
      </trkpt>
      <trkpt lat="37.0769916940" lon="-2.0965578966">
        <ele>443.79</ele>
        <time>2018-11-09T08:04:10Z</time>
      </trkpt>
      <trkpt lat="37.0768490341" lon="-2.0966868103">
        <ele>444.27</ele>
        <time>2018-11-09T08:04:19Z</time>
      </trkpt>
      <trkpt lat="37.0766984113" lon="-2.0968484133">
        <ele>446.19</ele>
        <time>2018-11-09T08:04:29Z</time>
      </trkpt>
      <trkpt lat="37.0766030252" lon="-2.0969679393">
        <ele>447.15</ele>
        <time>2018-11-09T08:04:36Z</time>
      </trkpt>
      <trkpt lat="37.0765037835" lon="-2.0971278660">
        <ele>449.55</ele>
        <time>2018-11-09T08:04:45Z</time>
      </trkpt>
      <trkpt lat="37.0764219761" lon="-2.0972634852">
        <ele>450.52</ele>
        <time>2018-11-09T08:04:52Z</time>
      </trkpt>
      <trkpt lat="37.0763318706" lon="-2.0974374097">
        <ele>451.00</ele>
        <time>2018-11-09T08:05:01Z</time>
      </trkpt>
      <trkpt lat="37.0762449503" lon="-2.0976091549">
        <ele>450.52</ele>
        <time>2018-11-09T08:05:09Z</time>
      </trkpt>
      <trkpt lat="37.0761675015" lon="-2.0978113264">
        <ele>451.00</ele>
        <time>2018-11-09T08:05:18Z</time>
      </trkpt>
      <trkpt lat="37.0760716964" lon="-2.0981036033">
        <ele>450.52</ele>
        <time>2018-11-09T08:05:28Z</time>
      </trkpt>
      <trkpt lat="37.0760183875" lon="-2.0984036755">
        <ele>448.59</ele>
        <time>2018-11-09T08:05:37Z</time>
      </trkpt>
      <trkpt lat="37.0760186389" lon="-2.0986630116">
        <ele>447.15</ele>
        <time>2018-11-09T08:05:44Z</time>
      </trkpt>
      <trkpt lat="37.0759452134" lon="-2.0988043305">
        <ele>447.15</ele>
        <time>2018-11-09T08:05:49Z</time>
      </trkpt>
      <trkpt lat="37.0758023858" lon="-2.0989730582">
        <ele>448.59</ele>
        <time>2018-11-09T08:05:57Z</time>
      </trkpt>
      <trkpt lat="37.0757141244" lon="-2.0991854556">
        <ele>449.07</ele>
        <time>2018-11-09T08:06:05Z</time>
      </trkpt>
      <trkpt lat="37.0756012201" lon="-2.0994165447">
        <ele>448.59</ele>
        <time>2018-11-09T08:06:14Z</time>
      </trkpt>
      <trkpt lat="37.0754276309" lon="-2.0996112563">
        <ele>449.07</ele>
        <time>2018-11-09T08:06:24Z</time>
      </trkpt>
      <trkpt lat="37.0752608310" lon="-2.0997514017">
        <ele>450.03</ele>
        <time>2018-11-09T08:06:33Z</time>
      </trkpt>
      <trkpt lat="37.0751552191" lon="-2.0998961572">
        <ele>451.48</ele>
        <time>2018-11-09T08:06:40Z</time>
      </trkpt>
      <trkpt lat="37.0750648621" lon="-2.1000771224">
        <ele>451.96</ele>
        <time>2018-11-09T08:06:48Z</time>
      </trkpt>
      <trkpt lat="37.0749134012" lon="-2.1002561599">
        <ele>453.88</ele>
        <time>2018-11-09T08:06:58Z</time>
      </trkpt>
      <trkpt lat="37.0747569110" lon="-2.1003773622">
        <ele>455.32</ele>
        <time>2018-11-09T08:07:08Z</time>
      </trkpt>
      <trkpt lat="37.0746459346" lon="-2.1004849020">
        <ele>456.28</ele>
        <time>2018-11-09T08:07:18Z</time>
      </trkpt>
      <trkpt lat="37.0745445136" lon="-2.1006388776">
        <ele>457.72</ele>
        <time>2018-11-09T08:07:27Z</time>
      </trkpt>
      <trkpt lat="37.0744559169" lon="-2.1007625945">
        <ele>459.17</ele>
        <time>2018-11-09T08:07:36Z</time>
      </trkpt>
      <trkpt lat="37.0743846707" lon="-2.1008602437">
        <ele>459.65</ele>
        <time>2018-11-09T08:07:43Z</time>
      </trkpt>
      <trkpt lat="37.0742844231" lon="-2.1009943541">
        <ele>460.61</ele>
        <time>2018-11-09T08:07:52Z</time>
      </trkpt>
      <trkpt lat="37.0741605386" lon="-2.1011586394">
        <ele>461.57</ele>
        <time>2018-11-09T08:08:02Z</time>
      </trkpt>
      <trkpt lat="37.0740470476" lon="-2.1012691967">
        <ele>462.53</ele>
        <time>2018-11-09T08:08:10Z</time>
      </trkpt>
      <trkpt lat="37.0739699341" lon="-2.1013445500">
        <ele>463.01</ele>
        <time>2018-11-09T08:08:17Z</time>
      </trkpt>
      <trkpt lat="37.0738390088" lon="-2.1014764812">
        <ele>463.01</ele>
        <time>2018-11-09T08:08:26Z</time>
      </trkpt>
      <trkpt lat="37.0737332292" lon="-2.1016099211">
        <ele>463.97</ele>
        <time>2018-11-09T08:08:34Z</time>
      </trkpt>
      <trkpt lat="37.0736431237" lon="-2.1017639805">
        <ele>464.93</ele>
        <time>2018-11-09T08:08:42Z</time>
      </trkpt>
      <trkpt lat="37.0735560358" lon="-2.1019210573">
        <ele>465.90</ele>
        <time>2018-11-09T08:08:50Z</time>
      </trkpt>
      <trkpt lat="37.0734382700" lon="-2.1021125838">
        <ele>466.86</ele>
        <time>2018-11-09T08:09:00Z</time>
      </trkpt>
      <trkpt lat="37.0733495895" lon="-2.1022708341">
        <ele>467.34</ele>
        <time>2018-11-09T08:09:08Z</time>
      </trkpt>
      <trkpt lat="37.0732545387" lon="-2.1024554037">
        <ele>467.82</ele>
        <time>2018-11-09T08:09:17Z</time>
      </trkpt>
      <trkpt lat="37.0731482562" lon="-2.1026890073">
        <ele>468.30</ele>
        <time>2018-11-09T08:09:27Z</time>
      </trkpt>
      <trkpt lat="37.0730239525" lon="-2.1029015724">
        <ele>468.30</ele>
        <time>2018-11-09T08:09:37Z</time>
      </trkpt>
      <trkpt lat="37.0729123894" lon="-2.1030091122">
        <ele>468.30</ele>
        <time>2018-11-09T08:09:44Z</time>
      </trkpt>
      <trkpt lat="37.0727496129" lon="-2.1031251177">
        <ele>468.78</ele>
        <time>2018-11-09T08:09:53Z</time>
      </trkpt>
      <trkpt lat="37.0725790411" lon="-2.1032507624">
        <ele>469.74</ele>
        <time>2018-11-09T08:10:02Z</time>
      </trkpt>
      <trkpt lat="37.0724343695" lon="-2.1033691149">
        <ele>470.70</ele>
        <time>2018-11-09T08:10:11Z</time>
      </trkpt>
      <trkpt lat="37.0723266620" lon="-2.1034835279">
        <ele>471.66</ele>
        <time>2018-11-09T08:10:19Z</time>
      </trkpt>
      <trkpt lat="37.0722462796" lon="-2.1035950910">
        <ele>473.59</ele>
        <time>2018-11-09T08:10:27Z</time>
      </trkpt>
      <trkpt lat="37.0721388236" lon="-2.1037070733">
        <ele>475.03</ele>
        <time>2018-11-09T08:10:36Z</time>
      </trkpt>
      <trkpt lat="37.0720133465" lon="-2.1038050577">
        <ele>475.99</ele>
        <time>2018-11-09T08:10:44Z</time>
      </trkpt>
      <trkpt lat="37.0719198883" lon="-2.1038721967">
        <ele>476.47</ele>
        <time>2018-11-09T08:10:51Z</time>
      </trkpt>
      <trkpt lat="37.0717887953" lon="-2.1039705165">
        <ele>478.39</ele>
        <time>2018-11-09T08:10:59Z</time>
      </trkpt>
      <trkpt lat="37.0717259310" lon="-2.1040434390">
        <ele>477.91</ele>
        <time>2018-11-09T08:11:07Z</time>
      </trkpt>
      <trkpt lat="37.0716214087" lon="-2.1041761246">
        <ele>477.43</ele>
        <time>2018-11-09T08:11:13Z</time>
      </trkpt>
      <trkpt lat="37.0714916568" lon="-2.1043553296">
        <ele>475.99</ele>
        <time>2018-11-09T08:11:19Z</time>
      </trkpt>
      <trkpt lat="37.0714246016" lon="-2.1044336166">
        <ele>475.51</ele>
        <time>2018-11-09T08:11:21Z</time>
      </trkpt>
      <trkpt lat="37.0712490007" lon="-2.1045490354">
        <ele>475.99</ele>
        <time>2018-11-09T08:11:27Z</time>
      </trkpt>
      <trkpt lat="37.0710483380" lon="-2.1045916993">
        <ele>476.47</ele>
        <time>2018-11-09T08:11:37Z</time>
      </trkpt>
      <trkpt lat="37.0710003097" lon="-2.1045963932">
        <ele>476.47</ele>
        <time>2018-11-09T08:11:43Z</time>
      </trkpt>
      <trkpt lat="37.0709962863" lon="-2.1045899391">
        <ele>476.95</ele>
        <time>2018-11-09T08:11:55Z</time>
      </trkpt>
      <trkpt lat="37.0710006449" lon="-2.1045918670">
        <ele>476.47</ele>
        <time>2018-11-09T08:12:14Z</time>
      </trkpt>
      <trkpt lat="37.0710017346" lon="-2.1045956388">
        <ele>476.95</ele>
        <time>2018-11-09T08:12:29Z</time>
      </trkpt>
      <trkpt lat="37.0710050035" lon="-2.1045906935">
        <ele>477.43</ele>
        <time>2018-11-09T08:12:44Z</time>
      </trkpt>
      <trkpt lat="37.0709542930" lon="-2.1045963094">
        <ele>477.43</ele>
        <time>2018-11-09T08:12:49Z</time>
      </trkpt>
      <trkpt lat="37.0707795303" lon="-2.1046008356">
        <ele>477.91</ele>
        <time>2018-11-09T08:12:58Z</time>
      </trkpt>
      <trkpt lat="37.0705536380" lon="-2.1045669727">
        <ele>479.35</ele>
        <time>2018-11-09T08:13:09Z</time>
      </trkpt>
      <trkpt lat="37.0703935437" lon="-2.1045577526">
        <ele>481.76</ele>
        <time>2018-11-09T08:13:17Z</time>
      </trkpt>
      <trkpt lat="37.0701838285" lon="-2.1046099719">
        <ele>482.72</ele>
        <time>2018-11-09T08:13:27Z</time>
      </trkpt>
      <trkpt lat="37.0699487999" lon="-2.1046573296">
        <ele>483.68</ele>
        <time>2018-11-09T08:13:38Z</time>
      </trkpt>
      <trkpt lat="37.0698783081" lon="-2.1046454273">
        <ele>484.16</ele>
        <time>2018-11-09T08:13:42Z</time>
      </trkpt>
      <trkpt lat="37.0697234944" lon="-2.1046283282">
        <ele>484.64</ele>
        <time>2018-11-09T08:13:49Z</time>
      </trkpt>
      <trkpt lat="37.0695803314" lon="-2.1045199502">
        <ele>484.64</ele>
        <time>2018-11-09T08:13:56Z</time>
      </trkpt>
      <trkpt lat="37.0694138668" lon="-2.1042859275">
        <ele>484.16</ele>
        <time>2018-11-09T08:14:05Z</time>
      </trkpt>
      <trkpt lat="37.0692485757" lon="-2.1041491348">
        <ele>484.16</ele>
        <time>2018-11-09T08:14:12Z</time>
      </trkpt>
      <trkpt lat="37.0691068377" lon="-2.1040595323">
        <ele>484.64</ele>
        <time>2018-11-09T08:14:19Z</time>
      </trkpt>
      <trkpt lat="37.0689155627" lon="-2.1039256733">
        <ele>483.68</ele>
        <time>2018-11-09T08:14:26Z</time>
      </trkpt>
      <trkpt lat="37.0687392075" lon="-2.1038562711">
        <ele>483.68</ele>
        <time>2018-11-09T08:14:32Z</time>
      </trkpt>
      <trkpt lat="37.0686687995" lon="-2.1038419381">
        <ele>483.20</ele>
        <time>2018-11-09T08:14:36Z</time>
      </trkpt>
      <trkpt lat="37.0686549693" lon="-2.1038481407">
        <ele>483.20</ele>
        <time>2018-11-09T08:14:37Z</time>
      </trkpt>
      <trkpt lat="37.0686420612" lon="-2.1038528346">
        <ele>483.20</ele>
        <time>2018-11-09T08:14:38Z</time>
      </trkpt>
      <trkpt lat="37.0685497764" lon="-2.1038853563">
        <ele>482.72</ele>
        <time>2018-11-09T08:14:47Z</time>
      </trkpt>
      <trkpt lat="37.0685117226" lon="-2.1038980130">
        <ele>483.20</ele>
        <time>2018-11-09T08:14:53Z</time>
      </trkpt>
      <trkpt lat="37.0685053524" lon="-2.1038923133">
        <ele>483.20</ele>
        <time>2018-11-09T08:15:07Z</time>
      </trkpt>
      <trkpt lat="37.0684348606" lon="-2.1039236616">
        <ele>483.20</ele>
        <time>2018-11-09T08:15:13Z</time>
      </trkpt>
      <trkpt lat="37.0682295877" lon="-2.1039193869">
        <ele>482.24</ele>
        <time>2018-11-09T08:15:22Z</time>
      </trkpt>
      <trkpt lat="37.0679824892" lon="-2.1038247552">
        <ele>482.72</ele>
        <time>2018-11-09T08:15:31Z</time>
      </trkpt>
      <trkpt lat="37.0677617937" lon="-2.1036596317">
        <ele>482.72</ele>
        <time>2018-11-09T08:15:39Z</time>
      </trkpt>
      <trkpt lat="37.0675410144" lon="-2.1035356633">
        <ele>482.72</ele>
        <time>2018-11-09T08:15:46Z</time>
      </trkpt>
      <trkpt lat="37.0673852786" lon="-2.1036054008">
        <ele>482.72</ele>
        <time>2018-11-09T08:15:51Z</time>
      </trkpt>
      <trkpt lat="37.0672013797" lon="-2.1036866214">
        <ele>483.68</ele>
        <time>2018-11-09T08:15:59Z</time>
      </trkpt>
      <trkpt lat="37.0670441352" lon="-2.1038222406">
        <ele>487.53</ele>
        <time>2018-11-09T08:16:07Z</time>
      </trkpt>
      <trkpt lat="37.0669026487" lon="-2.1039911360">
        <ele>489.45</ele>
        <time>2018-11-09T08:16:16Z</time>
      </trkpt>
      <trkpt lat="37.0667847153" lon="-2.1041604504">
        <ele>491.37</ele>
        <time>2018-11-09T08:16:25Z</time>
      </trkpt>
      <trkpt lat="37.0666653570" lon="-2.1043673158">
        <ele>491.85</ele>
        <time>2018-11-09T08:16:35Z</time>
      </trkpt>
      <trkpt lat="37.0665859804" lon="-2.1045008395">
        <ele>491.85</ele>
        <time>2018-11-09T08:16:42Z</time>
      </trkpt>
      <trkpt lat="37.0664311666" lon="-2.1047069505">
        <ele>492.33</ele>
        <time>2018-11-09T08:16:53Z</time>
      </trkpt>
      <trkpt lat="37.0662789512" lon="-2.1048589982">
        <ele>492.33</ele>
        <time>2018-11-09T08:17:02Z</time>
      </trkpt>
      <trkpt lat="37.0661189407" lon="-2.1049271431">
        <ele>493.77</ele>
        <time>2018-11-09T08:17:10Z</time>
      </trkpt>
      <trkpt lat="37.0660015102" lon="-2.1050615050">
        <ele>492.81</ele>
        <time>2018-11-09T08:17:17Z</time>
      </trkpt>
      <trkpt lat="37.0658352971" lon="-2.1053101961">
        <ele>492.33</ele>
        <time>2018-11-09T08:17:25Z</time>
      </trkpt>
      <trkpt lat="37.0656967442" lon="-2.1055057459">
        <ele>492.33</ele>
        <time>2018-11-09T08:17:32Z</time>
      </trkpt>
      <trkpt lat="37.0654767193" lon="-2.1057408582">
        <ele>493.77</ele>
        <time>2018-11-09T08:17:42Z</time>
      </trkpt>
      <trkpt lat="37.0652644895" lon="-2.1058815066">
        <ele>494.74</ele>
        <time>2018-11-09T08:17:50Z</time>
      </trkpt>
      <trkpt lat="37.0651164651" lon="-2.1059173811">
        <ele>495.70</ele>
        <time>2018-11-09T08:17:57Z</time>
      </trkpt>
      <trkpt lat="37.0649046544" lon="-2.1059440356">
        <ele>494.26</ele>
        <time>2018-11-09T08:18:03Z</time>
      </trkpt>
      <trkpt lat="37.0648778323" lon="-2.1059678402">
        <ele>494.26</ele>
        <time>2018-11-09T08:18:04Z</time>
      </trkpt>
      <trkpt lat="37.0648447238" lon="-2.1060172096">
        <ele>493.77</ele>
        <time>2018-11-09T08:18:06Z</time>
      </trkpt>
      <trkpt lat="37.0648437180" lon="-2.1060433611">
        <ele>493.77</ele>
        <time>2018-11-09T08:18:07Z</time>
      </trkpt>
      <trkpt lat="37.0648477413" lon="-2.1060675010">
        <ele>493.29</ele>
        <time>2018-11-09T08:18:08Z</time>
      </trkpt>
      <trkpt lat="37.0648546144" lon="-2.1060865279">
        <ele>493.29</ele>
        <time>2018-11-09T08:18:09Z</time>
      </trkpt>
      <trkpt lat="37.0648640860" lon="-2.1061039623">
        <ele>492.81</ele>
        <time>2018-11-09T08:18:10Z</time>
      </trkpt>
      <trkpt lat="37.0648764074" lon="-2.1061181277">
        <ele>492.81</ele>
        <time>2018-11-09T08:18:11Z</time>
      </trkpt>
      <trkpt lat="37.0648878068" lon="-2.1061322093">
        <ele>492.81</ele>
        <time>2018-11-09T08:18:12Z</time>
      </trkpt>
      <trkpt lat="37.0649976935" lon="-2.1062834188">
        <ele>493.77</ele>
        <time>2018-11-09T08:18:21Z</time>
      </trkpt>
      <trkpt lat="37.0650196541" lon="-2.1063232329">
        <ele>494.74</ele>
        <time>2018-11-09T08:18:23Z</time>
      </trkpt>
      <trkpt lat="37.0650271140" lon="-2.1063448582">
        <ele>495.22</ele>
        <time>2018-11-09T08:18:24Z</time>
      </trkpt>
      <trkpt lat="37.0650341548" lon="-2.1063692495">
        <ele>495.22</ele>
        <time>2018-11-09T08:18:25Z</time>
      </trkpt>
      <trkpt lat="37.0650381781" lon="-2.1063933056">
        <ele>495.70</ele>
        <time>2018-11-09T08:18:26Z</time>
      </trkpt>
      <trkpt lat="37.0650397707" lon="-2.1064173616">
        <ele>495.70</ele>
        <time>2018-11-09T08:18:27Z</time>
      </trkpt>
      <trkpt lat="37.0650439616" lon="-2.1064385679">
        <ele>496.18</ele>
        <time>2018-11-09T08:18:28Z</time>
      </trkpt>
      <trkpt lat="37.0650510024" lon="-2.1064566728">
        <ele>496.66</ele>
        <time>2018-11-09T08:18:29Z</time>
      </trkpt>
      <trkpt lat="37.0651047304" lon="-2.1065296791">
        <ele>497.14</ele>
        <time>2018-11-09T08:18:33Z</time>
      </trkpt>
      <trkpt lat="37.0651233383" lon="-2.1065378934">
        <ele>497.14</ele>
        <time>2018-11-09T08:18:34Z</time>
      </trkpt>
      <trkpt lat="37.0651463885" lon="-2.1065413300">
        <ele>497.14</ele>
        <time>2018-11-09T08:18:35Z</time>
      </trkpt>
      <trkpt lat="37.0651727915" lon="-2.1065425035">
        <ele>497.14</ele>
        <time>2018-11-09T08:18:36Z</time>
      </trkpt>
      <trkpt lat="37.0652038883" lon="-2.1065375581">
        <ele>496.66</ele>
        <time>2018-11-09T08:18:37Z</time>
      </trkpt>
      <trkpt lat="37.0652332250" lon="-2.1065273322">
        <ele>496.66</ele>
        <time>2018-11-09T08:18:38Z</time>
      </trkpt>
      <trkpt lat="37.0652575325" lon="-2.1065228060">
        <ele>496.66</ele>
        <time>2018-11-09T08:18:39Z</time>
      </trkpt>
      <trkpt lat="37.0652741287" lon="-2.1065321937">
        <ele>496.66</ele>
        <time>2018-11-09T08:18:40Z</time>
      </trkpt>
      <trkpt lat="37.0652861986" lon="-2.1065482870">
        <ele>496.66</ele>
        <time>2018-11-09T08:18:41Z</time>
      </trkpt>
      <trkpt lat="37.0652998611" lon="-2.1065693256">
        <ele>497.14</ele>
        <time>2018-11-09T08:18:42Z</time>
      </trkpt>
      <trkpt lat="37.0653152000" lon="-2.1065897774">
        <ele>497.14</ele>
        <time>2018-11-09T08:18:43Z</time>
      </trkpt>
      <trkpt lat="37.0653317124" lon="-2.1066095587">
        <ele>497.62</ele>
        <time>2018-11-09T08:18:44Z</time>
      </trkpt>
      <trkpt lat="37.0654635597" lon="-2.1067793760">
        <ele>499.06</ele>
        <time>2018-11-09T08:18:53Z</time>
      </trkpt>
      <trkpt lat="37.0656028669" lon="-2.1068996564">
        <ele>496.18</ele>
        <time>2018-11-09T08:19:00Z</time>
      </trkpt>
      <trkpt lat="37.0657080598" lon="-2.1069942042">
        <ele>494.26</ele>
        <time>2018-11-09T08:19:04Z</time>
      </trkpt>
      <trkpt lat="37.0657182857" lon="-2.1070415620">
        <ele>494.26</ele>
        <time>2018-11-09T08:19:05Z</time>
      </trkpt>
      <trkpt lat="37.0657244883" lon="-2.1070923563">
        <ele>493.77</ele>
        <time>2018-11-09T08:19:06Z</time>
      </trkpt>
      <trkpt lat="37.0658011828" lon="-2.1073526982">
        <ele>493.29</ele>
        <time>2018-11-09T08:19:12Z</time>
      </trkpt>
      <trkpt lat="37.0657786354" lon="-2.1074921731">
        <ele>493.77</ele>
        <time>2018-11-09T08:19:17Z</time>
      </trkpt>
      <trkpt lat="37.0656696707" lon="-2.1076215059">
        <ele>495.70</ele>
        <time>2018-11-09T08:19:24Z</time>
      </trkpt>
      <trkpt lat="37.0655939821" lon="-2.1077390201">
        <ele>498.58</ele>
        <time>2018-11-09T08:19:31Z</time>
      </trkpt>
      <trkpt lat="37.0655682497" lon="-2.1078552771">
        <ele>500.50</ele>
        <time>2018-11-09T08:19:38Z</time>
      </trkpt>
      <trkpt lat="37.0655226521" lon="-2.1079992782">
        <ele>502.43</ele>
        <time>2018-11-09T08:19:46Z</time>
      </trkpt>
      <trkpt lat="37.0654136874" lon="-2.1081378311">
        <ele>504.83</ele>
        <time>2018-11-09T08:19:55Z</time>
      </trkpt>
      <trkpt lat="37.0653646532" lon="-2.1082003601">
        <ele>506.27</ele>
        <time>2018-11-09T08:20:02Z</time>
      </trkpt>
      <trkpt lat="37.0653550979" lon="-2.1081965044">
        <ele>505.79</ele>
        <time>2018-11-09T08:20:12Z</time>
      </trkpt>
      <trkpt lat="37.0653060637" lon="-2.1082982607">
        <ele>506.75</ele>
        <time>2018-11-09T08:20:22Z</time>
      </trkpt>
      <trkpt lat="37.0652627293" lon="-2.1084357239">
        <ele>507.71</ele>
        <time>2018-11-09T08:20:34Z</time>
      </trkpt>
      <trkpt lat="37.0652263518" lon="-2.1085151006">
        <ele>509.16</ele>
        <time>2018-11-09T08:20:43Z</time>
      </trkpt>
      <trkpt lat="37.0651838556" lon="-2.1086256579">
        <ele>511.08</ele>
        <time>2018-11-09T08:20:54Z</time>
      </trkpt>
      <trkpt lat="37.0651427004" lon="-2.1087437589">
        <ele>512.52</ele>
        <time>2018-11-09T08:21:05Z</time>
      </trkpt>
      <trkpt lat="37.0651167165" lon="-2.1088262368">
        <ele>513.00</ele>
        <time>2018-11-09T08:21:15Z</time>
      </trkpt>
      <trkpt lat="37.0650841948" lon="-2.1089321002">
        <ele>515.40</ele>
        <time>2018-11-09T08:21:27Z</time>
      </trkpt>
      <trkpt lat="37.0650745556" lon="-2.1089771949">
        <ele>515.40</ele>
        <time>2018-11-09T08:21:35Z</time>
      </trkpt>
      <trkpt lat="37.0650588814" lon="-2.1090211160">
        <ele>515.88</ele>
        <time>2018-11-09T08:21:51Z</time>
      </trkpt>
      <trkpt lat="37.0650005434" lon="-2.1091465931">
        <ele>515.40</ele>
        <time>2018-11-09T08:22:00Z</time>
      </trkpt>
      <trkpt lat="37.0649168082" lon="-2.1092998143">
        <ele>515.88</ele>
        <time>2018-11-09T08:22:12Z</time>
      </trkpt>
      <trkpt lat="37.0649030618" lon="-2.1094154846">
        <ele>518.29</ele>
        <time>2018-11-09T08:22:22Z</time>
      </trkpt>
      <trkpt lat="37.0649062470" lon="-2.1094987169">
        <ele>519.25</ele>
        <time>2018-11-09T08:22:31Z</time>
      </trkpt>
      <trkpt lat="37.0649059117" lon="-2.1095904149">
        <ele>520.69</ele>
        <time>2018-11-09T08:22:41Z</time>
      </trkpt>
      <trkpt lat="37.0648877230" lon="-2.1096676122">
        <ele>522.13</ele>
        <time>2018-11-09T08:22:51Z</time>
      </trkpt>
      <trkpt lat="37.0648949314" lon="-2.1096691210">
        <ele>521.17</ele>
        <time>2018-11-09T08:23:06Z</time>
      </trkpt>
      <trkpt lat="37.0648964401" lon="-2.1096649300">
        <ele>521.17</ele>
        <time>2018-11-09T08:23:17Z</time>
      </trkpt>
      <trkpt lat="37.0648981165" lon="-2.1096568834">
        <ele>520.21</ele>
        <time>2018-11-09T08:23:37Z</time>
      </trkpt>
      <trkpt lat="37.0648985356" lon="-2.1096666902">
        <ele>519.25</ele>
        <time>2018-11-09T08:23:56Z</time>
      </trkpt>
      <trkpt lat="37.0648949314" lon="-2.1096843760">
        <ele>519.25</ele>
        <time>2018-11-09T08:24:06Z</time>
      </trkpt>
      <trkpt lat="37.0648992900" lon="-2.1097060852">
        <ele>520.69</ele>
        <time>2018-11-09T08:24:15Z</time>
      </trkpt>
      <trkpt lat="37.0648983680" lon="-2.1096977871">
        <ele>521.17</ele>
        <time>2018-11-09T08:24:30Z</time>
      </trkpt>
      <trkpt lat="37.0649129525" lon="-2.1097139642">
        <ele>522.13</ele>
        <time>2018-11-09T08:24:59Z</time>
      </trkpt>
      <trkpt lat="37.0648972783" lon="-2.1096930932">
        <ele>522.61</ele>
        <time>2018-11-09T08:25:25Z</time>
      </trkpt>
      <trkpt lat="37.0649062470" lon="-2.1096985415">
        <ele>522.61</ele>
        <time>2018-11-09T08:25:49Z</time>
      </trkpt>
      <trkpt lat="37.0649034809" lon="-2.1096864715">
        <ele>523.58</ele>
        <time>2018-11-09T08:26:14Z</time>
      </trkpt>
      <trkpt lat="37.0649085939" lon="-2.1096925903">
        <ele>524.06</ele>
        <time>2018-11-09T08:26:29Z</time>
      </trkpt>
      <trkpt lat="37.0648917463" lon="-2.1097070910">
        <ele>523.58</ele>
        <time>2018-11-09T08:26:51Z</time>
      </trkpt>
      <trkpt lat="37.0648935903" lon="-2.1097154729">
        <ele>524.06</ele>
        <time>2018-11-09T08:27:11Z</time>
      </trkpt>
      <trkpt lat="37.0648978651" lon="-2.1097018942">
        <ele>523.09</ele>
        <time>2018-11-09T08:27:27Z</time>
      </trkpt>
      <trkpt lat="37.0648907404" lon="-2.1097018942">
        <ele>520.69</ele>
        <time>2018-11-09T08:27:40Z</time>
      </trkpt>
      <trkpt lat="37.0648832805" lon="-2.1097049955">
        <ele>521.17</ele>
        <time>2018-11-09T08:27:59Z</time>
      </trkpt>
      <trkpt lat="37.0648934226" lon="-2.1097153053">
        <ele>521.17</ele>
        <time>2018-11-09T08:28:14Z</time>
      </trkpt>
      <trkpt lat="37.0648909919" lon="-2.1096933447">
        <ele>522.13</ele>
        <time>2018-11-09T08:28:28Z</time>
      </trkpt>
      <trkpt lat="37.0648882259" lon="-2.1097023133">
        <ele>522.61</ele>
        <time>2018-11-09T08:28:41Z</time>
      </trkpt>
      <trkpt lat="37.0648888126" lon="-2.1097024810">
        <ele>522.61</ele>
        <time>2018-11-09T08:28:57Z</time>
      </trkpt>
      <trkpt lat="37.0648835320" lon="-2.1097029839">
        <ele>522.13</ele>
        <time>2018-11-09T08:29:12Z</time>
      </trkpt>
      <trkpt lat="37.0648845378" lon="-2.1097043250">
        <ele>521.17</ele>
        <time>2018-11-09T08:29:28Z</time>
      </trkpt>
      <trkpt lat="37.0648845378" lon="-2.1096955240">
        <ele>521.65</ele>
        <time>2018-11-09T08:29:46Z</time>
      </trkpt>
      <trkpt lat="37.0648917463" lon="-2.1097006369">
        <ele>522.13</ele>
        <time>2018-11-09T08:29:59Z</time>
      </trkpt>
      <trkpt lat="37.0648904890" lon="-2.1096910816">
        <ele>521.17</ele>
        <time>2018-11-09T08:30:13Z</time>
      </trkpt>
      <trkpt lat="37.0648800954" lon="-2.1096957754">
        <ele>520.21</ele>
        <time>2018-11-09T08:30:27Z</time>
      </trkpt>
      <trkpt lat="37.0648872200" lon="-2.1096908301">
        <ele>519.25</ele>
        <time>2018-11-09T08:30:44Z</time>
      </trkpt>
      <trkpt lat="37.0648844540" lon="-2.1097044088">
        <ele>519.25</ele>
        <time>2018-11-09T08:30:57Z</time>
      </trkpt>
      <trkpt lat="37.0648885611" lon="-2.1096915845">
        <ele>519.25</ele>
        <time>2018-11-09T08:31:11Z</time>
      </trkpt>
      <trkpt lat="37.0648866333" lon="-2.1096932609">
        <ele>518.29</ele>
        <time>2018-11-09T08:31:29Z</time>
      </trkpt>
      <trkpt lat="37.0648940094" lon="-2.1097063366">
        <ele>520.21</ele>
        <time>2018-11-09T08:31:47Z</time>
      </trkpt>
      <trkpt lat="37.0648930036" lon="-2.1097087674">
        <ele>520.69</ele>
        <time>2018-11-09T08:32:03Z</time>
      </trkpt>
      <trkpt lat="37.0648898184" lon="-2.1096956078">
        <ele>521.17</ele>
        <time>2018-11-09T08:32:24Z</time>
      </trkpt>
      <trkpt lat="37.0648909081" lon="-2.1096881479">
        <ele>520.21</ele>
        <time>2018-11-09T08:32:45Z</time>
      </trkpt>
      <trkpt lat="37.0648907404" lon="-2.1096904110">
        <ele>520.21</ele>
        <time>2018-11-09T08:33:04Z</time>
      </trkpt>
      <trkpt lat="37.0648945961" lon="-2.1096979547">
        <ele>520.21</ele>
        <time>2018-11-09T08:33:23Z</time>
      </trkpt>
      <trkpt lat="37.0648969430" lon="-2.1096944343">
        <ele>520.69</ele>
        <time>2018-11-09T08:33:40Z</time>
      </trkpt>
      <trkpt lat="37.0648871362" lon="-2.1097038221">
        <ele>520.69</ele>
        <time>2018-11-09T08:34:02Z</time>
      </trkpt>
      <trkpt lat="37.0648869686" lon="-2.1097055823">
        <ele>520.69</ele>
        <time>2018-11-09T08:34:19Z</time>
      </trkpt>
      <trkpt lat="37.0648922492" lon="-2.1097201668">
        <ele>521.17</ele>
        <time>2018-11-09T08:34:36Z</time>
      </trkpt>
      <trkpt lat="37.0648465678" lon="-2.1098594740">
        <ele>520.21</ele>
        <time>2018-11-09T08:34:45Z</time>
      </trkpt>
      <trkpt lat="37.0647785068" lon="-2.1100374218">
        <ele>520.21</ele>
        <time>2018-11-09T08:34:57Z</time>
      </trkpt>
      <trkpt lat="37.0647206716" lon="-2.1102000307">
        <ele>520.69</ele>
        <time>2018-11-09T08:35:09Z</time>
      </trkpt>
      <trkpt lat="37.0646654349" lon="-2.1103771403">
        <ele>521.65</ele>
        <time>2018-11-09T08:35:20Z</time>
      </trkpt>
      <trkpt lat="37.0645675343" lon="-2.1105291881">
        <ele>522.61</ele>
        <time>2018-11-09T08:35:32Z</time>
      </trkpt>
      <trkpt lat="37.0644789375" lon="-2.1106863488">
        <ele>524.06</ele>
        <time>2018-11-09T08:35:46Z</time>
      </trkpt>
      <trkpt lat="37.0644356869" lon="-2.1108051203">
        <ele>525.50</ele>
        <time>2018-11-09T08:35:57Z</time>
      </trkpt>
      <trkpt lat="37.0643596631" lon="-2.1109042782">
        <ele>526.94</ele>
        <time>2018-11-09T08:36:08Z</time>
      </trkpt>
      <trkpt lat="37.0643359423" lon="-2.1109404042">
        <ele>525.98</ele>
        <time>2018-11-09T08:36:15Z</time>
      </trkpt>
      <trkpt lat="37.0642810408" lon="-2.1110011730">
        <ele>527.42</ele>
        <time>2018-11-09T08:36:24Z</time>
      </trkpt>
      <trkpt lat="37.0642138179" lon="-2.1110611036">
        <ele>528.38</ele>
        <time>2018-11-09T08:36:33Z</time>
      </trkpt>
      <trkpt lat="37.0641193539" lon="-2.1111136582">
        <ele>529.82</ele>
        <time>2018-11-09T08:36:43Z</time>
      </trkpt>
      <trkpt lat="37.0639836509" lon="-2.1111634467">
        <ele>531.27</ele>
        <time>2018-11-09T08:36:55Z</time>
      </trkpt>
      <trkpt lat="37.0638650469" lon="-2.1111941244">
        <ele>532.23</ele>
        <time>2018-11-09T08:37:05Z</time>
      </trkpt>
      <trkpt lat="37.0637518913" lon="-2.1112341061">
        <ele>533.19</ele>
        <time>2018-11-09T08:37:15Z</time>
      </trkpt>
      <trkpt lat="37.0636345446" lon="-2.1113110520">
        <ele>533.67</ele>
        <time>2018-11-09T08:37:26Z</time>
      </trkpt>
      <trkpt lat="37.0636005141" lon="-2.1114011575">
        <ele>534.15</ele>
        <time>2018-11-09T08:37:34Z</time>
      </trkpt>
      <trkpt lat="37.0635915454" lon="-2.1114629321">
        <ele>534.63</ele>
        <time>2018-11-09T08:37:42Z</time>
      </trkpt>
      <trkpt lat="37.0635869354" lon="-2.1114683803">
        <ele>535.59</ele>
        <time>2018-11-09T08:37:57Z</time>
      </trkpt>
      <trkpt lat="37.0635902882" lon="-2.1114787739">
        <ele>535.11</ele>
        <time>2018-11-09T08:38:09Z</time>
      </trkpt>
      <trkpt lat="37.0635783859" lon="-2.1115083620">
        <ele>536.07</ele>
        <time>2018-11-09T08:38:21Z</time>
      </trkpt>
      <trkpt lat="37.0635389909" lon="-2.1116410475">
        <ele>537.51</ele>
        <time>2018-11-09T08:38:31Z</time>
      </trkpt>
      <trkpt lat="37.0634545851" lon="-2.1117773373">
        <ele>537.99</ele>
        <time>2018-11-09T08:38:42Z</time>
      </trkpt>
      <trkpt lat="37.0633477997" lon="-2.1118205041">
        <ele>538.48</ele>
        <time>2018-11-09T08:38:52Z</time>
      </trkpt>
      <trkpt lat="37.0632475521" lon="-2.1117959451">
        <ele>539.44</ele>
        <time>2018-11-09T08:39:02Z</time>
      </trkpt>
      <trkpt lat="37.0631294511" lon="-2.1117754094">
        <ele>541.36</ele>
        <time>2018-11-09T08:39:14Z</time>
      </trkpt>
      <trkpt lat="37.0630601328" lon="-2.1118016448">
        <ele>542.80</ele>
        <time>2018-11-09T08:39:24Z</time>
      </trkpt>
      <trkpt lat="37.0629987773" lon="-2.1118303109">
        <ele>543.76</ele>
        <time>2018-11-09T08:39:32Z</time>
      </trkpt>
      <trkpt lat="37.0629160479" lon="-2.1118497569">
        <ele>545.20</ele>
        <time>2018-11-09T08:39:42Z</time>
      </trkpt>
      <trkpt lat="37.0628050715" lon="-2.1118488349">
        <ele>546.65</ele>
        <time>2018-11-09T08:39:53Z</time>
      </trkpt>
      <trkpt lat="37.0626936760" lon="-2.1118502598">
        <ele>548.09</ele>
        <time>2018-11-09T08:40:03Z</time>
      </trkpt>
      <trkpt lat="37.0625387784" lon="-2.1118203364">
        <ele>550.01</ele>
        <time>2018-11-09T08:40:16Z</time>
      </trkpt>
      <trkpt lat="37.0624879003" lon="-2.1117975377">
        <ele>550.97</ele>
        <time>2018-11-09T08:40:25Z</time>
      </trkpt>
      <trkpt lat="37.0624844637" lon="-2.1117918380">
        <ele>551.45</ele>
        <time>2018-11-09T08:40:39Z</time>
      </trkpt>
      <trkpt lat="37.0624685381" lon="-2.1117975377">
        <ele>550.97</ele>
        <time>2018-11-09T08:40:53Z</time>
      </trkpt>
      <trkpt lat="37.0624554623" lon="-2.1117937658">
        <ele>550.97</ele>
        <time>2018-11-09T08:40:54Z</time>
      </trkpt>
      <trkpt lat="37.0624401234" lon="-2.1117870603">
        <ele>550.97</ele>
        <time>2018-11-09T08:40:55Z</time>
      </trkpt>
      <trkpt lat="37.0624218509" lon="-2.1117832884">
        <ele>550.97</ele>
        <time>2018-11-09T08:40:56Z</time>
      </trkpt>
      <trkpt lat="37.0623995550" lon="-2.1117772534">
        <ele>550.97</ele>
        <time>2018-11-09T08:40:57Z</time>
      </trkpt>
      <trkpt lat="37.0623777620" lon="-2.1117727272">
        <ele>550.49</ele>
        <time>2018-11-09T08:40:58Z</time>
      </trkpt>
      <trkpt lat="37.0623515267" lon="-2.1117668599">
        <ele>550.49</ele>
        <time>2018-11-09T08:40:59Z</time>
      </trkpt>
      <trkpt lat="37.0623246208" lon="-2.1117583103">
        <ele>550.01</ele>
        <time>2018-11-09T08:41:00Z</time>
      </trkpt>
      <trkpt lat="37.0622960385" lon="-2.1117455699">
        <ele>549.53</ele>
        <time>2018-11-09T08:41:01Z</time>
      </trkpt>
      <trkpt lat="37.0622692164" lon="-2.1117322426">
        <ele>549.05</ele>
        <time>2018-11-09T08:41:02Z</time>
      </trkpt>
      <trkpt lat="37.0621394645" lon="-2.1117179934">
        <ele>547.61</ele>
        <time>2018-11-09T08:41:06Z</time>
      </trkpt>
      <trkpt lat="37.0621004049" lon="-2.1117399540">
        <ele>547.61</ele>
        <time>2018-11-09T08:41:07Z</time>
      </trkpt>
      <trkpt lat="37.0619366225" lon="-2.1118782554">
        <ele>548.09</ele>
        <time>2018-11-09T08:41:13Z</time>
      </trkpt>
      <trkpt lat="37.0618237182" lon="-2.1120108571">
        <ele>548.57</ele>
        <time>2018-11-09T08:41:20Z</time>
      </trkpt>
      <trkpt lat="37.0616839081" lon="-2.1122043952">
        <ele>549.05</ele>
        <time>2018-11-09T08:41:29Z</time>
      </trkpt>
      <trkpt lat="37.0615643822" lon="-2.1123313811">
        <ele>550.01</ele>
        <time>2018-11-09T08:41:37Z</time>
      </trkpt>
      <trkpt lat="37.0614514779" lon="-2.1124344785">
        <ele>550.49</ele>
        <time>2018-11-09T08:41:44Z</time>
      </trkpt>
      <trkpt lat="37.0613688324" lon="-2.1125901304">
        <ele>550.97</ele>
        <time>2018-11-09T08:41:52Z</time>
      </trkpt>
      <trkpt lat="37.0612713508" lon="-2.1128022764">
        <ele>551.45</ele>
        <time>2018-11-09T08:42:02Z</time>
      </trkpt>
      <trkpt lat="37.0611847658" lon="-2.1129952278">
        <ele>551.45</ele>
        <time>2018-11-09T08:42:12Z</time>
      </trkpt>
      <trkpt lat="37.0610701013" lon="-2.1130801365">
        <ele>552.90</ele>
        <time>2018-11-09T08:42:21Z</time>
      </trkpt>
      <trkpt lat="37.0610259287" lon="-2.1131549031">
        <ele>553.86</ele>
        <time>2018-11-09T08:42:28Z</time>
      </trkpt>
      <trkpt lat="37.0610186365" lon="-2.1131865866">
        <ele>554.34</ele>
        <time>2018-11-09T08:42:36Z</time>
      </trkpt>
      <trkpt lat="37.0609850250" lon="-2.1133061964">
        <ele>554.82</ele>
        <time>2018-11-09T08:42:47Z</time>
      </trkpt>
      <trkpt lat="37.0609502401" lon="-2.1134217829">
        <ele>556.26</ele>
        <time>2018-11-09T08:42:57Z</time>
      </trkpt>
      <trkpt lat="37.0608927403" lon="-2.1135401353">
        <ele>557.22</ele>
        <time>2018-11-09T08:43:07Z</time>
      </trkpt>
      <trkpt lat="37.0608265232" lon="-2.1136228647">
        <ele>557.70</ele>
        <time>2018-11-09T08:43:16Z</time>
      </trkpt>
      <trkpt lat="37.0607582945" lon="-2.1136741620">
        <ele>559.62</ele>
        <time>2018-11-09T08:43:27Z</time>
      </trkpt>
      <trkpt lat="37.0607566182" lon="-2.1136824600">
        <ele>559.62</ele>
        <time>2018-11-09T08:43:39Z</time>
      </trkpt>
      <trkpt lat="37.0607223362" lon="-2.1136912610">
        <ele>560.11</ele>
        <time>2018-11-09T08:43:45Z</time>
      </trkpt>
      <trkpt lat="37.0606377628" lon="-2.1137218550">
        <ele>561.07</ele>
        <time>2018-11-09T08:43:54Z</time>
      </trkpt>
      <trkpt lat="37.0605425444" lon="-2.1137676202">
        <ele>562.03</ele>
        <time>2018-11-09T08:44:04Z</time>
      </trkpt>
      <trkpt lat="37.0604603179" lon="-2.1138336696">
        <ele>562.99</ele>
        <time>2018-11-09T08:44:14Z</time>
      </trkpt>
      <trkpt lat="37.0603678655" lon="-2.1139066759">
        <ele>563.95</ele>
        <time>2018-11-09T08:44:26Z</time>
      </trkpt>
      <trkpt lat="37.0603608247" lon="-2.1139199194">
        <ele>563.95</ele>
        <time>2018-11-09T08:44:34Z</time>
      </trkpt>
      <trkpt lat="37.0603193343" lon="-2.1139522735">
        <ele>563.95</ele>
        <time>2018-11-09T08:44:44Z</time>
      </trkpt>
      <trkpt lat="37.0602117106" lon="-2.1140060853">
        <ele>565.87</ele>
        <time>2018-11-09T08:44:56Z</time>
      </trkpt>
      <trkpt lat="37.0601211861" lon="-2.1140142996">
        <ele>567.32</ele>
        <time>2018-11-09T08:45:06Z</time>
      </trkpt>
      <trkpt lat="37.0600283984" lon="-2.1140410379">
        <ele>568.28</ele>
        <time>2018-11-09T08:45:16Z</time>
      </trkpt>
      <trkpt lat="37.0599188469" lon="-2.1141507570">
        <ele>569.72</ele>
        <time>2018-11-09T08:45:30Z</time>
      </trkpt>
      <trkpt lat="37.0598554797" lon="-2.1142156329">
        <ele>570.20</ele>
        <time>2018-11-09T08:45:39Z</time>
      </trkpt>
      <trkpt lat="37.0598160848" lon="-2.1142284572">
        <ele>570.68</ele>
        <time>2018-11-09T08:45:46Z</time>
      </trkpt>
      <trkpt lat="37.0597713254" lon="-2.1142250206">
        <ele>570.68</ele>
        <time>2018-11-09T08:45:54Z</time>
      </trkpt>
      <trkpt lat="37.0596889313" lon="-2.1141961869">
        <ele>572.12</ele>
        <time>2018-11-09T08:46:04Z</time>
      </trkpt>
      <trkpt lat="37.0596381370" lon="-2.1141842008">
        <ele>572.60</ele>
        <time>2018-11-09T08:46:12Z</time>
      </trkpt>
      <trkpt lat="37.0595735963" lon="-2.1141592227">
        <ele>574.04</ele>
        <time>2018-11-09T08:46:21Z</time>
      </trkpt>
      <trkpt lat="37.0595252328" lon="-2.1141453926">
        <ele>574.53</ele>
        <time>2018-11-09T08:46:29Z</time>
      </trkpt>
      <trkpt lat="37.0595245622" lon="-2.1141514275">
        <ele>575.49</ele>
        <time>2018-11-09T08:46:38Z</time>
      </trkpt>
      <trkpt lat="37.0594806410" lon="-2.1141378488">
        <ele>575.97</ele>
        <time>2018-11-09T08:46:45Z</time>
      </trkpt>
      <trkpt lat="37.0594472811" lon="-2.1141250245">
        <ele>576.45</ele>
        <time>2018-11-09T08:46:53Z</time>
      </trkpt>
      <trkpt lat="37.0593928825" lon="-2.1140975319">
        <ele>577.41</ele>
        <time>2018-11-09T08:47:01Z</time>
      </trkpt>
      <trkpt lat="37.0593168586" lon="-2.1140784211">
        <ele>578.37</ele>
        <time>2018-11-09T08:47:11Z</time>
      </trkpt>
      <trkpt lat="37.0592503902" lon="-2.1140653454">
        <ele>579.81</ele>
        <time>2018-11-09T08:47:21Z</time>
      </trkpt>
      <trkpt lat="37.0592481270" lon="-2.1140718833">
        <ele>580.29</ele>
        <time>2018-11-09T08:47:31Z</time>
      </trkpt>
      <trkpt lat="37.0592114981" lon="-2.1140767448">
        <ele>580.77</ele>
        <time>2018-11-09T08:47:43Z</time>
      </trkpt>
      <trkpt lat="37.0591988415" lon="-2.1140772477">
        <ele>580.77</ele>
        <time>2018-11-09T08:47:52Z</time>
      </trkpt>
      <trkpt lat="37.0592052117" lon="-2.1140690334">
        <ele>581.25</ele>
        <time>2018-11-09T08:48:07Z</time>
      </trkpt>
      <trkpt lat="37.0591977518" lon="-2.1140785888">
        <ele>581.73</ele>
        <time>2018-11-09T08:48:24Z</time>
      </trkpt>
      <trkpt lat="37.0591979194" lon="-2.1140807681">
        <ele>582.22</ele>
        <time>2018-11-09T08:48:44Z</time>
      </trkpt>
      <trkpt lat="37.0591819938" lon="-2.1140758228">
        <ele>581.73</ele>
        <time>2018-11-09T08:48:57Z</time>
      </trkpt>
      <trkpt lat="37.0591087360" lon="-2.1140883956">
        <ele>582.70</ele>
        <time>2018-11-09T08:49:07Z</time>
      </trkpt>
      <trkpt lat="37.0590377413" lon="-2.1141103562">
        <ele>583.18</ele>
        <time>2018-11-09T08:49:16Z</time>
      </trkpt>
      <trkpt lat="37.0590287726" lon="-2.1141126193">
        <ele>583.18</ele>
        <time>2018-11-09T08:49:17Z</time>
      </trkpt>
      <trkpt lat="37.0589457080" lon="-2.1141406149">
        <ele>584.14</ele>
        <time>2018-11-09T08:49:28Z</time>
      </trkpt>
      <trkpt lat="37.0588808320" lon="-2.1141732205">
        <ele>585.10</ele>
        <time>2018-11-09T08:49:37Z</time>
      </trkpt>
      <trkpt lat="37.0588228293" lon="-2.1142043173">
        <ele>585.58</ele>
        <time>2018-11-09T08:49:46Z</time>
      </trkpt>
      <trkpt lat="37.0587621443" lon="-2.1142471489">
        <ele>586.54</ele>
        <time>2018-11-09T08:49:55Z</time>
      </trkpt>
      <trkpt lat="37.0587210730" lon="-2.1142912377">
        <ele>587.02</ele>
        <time>2018-11-09T08:50:01Z</time>
      </trkpt>
      <trkpt lat="37.0586734638" lon="-2.1143459715">
        <ele>587.50</ele>
        <time>2018-11-09T08:50:12Z</time>
      </trkpt>
      <trkpt lat="37.0586698595" lon="-2.1143527608">
        <ele>587.50</ele>
        <time>2018-11-09T08:50:25Z</time>
      </trkpt>
      <trkpt lat="37.0586040616" lon="-2.1144187264">
        <ele>588.46</ele>
        <time>2018-11-09T08:50:34Z</time>
      </trkpt>
      <trkpt lat="37.0585690252" lon="-2.1144622285">
        <ele>588.95</ele>
        <time>2018-11-09T08:50:39Z</time>
      </trkpt>
      <trkpt lat="37.0585623197" lon="-2.1144727059">
        <ele>589.43</ele>
        <time>2018-11-09T08:50:40Z</time>
      </trkpt>
      <trkpt lat="37.0585073344" lon="-2.1145621408">
        <ele>590.39</ele>
        <time>2018-11-09T08:50:50Z</time>
      </trkpt>
      <trkpt lat="37.0584865473" lon="-2.1146069840">
        <ele>590.39</ele>
        <time>2018-11-09T08:50:58Z</time>
      </trkpt>
      <trkpt lat="37.0584668498" lon="-2.1146649867">
        <ele>591.35</ele>
        <time>2018-11-09T08:51:03Z</time>
      </trkpt>
      <trkpt lat="37.0584639162" lon="-2.1146780625">
        <ele>591.35</ele>
        <time>2018-11-09T08:51:04Z</time>
      </trkpt>
      <trkpt lat="37.0584591385" lon="-2.1146908868">
        <ele>591.35</ele>
        <time>2018-11-09T08:51:05Z</time>
      </trkpt>
      <trkpt lat="37.0584381837" lon="-2.1147980075">
        <ele>592.79</ele>
        <time>2018-11-09T08:51:14Z</time>
      </trkpt>
      <trkpt lat="37.0584188215" lon="-2.1149022784">
        <ele>594.23</ele>
        <time>2018-11-09T08:51:23Z</time>
      </trkpt>
      <trkpt lat="37.0583925862" lon="-2.1150378976">
        <ele>595.67</ele>
        <time>2018-11-09T08:51:34Z</time>
      </trkpt>
      <trkpt lat="37.0583725534" lon="-2.1151519753">
        <ele>596.64</ele>
        <time>2018-11-09T08:51:45Z</time>
      </trkpt>
      <trkpt lat="37.0583559573" lon="-2.1152024344">
        <ele>598.08</ele>
        <time>2018-11-09T08:51:52Z</time>
      </trkpt>
      <trkpt lat="37.0583374333" lon="-2.1152699087">
        <ele>599.52</ele>
        <time>2018-11-09T08:52:01Z</time>
      </trkpt>
      <trkpt lat="37.0583224297" lon="-2.1153156739">
        <ele>600.48</ele>
        <time>2018-11-09T08:52:09Z</time>
      </trkpt>
      <trkpt lat="37.0583000500" lon="-2.1153445076">
        <ele>599.52</ele>
        <time>2018-11-09T08:52:19Z</time>
      </trkpt>
      <trkpt lat="37.0582668576" lon="-2.1154190227">
        <ele>601.92</ele>
        <time>2018-11-09T08:52:29Z</time>
      </trkpt>
      <trkpt lat="37.0582661033" lon="-2.1154327691">
        <ele>601.92</ele>
        <time>2018-11-09T08:52:38Z</time>
      </trkpt>
      <trkpt lat="37.0582639240" lon="-2.1154320147">
        <ele>601.44</ele>
        <time>2018-11-09T08:52:55Z</time>
      </trkpt>
      <trkpt lat="37.0582471602" lon="-2.1154959686">
        <ele>603.36</ele>
        <time>2018-11-09T08:53:04Z</time>
      </trkpt>
      <trkpt lat="37.0582287200" lon="-2.1155683044">
        <ele>604.81</ele>
        <time>2018-11-09T08:53:13Z</time>
      </trkpt>
      <trkpt lat="37.0582055021" lon="-2.1156435739">
        <ele>605.77</ele>
        <time>2018-11-09T08:53:21Z</time>
      </trkpt>
      <trkpt lat="37.0582028199" lon="-2.1156596672">
        <ele>605.29</ele>
        <time>2018-11-09T08:53:29Z</time>
      </trkpt>
      <trkpt lat="37.0582091063" lon="-2.1156595834">
        <ele>605.29</ele>
        <time>2018-11-09T08:53:44Z</time>
      </trkpt>
      <trkpt lat="37.0582118724" lon="-2.1156561468">
        <ele>605.77</ele>
        <time>2018-11-09T08:54:02Z</time>
      </trkpt>
      <trkpt lat="37.0582108665" lon="-2.1156563144">
        <ele>604.33</ele>
        <time>2018-11-09T08:54:20Z</time>
      </trkpt>
      <trkpt lat="37.0582110342" lon="-2.1156610083">
        <ele>603.85</ele>
        <time>2018-11-09T08:54:37Z</time>
      </trkpt>
      <trkpt lat="37.0581978746" lon="-2.1156978887">
        <ele>603.85</ele>
        <time>2018-11-09T08:54:52Z</time>
      </trkpt>
      <trkpt lat="37.0581660233" lon="-2.1157851443">
        <ele>605.77</ele>
        <time>2018-11-09T08:55:02Z</time>
      </trkpt>
      <trkpt lat="37.0581313223" lon="-2.1158860624">
        <ele>607.21</ele>
        <time>2018-11-09T08:55:12Z</time>
      </trkpt>
      <trkpt lat="37.0581092779" lon="-2.1159707196">
        <ele>608.17</ele>
        <time>2018-11-09T08:55:19Z</time>
      </trkpt>
      <trkpt lat="37.0580415521" lon="-2.1160378587">
        <ele>609.61</ele>
        <time>2018-11-09T08:55:29Z</time>
      </trkpt>
      <trkpt lat="37.0579924341" lon="-2.1160735656">
        <ele>611.06</ele>
        <time>2018-11-09T08:55:37Z</time>
      </trkpt>
      <trkpt lat="37.0579629298" lon="-2.1160997171">
        <ele>611.54</ele>
        <time>2018-11-09T08:55:45Z</time>
      </trkpt>
      <trkpt lat="37.0579645224" lon="-2.1160969511">
        <ele>611.54</ele>
        <time>2018-11-09T08:55:59Z</time>
      </trkpt>
      <trkpt lat="37.0579309948" lon="-2.1161203366">
        <ele>612.02</ele>
        <time>2018-11-09T08:56:08Z</time>
      </trkpt>
      <trkpt lat="37.0579226967" lon="-2.1161230188">
        <ele>612.02</ele>
        <time>2018-11-09T08:56:09Z</time>
      </trkpt>
      <trkpt lat="37.0579129737" lon="-2.1161293890">
        <ele>612.02</ele>
        <time>2018-11-09T08:56:10Z</time>
      </trkpt>
      <trkpt lat="37.0578191802" lon="-2.1162025630">
        <ele>613.46</ele>
        <time>2018-11-09T08:56:22Z</time>
      </trkpt>
      <trkpt lat="37.0577517897" lon="-2.1162635833">
        <ele>614.42</ele>
        <time>2018-11-09T08:56:31Z</time>
      </trkpt>
      <trkpt lat="37.0577278174" lon="-2.1163110249">
        <ele>614.90</ele>
        <time>2018-11-09T08:56:39Z</time>
      </trkpt>
      <trkpt lat="37.0577340201" lon="-2.1163099352">
        <ele>614.42</ele>
        <time>2018-11-09T08:56:49Z</time>
      </trkpt>
      <trkpt lat="37.0577171724" lon="-2.1163474862">
        <ele>614.42</ele>
        <time>2018-11-09T08:57:03Z</time>
      </trkpt>
      <trkpt lat="37.0576502010" lon="-2.1165029705">
        <ele>615.86</ele>
        <time>2018-11-09T08:57:15Z</time>
      </trkpt>
      <trkpt lat="37.0576054417" lon="-2.1166146174">
        <ele>617.78</ele>
        <time>2018-11-09T08:57:25Z</time>
      </trkpt>
      <trkpt lat="37.0575699862" lon="-2.1167283598">
        <ele>618.75</ele>
        <time>2018-11-09T08:57:35Z</time>
      </trkpt>
      <trkpt lat="37.0575341117" lon="-2.1168584470">
        <ele>619.23</ele>
        <time>2018-11-09T08:57:45Z</time>
      </trkpt>
      <trkpt lat="37.0575124864" lon="-2.1169177070">
        <ele>619.71</ele>
        <time>2018-11-09T08:57:52Z</time>
      </trkpt>
      <trkpt lat="37.0575068705" lon="-2.1169719379">
        <ele>619.71</ele>
        <time>2018-11-09T08:58:00Z</time>
      </trkpt>
      <trkpt lat="37.0575084630" lon="-2.1169754583">
        <ele>619.71</ele>
        <time>2018-11-09T08:58:08Z</time>
      </trkpt>
      <trkpt lat="37.0575055294" lon="-2.1169662382">
        <ele>620.19</ele>
        <time>2018-11-09T08:58:19Z</time>
      </trkpt>
      <trkpt lat="37.0575118996" lon="-2.1169689205">
        <ele>619.71</ele>
        <time>2018-11-09T08:58:33Z</time>
      </trkpt>
      <trkpt lat="37.0575087145" lon="-2.1169651486">
        <ele>619.71</ele>
        <time>2018-11-09T08:58:51Z</time>
      </trkpt>
      <trkpt lat="37.0575118158" lon="-2.1169628017">
        <ele>619.71</ele>
        <time>2018-11-09T08:59:03Z</time>
      </trkpt>
      <trkpt lat="37.0575170126" lon="-2.1169645619">
        <ele>619.71</ele>
        <time>2018-11-09T08:59:23Z</time>
      </trkpt>
      <trkpt lat="37.0575130731" lon="-2.1169720218">
        <ele>619.71</ele>
        <time>2018-11-09T08:59:40Z</time>
      </trkpt>
      <trkpt lat="37.0574875083" lon="-2.1170489676">
        <ele>620.19</ele>
        <time>2018-11-09T08:59:47Z</time>
      </trkpt>
      <trkpt lat="37.0574352052" lon="-2.1171855088">
        <ele>620.19</ele>
        <time>2018-11-09T08:59:57Z</time>
      </trkpt>
      <trkpt lat="37.0573694911" lon="-2.1172924619">
        <ele>621.15</ele>
        <time>2018-11-09T09:00:07Z</time>
      </trkpt>
      <trkpt lat="37.0573504642" lon="-2.1173192002">
        <ele>621.15</ele>
        <time>2018-11-09T09:00:16Z</time>
      </trkpt>
      <trkpt lat="37.0572995022" lon="-2.1173745207">
        <ele>621.63</ele>
        <time>2018-11-09T09:00:22Z</time>
      </trkpt>
      <trkpt lat="37.0572138391" lon="-2.1174449287">
        <ele>622.59</ele>
        <time>2018-11-09T09:00:31Z</time>
      </trkpt>
      <trkpt lat="37.0570801478" lon="-2.1175328549">
        <ele>623.07</ele>
        <time>2018-11-09T09:00:43Z</time>
      </trkpt>
      <trkpt lat="37.0569642261" lon="-2.1176549792">
        <ele>623.55</ele>
        <time>2018-11-09T09:00:55Z</time>
      </trkpt>
      <trkpt lat="37.0569308661" lon="-2.1177674644">
        <ele>624.51</ele>
        <time>2018-11-09T09:01:04Z</time>
      </trkpt>
      <trkpt lat="37.0569056366" lon="-2.1178887505">
        <ele>625.47</ele>
        <time>2018-11-09T09:01:14Z</time>
      </trkpt>
      <trkpt lat="37.0568488911" lon="-2.1180512756">
        <ele>626.44</ele>
        <time>2018-11-09T09:01:25Z</time>
      </trkpt>
      <trkpt lat="37.0567981806" lon="-2.1181892417">
        <ele>627.88</ele>
        <time>2018-11-09T09:01:35Z</time>
      </trkpt>
      <trkpt lat="37.0567906369" lon="-2.1182278823">
        <ele>627.88</ele>
        <time>2018-11-09T09:01:43Z</time>
      </trkpt>
      <trkpt lat="37.0568079036" lon="-2.1182278823">
        <ele>627.88</ele>
        <time>2018-11-09T09:01:55Z</time>
      </trkpt>
      <trkpt lat="37.0567828417" lon="-2.1183008887">
        <ele>628.84</ele>
        <time>2018-11-09T09:02:02Z</time>
      </trkpt>
      <trkpt lat="37.0567146130" lon="-2.1184129547">
        <ele>629.80</ele>
        <time>2018-11-09T09:02:12Z</time>
      </trkpt>
      <trkpt lat="37.0566694345" lon="-2.1185134538">
        <ele>630.76</ele>
        <time>2018-11-09T09:02:23Z</time>
      </trkpt>
      <trkpt lat="37.0566623937" lon="-2.1186309680">
        <ele>631.72</ele>
        <time>2018-11-09T09:02:33Z</time>
      </trkpt>
      <trkpt lat="37.0566799119" lon="-2.1187516674">
        <ele>632.20</ele>
        <time>2018-11-09T09:02:42Z</time>
      </trkpt>
      <trkpt lat="37.0567084104" lon="-2.1188622247">
        <ele>632.68</ele>
        <time>2018-11-09T09:02:51Z</time>
      </trkpt>
      <trkpt lat="37.0567398425" lon="-2.1189640649">
        <ele>632.68</ele>
        <time>2018-11-09T09:02:59Z</time>
      </trkpt>
      <trkpt lat="37.0567244198" lon="-2.1191262547">
        <ele>633.17</ele>
        <time>2018-11-09T09:03:10Z</time>
      </trkpt>
      <trkpt lat="37.0566930715" lon="-2.1193113271">
        <ele>632.68</ele>
        <time>2018-11-09T09:03:21Z</time>
      </trkpt>
      <trkpt lat="37.0566631481" lon="-2.1195160132">
        <ele>633.17</ele>
        <time>2018-11-09T09:03:34Z</time>
      </trkpt>
      <trkpt lat="37.0566501562" lon="-2.1197077911">
        <ele>633.17</ele>
        <time>2018-11-09T09:03:46Z</time>
      </trkpt>
      <trkpt lat="37.0566596277" lon="-2.1197699849">
        <ele>633.17</ele>
        <time>2018-11-09T09:03:53Z</time>
      </trkpt>
      <trkpt lat="37.0566566102" lon="-2.1197810490">
        <ele>633.17</ele>
        <time>2018-11-09T09:04:07Z</time>
      </trkpt>
      <trkpt lat="37.0566519164" lon="-2.1197817195">
        <ele>633.65</ele>
        <time>2018-11-09T09:04:24Z</time>
      </trkpt>
      <trkpt lat="37.0566573646" lon="-2.1197863296">
        <ele>633.65</ele>
        <time>2018-11-09T09:04:42Z</time>
      </trkpt>
      <trkpt lat="37.0566685125" lon="-2.1198448353">
        <ele>633.65</ele>
        <time>2018-11-09T09:04:54Z</time>
      </trkpt>
      <trkpt lat="37.0566961728" lon="-2.1199866571">
        <ele>633.65</ele>
        <time>2018-11-09T09:05:05Z</time>
      </trkpt>
      <trkpt lat="37.0567024592" lon="-2.1201356035">
        <ele>634.13</ele>
        <time>2018-11-09T09:05:16Z</time>
      </trkpt>
      <trkpt lat="37.0566949993" lon="-2.1202513576">
        <ele>634.61</ele>
        <time>2018-11-09T09:05:26Z</time>
      </trkpt>
      <trkpt lat="37.0566958375" lon="-2.1203801874">
        <ele>635.57</ele>
        <time>2018-11-09T09:05:37Z</time>
      </trkpt>
      <trkpt lat="37.0566782355" lon="-2.1204784233">
        <ele>636.53</ele>
        <time>2018-11-09T09:05:48Z</time>
      </trkpt>
      <trkpt lat="37.0566690154" lon="-2.1205225959">
        <ele>637.01</ele>
        <time>2018-11-09T09:05:58Z</time>
      </trkpt>
      <trkpt lat="37.0566404331" lon="-2.1206340753">
        <ele>637.97</ele>
        <time>2018-11-09T09:06:09Z</time>
      </trkpt>
      <trkpt lat="37.0566171315" lon="-2.1206908207">
        <ele>638.93</ele>
        <time>2018-11-09T09:06:17Z</time>
      </trkpt>
      <trkpt lat="37.0566139463" lon="-2.1206855401">
        <ele>638.93</ele>
        <time>2018-11-09T09:06:26Z</time>
      </trkpt>
      <trkpt lat="37.0565762278" lon="-2.1207656711">
        <ele>640.86</ele>
        <time>2018-11-09T09:06:35Z</time>
      </trkpt>
      <trkpt lat="37.0565240923" lon="-2.1208210755">
        <ele>642.30</ele>
        <time>2018-11-09T09:06:45Z</time>
      </trkpt>
      <trkpt lat="37.0564758126" lon="-2.1208387613">
        <ele>642.78</ele>
        <time>2018-11-09T09:06:53Z</time>
      </trkpt>
      <trkpt lat="37.0564718731" lon="-2.1208464727">
        <ele>643.26</ele>
        <time>2018-11-09T09:07:01Z</time>
      </trkpt>
      <trkpt lat="37.0564610604" lon="-2.1208465565">
        <ele>643.26</ele>
        <time>2018-11-09T09:07:16Z</time>
      </trkpt>
      <trkpt lat="37.0564528462" lon="-2.1208503284">
        <ele>643.26</ele>
        <time>2018-11-09T09:07:17Z</time>
      </trkpt>
      <trkpt lat="37.0564436261" lon="-2.1208547708">
        <ele>643.26</ele>
        <time>2018-11-09T09:07:18Z</time>
      </trkpt>
      <trkpt lat="37.0563142933" lon="-2.1209222451">
        <ele>644.70</ele>
        <time>2018-11-09T09:07:30Z</time>
      </trkpt>
      <trkpt lat="37.0562375151" lon="-2.1209664177">
        <ele>646.14</ele>
        <time>2018-11-09T09:07:40Z</time>
      </trkpt>
      <trkpt lat="37.0561771654" lon="-2.1210058965">
        <ele>647.10</ele>
        <time>2018-11-09T09:07:50Z</time>
      </trkpt>
      <trkpt lat="37.0561513491" lon="-2.1210260130">
        <ele>647.59</ele>
        <time>2018-11-09T09:07:58Z</time>
      </trkpt>
      <trkpt lat="37.0561251137" lon="-2.1210550983">
        <ele>649.03</ele>
        <time>2018-11-09T09:08:07Z</time>
      </trkpt>
      <trkpt lat="37.0560718048" lon="-2.1210930683">
        <ele>650.47</ele>
        <time>2018-11-09T09:08:17Z</time>
      </trkpt>
      <trkpt lat="37.0560205076" lon="-2.1211232431">
        <ele>651.43</ele>
        <time>2018-11-09T09:08:25Z</time>
      </trkpt>
      <trkpt lat="37.0559741557" lon="-2.1211611293">
        <ele>650.47</ele>
        <time>2018-11-09T09:08:35Z</time>
      </trkpt>
      <trkpt lat="37.0559691265" lon="-2.1211743727">
        <ele>652.87</ele>
        <time>2018-11-09T09:08:46Z</time>
      </trkpt>
      <trkpt lat="37.0559624210" lon="-2.1211597044">
        <ele>654.31</ele>
        <time>2018-11-09T09:09:01Z</time>
      </trkpt>
      <trkpt lat="37.0559717249" lon="-2.1211563516">
        <ele>654.31</ele>
        <time>2018-11-09T09:09:17Z</time>
      </trkpt>
      <trkpt lat="37.0559397060" lon="-2.1211774740">
        <ele>653.83</ele>
        <time>2018-11-09T09:09:30Z</time>
      </trkpt>
      <trkpt lat="37.0558490139" lon="-2.1212499775">
        <ele>654.31</ele>
        <time>2018-11-09T09:09:41Z</time>
      </trkpt>
      <trkpt lat="37.0557679608" lon="-2.1213098243">
        <ele>654.80</ele>
        <time>2018-11-09T09:09:51Z</time>
      </trkpt>
      <trkpt lat="37.0556459203" lon="-2.1213806514">
        <ele>656.24</ele>
        <time>2018-11-09T09:10:04Z</time>
      </trkpt>
      <trkpt lat="37.0556334313" lon="-2.1213743649">
        <ele>656.72</ele>
        <time>2018-11-09T09:10:11Z</time>
      </trkpt>
      <trkpt lat="37.0556335151" lon="-2.1213785559">
        <ele>657.20</ele>
        <time>2018-11-09T09:10:25Z</time>
      </trkpt>
      <trkpt lat="37.0556348562" lon="-2.1213734429">
        <ele>657.68</ele>
        <time>2018-11-09T09:10:36Z</time>
      </trkpt>
      <trkpt lat="37.0556389634" lon="-2.1213664860">
        <ele>656.72</ele>
        <time>2018-11-09T09:10:47Z</time>
      </trkpt>
      <trkpt lat="37.0556537993" lon="-2.1213608701">
        <ele>655.76</ele>
        <time>2018-11-09T09:11:06Z</time>
      </trkpt>
      <trkpt lat="37.0556030888" lon="-2.1213979181">
        <ele>657.20</ele>
        <time>2018-11-09T09:11:18Z</time>
      </trkpt>
      <trkpt lat="37.0554941241" lon="-2.1214844193">
        <ele>658.16</ele>
        <time>2018-11-09T09:11:28Z</time>
      </trkpt>
      <trkpt lat="37.0553968102" lon="-2.1215552464">
        <ele>660.08</ele>
        <time>2018-11-09T09:11:40Z</time>
      </trkpt>
      <trkpt lat="37.0553727541" lon="-2.1215830743">
        <ele>660.56</ele>
        <time>2018-11-09T09:11:49Z</time>
      </trkpt>
      <trkpt lat="37.0553663000" lon="-2.1215991676">
        <ele>661.52</ele>
        <time>2018-11-09T09:11:58Z</time>
      </trkpt>
      <trkpt lat="37.0553549007" lon="-2.1216059569">
        <ele>661.52</ele>
        <time>2018-11-09T09:12:06Z</time>
      </trkpt>
      <trkpt lat="37.0553248096" lon="-2.1216109861">
        <ele>661.52</ele>
        <time>2018-11-09T09:12:10Z</time>
      </trkpt>
      <trkpt lat="37.0553146675" lon="-2.1216131654">
        <ele>662.01</ele>
        <time>2018-11-09T09:12:11Z</time>
      </trkpt>
      <trkpt lat="37.0552105643" lon="-2.1216713358">
        <ele>663.45</ele>
        <time>2018-11-09T09:12:22Z</time>
      </trkpt>
      <trkpt lat="37.0551275834" lon="-2.1217435878">
        <ele>664.89</ele>
        <time>2018-11-09T09:12:32Z</time>
      </trkpt>
      <trkpt lat="37.0550369751" lon="-2.1218011715">
        <ele>665.85</ele>
        <time>2018-11-09T09:12:42Z</time>
      </trkpt>
      <trkpt lat="37.0550290123" lon="-2.1218046080">
        <ele>665.85</ele>
        <time>2018-11-09T09:12:49Z</time>
      </trkpt>
      <trkpt lat="37.0550150145" lon="-2.1218083799">
        <ele>666.81</ele>
        <time>2018-11-09T09:13:09Z</time>
      </trkpt>
      <trkpt lat="37.0550221391" lon="-2.1217934601">
        <ele>666.81</ele>
        <time>2018-11-09T09:13:25Z</time>
      </trkpt>
      <trkpt lat="37.0550249051" lon="-2.1217904426">
        <ele>666.81</ele>
        <time>2018-11-09T09:13:40Z</time>
      </trkpt>
      <trkpt lat="37.0550213009" lon="-2.1218014229">
        <ele>668.25</ele>
        <time>2018-11-09T09:13:58Z</time>
      </trkpt>
      <trkpt lat="37.0550281741" lon="-2.1218051109">
        <ele>669.22</ele>
        <time>2018-11-09T09:14:13Z</time>
      </trkpt>
      <trkpt lat="37.0550384838" lon="-2.1218001656">
        <ele>670.18</ele>
        <time>2018-11-09T09:14:30Z</time>
      </trkpt>
      <trkpt lat="37.0550324488" lon="-2.1217977349">
        <ele>670.18</ele>
        <time>2018-11-09T09:14:46Z</time>
      </trkpt>
      <trkpt lat="37.0550227258" lon="-2.1217944659">
        <ele>669.70</ele>
        <time>2018-11-09T09:15:02Z</time>
      </trkpt>
      <trkpt lat="37.0550377294" lon="-2.1217839886">
        <ele>668.73</ele>
        <time>2018-11-09T09:15:16Z</time>
      </trkpt>
      <trkpt lat="37.0550296828" lon="-2.1217824798">
        <ele>669.70</ele>
        <time>2018-11-09T09:15:31Z</time>
      </trkpt>
      <trkpt lat="37.0550267491" lon="-2.1217989083">
        <ele>670.18</ele>
        <time>2018-11-09T09:15:46Z</time>
      </trkpt>
      <trkpt lat="37.0550378971" lon="-2.1217908617">
        <ele>672.10</ele>
        <time>2018-11-09T09:16:04Z</time>
      </trkpt>
      <trkpt lat="37.0550254919" lon="-2.1217913646">
        <ele>671.14</ele>
        <time>2018-11-09T09:16:22Z</time>
      </trkpt>
      <trkpt lat="37.0550264977" lon="-2.1217949688">
        <ele>669.22</ele>
        <time>2018-11-09T09:16:38Z</time>
      </trkpt>
      <trkpt lat="37.0550308563" lon="-2.1217940468">
        <ele>669.22</ele>
        <time>2018-11-09T09:16:54Z</time>
      </trkpt>
      <trkpt lat="37.0550116617" lon="-2.1217873413">
        <ele>669.22</ele>
        <time>2018-11-09T09:17:02Z</time>
      </trkpt>
      <trkpt lat="37.0550000109" lon="-2.1217885986">
        <ele>669.22</ele>
        <time>2018-11-09T09:17:03Z</time>
      </trkpt>
      <trkpt lat="37.0549891982" lon="-2.1217896882">
        <ele>669.22</ele>
        <time>2018-11-09T09:17:04Z</time>
      </trkpt>
      <trkpt lat="37.0549037028" lon="-2.1218005009">
        <ele>669.22</ele>
        <time>2018-11-09T09:17:12Z</time>
      </trkpt>
      <trkpt lat="37.0547901280" lon="-2.1218186058">
        <ele>669.70</ele>
        <time>2018-11-09T09:17:22Z</time>
      </trkpt>
      <trkpt lat="37.0547400042" lon="-2.1218420751">
        <ele>669.70</ele>
        <time>2018-11-09T09:17:30Z</time>
      </trkpt>
      <trkpt lat="37.0547472965" lon="-2.1218340285">
        <ele>668.73</ele>
        <time>2018-11-09T09:17:41Z</time>
      </trkpt>
      <trkpt lat="37.0547608752" lon="-2.1218313463">
        <ele>668.73</ele>
        <time>2018-11-09T09:17:47Z</time>
      </trkpt>
      <trkpt lat="37.0547550917" lon="-2.1218238026">
        <ele>667.77</ele>
        <time>2018-11-09T09:17:57Z</time>
      </trkpt>
      <trkpt lat="37.0547654852" lon="-2.1218165942">
        <ele>669.22</ele>
        <time>2018-11-09T09:18:20Z</time>
      </trkpt>
      <trkpt lat="37.0547670778" lon="-2.1218298376">
        <ele>669.22</ele>
        <time>2018-11-09T09:18:43Z</time>
      </trkpt>
      <trkpt lat="37.0547590312" lon="-2.1218118165">
        <ele>671.14</ele>
        <time>2018-11-09T09:19:02Z</time>
      </trkpt>
      <trkpt lat="37.0547739509" lon="-2.1218099725">
        <ele>670.18</ele>
        <time>2018-11-09T09:19:26Z</time>
      </trkpt>
      <trkpt lat="37.0547743700" lon="-2.1217942983">
        <ele>672.10</ele>
        <time>2018-11-09T09:19:56Z</time>
      </trkpt>
      <trkpt lat="37.0547634736" lon="-2.1218294185">
        <ele>670.66</ele>
        <time>2018-11-09T09:20:25Z</time>
      </trkpt>
      <trkpt lat="37.0547726937" lon="-2.1218304243">
        <ele>669.22</ele>
        <time>2018-11-09T09:20:49Z</time>
      </trkpt>
      <trkpt lat="37.0547693409" lon="-2.1218196955">
        <ele>669.70</ele>
        <time>2018-11-09T09:21:15Z</time>
      </trkpt>
      <trkpt lat="37.0547669940" lon="-2.1218058653">
        <ele>669.70</ele>
        <time>2018-11-09T09:21:35Z</time>
      </trkpt>
      <trkpt lat="37.0547830872" lon="-2.1218094695">
        <ele>670.18</ele>
        <time>2018-11-09T09:21:55Z</time>
      </trkpt>
      <trkpt lat="37.0547855180" lon="-2.1218113136">
        <ele>670.66</ele>
        <time>2018-11-09T09:22:13Z</time>
      </trkpt>
      <trkpt lat="37.0547538344" lon="-2.1218297537">
        <ele>671.14</ele>
        <time>2018-11-09T09:22:29Z</time>
      </trkpt>
      <trkpt lat="37.0547615457" lon="-2.1218359563">
        <ele>669.70</ele>
        <time>2018-11-09T09:22:49Z</time>
      </trkpt>
      <trkpt lat="37.0547556784" lon="-2.1218478587">
        <ele>669.70</ele>
        <time>2018-11-09T09:23:09Z</time>
      </trkpt>
      <trkpt lat="37.0547731966" lon="-2.1218476072">
        <ele>668.73</ele>
        <time>2018-11-09T09:23:31Z</time>
      </trkpt>
      <trkpt lat="37.0547766332" lon="-2.1218454279">
        <ele>668.25</ele>
        <time>2018-11-09T09:23:52Z</time>
      </trkpt>
      <trkpt lat="37.0547738671" lon="-2.1218301728">
        <ele>667.77</ele>
        <time>2018-11-09T09:24:11Z</time>
      </trkpt>
      <trkpt lat="37.0547628030" lon="-2.1218124032">
        <ele>669.22</ele>
        <time>2018-11-09T09:24:37Z</time>
      </trkpt>
      <trkpt lat="37.0547678322" lon="-2.1218268201">
        <ele>669.22</ele>
        <time>2018-11-09T09:25:03Z</time>
      </trkpt>
      <trkpt lat="37.0547610428" lon="-2.1218368784">
        <ele>670.18</ele>
        <time>2018-11-09T09:25:26Z</time>
      </trkpt>
      <trkpt lat="37.0547534991" lon="-2.1218354534">
        <ele>667.77</ele>
        <time>2018-11-09T09:25:52Z</time>
      </trkpt>
      <trkpt lat="37.0547647309" lon="-2.1218383871">
        <ele>669.22</ele>
        <time>2018-11-09T09:26:10Z</time>
      </trkpt>
      <trkpt lat="37.0547669102" lon="-2.1218178514">
        <ele>669.22</ele>
        <time>2018-11-09T09:26:28Z</time>
      </trkpt>
      <trkpt lat="37.0547120925" lon="-2.1218429133">
        <ele>669.70</ele>
        <time>2018-11-09T09:26:35Z</time>
      </trkpt>
      <trkpt lat="37.0546939038" lon="-2.1218486130">
        <ele>668.73</ele>
        <time>2018-11-09T09:26:42Z</time>
      </trkpt>
      <trkpt lat="37.0546791516" lon="-2.1218546480">
        <ele>669.22</ele>
        <time>2018-11-09T09:26:52Z</time>
      </trkpt>
      <trkpt lat="37.0546804089" lon="-2.1218548995">
        <ele>668.73</ele>
        <time>2018-11-09T09:27:03Z</time>
      </trkpt>
      <trkpt lat="37.0546702668" lon="-2.1218629461">
        <ele>669.70</ele>
        <time>2018-11-09T09:27:16Z</time>
      </trkpt>
      <trkpt lat="37.0546541736" lon="-2.1218510438">
        <ele>669.70</ele>
        <time>2018-11-09T09:27:22Z</time>
      </trkpt>
      <trkpt lat="37.0546195563" lon="-2.1218420751">
        <ele>669.70</ele>
        <time>2018-11-09T09:27:30Z</time>
      </trkpt>
      <trkpt lat="37.0546180476" lon="-2.1218267363">
        <ele>670.18</ele>
        <time>2018-11-09T09:27:39Z</time>
      </trkpt>
      <trkpt lat="37.0546121802" lon="-2.1218206175">
        <ele>670.66</ele>
        <time>2018-11-09T09:27:46Z</time>
      </trkpt>
      <trkpt lat="37.0546203107" lon="-2.1218001656">
        <ele>672.10</ele>
        <time>2018-11-09T09:28:07Z</time>
      </trkpt>
      <trkpt lat="37.0546151977" lon="-2.1218172647">
        <ele>671.62</ele>
        <time>2018-11-09T09:28:26Z</time>
      </trkpt>
      <trkpt lat="37.0546182152" lon="-2.1218093857">
        <ele>671.14</ele>
        <time>2018-11-09T09:28:54Z</time>
      </trkpt>
      <trkpt lat="37.0546178799" lon="-2.1218193602">
        <ele>671.14</ele>
        <time>2018-11-09T09:29:15Z</time>
      </trkpt>
      <trkpt lat="37.0546131022" lon="-2.1218101401">
        <ele>671.14</ele>
        <time>2018-11-09T09:29:37Z</time>
      </trkpt>
      <trkpt lat="37.0546068158" lon="-2.1217975672">
        <ele>671.14</ele>
        <time>2018-11-09T09:29:56Z</time>
      </trkpt>
      <trkpt lat="37.0546108391" lon="-2.1218097210">
        <ele>670.66</ele>
        <time>2018-11-09T09:30:19Z</time>
      </trkpt>
      <trkpt lat="37.0546082407" lon="-2.1218379680">
        <ele>671.14</ele>
        <time>2018-11-09T09:30:42Z</time>
      </trkpt>
      <trkpt lat="37.0546124317" lon="-2.1218041051">
        <ele>669.22</ele>
        <time>2018-11-09T09:31:06Z</time>
      </trkpt>
      <trkpt lat="37.0546035469" lon="-2.1218218748">
        <ele>670.18</ele>
        <time>2018-11-09T09:31:35Z</time>
      </trkpt>
      <trkpt lat="37.0545995235" lon="-2.1218048595">
        <ele>668.73</ele>
        <time>2018-11-09T09:32:02Z</time>
      </trkpt>
      <trkpt lat="37.0546004456" lon="-2.1218219586">
        <ele>670.18</ele>
        <time>2018-11-09T09:32:23Z</time>
      </trkpt>
      <trkpt lat="37.0546141081" lon="-2.1218200307">
        <ele>670.18</ele>
        <time>2018-11-09T09:32:35Z</time>
      </trkpt>
      <trkpt lat="37.0545793232" lon="-2.1218155045">
        <ele>670.66</ele>
        <time>2018-11-09T09:32:39Z</time>
      </trkpt>
      <trkpt lat="37.0544151217" lon="-2.1217838209">
        <ele>671.62</ele>
        <time>2018-11-09T09:32:52Z</time>
      </trkpt>
      <trkpt lat="37.0543546882" lon="-2.1217889339">
        <ele>671.62</ele>
        <time>2018-11-09T09:33:00Z</time>
      </trkpt>
      <trkpt lat="37.0542712044" lon="-2.1217839047">
        <ele>673.54</ele>
        <time>2018-11-09T09:33:08Z</time>
      </trkpt>
      <trkpt lat="37.0541486610" lon="-2.1218072902">
        <ele>674.98</ele>
        <time>2018-11-09T09:33:20Z</time>
      </trkpt>
      <trkpt lat="37.0540889818" lon="-2.1218543127">
        <ele>675.46</ele>
        <time>2018-11-09T09:33:29Z</time>
      </trkpt>
      <trkpt lat="37.0539743174" lon="-2.1219134890">
        <ele>677.87</ele>
        <time>2018-11-09T09:33:40Z</time>
      </trkpt>
      <trkpt lat="37.0538813621" lon="-2.1219921950">
        <ele>678.35</ele>
        <time>2018-11-09T09:33:49Z</time>
      </trkpt>
      <trkpt lat="37.0538066793" lon="-2.1220983937">
        <ele>679.79</ele>
        <time>2018-11-09T09:33:59Z</time>
      </trkpt>
      <trkpt lat="37.0537666138" lon="-2.1221850626">
        <ele>681.23</ele>
        <time>2018-11-09T09:34:08Z</time>
      </trkpt>
      <trkpt lat="37.0537538733" lon="-2.1222244576">
        <ele>682.19</ele>
        <time>2018-11-09T09:34:16Z</time>
      </trkpt>
      <trkpt lat="37.0537546277" lon="-2.1222272236">
        <ele>682.19</ele>
        <time>2018-11-09T09:34:28Z</time>
      </trkpt>
      <trkpt lat="37.0537475869" lon="-2.1222190931">
        <ele>681.71</ele>
        <time>2018-11-09T09:34:39Z</time>
      </trkpt>
      <trkpt lat="37.0537441503" lon="-2.1222095378">
        <ele>680.75</ele>
        <time>2018-11-09T09:34:52Z</time>
      </trkpt>
      <trkpt lat="37.0537460782" lon="-2.1222159080">
        <ele>680.75</ele>
        <time>2018-11-09T09:35:02Z</time>
      </trkpt>
      <trkpt lat="37.0537390374" lon="-2.1222314145">
        <ele>680.75</ele>
        <time>2018-11-09T09:35:10Z</time>
      </trkpt>
      <trkpt lat="37.0537294820" lon="-2.1222443227">
        <ele>681.23</ele>
        <time>2018-11-09T09:35:18Z</time>
      </trkpt>
      <trkpt lat="37.0537203457" lon="-2.1222507767">
        <ele>681.23</ele>
        <time>2018-11-09T09:35:19Z</time>
      </trkpt>
      <trkpt lat="37.0537081920" lon="-2.1222551353">
        <ele>681.71</ele>
        <time>2018-11-09T09:35:20Z</time>
      </trkpt>
      <trkpt lat="37.0536965411" lon="-2.1222581528">
        <ele>681.71</ele>
        <time>2018-11-09T09:35:21Z</time>
      </trkpt>
      <trkpt lat="37.0536868181" lon="-2.1222630981">
        <ele>681.71</ele>
        <time>2018-11-09T09:35:22Z</time>
      </trkpt>
      <trkpt lat="37.0536758378" lon="-2.1222694684">
        <ele>682.19</ele>
        <time>2018-11-09T09:35:23Z</time>
      </trkpt>
      <trkpt lat="37.0536663663" lon="-2.1222744137">
        <ele>682.19</ele>
        <time>2018-11-09T09:35:24Z</time>
      </trkpt>
      <trkpt lat="37.0536550507" lon="-2.1222809516">
        <ele>682.67</ele>
        <time>2018-11-09T09:35:25Z</time>
      </trkpt>
      <trkpt lat="37.0536435675" lon="-2.1222875733">
        <ele>683.15</ele>
        <time>2018-11-09T09:35:26Z</time>
      </trkpt>
      <trkpt lat="37.0535161626" lon="-2.1223400440">
        <ele>684.12</ele>
        <time>2018-11-09T09:35:36Z</time>
      </trkpt>
      <trkpt lat="37.0534802880" lon="-2.1223497670">
        <ele>684.60</ele>
        <time>2018-11-09T09:35:43Z</time>
      </trkpt>
      <trkpt lat="37.0534783602" lon="-2.1223502699">
        <ele>685.56</ele>
        <time>2018-11-09T09:35:57Z</time>
      </trkpt>
      <trkpt lat="37.0534641948" lon="-2.1223589871">
        <ele>685.56</ele>
        <time>2018-11-09T09:36:07Z</time>
      </trkpt>
      <trkpt lat="37.0533774421" lon="-2.1224484220">
        <ele>685.08</ele>
        <time>2018-11-09T09:36:14Z</time>
      </trkpt>
      <trkpt lat="37.0532330219" lon="-2.1225757431">
        <ele>683.63</ele>
        <time>2018-11-09T09:36:22Z</time>
      </trkpt>
      <trkpt lat="37.0531922858" lon="-2.1225821972">
        <ele>684.12</ele>
        <time>2018-11-09T09:36:24Z</time>
      </trkpt>
      <trkpt lat="37.0531476103" lon="-2.1225568000">
        <ele>684.60</ele>
        <time>2018-11-09T09:36:27Z</time>
      </trkpt>
      <trkpt lat="37.0530652162" lon="-2.1224119607">
        <ele>684.60</ele>
        <time>2018-11-09T09:36:34Z</time>
      </trkpt>
      <trkpt lat="37.0529368892" lon="-2.1223384514">
        <ele>684.12</ele>
        <time>2018-11-09T09:36:43Z</time>
      </trkpt>
      <trkpt lat="37.0528976619" lon="-2.1223424748">
        <ele>683.63</ele>
        <time>2018-11-09T09:36:45Z</time>
      </trkpt>
      <trkpt lat="37.0527218934" lon="-2.1224076860">
        <ele>682.67</ele>
        <time>2018-11-09T09:36:52Z</time>
      </trkpt>
      <trkpt lat="37.0524958335" lon="-2.1223875694">
        <ele>682.67</ele>
        <time>2018-11-09T09:37:00Z</time>
      </trkpt>
      <trkpt lat="37.0523593761" lon="-2.1224474162">
        <ele>681.71</ele>
        <time>2018-11-09T09:37:06Z</time>
      </trkpt>
      <trkpt lat="37.0522835199" lon="-2.1226274595">
        <ele>679.31</ele>
        <time>2018-11-09T09:37:13Z</time>
      </trkpt>
      <trkpt lat="37.0521950908" lon="-2.1228091791">
        <ele>675.94</ele>
        <time>2018-11-09T09:37:21Z</time>
      </trkpt>
      <trkpt lat="37.0520795044" lon="-2.1229475643">
        <ele>672.58</ele>
        <time>2018-11-09T09:37:29Z</time>
      </trkpt>
      <trkpt lat="37.0519663487" lon="-2.1230780706">
        <ele>670.18</ele>
        <time>2018-11-09T09:37:36Z</time>
      </trkpt>
      <trkpt lat="37.0518066734" lon="-2.1232633106">
        <ele>666.81</ele>
        <time>2018-11-09T09:37:44Z</time>
      </trkpt>
      <trkpt lat="37.0516264625" lon="-2.1234257519">
        <ele>664.89</ele>
        <time>2018-11-09T09:37:53Z</time>
      </trkpt>
      <trkpt lat="37.0514459163" lon="-2.1235410031">
        <ele>663.45</ele>
        <time>2018-11-09T09:38:02Z</time>
      </trkpt>
      <trkpt lat="37.0512392186" lon="-2.1236590203">
        <ele>662.49</ele>
        <time>2018-11-09T09:38:11Z</time>
      </trkpt>
      <trkpt lat="37.0511818863" lon="-2.1236994211">
        <ele>662.01</ele>
        <time>2018-11-09T09:38:14Z</time>
      </trkpt>
      <trkpt lat="37.0511664636" lon="-2.1237052046">
        <ele>661.52</ele>
        <time>2018-11-09T09:38:15Z</time>
      </trkpt>
      <trkpt lat="37.0511449222" lon="-2.1237166040">
        <ele>661.52</ele>
        <time>2018-11-09T09:38:16Z</time>
      </trkpt>
      <trkpt lat="37.0511237998" lon="-2.1237283386">
        <ele>661.52</ele>
        <time>2018-11-09T09:38:17Z</time>
      </trkpt>
      <trkpt lat="37.0511015039" lon="-2.1237404924">
        <ele>661.52</ele>
        <time>2018-11-09T09:38:18Z</time>
      </trkpt>
      <trkpt lat="37.0510200318" lon="-2.1238091402">
        <ele>660.56</ele>
        <time>2018-11-09T09:38:24Z</time>
      </trkpt>
      <trkpt lat="37.0509974007" lon="-2.1239420772">
        <ele>659.12</ele>
        <time>2018-11-09T09:38:31Z</time>
      </trkpt>
      <trkpt lat="37.0510048606" lon="-2.1240602620">
        <ele>657.68</ele>
        <time>2018-11-09T09:38:36Z</time>
      </trkpt>
      <trkpt lat="37.0509896055" lon="-2.1242185961">
        <ele>655.28</ele>
        <time>2018-11-09T09:38:43Z</time>
      </trkpt>
      <trkpt lat="37.0508743543" lon="-2.1242974699">
        <ele>653.83</ele>
        <time>2018-11-09T09:38:50Z</time>
      </trkpt>
      <trkpt lat="37.0507715084" lon="-2.1243237052">
        <ele>653.83</ele>
        <time>2018-11-09T09:38:57Z</time>
      </trkpt>
      <trkpt lat="37.0507154334" lon="-2.1244424768">
        <ele>653.83</ele>
        <time>2018-11-09T09:39:03Z</time>
      </trkpt>
      <trkpt lat="37.0507114101" lon="-2.1245542914">
        <ele>653.35</ele>
        <time>2018-11-09T09:39:10Z</time>
      </trkpt>
      <trkpt lat="37.0507624559" lon="-2.1246563829">
        <ele>652.87</ele>
        <time>2018-11-09T09:39:17Z</time>
      </trkpt>
      <trkpt lat="37.0509133302" lon="-2.1246384457">
        <ele>650.47</ele>
        <time>2018-11-09T09:39:24Z</time>
      </trkpt>
      <trkpt lat="37.0510261506" lon="-2.1245316602">
        <ele>649.03</ele>
        <time>2018-11-09T09:39:30Z</time>
      </trkpt>
      <trkpt lat="37.0511255600" lon="-2.1244553849">
        <ele>647.59</ele>
        <time>2018-11-09T09:39:38Z</time>
      </trkpt>
      <trkpt lat="37.0511378814" lon="-2.1244558040">
        <ele>647.10</ele>
        <time>2018-11-09T09:39:39Z</time>
      </trkpt>
      <trkpt lat="37.0511507057" lon="-2.1244594082">
        <ele>647.10</ele>
        <time>2018-11-09T09:39:40Z</time>
      </trkpt>
      <trkpt lat="37.0511636138" lon="-2.1244661137">
        <ele>646.62</ele>
        <time>2018-11-09T09:39:41Z</time>
      </trkpt>
      <trkpt lat="37.0511760190" lon="-2.1244775970">
        <ele>646.62</ele>
        <time>2018-11-09T09:39:42Z</time>
      </trkpt>
      <trkpt lat="37.0511865802" lon="-2.1244903374">
        <ele>646.62</ele>
        <time>2018-11-09T09:39:43Z</time>
      </trkpt>
      <trkpt lat="37.0511948783" lon="-2.1245085262">
        <ele>646.14</ele>
        <time>2018-11-09T09:39:44Z</time>
      </trkpt>
      <trkpt lat="37.0511989854" lon="-2.1245272178">
        <ele>646.14</ele>
        <time>2018-11-09T09:39:45Z</time>
      </trkpt>
      <trkpt lat="37.0512001589" lon="-2.1245459095">
        <ele>646.14</ele>
        <time>2018-11-09T09:39:46Z</time>
      </trkpt>
      <trkpt lat="37.0511983987" lon="-2.1245654393">
        <ele>645.66</ele>
        <time>2018-11-09T09:39:47Z</time>
      </trkpt>
      <trkpt lat="37.0511951298" lon="-2.1245855559">
        <ele>645.66</ele>
        <time>2018-11-09T09:39:48Z</time>
      </trkpt>
      <trkpt lat="37.0511890948" lon="-2.1246081032">
        <ele>645.18</ele>
        <time>2018-11-09T09:39:49Z</time>
      </trkpt>
      <trkpt lat="37.0511807129" lon="-2.1246321592">
        <ele>644.70</ele>
        <time>2018-11-09T09:39:50Z</time>
      </trkpt>
      <trkpt lat="37.0511720795" lon="-2.1246559639">
        <ele>644.70</ele>
        <time>2018-11-09T09:39:51Z</time>
      </trkpt>
      <trkpt lat="37.0510401484" lon="-2.1248660982">
        <ele>640.86</ele>
        <time>2018-11-09T09:40:01Z</time>
      </trkpt>
      <trkpt lat="37.0509362966" lon="-2.1249861270">
        <ele>638.93</ele>
        <time>2018-11-09T09:40:07Z</time>
      </trkpt>
      <trkpt lat="37.0508451015" lon="-2.1251838561">
        <ele>636.05</ele>
        <time>2018-11-09T09:40:14Z</time>
      </trkpt>
      <trkpt lat="37.0506914612" lon="-2.1253383346">
        <ele>634.61</ele>
        <time>2018-11-09T09:40:21Z</time>
      </trkpt>
      <trkpt lat="37.0504915528" lon="-2.1253317967">
        <ele>633.17</ele>
        <time>2018-11-09T09:40:26Z</time>
      </trkpt>
      <trkpt lat="37.0503219869" lon="-2.1253097523">
        <ele>631.24</ele>
        <time>2018-11-09T09:40:31Z</time>
      </trkpt>
      <trkpt lat="37.0502796583" lon="-2.1253514104">
        <ele>629.80</ele>
        <time>2018-11-09T09:40:33Z</time>
      </trkpt>
      <trkpt lat="37.0502703544" lon="-2.1253742930">
        <ele>629.80</ele>
        <time>2018-11-09T09:40:34Z</time>
      </trkpt>
      <trkpt lat="37.0502515789" lon="-2.1255151089">
        <ele>627.40</ele>
        <time>2018-11-09T09:40:41Z</time>
      </trkpt>
      <trkpt lat="37.0502065681" lon="-2.1257738583">
        <ele>624.03</ele>
        <time>2018-11-09T09:40:49Z</time>
      </trkpt>
      <trkpt lat="37.0502095018" lon="-2.1258282568">
        <ele>623.55</ele>
        <time>2018-11-09T09:40:55Z</time>
      </trkpt>
      <trkpt lat="37.0502010360" lon="-2.1258159354">
        <ele>624.99</ele>
        <time>2018-11-09T09:41:10Z</time>
      </trkpt>
      <trkpt lat="37.0502152015" lon="-2.1258911211">
        <ele>624.03</ele>
        <time>2018-11-09T09:41:15Z</time>
      </trkpt>
      <trkpt lat="37.0503120124" lon="-2.1260793786">
        <ele>623.07</ele>
        <time>2018-11-09T09:41:22Z</time>
      </trkpt>
      <trkpt lat="37.0503088273" lon="-2.1260957234">
        <ele>622.59</ele>
        <time>2018-11-09T09:41:23Z</time>
      </trkpt>
      <trkpt lat="37.0503022056" lon="-2.1261211205">
        <ele>622.59</ele>
        <time>2018-11-09T09:41:24Z</time>
      </trkpt>
      <trkpt lat="37.0502919797" lon="-2.1261507925">
        <ele>622.11</ele>
        <time>2018-11-09T09:41:25Z</time>
      </trkpt>
      <trkpt lat="37.0502737071" lon="-2.1261818055">
        <ele>621.63</ele>
        <time>2018-11-09T09:41:26Z</time>
      </trkpt>
      <trkpt lat="37.0502509084" lon="-2.1262087952">
        <ele>621.15</ele>
        <time>2018-11-09T09:41:27Z</time>
      </trkpt>
      <trkpt lat="37.0502275229" lon="-2.1262317616">
        <ele>620.67</ele>
        <time>2018-11-09T09:41:28Z</time>
      </trkpt>
      <trkpt lat="37.0502025448" lon="-2.1262522135">
        <ele>620.19</ele>
        <time>2018-11-09T09:41:29Z</time>
      </trkpt>
      <trkpt lat="37.0501776505" lon="-2.1262704022">
        <ele>619.71</ele>
        <time>2018-11-09T09:41:30Z</time>
      </trkpt>
      <trkpt lat="37.0499693602" lon="-2.1263769362">
        <ele>616.82</ele>
        <time>2018-11-09T09:41:38Z</time>
      </trkpt>
      <trkpt lat="37.0498558693" lon="-2.1264356095">
        <ele>615.86</ele>
        <time>2018-11-09T09:41:45Z</time>
      </trkpt>
      <trkpt lat="37.0498613175" lon="-2.1264445782">
        <ele>615.38</ele>
        <time>2018-11-09T09:41:58Z</time>
      </trkpt>
      <trkpt lat="37.0498619042" lon="-2.1264444105">
        <ele>615.86</ele>
        <time>2018-11-09T09:42:13Z</time>
      </trkpt>
      <trkpt lat="37.0497984532" lon="-2.1264743339">
        <ele>614.90</ele>
        <time>2018-11-09T09:42:18Z</time>
      </trkpt>
      <trkpt lat="37.0497438870" lon="-2.1265672054">
        <ele>612.98</ele>
        <time>2018-11-09T09:42:24Z</time>
      </trkpt>
      <trkpt lat="37.0496729761" lon="-2.1267931815">
        <ele>609.13</ele>
        <time>2018-11-09T09:42:33Z</time>
      </trkpt>
      <trkpt lat="37.0494940225" lon="-2.1269759908">
        <ele>606.73</ele>
        <time>2018-11-09T09:42:41Z</time>
      </trkpt>
      <trkpt lat="37.0493901707" lon="-2.1271844488">
        <ele>605.29</ele>
        <time>2018-11-09T09:42:48Z</time>
      </trkpt>
      <trkpt lat="37.0494335890" lon="-2.1274672542">
        <ele>603.36</ele>
        <time>2018-11-09T09:42:56Z</time>
      </trkpt>
      <trkpt lat="37.0495755784" lon="-2.1278028656">
        <ele>599.52</ele>
        <time>2018-11-09T09:43:05Z</time>
      </trkpt>
      <trkpt lat="37.0495742373" lon="-2.1279951464">
        <ele>598.56</ele>
        <time>2018-11-09T09:43:10Z</time>
      </trkpt>
      <trkpt lat="37.0494379476" lon="-2.1281337831">
        <ele>597.60</ele>
        <time>2018-11-09T09:43:15Z</time>
      </trkpt>
      <trkpt lat="37.0493273903" lon="-2.1283072885">
        <ele>596.15</ele>
        <time>2018-11-09T09:43:22Z</time>
      </trkpt>
      <trkpt lat="37.0492523722" lon="-2.1285092086">
        <ele>593.75</ele>
        <time>2018-11-09T09:43:29Z</time>
      </trkpt>
      <trkpt lat="37.0491666254" lon="-2.1286702249">
        <ele>592.31</ele>
        <time>2018-11-09T09:43:37Z</time>
      </trkpt>
      <trkpt lat="37.0490960497" lon="-2.1288271341">
        <ele>590.87</ele>
        <time>2018-11-09T09:43:44Z</time>
      </trkpt>
      <trkpt lat="37.0490921102" lon="-2.1288526151">
        <ele>590.87</ele>
        <time>2018-11-09T09:43:45Z</time>
      </trkpt>
      <trkpt lat="37.0490887575" lon="-2.1288811974">
        <ele>590.39</ele>
        <time>2018-11-09T09:43:46Z</time>
      </trkpt>
      <trkpt lat="37.0490869973" lon="-2.1289060079">
        <ele>590.39</ele>
        <time>2018-11-09T09:43:47Z</time>
      </trkpt>
      <trkpt lat="37.0490889251" lon="-2.1289324109">
        <ele>589.43</ele>
        <time>2018-11-09T09:43:48Z</time>
      </trkpt>
      <trkpt lat="37.0490915235" lon="-2.1289653517">
        <ele>588.95</ele>
        <time>2018-11-09T09:43:49Z</time>
      </trkpt>
      <trkpt lat="37.0491005760" lon="-2.1289972030">
        <ele>588.95</ele>
        <time>2018-11-09T09:43:50Z</time>
      </trkpt>
      <trkpt lat="37.0491146576" lon="-2.1290242765">
        <ele>588.46</ele>
        <time>2018-11-09T09:43:51Z</time>
      </trkpt>
      <trkpt lat="37.0491314214" lon="-2.1290475782">
        <ele>587.98</ele>
        <time>2018-11-09T09:43:52Z</time>
      </trkpt>
      <trkpt lat="37.0491521247" lon="-2.1290686168">
        <ele>587.98</ele>
        <time>2018-11-09T09:43:53Z</time>
      </trkpt>
      <trkpt lat="37.0491746720" lon="-2.1290827822">
        <ele>587.50</ele>
        <time>2018-11-09T09:43:54Z</time>
      </trkpt>
      <trkpt lat="37.0492034219" lon="-2.1290917508">
        <ele>587.02</ele>
        <time>2018-11-09T09:43:55Z</time>
      </trkpt>
      <trkpt lat="37.0492325071" lon="-2.1290994622">
        <ele>587.02</ele>
        <time>2018-11-09T09:43:56Z</time>
      </trkpt>
      <trkpt lat="37.0493927691" lon="-2.1291816887">
        <ele>584.62</ele>
        <time>2018-11-09T09:44:03Z</time>
      </trkpt>
      <trkpt lat="37.0494376123" lon="-2.1293611452">
        <ele>582.22</ele>
        <time>2018-11-09T09:44:10Z</time>
      </trkpt>
      <trkpt lat="37.0494305715" lon="-2.1294087544">
        <ele>581.73</ele>
        <time>2018-11-09T09:44:12Z</time>
      </trkpt>
      <trkpt lat="37.0494185854" lon="-2.1294287872">
        <ele>581.73</ele>
        <time>2018-11-09T09:44:13Z</time>
      </trkpt>
      <trkpt lat="37.0492621791" lon="-2.1294896398">
        <ele>580.77</ele>
        <time>2018-11-09T09:44:20Z</time>
      </trkpt>
      <trkpt lat="37.0491081197" lon="-2.1294931602">
        <ele>579.81</ele>
        <time>2018-11-09T09:44:27Z</time>
      </trkpt>
      <trkpt lat="37.0489388891" lon="-2.1295275260">
        <ele>577.89</ele>
        <time>2018-11-09T09:44:34Z</time>
      </trkpt>
      <trkpt lat="37.0487790462" lon="-2.1296220738">
        <ele>575.01</ele>
        <time>2018-11-09T09:44:42Z</time>
      </trkpt>
      <trkpt lat="37.0485884417" lon="-2.1297857724">
        <ele>570.20</ele>
        <time>2018-11-09T09:44:51Z</time>
      </trkpt>
      <trkpt lat="37.0484754536" lon="-2.1299523208">
        <ele>567.32</ele>
        <time>2018-11-09T09:44:57Z</time>
      </trkpt>
      <trkpt lat="37.0484342985" lon="-2.1302186139">
        <ele>564.91</ele>
        <time>2018-11-09T09:45:05Z</time>
      </trkpt>
      <trkpt lat="37.0484288502" lon="-2.1304782014">
        <ele>561.55</ele>
        <time>2018-11-09T09:45:12Z</time>
      </trkpt>
      <trkpt lat="37.0483975857" lon="-2.1308486816">
        <ele>557.70</ele>
        <time>2018-11-09T09:45:21Z</time>
      </trkpt>
      <trkpt lat="37.0483267587" lon="-2.1310746577">
        <ele>555.30</ele>
        <time>2018-11-09T09:45:28Z</time>
      </trkpt>
      <trkpt lat="37.0481984317" lon="-2.1312962752">
        <ele>553.86</ele>
        <time>2018-11-09T09:45:35Z</time>
      </trkpt>
      <trkpt lat="37.0480224118" lon="-2.1314976923">
        <ele>552.41</ele>
        <time>2018-11-09T09:45:42Z</time>
      </trkpt>
      <trkpt lat="37.0479015447" lon="-2.1314893942">
        <ele>551.45</ele>
        <time>2018-11-09T09:45:47Z</time>
      </trkpt>
      <trkpt lat="37.0477715414" lon="-2.1314492449">
        <ele>549.53</ele>
        <time>2018-11-09T09:45:53Z</time>
      </trkpt>
      <trkpt lat="37.0476406161" lon="-2.1313657612">
        <ele>546.65</ele>
        <time>2018-11-09T09:46:01Z</time>
      </trkpt>
      <trkpt lat="37.0476264507" lon="-2.1313811000">
        <ele>546.17</ele>
        <time>2018-11-09T09:46:02Z</time>
      </trkpt>
      <trkpt lat="37.0476186555" lon="-2.1313985344">
        <ele>546.17</ele>
        <time>2018-11-09T09:46:03Z</time>
      </trkpt>
      <trkpt lat="37.0476167277" lon="-2.1314190701">
        <ele>545.69</ele>
        <time>2018-11-09T09:46:04Z</time>
      </trkpt>
      <trkpt lat="37.0476153027" lon="-2.1314428747">
        <ele>545.69</ele>
        <time>2018-11-09T09:46:05Z</time>
      </trkpt>
      <trkpt lat="37.0476152189" lon="-2.1314648353">
        <ele>545.69</ele>
        <time>2018-11-09T09:46:06Z</time>
      </trkpt>
      <trkpt lat="37.0476236846" lon="-2.1314818505">
        <ele>545.20</ele>
        <time>2018-11-09T09:46:07Z</time>
      </trkpt>
      <trkpt lat="37.0476366766" lon="-2.1314960159">
        <ele>544.72</ele>
        <time>2018-11-09T09:46:08Z</time>
      </trkpt>
      <trkpt lat="37.0476542786" lon="-2.1315081697">
        <ele>544.72</ele>
        <time>2018-11-09T09:46:09Z</time>
      </trkpt>
      <trkpt lat="37.0477941725" lon="-2.1316319704">
        <ele>540.88</ele>
        <time>2018-11-09T09:46:17Z</time>
      </trkpt>
      <trkpt lat="37.0478942525" lon="-2.1317805815">
        <ele>537.99</ele>
        <time>2018-11-09T09:46:24Z</time>
      </trkpt>
      <trkpt lat="37.0479248464" lon="-2.1320664883">
        <ele>536.07</ele>
        <time>2018-11-09T09:46:33Z</time>
      </trkpt>
      <trkpt lat="37.0480021276" lon="-2.1322410833">
        <ele>534.15</ele>
        <time>2018-11-09T09:46:40Z</time>
      </trkpt>
      <trkpt lat="37.0481312089" lon="-2.1323060431">
        <ele>532.23</ele>
        <time>2018-11-09T09:46:46Z</time>
      </trkpt>
      <trkpt lat="37.0482606255" lon="-2.1323055401">
        <ele>531.75</ele>
        <time>2018-11-09T09:46:53Z</time>
      </trkpt>
      <trkpt lat="37.0482764672" lon="-2.1322955657">
        <ele>531.75</ele>
        <time>2018-11-09T09:46:54Z</time>
      </trkpt>
      <trkpt lat="37.0483001880" lon="-2.1322865970">
        <ele>531.27</ele>
        <time>2018-11-09T09:46:55Z</time>
      </trkpt>
      <trkpt lat="37.0484926365" lon="-2.1322140098">
        <ele>528.86</ele>
        <time>2018-11-09T09:47:01Z</time>
      </trkpt>
      <trkpt lat="37.0486741886" lon="-2.1321900375">
        <ele>525.98</ele>
        <time>2018-11-09T09:47:08Z</time>
      </trkpt>
      <trkpt lat="37.0487744361" lon="-2.1322871838">
        <ele>524.54</ele>
        <time>2018-11-09T09:47:13Z</time>
      </trkpt>
      <trkpt lat="37.0488245599" lon="-2.1324804705">
        <ele>522.61</ele>
        <time>2018-11-09T09:47:21Z</time>
      </trkpt>
      <trkpt lat="37.0487500448" lon="-2.1325958055">
        <ele>520.21</ele>
        <time>2018-11-09T09:47:26Z</time>
      </trkpt>
      <trkpt lat="37.0485786349" lon="-2.1326726675">
        <ele>516.85</ele>
        <time>2018-11-09T09:47:34Z</time>
      </trkpt>
      <trkpt lat="37.0485705882" lon="-2.1326766070">
        <ele>516.37</ele>
        <time>2018-11-09T09:47:40Z</time>
      </trkpt>
      <trkpt lat="37.0485851727" lon="-2.1326597594">
        <ele>514.92</ele>
        <time>2018-11-09T09:47:50Z</time>
      </trkpt>
      <trkpt lat="37.0485800598" lon="-2.1326518804">
        <ele>515.40</ele>
        <time>2018-11-09T09:48:09Z</time>
      </trkpt>
      <trkpt lat="37.0485796407" lon="-2.1326621063">
        <ele>515.88</ele>
        <time>2018-11-09T09:48:26Z</time>
      </trkpt>
      <trkpt lat="37.0485741086" lon="-2.1326566581">
        <ele>515.88</ele>
        <time>2018-11-09T09:48:36Z</time>
      </trkpt>
      <trkpt lat="37.0485719293" lon="-2.1326661296">
        <ele>515.88</ele>
        <time>2018-11-09T09:48:52Z</time>
      </trkpt>
      <trkpt lat="37.0485703368" lon="-2.1326576639">
        <ele>515.40</ele>
        <time>2018-11-09T09:49:11Z</time>
      </trkpt>
      <trkpt lat="37.0485458616" lon="-2.1326523833">
        <ele>515.40</ele>
        <time>2018-11-09T09:49:23Z</time>
      </trkpt>
      <trkpt lat="37.0485422574" lon="-2.1326548140">
        <ele>515.88</ele>
        <time>2018-11-09T09:49:31Z</time>
      </trkpt>
      <trkpt lat="37.0485399943" lon="-2.1326602623">
        <ele>515.88</ele>
        <time>2018-11-09T09:49:39Z</time>
      </trkpt>
      <trkpt lat="37.0485351328" lon="-2.1326645371">
        <ele>515.40</ele>
        <time>2018-11-09T09:49:48Z</time>
      </trkpt>
      <trkpt lat="37.0485257450" lon="-2.1326751821">
        <ele>514.92</ele>
        <time>2018-11-09T09:49:56Z</time>
      </trkpt>
      <trkpt lat="37.0485210512" lon="-2.1326715779">
        <ele>515.40</ele>
        <time>2018-11-09T09:50:09Z</time>
      </trkpt>
      <trkpt lat="37.0485320315" lon="-2.1326774452">
        <ele>514.92</ele>
        <time>2018-11-09T09:50:35Z</time>
      </trkpt>
      <trkpt lat="37.0485192910" lon="-2.1326837316">
        <ele>514.92</ele>
        <time>2018-11-09T09:50:43Z</time>
      </trkpt>
      <trkpt lat="37.0484534092" lon="-2.1327547263">
        <ele>513.00</ele>
        <time>2018-11-09T09:50:49Z</time>
      </trkpt>
      <trkpt lat="37.0484470390" lon="-2.1327644493">
        <ele>513.00</ele>
        <time>2018-11-09T09:50:54Z</time>
      </trkpt>
      <trkpt lat="37.0483968314" lon="-2.1328492742">
        <ele>511.56</ele>
        <time>2018-11-09T09:50:59Z</time>
      </trkpt>
      <trkpt lat="37.0482308697" lon="-2.1331112925">
        <ele>505.79</ele>
        <time>2018-11-09T09:51:09Z</time>
      </trkpt>
      <trkpt lat="37.0481537562" lon="-2.1332690399">
        <ele>503.39</ele>
        <time>2018-11-09T09:51:14Z</time>
      </trkpt>
      <trkpt lat="37.0481486432" lon="-2.1332986280">
        <ele>502.91</ele>
        <time>2018-11-09T09:51:15Z</time>
      </trkpt>
      <trkpt lat="37.0481392555" lon="-2.1333286352">
        <ele>502.43</ele>
        <time>2018-11-09T09:51:16Z</time>
      </trkpt>
      <trkpt lat="37.0481270179" lon="-2.1333640069">
        <ele>501.95</ele>
        <time>2018-11-09T09:51:17Z</time>
      </trkpt>
      <trkpt lat="37.0481158700" lon="-2.1334024798">
        <ele>501.46</ele>
        <time>2018-11-09T09:51:18Z</time>
      </trkpt>
      <trkpt lat="37.0480393432" lon="-2.1337352414">
        <ele>498.10</ele>
        <time>2018-11-09T09:51:26Z</time>
      </trkpt>
      <trkpt lat="37.0479146205" lon="-2.1340567712">
        <ele>495.70</ele>
        <time>2018-11-09T09:51:34Z</time>
      </trkpt>
      <trkpt lat="37.0478708670" lon="-2.1342403349">
        <ele>494.74</ele>
        <time>2018-11-09T09:51:40Z</time>
      </trkpt>
      <trkpt lat="37.0478116907" lon="-2.1345029399">
        <ele>493.77</ele>
        <time>2018-11-09T09:51:47Z</time>
      </trkpt>
      <trkpt lat="37.0476772450" lon="-2.1348203626">
        <ele>492.81</ele>
        <time>2018-11-09T09:51:57Z</time>
      </trkpt>
      <trkpt lat="37.0476111118" lon="-2.1350186784">
        <ele>492.81</ele>
        <time>2018-11-09T09:52:04Z</time>
      </trkpt>
      <trkpt lat="37.0474552084" lon="-2.1354139689">
        <ele>490.89</ele>
        <time>2018-11-09T09:52:14Z</time>
      </trkpt>
      <trkpt lat="37.0473777596" lon="-2.1355914976">
        <ele>490.41</ele>
        <time>2018-11-09T09:52:18Z</time>
      </trkpt>
      <trkpt lat="37.0472565573" lon="-2.1357512567">
        <ele>490.41</ele>
        <time>2018-11-09T09:52:24Z</time>
      </trkpt>
      <trkpt lat="37.0472576469" lon="-2.1357758995">
        <ele>490.41</ele>
        <time>2018-11-09T09:52:25Z</time>
      </trkpt>
      <trkpt lat="37.0472663641" lon="-2.1357930824">
        <ele>489.93</ele>
        <time>2018-11-09T09:52:26Z</time>
      </trkpt>
      <trkpt lat="37.0472804457" lon="-2.1358124446">
        <ele>489.93</ele>
        <time>2018-11-09T09:52:27Z</time>
      </trkpt>
      <trkpt lat="37.0472997241" lon="-2.1358266100">
        <ele>489.93</ele>
        <time>2018-11-09T09:52:28Z</time>
      </trkpt>
      <trkpt lat="37.0473189186" lon="-2.1358389314">
        <ele>489.45</ele>
        <time>2018-11-09T09:52:29Z</time>
      </trkpt>
      <trkpt lat="37.0475472417" lon="-2.1360014565">
        <ele>487.05</ele>
        <time>2018-11-09T09:52:40Z</time>
      </trkpt>
      <trkpt lat="37.0477291290" lon="-2.1362318750">
        <ele>482.72</ele>
        <time>2018-11-09T09:52:49Z</time>
      </trkpt>
      <trkpt lat="37.0478109363" lon="-2.1365455259">
        <ele>477.91</ele>
        <time>2018-11-09T09:52:57Z</time>
      </trkpt>
      <trkpt lat="37.0478372555" lon="-2.1368593443">
        <ele>473.11</ele>
        <time>2018-11-09T09:53:05Z</time>
      </trkpt>
      <trkpt lat="37.0478443801" lon="-2.1369051933">
        <ele>472.63</ele>
        <time>2018-11-09T09:53:06Z</time>
      </trkpt>
      <trkpt lat="37.0478597190" lon="-2.1369595081">
        <ele>472.14</ele>
        <time>2018-11-09T09:53:07Z</time>
      </trkpt>
      <trkpt lat="37.0478834398" lon="-2.1370067820">
        <ele>471.66</ele>
        <time>2018-11-09T09:53:08Z</time>
      </trkpt>
      <trkpt lat="37.0479132794" lon="-2.1370497812">
        <ele>471.18</ele>
        <time>2018-11-09T09:53:09Z</time>
      </trkpt>
      <trkpt lat="37.0479444601" lon="-2.1370846499">
        <ele>471.18</ele>
        <time>2018-11-09T09:53:10Z</time>
      </trkpt>
      <trkpt lat="37.0479768142" lon="-2.1371189319">
        <ele>471.18</ele>
        <time>2018-11-09T09:53:11Z</time>
      </trkpt>
      <trkpt lat="37.0481131040" lon="-2.1372927725">
        <ele>471.66</ele>
        <time>2018-11-09T09:53:17Z</time>
      </trkpt>
      <trkpt lat="37.0480925683" lon="-2.1375176590">
        <ele>470.70</ele>
        <time>2018-11-09T09:53:23Z</time>
      </trkpt>
      <trkpt lat="37.0481509063" lon="-2.1376526915">
        <ele>472.14</ele>
        <time>2018-11-09T09:53:28Z</time>
      </trkpt>
      <trkpt lat="37.0481788181" lon="-2.1377801802">
        <ele>473.59</ele>
        <time>2018-11-09T09:53:34Z</time>
      </trkpt>
      <trkpt lat="37.0481903851" lon="-2.1380360797">
        <ele>474.55</ele>
        <time>2018-11-09T09:53:43Z</time>
      </trkpt>
      <trkpt lat="37.0482284389" lon="-2.1383079048">
        <ele>477.43</ele>
        <time>2018-11-09T09:53:54Z</time>
      </trkpt>
      <trkpt lat="37.0482625533" lon="-2.1385303605">
        <ele>478.87</ele>
        <time>2018-11-09T09:54:04Z</time>
      </trkpt>
      <trkpt lat="37.0482954942" lon="-2.1386959031">
        <ele>481.28</ele>
        <time>2018-11-09T09:54:12Z</time>
      </trkpt>
      <trkpt lat="37.0483251661" lon="-2.1388681512">
        <ele>483.68</ele>
        <time>2018-11-09T09:54:21Z</time>
      </trkpt>
      <trkpt lat="37.0483380742" lon="-2.1389810555">
        <ele>483.20</ele>
        <time>2018-11-09T09:54:29Z</time>
      </trkpt>
      <trkpt lat="37.0483468752" lon="-2.1391377971">
        <ele>482.24</ele>
        <time>2018-11-09T09:54:36Z</time>
      </trkpt>
      <trkpt lat="37.0483614597" lon="-2.1393453330">
        <ele>483.20</ele>
        <time>2018-11-09T09:54:45Z</time>
      </trkpt>
      <trkpt lat="37.0483697578" lon="-2.1394068561">
        <ele>483.68</ele>
        <time>2018-11-09T09:54:48Z</time>
      </trkpt>
      <trkpt lat="37.0483792294" lon="-2.1394208539">
        <ele>483.68</ele>
        <time>2018-11-09T09:54:49Z</time>
      </trkpt>
      <trkpt lat="37.0483854320" lon="-2.1394355223">
        <ele>483.68</ele>
        <time>2018-11-09T09:54:50Z</time>
      </trkpt>
      <trkpt lat="37.0483910479" lon="-2.1394516155">
        <ele>483.68</ele>
        <time>2018-11-09T09:54:51Z</time>
      </trkpt>
      <trkpt lat="37.0483973343" lon="-2.1394677926">
        <ele>483.68</ele>
        <time>2018-11-09T09:54:52Z</time>
      </trkpt>
      <trkpt lat="37.0484027825" lon="-2.1394829638">
        <ele>483.68</ele>
        <time>2018-11-09T09:54:53Z</time>
      </trkpt>
      <trkpt lat="37.0484201331" lon="-2.1395248733">
        <ele>483.68</ele>
        <time>2018-11-09T09:54:56Z</time>
      </trkpt>
      <trkpt lat="37.0484306943" lon="-2.1395340934">
        <ele>483.68</ele>
        <time>2018-11-09T09:54:57Z</time>
      </trkpt>
      <trkpt lat="37.0484374836" lon="-2.1395458281">
        <ele>483.68</ele>
        <time>2018-11-09T09:54:58Z</time>
      </trkpt>
      <trkpt lat="37.0484444406" lon="-2.1395647712">
        <ele>483.68</ele>
        <time>2018-11-09T09:54:59Z</time>
      </trkpt>
      <trkpt lat="37.0484495535" lon="-2.1395827085">
        <ele>483.68</ele>
        <time>2018-11-09T09:55:00Z</time>
      </trkpt>
      <trkpt lat="37.0484531578" lon="-2.1396029927">
        <ele>483.68</ele>
        <time>2018-11-09T09:55:01Z</time>
      </trkpt>
      <trkpt lat="37.0484575164" lon="-2.1396236122">
        <ele>483.68</ele>
        <time>2018-11-09T09:55:02Z</time>
      </trkpt>
      <trkpt lat="37.0484798122" lon="-2.1398150548">
        <ele>481.28</ele>
        <time>2018-11-09T09:55:10Z</time>
      </trkpt>
      <trkpt lat="37.0484818239" lon="-2.1398060862">
        <ele>479.84</ele>
        <time>2018-11-09T09:55:20Z</time>
      </trkpt>
      <trkpt lat="37.0484770462" lon="-2.1398055833">
        <ele>479.84</ele>
        <time>2018-11-09T09:55:34Z</time>
      </trkpt>
      <trkpt lat="37.0484897029" lon="-2.1398588922">
        <ele>479.35</ele>
        <time>2018-11-09T09:55:42Z</time>
      </trkpt>
      <trkpt lat="37.0485218056" lon="-2.1400358342">
        <ele>477.91</ele>
        <time>2018-11-09T09:55:48Z</time>
      </trkpt>
      <trkpt lat="37.0485674869" lon="-2.1403588727">
        <ele>475.03</ele>
        <time>2018-11-09T09:55:56Z</time>
      </trkpt>
      <trkpt lat="37.0485458616" lon="-2.1405939851">
        <ele>471.66</ele>
        <time>2018-11-09T09:56:03Z</time>
      </trkpt>
      <trkpt lat="37.0485135075" lon="-2.1407574322">
        <ele>468.30</ele>
        <time>2018-11-09T09:56:10Z</time>
      </trkpt>
      <trkpt lat="37.0485137589" lon="-2.1407824941">
        <ele>467.82</ele>
        <time>2018-11-09T09:56:11Z</time>
      </trkpt>
      <trkpt lat="37.0485318638" lon="-2.1409747750">
        <ele>464.93</ele>
        <time>2018-11-09T09:56:18Z</time>
      </trkpt>
      <trkpt lat="37.0485193748" lon="-2.1412284952">
        <ele>462.53</ele>
        <time>2018-11-09T09:56:24Z</time>
      </trkpt>
      <trkpt lat="37.0485700853" lon="-2.1413957980">
        <ele>463.01</ele>
        <time>2018-11-09T09:56:29Z</time>
      </trkpt>
      <trkpt lat="37.0486444328" lon="-2.1415849775">
        <ele>463.01</ele>
        <time>2018-11-09T09:56:36Z</time>
      </trkpt>
      <trkpt lat="37.0486570057" lon="-2.1416179184">
        <ele>462.53</ele>
        <time>2018-11-09T09:56:37Z</time>
      </trkpt>
      <trkpt lat="37.0486300997" lon="-2.1418039128">
        <ele>462.53</ele>
        <time>2018-11-09T09:56:42Z</time>
      </trkpt>
      <trkpt lat="37.0486461930" lon="-2.1419162303">
        <ele>463.49</ele>
        <time>2018-11-09T09:56:46Z</time>
      </trkpt>
      <trkpt lat="37.0487249829" lon="-2.1421195753">
        <ele>465.42</ele>
        <time>2018-11-09T09:56:55Z</time>
      </trkpt>
      <trkpt lat="37.0487007592" lon="-2.1423770674">
        <ele>465.90</ele>
        <time>2018-11-09T09:57:05Z</time>
      </trkpt>
      <trkpt lat="37.0488133281" lon="-2.1425131056">
        <ele>467.34</ele>
        <time>2018-11-09T09:57:13Z</time>
      </trkpt>
      <trkpt lat="37.0488771982" lon="-2.1426682547">
        <ele>468.30</ele>
        <time>2018-11-09T09:57:21Z</time>
      </trkpt>
      <trkpt lat="37.0488444250" lon="-2.1428876091">
        <ele>466.86</ele>
        <time>2018-11-09T09:57:27Z</time>
      </trkpt>
      <trkpt lat="37.0487245638" lon="-2.1432630345">
        <ele>462.05</ele>
        <time>2018-11-09T09:57:32Z</time>
      </trkpt>
      <trkpt lat="37.0486404933" lon="-2.1434935369">
        <ele>461.09</ele>
        <time>2018-11-09T09:57:35Z</time>
      </trkpt>
      <trkpt lat="37.0484061353" lon="-2.1438484266">
        <ele>460.61</ele>
        <time>2018-11-09T09:57:41Z</time>
      </trkpt>
      <trkpt lat="37.0482167881" lon="-2.1441210900">
        <ele>461.09</ele>
        <time>2018-11-09T09:57:47Z</time>
      </trkpt>
      <trkpt lat="37.0481356513" lon="-2.1442615706">
        <ele>463.01</ele>
        <time>2018-11-09T09:57:52Z</time>
      </trkpt>
      <trkpt lat="37.0479808375" lon="-2.1445131116">
        <ele>466.38</ele>
        <time>2018-11-09T09:58:02Z</time>
      </trkpt>
      <trkpt lat="37.0479297917" lon="-2.1445893869">
        <ele>466.86</ele>
        <time>2018-11-09T09:58:07Z</time>
      </trkpt>
      <trkpt lat="37.0479193144" lon="-2.1445953380">
        <ele>467.34</ele>
        <time>2018-11-09T09:58:08Z</time>
      </trkpt>
      <trkpt lat="37.0478893910" lon="-2.1446106769">
        <ele>466.86</ele>
        <time>2018-11-09T09:58:12Z</time>
      </trkpt>
      <trkpt lat="37.0478723757" lon="-2.1446083300">
        <ele>466.38</ele>
        <time>2018-11-09T09:58:13Z</time>
      </trkpt>
      <trkpt lat="37.0478546061" lon="-2.1446124371">
        <ele>466.38</ele>
        <time>2018-11-09T09:58:14Z</time>
      </trkpt>
      <trkpt lat="37.0478411112" lon="-2.1446171310">
        <ele>466.38</ele>
        <time>2018-11-09T09:58:15Z</time>
      </trkpt>
      <trkpt lat="37.0478248503" lon="-2.1446198970">
        <ele>466.86</ele>
        <time>2018-11-09T09:58:16Z</time>
      </trkpt>
      <trkpt lat="37.0478137862" lon="-2.1446188074">
        <ele>466.86</ele>
        <time>2018-11-09T09:58:17Z</time>
      </trkpt>
      <trkpt lat="37.0476992894" lon="-2.1446023788">
        <ele>466.38</ele>
        <time>2018-11-09T09:58:23Z</time>
      </trkpt>
      <trkpt lat="37.0475223474" lon="-2.1445132792">
        <ele>465.90</ele>
        <time>2018-11-09T09:58:31Z</time>
      </trkpt>
      <trkpt lat="37.0473027416" lon="-2.1444231737">
        <ele>462.05</ele>
        <time>2018-11-09T09:58:39Z</time>
      </trkpt>
      <trkpt lat="37.0471181720" lon="-2.1444245148">
        <ele>458.21</ele>
        <time>2018-11-09T09:58:46Z</time>
      </trkpt>
      <trkpt lat="37.0470226184" lon="-2.1446033847">
        <ele>454.84</ele>
        <time>2018-11-09T09:58:52Z</time>
      </trkpt>
      <trkpt lat="37.0470071957" lon="-2.1446525864">
        <ele>454.36</ele>
        <time>2018-11-09T09:58:53Z</time>
      </trkpt>
      <trkpt lat="37.0468331873" lon="-2.1451852564">
        <ele>451.96</ele>
        <time>2018-11-09T09:59:03Z</time>
      </trkpt>
      <trkpt lat="37.0467958041" lon="-2.1453137510">
        <ele>454.36</ele>
        <time>2018-11-09T09:59:08Z</time>
      </trkpt>
      <trkpt lat="37.0467932895" lon="-2.1455004998">
        <ele>457.24</ele>
        <time>2018-11-09T09:59:15Z</time>
      </trkpt>
      <trkpt lat="37.0468125679" lon="-2.1457300801">
        <ele>461.09</ele>
        <time>2018-11-09T09:59:24Z</time>
      </trkpt>
      <trkpt lat="37.0468731690" lon="-2.1458598319">
        <ele>461.57</ele>
        <time>2018-11-09T09:59:31Z</time>
      </trkpt>
      <trkpt lat="37.0469507016" lon="-2.1459614206">
        <ele>462.53</ele>
        <time>2018-11-09T09:59:39Z</time>
      </trkpt>
      <trkpt lat="37.0469583292" lon="-2.1460718103">
        <ele>462.05</ele>
        <time>2018-11-09T09:59:47Z</time>
      </trkpt>
      <trkpt lat="37.0469528809" lon="-2.1460863110">
        <ele>461.57</ele>
        <time>2018-11-09T09:59:48Z</time>
      </trkpt>
      <trkpt lat="37.0469166711" lon="-2.1462226845">
        <ele>461.57</ele>
        <time>2018-11-09T09:59:55Z</time>
      </trkpt>
      <trkpt lat="37.0468586683" lon="-2.1465214994">
        <ele>460.61</ele>
        <time>2018-11-09T10:00:03Z</time>
      </trkpt>
      <trkpt lat="37.0468175132" lon="-2.1467910614">
        <ele>460.61</ele>
        <time>2018-11-09T10:00:11Z</time>
      </trkpt>
      <trkpt lat="37.0467787888" lon="-2.1470130980">
        <ele>461.09</ele>
        <time>2018-11-09T10:00:19Z</time>
      </trkpt>
      <trkpt lat="37.0467465185" lon="-2.1472152695">
        <ele>463.01</ele>
        <time>2018-11-09T10:00:27Z</time>
      </trkpt>
      <trkpt lat="37.0468234643" lon="-2.1473299339">
        <ele>463.97</ele>
        <time>2018-11-09T10:00:34Z</time>
      </trkpt>
      <trkpt lat="37.0469099656" lon="-2.1474572551">
        <ele>464.45</ele>
        <time>2018-11-09T10:00:43Z</time>
      </trkpt>
      <trkpt lat="37.0469675492" lon="-2.1475441754">
        <ele>464.93</ele>
        <time>2018-11-09T10:00:50Z</time>
      </trkpt>
      <trkpt lat="37.0469830558" lon="-2.1475871745">
        <ele>464.45</ele>
        <time>2018-11-09T10:00:56Z</time>
      </trkpt>
      <trkpt lat="37.0469817147" lon="-2.1475991607">
        <ele>465.42</ele>
        <time>2018-11-09T10:01:06Z</time>
      </trkpt>
      <trkpt lat="37.0469801221" lon="-2.1475948021">
        <ele>463.97</ele>
        <time>2018-11-09T10:01:17Z</time>
      </trkpt>
      <trkpt lat="37.0469745900" lon="-2.1475975681">
        <ele>464.45</ele>
        <time>2018-11-09T10:01:25Z</time>
      </trkpt>
      <trkpt lat="37.0469658729" lon="-2.1476052795">
        <ele>464.93</ele>
        <time>2018-11-09T10:01:37Z</time>
      </trkpt>
      <trkpt lat="37.0469710696" lon="-2.1475957241">
        <ele>465.42</ele>
        <time>2018-11-09T10:02:00Z</time>
      </trkpt>
      <trkpt lat="37.0469748415" lon="-2.1475928742">
        <ele>465.90</ele>
        <time>2018-11-09T10:02:39Z</time>
      </trkpt>
      <trkpt lat="37.0469724108" lon="-2.1475854982">
        <ele>466.38</ele>
        <time>2018-11-09T10:03:07Z</time>
      </trkpt>
      <trkpt lat="37.0469678007" lon="-2.1475860849">
        <ele>466.38</ele>
        <time>2018-11-09T10:03:35Z</time>
      </trkpt>
      <trkpt lat="37.0469796192" lon="-2.1475953050">
        <ele>466.86</ele>
        <time>2018-11-09T10:04:08Z</time>
      </trkpt>
      <trkpt lat="37.0469750930" lon="-2.1475968976">
        <ele>466.38</ele>
        <time>2018-11-09T10:04:39Z</time>
      </trkpt>
      <trkpt lat="37.0469823852" lon="-2.1475876775">
        <ele>466.86</ele>
        <time>2018-11-09T10:05:01Z</time>
      </trkpt>
      <trkpt lat="37.0469795354" lon="-2.1475986578">
        <ele>466.38</ele>
        <time>2018-11-09T10:05:12Z</time>
      </trkpt>
      <trkpt lat="37.0469732489" lon="-2.1475933772">
        <ele>466.38</ele>
        <time>2018-11-09T10:05:29Z</time>
      </trkpt>
      <trkpt lat="37.0469745900" lon="-2.1476037707">
        <ele>465.90</ele>
        <time>2018-11-09T10:05:51Z</time>
      </trkpt>
      <trkpt lat="37.0469772723" lon="-2.1475992445">
        <ele>466.86</ele>
        <time>2018-11-09T10:06:04Z</time>
      </trkpt>
      <trkpt lat="37.0469831396" lon="-2.1475938801">
        <ele>465.90</ele>
        <time>2018-11-09T10:06:19Z</time>
      </trkpt>
      <trkpt lat="37.0469801221" lon="-2.1475994121">
        <ele>465.90</ele>
        <time>2018-11-09T10:06:38Z</time>
      </trkpt>
      <trkpt lat="37.0469781104" lon="-2.1476024296">
        <ele>466.38</ele>
        <time>2018-11-09T10:06:51Z</time>
      </trkpt>
      <trkpt lat="37.0469790325" lon="-2.1476006694">
        <ele>466.38</ele>
        <time>2018-11-09T10:07:03Z</time>
      </trkpt>
      <trkpt lat="37.0469746739" lon="-2.1476044413">
        <ele>466.38</ele>
        <time>2018-11-09T10:07:14Z</time>
      </trkpt>
      <trkpt lat="37.0469832234" lon="-2.1476176009">
        <ele>466.38</ele>
        <time>2018-11-09T10:07:18Z</time>
      </trkpt>
      <trkpt lat="37.0470207743" lon="-2.1476611029">
        <ele>466.38</ele>
        <time>2018-11-09T10:07:22Z</time>
      </trkpt>
      <trkpt lat="37.0471174177" lon="-2.1478018351">
        <ele>466.86</ele>
        <time>2018-11-09T10:07:31Z</time>
      </trkpt>
      <trkpt lat="37.0471931063" lon="-2.1479615942">
        <ele>467.82</ele>
        <time>2018-11-09T10:07:39Z</time>
      </trkpt>
      <trkpt lat="37.0472401287" lon="-2.1481524501">
        <ele>468.30</ele>
        <time>2018-11-09T10:07:47Z</time>
      </trkpt>
      <trkpt lat="37.0472955331" lon="-2.1483783424">
        <ele>469.74</ele>
        <time>2018-11-09T10:07:56Z</time>
      </trkpt>
      <trkpt lat="37.0472896658" lon="-2.1485572122">
        <ele>468.30</ele>
        <time>2018-11-09T10:08:04Z</time>
      </trkpt>
      <trkpt lat="37.0472650230" lon="-2.1488324739">
        <ele>466.38</ele>
        <time>2018-11-09T10:08:12Z</time>
      </trkpt>
      <trkpt lat="37.0472748298" lon="-2.1491123457">
        <ele>464.93</ele>
        <time>2018-11-09T10:08:20Z</time>
      </trkpt>
      <trkpt lat="37.0473753288" lon="-2.1493366454">
        <ele>464.93</ele>
        <time>2018-11-09T10:08:27Z</time>
      </trkpt>
      <trkpt lat="37.0474104490" lon="-2.1495808102">
        <ele>464.45</ele>
        <time>2018-11-09T10:08:35Z</time>
      </trkpt>
      <trkpt lat="37.0474224351" lon="-2.1498104744">
        <ele>463.49</ele>
        <time>2018-11-09T10:08:43Z</time>
      </trkpt>
      <trkpt lat="37.0474777557" lon="-2.1499621868">
        <ele>461.57</ele>
        <time>2018-11-09T10:08:50Z</time>
      </trkpt>
      <trkpt lat="37.0474794321" lon="-2.1499742568">
        <ele>461.09</ele>
        <time>2018-11-09T10:08:55Z</time>
      </trkpt>
      <trkpt lat="37.0474509336" lon="-2.1499612648">
        <ele>461.57</ele>
        <time>2018-11-09T10:09:02Z</time>
      </trkpt>
      <trkpt lat="37.0474515203" lon="-2.1499358676">
        <ele>461.57</ele>
        <time>2018-11-09T10:09:04Z</time>
      </trkpt>
      <trkpt lat="37.0474503469" lon="-2.1499179304">
        <ele>461.57</ele>
        <time>2018-11-09T10:09:05Z</time>
      </trkpt>
      <trkpt lat="37.0474446472" lon="-2.1498997416">
        <ele>462.05</ele>
        <time>2018-11-09T10:09:06Z</time>
      </trkpt>
      <trkpt lat="37.0474386122" lon="-2.1498848218">
        <ele>462.05</ele>
        <time>2018-11-09T10:09:07Z</time>
      </trkpt>
      <trkpt lat="37.0474274643" lon="-2.1498669684">
        <ele>462.53</ele>
        <time>2018-11-09T10:09:08Z</time>
      </trkpt>
      <trkpt lat="37.0474134665" lon="-2.1498580836">
        <ele>462.53</ele>
        <time>2018-11-09T10:09:09Z</time>
      </trkpt>
      <trkpt lat="37.0473775920" lon="-2.1499024238">
        <ele>463.01</ele>
        <time>2018-11-09T10:09:12Z</time>
      </trkpt>
      <trkpt lat="37.0473192539" lon="-2.1500368696">
        <ele>462.05</ele>
        <time>2018-11-09T10:09:18Z</time>
      </trkpt>
      <trkpt lat="37.0473080222" lon="-2.1500517055">
        <ele>461.57</ele>
        <time>2018-11-09T10:09:19Z</time>
      </trkpt>
      <trkpt lat="37.0472988021" lon="-2.1500657871">
        <ele>461.57</ele>
        <time>2018-11-09T10:09:20Z</time>
      </trkpt>
      <trkpt lat="37.0472901687" lon="-2.1500844788">
        <ele>461.57</ele>
        <time>2018-11-09T10:09:27Z</time>
      </trkpt>
      <trkpt lat="37.0472977124" lon="-2.1500893403">
        <ele>460.61</ele>
        <time>2018-11-09T10:09:44Z</time>
      </trkpt>
      <trkpt lat="37.0472972933" lon="-2.1500732470">
        <ele>461.09</ele>
        <time>2018-11-09T10:09:51Z</time>
      </trkpt>
      <trkpt lat="37.0473057590" lon="-2.1500679664">
        <ele>461.57</ele>
        <time>2018-11-09T10:09:56Z</time>
      </trkpt>
      <trkpt lat="37.0473659411" lon="-2.1499398071">
        <ele>463.49</ele>
        <time>2018-11-09T10:10:02Z</time>
      </trkpt>
      <trkpt lat="37.0474013127" lon="-2.1498590894">
        <ele>463.97</ele>
        <time>2018-11-09T10:10:06Z</time>
      </trkpt>
      <trkpt lat="37.0474202558" lon="-2.1498562396">
        <ele>463.49</ele>
        <time>2018-11-09T10:10:08Z</time>
      </trkpt>
      <trkpt lat="37.0474300627" lon="-2.1498732548">
        <ele>463.01</ele>
        <time>2018-11-09T10:10:09Z</time>
      </trkpt>
      <trkpt lat="37.0474391151" lon="-2.1498975623">
        <ele>463.01</ele>
        <time>2018-11-09T10:10:10Z</time>
      </trkpt>
      <trkpt lat="37.0474482514" lon="-2.1499319281">
        <ele>462.53</ele>
        <time>2018-11-09T10:10:11Z</time>
      </trkpt>
      <trkpt lat="37.0474588126" lon="-2.1499698143">
        <ele>462.53</ele>
        <time>2018-11-09T10:10:12Z</time>
      </trkpt>
      <trkpt lat="37.0474880654" lon="-2.1502289828">
        <ele>460.61</ele>
        <time>2018-11-09T10:10:18Z</time>
      </trkpt>
      <trkpt lat="37.0474770013" lon="-2.1504687890">
        <ele>458.69</ele>
        <time>2018-11-09T10:10:24Z</time>
      </trkpt>
      <trkpt lat="37.0475160610" lon="-2.1505825315">
        <ele>457.24</ele>
        <time>2018-11-09T10:10:30Z</time>
      </trkpt>
      <trkpt lat="37.0476030651" lon="-2.1507133730">
        <ele>455.32</ele>
        <time>2018-11-09T10:10:37Z</time>
      </trkpt>
      <trkpt lat="37.0476676896" lon="-2.1507548634">
        <ele>454.84</ele>
        <time>2018-11-09T10:10:43Z</time>
      </trkpt>
      <trkpt lat="37.0476646721" lon="-2.1507505886">
        <ele>454.36</ele>
        <time>2018-11-09T10:10:52Z</time>
      </trkpt>
      <trkpt lat="37.0476564579" lon="-2.1507478226">
        <ele>454.36</ele>
        <time>2018-11-09T10:11:03Z</time>
      </trkpt>
      <trkpt lat="37.0476603135" lon="-2.1507489961">
        <ele>454.36</ele>
        <time>2018-11-09T10:11:18Z</time>
      </trkpt>
      <trkpt lat="37.0476645045" lon="-2.1507486608">
        <ele>454.36</ele>
        <time>2018-11-09T10:11:27Z</time>
      </trkpt>
      <trkpt lat="37.0476681087" lon="-2.1507339086">
        <ele>454.36</ele>
        <time>2018-11-09T10:11:43Z</time>
      </trkpt>
      <trkpt lat="37.0476737246" lon="-2.1507385187">
        <ele>451.48</ele>
        <time>2018-11-09T10:11:57Z</time>
      </trkpt>
      <trkpt lat="37.0476745628" lon="-2.1507527679">
        <ele>452.92</ele>
        <time>2018-11-09T10:12:06Z</time>
      </trkpt>
      <trkpt lat="37.0477421209" lon="-2.1507760696">
        <ele>452.92</ele>
        <time>2018-11-09T10:12:14Z</time>
      </trkpt>
      <trkpt lat="37.0478292927" lon="-2.1507784165">
        <ele>453.40</ele>
        <time>2018-11-09T10:12:23Z</time>
      </trkpt>
      <trkpt lat="37.0479172189" lon="-2.1507698670">
        <ele>452.92</ele>
        <time>2018-11-09T10:12:31Z</time>
      </trkpt>
      <trkpt lat="37.0479618106" lon="-2.1507401951">
        <ele>452.44</ele>
        <time>2018-11-09T10:12:39Z</time>
      </trkpt>
      <trkpt lat="37.0479554404" lon="-2.1507493313">
        <ele>452.44</ele>
        <time>2018-11-09T10:12:50Z</time>
      </trkpt>
      <trkpt lat="37.0479656663" lon="-2.1507465653">
        <ele>452.44</ele>
        <time>2018-11-09T10:13:03Z</time>
      </trkpt>
      <trkpt lat="37.0479701087" lon="-2.1507364232">
        <ele>451.96</ele>
        <time>2018-11-09T10:13:16Z</time>
      </trkpt>
      <trkpt lat="37.0479670912" lon="-2.1507479902">
        <ele>451.96</ele>
        <time>2018-11-09T10:13:33Z</time>
      </trkpt>
      <trkpt lat="37.0479680132" lon="-2.1507415362">
        <ele>451.96</ele>
        <time>2018-11-09T10:13:48Z</time>
      </trkpt>
      <trkpt lat="37.0479641575" lon="-2.1507414524">
        <ele>452.92</ele>
        <time>2018-11-09T10:14:03Z</time>
      </trkpt>
      <trkpt lat="37.0479630679" lon="-2.1507410333">
        <ele>452.44</ele>
        <time>2018-11-09T10:14:17Z</time>
      </trkpt>
      <trkpt lat="37.0479709469" lon="-2.1507393569">
        <ele>451.96</ele>
        <time>2018-11-09T10:14:33Z</time>
      </trkpt>
      <trkpt lat="37.0479712822" lon="-2.1507456433">
        <ele>451.48</ele>
        <time>2018-11-09T10:14:49Z</time>
      </trkpt>
      <trkpt lat="37.0479794964" lon="-2.1507697832">
        <ele>451.96</ele>
        <time>2018-11-09T10:14:58Z</time>
      </trkpt>
      <trkpt lat="37.0480058156" lon="-2.1508399397">
        <ele>452.92</ele>
        <time>2018-11-09T10:15:03Z</time>
      </trkpt>
      <trkpt lat="37.0480109286" lon="-2.1510146186">
        <ele>453.40</ele>
        <time>2018-11-09T10:15:14Z</time>
      </trkpt>
      <trkpt lat="37.0480289496" lon="-2.1511700191">
        <ele>453.88</ele>
        <time>2018-11-09T10:15:25Z</time>
      </trkpt>
      <trkpt lat="37.0480286144" lon="-2.1512782294">
        <ele>453.40</ele>
        <time>2018-11-09T10:15:35Z</time>
      </trkpt>
      <trkpt lat="37.0480104256" lon="-2.1513317898">
        <ele>453.40</ele>
        <time>2018-11-09T10:15:45Z</time>
      </trkpt>
      <trkpt lat="37.0480038039" lon="-2.1513486374">
        <ele>454.36</ele>
        <time>2018-11-09T10:15:51Z</time>
      </trkpt>
      <trkpt lat="37.0480170473" lon="-2.1513668261">
        <ele>454.36</ele>
        <time>2018-11-09T10:16:02Z</time>
      </trkpt>
      <trkpt lat="37.0480072405" lon="-2.1514197998">
        <ele>455.80</ele>
        <time>2018-11-09T10:16:09Z</time>
      </trkpt>
      <trkpt lat="37.0480102580" lon="-2.1514358930">
        <ele>456.28</ele>
        <time>2018-11-09T10:16:18Z</time>
      </trkpt>
      <trkpt lat="37.0480201486" lon="-2.1514792275">
        <ele>457.24</ele>
        <time>2018-11-09T10:16:30Z</time>
      </trkpt>
      <trkpt lat="37.0480305422" lon="-2.1515115816">
        <ele>458.21</ele>
        <time>2018-11-09T10:16:39Z</time>
      </trkpt>
      <trkpt lat="37.0480416901" lon="-2.1515217237">
        <ele>458.21</ele>
        <time>2018-11-09T10:16:51Z</time>
      </trkpt>
      <trkpt lat="37.0480535924" lon="-2.1515419241">
        <ele>459.17</ele>
        <time>2018-11-09T10:16:59Z</time>
      </trkpt>
      <trkpt lat="37.0480540954" lon="-2.1515515633">
        <ele>458.69</ele>
        <time>2018-11-09T10:17:07Z</time>
      </trkpt>
      <trkpt lat="37.0480137784" lon="-2.1516039502">
        <ele>460.61</ele>
        <time>2018-11-09T10:17:17Z</time>
      </trkpt>
      <trkpt lat="37.0479835197" lon="-2.1516112424">
        <ele>461.09</ele>
        <time>2018-11-09T10:17:21Z</time>
      </trkpt>
      <trkpt lat="37.0478958450" lon="-2.1516119130">
        <ele>461.09</ele>
        <time>2018-11-09T10:17:31Z</time>
      </trkpt>
      <trkpt lat="37.0478647482" lon="-2.1516259108">
        <ele>461.57</ele>
        <time>2018-11-09T10:17:48Z</time>
      </trkpt>
      <trkpt lat="37.0477913227" lon="-2.1516918764">
        <ele>462.53</ele>
        <time>2018-11-09T10:17:58Z</time>
      </trkpt>
      <trkpt lat="37.0477782469" lon="-2.1517143399">
        <ele>463.01</ele>
        <time>2018-11-09T10:18:01Z</time>
      </trkpt>
      <trkpt lat="37.0477507543" lon="-2.1517860051">
        <ele>463.49</ele>
        <time>2018-11-09T10:18:07Z</time>
      </trkpt>
      <trkpt lat="37.0477024745" lon="-2.1519448422">
        <ele>464.93</ele>
        <time>2018-11-09T10:18:18Z</time>
      </trkpt>
      <trkpt lat="37.0477135386" lon="-2.1520439163">
        <ele>466.86</ele>
        <time>2018-11-09T10:18:27Z</time>
      </trkpt>
      <trkpt lat="37.0477142092" lon="-2.1520506218">
        <ele>466.86</ele>
        <time>2018-11-09T10:18:47Z</time>
      </trkpt>
      <trkpt lat="37.0477118623" lon="-2.1520598419">
        <ele>466.38</ele>
        <time>2018-11-09T10:18:55Z</time>
      </trkpt>
      <trkpt lat="37.0477121975" lon="-2.1520674694">
        <ele>466.86</ele>
        <time>2018-11-09T10:19:08Z</time>
      </trkpt>
      <trkpt lat="37.0477123652" lon="-2.1520614345">
        <ele>467.34</ele>
        <time>2018-11-09T10:19:23Z</time>
      </trkpt>
      <trkpt lat="37.0477233455" lon="-2.1520955488">
        <ele>466.86</ele>
        <time>2018-11-09T10:19:39Z</time>
      </trkpt>
      <trkpt lat="37.0477413666" lon="-2.1522527095">
        <ele>466.86</ele>
        <time>2018-11-09T10:19:45Z</time>
      </trkpt>
      <trkpt lat="37.0477371756" lon="-2.1524879057">
        <ele>466.38</ele>
        <time>2018-11-09T10:19:53Z</time>
      </trkpt>
      <trkpt lat="37.0476200804" lon="-2.1528327372">
        <ele>466.38</ele>
        <time>2018-11-09T10:20:02Z</time>
      </trkpt>
      <trkpt lat="37.0475670230" lon="-2.1531064902">
        <ele>467.34</ele>
        <time>2018-11-09T10:20:09Z</time>
      </trkpt>
      <trkpt lat="37.0475032367" lon="-2.1533636469">
        <ele>467.34</ele>
        <time>2018-11-09T10:20:16Z</time>
      </trkpt>
      <trkpt lat="37.0473649353" lon="-2.1535245795">
        <ele>467.34</ele>
        <time>2018-11-09T10:20:23Z</time>
      </trkpt>
      <trkpt lat="37.0472820383" lon="-2.1536311973">
        <ele>466.86</ele>
        <time>2018-11-09T10:20:27Z</time>
      </trkpt>
      <trkpt lat="37.0472751651" lon="-2.1536637191">
        <ele>466.86</ele>
        <time>2018-11-09T10:20:28Z</time>
      </trkpt>
      <trkpt lat="37.0472719800" lon="-2.1536992583">
        <ele>466.38</ele>
        <time>2018-11-09T10:20:29Z</time>
      </trkpt>
      <trkpt lat="37.0472744945" lon="-2.1537337080">
        <ele>466.38</ele>
        <time>2018-11-09T10:20:30Z</time>
      </trkpt>
      <trkpt lat="37.0472816192" lon="-2.1537726838">
        <ele>465.90</ele>
        <time>2018-11-09T10:20:31Z</time>
      </trkpt>
      <trkpt lat="37.0473381970" lon="-2.1541304234">
        <ele>463.49</ele>
        <time>2018-11-09T10:20:38Z</time>
      </trkpt>
      <trkpt lat="37.0474588126" lon="-2.1545170806">
        <ele>462.05</ele>
        <time>2018-11-09T10:20:45Z</time>
      </trkpt>
      <trkpt lat="37.0475288853" lon="-2.1547588147">
        <ele>460.61</ele>
        <time>2018-11-09T10:20:51Z</time>
      </trkpt>
      <trkpt lat="37.0475676097" lon="-2.1549307276">
        <ele>459.17</ele>
        <time>2018-11-09T10:20:57Z</time>
      </trkpt>
      <trkpt lat="37.0476358384" lon="-2.1551211644">
        <ele>457.72</ele>
        <time>2018-11-09T10:21:04Z</time>
      </trkpt>
      <trkpt lat="37.0478190668" lon="-2.1553028002">
        <ele>456.76</ele>
        <time>2018-11-09T10:21:11Z</time>
      </trkpt>
      <trkpt lat="37.0480289496" lon="-2.1555089112">
        <ele>455.80</ele>
        <time>2018-11-09T10:21:19Z</time>
      </trkpt>
      <trkpt lat="37.0480722003" lon="-2.1557487175">
        <ele>455.80</ele>
        <time>2018-11-09T10:21:25Z</time>
      </trkpt>
      <trkpt lat="37.0480823424" lon="-2.1560981590">
        <ele>454.36</ele>
        <time>2018-11-09T10:21:33Z</time>
      </trkpt>
      <trkpt lat="37.0479800832" lon="-2.1563645359">
        <ele>454.84</ele>
        <time>2018-11-09T10:21:40Z</time>
      </trkpt>
      <trkpt lat="37.0478201564" lon="-2.1565569844">
        <ele>456.76</ele>
        <time>2018-11-09T10:21:47Z</time>
      </trkpt>
      <trkpt lat="37.0478080027" lon="-2.1567078587">
        <ele>459.17</ele>
        <time>2018-11-09T10:21:53Z</time>
      </trkpt>
      <trkpt lat="37.0478411950" lon="-2.1568598226">
        <ele>461.09</ele>
        <time>2018-11-09T10:22:00Z</time>
      </trkpt>
      <trkpt lat="37.0478676818" lon="-2.1570057515">
        <ele>463.01</ele>
        <time>2018-11-09T10:22:07Z</time>
      </trkpt>
      <trkpt lat="37.0478676818" lon="-2.1571791731">
        <ele>463.49</ele>
        <time>2018-11-09T10:22:15Z</time>
      </trkpt>
      <trkpt lat="37.0478253532" lon="-2.1573685203">
        <ele>464.45</ele>
        <time>2018-11-09T10:22:24Z</time>
      </trkpt>
      <trkpt lat="37.0477804262" lon="-2.1575204842">
        <ele>464.93</ele>
        <time>2018-11-09T10:22:32Z</time>
      </trkpt>
      <trkpt lat="37.0477707870" lon="-2.1576613002">
        <ele>465.90</ele>
        <time>2018-11-09T10:22:41Z</time>
      </trkpt>
      <trkpt lat="37.0477764867" lon="-2.1576773934">
        <ele>465.90</ele>
        <time>2018-11-09T10:22:42Z</time>
      </trkpt>
      <trkpt lat="37.0478164684" lon="-2.1578394994">
        <ele>465.90</ele>
        <time>2018-11-09T10:22:52Z</time>
      </trkpt>
      <trkpt lat="37.0478203241" lon="-2.1579065546">
        <ele>465.42</ele>
        <time>2018-11-09T10:22:59Z</time>
      </trkpt>
      <trkpt lat="37.0478260238" lon="-2.1579048783">
        <ele>465.90</ele>
        <time>2018-11-09T10:23:19Z</time>
      </trkpt>
      <trkpt lat="37.0478203241" lon="-2.1579379030">
        <ele>465.90</ele>
        <time>2018-11-09T10:23:34Z</time>
      </trkpt>
      <trkpt lat="37.0477997046" lon="-2.1580928843">
        <ele>465.90</ele>
        <time>2018-11-09T10:23:44Z</time>
      </trkpt>
      <trkpt lat="37.0477990340" lon="-2.1581026912">
        <ele>465.90</ele>
        <time>2018-11-09T10:23:50Z</time>
      </trkpt>
      <trkpt lat="37.0477994531" lon="-2.1581010986">
        <ele>465.42</ele>
        <time>2018-11-09T10:23:59Z</time>
      </trkpt>
      <trkpt lat="37.0478002913" lon="-2.1580930520">
        <ele>464.93</ele>
        <time>2018-11-09T10:24:10Z</time>
      </trkpt>
      <trkpt lat="37.0477964357" lon="-2.1581008472">
        <ele>464.93</ele>
        <time>2018-11-09T10:24:21Z</time>
      </trkpt>
      <trkpt lat="37.0478008781" lon="-2.1580964047">
        <ele>464.93</ele>
        <time>2018-11-09T10:24:36Z</time>
      </trkpt>
      <trkpt lat="37.0478009619" lon="-2.1581031103">
        <ele>463.97</ele>
        <time>2018-11-09T10:24:50Z</time>
      </trkpt>
      <trkpt lat="37.0477949269" lon="-2.1581140906">
        <ele>464.93</ele>
        <time>2018-11-09T10:25:06Z</time>
      </trkpt>
      <trkpt lat="37.0477971062" lon="-2.1581040323">
        <ele>465.90</ele>
        <time>2018-11-09T10:25:19Z</time>
      </trkpt>
      <trkpt lat="37.0477920771" lon="-2.1581046190">
        <ele>466.38</ele>
        <time>2018-11-09T10:25:33Z</time>
      </trkpt>
      <trkpt lat="37.0477926638" lon="-2.1581167728">
        <ele>466.38</ele>
        <time>2018-11-09T10:25:37Z</time>
      </trkpt>
      <trkpt lat="37.0477308054" lon="-2.1582945529">
        <ele>464.93</ele>
        <time>2018-11-09T10:25:43Z</time>
      </trkpt>
      <trkpt lat="37.0476794243" lon="-2.1584854089">
        <ele>463.49</ele>
        <time>2018-11-09T10:25:47Z</time>
      </trkpt>
      <trkpt lat="37.0476785023" lon="-2.1585361194">
        <ele>463.49</ele>
        <time>2018-11-09T10:25:48Z</time>
      </trkpt>
      <trkpt lat="37.0476847887" lon="-2.1585857403">
        <ele>463.01</ele>
        <time>2018-11-09T10:25:49Z</time>
      </trkpt>
      <trkpt lat="37.0476969425" lon="-2.1586313378">
        <ele>463.01</ele>
        <time>2018-11-09T10:25:50Z</time>
      </trkpt>
      <trkpt lat="37.0477081742" lon="-2.1586767677">
        <ele>463.01</ele>
        <time>2018-11-09T10:25:51Z</time>
      </trkpt>
      <trkpt lat="37.0477204118" lon="-2.1587209404">
        <ele>462.53</ele>
        <time>2018-11-09T10:25:52Z</time>
      </trkpt>
      <trkpt lat="37.0477348287" lon="-2.1587632690">
        <ele>462.53</ele>
        <time>2018-11-09T10:25:53Z</time>
      </trkpt>
      <trkpt lat="37.0477997884" lon="-2.1590634249">
        <ele>461.57</ele>
        <time>2018-11-09T10:26:01Z</time>
      </trkpt>
      <trkpt lat="37.0477390196" lon="-2.1594191529">
        <ele>461.09</ele>
        <time>2018-11-09T10:26:09Z</time>
      </trkpt>
      <trkpt lat="37.0475871395" lon="-2.1598103363">
        <ele>460.61</ele>
        <time>2018-11-09T10:26:18Z</time>
      </trkpt>
      <trkpt lat="37.0474445634" lon="-2.1601587720">
        <ele>459.65</ele>
        <time>2018-11-09T10:26:27Z</time>
      </trkpt>
      <trkpt lat="37.0472879894" lon="-2.1604405716">
        <ele>457.24</ele>
        <time>2018-11-09T10:26:33Z</time>
      </trkpt>
      <trkpt lat="37.0470916852" lon="-2.1608317550">
        <ele>453.88</ele>
        <time>2018-11-09T10:26:41Z</time>
      </trkpt>
      <trkpt lat="37.0469476841" lon="-2.1610790212">
        <ele>452.44</ele>
        <time>2018-11-09T10:26:46Z</time>
      </trkpt>
      <trkpt lat="37.0466900244" lon="-2.1614671033">
        <ele>449.55</ele>
        <time>2018-11-09T10:26:54Z</time>
      </trkpt>
      <trkpt lat="37.0465766173" lon="-2.1616802551">
        <ele>447.63</ele>
        <time>2018-11-09T10:26:59Z</time>
      </trkpt>
      <trkpt lat="37.0465476159" lon="-2.1617197338">
        <ele>447.15</ele>
        <time>2018-11-09T10:27:00Z</time>
      </trkpt>
      <trkpt lat="37.0465156808" lon="-2.1617495734">
        <ele>446.19</ele>
        <time>2018-11-09T10:27:01Z</time>
      </trkpt>
      <trkpt lat="37.0464765374" lon="-2.1617740486">
        <ele>445.71</ele>
        <time>2018-11-09T10:27:02Z</time>
      </trkpt>
      <trkpt lat="37.0464349631" lon="-2.1617945842">
        <ele>444.75</ele>
        <time>2018-11-09T10:27:03Z</time>
      </trkpt>
      <trkpt lat="37.0463873539" lon="-2.1618214902">
        <ele>443.79</ele>
        <time>2018-11-09T10:27:04Z</time>
      </trkpt>
      <trkpt lat="37.0463393256" lon="-2.1618582867">
        <ele>443.31</ele>
        <time>2018-11-09T10:27:05Z</time>
      </trkpt>
      <trkpt lat="37.0462848432" lon="-2.1619160380">
        <ele>442.34</ele>
        <time>2018-11-09T10:27:06Z</time>
      </trkpt>
      <trkpt lat="37.0462358091" lon="-2.1619892120">
        <ele>440.90</ele>
        <time>2018-11-09T10:27:07Z</time>
      </trkpt>
      <trkpt lat="37.0461895410" lon="-2.1620797366">
        <ele>439.46</ele>
        <time>2018-11-09T10:27:08Z</time>
      </trkpt>
      <trkpt lat="37.0461457036" lon="-2.1621814929">
        <ele>438.50</ele>
        <time>2018-11-09T10:27:09Z</time>
      </trkpt>
      <trkpt lat="37.0460137725" lon="-2.1624882706">
        <ele>440.42</ele>
        <time>2018-11-09T10:27:13Z</time>
      </trkpt>
      <trkpt lat="37.0459631458" lon="-2.1626190282">
        <ele>441.86</ele>
        <time>2018-11-09T10:27:18Z</time>
      </trkpt>
      <trkpt lat="37.0459208172" lon="-2.1628182661">
        <ele>442.82</ele>
        <time>2018-11-09T10:27:27Z</time>
      </trkpt>
      <trkpt lat="37.0459550153" lon="-2.1630333457">
        <ele>443.79</ele>
        <time>2018-11-09T10:27:35Z</time>
      </trkpt>
      <trkpt lat="37.0461020339" lon="-2.1632277220">
        <ele>445.23</ele>
        <time>2018-11-09T10:27:44Z</time>
      </trkpt>
      <trkpt lat="37.0462531596" lon="-2.1634897403">
        <ele>445.71</ele>
        <time>2018-11-09T10:27:53Z</time>
      </trkpt>
      <trkpt lat="37.0463659801" lon="-2.1637308039">
        <ele>446.19</ele>
        <time>2018-11-09T10:28:02Z</time>
      </trkpt>
      <trkpt lat="37.0465379767" lon="-2.1639929898">
        <ele>447.15</ele>
        <time>2018-11-09T10:28:12Z</time>
      </trkpt>
      <trkpt lat="37.0467125718" lon="-2.1643729415">
        <ele>447.63</ele>
        <time>2018-11-09T10:28:24Z</time>
      </trkpt>
      <trkpt lat="37.0468258113" lon="-2.1646076348">
        <ele>448.59</ele>
        <time>2018-11-09T10:28:32Z</time>
      </trkpt>
      <trkpt lat="37.0469398890" lon="-2.1646025218">
        <ele>449.55</ele>
        <time>2018-11-09T10:28:38Z</time>
      </trkpt>
      <trkpt lat="37.0471250452" lon="-2.1646081377">
        <ele>451.00</ele>
        <time>2018-11-09T10:28:48Z</time>
      </trkpt>
      <trkpt lat="37.0471639372" lon="-2.1646278352">
        <ele>451.00</ele>
        <time>2018-11-09T10:28:51Z</time>
      </trkpt>
      <trkpt lat="37.0473177452" lon="-2.1647188626">
        <ele>451.96</ele>
        <time>2018-11-09T10:29:02Z</time>
      </trkpt>
      <trkpt lat="37.0474682841" lon="-2.1647690702">
        <ele>452.92</ele>
        <time>2018-11-09T10:29:12Z</time>
      </trkpt>
      <trkpt lat="37.0475206710" lon="-2.1647992451">
        <ele>452.92</ele>
        <time>2018-11-09T10:29:16Z</time>
      </trkpt>
      <trkpt lat="37.0475324057" lon="-2.1648041066">
        <ele>453.40</ele>
        <time>2018-11-09T10:29:17Z</time>
      </trkpt>
      <trkpt lat="37.0475435536" lon="-2.1648099739">
        <ele>453.40</ele>
        <time>2018-11-09T10:29:18Z</time>
      </trkpt>
      <trkpt lat="37.0475561265" lon="-2.1648159251">
        <ele>453.40</ele>
        <time>2018-11-09T10:29:19Z</time>
      </trkpt>
      <trkpt lat="37.0475684479" lon="-2.1648238041">
        <ele>453.40</ele>
        <time>2018-11-09T10:29:20Z</time>
      </trkpt>
      <trkpt lat="37.0475825295" lon="-2.1648325212">
        <ele>453.40</ele>
        <time>2018-11-09T10:29:21Z</time>
      </trkpt>
      <trkpt lat="37.0475954376" lon="-2.1648401488">
        <ele>453.40</ele>
        <time>2018-11-09T10:29:22Z</time>
      </trkpt>
      <trkpt lat="37.0477832761" lon="-2.1649569087">
        <ele>454.36</ele>
        <time>2018-11-09T10:29:35Z</time>
      </trkpt>
      <trkpt lat="37.0479256008" lon="-2.1650700644">
        <ele>455.32</ele>
        <time>2018-11-09T10:29:45Z</time>
      </trkpt>
      <trkpt lat="37.0480455458" lon="-2.1652094554">
        <ele>455.80</ele>
        <time>2018-11-09T10:29:54Z</time>
      </trkpt>
      <trkpt lat="37.0481010340" lon="-2.1653796080">
        <ele>456.76</ele>
        <time>2018-11-09T10:30:03Z</time>
      </trkpt>
      <trkpt lat="37.0480944961" lon="-2.1654230263">
        <ele>456.76</ele>
        <time>2018-11-09T10:30:06Z</time>
      </trkpt>
      <trkpt lat="37.0480884612" lon="-2.1654355153">
        <ele>456.76</ele>
        <time>2018-11-09T10:30:07Z</time>
      </trkpt>
      <trkpt lat="37.0480846055" lon="-2.1654495131">
        <ele>456.76</ele>
        <time>2018-11-09T10:30:08Z</time>
      </trkpt>
      <trkpt lat="37.0480833482" lon="-2.1654642653">
        <ele>456.28</ele>
        <time>2018-11-09T10:30:09Z</time>
      </trkpt>
      <trkpt lat="37.0480826776" lon="-2.1654774249">
        <ele>456.28</ele>
        <time>2018-11-09T10:30:10Z</time>
      </trkpt>
      <trkpt lat="37.0480794087" lon="-2.1654907521">
        <ele>456.28</ele>
        <time>2018-11-09T10:30:11Z</time>
      </trkpt>
      <trkpt lat="37.0480726194" lon="-2.1655056719">
        <ele>456.28</ele>
        <time>2018-11-09T10:30:12Z</time>
      </trkpt>
      <trkpt lat="37.0479876269" lon="-2.1656823624">
        <ele>456.28</ele>
        <time>2018-11-09T10:30:20Z</time>
      </trkpt>
      <trkpt lat="37.0478644967" lon="-2.1659344062">
        <ele>454.84</ele>
        <time>2018-11-09T10:30:29Z</time>
      </trkpt>
      <trkpt lat="37.0477009658" lon="-2.1662244201">
        <ele>452.92</ele>
        <time>2018-11-09T10:30:38Z</time>
      </trkpt>
      <trkpt lat="37.0476096869" lon="-2.1664724406">
        <ele>451.48</ele>
        <time>2018-11-09T10:30:46Z</time>
      </trkpt>
      <trkpt lat="37.0474758279" lon="-2.1667750273">
        <ele>450.52</ele>
        <time>2018-11-09T10:30:53Z</time>
      </trkpt>
      <trkpt lat="37.0473437291" lon="-2.1669639554">
        <ele>451.48</ele>
        <time>2018-11-09T10:31:00Z</time>
      </trkpt>
      <trkpt lat="37.0472377818" lon="-2.1670940425">
        <ele>453.88</ele>
        <time>2018-11-09T10:31:07Z</time>
      </trkpt>
      <trkpt lat="37.0471817907" lon="-2.1671698149">
        <ele>454.84</ele>
        <time>2018-11-09T10:31:12Z</time>
      </trkpt>
      <trkpt lat="37.0471710619" lon="-2.1671815496">
        <ele>454.84</ele>
        <time>2018-11-09T10:31:13Z</time>
      </trkpt>
      <trkpt lat="37.0471599977" lon="-2.1671983972">
        <ele>455.32</ele>
        <time>2018-11-09T10:31:14Z</time>
      </trkpt>
      <trkpt lat="37.0471491013" lon="-2.1672144905">
        <ele>455.32</ele>
        <time>2018-11-09T10:31:15Z</time>
      </trkpt>
      <trkpt lat="37.0471372828" lon="-2.1672334336">
        <ele>455.80</ele>
        <time>2018-11-09T10:31:16Z</time>
      </trkpt>
      <trkpt lat="37.0471282303" lon="-2.1672496945">
        <ele>455.80</ele>
        <time>2018-11-09T10:31:17Z</time>
      </trkpt>
      <trkpt lat="37.0470465068" lon="-2.1674171649">
        <ele>457.72</ele>
        <time>2018-11-09T10:31:27Z</time>
      </trkpt>
      <trkpt lat="37.0470339339" lon="-2.1674930211">
        <ele>457.72</ele>
        <time>2018-11-09T10:31:35Z</time>
      </trkpt>
      <trkpt lat="37.0470249653" lon="-2.1675552148">
        <ele>458.21</ele>
        <time>2018-11-09T10:31:42Z</time>
      </trkpt>
      <trkpt lat="37.0470148232" lon="-2.1676914208">
        <ele>459.65</ele>
        <time>2018-11-09T10:31:52Z</time>
      </trkpt>
      <trkpt lat="37.0470073633" lon="-2.1678717155">
        <ele>460.13</ele>
        <time>2018-11-09T10:32:04Z</time>
      </trkpt>
      <trkpt lat="37.0470105484" lon="-2.1680371743">
        <ele>460.13</ele>
        <time>2018-11-09T10:32:14Z</time>
      </trkpt>
      <trkpt lat="37.0470341016" lon="-2.1682136133">
        <ele>461.09</ele>
        <time>2018-11-09T10:32:25Z</time>
      </trkpt>
      <trkpt lat="37.0470626839" lon="-2.1683804132">
        <ele>462.53</ele>
        <time>2018-11-09T10:32:36Z</time>
      </trkpt>
      <trkpt lat="37.0470761787" lon="-2.1685649827">
        <ele>464.45</ele>
        <time>2018-11-09T10:32:48Z</time>
      </trkpt>
      <trkpt lat="37.0470828004" lon="-2.1687218919">
        <ele>466.38</ele>
        <time>2018-11-09T10:32:59Z</time>
      </trkpt>
      <trkpt lat="37.0470819622" lon="-2.1688356344">
        <ele>466.86</ele>
        <time>2018-11-09T10:33:08Z</time>
      </trkpt>
      <trkpt lat="37.0470832195" lon="-2.1688314434">
        <ele>467.34</ele>
        <time>2018-11-09T10:33:22Z</time>
      </trkpt>
      <trkpt lat="37.0470857341" lon="-2.1688461956">
        <ele>466.86</ele>
        <time>2018-11-09T10:33:32Z</time>
      </trkpt>
      <trkpt lat="37.0470874943" lon="-2.1688527334">
        <ele>466.86</ele>
        <time>2018-11-09T10:33:44Z</time>
      </trkpt>
      <trkpt lat="37.0470745862" lon="-2.1688446030">
        <ele>468.78</ele>
        <time>2018-11-09T10:33:58Z</time>
      </trkpt>
      <trkpt lat="37.0470684674" lon="-2.1688351315">
        <ele>469.74</ele>
        <time>2018-11-09T10:34:17Z</time>
      </trkpt>
      <trkpt lat="37.0470743347" lon="-2.1688531525">
        <ele>469.26</ele>
        <time>2018-11-09T10:34:33Z</time>
      </trkpt>
      <trkpt lat="37.0470777713" lon="-2.1688435134">
        <ele>467.82</ele>
        <time>2018-11-09T10:34:51Z</time>
      </trkpt>
      <trkpt lat="37.0470817946" lon="-2.1688402444">
        <ele>466.86</ele>
        <time>2018-11-09T10:35:08Z</time>
      </trkpt>
      <trkpt lat="37.0470706467" lon="-2.1688422561">
        <ele>466.38</ele>
        <time>2018-11-09T10:35:22Z</time>
      </trkpt>
      <trkpt lat="37.0470788609" lon="-2.1688553318">
        <ele>466.86</ele>
        <time>2018-11-09T10:35:33Z</time>
      </trkpt>
      <trkpt lat="37.0470708143" lon="-2.1689215489">
        <ele>467.34</ele>
        <time>2018-11-09T10:35:40Z</time>
      </trkpt>
      <trkpt lat="37.0470379572" lon="-2.1691380534">
        <ele>467.82</ele>
        <time>2018-11-09T10:35:49Z</time>
      </trkpt>
      <trkpt lat="37.0469800383" lon="-2.1694097109">
        <ele>468.78</ele>
        <time>2018-11-09T10:35:59Z</time>
      </trkpt>
      <trkpt lat="37.0469144080" lon="-2.1696544625">
        <ele>470.22</ele>
        <time>2018-11-09T10:36:08Z</time>
      </trkpt>
      <trkpt lat="37.0467934571" lon="-2.1698377747">
        <ele>472.14</ele>
        <time>2018-11-09T10:36:16Z</time>
      </trkpt>
      <trkpt lat="37.0466473605" lon="-2.1699986234">
        <ele>472.63</ele>
        <time>2018-11-09T10:36:23Z</time>
      </trkpt>
      <trkpt lat="37.0464848354" lon="-2.1701926645">
        <ele>473.11</ele>
        <time>2018-11-09T10:36:30Z</time>
      </trkpt>
      <trkpt lat="37.0462688338" lon="-2.1704495698">
        <ele>473.11</ele>
        <time>2018-11-09T10:36:39Z</time>
      </trkpt>
      <trkpt lat="37.0460677519" lon="-2.1707229037">
        <ele>472.14</ele>
        <time>2018-11-09T10:36:48Z</time>
      </trkpt>
      <trkpt lat="37.0458501577" lon="-2.1710622869">
        <ele>470.70</ele>
        <time>2018-11-09T10:36:57Z</time>
      </trkpt>
      <trkpt lat="37.0458276104" lon="-2.1711099800">
        <ele>470.70</ele>
        <time>2018-11-09T10:36:58Z</time>
      </trkpt>
      <trkpt lat="37.0457021333" lon="-2.1715046838">
        <ele>469.26</ele>
        <time>2018-11-09T10:37:07Z</time>
      </trkpt>
      <trkpt lat="37.0456089266" lon="-2.1718620881">
        <ele>467.34</ele>
        <time>2018-11-09T10:37:17Z</time>
      </trkpt>
      <trkpt lat="37.0454951003" lon="-2.1722230967">
        <ele>466.38</ele>
        <time>2018-11-09T10:37:27Z</time>
      </trkpt>
      <trkpt lat="37.0453374367" lon="-2.1725975163">
        <ele>464.93</ele>
        <time>2018-11-09T10:37:37Z</time>
      </trkpt>
      <trkpt lat="37.0452433918" lon="-2.1730524022">
        <ele>462.53</ele>
        <time>2018-11-09T10:37:47Z</time>
      </trkpt>
      <trkpt lat="37.0452355966" lon="-2.1734124050">
        <ele>460.13</ele>
        <time>2018-11-09T10:37:54Z</time>
      </trkpt>
      <trkpt lat="37.0452428889" lon="-2.1738541313">
        <ele>456.28</ele>
        <time>2018-11-09T10:37:59Z</time>
      </trkpt>
      <trkpt lat="37.0452304836" lon="-2.1739413030">
        <ele>456.28</ele>
        <time>2018-11-09T10:38:00Z</time>
      </trkpt>
      <trkpt lat="37.0451485086" lon="-2.1742820274">
        <ele>456.76</ele>
        <time>2018-11-09T10:38:05Z</time>
      </trkpt>
      <trkpt lat="37.0450790226" lon="-2.1744501684">
        <ele>457.72</ele>
        <time>2018-11-09T10:38:10Z</time>
      </trkpt>
      <trkpt lat="37.0449919347" lon="-2.1746985242">
        <ele>459.17</ele>
        <time>2018-11-09T10:38:18Z</time>
      </trkpt>
      <trkpt lat="37.0449745841" lon="-2.1749723610">
        <ele>461.09</ele>
        <time>2018-11-09T10:38:28Z</time>
      </trkpt>
      <trkpt lat="37.0450224448" lon="-2.1752165258">
        <ele>461.57</ele>
        <time>2018-11-09T10:38:38Z</time>
      </trkpt>
      <trkpt lat="37.0450080279" lon="-2.1754033584">
        <ele>461.57</ele>
        <time>2018-11-09T10:38:47Z</time>
      </trkpt>
      <trkpt lat="37.0449539647" lon="-2.1756959707">
        <ele>462.05</ele>
        <time>2018-11-09T10:38:57Z</time>
      </trkpt>
      <trkpt lat="37.0448757615" lon="-2.1760291513">
        <ele>463.01</ele>
        <time>2018-11-09T10:39:08Z</time>
      </trkpt>
      <trkpt lat="37.0448630210" lon="-2.1760795265">
        <ele>463.01</ele>
        <time>2018-11-09T10:39:11Z</time>
      </trkpt>
      <trkpt lat="37.0448001567" lon="-2.1762950253">
        <ele>463.49</ele>
        <time>2018-11-09T10:39:19Z</time>
      </trkpt>
      <trkpt lat="37.0447144937" lon="-2.1766354982">
        <ele>463.97</ele>
        <time>2018-11-09T10:39:29Z</time>
      </trkpt>
      <trkpt lat="37.0446286630" lon="-2.1769074909">
        <ele>463.97</ele>
        <time>2018-11-09T10:39:37Z</time>
      </trkpt>
      <trkpt lat="37.0445518848" lon="-2.1771805733">
        <ele>463.97</ele>
        <time>2018-11-09T10:39:45Z</time>
      </trkpt>
      <trkpt lat="37.0444808062" lon="-2.1775260754">
        <ele>463.97</ele>
        <time>2018-11-09T10:39:54Z</time>
      </trkpt>
      <trkpt lat="37.0443514735" lon="-2.1778004989">
        <ele>463.49</ele>
        <time>2018-11-09T10:40:02Z</time>
      </trkpt>
      <trkpt lat="37.0442034490" lon="-2.1780864056">
        <ele>464.45</ele>
        <time>2018-11-09T10:40:11Z</time>
      </trkpt>
      <trkpt lat="37.0440901257" lon="-2.1783356834">
        <ele>464.93</ele>
        <time>2018-11-09T10:40:20Z</time>
      </trkpt>
      <trkpt lat="37.0439883694" lon="-2.1786219254">
        <ele>464.93</ele>
        <time>2018-11-09T10:40:30Z</time>
      </trkpt>
      <trkpt lat="37.0439195540" lon="-2.1788401902">
        <ele>465.42</ele>
        <time>2018-11-09T10:40:39Z</time>
      </trkpt>
      <trkpt lat="37.0438799076" lon="-2.1789667569">
        <ele>465.42</ele>
        <time>2018-11-09T10:40:46Z</time>
      </trkpt>
      <trkpt lat="37.0438722800" lon="-2.1789837722">
        <ele>465.42</ele>
        <time>2018-11-09T10:40:47Z</time>
      </trkpt>
      <trkpt lat="37.0438643172" lon="-2.1789985243">
        <ele>465.42</ele>
        <time>2018-11-09T10:40:48Z</time>
      </trkpt>
      <trkpt lat="37.0438556839" lon="-2.1790109295">
        <ele>465.42</ele>
        <time>2018-11-09T10:40:49Z</time>
      </trkpt>
      <trkpt lat="37.0438448712" lon="-2.1790216584">
        <ele>466.38</ele>
        <time>2018-11-09T10:40:55Z</time>
      </trkpt>
      <trkpt lat="37.0438448712" lon="-2.1790286992">
        <ele>466.38</ele>
        <time>2018-11-09T10:41:08Z</time>
      </trkpt>
      <trkpt lat="37.0438431948" lon="-2.1790192276">
        <ele>466.38</ele>
        <time>2018-11-09T10:41:23Z</time>
      </trkpt>
      <trkpt lat="37.0438395068" lon="-2.1790197305">
        <ele>466.38</ele>
        <time>2018-11-09T10:41:35Z</time>
      </trkpt>
      <trkpt lat="37.0438355673" lon="-2.1790310461">
        <ele>466.38</ele>
        <time>2018-11-09T10:41:36Z</time>
      </trkpt>
      <trkpt lat="37.0438298676" lon="-2.1790481452">
        <ele>465.90</ele>
        <time>2018-11-09T10:41:37Z</time>
      </trkpt>
      <trkpt lat="37.0438243356" lon="-2.1790684294">
        <ele>465.90</ele>
        <time>2018-11-09T10:41:38Z</time>
      </trkpt>
      <trkpt lat="37.0438202284" lon="-2.1790922340">
        <ele>465.90</ele>
        <time>2018-11-09T10:41:39Z</time>
      </trkpt>
      <trkpt lat="37.0438151155" lon="-2.1791157871">
        <ele>465.90</ele>
        <time>2018-11-09T10:41:40Z</time>
      </trkpt>
      <trkpt lat="37.0438089129" lon="-2.1791457105">
        <ele>465.90</ele>
        <time>2018-11-09T10:41:41Z</time>
      </trkpt>
      <trkpt lat="37.0437661652" lon="-2.1793871094">
        <ele>466.38</ele>
        <time>2018-11-09T10:41:49Z</time>
      </trkpt>
      <trkpt lat="37.0437011216" lon="-2.1797117405">
        <ele>466.86</ele>
        <time>2018-11-09T10:41:59Z</time>
      </trkpt>
      <trkpt lat="37.0436787419" lon="-2.1799714118">
        <ele>467.82</ele>
        <time>2018-11-09T10:42:09Z</time>
      </trkpt>
      <trkpt lat="37.0436703600" lon="-2.1801654529">
        <ele>467.82</ele>
        <time>2018-11-09T10:42:18Z</time>
      </trkpt>
      <trkpt lat="37.0436647441" lon="-2.1803233679">
        <ele>468.78</ele>
        <time>2018-11-09T10:42:26Z</time>
      </trkpt>
      <trkpt lat="37.0436339825" lon="-2.1805082727">
        <ele>469.26</ele>
        <time>2018-11-09T10:42:34Z</time>
      </trkpt>
      <trkpt lat="37.0435899775" lon="-2.1807593945">
        <ele>470.70</ele>
        <time>2018-11-09T10:42:44Z</time>
      </trkpt>
      <trkpt lat="37.0435219165" lon="-2.1810349915">
        <ele>471.66</ele>
        <time>2018-11-09T10:42:55Z</time>
      </trkpt>
      <trkpt lat="37.0434259437" lon="-2.1812750492">
        <ele>472.14</ele>
        <time>2018-11-09T10:43:04Z</time>
      </trkpt>
      <trkpt lat="37.0433057472" lon="-2.1815635543">
        <ele>473.11</ele>
        <time>2018-11-09T10:43:14Z</time>
      </trkpt>
      <trkpt lat="37.0432163123" lon="-2.1818136703">
        <ele>473.11</ele>
        <time>2018-11-09T10:43:23Z</time>
      </trkpt>
      <trkpt lat="37.0430793520" lon="-2.1820702404">
        <ele>473.59</ele>
        <time>2018-11-09T10:43:32Z</time>
      </trkpt>
      <trkpt lat="37.0429411344" lon="-2.1823036764">
        <ele>472.63</ele>
        <time>2018-11-09T10:43:40Z</time>
      </trkpt>
      <trkpt lat="37.0429222751" lon="-2.1823438257">
        <ele>472.14</ele>
        <time>2018-11-09T10:43:41Z</time>
      </trkpt>
      <trkpt lat="37.0427906793" lon="-2.1827045828">
        <ele>470.70</ele>
        <time>2018-11-09T10:43:48Z</time>
      </trkpt>
      <trkpt lat="37.0427689701" lon="-2.1827473305">
        <ele>470.70</ele>
        <time>2018-11-09T10:43:49Z</time>
      </trkpt>
      <trkpt lat="37.0427182596" lon="-2.1828433871">
        <ele>470.22</ele>
        <time>2018-11-09T10:43:51Z</time>
      </trkpt>
      <trkpt lat="37.0426962152" lon="-2.1828985400">
        <ele>469.74</ele>
        <time>2018-11-09T10:43:52Z</time>
      </trkpt>
      <trkpt lat="37.0426769368" lon="-2.1829562914">
        <ele>469.26</ele>
        <time>2018-11-09T10:43:53Z</time>
      </trkpt>
      <trkpt lat="37.0426620170" lon="-2.1830139589">
        <ele>469.26</ele>
        <time>2018-11-09T10:43:54Z</time>
      </trkpt>
      <trkpt lat="37.0426518749" lon="-2.1830766555">
        <ele>468.78</ele>
        <time>2018-11-09T10:43:55Z</time>
      </trkpt>
      <trkpt lat="37.0426459238" lon="-2.1831364185">
        <ele>468.30</ele>
        <time>2018-11-09T10:43:56Z</time>
      </trkpt>
      <trkpt lat="37.0426605921" lon="-2.1835498977">
        <ele>466.86</ele>
        <time>2018-11-09T10:44:04Z</time>
      </trkpt>
      <trkpt lat="37.0427083690" lon="-2.1837963257">
        <ele>465.90</ele>
        <time>2018-11-09T10:44:12Z</time>
      </trkpt>
      <trkpt lat="37.0427941997" lon="-2.1841061208">
        <ele>464.45</ele>
        <time>2018-11-09T10:44:20Z</time>
      </trkpt>
      <trkpt lat="37.0428078622" lon="-2.1841679793">
        <ele>463.97</ele>
        <time>2018-11-09T10:44:21Z</time>
      </trkpt>
      <trkpt lat="37.0428171661" lon="-2.1842363756">
        <ele>463.49</ele>
        <time>2018-11-09T10:44:22Z</time>
      </trkpt>
      <trkpt lat="37.0428190101" lon="-2.1843086276">
        <ele>463.01</ele>
        <time>2018-11-09T10:44:23Z</time>
      </trkpt>
      <trkpt lat="37.0428152382" lon="-2.1843776107">
        <ele>462.53</ele>
        <time>2018-11-09T10:44:24Z</time>
      </trkpt>
      <trkpt lat="37.0428079460" lon="-2.1844466776">
        <ele>461.57</ele>
        <time>2018-11-09T10:44:25Z</time>
      </trkpt>
      <trkpt lat="37.0427553076" lon="-2.1846701391">
        <ele>459.65</ele>
        <time>2018-11-09T10:44:30Z</time>
      </trkpt>
      <trkpt lat="37.0427076984" lon="-2.1848036628">
        <ele>460.61</ele>
        <time>2018-11-09T10:44:37Z</time>
      </trkpt>
      <trkpt lat="37.0427014120" lon="-2.1848183312">
        <ele>461.09</ele>
        <time>2018-11-09T10:44:46Z</time>
      </trkpt>
      <trkpt lat="37.0426660404" lon="-2.1848955285">
        <ele>461.57</ele>
        <time>2018-11-09T10:44:57Z</time>
      </trkpt>
      <trkpt lat="37.0426393021" lon="-2.1849366836">
        <ele>462.05</ele>
        <time>2018-11-09T10:45:03Z</time>
      </trkpt>
      <trkpt lat="37.0425849874" lon="-2.1850493364">
        <ele>464.45</ele>
        <time>2018-11-09T10:45:14Z</time>
      </trkpt>
      <trkpt lat="37.0425559022" lon="-2.1851441357">
        <ele>465.90</ele>
        <time>2018-11-09T10:45:23Z</time>
      </trkpt>
      <trkpt lat="37.0425267331" lon="-2.1852603927">
        <ele>467.82</ele>
        <time>2018-11-09T10:45:34Z</time>
      </trkpt>
      <trkpt lat="37.0425144956" lon="-2.1853126120">
        <ele>468.78</ele>
        <time>2018-11-09T10:45:42Z</time>
      </trkpt>
      <trkpt lat="37.0424905233" lon="-2.1854175534">
        <ele>471.18</ele>
        <time>2018-11-09T10:45:53Z</time>
      </trkpt>
      <trkpt lat="37.0424875896" lon="-2.1854534280">
        <ele>471.66</ele>
        <time>2018-11-09T10:46:02Z</time>
      </trkpt>
      <trkpt lat="37.0424618572" lon="-2.1855812520">
        <ele>474.07</ele>
        <time>2018-11-09T10:46:12Z</time>
      </trkpt>
      <trkpt lat="37.0424386393" lon="-2.1857135184">
        <ele>475.51</ele>
        <time>2018-11-09T10:46:23Z</time>
      </trkpt>
      <trkpt lat="37.0424159244" lon="-2.1858085692">
        <ele>476.47</ele>
        <time>2018-11-09T10:46:32Z</time>
      </trkpt>
      <trkpt lat="37.0424247254" lon="-2.1858035401">
        <ele>476.47</ele>
        <time>2018-11-09T10:46:45Z</time>
      </trkpt>
      <trkpt lat="37.0424196962" lon="-2.1858107485">
        <ele>476.47</ele>
        <time>2018-11-09T10:46:56Z</time>
      </trkpt>
      <trkpt lat="37.0424038544" lon="-2.1858731098">
        <ele>476.47</ele>
        <time>2018-11-09T10:47:05Z</time>
      </trkpt>
      <trkpt lat="37.0423990767" lon="-2.1858970821">
        <ele>475.99</ele>
        <time>2018-11-09T10:47:14Z</time>
      </trkpt>
      <trkpt lat="37.0423895214" lon="-2.1858855151">
        <ele>475.03</ele>
        <time>2018-11-09T10:47:34Z</time>
      </trkpt>
      <trkpt lat="37.0423937123" lon="-2.1858816594">
        <ele>474.55</ele>
        <time>2018-11-09T10:47:55Z</time>
      </trkpt>
      <trkpt lat="37.0423901919" lon="-2.1858989261">
        <ele>475.99</ele>
        <time>2018-11-09T10:48:17Z</time>
      </trkpt>
      <trkpt lat="37.0423902757" lon="-2.1858933102">
        <ele>474.55</ele>
        <time>2018-11-09T10:48:44Z</time>
      </trkpt>
      <trkpt lat="37.0424071234" lon="-2.1859101579">
        <ele>475.51</ele>
        <time>2018-11-09T10:48:54Z</time>
      </trkpt>
      <trkpt lat="37.0424031001" lon="-2.1859057993">
        <ele>476.47</ele>
        <time>2018-11-09T10:49:02Z</time>
      </trkpt>
      <trkpt lat="37.0423899405" lon="-2.1859671548">
        <ele>476.47</ele>
        <time>2018-11-09T10:49:10Z</time>
      </trkpt>
      <trkpt lat="37.0423536468" lon="-2.1861394029">
        <ele>477.91</ele>
        <time>2018-11-09T10:49:18Z</time>
      </trkpt>
      <trkpt lat="37.0422852505" lon="-2.1864015888">
        <ele>478.39</ele>
        <time>2018-11-09T10:49:28Z</time>
      </trkpt>
      <trkpt lat="37.0422459394" lon="-2.1865982283">
        <ele>479.35</ele>
        <time>2018-11-09T10:49:35Z</time>
      </trkpt>
      <trkpt lat="37.0421903674" lon="-2.1868317481">
        <ele>480.32</ele>
        <time>2018-11-09T10:49:43Z</time>
      </trkpt>
      <trkpt lat="37.0421503019" lon="-2.1869763359">
        <ele>481.76</ele>
        <time>2018-11-09T10:49:51Z</time>
      </trkpt>
      <trkpt lat="37.0421081409" lon="-2.1870843787">
        <ele>482.24</ele>
        <time>2018-11-09T10:49:58Z</time>
      </trkpt>
      <trkpt lat="37.0420235675" lon="-2.1873477381">
        <ele>482.24</ele>
        <time>2018-11-09T10:50:09Z</time>
      </trkpt>
      <trkpt lat="37.0419234037" lon="-2.1876148693">
        <ele>483.20</ele>
        <time>2018-11-09T10:50:21Z</time>
      </trkpt>
      <trkpt lat="37.0418659039" lon="-2.1877622232">
        <ele>483.68</ele>
        <time>2018-11-09T10:50:28Z</time>
      </trkpt>
      <trkpt lat="37.0418584440" lon="-2.1877835132">
        <ele>484.16</ele>
        <time>2018-11-09T10:50:29Z</time>
      </trkpt>
      <trkpt lat="37.0417768881" lon="-2.1880031191">
        <ele>485.60</ele>
        <time>2018-11-09T10:50:40Z</time>
      </trkpt>
      <trkpt lat="37.0417560171" lon="-2.1880705096">
        <ele>486.56</ele>
        <time>2018-11-09T10:50:47Z</time>
      </trkpt>
      <trkpt lat="37.0417457074" lon="-2.1881041210">
        <ele>486.56</ele>
        <time>2018-11-09T10:50:56Z</time>
      </trkpt>
      <trkpt lat="37.0417279378" lon="-2.1882415004">
        <ele>488.01</ele>
        <time>2018-11-09T10:51:07Z</time>
      </trkpt>
      <trkpt lat="37.0417157840" lon="-2.1883279178">
        <ele>489.45</ele>
        <time>2018-11-09T10:51:15Z</time>
      </trkpt>
      <trkpt lat="37.0417031273" lon="-2.1883584280">
        <ele>488.97</ele>
        <time>2018-11-09T10:51:21Z</time>
      </trkpt>
      <trkpt lat="37.0416347310" lon="-2.1884357091">
        <ele>489.45</ele>
        <time>2018-11-09T10:51:30Z</time>
      </trkpt>
      <trkpt lat="37.0416257624" lon="-2.1884502098">
        <ele>489.93</ele>
        <time>2018-11-09T10:51:32Z</time>
      </trkpt>
      <trkpt lat="37.0415965933" lon="-2.1884793788">
        <ele>490.41</ele>
        <time>2018-11-09T10:51:39Z</time>
      </trkpt>
      <trkpt lat="37.0415937435" lon="-2.1884562448">
        <ele>491.37</ele>
        <time>2018-11-09T10:51:47Z</time>
      </trkpt>
      <trkpt lat="37.0415902231" lon="-2.1884396486">
        <ele>490.89</ele>
        <time>2018-11-09T10:51:51Z</time>
      </trkpt>
      <trkpt lat="37.0415868703" lon="-2.1884209570">
        <ele>490.41</ele>
        <time>2018-11-09T10:51:52Z</time>
      </trkpt>
      <trkpt lat="37.0415384229" lon="-2.1882114932">
        <ele>490.89</ele>
        <time>2018-11-09T10:51:59Z</time>
      </trkpt>
      <trkpt lat="37.0414624829" lon="-2.1879620478">
        <ele>490.89</ele>
        <time>2018-11-09T10:52:06Z</time>
      </trkpt>
      <trkpt lat="37.0414490718" lon="-2.1879556775">
        <ele>490.89</ele>
        <time>2018-11-09T10:52:07Z</time>
      </trkpt>
      <trkpt lat="37.0414349064" lon="-2.1879681665">
        <ele>490.41</ele>
        <time>2018-11-09T10:52:12Z</time>
      </trkpt>
      <trkpt lat="37.0414302126" lon="-2.1879727766">
        <ele>489.45</ele>
        <time>2018-11-09T10:52:23Z</time>
      </trkpt>
      <trkpt lat="37.0414289553" lon="-2.1879633889">
        <ele>489.93</ele>
        <time>2018-11-09T10:52:54Z</time>
      </trkpt>
      <trkpt lat="37.0414286200" lon="-2.1879728604">
        <ele>490.41</ele>
        <time>2018-11-09T10:53:17Z</time>
      </trkpt>
      <trkpt lat="37.0414368343" lon="-2.1879609581">
        <ele>488.49</ele>
        <time>2018-11-09T10:53:40Z</time>
      </trkpt>
      <trkpt lat="37.0414334815" lon="-2.1879767999">
        <ele>488.97</ele>
        <time>2018-11-09T10:54:10Z</time>
      </trkpt>
      <trkpt lat="37.0414302126" lon="-2.1879810747">
        <ele>488.49</ele>
        <time>2018-11-09T10:54:39Z</time>
      </trkpt>
      <trkpt lat="37.0414355770" lon="-2.1879907977">
        <ele>490.41</ele>
        <time>2018-11-09T10:55:07Z</time>
      </trkpt>
      <trkpt lat="37.0414402708" lon="-2.1879778057">
        <ele>492.33</ele>
        <time>2018-11-09T10:55:38Z</time>
      </trkpt>
      <trkpt lat="37.0414375048" lon="-2.1879833378">
        <ele>492.81</ele>
        <time>2018-11-09T10:55:57Z</time>
      </trkpt>
      <trkpt lat="37.0414316375" lon="-2.1879850980">
        <ele>493.77</ele>
        <time>2018-11-09T10:56:21Z</time>
      </trkpt>
      <trkpt lat="37.0414324757" lon="-2.1879835892">
        <ele>493.77</ele>
        <time>2018-11-09T10:56:44Z</time>
      </trkpt>
      <trkpt lat="37.0414323919" lon="-2.1879887022">
        <ele>493.77</ele>
        <time>2018-11-09T10:57:02Z</time>
      </trkpt>
      <trkpt lat="37.0414629858" lon="-2.1879793983">
        <ele>494.26</ele>
        <time>2018-11-09T10:57:07Z</time>
      </trkpt>
      <trkpt lat="37.0414857846" lon="-2.1879791468">
        <ele>493.77</ele>
        <time>2018-11-09T10:57:17Z</time>
      </trkpt>
      <trkpt lat="37.0414969325" lon="-2.1880047955">
        <ele>493.77</ele>
        <time>2018-11-09T10:57:20Z</time>
      </trkpt>
      <trkpt lat="37.0414992794" lon="-2.1880233195">
        <ele>493.29</ele>
        <time>2018-11-09T10:57:21Z</time>
      </trkpt>
      <trkpt lat="37.0415018778" lon="-2.1880397480">
        <ele>493.29</ele>
        <time>2018-11-09T10:57:22Z</time>
      </trkpt>
      <trkpt lat="37.0415058173" lon="-2.1880543325">
        <ele>493.29</ele>
        <time>2018-11-09T10:57:23Z</time>
      </trkpt>
      <trkpt lat="37.0415112656" lon="-2.1880749520">
        <ele>492.81</ele>
        <time>2018-11-09T10:57:24Z</time>
      </trkpt>
      <trkpt lat="37.0415682625" lon="-2.1882766206">
        <ele>492.33</ele>
        <time>2018-11-09T10:57:33Z</time>
      </trkpt>
      <trkpt lat="37.0416040532" lon="-2.1884366311">
        <ele>491.85</ele>
        <time>2018-11-09T10:57:40Z</time>
      </trkpt>
      <trkpt lat="37.0416716114" lon="-2.1886700671">
        <ele>492.33</ele>
        <time>2018-11-09T10:57:49Z</time>
      </trkpt>
      <trkpt lat="37.0417307038" lon="-2.1889353544">
        <ele>492.81</ele>
        <time>2018-11-09T10:57:58Z</time>
      </trkpt>
      <trkpt lat="37.0417977590" lon="-2.1891692933">
        <ele>493.29</ele>
        <time>2018-11-09T10:58:07Z</time>
      </trkpt>
      <trkpt lat="37.0418725256" lon="-2.1894247737">
        <ele>493.77</ele>
        <time>2018-11-09T10:58:17Z</time>
      </trkpt>
      <trkpt lat="37.0419478789" lon="-2.1897064056">
        <ele>494.26</ele>
        <time>2018-11-09T10:58:28Z</time>
      </trkpt>
      <trkpt lat="37.0420129225" lon="-2.1899593715">
        <ele>494.74</ele>
        <time>2018-11-09T10:58:38Z</time>
      </trkpt>
      <trkpt lat="37.0420958195" lon="-2.1902639698">
        <ele>494.26</ele>
        <time>2018-11-09T10:58:50Z</time>
      </trkpt>
      <trkpt lat="37.0421551634" lon="-2.1905180253">
        <ele>495.22</ele>
        <time>2018-11-09T10:59:01Z</time>
      </trkpt>
      <trkpt lat="37.0421815664" lon="-2.1907246392">
        <ele>496.18</ele>
        <time>2018-11-09T10:59:10Z</time>
      </trkpt>
      <trkpt lat="37.0421994198" lon="-2.1909299958">
        <ele>496.66</ele>
        <time>2018-11-09T10:59:18Z</time>
      </trkpt>
      <trkpt lat="37.0421943907" lon="-2.1911478415">
        <ele>497.14</ele>
        <time>2018-11-09T10:59:27Z</time>
      </trkpt>
      <trkpt lat="37.0421789680" lon="-2.1913260408">
        <ele>497.14</ele>
        <time>2018-11-09T10:59:34Z</time>
      </trkpt>
      <trkpt lat="37.0421643835" lon="-2.1914970316">
        <ele>497.62</ele>
        <time>2018-11-09T10:59:41Z</time>
      </trkpt>
      <trkpt lat="37.0421433449" lon="-2.1917526796">
        <ele>498.58</ele>
        <time>2018-11-09T10:59:51Z</time>
      </trkpt>
      <trkpt lat="37.0421222225" lon="-2.1920209005">
        <ele>500.02</ele>
        <time>2018-11-09T11:00:01Z</time>
      </trkpt>
      <trkpt lat="37.0420992561" lon="-2.1922597848">
        <ele>500.02</ele>
        <time>2018-11-09T11:00:10Z</time>
      </trkpt>
      <trkpt lat="37.0420710929" lon="-2.1925182827">
        <ele>501.46</ele>
        <time>2018-11-09T11:00:20Z</time>
      </trkpt>
      <trkpt lat="37.0420468692" lon="-2.1927846596">
        <ele>501.46</ele>
        <time>2018-11-09T11:00:31Z</time>
      </trkpt>
      <trkpt lat="37.0420177002" lon="-2.1930880006">
        <ele>502.43</ele>
        <time>2018-11-09T11:00:43Z</time>
      </trkpt>
      <trkpt lat="37.0419920515" lon="-2.1933686268">
        <ele>503.39</ele>
        <time>2018-11-09T11:00:54Z</time>
      </trkpt>
      <trkpt lat="37.0419633854" lon="-2.1936951019">
        <ele>504.35</ele>
        <time>2018-11-09T11:01:06Z</time>
      </trkpt>
      <trkpt lat="37.0419529919" lon="-2.1938998718">
        <ele>504.35</ele>
        <time>2018-11-09T11:01:14Z</time>
      </trkpt>
      <trkpt lat="37.0419486333" lon="-2.1941830963">
        <ele>504.35</ele>
        <time>2018-11-09T11:01:24Z</time>
      </trkpt>
      <trkpt lat="37.0419579372" lon="-2.1944958251">
        <ele>505.79</ele>
        <time>2018-11-09T11:01:36Z</time>
      </trkpt>
      <trkpt lat="37.0419761259" lon="-2.1947687399">
        <ele>505.79</ele>
        <time>2018-11-09T11:01:46Z</time>
      </trkpt>
      <trkpt lat="37.0420140121" lon="-2.1949804667">
        <ele>505.79</ele>
        <time>2018-11-09T11:01:54Z</time>
      </trkpt>
      <trkpt lat="37.0420600288" lon="-2.1952182613">
        <ele>505.79</ele>
        <time>2018-11-09T11:02:03Z</time>
      </trkpt>
      <trkpt lat="37.0420963224" lon="-2.1955572255">
        <ele>506.27</ele>
        <time>2018-11-09T11:02:15Z</time>
      </trkpt>
      <trkpt lat="37.0421394892" lon="-2.1958542801">
        <ele>506.27</ele>
        <time>2018-11-09T11:02:26Z</time>
      </trkpt>
      <trkpt lat="37.0421639644" lon="-2.1960934997">
        <ele>507.23</ele>
        <time>2018-11-09T11:02:35Z</time>
      </trkpt>
      <trkpt lat="37.0421901159" lon="-2.1963326354">
        <ele>507.71</ele>
        <time>2018-11-09T11:02:44Z</time>
      </trkpt>
      <trkpt lat="37.0422248170" lon="-2.1966079809">
        <ele>507.71</ele>
        <time>2018-11-09T11:02:52Z</time>
      </trkpt>
      <trkpt lat="37.0422350429" lon="-2.1967341285">
        <ele>508.19</ele>
        <time>2018-11-09T11:02:57Z</time>
      </trkpt>
      <trkpt lat="37.0422834903" lon="-2.1970466059">
        <ele>509.64</ele>
        <time>2018-11-09T11:03:07Z</time>
      </trkpt>
      <trkpt lat="37.0423378050" lon="-2.1973531321">
        <ele>510.60</ele>
        <time>2018-11-09T11:03:17Z</time>
      </trkpt>
      <trkpt lat="37.0424465183" lon="-2.1976056788">
        <ele>512.52</ele>
        <time>2018-11-09T11:03:26Z</time>
      </trkpt>
      <trkpt lat="37.0425957162" lon="-2.1977921762">
        <ele>513.48</ele>
        <time>2018-11-09T11:03:34Z</time>
      </trkpt>
      <trkpt lat="37.0427885000" lon="-2.1979877260">
        <ele>514.44</ele>
        <time>2018-11-09T11:03:43Z</time>
      </trkpt>
      <trkpt lat="37.0429684594" lon="-2.1982428711">
        <ele>515.88</ele>
        <time>2018-11-09T11:03:53Z</time>
      </trkpt>
      <trkpt lat="37.0430334192" lon="-2.1984290332">
        <ele>515.88</ele>
        <time>2018-11-09T11:04:01Z</time>
      </trkpt>
      <trkpt lat="37.0430824533" lon="-2.1986149438">
        <ele>515.40</ele>
        <time>2018-11-09T11:04:09Z</time>
      </trkpt>
      <trkpt lat="37.0431329124" lon="-2.1989963204">
        <ele>516.37</ele>
        <time>2018-11-09T11:04:22Z</time>
      </trkpt>
      <trkpt lat="37.0431738999" lon="-2.1992825624">
        <ele>516.37</ele>
        <time>2018-11-09T11:04:31Z</time>
      </trkpt>
      <trkpt lat="37.0432011411" lon="-2.1995160822">
        <ele>516.85</ele>
        <time>2018-11-09T11:04:39Z</time>
      </trkpt>
      <trkpt lat="37.0432210900" lon="-2.1998110414">
        <ele>517.33</ele>
        <time>2018-11-09T11:04:49Z</time>
      </trkpt>
      <trkpt lat="37.0432223473" lon="-2.2000453994">
        <ele>518.29</ele>
        <time>2018-11-09T11:04:58Z</time>
      </trkpt>
      <trkpt lat="37.0432379376" lon="-2.2002256941">
        <ele>518.77</ele>
        <time>2018-11-09T11:05:06Z</time>
      </trkpt>
      <trkpt lat="37.0432779193" lon="-2.2005118523">
        <ele>520.21</ele>
        <time>2018-11-09T11:05:17Z</time>
      </trkpt>
      <trkpt lat="37.0433236845" lon="-2.2007302009">
        <ele>520.21</ele>
        <time>2018-11-09T11:05:26Z</time>
      </trkpt>
      <trkpt lat="37.0433610678" lon="-2.2009080648">
        <ele>520.21</ele>
        <time>2018-11-09T11:05:33Z</time>
      </trkpt>
      <trkpt lat="37.0434197411" lon="-2.2011864278">
        <ele>521.17</ele>
        <time>2018-11-09T11:05:44Z</time>
      </trkpt>
      <trkpt lat="37.0434397738" lon="-2.2012801375">
        <ele>521.65</ele>
        <time>2018-11-09T11:05:48Z</time>
      </trkpt>
      <trkpt lat="37.0434528496" lon="-2.2013268247">
        <ele>521.65</ele>
        <time>2018-11-09T11:05:52Z</time>
      </trkpt>
      <trkpt lat="37.0434619859" lon="-2.2014191933">
        <ele>521.17</ele>
        <time>2018-11-09T11:06:01Z</time>
      </trkpt>
      <trkpt lat="37.0434549451" lon="-2.2014348675">
        <ele>521.17</ele>
        <time>2018-11-09T11:06:07Z</time>
      </trkpt>
      <trkpt lat="37.0434410311" lon="-2.2014491167">
        <ele>519.25</ele>
        <time>2018-11-09T11:06:31Z</time>
      </trkpt>
      <trkpt lat="37.0434425399" lon="-2.2014521342">
        <ele>518.29</ele>
        <time>2018-11-09T11:06:53Z</time>
      </trkpt>
      <trkpt lat="37.0434455574" lon="-2.2014574986">
        <ele>518.77</ele>
        <time>2018-11-09T11:07:13Z</time>
      </trkpt>
      <trkpt lat="37.0434496645" lon="-2.2014511283">
        <ele>518.77</ele>
        <time>2018-11-09T11:07:31Z</time>
      </trkpt>
      <trkpt lat="37.0434436295" lon="-2.2014592588">
        <ele>519.25</ele>
        <time>2018-11-09T11:07:54Z</time>
      </trkpt>
      <trkpt lat="37.0434415340" lon="-2.2014447581">
        <ele>521.17</ele>
        <time>2018-11-09T11:08:17Z</time>
      </trkpt>
      <trkpt lat="37.0434436295" lon="-2.2014417406">
        <ele>522.13</ele>
        <time>2018-11-09T11:08:35Z</time>
      </trkpt>
      <trkpt lat="37.0434570406" lon="-2.2014972288">
        <ele>522.61</ele>
        <time>2018-11-09T11:08:45Z</time>
      </trkpt>
      <trkpt lat="37.0434863772" lon="-2.2016999032">
        <ele>524.54</ele>
        <time>2018-11-09T11:08:54Z</time>
      </trkpt>
      <trkpt lat="37.0434898138" lon="-2.2019405477">
        <ele>525.50</ele>
        <time>2018-11-09T11:09:03Z</time>
      </trkpt>
      <trkpt lat="37.0434874669" lon="-2.2019610833">
        <ele>525.98</ele>
        <time>2018-11-09T11:09:04Z</time>
      </trkpt>
      <trkpt lat="37.0434861258" lon="-2.2021257877">
        <ele>525.98</ele>
        <time>2018-11-09T11:09:13Z</time>
      </trkpt>
      <trkpt lat="37.0433374308" lon="-2.2021815274">
        <ele>526.94</ele>
        <time>2018-11-09T11:09:21Z</time>
      </trkpt>
      <trkpt lat="37.0431223512" lon="-2.2021664400">
        <ele>528.86</ele>
        <time>2018-11-09T11:09:29Z</time>
      </trkpt>
      <trkpt lat="37.0428229496" lon="-2.2021679487">
        <ele>531.75</ele>
        <time>2018-11-09T11:09:39Z</time>
      </trkpt>
      <trkpt lat="37.0426180959" lon="-2.2021503467">
        <ele>533.67</ele>
        <time>2018-11-09T11:09:47Z</time>
      </trkpt>
      <trkpt lat="37.0424675569" lon="-2.2019463312">
        <ele>534.63</ele>
        <time>2018-11-09T11:09:55Z</time>
      </trkpt>
      <trkpt lat="37.0422938000" lon="-2.2016721591">
        <ele>537.51</ele>
        <time>2018-11-09T11:10:05Z</time>
      </trkpt>
      <trkpt lat="37.0421807282" lon="-2.2015698999">
        <ele>539.92</ele>
        <time>2018-11-09T11:10:13Z</time>
      </trkpt>
      <trkpt lat="37.0421563368" lon="-2.2015422396">
        <ele>539.92</ele>
        <time>2018-11-09T11:10:16Z</time>
      </trkpt>
      <trkpt lat="37.0421449374" lon="-2.2015423235">
        <ele>539.44</ele>
        <time>2018-11-09T11:10:17Z</time>
      </trkpt>
      <trkpt lat="37.0421352144" lon="-2.2015514597">
        <ele>539.44</ele>
        <time>2018-11-09T11:10:18Z</time>
      </trkpt>
      <trkpt lat="37.0421005972" lon="-2.2016123962">
        <ele>541.36</ele>
        <time>2018-11-09T11:10:25Z</time>
      </trkpt>
      <trkpt lat="37.0420975797" lon="-2.2016135696">
        <ele>541.36</ele>
        <time>2018-11-09T11:10:30Z</time>
      </trkpt>
      <trkpt lat="37.0420343801" lon="-2.2016442474">
        <ele>541.36</ele>
        <time>2018-11-09T11:10:39Z</time>
      </trkpt>
      <trkpt lat="37.0419073943" lon="-2.2016308364">
        <ele>542.80</ele>
        <time>2018-11-09T11:10:49Z</time>
      </trkpt>
      <trkpt lat="37.0417632256" lon="-2.2015295830">
        <ele>542.80</ele>
        <time>2018-11-09T11:11:01Z</time>
      </trkpt>
      <trkpt lat="37.0417386666" lon="-2.2015024256">
        <ele>542.80</ele>
        <time>2018-11-09T11:11:07Z</time>
      </trkpt>
      <trkpt lat="37.0416249242" lon="-2.2014028486">
        <ele>543.28</ele>
        <time>2018-11-09T11:11:18Z</time>
      </trkpt>
      <trkpt lat="37.0415325556" lon="-2.2013216279">
        <ele>544.72</ele>
        <time>2018-11-09T11:11:27Z</time>
      </trkpt>
      <trkpt lat="37.0414346550" lon="-2.2011900321">
        <ele>546.17</ele>
        <time>2018-11-09T11:11:38Z</time>
      </trkpt>
      <trkpt lat="37.0413582120" lon="-2.2010213882">
        <ele>549.05</ele>
        <time>2018-11-09T11:11:49Z</time>
      </trkpt>
      <trkpt lat="37.0412728842" lon="-2.2008221503">
        <ele>550.49</ele>
        <time>2018-11-09T11:12:03Z</time>
      </trkpt>
      <trkpt lat="37.0412577968" lon="-2.2008074820">
        <ele>550.49</ele>
        <time>2018-11-09T11:12:12Z</time>
      </trkpt>
      <trkpt lat="37.0412432961" lon="-2.2008411773">
        <ele>551.45</ele>
        <time>2018-11-09T11:12:16Z</time>
      </trkpt>
      <trkpt lat="37.0411909930" lon="-2.2009648103">
        <ele>553.38</ele>
        <time>2018-11-09T11:12:27Z</time>
      </trkpt>
      <trkpt lat="37.0411715470" lon="-2.2010707576">
        <ele>552.90</ele>
        <time>2018-11-09T11:12:37Z</time>
      </trkpt>
      <trkpt lat="37.0411365945" lon="-2.2011716757">
        <ele>553.86</ele>
        <time>2018-11-09T11:12:47Z</time>
      </trkpt>
      <trkpt lat="37.0411009714" lon="-2.2012094781">
        <ele>554.34</ele>
        <time>2018-11-09T11:12:54Z</time>
      </trkpt>
      <trkpt lat="37.0410968643" lon="-2.2012047842">
        <ele>555.78</ele>
        <time>2018-11-09T11:13:15Z</time>
      </trkpt>
      <trkpt lat="37.0410990436" lon="-2.2012025211">
        <ele>557.22</ele>
        <time>2018-11-09T11:13:32Z</time>
      </trkpt>
      <trkpt lat="37.0411061682" lon="-2.2012124117">
        <ele>559.62</ele>
        <time>2018-11-09T11:13:53Z</time>
      </trkpt>
      <trkpt lat="37.0411043242" lon="-2.2012615297">
        <ele>559.14</ele>
        <time>2018-11-09T11:14:05Z</time>
      </trkpt>
      <trkpt lat="37.0411119517" lon="-2.2013057861">
        <ele>557.70</ele>
        <time>2018-11-09T11:14:13Z</time>
      </trkpt>
      <trkpt lat="37.0411105268" lon="-2.2012948897">
        <ele>556.26</ele>
        <time>2018-11-09T11:14:25Z</time>
      </trkpt>
      <trkpt lat="37.0411173161" lon="-2.2012813110">
        <ele>556.74</ele>
        <time>2018-11-09T11:14:28Z</time>
      </trkpt>
      <trkpt lat="37.0411754027" lon="-2.2012347076">
        <ele>556.74</ele>
        <time>2018-11-09T11:14:34Z</time>
      </trkpt>
      <trkpt lat="37.0412274543" lon="-2.2012976557">
        <ele>555.30</ele>
        <time>2018-11-09T11:14:41Z</time>
      </trkpt>
      <trkpt lat="37.0412314776" lon="-2.2013172694">
        <ele>553.86</ele>
        <time>2018-11-09T11:14:47Z</time>
      </trkpt>
      <trkpt lat="37.0412221737" lon="-2.2013189457">
        <ele>553.86</ele>
        <time>2018-11-09T11:14:58Z</time>
      </trkpt>
      <trkpt lat="37.0412073378" lon="-2.2013244778">
        <ele>553.86</ele>
        <time>2018-11-09T11:15:14Z</time>
      </trkpt>
      <trkpt lat="37.0412096009" lon="-2.2013253998">
        <ele>552.41</ele>
        <time>2018-11-09T11:15:26Z</time>
      </trkpt>
      <trkpt lat="37.0412127860" lon="-2.2013209574">
        <ele>552.41</ele>
        <time>2018-11-09T11:15:39Z</time>
      </trkpt>
      <trkpt lat="37.0412218384" lon="-2.2013108153">
        <ele>552.90</ele>
        <time>2018-11-09T11:15:50Z</time>
      </trkpt>
      <trkpt lat="37.0412254427" lon="-2.2013051156">
        <ele>552.90</ele>
        <time>2018-11-09T11:15:59Z</time>
      </trkpt>
      <trkpt lat="37.0412258618" lon="-2.2013092227">
        <ele>551.93</ele>
        <time>2018-11-09T11:16:08Z</time>
      </trkpt>
      <trkpt lat="37.0412241016" lon="-2.2013216279">
        <ele>552.41</ele>
        <time>2018-11-09T11:16:20Z</time>
      </trkpt>
      <trkpt lat="37.0412211679" lon="-2.2013240587">
        <ele>551.93</ele>
        <time>2018-11-09T11:16:32Z</time>
      </trkpt>
      <trkpt lat="37.0412094332" lon="-2.2012838256">
        <ele>551.93</ele>
        <time>2018-11-09T11:16:49Z</time>
      </trkpt>
      <trkpt lat="37.0412028953" lon="-2.2012671456">
        <ele>554.34</ele>
        <time>2018-11-09T11:17:03Z</time>
      </trkpt>
      <trkpt lat="37.0412131213" lon="-2.2012675647">
        <ele>554.34</ele>
        <time>2018-11-09T11:17:14Z</time>
      </trkpt>
      <trkpt lat="37.0412152167" lon="-2.2012665588">
        <ele>553.86</ele>
        <time>2018-11-09T11:17:24Z</time>
      </trkpt>
      <trkpt lat="37.0412201621" lon="-2.2012683190">
        <ele>554.34</ele>
        <time>2018-11-09T11:17:36Z</time>
      </trkpt>
      <trkpt lat="37.0412163064" lon="-2.2012660559">
        <ele>555.30</ele>
        <time>2018-11-09T11:17:47Z</time>
      </trkpt>
      <trkpt lat="37.0412169769" lon="-2.2012580093">
        <ele>556.26</ele>
        <time>2018-11-09T11:17:57Z</time>
      </trkpt>
      <trkpt lat="37.0412162226" lon="-2.2012613621">
        <ele>555.78</ele>
        <time>2018-11-09T11:18:07Z</time>
      </trkpt>
      <trkpt lat="37.0412122831" lon="-2.2012703307">
        <ele>557.70</ele>
        <time>2018-11-09T11:18:20Z</time>
      </trkpt>
      <trkpt lat="37.0412095170" lon="-2.2012731805">
        <ele>559.14</ele>
        <time>2018-11-09T11:18:31Z</time>
      </trkpt>
      <trkpt lat="37.0412058290" lon="-2.2012659721">
        <ele>559.62</ele>
        <time>2018-11-09T11:18:44Z</time>
      </trkpt>
      <trkpt lat="37.0412122831" lon="-2.2012689058">
        <ele>557.70</ele>
        <time>2018-11-09T11:18:55Z</time>
      </trkpt>
      <trkpt lat="37.0412059128" lon="-2.2012809757">
        <ele>558.18</ele>
        <time>2018-11-09T11:19:05Z</time>
      </trkpt>
      <trkpt lat="37.0412001293" lon="-2.2012872621">
        <ele>558.66</ele>
        <time>2018-11-09T11:19:15Z</time>
      </trkpt>
      <trkpt lat="37.0411978662" lon="-2.2012978233">
        <ele>559.62</ele>
        <time>2018-11-09T11:19:28Z</time>
      </trkpt>
      <trkpt lat="37.0412007999" lon="-2.2012950573">
        <ele>559.62</ele>
        <time>2018-11-09T11:19:41Z</time>
      </trkpt>
      <trkpt lat="37.0412062481" lon="-2.2012917046">
        <ele>558.66</ele>
        <time>2018-11-09T11:19:50Z</time>
      </trkpt>
      <trkpt lat="37.0412080921" lon="-2.2012770362">
        <ele>559.14</ele>
        <time>2018-11-09T11:20:03Z</time>
      </trkpt>
      <trkpt lat="37.0411987044" lon="-2.2012748569">
        <ele>559.62</ele>
        <time>2018-11-09T11:20:16Z</time>
      </trkpt>
      <trkpt lat="37.0411919989" lon="-2.2012769524">
        <ele>559.14</ele>
        <time>2018-11-09T11:20:27Z</time>
      </trkpt>
      <trkpt lat="37.0411853772" lon="-2.2012833226">
        <ele>558.66</ele>
        <time>2018-11-09T11:20:39Z</time>
      </trkpt>
      <trkpt lat="37.0411852095" lon="-2.2012915369">
        <ele>558.66</ele>
        <time>2018-11-09T11:20:48Z</time>
      </trkpt>
      <trkpt lat="37.0411862154" lon="-2.2013028525">
        <ele>558.18</ele>
        <time>2018-11-09T11:20:59Z</time>
      </trkpt>
      <trkpt lat="37.0411923341" lon="-2.2013131622">
        <ele>556.74</ele>
        <time>2018-11-09T11:21:10Z</time>
      </trkpt>
      <trkpt lat="37.0411991235" lon="-2.2013099771">
        <ele>555.78</ele>
        <time>2018-11-09T11:21:23Z</time>
      </trkpt>
      <trkpt lat="37.0412023924" lon="-2.2013030201">
        <ele>554.82</ele>
        <time>2018-11-09T11:21:36Z</time>
      </trkpt>
      <trkpt lat="37.0412091818" lon="-2.2013020143">
        <ele>554.34</ele>
        <time>2018-11-09T11:21:49Z</time>
      </trkpt>
      <trkpt lat="37.0412121154" lon="-2.2013014276">
        <ele>552.41</ele>
        <time>2018-11-09T11:22:05Z</time>
      </trkpt>
      <trkpt lat="37.0412138756" lon="-2.2012970690">
        <ele>551.93</ele>
        <time>2018-11-09T11:22:19Z</time>
      </trkpt>
      <trkpt lat="37.0412155520" lon="-2.2012916207">
        <ele>550.97</ele>
        <time>2018-11-09T11:22:33Z</time>
      </trkpt>
      <trkpt lat="37.0412107743" lon="-2.2012851667">
        <ele>551.93</ele>
        <time>2018-11-09T11:22:50Z</time>
      </trkpt>
      <trkpt lat="37.0412137080" lon="-2.2012951411">
        <ele>551.93</ele>
        <time>2018-11-09T11:23:09Z</time>
      </trkpt>
      <trkpt lat="37.0412217546" lon="-2.2013015114">
        <ele>551.45</ele>
        <time>2018-11-09T11:23:23Z</time>
      </trkpt>
      <trkpt lat="37.0412272867" lon="-2.2013065405">
        <ele>551.45</ele>
        <time>2018-11-09T11:23:37Z</time>
      </trkpt>
      <trkpt lat="37.0412120316" lon="-2.2012980748">
        <ele>552.41</ele>
        <time>2018-11-09T11:23:56Z</time>
      </trkpt>
      <trkpt lat="37.0412158873" lon="-2.2012994997">
        <ele>553.86</ele>
        <time>2018-11-09T11:24:07Z</time>
      </trkpt>
      <trkpt lat="37.0412225928" lon="-2.2012962308">
        <ele>554.82</ele>
        <time>2018-11-09T11:24:25Z</time>
      </trkpt>
      <trkpt lat="37.0412256103" lon="-2.2012876812">
        <ele>555.30</ele>
        <time>2018-11-09T11:24:40Z</time>
      </trkpt>
      <trkpt lat="37.0412313100" lon="-2.2012918722">
        <ele>555.30</ele>
        <time>2018-11-09T11:24:55Z</time>
      </trkpt>
      <trkpt lat="37.0412368421" lon="-2.2013003379">
        <ele>555.78</ele>
        <time>2018-11-09T11:25:14Z</time>
      </trkpt>
      <trkpt lat="37.0412336569" lon="-2.2012969851">
        <ele>556.26</ele>
        <time>2018-11-09T11:25:29Z</time>
      </trkpt>
      <trkpt lat="37.0412298013" lon="-2.2012924589">
        <ele>556.26</ele>
        <time>2018-11-09T11:25:44Z</time>
      </trkpt>
      <trkpt lat="37.0412200782" lon="-2.2012885194">
        <ele>555.78</ele>
        <time>2018-11-09T11:26:03Z</time>
      </trkpt>
      <trkpt lat="37.0412246883" lon="-2.2012853343">
        <ele>555.78</ele>
        <time>2018-11-09T11:26:21Z</time>
      </trkpt>
      <trkpt lat="37.0412234310" lon="-2.2012888547">
        <ele>557.70</ele>
        <time>2018-11-09T11:26:37Z</time>
      </trkpt>
      <trkpt lat="37.0412213355" lon="-2.2012917046">
        <ele>558.18</ele>
        <time>2018-11-09T11:26:55Z</time>
      </trkpt>
      <trkpt lat="37.0412163902" lon="-2.2012856696">
        <ele>558.18</ele>
        <time>2018-11-09T11:27:16Z</time>
      </trkpt>
      <trkpt lat="37.0412096009" lon="-2.2012806404">
        <ele>559.14</ele>
        <time>2018-11-09T11:27:34Z</time>
      </trkpt>
      <trkpt lat="37.0412058290" lon="-2.2012844961">
        <ele>559.62</ele>
        <time>2018-11-09T11:27:57Z</time>
      </trkpt>
      <trkpt lat="37.0412147976" lon="-2.2012895253">
        <ele>557.70</ele>
        <time>2018-11-09T11:28:17Z</time>
      </trkpt>
      <trkpt lat="37.0412142109" lon="-2.2012688220">
        <ele>558.66</ele>
        <time>2018-11-09T11:28:36Z</time>
      </trkpt>
      <trkpt lat="37.0412064157" lon="-2.2012719233">
        <ele>558.66</ele>
        <time>2018-11-09T11:28:58Z</time>
      </trkpt>
      <trkpt lat="37.0411938429" lon="-2.2012872621">
        <ele>558.18</ele>
        <time>2018-11-09T11:29:21Z</time>
      </trkpt>
      <trkpt lat="37.0411987882" lon="-2.2012736835">
        <ele>559.14</ele>
        <time>2018-11-09T11:29:41Z</time>
      </trkpt>
      <trkpt lat="37.0412034821" lon="-2.2012569197">
        <ele>560.11</ele>
        <time>2018-11-09T11:29:57Z</time>
      </trkpt>
      <trkpt lat="37.0412045717" lon="-2.2012754437">
        <ele>558.66</ele>
        <time>2018-11-09T11:30:23Z</time>
      </trkpt>
      <trkpt lat="37.0411990397" lon="-2.2012843285">
        <ele>556.74</ele>
        <time>2018-11-09T11:30:44Z</time>
      </trkpt>
      <trkpt lat="37.0411920827" lon="-2.2012772877">
        <ele>556.26</ele>
        <time>2018-11-09T11:31:02Z</time>
      </trkpt>
      <trkpt lat="37.0411875565" lon="-2.2012668941">
        <ele>556.74</ele>
        <time>2018-11-09T11:31:17Z</time>
      </trkpt>
      <trkpt lat="37.0411883947" lon="-2.2012712527">
        <ele>556.74</ele>
        <time>2018-11-09T11:31:31Z</time>
      </trkpt>
      <trkpt lat="37.0412020572" lon="-2.2012803890">
        <ele>557.70</ele>
        <time>2018-11-09T11:31:51Z</time>
      </trkpt>
      <trkpt lat="37.0412083436" lon="-2.2012747731">
        <ele>558.66</ele>
        <time>2018-11-09T11:32:10Z</time>
      </trkpt>
      <trkpt lat="37.0412168093" lon="-2.2012689896">
        <ele>557.70</ele>
        <time>2018-11-09T11:32:32Z</time>
      </trkpt>
      <trkpt lat="37.0412210003" lon="-2.2012758628">
        <ele>556.74</ele>
        <time>2018-11-09T11:32:47Z</time>
      </trkpt>
      <trkpt lat="37.0412064996" lon="-2.2012836579">
        <ele>557.22</ele>
        <time>2018-11-09T11:33:07Z</time>
      </trkpt>
      <trkpt lat="37.0411991235" lon="-2.2012800537">
        <ele>557.22</ele>
        <time>2018-11-09T11:33:26Z</time>
      </trkpt>
      <trkpt lat="37.0411956031" lon="-2.2012756113">
        <ele>558.66</ele>
        <time>2018-11-09T11:33:44Z</time>
      </trkpt>
      <trkpt lat="37.0412005484" lon="-2.2012870107">
        <ele>558.18</ele>
        <time>2018-11-09T11:34:02Z</time>
      </trkpt>
      <trkpt lat="37.0412009675" lon="-2.2013051156">
        <ele>557.22</ele>
        <time>2018-11-09T11:34:21Z</time>
      </trkpt>
      <trkpt lat="37.0411948487" lon="-2.2013073787">
        <ele>556.74</ele>
        <time>2018-11-09T11:34:39Z</time>
      </trkpt>
      <trkpt lat="37.0411943458" lon="-2.2012963146">
        <ele>557.22</ele>
        <time>2018-11-09T11:34:54Z</time>
      </trkpt>
      <trkpt lat="37.0412087627" lon="-2.2012991644">
        <ele>556.26</ele>
        <time>2018-11-09T11:35:09Z</time>
      </trkpt>
      <trkpt lat="37.0412163064" lon="-2.2013062052">
        <ele>554.34</ele>
        <time>2018-11-09T11:35:24Z</time>
      </trkpt>
      <trkpt lat="37.0412210841" lon="-2.2013145033">
        <ele>552.90</ele>
        <time>2018-11-09T11:35:46Z</time>
      </trkpt>
      <trkpt lat="37.0412201621" lon="-2.2013215441">
        <ele>551.45</ele>
        <time>2018-11-09T11:36:11Z</time>
      </trkpt>
      <trkpt lat="37.0412298851" lon="-2.2013014276">
        <ele>552.90</ele>
        <time>2018-11-09T11:36:24Z</time>
      </trkpt>
      <trkpt lat="37.0412182342" lon="-2.2013077140">
        <ele>555.78</ele>
        <time>2018-11-09T11:36:56Z</time>
      </trkpt>
      <trkpt lat="37.0412418712" lon="-2.2012962308">
        <ele>554.82</ele>
        <time>2018-11-09T11:37:06Z</time>
      </trkpt>
      <trkpt lat="37.0412607305" lon="-2.2012822330">
        <ele>553.86</ele>
        <time>2018-11-09T11:37:09Z</time>
      </trkpt>
      <trkpt lat="37.0412793383" lon="-2.2012185305">
        <ele>554.34</ele>
        <time>2018-11-09T11:37:14Z</time>
      </trkpt>
      <trkpt lat="37.0412747283" lon="-2.2011529002">
        <ele>553.86</ele>
        <time>2018-11-09T11:37:25Z</time>
      </trkpt>
      <trkpt lat="37.0412747283" lon="-2.2011780459">
        <ele>550.49</ele>
        <time>2018-11-09T11:37:41Z</time>
      </trkpt>
      <trkpt lat="37.0412611496" lon="-2.2011777107">
        <ele>550.97</ele>
        <time>2018-11-09T11:38:11Z</time>
      </trkpt>
      <trkpt lat="37.0412707888" lon="-2.2011731006">
        <ele>550.01</ele>
        <time>2018-11-09T11:38:25Z</time>
      </trkpt>
      <trkpt lat="37.0412801765" lon="-2.2011785489">
        <ele>548.57</ele>
        <time>2018-11-09T11:38:37Z</time>
      </trkpt>
      <trkpt lat="37.0412645862" lon="-2.2011823207">
        <ele>547.61</ele>
        <time>2018-11-09T11:38:50Z</time>
      </trkpt>
      <trkpt lat="37.0412401948" lon="-2.2011827398">
        <ele>547.13</ele>
        <time>2018-11-09T11:39:05Z</time>
      </trkpt>
      <trkpt lat="37.0412200782" lon="-2.2011749446">
        <ele>547.61</ele>
        <time>2018-11-09T11:39:16Z</time>
      </trkpt>
      <trkpt lat="37.0412223414" lon="-2.2011758666">
        <ele>547.13</ele>
        <time>2018-11-09T11:39:27Z</time>
      </trkpt>
      <trkpt lat="37.0412429608" lon="-2.2011660598">
        <ele>546.17</ele>
        <time>2018-11-09T11:39:39Z</time>
      </trkpt>
      <trkpt lat="37.0412606467" lon="-2.2011692449">
        <ele>545.69</ele>
        <time>2018-11-09T11:39:49Z</time>
      </trkpt>
      <trkpt lat="37.0412671007" lon="-2.2011651378">
        <ele>546.65</ele>
        <time>2018-11-09T11:39:59Z</time>
      </trkpt>
      <trkpt lat="37.0412750635" lon="-2.2011556663">
        <ele>549.53</ele>
        <time>2018-11-09T11:40:14Z</time>
      </trkpt>
      <trkpt lat="37.0412572939" lon="-2.2011590190">
        <ele>551.93</ele>
        <time>2018-11-09T11:40:27Z</time>
      </trkpt>
      <trkpt lat="37.0412441343" lon="-2.2011475358">
        <ele>551.45</ele>
        <time>2018-11-09T11:40:39Z</time>
      </trkpt>
      <trkpt lat="37.0412463974" lon="-2.2011581808">
        <ele>551.93</ele>
        <time>2018-11-09T11:40:53Z</time>
      </trkpt>
      <trkpt lat="37.0412702858" lon="-2.2011565045">
        <ele>551.93</ele>
        <time>2018-11-09T11:41:07Z</time>
      </trkpt>
      <trkpt lat="37.0412738062" lon="-2.2011572588">
        <ele>551.45</ele>
        <time>2018-11-09T11:41:18Z</time>
      </trkpt>
      <trkpt lat="37.0412820205" lon="-2.2011541575">
        <ele>551.45</ele>
        <time>2018-11-09T11:41:35Z</time>
      </trkpt>
      <trkpt lat="37.0412834454" lon="-2.2011595219">
        <ele>550.49</ele>
        <time>2018-11-09T11:41:51Z</time>
      </trkpt>
      <trkpt lat="37.0412853733" lon="-2.2011768725">
        <ele>549.53</ele>
        <time>2018-11-09T11:42:08Z</time>
      </trkpt>
      <trkpt lat="37.0412820205" lon="-2.2011860088">
        <ele>547.61</ele>
        <time>2018-11-09T11:42:23Z</time>
      </trkpt>
      <trkpt lat="37.0412754826" lon="-2.2011680715">
        <ele>548.57</ele>
        <time>2018-11-09T11:42:38Z</time>
      </trkpt>
      <trkpt lat="37.0412759017" lon="-2.2011642158">
        <ele>549.53</ele>
        <time>2018-11-09T11:42:58Z</time>
      </trkpt>
      <trkpt lat="37.0412712917" lon="-2.2011688258">
        <ele>549.53</ele>
        <time>2018-11-09T11:43:15Z</time>
      </trkpt>
      <trkpt lat="37.0412726328" lon="-2.2011739388">
        <ele>549.53</ele>
        <time>2018-11-09T11:43:33Z</time>
      </trkpt>
      <trkpt lat="37.0412864629" lon="-2.2011684906">
        <ele>550.01</ele>
        <time>2018-11-09T11:43:53Z</time>
      </trkpt>
      <trkpt lat="37.0412933361" lon="-2.2011691611">
        <ele>550.01</ele>
        <time>2018-11-09T11:44:17Z</time>
      </trkpt>
      <trkpt lat="37.0412837807" lon="-2.2011754476">
        <ele>548.09</ele>
        <time>2018-11-09T11:44:45Z</time>
      </trkpt>
      <trkpt lat="37.0412801765" lon="-2.2011702508">
        <ele>548.57</ele>
        <time>2018-11-09T11:45:12Z</time>
      </trkpt>
      <trkpt lat="37.0412717108" lon="-2.2011813149">
        <ele>548.57</ele>
        <time>2018-11-09T11:45:45Z</time>
      </trkpt>
      <trkpt lat="37.0412667654" lon="-2.2011627071">
        <ele>548.57</ele>
        <time>2018-11-09T11:46:18Z</time>
      </trkpt>
      <trkpt lat="37.0412607305" lon="-2.2011486255">
        <ele>546.65</ele>
        <time>2018-11-09T11:46:50Z</time>
      </trkpt>
      <trkpt lat="37.0412558690" lon="-2.2011601087">
        <ele>546.17</ele>
        <time>2018-11-09T11:47:20Z</time>
      </trkpt>
      <trkpt lat="37.0412639156" lon="-2.2011320293">
        <ele>543.76</ele>
        <time>2018-11-09T11:47:48Z</time>
      </trkpt>
      <trkpt lat="37.0412639994" lon="-2.2011291794">
        <ele>542.80</ele>
        <time>2018-11-09T11:48:10Z</time>
      </trkpt>
      <trkpt lat="37.0412620716" lon="-2.2011371423">
        <ele>541.36</ele>
        <time>2018-11-09T11:48:39Z</time>
      </trkpt>
      <trkpt lat="37.0412646700" lon="-2.2011583485">
        <ele>544.24</ele>
        <time>2018-11-09T11:49:10Z</time>
      </trkpt>
      <trkpt lat="37.0412632450" lon="-2.2011568397">
        <ele>547.61</ele>
        <time>2018-11-09T11:49:36Z</time>
      </trkpt>
      <trkpt lat="37.0412640832" lon="-2.2011745255">
        <ele>549.05</ele>
        <time>2018-11-09T11:49:58Z</time>
      </trkpt>
      <trkpt lat="37.0412628260" lon="-2.2011714242">
        <ele>550.97</ele>
        <time>2018-11-09T11:50:27Z</time>
      </trkpt>
      <trkpt lat="37.0412490796" lon="-2.2011755314">
        <ele>552.90</ele>
        <time>2018-11-09T11:50:56Z</time>
      </trkpt>
      <trkpt lat="37.0412528515" lon="-2.2011707537">
        <ele>551.45</ele>
        <time>2018-11-09T11:51:22Z</time>
      </trkpt>
      <trkpt lat="37.0412563719" lon="-2.2011636291">
        <ele>551.93</ele>
        <time>2018-11-09T11:51:45Z</time>
      </trkpt>
      <trkpt lat="37.0412459783" lon="-2.2011507209">
        <ele>552.41</ele>
        <time>2018-11-09T11:52:04Z</time>
      </trkpt>
      <trkpt lat="37.0412444696" lon="-2.2011543252">
        <ele>551.45</ele>
        <time>2018-11-09T11:52:24Z</time>
      </trkpt>
      <trkpt lat="37.0412443858" lon="-2.2011632100">
        <ele>550.97</ele>
        <time>2018-11-09T11:52:40Z</time>
      </trkpt>
      <trkpt lat="37.0412474032" lon="-2.2011651378">
        <ele>550.97</ele>
        <time>2018-11-09T11:52:55Z</time>
      </trkpt>
      <trkpt lat="37.0412606467" lon="-2.2011571750">
        <ele>552.41</ele>
        <time>2018-11-09T11:53:15Z</time>
      </trkpt>
      <trkpt lat="37.0412607305" lon="-2.2011529002">
        <ele>552.41</ele>
        <time>2018-11-09T11:53:30Z</time>
      </trkpt>
      <trkpt lat="37.0412625745" lon="-2.2011585999">
        <ele>551.93</ele>
        <time>2018-11-09T11:53:53Z</time>
      </trkpt>
      <trkpt lat="37.0412582159" lon="-2.2011647187">
        <ele>550.97</ele>
        <time>2018-11-09T11:54:11Z</time>
      </trkpt>
      <trkpt lat="37.0412399434" lon="-2.2011645511">
        <ele>550.49</ele>
        <time>2018-11-09T11:54:26Z</time>
      </trkpt>
      <trkpt lat="37.0412312262" lon="-2.2011541575">
        <ele>549.53</ele>
        <time>2018-11-09T11:54:44Z</time>
      </trkpt>
      <trkpt lat="37.0412544440" lon="-2.2011376452">
        <ele>550.01</ele>
        <time>2018-11-09T11:55:03Z</time>
      </trkpt>
      <trkpt lat="37.0412576292" lon="-2.2011316102">
        <ele>551.93</ele>
        <time>2018-11-09T11:55:21Z</time>
      </trkpt>
      <trkpt lat="37.0412385184" lon="-2.2011378128">
        <ele>551.45</ele>
        <time>2018-11-09T11:55:38Z</time>
      </trkpt>
      <trkpt lat="37.0412444696" lon="-2.2011492122">
        <ele>550.01</ele>
        <time>2018-11-09T11:55:59Z</time>
      </trkpt>
      <trkpt lat="37.0412310585" lon="-2.2011194564">
        <ele>547.13</ele>
        <time>2018-11-09T11:56:23Z</time>
      </trkpt>
      <trkpt lat="37.0412340760" lon="-2.2011213005">
        <ele>544.24</ele>
        <time>2018-11-09T11:56:43Z</time>
      </trkpt>
      <trkpt lat="37.0412303042" lon="-2.2011535708">
        <ele>545.69</ele>
        <time>2018-11-09T11:57:05Z</time>
      </trkpt>
      <trkpt lat="37.0412347466" lon="-2.2011788841">
        <ele>546.65</ele>
        <time>2018-11-09T11:57:20Z</time>
      </trkpt>
      <trkpt lat="37.0412448049" lon="-2.2011736035">
        <ele>548.09</ele>
        <time>2018-11-09T11:57:29Z</time>
      </trkpt>
      <trkpt lat="37.0412569586" lon="-2.2011698317">
        <ele>550.01</ele>
        <time>2018-11-09T11:57:39Z</time>
      </trkpt>
      <trkpt lat="37.0412464812" lon="-2.2011693288">
        <ele>551.45</ele>
        <time>2018-11-09T11:57:54Z</time>
      </trkpt>
      <trkpt lat="37.0412544440" lon="-2.2011679877">
        <ele>551.93</ele>
        <time>2018-11-09T11:58:06Z</time>
      </trkpt>
      <trkpt lat="37.0412419550" lon="-2.2011794709">
        <ele>552.41</ele>
        <time>2018-11-09T11:58:14Z</time>
      </trkpt>
      <trkpt lat="37.0411469880" lon="-2.2012722585">
        <ele>553.38</ele>
        <time>2018-11-09T11:58:23Z</time>
      </trkpt>
      <trkpt lat="37.0411028154" lon="-2.2011990007">
        <ele>553.86</ele>
        <time>2018-11-09T11:58:28Z</time>
      </trkpt>
      <trkpt lat="37.0411308948" lon="-2.2011045367">
        <ele>552.90</ele>
        <time>2018-11-09T11:58:31Z</time>
      </trkpt>
      <trkpt lat="37.0412025601" lon="-2.2008524090">
        <ele>548.09</ele>
        <time>2018-11-09T11:58:39Z</time>
      </trkpt>
      <trkpt lat="37.0412775781" lon="-2.2008612938">
        <ele>546.17</ele>
        <time>2018-11-09T11:58:44Z</time>
      </trkpt>
      <trkpt lat="37.0414483175" lon="-2.2012055386">
        <ele>543.76</ele>
        <time>2018-11-09T11:58:53Z</time>
      </trkpt>
      <trkpt lat="37.0415856969" lon="-2.2013390623">
        <ele>543.76</ele>
        <time>2018-11-09T11:58:59Z</time>
      </trkpt>
      <trkpt lat="37.0416154526" lon="-2.2013652977">
        <ele>543.76</ele>
        <time>2018-11-09T11:59:04Z</time>
      </trkpt>
      <trkpt lat="37.0417265967" lon="-2.2014741786">
        <ele>542.32</ele>
        <time>2018-11-09T11:59:09Z</time>
      </trkpt>
      <trkpt lat="37.0417633094" lon="-2.2014904395">
        <ele>540.88</ele>
        <time>2018-11-09T11:59:14Z</time>
      </trkpt>
      <trkpt lat="37.0417589508" lon="-2.2014900204">
        <ele>539.92</ele>
        <time>2018-11-09T11:59:23Z</time>
      </trkpt>
      <trkpt lat="37.0419040415" lon="-2.2015911061">
        <ele>539.44</ele>
        <time>2018-11-09T11:59:30Z</time>
      </trkpt>
      <trkpt lat="37.0420779660" lon="-2.2015874181">
        <ele>540.40</ele>
        <time>2018-11-09T11:59:37Z</time>
      </trkpt>
      <trkpt lat="37.0421557501" lon="-2.2015373781">
        <ele>539.92</ele>
        <time>2018-11-09T11:59:43Z</time>
      </trkpt>
      <trkpt lat="37.0422864240" lon="-2.2016419843">
        <ele>538.48</ele>
        <time>2018-11-09T11:59:50Z</time>
      </trkpt>
      <trkpt lat="37.0423841570" lon="-2.2017950378">
        <ele>537.51</ele>
        <time>2018-11-09T11:59:54Z</time>
      </trkpt>
      <trkpt lat="37.0424140804" lon="-2.2018431500">
        <ele>537.03</ele>
        <time>2018-11-09T11:59:55Z</time>
      </trkpt>
      <trkpt lat="37.0425609313" lon="-2.2020620015">
        <ele>535.59</ele>
        <time>2018-11-09T12:00:00Z</time>
      </trkpt>
      <trkpt lat="37.0426036790" lon="-2.2020930983">
        <ele>535.11</ele>
        <time>2018-11-09T12:00:01Z</time>
      </trkpt>
      <trkpt lat="37.0426507015" lon="-2.2021003906">
        <ele>534.63</ele>
        <time>2018-11-09T12:00:02Z</time>
      </trkpt>
      <trkpt lat="37.0430477522" lon="-2.2021098621">
        <ele>532.23</ele>
        <time>2018-11-09T12:00:09Z</time>
      </trkpt>
      <trkpt lat="37.0433872193" lon="-2.2021238599">
        <ele>530.30</ele>
        <time>2018-11-09T12:00:15Z</time>
      </trkpt>
      <trkpt lat="37.0434257761" lon="-2.2021319903">
        <ele>529.82</ele>
        <time>2018-11-09T12:00:16Z</time>
      </trkpt>
      <trkpt lat="37.0434710383" lon="-2.2021497600">
        <ele>529.34</ele>
        <time>2018-11-09T12:00:17Z</time>
      </trkpt>
      <trkpt lat="37.0435095951" lon="-2.2021624167">
        <ele>529.34</ele>
        <time>2018-11-09T12:00:18Z</time>
      </trkpt>
      <trkpt lat="37.0437753014" lon="-2.2022992931">
        <ele>527.42</ele>
        <time>2018-11-09T12:00:26Z</time>
      </trkpt>
      <trkpt lat="37.0439899620" lon="-2.2024415340">
        <ele>525.98</ele>
        <time>2018-11-09T12:00:35Z</time>
      </trkpt>
      <trkpt lat="37.0441564266" lon="-2.2025483195">
        <ele>525.98</ele>
        <time>2018-11-09T12:00:43Z</time>
      </trkpt>
      <trkpt lat="37.0443746075" lon="-2.2027034685">
        <ele>525.50</ele>
        <time>2018-11-09T12:00:52Z</time>
      </trkpt>
      <trkpt lat="37.0445784554" lon="-2.2028512415">
        <ele>525.98</ele>
        <time>2018-11-09T12:01:00Z</time>
      </trkpt>
      <trkpt lat="37.0447856560" lon="-2.2029978409">
        <ele>526.46</ele>
        <time>2018-11-09T12:01:09Z</time>
      </trkpt>
      <trkpt lat="37.0450185053" lon="-2.2031646408">
        <ele>527.90</ele>
        <time>2018-11-09T12:01:19Z</time>
      </trkpt>
      <trkpt lat="37.0453081839" lon="-2.2033808101">
        <ele>530.79</ele>
        <time>2018-11-09T12:01:31Z</time>
      </trkpt>
      <trkpt lat="37.0455285441" lon="-2.2035448439">
        <ele>532.23</ele>
        <time>2018-11-09T12:01:41Z</time>
      </trkpt>
      <trkpt lat="37.0456795022" lon="-2.2036573291">
        <ele>533.67</ele>
        <time>2018-11-09T12:01:50Z</time>
      </trkpt>
      <trkpt lat="37.0458777342" lon="-2.2038130648">
        <ele>536.07</ele>
        <time>2018-11-09T12:02:01Z</time>
      </trkpt>
      <trkpt lat="37.0460269321" lon="-2.2039252147">
        <ele>537.03</ele>
        <time>2018-11-09T12:02:10Z</time>
      </trkpt>
      <trkpt lat="37.0461750403" lon="-2.2040389571">
        <ele>537.99</ele>
        <time>2018-11-09T12:02:20Z</time>
      </trkpt>
      <trkpt lat="37.0463372301" lon="-2.2041721456">
        <ele>539.44</ele>
        <time>2018-11-09T12:02:31Z</time>
      </trkpt>
      <trkpt lat="37.0464801416" lon="-2.2042932641">
        <ele>541.36</ele>
        <time>2018-11-09T12:02:41Z</time>
      </trkpt>
      <trkpt lat="37.0465908665" lon="-2.2043934278">
        <ele>541.84</ele>
        <time>2018-11-09T12:02:50Z</time>
      </trkpt>
      <trkpt lat="37.0467051957" lon="-2.2045013029">
        <ele>542.80</ele>
        <time>2018-11-09T12:02:59Z</time>
      </trkpt>
      <trkpt lat="37.0468713250" lon="-2.2046447173">
        <ele>543.76</ele>
        <time>2018-11-09T12:03:10Z</time>
      </trkpt>
      <trkpt lat="37.0470223669" lon="-2.2047829349">
        <ele>544.72</ele>
        <time>2018-11-09T12:03:20Z</time>
      </trkpt>
      <trkpt lat="37.0471516997" lon="-2.2049066518">
        <ele>545.20</ele>
        <time>2018-11-09T12:03:30Z</time>
      </trkpt>
      <trkpt lat="37.0472771768" lon="-2.2050139401">
        <ele>546.17</ele>
        <time>2018-11-09T12:03:38Z</time>
      </trkpt>
      <trkpt lat="37.0472819544" lon="-2.2050195560">
        <ele>546.65</ele>
        <time>2018-11-09T12:03:44Z</time>
      </trkpt>
      <trkpt lat="37.0472838823" lon="-2.2050163709">
        <ele>547.13</ele>
        <time>2018-11-09T12:03:59Z</time>
      </trkpt>
      <trkpt lat="37.0472858939" lon="-2.2050295305">
        <ele>546.65</ele>
        <time>2018-11-09T12:04:13Z</time>
      </trkpt>
      <trkpt lat="37.0472799428" lon="-2.2050143592">
        <ele>546.65</ele>
        <time>2018-11-09T12:04:27Z</time>
      </trkpt>
      <trkpt lat="37.0472839661" lon="-2.2050162032">
        <ele>547.13</ele>
        <time>2018-11-09T12:04:41Z</time>
      </trkpt>
      <trkpt lat="37.0472946949" lon="-2.2050221544">
        <ele>547.13</ele>
        <time>2018-11-09T12:04:56Z</time>
      </trkpt>
      <trkpt lat="37.0472875703" lon="-2.2050307877">
        <ele>546.65</ele>
        <time>2018-11-09T12:05:07Z</time>
      </trkpt>
      <trkpt lat="37.0472853072" lon="-2.2050305363">
        <ele>547.13</ele>
        <time>2018-11-09T12:05:20Z</time>
      </trkpt>
      <trkpt lat="37.0472878218" lon="-2.2050295305">
        <ele>546.65</ele>
        <time>2018-11-09T12:05:27Z</time>
      </trkpt>
      <trkpt lat="37.0472887438" lon="-2.2050334699">
        <ele>547.61</ele>
        <time>2018-11-09T12:05:40Z</time>
      </trkpt>
      <trkpt lat="37.0472908393" lon="-2.2050295305">
        <ele>547.61</ele>
        <time>2018-11-09T12:05:52Z</time>
      </trkpt>
      <trkpt lat="37.0472946111" lon="-2.2050297819">
        <ele>547.13</ele>
        <time>2018-11-09T12:06:01Z</time>
      </trkpt>
      <trkpt lat="37.0472965389" lon="-2.2050314583">
        <ele>547.13</ele>
        <time>2018-11-09T12:06:11Z</time>
      </trkpt>
      <trkpt lat="37.0473021548" lon="-2.2050360683">
        <ele>547.13</ele>
        <time>2018-11-09T12:06:19Z</time>
      </trkpt>
      <trkpt lat="37.0473081060" lon="-2.2050275188">
        <ele>548.09</ele>
        <time>2018-11-09T12:06:32Z</time>
      </trkpt>
      <trkpt lat="37.0473132189" lon="-2.2050414328">
        <ele>548.09</ele>
        <time>2018-11-09T12:06:41Z</time>
      </trkpt>
      <trkpt lat="37.0473081060" lon="-2.2050364036">
        <ele>548.57</ele>
        <time>2018-11-09T12:06:50Z</time>
      </trkpt>
      <trkpt lat="37.0473074354" lon="-2.2050428577">
        <ele>548.57</ele>
        <time>2018-11-09T12:06:57Z</time>
      </trkpt>
      <trkpt lat="37.0473116264" lon="-2.2050502338">
        <ele>548.09</ele>
        <time>2018-11-09T12:06:59Z</time>
      </trkpt>
      <trkpt lat="37.0473202597" lon="-2.2050620522">
        <ele>548.09</ele>
        <time>2018-11-09T12:07:00Z</time>
      </trkpt>
      <trkpt lat="37.0473300666" lon="-2.2050716076">
        <ele>548.09</ele>
        <time>2018-11-09T12:07:01Z</time>
      </trkpt>
      <trkpt lat="37.0474417135" lon="-2.2051573545">
        <ele>549.53</ele>
        <time>2018-11-09T12:07:07Z</time>
      </trkpt>
      <trkpt lat="37.0476515125" lon="-2.2052950691">
        <ele>549.53</ele>
        <time>2018-11-09T12:07:16Z</time>
      </trkpt>
      <trkpt lat="37.0478233416" lon="-2.2054008488">
        <ele>549.05</ele>
        <time>2018-11-09T12:07:26Z</time>
      </trkpt>
      <trkpt lat="37.0478618145" lon="-2.2054288443">
        <ele>549.05</ele>
        <time>2018-11-09T12:07:29Z</time>
      </trkpt>
      <trkpt lat="37.0478789136" lon="-2.2054372262">
        <ele>549.05</ele>
        <time>2018-11-09T12:07:30Z</time>
      </trkpt>
      <trkpt lat="37.0478972699" lon="-2.2054484580">
        <ele>549.05</ele>
        <time>2018-11-09T12:07:31Z</time>
      </trkpt>
      <trkpt lat="37.0479146205" lon="-2.2054603603">
        <ele>549.05</ele>
        <time>2018-11-09T12:07:32Z</time>
      </trkpt>
      <trkpt lat="37.0479335636" lon="-2.2054703347">
        <ele>549.05</ele>
        <time>2018-11-09T12:07:33Z</time>
      </trkpt>
      <trkpt lat="37.0480773970" lon="-2.2055493761">
        <ele>548.09</ele>
        <time>2018-11-09T12:07:42Z</time>
      </trkpt>
      <trkpt lat="37.0482932311" lon="-2.2056335304">
        <ele>547.61</ele>
        <time>2018-11-09T12:07:49Z</time>
      </trkpt>
      <trkpt lat="37.0486446004" lon="-2.2056963947">
        <ele>545.20</ele>
        <time>2018-11-09T12:07:55Z</time>
      </trkpt>
      <trkpt lat="37.0490419865" lon="-2.2057533078">
        <ele>542.80</ele>
        <time>2018-11-09T12:08:00Z</time>
      </trkpt>
      <trkpt lat="37.0491173398" lon="-2.2057424951">
        <ele>542.32</ele>
        <time>2018-11-09T12:08:01Z</time>
      </trkpt>
      <trkpt lat="37.0491922740" lon="-2.2057086322">
        <ele>541.84</ele>
        <time>2018-11-09T12:08:02Z</time>
      </trkpt>
      <trkpt lat="37.0492661186" lon="-2.2056501266">
        <ele>541.36</ele>
        <time>2018-11-09T12:08:03Z</time>
      </trkpt>
      <trkpt lat="37.0493279770" lon="-2.2055761144">
        <ele>540.88</ele>
        <time>2018-11-09T12:08:04Z</time>
      </trkpt>
      <trkpt lat="37.0493877400" lon="-2.2054863442">
        <ele>539.92</ele>
        <time>2018-11-09T12:08:05Z</time>
      </trkpt>
      <trkpt lat="37.0497780014" lon="-2.2048682626">
        <ele>535.11</ele>
        <time>2018-11-09T12:08:11Z</time>
      </trkpt>
      <trkpt lat="37.0503390022" lon="-2.2039870732">
        <ele>528.86</ele>
        <time>2018-11-09T12:08:18Z</time>
      </trkpt>
      <trkpt lat="37.0508300979" lon="-2.2032280080">
        <ele>523.58</ele>
        <time>2018-11-09T12:08:24Z</time>
      </trkpt>
      <trkpt lat="37.0508919563" lon="-2.2031089850">
        <ele>522.61</ele>
        <time>2018-11-09T12:08:25Z</time>
      </trkpt>
      <trkpt lat="37.0509415772" lon="-2.2029768862">
        <ele>522.13</ele>
        <time>2018-11-09T12:08:26Z</time>
      </trkpt>
      <trkpt lat="37.0509709977" lon="-2.2028418537">
        <ele>521.17</ele>
        <time>2018-11-09T12:08:27Z</time>
      </trkpt>
      <trkpt lat="37.0509878453" lon="-2.2027031332">
        <ele>520.69</ele>
        <time>2018-11-09T12:08:28Z</time>
      </trkpt>
      <trkpt lat="37.0510015078" lon="-2.2025546059">
        <ele>519.73</ele>
        <time>2018-11-09T12:08:29Z</time>
      </trkpt>
      <trkpt lat="37.0510569960" lon="-2.2021478321">
        <ele>518.29</ele>
        <time>2018-11-09T12:08:32Z</time>
      </trkpt>
      <trkpt lat="37.0510920323" lon="-2.2020262107">
        <ele>517.33</ele>
        <time>2018-11-09T12:08:33Z</time>
      </trkpt>
      <trkpt lat="37.0511387195" lon="-2.2019020747">
        <ele>516.85</ele>
        <time>2018-11-09T12:08:34Z</time>
      </trkpt>
      <trkpt lat="37.0511930343" lon="-2.2017786931">
        <ele>515.88</ele>
        <time>2018-11-09T12:08:35Z</time>
      </trkpt>
      <trkpt lat="37.0512504503" lon="-2.2016680520">
        <ele>515.40</ele>
        <time>2018-11-09T12:08:36Z</time>
      </trkpt>
      <trkpt lat="37.0513097104" lon="-2.2015775274">
        <ele>514.92</ele>
        <time>2018-11-09T12:08:37Z</time>
      </trkpt>
      <trkpt lat="37.0513767656" lon="-2.2015067842">
        <ele>513.96</ele>
        <time>2018-11-09T12:08:38Z</time>
      </trkpt>
      <trkpt lat="37.0514573157" lon="-2.2014507093">
        <ele>513.00</ele>
        <time>2018-11-09T12:08:39Z</time>
      </trkpt>
      <trkpt lat="37.0515493490" lon="-2.2014176007">
        <ele>512.04</ele>
        <time>2018-11-09T12:08:40Z</time>
      </trkpt>
      <trkpt lat="37.0516325813" lon="-2.2014116496">
        <ele>511.08</ele>
        <time>2018-11-09T12:08:41Z</time>
      </trkpt>
      <trkpt lat="37.0517188311" lon="-2.2014322691">
        <ele>510.12</ele>
        <time>2018-11-09T12:08:42Z</time>
      </trkpt>
      <trkpt lat="37.0517913345" lon="-2.2014725860">
        <ele>509.64</ele>
        <time>2018-11-09T12:08:43Z</time>
      </trkpt>
      <trkpt lat="37.0518676937" lon="-2.2015260626">
        <ele>508.67</ele>
        <time>2018-11-09T12:08:44Z</time>
      </trkpt>
      <trkpt lat="37.0519515127" lon="-2.2015792876">
        <ele>507.71</ele>
        <time>2018-11-09T12:08:45Z</time>
      </trkpt>
      <trkpt lat="37.0520324819" lon="-2.2016161680">
        <ele>507.23</ele>
        <time>2018-11-09T12:08:46Z</time>
      </trkpt>
      <trkpt lat="37.0521286223" lon="-2.2016409785">
        <ele>506.75</ele>
        <time>2018-11-09T12:08:47Z</time>
      </trkpt>
      <trkpt lat="37.0524224918" lon="-2.2016657889">
        <ele>504.35</ele>
        <time>2018-11-09T12:08:50Z</time>
      </trkpt>
      <trkpt lat="37.0525161177" lon="-2.2016355302">
        <ele>503.87</ele>
        <time>2018-11-09T12:08:51Z</time>
      </trkpt>
      <trkpt lat="37.0526094083" lon="-2.2015628591">
        <ele>503.39</ele>
        <time>2018-11-09T12:08:52Z</time>
      </trkpt>
      <trkpt lat="37.0526860189" lon="-2.2014728375">
        <ele>502.91</ele>
        <time>2018-11-09T12:08:53Z</time>
      </trkpt>
      <trkpt lat="37.0527463686" lon="-2.2013908625">
        <ele>502.91</ele>
        <time>2018-11-09T12:08:54Z</time>
      </trkpt>
      <trkpt lat="37.0528744441" lon="-2.2012197878">
        <ele>502.91</ele>
        <time>2018-11-09T12:08:56Z</time>
      </trkpt>
      <trkpt lat="37.0529600233" lon="-2.2011492122">
        <ele>503.39</ele>
        <time>2018-11-09T12:08:57Z</time>
      </trkpt>
      <trkpt lat="37.0530298445" lon="-2.2011263296">
        <ele>503.39</ele>
        <time>2018-11-09T12:08:58Z</time>
      </trkpt>
      <trkpt lat="37.0531129092" lon="-2.2011283413">
        <ele>503.39</ele>
        <time>2018-11-09T12:08:59Z</time>
      </trkpt>
      <trkpt lat="37.0531877596" lon="-2.2011529841">
        <ele>503.39</ele>
        <time>2018-11-09T12:09:00Z</time>
      </trkpt>
      <trkpt lat="37.0532499533" lon="-2.2011963185">
        <ele>503.39</ele>
        <time>2018-11-09T12:09:01Z</time>
      </trkpt>
      <trkpt lat="37.0532989874" lon="-2.2012483701">
        <ele>503.87</ele>
        <time>2018-11-09T12:09:02Z</time>
      </trkpt>
      <trkpt lat="37.0533398911" lon="-2.2013002541">
        <ele>503.87</ele>
        <time>2018-11-09T12:09:03Z</time>
      </trkpt>
      <trkpt lat="37.0533739217" lon="-2.2013544850">
        <ele>504.35</ele>
        <time>2018-11-09T12:09:04Z</time>
      </trkpt>
      <trkpt lat="37.0533985645" lon="-2.2013973165">
        <ele>504.35</ele>
        <time>2018-11-09T12:09:05Z</time>
      </trkpt>
      <trkpt lat="37.0535088703" lon="-2.2015657928">
        <ele>504.83</ele>
        <time>2018-11-09T12:09:11Z</time>
      </trkpt>
      <trkpt lat="37.0537284762" lon="-2.2019127198">
        <ele>506.75</ele>
        <time>2018-11-09T12:09:24Z</time>
      </trkpt>
      <trkpt lat="37.0539139677" lon="-2.2021993808">
        <ele>508.67</ele>
        <time>2018-11-09T12:09:35Z</time>
      </trkpt>
      <trkpt lat="37.0540523529" lon="-2.2024186514">
        <ele>510.12</ele>
        <time>2018-11-09T12:09:44Z</time>
      </trkpt>
      <trkpt lat="37.0541455597" lon="-2.2026138660">
        <ele>511.08</ele>
        <time>2018-11-09T12:09:53Z</time>
      </trkpt>
      <trkpt lat="37.0542151295" lon="-2.2028208151">
        <ele>511.08</ele>
        <time>2018-11-09T12:10:02Z</time>
      </trkpt>
      <trkpt lat="37.0542923268" lon="-2.2030977532">
        <ele>512.04</ele>
        <time>2018-11-09T12:10:13Z</time>
      </trkpt>
      <trkpt lat="37.0544256829" lon="-2.2032523155">
        <ele>513.96</ele>
        <time>2018-11-09T12:10:22Z</time>
      </trkpt>
      <trkpt lat="37.0545962546" lon="-2.2033906169">
        <ele>515.40</ele>
        <time>2018-11-09T12:10:32Z</time>
      </trkpt>
      <trkpt lat="37.0547631383" lon="-2.2034808062">
        <ele>516.37</ele>
        <time>2018-11-09T12:10:41Z</time>
      </trkpt>
      <trkpt lat="37.0549795590" lon="-2.2035112325">
        <ele>517.33</ele>
        <time>2018-11-09T12:10:51Z</time>
      </trkpt>
      <trkpt lat="37.0551945549" lon="-2.2035255656">
        <ele>518.77</ele>
        <time>2018-11-09T12:11:01Z</time>
      </trkpt>
      <trkpt lat="37.0554113947" lon="-2.2035383061">
        <ele>520.69</ele>
        <time>2018-11-09T12:11:11Z</time>
      </trkpt>
      <trkpt lat="37.0557105448" lon="-2.2035515495">
        <ele>521.65</ele>
        <time>2018-11-09T12:11:24Z</time>
      </trkpt>
      <trkpt lat="37.0559211820" lon="-2.2035486158">
        <ele>522.13</ele>
        <time>2018-11-09T12:11:33Z</time>
      </trkpt>
      <trkpt lat="37.0561042428" lon="-2.2034961451">
        <ele>523.09</ele>
        <time>2018-11-09T12:11:42Z</time>
      </trkpt>
      <trkpt lat="37.0563004632" lon="-2.2034082189">
        <ele>524.54</ele>
        <time>2018-11-09T12:11:52Z</time>
      </trkpt>
      <trkpt lat="37.0564893913" lon="-2.2033305187">
        <ele>524.54</ele>
        <time>2018-11-09T12:12:01Z</time>
      </trkpt>
      <trkpt lat="37.0567318797" lon="-2.2032301873">
        <ele>526.46</ele>
        <time>2018-11-09T12:12:11Z</time>
      </trkpt>
      <trkpt lat="37.0567395911" lon="-2.2032272536">
        <ele>525.98</ele>
        <time>2018-11-09T12:12:16Z</time>
      </trkpt>
      <trkpt lat="37.0567414351" lon="-2.2032350488">
        <ele>525.98</ele>
        <time>2018-11-09T12:12:31Z</time>
      </trkpt>
      <trkpt lat="37.0567333046" lon="-2.2032230627">
        <ele>525.50</ele>
        <time>2018-11-09T12:12:52Z</time>
      </trkpt>
      <trkpt lat="37.0567255933" lon="-2.2032371443">
        <ele>531.27</ele>
        <time>2018-11-09T12:13:08Z</time>
      </trkpt>
      <trkpt lat="37.0567370765" lon="-2.2032298520">
        <ele>537.99</ele>
        <time>2018-11-09T12:13:18Z</time>
      </trkpt>
      <trkpt lat="37.0568203088" lon="-2.2032197937">
        <ele>547.61</ele>
        <time>2018-11-09T12:13:24Z</time>
      </trkpt>
      <trkpt lat="37.0570121706" lon="-2.2032894474">
        <ele>562.51</ele>
        <time>2018-11-09T12:13:33Z</time>
      </trkpt>
      <trkpt lat="37.0573249832" lon="-2.2034063749">
        <ele>573.56</ele>
        <time>2018-11-09T12:13:45Z</time>
      </trkpt>
      <trkpt lat="37.0575802960" lon="-2.2034294251">
        <ele>580.29</ele>
        <time>2018-11-09T12:13:42Z</time>
      </trkpt>
      <trkpt lat="37.0578868221" lon="-2.2033912037">
        <ele>580.77</ele>
        <time>2018-11-09T12:13:55Z</time>
      </trkpt>
      <trkpt lat="37.0581469964" lon="-2.2032601107">
        <ele>572.12</ele>
        <time>2018-11-09T12:14:06Z</time>
      </trkpt>
      <trkpt lat="37.0585482381" lon="-2.2028539237">
        <ele>552.41</ele>
        <time>2018-11-09T12:14:19Z</time>
      </trkpt>
      <trkpt lat="37.0588795748" lon="-2.2024823539">
        <ele>542.32</ele>
        <time>2018-11-09T12:14:28Z</time>
      </trkpt>
      <trkpt lat="37.0591670740" lon="-2.2023086809">
        <ele>543.28</ele>
        <time>2018-11-09T12:14:38Z</time>
      </trkpt>
      <trkpt lat="37.0592917129" lon="-2.2022747342">
        <ele>543.28</ele>
        <time>2018-11-09T12:14:45Z</time>
      </trkpt>
      <trkpt lat="37.0594437607" lon="-2.2022705432">
        <ele>543.28</ele>
        <time>2018-11-09T12:14:54Z</time>
      </trkpt>
      <trkpt lat="37.0596294198" lon="-2.2023603134">
        <ele>543.28</ele>
        <time>2018-11-09T12:15:03Z</time>
      </trkpt>
      <trkpt lat="37.0598643646" lon="-2.2024997883">
        <ele>544.24</ele>
        <time>2018-11-09T12:15:14Z</time>
      </trkpt>
      <trkpt lat="37.0601247065" lon="-2.2026515007">
        <ele>545.20</ele>
        <time>2018-11-09T12:15:25Z</time>
      </trkpt>
      <trkpt lat="37.0604115352" lon="-2.2027723677">
        <ele>545.69</ele>
        <time>2018-11-09T12:15:36Z</time>
      </trkpt>
      <trkpt lat="37.0605536923" lon="-2.2027162090">
        <ele>546.17</ele>
        <time>2018-11-09T12:15:42Z</time>
      </trkpt>
      <trkpt lat="37.0607822668" lon="-2.2025012132">
        <ele>548.57</ele>
        <time>2018-11-09T12:15:53Z</time>
      </trkpt>
      <trkpt lat="37.0610323828" lon="-2.2023432981">
        <ele>550.49</ele>
        <time>2018-11-09T12:16:03Z</time>
      </trkpt>
      <trkpt lat="37.0612754580" lon="-2.2023034841">
        <ele>551.45</ele>
        <time>2018-11-09T12:16:12Z</time>
      </trkpt>
      <trkpt lat="37.0615015179" lon="-2.2022521030">
        <ele>550.97</ele>
        <time>2018-11-09T12:16:23Z</time>
      </trkpt>
      <trkpt lat="37.0616039447" lon="-2.2020893265">
        <ele>552.41</ele>
        <time>2018-11-09T12:16:31Z</time>
      </trkpt>
      <trkpt lat="37.0617193636" lon="-2.2018385399">
        <ele>553.86</ele>
        <time>2018-11-09T12:16:41Z</time>
      </trkpt>
      <trkpt lat="37.0618515462" lon="-2.2016421519">
        <ele>555.30</ele>
        <time>2018-11-09T12:16:50Z</time>
      </trkpt>
      <trkpt lat="37.0620254707" lon="-2.2014595103">
        <ele>556.74</ele>
        <time>2018-11-09T12:17:00Z</time>
      </trkpt>
      <trkpt lat="37.0621484332" lon="-2.2013123240">
        <ele>557.70</ele>
        <time>2018-11-09T12:17:09Z</time>
      </trkpt>
      <trkpt lat="37.0623079408" lon="-2.2011321131">
        <ele>558.18</ele>
        <time>2018-11-09T12:17:19Z</time>
      </trkpt>
      <trkpt lat="37.0623256266" lon="-2.2011130862">
        <ele>558.18</ele>
        <time>2018-11-09T12:17:21Z</time>
      </trkpt>
      <trkpt lat="37.0623334218" lon="-2.2011022735">
        <ele>558.18</ele>
        <time>2018-11-09T12:17:22Z</time>
      </trkpt>
      <trkpt lat="37.0623432286" lon="-2.2010989208">
        <ele>558.66</ele>
        <time>2018-11-09T12:17:28Z</time>
      </trkpt>
      <trkpt lat="37.0623305719" lon="-2.2011112422">
        <ele>559.62</ele>
        <time>2018-11-09T12:17:46Z</time>
      </trkpt>
      <trkpt lat="37.0623510238" lon="-2.2011053748">
        <ele>560.59</ele>
        <time>2018-11-09T12:18:01Z</time>
      </trkpt>
      <trkpt lat="37.0623677876" lon="-2.2010984179">
        <ele>560.59</ele>
        <time>2018-11-09T12:18:02Z</time>
      </trkpt>
      <trkpt lat="37.0625217631" lon="-2.2009820770">
        <ele>560.11</ele>
        <time>2018-11-09T12:18:10Z</time>
      </trkpt>
      <trkpt lat="37.0626609027" lon="-2.2008006088">
        <ele>560.11</ele>
        <time>2018-11-09T12:18:17Z</time>
      </trkpt>
      <trkpt lat="37.0628076699" lon="-2.2005029675">
        <ele>560.59</ele>
        <time>2018-11-09T12:18:26Z</time>
      </trkpt>
      <trkpt lat="37.0629482344" lon="-2.2002163064">
        <ele>561.07</ele>
        <time>2018-11-09T12:18:35Z</time>
      </trkpt>
      <trkpt lat="37.0630801655" lon="-2.1999475826">
        <ele>560.59</ele>
        <time>2018-11-09T12:18:44Z</time>
      </trkpt>
      <trkpt lat="37.0632618014" lon="-2.1996968798">
        <ele>561.55</ele>
        <time>2018-11-09T12:18:53Z</time>
      </trkpt>
      <trkpt lat="37.0634529088" lon="-2.1995744202">
        <ele>562.51</ele>
        <time>2018-11-09T12:19:01Z</time>
      </trkpt>
      <trkpt lat="37.0636366401" lon="-2.1994965523">
        <ele>563.95</ele>
        <time>2018-11-09T12:19:10Z</time>
      </trkpt>
      <trkpt lat="37.0638267417" lon="-2.1994155832">
        <ele>564.43</ele>
        <time>2018-11-09T12:19:20Z</time>
      </trkpt>
      <trkpt lat="37.0640350319" lon="-2.1993069537">
        <ele>565.39</ele>
        <time>2018-11-09T12:19:31Z</time>
      </trkpt>
      <trkpt lat="37.0641673822" lon="-2.1992212068">
        <ele>565.87</ele>
        <time>2018-11-09T12:19:39Z</time>
      </trkpt>
      <trkpt lat="37.0641778596" lon="-2.1992046107">
        <ele>565.87</ele>
        <time>2018-11-09T12:19:40Z</time>
      </trkpt>
      <trkpt lat="37.0641922764" lon="-2.1991880983">
        <ele>566.35</ele>
        <time>2018-11-09T12:19:41Z</time>
      </trkpt>
      <trkpt lat="37.0643628482" lon="-2.1990221366">
        <ele>568.28</ele>
        <time>2018-11-09T12:19:51Z</time>
      </trkpt>
      <trkpt lat="37.0645365212" lon="-2.1988504753">
        <ele>569.72</ele>
        <time>2018-11-09T12:20:02Z</time>
      </trkpt>
      <trkpt lat="37.0646586455" lon="-2.1987381577">
        <ele>571.16</ele>
        <time>2018-11-09T12:20:10Z</time>
      </trkpt>
      <trkpt lat="37.0648400299" lon="-2.1986073162">
        <ele>572.60</ele>
        <time>2018-11-09T12:20:21Z</time>
      </trkpt>
      <trkpt lat="37.0650177263" lon="-2.1984940767">
        <ele>573.56</ele>
        <time>2018-11-09T12:20:32Z</time>
      </trkpt>
      <trkpt lat="37.0651318040" lon="-2.1984374151">
        <ele>574.53</ele>
        <time>2018-11-09T12:20:39Z</time>
      </trkpt>
      <trkpt lat="37.0653113443" lon="-2.1983943321">
        <ele>575.01</ele>
        <time>2018-11-09T12:20:49Z</time>
      </trkpt>
      <trkpt lat="37.0654932316" lon="-2.1983850282">
        <ele>575.97</ele>
        <time>2018-11-09T12:20:59Z</time>
      </trkpt>
      <trkpt lat="37.0656702574" lon="-2.1983877942">
        <ele>576.93</ele>
        <time>2018-11-09T12:21:08Z</time>
      </trkpt>
      <trkpt lat="37.0658435114" lon="-2.1983899735">
        <ele>577.41</ele>
        <time>2018-11-09T12:21:16Z</time>
      </trkpt>
      <trkpt lat="37.0660644583" lon="-2.1984297037">
        <ele>578.85</ele>
        <time>2018-11-09T12:21:26Z</time>
      </trkpt>
      <trkpt lat="37.0662563201" lon="-2.1985252574">
        <ele>578.37</ele>
        <time>2018-11-09T12:21:34Z</time>
      </trkpt>
      <trkpt lat="37.0664217789" lon="-2.1986074839">
        <ele>578.85</ele>
        <time>2018-11-09T12:21:42Z</time>
      </trkpt>
      <trkpt lat="37.0666216034" lon="-2.1987047140">
        <ele>577.89</ele>
        <time>2018-11-09T12:21:49Z</time>
      </trkpt>
      <trkpt lat="37.0669339970" lon="-2.1988667361">
        <ele>575.97</ele>
        <time>2018-11-09T12:21:56Z</time>
      </trkpt>
      <trkpt lat="37.0674997754" lon="-2.1991624497">
        <ele>573.56</ele>
        <time>2018-11-09T12:22:06Z</time>
      </trkpt>
      <trkpt lat="37.0678796433" lon="-2.1993703209">
        <ele>573.08</ele>
        <time>2018-11-09T12:22:14Z</time>
      </trkpt>
      <trkpt lat="37.0681816433" lon="-2.1995285712">
        <ele>573.08</ele>
        <time>2018-11-09T12:22:23Z</time>
      </trkpt>
      <trkpt lat="37.0685437415" lon="-2.1996569820">
        <ele>573.08</ele>
        <time>2018-11-09T12:22:32Z</time>
      </trkpt>
      <trkpt lat="37.0689295605" lon="-2.1996968798">
        <ele>573.08</ele>
        <time>2018-11-09T12:22:42Z</time>
      </trkpt>
      <trkpt lat="37.0692647528" lon="-2.1997242887">
        <ele>570.68</ele>
        <time>2018-11-09T12:22:50Z</time>
      </trkpt>
      <trkpt lat="37.0697002765" lon="-2.1997490153">
        <ele>568.28</ele>
        <time>2018-11-09T12:22:57Z</time>
      </trkpt>
      <trkpt lat="37.0703275781" lon="-2.1997967083">
        <ele>565.39</ele>
        <time>2018-11-09T12:23:05Z</time>
      </trkpt>
      <trkpt lat="37.0710247848" lon="-2.1998387855">
        <ele>560.59</ele>
        <time>2018-11-09T12:23:13Z</time>
      </trkpt>
      <trkpt lat="37.0717721153" lon="-2.1998827904">
        <ele>556.26</ele>
        <time>2018-11-09T12:23:21Z</time>
      </trkpt>
      <trkpt lat="37.0727778599" lon="-2.1999542043">
        <ele>550.97</ele>
        <time>2018-11-09T12:23:31Z</time>
      </trkpt>
      <trkpt lat="37.0738521684" lon="-2.2000209242">
        <ele>545.20</ele>
        <time>2018-11-09T12:23:42Z</time>
      </trkpt>
      <trkpt lat="37.0752005652" lon="-2.2001108620">
        <ele>539.92</ele>
        <time>2018-11-09T12:23:56Z</time>
      </trkpt>
      <trkpt lat="37.0760495681" lon="-2.2001674399">
        <ele>537.03</ele>
        <time>2018-11-09T12:24:06Z</time>
      </trkpt>
      <trkpt lat="37.0769821387" lon="-2.2002293821">
        <ele>533.19</ele>
        <time>2018-11-09T12:24:18Z</time>
      </trkpt>
      <trkpt lat="37.0777479932" lon="-2.2002769075">
        <ele>531.27</ele>
        <time>2018-11-09T12:24:28Z</time>
      </trkpt>
      <trkpt lat="37.0786347985" lon="-2.2003317252">
        <ele>528.86</ele>
        <time>2018-11-09T12:24:40Z</time>
      </trkpt>
      <trkpt lat="37.0793085359" lon="-2.2003769036">
        <ele>527.42</ele>
        <time>2018-11-09T12:24:50Z</time>
      </trkpt>
      <trkpt lat="37.0798974484" lon="-2.2004138678">
        <ele>526.46</ele>
        <time>2018-11-09T12:25:00Z</time>
      </trkpt>
      <trkpt lat="37.0799968578" lon="-2.2004211601">
        <ele>525.98</ele>
        <time>2018-11-09T12:25:04Z</time>
      </trkpt>
      <trkpt lat="37.0800079219" lon="-2.2004364990">
        <ele>525.98</ele>
        <time>2018-11-09T12:25:05Z</time>
      </trkpt>
      <trkpt lat="37.0800401084" lon="-2.2005142830">
        <ele>525.50</ele>
        <time>2018-11-09T12:25:10Z</time>
      </trkpt>
      <trkpt lat="37.0800257754" lon="-2.2005038057">
        <ele>525.02</ele>
        <time>2018-11-09T12:25:23Z</time>
      </trkpt>
      <trkpt lat="37.0800283737" lon="-2.2004996985">
        <ele>524.54</ele>
        <time>2018-11-09T12:25:46Z</time>
      </trkpt>
      <trkpt lat="37.0800265297" lon="-2.2004960943">
        <ele>524.54</ele>
        <time>2018-11-09T12:25:59Z</time>
      </trkpt>
      <trkpt lat="37.0800250210" lon="-2.2004985251">
        <ele>524.54</ele>
        <time>2018-11-09T12:26:15Z</time>
      </trkpt>
      <trkpt lat="37.0800286252" lon="-2.2005043924">
        <ele>524.54</ele>
        <time>2018-11-09T12:26:28Z</time>
      </trkpt>
      <trkpt lat="37.0800354984" lon="-2.2005111817">
        <ele>523.58</ele>
        <time>2018-11-09T12:26:43Z</time>
      </trkpt>
      <trkpt lat="37.0800373424" lon="-2.2005105950">
        <ele>524.06</ele>
        <time>2018-11-09T12:26:47Z</time>
      </trkpt>
      <trkpt lat="37.0800565369" lon="-2.2004611418">
        <ele>524.06</ele>
        <time>2018-11-09T12:26:51Z</time>
      </trkpt>
      <trkpt lat="37.0800512563" lon="-2.2004012112">
        <ele>524.06</ele>
        <time>2018-11-09T12:26:54Z</time>
      </trkpt>
      <trkpt lat="37.0800494961" lon="-2.2003692761">
        <ele>525.02</ele>
        <time>2018-11-09T12:27:01Z</time>
      </trkpt>
      <trkpt lat="37.0800549444" lon="-2.2003693599">
        <ele>525.98</ele>
        <time>2018-11-09T12:27:18Z</time>
      </trkpt>
      <trkpt lat="37.0800639968" lon="-2.2003701981">
        <ele>525.98</ele>
        <time>2018-11-09T12:27:19Z</time>
      </trkpt>
      <trkpt lat="37.0801091753" lon="-2.2003685217">
        <ele>525.98</ele>
        <time>2018-11-09T12:27:23Z</time>
      </trkpt>
      <trkpt lat="37.0801735483" lon="-2.2003725450">
        <ele>525.50</ele>
        <time>2018-11-09T12:27:27Z</time>
      </trkpt>
      <trkpt lat="37.0801951736" lon="-2.2003846988">
        <ele>525.50</ele>
        <time>2018-11-09T12:27:28Z</time>
      </trkpt>
      <trkpt lat="37.0802113507" lon="-2.2003924940">
        <ele>525.50</ele>
        <time>2018-11-09T12:27:29Z</time>
      </trkpt>
      <trkpt lat="37.0802274439" lon="-2.2004037257">
        <ele>525.02</ele>
        <time>2018-11-09T12:27:30Z</time>
      </trkpt>
      <trkpt lat="37.0802391786" lon="-2.2004199866">
        <ele>525.02</ele>
        <time>2018-11-09T12:27:31Z</time>
      </trkpt>
      <trkpt lat="37.0802455489" lon="-2.2004345711">
        <ele>525.02</ele>
        <time>2018-11-09T12:27:32Z</time>
      </trkpt>
      <trkpt lat="37.0802515838" lon="-2.2004487365">
        <ele>524.54</ele>
        <time>2018-11-09T12:27:33Z</time>
      </trkpt>
      <trkpt lat="37.0802578703" lon="-2.2004611418">
        <ele>524.54</ele>
        <time>2018-11-09T12:27:34Z</time>
      </trkpt>
      <trkpt lat="37.0802659169" lon="-2.2004753910">
        <ele>524.54</ele>
        <time>2018-11-09T12:27:35Z</time>
      </trkpt>
      <trkpt lat="37.0802747179" lon="-2.2004920710">
        <ele>524.54</ele>
        <time>2018-11-09T12:27:36Z</time>
      </trkpt>
      <trkpt lat="37.0802802499" lon="-2.2005079128">
        <ele>524.06</ele>
        <time>2018-11-09T12:27:37Z</time>
      </trkpt>
      <trkpt lat="37.0802842733" lon="-2.2005224973">
        <ele>524.06</ele>
        <time>2018-11-09T12:27:38Z</time>
      </trkpt>
      <trkpt lat="37.0802898053" lon="-2.2005349863">
        <ele>524.06</ele>
        <time>2018-11-09T12:27:39Z</time>
      </trkpt>
      <trkpt lat="37.0802919846" lon="-2.2005517501">
        <ele>524.54</ele>
        <time>2018-11-09T12:27:46Z</time>
      </trkpt>
      <trkpt lat="37.0802931581" lon="-2.2005479783">
        <ele>525.98</ele>
        <time>2018-11-09T12:28:02Z</time>
      </trkpt>
      <trkpt lat="37.0802903920" lon="-2.2005404346">
        <ele>525.98</ele>
        <time>2018-11-09T12:28:12Z</time>
      </trkpt>
      <trkpt lat="37.0802800823" lon="-2.2005677596">
        <ele>525.98</ele>
        <time>2018-11-09T12:28:22Z</time>
      </trkpt>
      <trkpt lat="37.0802840218" lon="-2.2005753033">
        <ele>525.50</ele>
        <time>2018-11-09T12:28:31Z</time>
      </trkpt>
      <trkpt lat="37.0803018752" lon="-2.2006600443">
        <ele>525.02</ele>
        <time>2018-11-09T12:28:37Z</time>
      </trkpt>
      <trkpt lat="37.0803580340" lon="-2.2009270918">
        <ele>524.54</ele>
        <time>2018-11-09T12:28:45Z</time>
      </trkpt>
      <trkpt lat="37.0804379974" lon="-2.2011835780">
        <ele>525.02</ele>
        <time>2018-11-09T12:28:52Z</time>
      </trkpt>
      <trkpt lat="37.0805375744" lon="-2.2015009169">
        <ele>525.50</ele>
        <time>2018-11-09T12:29:01Z</time>
      </trkpt>
      <trkpt lat="37.0806492213" lon="-2.2018525377">
        <ele>525.02</ele>
        <time>2018-11-09T12:29:11Z</time>
      </trkpt>
      <trkpt lat="37.0807721838" lon="-2.2022695374">
        <ele>524.54</ele>
        <time>2018-11-09T12:29:22Z</time>
      </trkpt>
      <trkpt lat="37.0808935538" lon="-2.2026519198">
        <ele>525.98</ele>
        <time>2018-11-09T12:29:33Z</time>
      </trkpt>
      <trkpt lat="37.0809901971" lon="-2.2029535007">
        <ele>527.42</ele>
        <time>2018-11-09T12:29:43Z</time>
      </trkpt>
      <trkpt lat="37.0810715016" lon="-2.2032152675">
        <ele>529.34</ele>
        <time>2018-11-09T12:29:52Z</time>
      </trkpt>
      <trkpt lat="37.0811430831" lon="-2.2034526430">
        <ele>531.27</ele>
        <time>2018-11-09T12:30:01Z</time>
      </trkpt>
      <trkpt lat="37.0812290814" lon="-2.2037249710">
        <ele>532.23</ele>
        <time>2018-11-09T12:30:10Z</time>
      </trkpt>
      <trkpt lat="37.0812967233" lon="-2.2039510310">
        <ele>532.71</ele>
        <time>2018-11-09T12:30:18Z</time>
      </trkpt>
      <trkpt lat="37.0813538041" lon="-2.2041267157">
        <ele>532.23</ele>
        <time>2018-11-09T12:30:25Z</time>
      </trkpt>
      <trkpt lat="37.0814379584" lon="-2.2043880634">
        <ele>531.75</ele>
        <time>2018-11-09T12:30:34Z</time>
      </trkpt>
      <trkpt lat="37.0815202687" lon="-2.2046627384">
        <ele>531.75</ele>
        <time>2018-11-09T12:30:45Z</time>
      </trkpt>
      <trkpt lat="37.0815957896" lon="-2.2049113456">
        <ele>531.27</ele>
        <time>2018-11-09T12:30:54Z</time>
      </trkpt>
      <trkpt lat="37.0816878229" lon="-2.2052089870">
        <ele>531.75</ele>
        <time>2018-11-09T12:31:06Z</time>
      </trkpt>
      <trkpt lat="37.0817612484" lon="-2.2054611146">
        <ele>532.23</ele>
        <time>2018-11-09T12:31:15Z</time>
      </trkpt>
      <trkpt lat="37.0818424691" lon="-2.2057269886">
        <ele>533.19</ele>
        <time>2018-11-09T12:31:24Z</time>
      </trkpt>
      <trkpt lat="37.0819241926" lon="-2.2059914377">
        <ele>533.67</ele>
        <time>2018-11-09T12:31:33Z</time>
      </trkpt>
      <trkpt lat="37.0820098557" lon="-2.2062472533">
        <ele>534.63</ele>
        <time>2018-11-09T12:31:42Z</time>
      </trkpt>
      <trkpt lat="37.0821018890" lon="-2.2065384407">
        <ele>537.03</ele>
        <time>2018-11-09T12:31:53Z</time>
      </trkpt>
      <trkpt lat="37.0821836963" lon="-2.2067872994">
        <ele>537.99</ele>
        <time>2018-11-09T12:32:02Z</time>
      </trkpt>
      <trkpt lat="37.0822603907" lon="-2.2070740443">
        <ele>537.99</ele>
        <time>2018-11-09T12:32:12Z</time>
      </trkpt>
      <trkpt lat="37.0823291223" lon="-2.2072871123">
        <ele>537.51</ele>
        <time>2018-11-09T12:32:20Z</time>
      </trkpt>
      <trkpt lat="37.0824276935" lon="-2.2076130845">
        <ele>537.99</ele>
        <time>2018-11-09T12:32:30Z</time>
      </trkpt>
      <trkpt lat="37.0825422741" lon="-2.2079814691">
        <ele>537.03</ele>
        <time>2018-11-09T12:32:41Z</time>
      </trkpt>
      <trkpt lat="37.0826342236" lon="-2.2082576528">
        <ele>537.03</ele>
        <time>2018-11-09T12:32:49Z</time>
      </trkpt>
      <trkpt lat="37.0827549230" lon="-2.2086441424">
        <ele>537.51</ele>
        <time>2018-11-09T12:33:00Z</time>
      </trkpt>
      <trkpt lat="37.0828475431" lon="-2.2089561168">
        <ele>537.99</ele>
        <time>2018-11-09T12:33:09Z</time>
      </trkpt>
      <trkpt lat="37.0829182863" lon="-2.2091828473">
        <ele>537.99</ele>
        <time>2018-11-09T12:33:16Z</time>
      </trkpt>
      <trkpt lat="37.0830067992" lon="-2.2094814945">
        <ele>537.99</ele>
        <time>2018-11-09T12:33:24Z</time>
      </trkpt>
      <trkpt lat="37.0830780454" lon="-2.2097118292">
        <ele>538.96</ele>
        <time>2018-11-09T12:33:31Z</time>
      </trkpt>
      <trkpt lat="37.0831847470" lon="-2.2100716643">
        <ele>538.96</ele>
        <time>2018-11-09T12:33:42Z</time>
      </trkpt>
      <trkpt lat="37.0832854137" lon="-2.2104236204">
        <ele>539.92</ele>
        <time>2018-11-09T12:33:52Z</time>
      </trkpt>
      <trkpt lat="37.0833756868" lon="-2.2107732296">
        <ele>539.92</ele>
        <time>2018-11-09T12:34:02Z</time>
      </trkpt>
      <trkpt lat="37.0834430773" lon="-2.2110577114">
        <ele>539.92</ele>
        <time>2018-11-09T12:34:11Z</time>
      </trkpt>
      <trkpt lat="37.0834892616" lon="-2.2113357391">
        <ele>540.40</ele>
        <time>2018-11-09T12:34:19Z</time>
      </trkpt>
      <trkpt lat="37.0835339371" lon="-2.2116449475">
        <ele>540.88</ele>
        <time>2018-11-09T12:34:29Z</time>
      </trkpt>
      <trkpt lat="37.0835649502" lon="-2.2118539922">
        <ele>542.80</ele>
        <time>2018-11-09T12:34:36Z</time>
      </trkpt>
      <trkpt lat="37.0836084522" lon="-2.2122078761">
        <ele>542.80</ele>
        <time>2018-11-09T12:34:46Z</time>
      </trkpt>
      <trkpt lat="37.0836392138" lon="-2.2125431523">
        <ele>542.80</ele>
        <time>2018-11-09T12:34:56Z</time>
      </trkpt>
      <trkpt lat="37.0836646948" lon="-2.2128475830">
        <ele>543.28</ele>
        <time>2018-11-09T12:35:05Z</time>
      </trkpt>
      <trkpt lat="37.0836788602" lon="-2.2131515946">
        <ele>543.76</ele>
        <time>2018-11-09T12:35:14Z</time>
      </trkpt>
      <trkpt lat="37.0836854819" lon="-2.2133489884">
        <ele>543.76</ele>
        <time>2018-11-09T12:35:21Z</time>
      </trkpt>
      <trkpt lat="37.0836924389" lon="-2.2136509046">
        <ele>545.20</ele>
        <time>2018-11-09T12:35:30Z</time>
      </trkpt>
      <trkpt lat="37.0837037545" lon="-2.2139694169">
        <ele>545.69</ele>
        <time>2018-11-09T12:35:40Z</time>
      </trkpt>
      <trkpt lat="37.0837071072" lon="-2.2142878454">
        <ele>545.20</ele>
        <time>2018-11-09T12:35:49Z</time>
      </trkpt>
      <trkpt lat="37.0837198477" lon="-2.2146771848">
        <ele>543.28</ele>
        <time>2018-11-09T12:36:03Z</time>
      </trkpt>
      <trkpt lat="37.0837314986" lon="-2.2148674540">
        <ele>542.80</ele>
        <time>2018-11-09T12:36:11Z</time>
      </trkpt>
      <trkpt lat="37.0837412216" lon="-2.2151519358">
        <ele>543.76</ele>
        <time>2018-11-09T12:36:22Z</time>
      </trkpt>
      <trkpt lat="37.0837396290" lon="-2.2153914068">
        <ele>544.72</ele>
        <time>2018-11-09T12:36:32Z</time>
      </trkpt>
      <trkpt lat="37.0837431494" lon="-2.2156437859">
        <ele>545.20</ele>
        <time>2018-11-09T12:36:43Z</time>
      </trkpt>
      <trkpt lat="37.0837470051" lon="-2.2159169521">
        <ele>544.72</ele>
        <time>2018-11-09T12:36:54Z</time>
      </trkpt>
      <trkpt lat="37.0837582368" lon="-2.2162246518">
        <ele>543.28</ele>
        <time>2018-11-09T12:37:04Z</time>
      </trkpt>
      <trkpt lat="37.0837678760" lon="-2.2165038530">
        <ele>543.76</ele>
        <time>2018-11-09T12:37:14Z</time>
      </trkpt>
      <trkpt lat="37.0837750006" lon="-2.2167822160">
        <ele>542.32</ele>
        <time>2018-11-09T12:37:22Z</time>
      </trkpt>
      <trkpt lat="37.0837784372" lon="-2.2173746489">
        <ele>539.92</ele>
        <time>2018-11-09T12:37:35Z</time>
      </trkpt>
      <trkpt lat="37.0837945305" lon="-2.2177836020">
        <ele>538.48</ele>
        <time>2018-11-09T12:37:45Z</time>
      </trkpt>
      <trkpt lat="37.0838028286" lon="-2.2181311157">
        <ele>537.51</ele>
        <time>2018-11-09T12:37:53Z</time>
      </trkpt>
      <trkpt lat="37.0838157367" lon="-2.2185247298">
        <ele>537.03</ele>
        <time>2018-11-09T12:38:00Z</time>
      </trkpt>
      <trkpt lat="37.0838218555" lon="-2.2189816274">
        <ele>538.48</ele>
        <time>2018-11-09T12:38:09Z</time>
      </trkpt>
      <trkpt lat="37.0838304888" lon="-2.2194853798">
        <ele>537.99</ele>
        <time>2018-11-09T12:38:19Z</time>
      </trkpt>
      <trkpt lat="37.0838442352" lon="-2.2199522518">
        <ele>538.96</ele>
        <time>2018-11-09T12:38:29Z</time>
      </trkpt>
      <trkpt lat="37.0838556346" lon="-2.2203379031">
        <ele>540.88</ele>
        <time>2018-11-09T12:38:38Z</time>
      </trkpt>
      <trkpt lat="37.0838595740" lon="-2.2207685653">
        <ele>540.88</ele>
        <time>2018-11-09T12:38:48Z</time>
      </trkpt>
      <trkpt lat="37.0838719793" lon="-2.2211873252">
        <ele>539.92</ele>
        <time>2018-11-09T12:38:58Z</time>
      </trkpt>
      <trkpt lat="37.0838868152" lon="-2.2216623276">
        <ele>539.92</ele>
        <time>2018-11-09T12:39:09Z</time>
      </trkpt>
      <trkpt lat="37.0838957001" lon="-2.2221131064">
        <ele>538.96</ele>
        <time>2018-11-09T12:39:19Z</time>
      </trkpt>
      <trkpt lat="37.0839090273" lon="-2.2226011846">
        <ele>538.48</ele>
        <time>2018-11-09T12:39:30Z</time>
      </trkpt>
      <trkpt lat="37.0839192532" lon="-2.2230091318">
        <ele>538.48</ele>
        <time>2018-11-09T12:39:39Z</time>
      </trkpt>
      <trkpt lat="37.0839341730" lon="-2.2233758401">
        <ele>537.03</ele>
        <time>2018-11-09T12:39:47Z</time>
      </trkpt>
      <trkpt lat="37.0839413814" lon="-2.2237635031">
        <ele>537.99</ele>
        <time>2018-11-09T12:39:55Z</time>
      </trkpt>
      <trkpt lat="37.0839500986" lon="-2.2240460571">
        <ele>538.48</ele>
        <time>2018-11-09T12:40:01Z</time>
      </trkpt>
      <trkpt lat="37.0839487575" lon="-2.2240929119">
        <ele>538.48</ele>
        <time>2018-11-09T12:40:02Z</time>
      </trkpt>
      <trkpt lat="37.0839526132" lon="-2.2244346421">
        <ele>539.44</ele>
        <time>2018-11-09T12:40:09Z</time>
      </trkpt>
      <trkpt lat="37.0839635935" lon="-2.2249694075">
        <ele>539.44</ele>
        <time>2018-11-09T12:40:20Z</time>
      </trkpt>
      <trkpt lat="37.0839812793" lon="-2.2253260575">
        <ele>538.96</ele>
        <time>2018-11-09T12:40:28Z</time>
      </trkpt>
      <trkpt lat="37.0839873981" lon="-2.2257617489">
        <ele>538.48</ele>
        <time>2018-11-09T12:40:38Z</time>
      </trkpt>
      <trkpt lat="37.0839961991" lon="-2.2262168024">
        <ele>537.99</ele>
        <time>2018-11-09T12:40:49Z</time>
      </trkpt>
      <trkpt lat="37.0840117056" lon="-2.2266292758">
        <ele>537.99</ele>
        <time>2018-11-09T12:40:59Z</time>
      </trkpt>
      <trkpt lat="37.0840207580" lon="-2.2270035278">
        <ele>537.99</ele>
        <time>2018-11-09T12:41:08Z</time>
      </trkpt>
      <trkpt lat="37.0840258710" lon="-2.2273694817">
        <ele>537.99</ele>
        <time>2018-11-09T12:41:17Z</time>
      </trkpt>
      <trkpt lat="37.0840327442" lon="-2.2277159896">
        <ele>538.48</ele>
        <time>2018-11-09T12:41:25Z</time>
      </trkpt>
      <trkpt lat="37.0840419643" lon="-2.2281301394">
        <ele>539.92</ele>
        <time>2018-11-09T12:41:34Z</time>
      </trkpt>
      <trkpt lat="37.0840479992" lon="-2.2286009509">
        <ele>539.92</ele>
        <time>2018-11-09T12:41:44Z</time>
      </trkpt>
      <trkpt lat="37.0840617456" lon="-2.2290056292">
        <ele>540.88</ele>
        <time>2018-11-09T12:41:53Z</time>
      </trkpt>
      <trkpt lat="37.0840709656" lon="-2.2294823080">
        <ele>539.44</ele>
        <time>2018-11-09T12:42:03Z</time>
      </trkpt>
      <trkpt lat="37.0840852149" lon="-2.2299970407">
        <ele>538.48</ele>
        <time>2018-11-09T12:42:14Z</time>
      </trkpt>
      <trkpt lat="37.0840982068" lon="-2.2303479910">
        <ele>538.96</ele>
        <time>2018-11-09T12:42:22Z</time>
      </trkpt>
      <trkpt lat="37.0841029007" lon="-2.2307013720">
        <ele>539.44</ele>
        <time>2018-11-09T12:42:30Z</time>
      </trkpt>
      <trkpt lat="37.0841119532" lon="-2.2311783861">
        <ele>539.44</ele>
        <time>2018-11-09T12:42:41Z</time>
      </trkpt>
      <trkpt lat="37.0841212571" lon="-2.2316136584">
        <ele>538.96</ele>
        <time>2018-11-09T12:42:51Z</time>
      </trkpt>
      <trkpt lat="37.0841425471" lon="-2.2317994852">
        <ele>538.48</ele>
        <time>2018-11-09T12:42:57Z</time>
      </trkpt>
      <trkpt lat="37.0841518510" lon="-2.2318020836">
        <ele>537.99</ele>
        <time>2018-11-09T12:42:58Z</time>
      </trkpt>
      <trkpt lat="37.0841629151" lon="-2.2318121418">
        <ele>537.99</ele>
        <time>2018-11-09T12:42:59Z</time>
      </trkpt>
      <trkpt lat="37.0841778349" lon="-2.2318275645">
        <ele>537.99</ele>
        <time>2018-11-09T12:43:00Z</time>
      </trkpt>
      <trkpt lat="37.0841920003" lon="-2.2318497766">
        <ele>537.51</ele>
        <time>2018-11-09T12:43:01Z</time>
      </trkpt>
      <trkpt lat="37.0842053276" lon="-2.2318802029">
        <ele>537.51</ele>
        <time>2018-11-09T12:43:02Z</time>
      </trkpt>
      <trkpt lat="37.0842168108" lon="-2.2319024988">
        <ele>537.03</ele>
        <time>2018-11-09T12:43:03Z</time>
      </trkpt>
      <trkpt lat="37.0842287131" lon="-2.2319221124">
        <ele>537.03</ele>
        <time>2018-11-09T12:43:04Z</time>
      </trkpt>
      <trkpt lat="37.0842370111" lon="-2.2319383733">
        <ele>536.55</ele>
        <time>2018-11-09T12:43:09Z</time>
      </trkpt>
      <trkpt lat="37.0842396095" lon="-2.2319381218">
        <ele>536.07</ele>
        <time>2018-11-09T12:43:23Z</time>
      </trkpt>
      <trkpt lat="37.0842458121" lon="-2.2319499403">
        <ele>536.07</ele>
        <time>2018-11-09T12:43:42Z</time>
      </trkpt>
      <trkpt lat="37.0842382684" lon="-2.2319521196">
        <ele>536.07</ele>
        <time>2018-11-09T12:43:58Z</time>
      </trkpt>
      <trkpt lat="37.0842352509" lon="-2.2319433186">
        <ele>537.03</ele>
        <time>2018-11-09T12:44:19Z</time>
      </trkpt>
      <trkpt lat="37.0842474885" lon="-2.2319501918">
        <ele>537.51</ele>
        <time>2018-11-09T12:44:36Z</time>
      </trkpt>
      <trkpt lat="37.0842599776" lon="-2.2319506947">
        <ele>537.51</ele>
        <time>2018-11-09T12:44:56Z</time>
      </trkpt>
      <trkpt lat="37.0842513442" lon="-2.2319361940">
        <ele>536.07</ele>
        <time>2018-11-09T12:45:13Z</time>
      </trkpt>
      <trkpt lat="37.0842464827" lon="-2.2319417261">
        <ele>537.51</ele>
        <time>2018-11-09T12:45:37Z</time>
      </trkpt>
      <trkpt lat="37.0842372626" lon="-2.2319528740">
        <ele>535.59</ele>
        <time>2018-11-09T12:45:57Z</time>
      </trkpt>
      <trkpt lat="37.0842426270" lon="-2.2319401335">
        <ele>535.59</ele>
        <time>2018-11-09T12:46:18Z</time>
      </trkpt>
      <trkpt lat="37.0842395257" lon="-2.2319375351">
        <ele>535.11</ele>
        <time>2018-11-09T12:46:38Z</time>
      </trkpt>
      <trkpt lat="37.0842408668" lon="-2.2319475934">
        <ele>536.55</ele>
        <time>2018-11-09T12:47:00Z</time>
      </trkpt>
      <trkpt lat="37.0842274558" lon="-2.2319403850">
        <ele>536.07</ele>
        <time>2018-11-09T12:47:28Z</time>
      </trkpt>
      <trkpt lat="37.0842455607" lon="-2.2319528740">
        <ele>535.59</ele>
        <time>2018-11-09T12:47:57Z</time>
      </trkpt>
      <trkpt lat="37.0842457283" lon="-2.2319574840">
        <ele>536.07</ele>
        <time>2018-11-09T12:48:23Z</time>
      </trkpt>
      <trkpt lat="37.0842323173" lon="-2.2319517005">
        <ele>538.48</ele>
        <time>2018-11-09T12:48:44Z</time>
      </trkpt>
      <trkpt lat="37.0842307247" lon="-2.2319403850">
        <ele>537.03</ele>
        <time>2018-11-09T12:49:11Z</time>
      </trkpt>
      <trkpt lat="37.0842142124" lon="-2.2319364455">
        <ele>537.99</ele>
        <time>2018-11-09T12:49:17Z</time>
      </trkpt>
      <trkpt lat="37.0842106082" lon="-2.2319250461">
        <ele>537.99</ele>
        <time>2018-11-09T12:49:18Z</time>
      </trkpt>
      <trkpt lat="37.0842083450" lon="-2.2319136467">
        <ele>537.99</ele>
        <time>2018-11-09T12:49:19Z</time>
      </trkpt>
      <trkpt lat="37.0841538627" lon="-2.2318595834">
        <ele>538.48</ele>
        <time>2018-11-09T12:49:27Z</time>
      </trkpt>
      <trkpt lat="37.0841496717" lon="-2.2318699770">
        <ele>537.51</ele>
        <time>2018-11-09T12:49:35Z</time>
      </trkpt>
      <trkpt lat="37.0841478277" lon="-2.2318786103">
        <ele>537.51</ele>
        <time>2018-11-09T12:49:38Z</time>
      </trkpt>
      <trkpt lat="37.0841499232" lon="-2.2320113797">
        <ele>537.99</ele>
        <time>2018-11-09T12:49:43Z</time>
      </trkpt>
      <trkpt lat="37.0841570478" lon="-2.2323206719">
        <ele>537.99</ele>
        <time>2018-11-09T12:49:50Z</time>
      </trkpt>
      <trkpt lat="37.0841726381" lon="-2.2328923177">
        <ele>537.99</ele>
        <time>2018-11-09T12:50:01Z</time>
      </trkpt>
      <trkpt lat="37.0841840375" lon="-2.2333469521">
        <ele>538.48</ele>
        <time>2018-11-09T12:50:10Z</time>
      </trkpt>
      <trkpt lat="37.0841911621" lon="-2.2337434161">
        <ele>538.48</ele>
        <time>2018-11-09T12:50:19Z</time>
      </trkpt>
      <trkpt lat="37.0841991249" lon="-2.2342013195">
        <ele>538.96</ele>
        <time>2018-11-09T12:50:29Z</time>
      </trkpt>
      <trkpt lat="37.0842103567" lon="-2.2346367594">
        <ele>538.96</ele>
        <time>2018-11-09T12:50:39Z</time>
      </trkpt>
      <trkpt lat="37.0842197444" lon="-2.2350466345">
        <ele>539.92</ele>
        <time>2018-11-09T12:50:49Z</time>
      </trkpt>
      <trkpt lat="37.0842314791" lon="-2.2354258318">
        <ele>540.40</ele>
        <time>2018-11-09T12:50:58Z</time>
      </trkpt>
      <trkpt lat="37.0842391066" lon="-2.2358081304">
        <ele>540.88</ele>
        <time>2018-11-09T12:51:07Z</time>
      </trkpt>
      <trkpt lat="37.0842468180" lon="-2.2361706477">
        <ele>540.88</ele>
        <time>2018-11-09T12:51:16Z</time>
      </trkpt>
      <trkpt lat="37.0842590556" lon="-2.2366631683">
        <ele>540.88</ele>
        <time>2018-11-09T12:51:28Z</time>
      </trkpt>
      <trkpt lat="37.0842703711" lon="-2.2371280286">
        <ele>540.40</ele>
        <time>2018-11-09T12:51:39Z</time>
      </trkpt>
      <trkpt lat="37.0842819382" lon="-2.2375057172">
        <ele>539.92</ele>
        <time>2018-11-09T12:51:48Z</time>
      </trkpt>
      <trkpt lat="37.0842894819" lon="-2.2379381396">
        <ele>539.92</ele>
        <time>2018-11-09T12:51:58Z</time>
      </trkpt>
      <trkpt lat="37.0843046531" lon="-2.2383881640">
        <ele>540.40</ele>
        <time>2018-11-09T12:52:08Z</time>
      </trkpt>
      <trkpt lat="37.0843132865" lon="-2.2387761623">
        <ele>540.88</ele>
        <time>2018-11-09T12:52:17Z</time>
      </trkpt>
      <trkpt lat="37.0843151305" lon="-2.2391943354">
        <ele>541.84</ele>
        <time>2018-11-09T12:52:27Z</time>
      </trkpt>
      <trkpt lat="37.0843330678" lon="-2.2396046296">
        <ele>540.88</ele>
        <time>2018-11-09T12:52:37Z</time>
      </trkpt>
      <trkpt lat="37.0843410306" lon="-2.2399471980">
        <ele>541.36</ele>
        <time>2018-11-09T12:52:45Z</time>
      </trkpt>
      <trkpt lat="37.0843499992" lon="-2.2403135709">
        <ele>541.84</ele>
        <time>2018-11-09T12:52:54Z</time>
      </trkpt>
      <trkpt lat="37.0843609795" lon="-2.2406984679">
        <ele>541.84</ele>
        <time>2018-11-09T12:53:04Z</time>
      </trkpt>
      <trkpt lat="37.0843739714" lon="-2.2410743963">
        <ele>541.84</ele>
        <time>2018-11-09T12:53:14Z</time>
      </trkpt>
      <trkpt lat="37.0843765698" lon="-2.2414385062">
        <ele>542.32</ele>
        <time>2018-11-09T12:53:24Z</time>
      </trkpt>
      <trkpt lat="37.0843852870" lon="-2.2417807393">
        <ele>542.32</ele>
        <time>2018-11-09T12:53:34Z</time>
      </trkpt>
      <trkpt lat="37.0843987819" lon="-2.2421274148">
        <ele>542.80</ele>
        <time>2018-11-09T12:53:43Z</time>
      </trkpt>
      <trkpt lat="37.0844125282" lon="-2.2425473481">
        <ele>542.80</ele>
        <time>2018-11-09T12:53:53Z</time>
      </trkpt>
      <trkpt lat="37.0844167192" lon="-2.2429236118">
        <ele>543.28</ele>
        <time>2018-11-09T12:54:02Z</time>
      </trkpt>
      <trkpt lat="37.0844266936" lon="-2.2432877216">
        <ele>543.76</ele>
        <time>2018-11-09T12:54:10Z</time>
      </trkpt>
      <trkpt lat="37.0844365004" lon="-2.2436917294">
        <ele>543.28</ele>
        <time>2018-11-09T12:54:19Z</time>
      </trkpt>
      <trkpt lat="37.0844492409" lon="-2.2441537399">
        <ele>542.80</ele>
        <time>2018-11-09T12:54:29Z</time>
      </trkpt>
      <trkpt lat="37.0844602212" lon="-2.2445787024">
        <ele>543.28</ele>
        <time>2018-11-09T12:54:38Z</time>
      </trkpt>
      <trkpt lat="37.0844665915" lon="-2.2449580673">
        <ele>542.80</ele>
        <time>2018-11-09T12:54:47Z</time>
      </trkpt>
      <trkpt lat="37.0844784100" lon="-2.2454108577">
        <ele>543.28</ele>
        <time>2018-11-09T12:54:58Z</time>
      </trkpt>
      <trkpt lat="37.0844848640" lon="-2.2458354011">
        <ele>543.28</ele>
        <time>2018-11-09T12:55:08Z</time>
      </trkpt>
      <trkpt lat="37.0844962634" lon="-2.2463131696">
        <ele>543.76</ele>
        <time>2018-11-09T12:55:20Z</time>
      </trkpt>
      <trkpt lat="37.0845081657" lon="-2.2465970647">
        <ele>543.76</ele>
        <time>2018-11-09T12:55:28Z</time>
      </trkpt>
      <trkpt lat="37.0845212415" lon="-2.2469869070">
        <ele>542.32</ele>
        <time>2018-11-09T12:55:38Z</time>
      </trkpt>
      <trkpt lat="37.0845228340" lon="-2.2473835386">
        <ele>543.76</ele>
        <time>2018-11-09T12:55:47Z</time>
      </trkpt>
      <trkpt lat="37.0845313836" lon="-2.2477035597">
        <ele>544.72</ele>
        <time>2018-11-09T12:55:55Z</time>
      </trkpt>
      <trkpt lat="37.0845410228" lon="-2.2480513249">
        <ele>544.72</ele>
        <time>2018-11-09T12:56:04Z</time>
      </trkpt>
      <trkpt lat="37.0845468901" lon="-2.2484419215">
        <ele>545.69</ele>
        <time>2018-11-09T12:56:13Z</time>
      </trkpt>
      <trkpt lat="37.0845513325" lon="-2.2488058638">
        <ele>545.69</ele>
        <time>2018-11-09T12:56:22Z</time>
      </trkpt>
      <trkpt lat="37.0845642406" lon="-2.2491419781">
        <ele>546.17</ele>
        <time>2018-11-09T12:56:30Z</time>
      </trkpt>
      <trkpt lat="37.0845785737" lon="-2.2495599836">
        <ele>545.20</ele>
        <time>2018-11-09T12:56:39Z</time>
      </trkpt>
      <trkpt lat="37.0845824294" lon="-2.2499080002">
        <ele>546.17</ele>
        <time>2018-11-09T12:56:47Z</time>
      </trkpt>
      <trkpt lat="37.0845912304" lon="-2.2502571065">
        <ele>546.17</ele>
        <time>2018-11-09T12:56:55Z</time>
      </trkpt>
      <trkpt lat="37.0846041385" lon="-2.2507041972">
        <ele>547.61</ele>
        <time>2018-11-09T12:57:07Z</time>
      </trkpt>
      <trkpt lat="37.0846066531" lon="-2.2510287445">
        <ele>548.57</ele>
        <time>2018-11-09T12:57:16Z</time>
      </trkpt>
      <trkpt lat="37.0846095867" lon="-2.2514472529">
        <ele>549.53</ele>
        <time>2018-11-09T12:57:28Z</time>
      </trkpt>
      <trkpt lat="37.0846255962" lon="-2.2519181482">
        <ele>549.05</ele>
        <time>2018-11-09T12:57:40Z</time>
      </trkpt>
      <trkpt lat="37.0846421923" lon="-2.2522973455">
        <ele>548.09</ele>
        <time>2018-11-09T12:57:49Z</time>
      </trkpt>
      <trkpt lat="37.0846556872" lon="-2.2526654787">
        <ele>548.57</ele>
        <time>2018-11-09T12:57:58Z</time>
      </trkpt>
      <trkpt lat="37.0846609678" lon="-2.2530720849">
        <ele>549.53</ele>
        <time>2018-11-09T12:58:08Z</time>
      </trkpt>
      <trkpt lat="37.0846710261" lon="-2.2534351051">
        <ele>550.01</ele>
        <time>2018-11-09T12:58:17Z</time>
      </trkpt>
      <trkpt lat="37.0846742950" lon="-2.2538427170">
        <ele>550.01</ele>
        <time>2018-11-09T12:58:27Z</time>
      </trkpt>
      <trkpt lat="37.0846883766" lon="-2.2542126942">
        <ele>549.53</ele>
        <time>2018-11-09T12:58:36Z</time>
      </trkpt>
      <trkpt lat="37.0847048052" lon="-2.2546397522">
        <ele>550.01</ele>
        <time>2018-11-09T12:58:46Z</time>
      </trkpt>
      <trkpt lat="37.0847098343" lon="-2.2550342884">
        <ele>550.01</ele>
        <time>2018-11-09T12:58:56Z</time>
      </trkpt>
      <trkpt lat="37.0847201440" lon="-2.2553452570">
        <ele>549.53</ele>
        <time>2018-11-09T12:59:04Z</time>
      </trkpt>
      <trkpt lat="37.0847226586" lon="-2.2556212731">
        <ele>551.45</ele>
        <time>2018-11-09T12:59:11Z</time>
      </trkpt>
      <trkpt lat="37.0847299509" lon="-2.2559648473">
        <ele>551.93</ele>
        <time>2018-11-09T12:59:20Z</time>
      </trkpt>
      <trkpt lat="37.0847337227" lon="-2.2563546058">
        <ele>551.45</ele>
        <time>2018-11-09T12:59:30Z</time>
      </trkpt>
      <trkpt lat="37.0847360697" lon="-2.2567971703">
        <ele>552.41</ele>
        <time>2018-11-09T12:59:41Z</time>
      </trkpt>
      <trkpt lat="37.0847483072" lon="-2.2572004236">
        <ele>552.41</ele>
        <time>2018-11-09T12:59:51Z</time>
      </trkpt>
      <trkpt lat="37.0847600419" lon="-2.2575757653">
        <ele>551.93</ele>
        <time>2018-11-09T13:00:00Z</time>
      </trkpt>
      <trkpt lat="37.0847766381" lon="-2.2580833733">
        <ele>552.41</ele>
        <time>2018-11-09T13:00:12Z</time>
      </trkpt>
      <trkpt lat="37.0847863611" lon="-2.2584560327">
        <ele>552.90</ele>
        <time>2018-11-09T13:00:21Z</time>
      </trkpt>
      <trkpt lat="37.0848011971" lon="-2.2588737868">
        <ele>552.41</ele>
        <time>2018-11-09T13:00:31Z</time>
      </trkpt>
      <trkpt lat="37.0848115068" lon="-2.2592397407">
        <ele>551.93</ele>
        <time>2018-11-09T13:00:39Z</time>
      </trkpt>
      <trkpt lat="37.0848184638" lon="-2.2595388908">
        <ele>552.41</ele>
        <time>2018-11-09T13:00:46Z</time>
      </trkpt>
      <trkpt lat="37.0848278515" lon="-2.2598843928">
        <ele>553.38</ele>
        <time>2018-11-09T13:00:55Z</time>
      </trkpt>
      <trkpt lat="37.0848365687" lon="-2.2601982113">
        <ele>554.34</ele>
        <time>2018-11-09T13:01:03Z</time>
      </trkpt>
      <trkpt lat="37.0848374069" lon="-2.2605563700">
        <ele>554.82</ele>
        <time>2018-11-09T13:01:12Z</time>
      </trkpt>
      <trkpt lat="37.0848449506" lon="-2.2608502395">
        <ele>554.34</ele>
        <time>2018-11-09T13:01:20Z</time>
      </trkpt>
      <trkpt lat="37.0848555956" lon="-2.2612032015">
        <ele>556.26</ele>
        <time>2018-11-09T13:01:29Z</time>
      </trkpt>
      <trkpt lat="37.0848605409" lon="-2.2615026869">
        <ele>556.74</ele>
        <time>2018-11-09T13:01:37Z</time>
      </trkpt>
      <trkpt lat="37.0848664083" lon="-2.2618090454">
        <ele>557.22</ele>
        <time>2018-11-09T13:01:45Z</time>
      </trkpt>
      <trkpt lat="37.0848742034" lon="-2.2621656116">
        <ele>557.70</ele>
        <time>2018-11-09T13:01:54Z</time>
      </trkpt>
      <trkpt lat="37.0848879497" lon="-2.2624941822">
        <ele>558.66</ele>
        <time>2018-11-09T13:02:03Z</time>
      </trkpt>
      <trkpt lat="37.0848883688" lon="-2.2626771592">
        <ele>559.14</ele>
        <time>2018-11-09T13:02:10Z</time>
      </trkpt>
      <trkpt lat="37.0848954096" lon="-2.2629228327">
        <ele>559.14</ele>
        <time>2018-11-09T13:02:17Z</time>
      </trkpt>
      <trkpt lat="37.0849078987" lon="-2.2633162793">
        <ele>558.66</ele>
        <time>2018-11-09T13:02:28Z</time>
      </trkpt>
      <trkpt lat="37.0849227346" lon="-2.2634861805">
        <ele>558.18</ele>
        <time>2018-11-09T13:02:35Z</time>
      </trkpt>
      <trkpt lat="37.0849172864" lon="-2.2634804808">
        <ele>557.22</ele>
        <time>2018-11-09T13:02:46Z</time>
      </trkpt>
      <trkpt lat="37.0849167835" lon="-2.2634806484">
        <ele>556.74</ele>
        <time>2018-11-09T13:02:56Z</time>
      </trkpt>
      <trkpt lat="37.0849205554" lon="-2.2634816542">
        <ele>556.74</ele>
        <time>2018-11-09T13:03:08Z</time>
      </trkpt>
      <trkpt lat="37.0849244948" lon="-2.2634710930">
        <ele>556.74</ele>
        <time>2018-11-09T13:03:21Z</time>
      </trkpt>
      <trkpt lat="37.0849160291" lon="-2.2634723503">
        <ele>557.22</ele>
        <time>2018-11-09T13:03:32Z</time>
      </trkpt>
      <trkpt lat="37.0849172864" lon="-2.2634782176">
        <ele>557.22</ele>
        <time>2018-11-09T13:03:47Z</time>
      </trkpt>
      <trkpt lat="37.0849280991" lon="-2.2634948138">
        <ele>556.74</ele>
        <time>2018-11-09T13:04:01Z</time>
      </trkpt>
      <trkpt lat="37.0849261712" lon="-2.2634897009">
        <ele>555.78</ele>
        <time>2018-11-09T13:04:19Z</time>
      </trkpt>
      <trkpt lat="37.0849275962" lon="-2.2634840012">
        <ele>554.82</ele>
        <time>2018-11-09T13:04:29Z</time>
      </trkpt>
      <trkpt lat="37.0849236567" lon="-2.2634915449">
        <ele>555.78</ele>
        <time>2018-11-09T13:04:46Z</time>
      </trkpt>
      <trkpt lat="37.0849150233" lon="-2.2634881083">
        <ele>555.78</ele>
        <time>2018-11-09T13:05:00Z</time>
      </trkpt>
      <trkpt lat="37.0849165320" lon="-2.2634935565">
        <ele>556.26</ele>
        <time>2018-11-09T13:05:14Z</time>
      </trkpt>
      <trkpt lat="37.0849225670" lon="-2.2635278385">
        <ele>556.26</ele>
        <time>2018-11-09T13:05:17Z</time>
      </trkpt>
      <trkpt lat="37.0849303622" lon="-2.2635446023">
        <ele>556.26</ele>
        <time>2018-11-09T13:05:18Z</time>
      </trkpt>
      <trkpt lat="37.0849352237" lon="-2.2635653894">
        <ele>555.78</ele>
        <time>2018-11-09T13:05:19Z</time>
      </trkpt>
      <trkpt lat="37.0849369839" lon="-2.2635947261">
        <ele>556.26</ele>
        <time>2018-11-09T13:05:20Z</time>
      </trkpt>
      <trkpt lat="37.0849379897" lon="-2.2636256553">
        <ele>556.26</ele>
        <time>2018-11-09T13:05:21Z</time>
      </trkpt>
      <trkpt lat="37.0849376544" lon="-2.2638523858">
        <ele>557.22</ele>
        <time>2018-11-09T13:05:29Z</time>
      </trkpt>
      <trkpt lat="37.0849455334" lon="-2.2640812118">
        <ele>557.70</ele>
        <time>2018-11-09T13:05:38Z</time>
      </trkpt>
      <trkpt lat="37.0849584416" lon="-2.2644141410">
        <ele>558.66</ele>
        <time>2018-11-09T13:05:47Z</time>
      </trkpt>
      <trkpt lat="37.0849659014" lon="-2.2648586333">
        <ele>559.62</ele>
        <time>2018-11-09T13:05:58Z</time>
      </trkpt>
      <trkpt lat="37.0849798992" lon="-2.2653042991">
        <ele>559.14</ele>
        <time>2018-11-09T13:06:08Z</time>
      </trkpt>
      <trkpt lat="37.0849887002" lon="-2.2656811494">
        <ele>558.66</ele>
        <time>2018-11-09T13:06:17Z</time>
      </trkpt>
      <trkpt lat="37.0850047935" lon="-2.2659673076">
        <ele>558.18</ele>
        <time>2018-11-09T13:06:25Z</time>
      </trkpt>
      <trkpt lat="37.0849980880" lon="-2.2663010750">
        <ele>558.66</ele>
        <time>2018-11-09T13:06:33Z</time>
      </trkpt>
      <trkpt lat="37.0850043744" lon="-2.2667365987">
        <ele>559.14</ele>
        <time>2018-11-09T13:06:43Z</time>
      </trkpt>
      <trkpt lat="37.0850273408" lon="-2.2669153847">
        <ele>558.66</ele>
        <time>2018-11-09T13:06:50Z</time>
      </trkpt>
      <trkpt lat="37.0850223117" lon="-2.2669070866">
        <ele>558.18</ele>
        <time>2018-11-09T13:06:58Z</time>
      </trkpt>
      <trkpt lat="37.0850136783" lon="-2.2669022251">
        <ele>558.18</ele>
        <time>2018-11-09T13:07:18Z</time>
      </trkpt>
      <trkpt lat="37.0850176178" lon="-2.2669150494">
        <ele>557.22</ele>
        <time>2018-11-09T13:07:35Z</time>
      </trkpt>
      <trkpt lat="37.0850108285" lon="-2.2669646703">
        <ele>557.22</ele>
        <time>2018-11-09T13:07:38Z</time>
      </trkpt>
      <trkpt lat="37.0850101579" lon="-2.2669870500">
        <ele>557.22</ele>
        <time>2018-11-09T13:07:39Z</time>
      </trkpt>
      <trkpt lat="37.0850093197" lon="-2.2670090105">
        <ele>557.22</ele>
        <time>2018-11-09T13:07:40Z</time>
      </trkpt>
      <trkpt lat="37.0850112475" lon="-2.2670318093">
        <ele>557.22</ele>
        <time>2018-11-09T13:07:41Z</time>
      </trkpt>
      <trkpt lat="37.0850137621" lon="-2.2670603916">
        <ele>557.22</ele>
        <time>2018-11-09T13:07:42Z</time>
      </trkpt>
      <trkpt lat="37.0850146003" lon="-2.2670922428">
        <ele>557.22</ele>
        <time>2018-11-09T13:07:43Z</time>
      </trkpt>
      <trkpt lat="37.0850141812" lon="-2.2671246808">
        <ele>556.74</ele>
        <time>2018-11-09T13:07:44Z</time>
      </trkpt>
      <trkpt lat="37.0850371476" lon="-2.2674041335">
        <ele>556.26</ele>
        <time>2018-11-09T13:07:51Z</time>
      </trkpt>
      <trkpt lat="37.0850429311" lon="-2.2678279225">
        <ele>556.26</ele>
        <time>2018-11-09T13:08:01Z</time>
      </trkpt>
      <trkpt lat="37.0850534085" lon="-2.2681019269">
        <ele>556.26</ele>
        <time>2018-11-09T13:08:08Z</time>
      </trkpt>
      <trkpt lat="37.0850705914" lon="-2.2684144881">
        <ele>555.78</ele>
        <time>2018-11-09T13:08:17Z</time>
      </trkpt>
      <trkpt lat="37.0850748662" lon="-2.2688622493">
        <ele>555.78</ele>
        <time>2018-11-09T13:08:28Z</time>
      </trkpt>
      <trkpt lat="37.0850789733" lon="-2.2691964358">
        <ele>555.30</ele>
        <time>2018-11-09T13:08:36Z</time>
      </trkpt>
      <trkpt lat="37.0850643888" lon="-2.2696415987">
        <ele>554.34</ele>
        <time>2018-11-09T13:08:46Z</time>
      </trkpt>
      <trkpt lat="37.0850596111" lon="-2.2702000011">
        <ele>553.38</ele>
        <time>2018-11-09T13:08:58Z</time>
      </trkpt>
      <trkpt lat="37.0850671548" lon="-2.2704791185">
        <ele>552.90</ele>
        <time>2018-11-09T13:09:06Z</time>
      </trkpt>
      <trkpt lat="37.0850735251" lon="-2.2707491834">
        <ele>552.90</ele>
        <time>2018-11-09T13:09:14Z</time>
      </trkpt>
      <trkpt lat="37.0850828290" lon="-2.2710322402">
        <ele>552.90</ele>
        <time>2018-11-09T13:09:22Z</time>
      </trkpt>
      <trkpt lat="37.0850836672" lon="-2.2713620681">
        <ele>551.45</ele>
        <time>2018-11-09T13:09:31Z</time>
      </trkpt>
      <trkpt lat="37.0850923844" lon="-2.2717304528">
        <ele>550.97</ele>
        <time>2018-11-09T13:09:40Z</time>
      </trkpt>
      <trkpt lat="37.0850972459" lon="-2.2721277550">
        <ele>551.45</ele>
        <time>2018-11-09T13:09:49Z</time>
      </trkpt>
      <trkpt lat="37.0851028617" lon="-2.2725036833">
        <ele>551.45</ele>
        <time>2018-11-09T13:09:57Z</time>
      </trkpt>
      <trkpt lat="37.0851176139" lon="-2.2728659492">
        <ele>550.97</ele>
        <time>2018-11-09T13:10:05Z</time>
      </trkpt>
      <trkpt lat="37.0851326175" lon="-2.2733511776">
        <ele>551.45</ele>
        <time>2018-11-09T13:10:15Z</time>
      </trkpt>
      <trkpt lat="37.0851399936" lon="-2.2738257609">
        <ele>551.45</ele>
        <time>2018-11-09T13:10:25Z</time>
      </trkpt>
      <trkpt lat="37.0851450227" lon="-2.2742461134">
        <ele>550.97</ele>
        <time>2018-11-09T13:10:34Z</time>
      </trkpt>
      <trkpt lat="37.0851570088" lon="-2.2746331897">
        <ele>550.01</ele>
        <time>2018-11-09T13:10:42Z</time>
      </trkpt>
      <trkpt lat="37.0851677377" lon="-2.2750653606">
        <ele>549.53</ele>
        <time>2018-11-09T13:10:51Z</time>
      </trkpt>
      <trkpt lat="37.0851794723" lon="-2.2755004652">
        <ele>549.53</ele>
        <time>2018-11-09T13:11:00Z</time>
      </trkpt>
      <trkpt lat="37.0851907879" lon="-2.2758457158">
        <ele>549.53</ele>
        <time>2018-11-09T13:11:08Z</time>
      </trkpt>
      <trkpt lat="37.0852012653" lon="-2.2763715126">
        <ele>549.53</ele>
        <time>2018-11-09T13:11:20Z</time>
      </trkpt>
      <trkpt lat="37.0852192864" lon="-2.2767820582">
        <ele>548.57</ele>
        <time>2018-11-09T13:11:29Z</time>
      </trkpt>
      <trkpt lat="37.0852293447" lon="-2.2772247903">
        <ele>548.09</ele>
        <time>2018-11-09T13:11:39Z</time>
      </trkpt>
      <trkpt lat="37.0852511376" lon="-2.2775196657">
        <ele>547.13</ele>
        <time>2018-11-09T13:11:46Z</time>
      </trkpt>
      <trkpt lat="37.0852926280" lon="-2.2780247591">
        <ele>545.20</ele>
        <time>2018-11-09T13:11:56Z</time>
      </trkpt>
      <trkpt lat="37.0853487030" lon="-2.2785264160">
        <ele>543.28</ele>
        <time>2018-11-09T13:12:04Z</time>
      </trkpt>
      <trkpt lat="37.0853997488" lon="-2.2790223733">
        <ele>541.84</ele>
        <time>2018-11-09T13:12:12Z</time>
      </trkpt>
      <trkpt lat="37.0854470227" lon="-2.2794371936">
        <ele>541.84</ele>
        <time>2018-11-09T13:12:20Z</time>
      </trkpt>
      <trkpt lat="37.0854876749" lon="-2.2798818536">
        <ele>542.32</ele>
        <time>2018-11-09T13:12:30Z</time>
      </trkpt>
      <trkpt lat="37.0855264831" lon="-2.2802304570">
        <ele>542.32</ele>
        <time>2018-11-09T13:12:38Z</time>
      </trkpt>
      <trkpt lat="37.0855657104" lon="-2.2805928066">
        <ele>541.84</ele>
        <time>2018-11-09T13:12:47Z</time>
      </trkpt>
      <trkpt lat="37.0856020879" lon="-2.2809480317">
        <ele>542.32</ele>
        <time>2018-11-09T13:12:57Z</time>
      </trkpt>
      <trkpt lat="37.0856579952" lon="-2.2814347688">
        <ele>542.32</ele>
        <time>2018-11-09T13:13:08Z</time>
      </trkpt>
      <trkpt lat="37.0857098792" lon="-2.2818953544">
        <ele>541.84</ele>
        <time>2018-11-09T13:13:18Z</time>
      </trkpt>
      <trkpt lat="37.0857493579" lon="-2.2822995298">
        <ele>541.36</ele>
        <time>2018-11-09T13:13:27Z</time>
      </trkpt>
      <trkpt lat="37.0857977215" lon="-2.2827123385">
        <ele>540.88</ele>
        <time>2018-11-09T13:13:36Z</time>
      </trkpt>
      <trkpt lat="37.0858454984" lon="-2.2831260692">
        <ele>539.44</ele>
        <time>2018-11-09T13:13:45Z</time>
      </trkpt>
      <trkpt lat="37.0858853124" lon="-2.2835919354">
        <ele>538.96</ele>
        <time>2018-11-09T13:13:56Z</time>
      </trkpt>
      <trkpt lat="37.0859439019" lon="-2.2840597294">
        <ele>537.03</ele>
        <time>2018-11-09T13:14:05Z</time>
      </trkpt>
      <trkpt lat="37.0860241167" lon="-2.2848198004">
        <ele>535.11</ele>
        <time>2018-11-09T13:14:19Z</time>
      </trkpt>
      <trkpt lat="37.0860982127" lon="-2.2854621895">
        <ele>533.19</ele>
        <time>2018-11-09T13:14:30Z</time>
      </trkpt>
      <trkpt lat="37.0861787628" lon="-2.2862074245">
        <ele>531.27</ele>
        <time>2018-11-09T13:14:42Z</time>
      </trkpt>
      <trkpt lat="37.0862609055" lon="-2.2869809903">
        <ele>528.86</ele>
        <time>2018-11-09T13:14:54Z</time>
      </trkpt>
      <trkpt lat="37.0863547828" lon="-2.2877961304">
        <ele>526.46</ele>
        <time>2018-11-09T13:15:06Z</time>
      </trkpt>
      <trkpt lat="37.0864120312" lon="-2.2883474920">
        <ele>524.54</ele>
        <time>2018-11-09T13:15:14Z</time>
      </trkpt>
      <trkpt lat="37.0864930842" lon="-2.2890808247">
        <ele>522.61</ele>
        <time>2018-11-09T13:15:25Z</time>
      </trkpt>
      <trkpt lat="37.0865769032" lon="-2.2898631077">
        <ele>520.69</ele>
        <time>2018-11-09T13:15:37Z</time>
      </trkpt>
      <trkpt lat="37.0866333973" lon="-2.2903677821">
        <ele>519.73</ele>
        <time>2018-11-09T13:15:46Z</time>
      </trkpt>
      <trkpt lat="37.0866815932" lon="-2.2908855323">
        <ele>519.25</ele>
        <time>2018-11-09T13:15:57Z</time>
      </trkpt>
      <trkpt lat="37.0867264364" lon="-2.2913192958">
        <ele>518.29</ele>
        <time>2018-11-09T13:16:07Z</time>
      </trkpt>
      <trkpt lat="37.0867817570" lon="-2.2918038536">
        <ele>517.81</ele>
        <time>2018-11-09T13:16:17Z</time>
      </trkpt>
      <trkpt lat="37.0868319646" lon="-2.2922453284">
        <ele>516.37</ele>
        <time>2018-11-09T13:16:27Z</time>
      </trkpt>
      <trkpt lat="37.0868788194" lon="-2.2926754039">
        <ele>515.40</ele>
        <time>2018-11-09T13:16:36Z</time>
      </trkpt>
      <trkpt lat="37.0869194716" lon="-2.2930345684">
        <ele>514.44</ele>
        <time>2018-11-09T13:16:44Z</time>
      </trkpt>
      <trkpt lat="37.0869775582" lon="-2.2935381532">
        <ele>513.48</ele>
        <time>2018-11-09T13:16:54Z</time>
      </trkpt>
      <trkpt lat="37.0870154444" lon="-2.2939635348">
        <ele>513.48</ele>
        <time>2018-11-09T13:17:03Z</time>
      </trkpt>
      <trkpt lat="37.0870627183" lon="-2.2944361065">
        <ele>512.52</ele>
        <time>2018-11-09T13:17:13Z</time>
      </trkpt>
      <trkpt lat="37.0870948210" lon="-2.2951160464">
        <ele>510.60</ele>
        <time>2018-11-09T13:17:26Z</time>
      </trkpt>
      <trkpt lat="37.0870852657" lon="-2.2955630533">
        <ele>509.64</ele>
        <time>2018-11-09T13:17:35Z</time>
      </trkpt>
      <trkpt lat="37.0870431885" lon="-2.2960850783">
        <ele>509.16</ele>
        <time>2018-11-09T13:17:43Z</time>
      </trkpt>
      <trkpt lat="37.0869711041" lon="-2.2968922555">
        <ele>508.19</ele>
        <time>2018-11-09T13:17:55Z</time>
      </trkpt>
      <trkpt lat="37.0869204774" lon="-2.2974629793">
        <ele>507.23</ele>
        <time>2018-11-09T13:18:04Z</time>
      </trkpt>
      <trkpt lat="37.0868721139" lon="-2.2980226390">
        <ele>506.75</ele>
        <time>2018-11-09T13:18:13Z</time>
      </trkpt>
      <trkpt lat="37.0868371613" lon="-2.2983952984">
        <ele>506.27</ele>
        <time>2018-11-09T13:18:20Z</time>
      </trkpt>
      <trkpt lat="37.0867860317" lon="-2.2990581393">
        <ele>506.27</ele>
        <time>2018-11-09T13:18:33Z</time>
      </trkpt>
      <trkpt lat="37.0867482293" lon="-2.2994337324">
        <ele>505.79</ele>
        <time>2018-11-09T13:18:41Z</time>
      </trkpt>
      <trkpt lat="37.0867219940" lon="-2.2997802403">
        <ele>505.31</ele>
        <time>2018-11-09T13:18:48Z</time>
      </trkpt>
      <trkpt lat="37.0866819285" lon="-2.3002062086">
        <ele>504.83</ele>
        <time>2018-11-09T13:18:56Z</time>
      </trkpt>
      <trkpt lat="37.0866378397" lon="-2.3007592466">
        <ele>503.87</ele>
        <time>2018-11-09T13:19:05Z</time>
      </trkpt>
      <trkpt lat="37.0865365863" lon="-2.3015535995">
        <ele>503.39</ele>
        <time>2018-11-09T13:19:17Z</time>
      </trkpt>
      <trkpt lat="37.0864387695" lon="-2.3020615429">
        <ele>502.91</ele>
        <time>2018-11-09T13:19:26Z</time>
      </trkpt>
      <trkpt lat="37.0863071736" lon="-2.3026332725">
        <ele>502.43</ele>
        <time>2018-11-09T13:19:37Z</time>
      </trkpt>
      <trkpt lat="37.0861676149" lon="-2.3032189999">
        <ele>501.46</ele>
        <time>2018-11-09T13:19:48Z</time>
      </trkpt>
      <trkpt lat="37.0860579796" lon="-2.3036766518">
        <ele>500.50</ele>
        <time>2018-11-09T13:19:57Z</time>
      </trkpt>
      <trkpt lat="37.0859586541" lon="-2.3040717747">
        <ele>499.54</ele>
        <time>2018-11-09T13:20:06Z</time>
      </trkpt>
      <trkpt lat="37.0858236216" lon="-2.3046324402">
        <ele>498.10</ele>
        <time>2018-11-09T13:20:17Z</time>
      </trkpt>
      <trkpt lat="37.0857029222" lon="-2.3051361926">
        <ele>497.14</ele>
        <time>2018-11-09T13:20:27Z</time>
      </trkpt>
      <trkpt lat="37.0855833963" lon="-2.3056350835">
        <ele>495.70</ele>
        <time>2018-11-09T13:20:37Z</time>
      </trkpt>
      <trkpt lat="37.0855737571" lon="-2.3056800943">
        <ele>495.70</ele>
        <time>2018-11-09T13:20:38Z</time>
      </trkpt>
      <trkpt lat="37.0854484476" lon="-2.3061860260">
        <ele>495.22</ele>
        <time>2018-11-09T13:20:48Z</time>
      </trkpt>
      <trkpt lat="37.0853252336" lon="-2.3066958971">
        <ele>494.26</ele>
        <time>2018-11-09T13:20:57Z</time>
      </trkpt>
      <trkpt lat="37.0852083061" lon="-2.3071771022">
        <ele>492.81</ele>
        <time>2018-11-09T13:21:06Z</time>
      </trkpt>
      <trkpt lat="37.0850829966" lon="-2.3076691199">
        <ele>492.81</ele>
        <time>2018-11-09T13:21:15Z</time>
      </trkpt>
      <trkpt lat="37.0849227346" lon="-2.3083539214">
        <ele>492.81</ele>
        <time>2018-11-09T13:21:27Z</time>
      </trkpt>
      <trkpt lat="37.0848159492" lon="-2.3088072147">
        <ele>492.81</ele>
        <time>2018-11-09T13:21:36Z</time>
      </trkpt>
      <trkpt lat="37.0846888795" lon="-2.3093278147">
        <ele>493.29</ele>
        <time>2018-11-09T13:21:48Z</time>
      </trkpt>
      <trkpt lat="37.0845576189" lon="-2.3098653462">
        <ele>492.81</ele>
        <time>2018-11-09T13:21:58Z</time>
      </trkpt>
      <trkpt lat="37.0844328962" lon="-2.3103664164">
        <ele>491.85</ele>
        <time>2018-11-09T13:22:08Z</time>
      </trkpt>
      <trkpt lat="37.0843255240" lon="-2.3108302709">
        <ele>491.37</ele>
        <time>2018-11-09T13:22:17Z</time>
      </trkpt>
      <trkpt lat="37.0842236839" lon="-2.3112271540">
        <ele>490.89</ele>
        <time>2018-11-09T13:22:25Z</time>
      </trkpt>
      <trkpt lat="37.0840996318" lon="-2.3117405456">
        <ele>490.89</ele>
        <time>2018-11-09T13:22:35Z</time>
      </trkpt>
      <trkpt lat="37.0839930978" lon="-2.3121852893">
        <ele>490.41</ele>
        <time>2018-11-09T13:22:44Z</time>
      </trkpt>
      <trkpt lat="37.0838913415" lon="-2.3126109224">
        <ele>490.89</ele>
        <time>2018-11-09T13:22:52Z</time>
      </trkpt>
      <trkpt lat="37.0837905072" lon="-2.3130541574">
        <ele>490.41</ele>
        <time>2018-11-09T13:23:01Z</time>
      </trkpt>
      <trkpt lat="37.0837152377" lon="-2.3133676406">
        <ele>489.93</ele>
        <time>2018-11-09T13:23:08Z</time>
      </trkpt>
      <trkpt lat="37.0836065244" lon="-2.3138277233">
        <ele>489.93</ele>
        <time>2018-11-09T13:23:18Z</time>
      </trkpt>
      <trkpt lat="37.0834904350" lon="-2.3142967746">
        <ele>490.41</ele>
        <time>2018-11-09T13:23:27Z</time>
      </trkpt>
      <trkpt lat="37.0833588392" lon="-2.3148202244">
        <ele>489.93</ele>
        <time>2018-11-09T13:23:36Z</time>
      </trkpt>
      <trkpt lat="37.0832406543" lon="-2.3153424170">
        <ele>489.45</ele>
        <time>2018-11-09T13:23:45Z</time>
      </trkpt>
      <trkpt lat="37.0831173565" lon="-2.3158458341">
        <ele>488.97</ele>
        <time>2018-11-09T13:23:54Z</time>
      </trkpt>
      <trkpt lat="37.0830303524" lon="-2.3161946889">
        <ele>488.97</ele>
        <time>2018-11-09T13:24:02Z</time>
      </trkpt>
      <trkpt lat="37.0829083957" lon="-2.3166973516">
        <ele>488.49</ele>
        <time>2018-11-09T13:24:12Z</time>
      </trkpt>
      <trkpt lat="37.0827968325" lon="-2.3171670735">
        <ele>488.97</ele>
        <time>2018-11-09T13:24:22Z</time>
      </trkpt>
      <trkpt lat="37.0826848503" lon="-2.3176121525">
        <ele>488.49</ele>
        <time>2018-11-09T13:24:32Z</time>
      </trkpt>
      <trkpt lat="37.0825576968" lon="-2.3181086127">
        <ele>488.01</ele>
        <time>2018-11-09T13:24:44Z</time>
      </trkpt>
      <trkpt lat="37.0824715309" lon="-2.3184897378">
        <ele>488.01</ele>
        <time>2018-11-09T13:24:52Z</time>
      </trkpt>
      <trkpt lat="37.0823613089" lon="-2.3189352360">
        <ele>487.05</ele>
        <time>2018-11-09T13:25:02Z</time>
      </trkpt>
      <trkpt lat="37.0822546072" lon="-2.3193629645">
        <ele>486.56</ele>
        <time>2018-11-09T13:25:12Z</time>
      </trkpt>
      <trkpt lat="37.0821522642" lon="-2.3197697382">
        <ele>486.56</ele>
        <time>2018-11-09T13:25:22Z</time>
      </trkpt>
      <trkpt lat="37.0820314810" lon="-2.3202687968">
        <ele>486.08</ele>
        <time>2018-11-09T13:25:33Z</time>
      </trkpt>
      <trkpt lat="37.0819063392" lon="-2.3208011314">
        <ele>486.08</ele>
        <time>2018-11-09T13:25:44Z</time>
      </trkpt>
      <trkpt lat="37.0817941055" lon="-2.3212664109">
        <ele>484.64</ele>
        <time>2018-11-09T13:25:54Z</time>
      </trkpt>
      <trkpt lat="37.0816801116" lon="-2.3217468616">
        <ele>484.64</ele>
        <time>2018-11-09T13:26:05Z</time>
      </trkpt>
      <trkpt lat="37.0816024952" lon="-2.3220333550">
        <ele>484.64</ele>
        <time>2018-11-09T13:26:13Z</time>
      </trkpt>
      <trkpt lat="37.0815045945" lon="-2.3224407155">
        <ele>484.16</ele>
        <time>2018-11-09T13:26:23Z</time>
      </trkpt>
      <trkpt lat="37.0814491063" lon="-2.3227282986">
        <ele>484.16</ele>
        <time>2018-11-09T13:26:31Z</time>
      </trkpt>
      <trkpt lat="37.0814325102" lon="-2.3228191584">
        <ele>484.16</ele>
        <time>2018-11-09T13:26:37Z</time>
      </trkpt>
      <trkpt lat="37.0814365335" lon="-2.3228141293">
        <ele>484.16</ele>
        <time>2018-11-09T13:26:47Z</time>
      </trkpt>
      <trkpt lat="37.0814423170" lon="-2.3228152189">
        <ele>484.16</ele>
        <time>2018-11-09T13:26:59Z</time>
      </trkpt>
      <trkpt lat="37.0814377069" lon="-2.3228144646">
        <ele>483.68</ele>
        <time>2018-11-09T13:27:20Z</time>
      </trkpt>
      <trkpt lat="37.0814363658" lon="-2.3228171468">
        <ele>484.16</ele>
        <time>2018-11-09T13:27:38Z</time>
      </trkpt>
      <trkpt lat="37.0814347733" lon="-2.3228166439">
        <ele>484.16</ele>
        <time>2018-11-09T13:27:47Z</time>
      </trkpt>
      <trkpt lat="37.0814469270" lon="-2.3228277080">
        <ele>480.32</ele>
        <time>2018-11-09T13:28:11Z</time>
      </trkpt>
      <trkpt lat="37.0814444125" lon="-2.3228229303">
        <ele>480.32</ele>
        <time>2018-11-09T13:28:29Z</time>
      </trkpt>
      <trkpt lat="37.0814487711" lon="-2.3228374310">
        <ele>479.35</ele>
        <time>2018-11-09T13:28:48Z</time>
      </trkpt>
      <trkpt lat="37.0814468432" lon="-2.3228339106">
        <ele>478.87</ele>
        <time>2018-11-09T13:29:05Z</time>
      </trkpt>
      <trkpt lat="37.0814501960" lon="-2.3228322342">
        <ele>479.84</ele>
        <time>2018-11-09T13:29:21Z</time>
      </trkpt>
      <trkpt lat="37.0814498607" lon="-2.3228348326">
        <ele>480.80</ele>
        <time>2018-11-09T13:29:41Z</time>
      </trkpt>
      <trkpt lat="37.0814538002" lon="-2.3228319827">
        <ele>480.80</ele>
        <time>2018-11-09T13:29:59Z</time>
      </trkpt>
      <trkpt lat="37.0814433228" lon="-2.3228417896">
        <ele>479.84</ele>
        <time>2018-11-09T13:30:21Z</time>
      </trkpt>
      <trkpt lat="37.0814512018" lon="-2.3228324857">
        <ele>479.84</ele>
        <time>2018-11-09T13:30:40Z</time>
      </trkpt>
      <trkpt lat="37.0814519562" lon="-2.3228319827">
        <ele>480.32</ele>
        <time>2018-11-09T13:30:56Z</time>
      </trkpt>
      <trkpt lat="37.0814517047" lon="-2.3228353355">
        <ele>481.28</ele>
        <time>2018-11-09T13:31:16Z</time>
      </trkpt>
      <trkpt lat="37.0814247988" lon="-2.3228530213">
        <ele>481.76</ele>
        <time>2018-11-09T13:31:33Z</time>
      </trkpt>
      <trkpt lat="37.0814153273" lon="-2.3228686955">
        <ele>482.24</ele>
        <time>2018-11-09T13:31:40Z</time>
      </trkpt>
      <trkpt lat="37.0813745074" lon="-2.3230301309">
        <ele>483.20</ele>
        <time>2018-11-09T13:31:46Z</time>
      </trkpt>
      <trkpt lat="37.0812787022" lon="-2.3234265111">
        <ele>483.20</ele>
        <time>2018-11-09T13:31:54Z</time>
      </trkpt>
      <trkpt lat="37.0811650436" lon="-2.3238710035">
        <ele>483.20</ele>
        <time>2018-11-09T13:32:03Z</time>
      </trkpt>
      <trkpt lat="37.0810617786" lon="-2.3242848180">
        <ele>483.20</ele>
        <time>2018-11-09T13:32:13Z</time>
      </trkpt>
      <trkpt lat="37.0809614472" lon="-2.3247043323">
        <ele>482.72</ele>
        <time>2018-11-09T13:32:24Z</time>
      </trkpt>
      <trkpt lat="37.0808796398" lon="-2.3250352498">
        <ele>482.72</ele>
        <time>2018-11-09T13:32:32Z</time>
      </trkpt>
      <trkpt lat="37.0807860140" lon="-2.3254200630">
        <ele>482.24</ele>
        <time>2018-11-09T13:32:41Z</time>
      </trkpt>
      <trkpt lat="37.0807080623" lon="-2.3257446103">
        <ele>481.28</ele>
        <time>2018-11-09T13:32:49Z</time>
      </trkpt>
      <trkpt lat="37.0805940684" lon="-2.3262048606">
        <ele>480.80</ele>
        <time>2018-11-09T13:32:58Z</time>
      </trkpt>
      <trkpt lat="37.0804767217" lon="-2.3266719002">
        <ele>480.32</ele>
        <time>2018-11-09T13:33:07Z</time>
      </trkpt>
      <trkpt lat="37.0803989377" lon="-2.3270111997">
        <ele>479.84</ele>
        <time>2018-11-09T13:33:15Z</time>
      </trkpt>
      <trkpt lat="37.0803053956" lon="-2.3274096753">
        <ele>479.35</ele>
        <time>2018-11-09T13:33:24Z</time>
      </trkpt>
      <trkpt lat="37.0801800862" lon="-2.3279314488">
        <ele>478.87</ele>
        <time>2018-11-09T13:33:35Z</time>
      </trkpt>
      <trkpt lat="37.0800678525" lon="-2.3284005839">
        <ele>478.39</ele>
        <time>2018-11-09T13:33:45Z</time>
      </trkpt>
      <trkpt lat="37.0799686108" lon="-2.3288035858">
        <ele>478.39</ele>
        <time>2018-11-09T13:33:55Z</time>
      </trkpt>
      <trkpt lat="37.0799016394" lon="-2.3290947732">
        <ele>478.39</ele>
        <time>2018-11-09T13:34:02Z</time>
      </trkpt>
      <trkpt lat="37.0798078459" lon="-2.3294820171">
        <ele>478.39</ele>
        <time>2018-11-09T13:34:12Z</time>
      </trkpt>
      <trkpt lat="37.0797319058" lon="-2.3298005294">
        <ele>478.39</ele>
        <time>2018-11-09T13:34:20Z</time>
      </trkpt>
      <trkpt lat="37.0796262939" lon="-2.3302358855">
        <ele>477.91</ele>
        <time>2018-11-09T13:34:30Z</time>
      </trkpt>
      <trkpt lat="37.0795188379" lon="-2.3306952976">
        <ele>477.91</ele>
        <time>2018-11-09T13:34:41Z</time>
      </trkpt>
      <trkpt lat="37.0794343483" lon="-2.3310425598">
        <ele>477.91</ele>
        <time>2018-11-09T13:34:49Z</time>
      </trkpt>
      <trkpt lat="37.0793353580" lon="-2.3314777482">
        <ele>477.43</ele>
        <time>2018-11-09T13:34:59Z</time>
      </trkpt>
      <trkpt lat="37.0792412292" lon="-2.3318365775">
        <ele>477.43</ele>
        <time>2018-11-09T13:35:07Z</time>
      </trkpt>
      <trkpt lat="37.0791511238" lon="-2.3322206363">
        <ele>477.43</ele>
        <time>2018-11-09T13:35:15Z</time>
      </trkpt>
      <trkpt lat="37.0790212881" lon="-2.3327264842">
        <ele>477.43</ele>
        <time>2018-11-09T13:35:26Z</time>
      </trkpt>
      <trkpt lat="37.0789536461" lon="-2.3330511153">
        <ele>477.43</ele>
        <time>2018-11-09T13:35:34Z</time>
      </trkpt>
      <trkpt lat="37.0788539015" lon="-2.3334558774">
        <ele>477.91</ele>
        <time>2018-11-09T13:35:43Z</time>
      </trkpt>
      <trkpt lat="37.0787164383" lon="-2.3340123519">
        <ele>478.39</ele>
        <time>2018-11-09T13:35:55Z</time>
      </trkpt>
      <trkpt lat="37.0785840042" lon="-2.3345646355">
        <ele>478.87</ele>
        <time>2018-11-09T13:36:07Z</time>
      </trkpt>
      <trkpt lat="37.0785073936" lon="-2.3349124007">
        <ele>478.87</ele>
        <time>2018-11-09T13:36:15Z</time>
      </trkpt>
      <trkpt lat="37.0783897955" lon="-2.3354091961">
        <ele>478.87</ele>
        <time>2018-11-09T13:36:26Z</time>
      </trkpt>
      <trkpt lat="37.0783089940" lon="-2.3357350845">
        <ele>478.87</ele>
        <time>2018-11-09T13:36:34Z</time>
      </trkpt>
      <trkpt lat="37.0781633165" lon="-2.3363397550">
        <ele>478.39</ele>
        <time>2018-11-09T13:36:48Z</time>
      </trkpt>
      <trkpt lat="37.0780564472" lon="-2.3367804755">
        <ele>478.39</ele>
        <time>2018-11-09T13:36:58Z</time>
      </trkpt>
      <trkpt lat="37.0779768191" lon="-2.3371188529">
        <ele>478.39</ele>
        <time>2018-11-09T13:37:05Z</time>
      </trkpt>
      <trkpt lat="37.0779166371" lon="-2.3373626824">
        <ele>478.39</ele>
        <time>2018-11-09T13:37:10Z</time>
      </trkpt>
      <trkpt lat="37.0779050700" lon="-2.3374137282">
        <ele>478.39</ele>
        <time>2018-11-09T13:37:11Z</time>
      </trkpt>
      <trkpt lat="37.0777461492" lon="-2.3380842805">
        <ele>477.91</ele>
        <time>2018-11-09T13:37:24Z</time>
      </trkpt>
      <trkpt lat="37.0776174869" lon="-2.3386095744">
        <ele>478.39</ele>
        <time>2018-11-09T13:37:34Z</time>
      </trkpt>
      <trkpt lat="37.0774863102" lon="-2.3391367961">
        <ele>478.87</ele>
        <time>2018-11-09T13:37:45Z</time>
      </trkpt>
      <trkpt lat="37.0773883257" lon="-2.3395267222">
        <ele>478.87</ele>
        <time>2018-11-09T13:37:54Z</time>
      </trkpt>
      <trkpt lat="37.0772697218" lon="-2.3400079273">
        <ele>478.87</ele>
        <time>2018-11-09T13:38:04Z</time>
      </trkpt>
      <trkpt lat="37.0772574004" lon="-2.3400574643">
        <ele>478.87</ele>
        <time>2018-11-09T13:38:05Z</time>
      </trkpt>
      <trkpt lat="37.0771413948" lon="-2.3405495659">
        <ele>479.35</ele>
        <time>2018-11-09T13:38:16Z</time>
      </trkpt>
      <trkpt lat="37.0770317595" lon="-2.3410238978">
        <ele>479.84</ele>
        <time>2018-11-09T13:38:27Z</time>
      </trkpt>
      <trkpt lat="37.0768918656" lon="-2.3415859044">
        <ele>479.35</ele>
        <time>2018-11-09T13:38:39Z</time>
      </trkpt>
      <trkpt lat="37.0767820626" lon="-2.3420684505">
        <ele>478.87</ele>
        <time>2018-11-09T13:38:50Z</time>
      </trkpt>
      <trkpt lat="37.0766425040" lon="-2.3426208179">
        <ele>478.87</ele>
        <time>2018-11-09T13:39:02Z</time>
      </trkpt>
      <trkpt lat="37.0765213855" lon="-2.3431086447">
        <ele>477.91</ele>
        <time>2018-11-09T13:39:12Z</time>
      </trkpt>
      <trkpt lat="37.0763664879" lon="-2.3437583260">
        <ele>476.95</ele>
        <time>2018-11-09T13:39:24Z</time>
      </trkpt>
      <trkpt lat="37.0762353949" lon="-2.3443043232">
        <ele>475.99</ele>
        <time>2018-11-09T13:39:35Z</time>
      </trkpt>
      <trkpt lat="37.0761214849" lon="-2.3447803315">
        <ele>475.03</ele>
        <time>2018-11-09T13:39:45Z</time>
      </trkpt>
      <trkpt lat="37.0760014560" lon="-2.3452882748">
        <ele>474.55</ele>
        <time>2018-11-09T13:39:56Z</time>
      </trkpt>
      <trkpt lat="37.0758713689" lon="-2.3458153289">
        <ele>474.55</ele>
        <time>2018-11-09T13:40:07Z</time>
      </trkpt>
      <trkpt lat="37.0757434610" lon="-2.3463494238">
        <ele>474.07</ele>
        <time>2018-11-09T13:40:18Z</time>
      </trkpt>
      <trkpt lat="37.0756249409" lon="-2.3468429502">
        <ele>473.59</ele>
        <time>2018-11-09T13:40:28Z</time>
      </trkpt>
      <trkpt lat="37.0755250286" lon="-2.3472451977">
        <ele>472.63</ele>
        <time>2018-11-09T13:40:36Z</time>
      </trkpt>
      <trkpt lat="37.0754336659" lon="-2.3476228863">
        <ele>472.63</ele>
        <time>2018-11-09T13:40:44Z</time>
      </trkpt>
      <trkpt lat="37.0753117092" lon="-2.3481298238">
        <ele>473.11</ele>
        <time>2018-11-09T13:40:56Z</time>
      </trkpt>
      <trkpt lat="37.0752128866" lon="-2.3485420458">
        <ele>473.11</ele>
        <time>2018-11-09T13:41:05Z</time>
      </trkpt>
      <trkpt lat="37.0751085319" lon="-2.3490083311">
        <ele>473.59</ele>
        <time>2018-11-09T13:41:15Z</time>
      </trkpt>
      <trkpt lat="37.0750182588" lon="-2.3493524920">
        <ele>474.55</ele>
        <time>2018-11-09T13:41:24Z</time>
      </trkpt>
      <trkpt lat="37.0749092940" lon="-2.3498089705">
        <ele>474.07</ele>
        <time>2018-11-09T13:41:35Z</time>
      </trkpt>
      <trkpt lat="37.0748293307" lon="-2.3501346074">
        <ele>473.11</ele>
        <time>2018-11-09T13:41:43Z</time>
      </trkpt>
      <trkpt lat="37.0747139119" lon="-2.3506019823">
        <ele>471.66</ele>
        <time>2018-11-09T13:41:52Z</time>
      </trkpt>
      <trkpt lat="37.0745998342" lon="-2.3510798346">
        <ele>471.18</ele>
        <time>2018-11-09T13:42:01Z</time>
      </trkpt>
      <trkpt lat="37.0745088067" lon="-2.3514521588">
        <ele>471.18</ele>
        <time>2018-11-09T13:42:09Z</time>
      </trkpt>
      <trkpt lat="37.0744129177" lon="-2.3518522270">
        <ele>472.14</ele>
        <time>2018-11-09T13:42:19Z</time>
      </trkpt>
      <trkpt lat="37.0743166935" lon="-2.3522367887">
        <ele>473.11</ele>
        <time>2018-11-09T13:42:29Z</time>
      </trkpt>
      <trkpt lat="37.0742272586" lon="-2.3526215181">
        <ele>473.11</ele>
        <time>2018-11-09T13:42:39Z</time>
      </trkpt>
      <trkpt lat="37.0741881151" lon="-2.3527806066">
        <ele>473.59</ele>
        <time>2018-11-09T13:42:46Z</time>
      </trkpt>
      <trkpt lat="37.0741223171" lon="-2.3530771583">
        <ele>474.07</ele>
        <time>2018-11-09T13:42:55Z</time>
      </trkpt>
      <trkpt lat="37.0740898792" lon="-2.3532205727">
        <ele>474.07</ele>
        <time>2018-11-09T13:43:00Z</time>
      </trkpt>
      <trkpt lat="37.0740953274" lon="-2.3532457184">
        <ele>474.07</ele>
        <time>2018-11-09T13:43:01Z</time>
      </trkpt>
      <trkpt lat="37.0741122589" lon="-2.3532665055">
        <ele>474.07</ele>
        <time>2018-11-09T13:43:02Z</time>
      </trkpt>
      <trkpt lat="37.0741310343" lon="-2.3532765638">
        <ele>474.07</ele>
        <time>2018-11-09T13:43:03Z</time>
      </trkpt>
      <trkpt lat="37.0741449483" lon="-2.3532845266">
        <ele>474.07</ele>
        <time>2018-11-09T13:43:04Z</time>
      </trkpt>
      <trkpt lat="37.0741581079" lon="-2.3532924894">
        <ele>473.59</ele>
        <time>2018-11-09T13:43:05Z</time>
      </trkpt>
      <trkpt lat="37.0741699263" lon="-2.3533026315">
        <ele>473.59</ele>
        <time>2018-11-09T13:43:06Z</time>
      </trkpt>
      <trkpt lat="37.0742559247" lon="-2.3533461336">
        <ele>473.11</ele>
        <time>2018-11-09T13:43:14Z</time>
      </trkpt>
      <trkpt lat="37.0742529072" lon="-2.3533525039">
        <ele>471.66</ele>
        <time>2018-11-09T13:43:28Z</time>
      </trkpt>
      <trkpt lat="37.0742611215" lon="-2.3533578683">
        <ele>471.66</ele>
        <time>2018-11-09T13:43:54Z</time>
      </trkpt>
      <trkpt lat="37.0742575172" lon="-2.3533639871">
        <ele>472.63</ele>
        <time>2018-11-09T13:44:14Z</time>
      </trkpt>
      <trkpt lat="37.0742584392" lon="-2.3533614725">
        <ele>473.59</ele>
        <time>2018-11-09T13:44:39Z</time>
      </trkpt>
      <trkpt lat="37.0742530748" lon="-2.3533696868">
        <ele>472.63</ele>
        <time>2018-11-09T13:45:06Z</time>
      </trkpt>
      <trkpt lat="37.0742607862" lon="-2.3533640709">
        <ele>473.11</ele>
        <time>2018-11-09T13:45:22Z</time>
      </trkpt>
      <trkpt lat="37.0742544997" lon="-2.3533485644">
        <ele>474.07</ele>
        <time>2018-11-09T13:45:35Z</time>
      </trkpt>
      <trkpt lat="37.0742557570" lon="-2.3533485644">
        <ele>473.11</ele>
        <time>2018-11-09T13:45:48Z</time>
      </trkpt>
      <trkpt lat="37.0742576011" lon="-2.3533838522">
        <ele>472.63</ele>
        <time>2018-11-09T13:45:56Z</time>
      </trkpt>
      <trkpt lat="37.0742406696" lon="-2.3533901386">
        <ele>472.14</ele>
        <time>2018-11-09T13:46:02Z</time>
      </trkpt>
      <trkpt lat="37.0742276777" lon="-2.3533871211">
        <ele>472.14</ele>
        <time>2018-11-09T13:46:03Z</time>
      </trkpt>
      <trkpt lat="37.0742141828" lon="-2.3533838522">
        <ele>472.14</ele>
        <time>2018-11-09T13:46:04Z</time>
      </trkpt>
      <trkpt lat="37.0741116721" lon="-2.3533682618">
        <ele>472.14</ele>
        <time>2018-11-09T13:46:12Z</time>
      </trkpt>
      <trkpt lat="37.0740806591" lon="-2.3533873726">
        <ele>471.66</ele>
        <time>2018-11-09T13:46:15Z</time>
      </trkpt>
      <trkpt lat="37.0740694273" lon="-2.3534016218">
        <ele>471.66</ele>
        <time>2018-11-09T13:46:16Z</time>
      </trkpt>
      <trkpt lat="37.0740595367" lon="-2.3534183018">
        <ele>471.18</ele>
        <time>2018-11-09T13:46:17Z</time>
      </trkpt>
      <trkpt lat="37.0739829261" lon="-2.3536551744">
        <ele>471.18</ele>
        <time>2018-11-09T13:46:24Z</time>
      </trkpt>
      <trkpt lat="37.0738913957" lon="-2.3540166859">
        <ele>471.18</ele>
        <time>2018-11-09T13:46:32Z</time>
      </trkpt>
      <trkpt lat="37.0737691037" lon="-2.3545215279">
        <ele>470.70</ele>
        <time>2018-11-09T13:46:42Z</time>
      </trkpt>
      <trkpt lat="37.0737151243" lon="-2.3547422234">
        <ele>470.70</ele>
        <time>2018-11-09T13:46:46Z</time>
      </trkpt>
      <trkpt lat="37.0737038925" lon="-2.3547957838">
        <ele>470.70</ele>
        <time>2018-11-09T13:46:47Z</time>
      </trkpt>
      <trkpt lat="37.0735773258" lon="-2.3553143721">
        <ele>470.22</ele>
        <time>2018-11-09T13:46:56Z</time>
      </trkpt>
      <trkpt lat="37.0735013857" lon="-2.3556620535">
        <ele>470.70</ele>
        <time>2018-11-09T13:47:02Z</time>
      </trkpt>
      <trkpt lat="37.0733623300" lon="-2.3562321905">
        <ele>471.18</ele>
        <time>2018-11-09T13:47:12Z</time>
      </trkpt>
      <trkpt lat="37.0732424688" lon="-2.3567272257">
        <ele>471.66</ele>
        <time>2018-11-09T13:47:21Z</time>
      </trkpt>
      <trkpt lat="37.0730816200" lon="-2.3573794216">
        <ele>471.18</ele>
        <time>2018-11-09T13:47:33Z</time>
      </trkpt>
      <trkpt lat="37.0729456656" lon="-2.3579470441">
        <ele>471.18</ele>
        <time>2018-11-09T13:47:44Z</time>
      </trkpt>
      <trkpt lat="37.0728143211" lon="-2.3584573343">
        <ele>471.18</ele>
        <time>2018-11-09T13:47:55Z</time>
      </trkpt>
      <trkpt lat="37.0727496967" lon="-2.3587454204">
        <ele>471.18</ele>
        <time>2018-11-09T13:48:01Z</time>
      </trkpt>
      <trkpt lat="37.0727383811" lon="-2.3587931972">
        <ele>471.18</ele>
        <time>2018-11-09T13:48:02Z</time>
      </trkpt>
      <trkpt lat="37.0726191904" lon="-2.3592875618">
        <ele>470.22</ele>
        <time>2018-11-09T13:48:13Z</time>
      </trkpt>
      <trkpt lat="37.0725451782" lon="-2.3595761508">
        <ele>470.22</ele>
        <time>2018-11-09T13:48:19Z</time>
      </trkpt>
      <trkpt lat="37.0724252332" lon="-2.3600575235">
        <ele>469.74</ele>
        <time>2018-11-09T13:48:29Z</time>
      </trkpt>
      <trkpt lat="37.0723654702" lon="-2.3603337910">
        <ele>468.30</ele>
        <time>2018-11-09T13:48:36Z</time>
      </trkpt>
      <trkpt lat="37.0722457767" lon="-2.3608211987">
        <ele>468.30</ele>
        <time>2018-11-09T13:48:45Z</time>
      </trkpt>
      <trkpt lat="37.0721076429" lon="-2.3613958620">
        <ele>467.34</ele>
        <time>2018-11-09T13:48:57Z</time>
      </trkpt>
      <trkpt lat="37.0719839260" lon="-2.3618991952">
        <ele>466.86</ele>
        <time>2018-11-09T13:49:07Z</time>
      </trkpt>
      <trkpt lat="37.0718613826" lon="-2.3624006845">
        <ele>466.38</ele>
        <time>2018-11-09T13:49:16Z</time>
      </trkpt>
      <trkpt lat="37.0717664994" lon="-2.3628140800">
        <ele>465.90</ele>
        <time>2018-11-09T13:49:24Z</time>
      </trkpt>
      <trkpt lat="37.0716649946" lon="-2.3632404674">
        <ele>465.42</ele>
        <time>2018-11-09T13:49:32Z</time>
      </trkpt>
      <trkpt lat="37.0715050679" lon="-2.3639068287">
        <ele>464.93</ele>
        <time>2018-11-09T13:49:43Z</time>
      </trkpt>
      <trkpt lat="37.0714347437" lon="-2.3641948309">
        <ele>463.97</ele>
        <time>2018-11-09T13:49:48Z</time>
      </trkpt>
      <trkpt lat="37.0714194886" lon="-2.3642475531">
        <ele>463.97</ele>
        <time>2018-11-09T13:49:49Z</time>
      </trkpt>
      <trkpt lat="37.0713417884" lon="-2.3645741120">
        <ele>463.49</ele>
        <time>2018-11-09T13:49:55Z</time>
      </trkpt>
      <trkpt lat="37.0712283812" lon="-2.3650687281">
        <ele>462.53</ele>
        <time>2018-11-09T13:50:05Z</time>
      </trkpt>
      <trkpt lat="37.0711224340" lon="-2.3655097838">
        <ele>461.09</ele>
        <time>2018-11-09T13:50:13Z</time>
      </trkpt>
      <trkpt lat="37.0709641837" lon="-2.3661543522">
        <ele>459.17</ele>
        <time>2018-11-09T13:50:23Z</time>
      </trkpt>
      <trkpt lat="37.0707805362" lon="-2.3668943066">
        <ele>457.72</ele>
        <time>2018-11-09T13:50:34Z</time>
      </trkpt>
      <trkpt lat="37.0706420671" lon="-2.3674669582">
        <ele>455.80</ele>
        <time>2018-11-09T13:50:43Z</time>
      </trkpt>
      <trkpt lat="37.0704859961" lon="-2.3681132868">
        <ele>454.84</ele>
        <time>2018-11-09T13:50:54Z</time>
      </trkpt>
      <trkpt lat="37.0703564119" lon="-2.3686506506">
        <ele>453.88</ele>
        <time>2018-11-09T13:51:05Z</time>
      </trkpt>
      <trkpt lat="37.0702326950" lon="-2.3691432551">
        <ele>453.40</ele>
        <time>2018-11-09T13:51:15Z</time>
      </trkpt>
      <trkpt lat="37.0701259095" lon="-2.3696156591">
        <ele>452.92</ele>
        <time>2018-11-09T13:51:24Z</time>
      </trkpt>
      <trkpt lat="37.0700073056" lon="-2.3701002169">
        <ele>452.44</ele>
        <time>2018-11-09T13:51:34Z</time>
      </trkpt>
      <trkpt lat="37.0698532462" lon="-2.3707145266">
        <ele>451.96</ele>
        <time>2018-11-09T13:51:47Z</time>
      </trkpt>
      <trkpt lat="37.0697218180" lon="-2.3712428380">
        <ele>452.44</ele>
        <time>2018-11-09T13:51:58Z</time>
      </trkpt>
      <trkpt lat="37.0695616398" lon="-2.3719151504">
        <ele>451.96</ele>
        <time>2018-11-09T13:52:11Z</time>
      </trkpt>
      <trkpt lat="37.0694359951" lon="-2.3724193219">
        <ele>451.48</ele>
        <time>2018-11-09T13:52:22Z</time>
      </trkpt>
      <trkpt lat="37.0693295449" lon="-2.3728637304">
        <ele>451.48</ele>
        <time>2018-11-09T13:52:31Z</time>
      </trkpt>
      <trkpt lat="37.0692192391" lon="-2.3733355477">
        <ele>451.48</ele>
        <time>2018-11-09T13:52:41Z</time>
      </trkpt>
      <trkpt lat="37.0691503398" lon="-2.3736299202">
        <ele>450.52</ele>
        <time>2018-11-09T13:52:49Z</time>
      </trkpt>
      <trkpt lat="37.0690355077" lon="-2.3740594089">
        <ele>450.03</ele>
        <time>2018-11-09T13:52:58Z</time>
      </trkpt>
      <trkpt lat="37.0688493457" lon="-2.3746044002">
        <ele>449.55</ele>
        <time>2018-11-09T13:53:09Z</time>
      </trkpt>
      <trkpt lat="37.0686716493" lon="-2.3750760499">
        <ele>447.63</ele>
        <time>2018-11-09T13:53:18Z</time>
      </trkpt>
      <trkpt lat="37.0686526224" lon="-2.3751248326">
        <ele>447.63</ele>
        <time>2018-11-09T13:53:19Z</time>
      </trkpt>
      <trkpt lat="37.0686304104" lon="-2.3751771357">
        <ele>447.63</ele>
        <time>2018-11-09T13:53:20Z</time>
      </trkpt>
      <trkpt lat="37.0684226230" lon="-2.3756772839">
        <ele>445.23</ele>
        <time>2018-11-09T13:53:30Z</time>
      </trkpt>
      <trkpt lat="37.0682163443" lon="-2.3761830479">
        <ele>443.31</ele>
        <time>2018-11-09T13:53:40Z</time>
      </trkpt>
      <trkpt lat="37.0680160169" lon="-2.3766765743">
        <ele>442.34</ele>
        <time>2018-11-09T13:53:50Z</time>
      </trkpt>
      <trkpt lat="37.0678379852" lon="-2.3771194741">
        <ele>441.86</ele>
        <time>2018-11-09T13:53:58Z</time>
      </trkpt>
      <trkpt lat="37.0676326286" lon="-2.3775990028">
        <ele>440.42</ele>
        <time>2018-11-09T13:54:07Z</time>
      </trkpt>
      <trkpt lat="37.0673421118" lon="-2.3782943655">
        <ele>439.46</ele>
        <time>2018-11-09T13:54:19Z</time>
      </trkpt>
      <trkpt lat="37.0673204027" lon="-2.3783489317">
        <ele>439.46</ele>
        <time>2018-11-09T13:54:20Z</time>
      </trkpt>
      <trkpt lat="37.0672547724" lon="-2.3785148934">
        <ele>439.46</ele>
        <time>2018-11-09T13:54:25Z</time>
      </trkpt>
      <trkpt lat="37.0671319775" lon="-2.3788170610">
        <ele>438.98</ele>
        <time>2018-11-09T13:54:34Z</time>
      </trkpt>
      <trkpt lat="37.0669892337" lon="-2.3791707773">
        <ele>439.94</ele>
        <time>2018-11-09T13:54:43Z</time>
      </trkpt>
      <trkpt lat="37.0668165665" lon="-2.3795832507">
        <ele>439.94</ele>
        <time>2018-11-09T13:54:53Z</time>
      </trkpt>
      <trkpt lat="37.0666221902" lon="-2.3800585046">
        <ele>441.38</ele>
        <time>2018-11-09T13:55:04Z</time>
      </trkpt>
      <trkpt lat="37.0664635208" lon="-2.3804413900">
        <ele>441.86</ele>
        <time>2018-11-09T13:55:14Z</time>
      </trkpt>
      <trkpt lat="37.0663127303" lon="-2.3807751574">
        <ele>441.86</ele>
        <time>2018-11-09T13:55:24Z</time>
      </trkpt>
      <trkpt lat="37.0661662985" lon="-2.3810613994">
        <ele>442.82</ele>
        <time>2018-11-09T13:55:33Z</time>
      </trkpt>
      <trkpt lat="37.0659616962" lon="-2.3814078234">
        <ele>443.31</ele>
        <time>2018-11-09T13:55:43Z</time>
      </trkpt>
      <trkpt lat="37.0658108220" lon="-2.3816369846">
        <ele>443.31</ele>
        <time>2018-11-09T13:55:51Z</time>
      </trkpt>
      <trkpt lat="37.0656166133" lon="-2.3818966560">
        <ele>444.27</ele>
        <time>2018-11-09T13:56:00Z</time>
      </trkpt>
      <trkpt lat="37.0654737856" lon="-2.3820788786">
        <ele>444.75</ele>
        <time>2018-11-09T13:56:07Z</time>
      </trkpt>
      <trkpt lat="37.0653137751" lon="-2.3822715785">
        <ele>445.71</ele>
        <time>2018-11-09T13:56:15Z</time>
      </trkpt>
      <trkpt lat="37.0650267787" lon="-2.3826081958">
        <ele>445.71</ele>
        <time>2018-11-09T13:56:28Z</time>
      </trkpt>
      <trkpt lat="37.0647645090" lon="-2.3829169013">
        <ele>446.67</ele>
        <time>2018-11-09T13:56:39Z</time>
      </trkpt>
      <trkpt lat="37.0644361898" lon="-2.3833126947">
        <ele>447.63</ele>
        <time>2018-11-09T13:56:52Z</time>
      </trkpt>
      <trkpt lat="37.0642382093" lon="-2.3835505731">
        <ele>448.11</ele>
        <time>2018-11-09T13:56:59Z</time>
      </trkpt>
      <trkpt lat="37.0639132429" lon="-2.3839351349">
        <ele>449.07</ele>
        <time>2018-11-09T13:57:10Z</time>
      </trkpt>
      <trkpt lat="37.0636794716" lon="-2.3842140846">
        <ele>449.55</ele>
        <time>2018-11-09T13:57:19Z</time>
      </trkpt>
      <trkpt lat="37.0634896215" lon="-2.3844456766">
        <ele>449.55</ele>
        <time>2018-11-09T13:57:27Z</time>
      </trkpt>
      <trkpt lat="37.0634831674" lon="-2.3844590038">
        <ele>449.55</ele>
        <time>2018-11-09T13:57:32Z</time>
      </trkpt>
      <trkpt lat="37.0634956565" lon="-2.3844597582">
        <ele>448.59</ele>
        <time>2018-11-09T13:57:46Z</time>
      </trkpt>
      <trkpt lat="37.0634740312" lon="-2.3844675533">
        <ele>448.59</ele>
        <time>2018-11-09T13:57:49Z</time>
      </trkpt>
      <trkpt lat="37.0634625480" lon="-2.3844773602">
        <ele>448.59</ele>
        <time>2018-11-09T13:57:50Z</time>
      </trkpt>
      <trkpt lat="37.0634502266" lon="-2.3844954651">
        <ele>448.59</ele>
        <time>2018-11-09T13:57:51Z</time>
      </trkpt>
      <trkpt lat="37.0634397492" lon="-2.3845096305">
        <ele>448.59</ele>
        <time>2018-11-09T13:57:52Z</time>
      </trkpt>
      <trkpt lat="37.0634241588" lon="-2.3845272325">
        <ele>448.59</ele>
        <time>2018-11-09T13:57:53Z</time>
      </trkpt>
      <trkpt lat="37.0634032879" lon="-2.3845486064">
        <ele>448.59</ele>
        <time>2018-11-09T13:57:54Z</time>
      </trkpt>
      <trkpt lat="37.0631530043" lon="-2.3848326690">
        <ele>448.11</ele>
        <time>2018-11-09T13:58:05Z</time>
      </trkpt>
      <trkpt lat="37.0629073307" lon="-2.3851246107">
        <ele>447.63</ele>
        <time>2018-11-09T13:58:16Z</time>
      </trkpt>
      <trkpt lat="37.0626080129" lon="-2.3854785785">
        <ele>445.71</ele>
        <time>2018-11-09T13:58:28Z</time>
      </trkpt>
      <trkpt lat="37.0623197593" lon="-2.3858349770">
        <ele>444.27</ele>
        <time>2018-11-09T13:58:39Z</time>
      </trkpt>
      <trkpt lat="37.0620123949" lon="-2.3862237297">
        <ele>442.34</ele>
        <time>2018-11-09T13:58:50Z</time>
      </trkpt>
      <trkpt lat="37.0617435873" lon="-2.3865848221">
        <ele>441.38</ele>
        <time>2018-11-09T13:59:01Z</time>
      </trkpt>
      <trkpt lat="37.0616714191" lon="-2.3868478462">
        <ele>440.90</ele>
        <time>2018-11-09T13:59:08Z</time>
      </trkpt>
      <trkpt lat="37.0615897793" lon="-2.3870936036">
        <ele>440.90</ele>
        <time>2018-11-09T13:59:14Z</time>
      </trkpt>
      <trkpt lat="37.0615624543" lon="-2.3871207610">
        <ele>440.90</ele>
        <time>2018-11-09T13:59:15Z</time>
      </trkpt>
      <trkpt lat="37.0615310222" lon="-2.3871482536">
        <ele>440.90</ele>
        <time>2018-11-09T13:59:16Z</time>
      </trkpt>
      <trkpt lat="37.0615102351" lon="-2.3871669453">
        <ele>440.90</ele>
        <time>2018-11-09T13:59:17Z</time>
      </trkpt>
      <trkpt lat="37.0614896994" lon="-2.3871789314">
        <ele>440.42</ele>
        <time>2018-11-09T13:59:18Z</time>
      </trkpt>
      <trkpt lat="37.0614689123" lon="-2.3871910013">
        <ele>440.42</ele>
        <time>2018-11-09T13:59:19Z</time>
      </trkpt>
      <trkpt lat="37.0614548307" lon="-2.3871987965">
        <ele>440.42</ele>
        <time>2018-11-09T13:59:20Z</time>
      </trkpt>
      <trkpt lat="37.0614406653" lon="-2.3872005567">
        <ele>440.42</ele>
        <time>2018-11-09T13:59:23Z</time>
      </trkpt>
      <trkpt lat="37.0614286792" lon="-2.3871963657">
        <ele>439.94</ele>
        <time>2018-11-09T13:59:24Z</time>
      </trkpt>
      <trkpt lat="37.0614087302" lon="-2.3871911690">
        <ele>439.94</ele>
        <time>2018-11-09T13:59:25Z</time>
      </trkpt>
      <trkpt lat="37.0613892842" lon="-2.3871900793">
        <ele>439.94</ele>
        <time>2018-11-09T13:59:26Z</time>
      </trkpt>
      <trkpt lat="37.0613638032" lon="-2.3871866427">
        <ele>439.94</ele>
        <time>2018-11-09T13:59:27Z</time>
      </trkpt>
      <trkpt lat="37.0613369811" lon="-2.3871763330">
        <ele>440.42</ele>
        <time>2018-11-09T13:59:28Z</time>
      </trkpt>
      <trkpt lat="37.0611498132" lon="-2.3871091101">
        <ele>440.90</ele>
        <time>2018-11-09T13:59:34Z</time>
      </trkpt>
      <trkpt lat="37.0607564505" lon="-2.3870010674">
        <ele>440.42</ele>
        <time>2018-11-09T13:59:44Z</time>
      </trkpt>
      <trkpt lat="37.0603651833" lon="-2.3869474232">
        <ele>440.42</ele>
        <time>2018-11-09T13:59:52Z</time>
      </trkpt>
      <trkpt lat="37.0600156579" lon="-2.3869569786">
        <ele>440.42</ele>
        <time>2018-11-09T14:00:00Z</time>
      </trkpt>
      <trkpt lat="37.0596008375" lon="-2.3869501892">
        <ele>438.98</ele>
        <time>2018-11-09T14:00:11Z</time>
      </trkpt>
      <trkpt lat="37.0591794793" lon="-2.3869515304">
        <ele>438.50</ele>
        <time>2018-11-09T14:00:21Z</time>
      </trkpt>
      <trkpt lat="37.0590882841" lon="-2.3869459145">
        <ele>438.50</ele>
        <time>2018-11-09T14:00:23Z</time>
      </trkpt>
      <trkpt lat="37.0586000383" lon="-2.3869351856">
        <ele>437.06</ele>
        <time>2018-11-09T14:00:33Z</time>
      </trkpt>
      <trkpt lat="37.0585511718" lon="-2.3869325873">
        <ele>437.06</ele>
        <time>2018-11-09T14:00:34Z</time>
      </trkpt>
      <trkpt lat="37.0580462459" lon="-2.3869435675">
        <ele>437.06</ele>
        <time>2018-11-09T14:00:43Z</time>
      </trkpt>
      <trkpt lat="37.0576963853" lon="-2.3869788554">
        <ele>435.61</ele>
        <time>2018-11-09T14:00:49Z</time>
      </trkpt>
      <trkpt lat="37.0576378796" lon="-2.3870120477">
        <ele>435.61</ele>
        <time>2018-11-09T14:00:50Z</time>
      </trkpt>
      <trkpt lat="37.0575787872" lon="-2.3870596569">
        <ele>435.13</ele>
        <time>2018-11-09T14:00:51Z</time>
      </trkpt>
      <trkpt lat="37.0575425774" lon="-2.3870935198">
        <ele>435.13</ele>
        <time>2018-11-09T14:00:52Z</time>
      </trkpt>
      <trkpt lat="37.0574963093" lon="-2.3871374410">
        <ele>435.13</ele>
        <time>2018-11-09T14:00:53Z</time>
      </trkpt>
      <trkpt lat="37.0574522205" lon="-2.3871837091">
        <ele>435.13</ele>
        <time>2018-11-09T14:00:54Z</time>
      </trkpt>
      <trkpt lat="37.0574073773" lon="-2.3872321565">
        <ele>435.13</ele>
        <time>2018-11-09T14:00:55Z</time>
      </trkpt>
      <trkpt lat="37.0570430998" lon="-2.3875791673">
        <ele>434.17</ele>
        <time>2018-11-09T14:01:04Z</time>
      </trkpt>
      <trkpt lat="37.0566388406" lon="-2.3879759666">
        <ele>433.69</ele>
        <time>2018-11-09T14:01:13Z</time>
      </trkpt>
      <trkpt lat="37.0565321390" lon="-2.3880847637">
        <ele>432.73</ele>
        <time>2018-11-09T14:01:17Z</time>
      </trkpt>
      <trkpt lat="37.0563593041" lon="-2.3882633820">
        <ele>433.69</ele>
        <time>2018-11-09T14:01:25Z</time>
      </trkpt>
      <trkpt lat="37.0561565459" lon="-2.3884596024">
        <ele>433.69</ele>
        <time>2018-11-09T14:01:33Z</time>
      </trkpt>
      <trkpt lat="37.0559075195" lon="-2.3886637017">
        <ele>431.77</ele>
        <time>2018-11-09T14:01:42Z</time>
      </trkpt>
      <trkpt lat="37.0557346847" lon="-2.3887748457">
        <ele>431.29</ele>
        <time>2018-11-09T14:01:47Z</time>
      </trkpt>
      <trkpt lat="37.0554408152" lon="-2.3888952937">
        <ele>430.33</ele>
        <time>2018-11-09T14:01:55Z</time>
      </trkpt>
      <trkpt lat="37.0551419165" lon="-2.3889934458">
        <ele>429.37</ele>
        <time>2018-11-09T14:02:03Z</time>
      </trkpt>
      <trkpt lat="37.0547141880" lon="-2.3891097866">
        <ele>427.44</ele>
        <time>2018-11-09T14:02:13Z</time>
      </trkpt>
      <trkpt lat="37.0543259382" lon="-2.3892230261">
        <ele>426.48</ele>
        <time>2018-11-09T14:02:22Z</time>
      </trkpt>
      <trkpt lat="37.0538524445" lon="-2.3893436417">
        <ele>425.04</ele>
        <time>2018-11-09T14:02:33Z</time>
      </trkpt>
      <trkpt lat="37.0534491073" lon="-2.3894553725">
        <ele>423.12</ele>
        <time>2018-11-09T14:02:42Z</time>
      </trkpt>
      <trkpt lat="37.0530849136" lon="-2.3895598948">
        <ele>420.71</ele>
        <time>2018-11-09T14:02:49Z</time>
      </trkpt>
      <trkpt lat="37.0528969914" lon="-2.3896101862">
        <ele>419.27</ele>
        <time>2018-11-09T14:02:52Z</time>
      </trkpt>
      <trkpt lat="37.0525617152" lon="-2.3897126131">
        <ele>415.91</ele>
        <time>2018-11-09T14:02:58Z</time>
      </trkpt>
      <trkpt lat="37.0524656586" lon="-2.3897557799">
        <ele>414.95</ele>
        <time>2018-11-09T14:03:00Z</time>
      </trkpt>
      <trkpt lat="37.0523403492" lon="-2.3898192309">
        <ele>413.50</ele>
        <time>2018-11-09T14:03:03Z</time>
      </trkpt>
      <trkpt lat="37.0520090126" lon="-2.3899928201">
        <ele>408.70</ele>
        <time>2018-11-09T14:03:11Z</time>
      </trkpt>
      <trkpt lat="37.0518345013" lon="-2.3900939059">
        <ele>406.77</ele>
        <time>2018-11-09T14:03:16Z</time>
      </trkpt>
      <trkpt lat="37.0516135544" lon="-2.3902980052">
        <ele>404.37</ele>
        <time>2018-11-09T14:03:24Z</time>
      </trkpt>
      <trkpt lat="37.0513798669" lon="-2.3905155994">
        <ele>404.37</ele>
        <time>2018-11-09T14:03:32Z</time>
      </trkpt>
      <trkpt lat="37.0511512924" lon="-2.3907492030">
        <ele>404.37</ele>
        <time>2018-11-09T14:03:40Z</time>
      </trkpt>
      <trkpt lat="37.0510595944" lon="-2.3908187728">
        <ele>405.33</ele>
        <time>2018-11-09T14:03:45Z</time>
      </trkpt>
      <trkpt lat="37.0510327723" lon="-2.3908369616">
        <ele>406.29</ele>
        <time>2018-11-09T14:03:49Z</time>
      </trkpt>
      <trkpt lat="37.0510162599" lon="-2.3908504564">
        <ele>406.29</ele>
        <time>2018-11-09T14:03:51Z</time>
      </trkpt>
      <trkpt lat="37.0509317704" lon="-2.3909274023">
        <ele>407.26</ele>
        <time>2018-11-09T14:03:58Z</time>
      </trkpt>
      <trkpt lat="37.0508203749" lon="-2.3910567351">
        <ele>406.77</ele>
        <time>2018-11-09T14:04:04Z</time>
      </trkpt>
      <trkpt lat="37.0506098215" lon="-2.3912655283">
        <ele>406.77</ele>
        <time>2018-11-09T14:04:13Z</time>
      </trkpt>
      <trkpt lat="37.0503828395" lon="-2.3914876487">
        <ele>407.26</ele>
        <time>2018-11-09T14:04:21Z</time>
      </trkpt>
      <trkpt lat="37.0502396766" lon="-2.3916266207">
        <ele>407.26</ele>
        <time>2018-11-09T14:04:27Z</time>
      </trkpt>
      <trkpt lat="37.0502214041" lon="-2.3916360922">
        <ele>408.22</ele>
        <time>2018-11-09T14:04:32Z</time>
      </trkpt>
      <trkpt lat="37.0501002017" lon="-2.3917595576">
        <ele>409.18</ele>
        <time>2018-11-09T14:04:38Z</time>
      </trkpt>
      <trkpt lat="37.0500613935" lon="-2.3918246012">
        <ele>409.66</ele>
        <time>2018-11-09T14:04:41Z</time>
      </trkpt>
      <trkpt lat="37.0500721224" lon="-2.3918458913">
        <ele>410.14</ele>
        <time>2018-11-09T14:04:42Z</time>
      </trkpt>
      <trkpt lat="37.0501455478" lon="-2.3919108510">
        <ele>410.14</ele>
        <time>2018-11-09T14:04:47Z</time>
      </trkpt>
      <trkpt lat="37.0501494873" lon="-2.3919175565">
        <ele>410.14</ele>
        <time>2018-11-09T14:04:53Z</time>
      </trkpt>
      <trkpt lat="37.0501460508" lon="-2.3919005413">
        <ele>410.14</ele>
        <time>2018-11-09T14:05:07Z</time>
      </trkpt>
      <trkpt lat="37.0501418598" lon="-2.3918732163">
        <ele>412.06</ele>
        <time>2018-11-09T14:05:32Z</time>
      </trkpt>
      <trkpt lat="37.0501340646" lon="-2.3918562848">
        <ele>413.50</ele>
        <time>2018-11-09T14:05:50Z</time>
      </trkpt>
      <trkpt lat="37.0501327235" lon="-2.3918431252">
        <ele>415.43</ele>
        <time>2018-11-09T14:06:18Z</time>
      </trkpt>
      <trkpt lat="37.0501407702" lon="-2.3918422870">
        <ele>415.91</ele>
        <time>2018-11-09T14:06:35Z</time>
      </trkpt>
      <trkpt lat="37.0501469728" lon="-2.3918442987">
        <ele>415.43</ele>
        <time>2018-11-09T14:06:54Z</time>
      </trkpt>
      <trkpt lat="37.0501360763" lon="-2.3918443825">
        <ele>415.43</ele>
        <time>2018-11-09T14:07:13Z</time>
      </trkpt>
      <trkpt lat="37.0501286164" lon="-2.3918455560">
        <ele>415.91</ele>
        <time>2018-11-09T14:07:26Z</time>
      </trkpt>
      <trkpt lat="37.0501254313" lon="-2.3918621521">
        <ele>416.39</ele>
        <time>2018-11-09T14:07:41Z</time>
      </trkpt>
      <trkpt lat="37.0522276964" lon="-2.3895676900">
        <ele>408.70</ele>
        <time>2018-11-10T06:30:38Z</time>
      </trkpt>
      <trkpt lat="37.0521998685" lon="-2.3895734735">
        <ele>415.91</ele>
        <time>2018-11-10T06:30:52Z</time>
      </trkpt>
      <trkpt lat="37.0522139501" lon="-2.3896051571">
        <ele>415.43</ele>
        <time>2018-11-10T06:30:58Z</time>
      </trkpt>
      <trkpt lat="37.0521877985" lon="-2.3896577954">
        <ele>414.95</ele>
        <time>2018-11-10T06:31:02Z</time>
      </trkpt>
      <trkpt lat="37.0521279518" lon="-2.3897740524">
        <ele>413.50</ele>
        <time>2018-11-10T06:31:08Z</time>
      </trkpt>
      <trkpt lat="37.0521133672" lon="-2.3898144532">
        <ele>412.54</ele>
        <time>2018-11-10T06:31:10Z</time>
      </trkpt>
      <trkpt lat="37.0521064941" lon="-2.3898707796">
        <ele>412.06</ele>
        <time>2018-11-10T06:31:14Z</time>
      </trkpt>
      <trkpt lat="37.0520983636" lon="-2.3898897227">
        <ele>412.06</ele>
        <time>2018-11-10T06:31:15Z</time>
      </trkpt>
      <trkpt lat="37.0520778280" lon="-2.3899053968">
        <ele>412.06</ele>
        <time>2018-11-10T06:31:16Z</time>
      </trkpt>
      <trkpt lat="37.0520509221" lon="-2.3899195623">
        <ele>411.58</ele>
        <time>2018-11-10T06:31:17Z</time>
      </trkpt>
      <trkpt lat="37.0520216692" lon="-2.3899326380">
        <ele>411.58</ele>
        <time>2018-11-10T06:31:18Z</time>
      </trkpt>
      <trkpt lat="37.0519903209" lon="-2.3899478931">
        <ele>411.10</ele>
        <time>2018-11-10T06:31:19Z</time>
      </trkpt>
      <trkpt lat="37.0519577991" lon="-2.3899697699">
        <ele>411.10</ele>
        <time>2018-11-10T06:31:20Z</time>
      </trkpt>
      <trkpt lat="37.0516987983" lon="-2.3901761323">
        <ele>409.66</ele>
        <time>2018-11-10T06:31:28Z</time>
      </trkpt>
      <trkpt lat="37.0515617542" lon="-2.3903032020">
        <ele>409.18</ele>
        <time>2018-11-10T06:31:33Z</time>
      </trkpt>
      <trkpt lat="37.0512999035" lon="-2.3905409127">
        <ele>409.66</ele>
        <time>2018-11-10T06:31:42Z</time>
      </trkpt>
      <trkpt lat="37.0509759430" lon="-2.3908640351">
        <ele>410.14</ele>
        <time>2018-11-10T06:31:52Z</time>
      </trkpt>
      <trkpt lat="37.0507714245" lon="-2.3910729121">
        <ele>411.58</ele>
        <time>2018-11-10T06:31:59Z</time>
      </trkpt>
      <trkpt lat="37.0505991764" lon="-2.3912287317">
        <ele>412.06</ele>
        <time>2018-11-10T06:32:06Z</time>
      </trkpt>
      <trkpt lat="37.0505076461" lon="-2.3913400434">
        <ele>413.50</ele>
        <time>2018-11-10T06:32:13Z</time>
      </trkpt>
      <trkpt lat="37.0503989328" lon="-2.3914483376">
        <ele>413.02</ele>
        <time>2018-11-10T06:32:20Z</time>
      </trkpt>
      <trkpt lat="37.0501623955" lon="-2.3916681111">
        <ele>411.58</ele>
        <time>2018-11-10T06:32:27Z</time>
      </trkpt>
      <trkpt lat="37.0500755589" lon="-2.3917472363">
        <ele>411.10</ele>
        <time>2018-11-10T06:32:29Z</time>
      </trkpt>
      <trkpt lat="37.0499401074" lon="-2.3919369187">
        <ele>412.06</ele>
        <time>2018-11-10T06:32:34Z</time>
      </trkpt>
      <trkpt lat="37.0498546120" lon="-2.3922041338">
        <ele>413.50</ele>
        <time>2018-11-10T06:32:40Z</time>
      </trkpt>
      <trkpt lat="37.0497881435" lon="-2.3925770447">
        <ele>414.47</ele>
        <time>2018-11-10T06:32:48Z</time>
      </trkpt>
      <trkpt lat="37.0497357566" lon="-2.3928891867">
        <ele>414.95</ele>
        <time>2018-11-10T06:32:56Z</time>
      </trkpt>
      <trkpt lat="37.0497384388" lon="-2.3929208703">
        <ele>414.95</ele>
        <time>2018-11-10T06:32:57Z</time>
      </trkpt>
      <trkpt lat="37.0497296378" lon="-2.3929599300">
        <ele>414.47</ele>
        <time>2018-11-10T06:32:58Z</time>
      </trkpt>
      <trkpt lat="37.0497205015" lon="-2.3929979838">
        <ele>414.47</ele>
        <time>2018-11-10T06:32:59Z</time>
      </trkpt>
      <trkpt lat="37.0497130416" lon="-2.3930421565">
        <ele>414.47</ele>
        <time>2018-11-10T06:33:00Z</time>
      </trkpt>
      <trkpt lat="37.0497056656" lon="-2.3930899333">
        <ele>414.47</ele>
        <time>2018-11-10T06:33:01Z</time>
      </trkpt>
      <trkpt lat="37.0496954396" lon="-2.3931349441">
        <ele>414.47</ele>
        <time>2018-11-10T06:33:02Z</time>
      </trkpt>
      <trkpt lat="37.0496568829" lon="-2.3932833038">
        <ele>413.98</ele>
        <time>2018-11-10T06:33:05Z</time>
      </trkpt>
      <trkpt lat="37.0495997183" lon="-2.3935905844">
        <ele>413.02</ele>
        <time>2018-11-10T06:33:11Z</time>
      </trkpt>
      <trkpt lat="37.0495973714" lon="-2.3936494254">
        <ele>413.02</ele>
        <time>2018-11-10T06:33:12Z</time>
      </trkpt>
      <trkpt lat="37.0496039093" lon="-2.3937712982">
        <ele>412.54</ele>
        <time>2018-11-10T06:33:14Z</time>
      </trkpt>
      <trkpt lat="37.0496218465" lon="-2.3938943446">
        <ele>412.06</ele>
        <time>2018-11-10T06:33:16Z</time>
      </trkpt>
      <trkpt lat="37.0498165581" lon="-2.3944266792">
        <ele>413.02</ele>
        <time>2018-11-10T06:33:25Z</time>
      </trkpt>
      <trkpt lat="37.0500251837" lon="-2.3950156756">
        <ele>410.62</ele>
        <time>2018-11-10T06:33:34Z</time>
      </trkpt>
      <trkpt lat="37.0500838570" lon="-2.3953685537">
        <ele>408.70</ele>
        <time>2018-11-10T06:33:39Z</time>
      </trkpt>
      <trkpt lat="37.0500844438" lon="-2.3954414763">
        <ele>408.70</ele>
        <time>2018-11-10T06:33:40Z</time>
      </trkpt>
      <trkpt lat="37.0500489045" lon="-2.3958770838">
        <ele>407.26</ele>
        <time>2018-11-10T06:33:46Z</time>
      </trkpt>
      <trkpt lat="37.0499657560" lon="-2.3961431254">
        <ele>406.77</ele>
        <time>2018-11-10T06:33:51Z</time>
      </trkpt>
      <trkpt lat="37.0498008840" lon="-2.3965063132">
        <ele>405.81</ele>
        <time>2018-11-10T06:34:00Z</time>
      </trkpt>
      <trkpt lat="37.0496765804" lon="-2.3967720196">
        <ele>404.85</ele>
        <time>2018-11-10T06:34:06Z</time>
      </trkpt>
      <trkpt lat="37.0494583994" lon="-2.3972688988">
        <ele>402.93</ele>
        <time>2018-11-10T06:34:16Z</time>
      </trkpt>
      <trkpt lat="37.0492282324" lon="-2.3977796920">
        <ele>401.49</ele>
        <time>2018-11-10T06:34:26Z</time>
      </trkpt>
      <trkpt lat="37.0492120553" lon="-2.3978363536">
        <ele>401.01</ele>
        <time>2018-11-10T06:34:27Z</time>
      </trkpt>
      <trkpt lat="37.0492000692" lon="-2.3979003076">
        <ele>400.53</ele>
        <time>2018-11-10T06:34:28Z</time>
      </trkpt>
      <trkpt lat="37.0491861552" lon="-2.3980389442">
        <ele>399.57</ele>
        <time>2018-11-10T06:34:30Z</time>
      </trkpt>
      <trkpt lat="37.0491915196" lon="-2.3981203325">
        <ele>399.08</ele>
        <time>2018-11-10T06:34:31Z</time>
      </trkpt>
      <trkpt lat="37.0492131449" lon="-2.3981956020">
        <ele>398.60</ele>
        <time>2018-11-10T06:34:32Z</time>
      </trkpt>
      <trkpt lat="37.0492537972" lon="-2.3982681893">
        <ele>397.64</ele>
        <time>2018-11-10T06:34:33Z</time>
      </trkpt>
      <trkpt lat="37.0493080281" lon="-2.3983297125">
        <ele>397.16</ele>
        <time>2018-11-10T06:34:34Z</time>
      </trkpt>
      <trkpt lat="37.0493661147" lon="-2.3983870447">
        <ele>396.68</ele>
        <time>2018-11-10T06:34:35Z</time>
      </trkpt>
      <trkpt lat="37.0494131371" lon="-2.3984382581">
        <ele>396.20</ele>
        <time>2018-11-10T06:34:36Z</time>
      </trkpt>
      <trkpt lat="37.0494593214" lon="-2.3984972667">
        <ele>396.20</ele>
        <time>2018-11-10T06:34:37Z</time>
      </trkpt>
      <trkpt lat="37.0494980458" lon="-2.3985722009">
        <ele>395.72</ele>
        <time>2018-11-10T06:34:38Z</time>
      </trkpt>
      <trkpt lat="37.0495234430" lon="-2.3986545950">
        <ele>395.24</ele>
        <time>2018-11-10T06:34:39Z</time>
      </trkpt>
      <trkpt lat="37.0495382790" lon="-2.3987499811">
        <ele>394.76</ele>
        <time>2018-11-10T06:34:40Z</time>
      </trkpt>
      <trkpt lat="37.0495367702" lon="-2.3988515697">
        <ele>394.28</ele>
        <time>2018-11-10T06:34:41Z</time>
      </trkpt>
      <trkpt lat="37.0495191682" lon="-2.3989405856">
        <ele>393.32</ele>
        <time>2018-11-10T06:34:42Z</time>
      </trkpt>
      <trkpt lat="37.0494921785" lon="-2.3990239017">
        <ele>392.84</ele>
        <time>2018-11-10T06:34:43Z</time>
      </trkpt>
      <trkpt lat="37.0494568907" lon="-2.3991197068">
        <ele>392.36</ele>
        <time>2018-11-10T06:34:44Z</time>
      </trkpt>
      <trkpt lat="37.0491550583" lon="-2.3998120520">
        <ele>388.51</ele>
        <time>2018-11-10T06:34:51Z</time>
      </trkpt>
      <trkpt lat="37.0488171838" lon="-2.4003665987">
        <ele>386.11</ele>
        <time>2018-11-10T06:34:57Z</time>
      </trkpt>
      <trkpt lat="37.0484490506" lon="-2.4007886276">
        <ele>383.70</ele>
        <time>2018-11-10T06:35:03Z</time>
      </trkpt>
      <trkpt lat="37.0482012816" lon="-2.4010899570">
        <ele>382.26</ele>
        <time>2018-11-10T06:35:08Z</time>
      </trkpt>
      <trkpt lat="37.0481701009" lon="-2.4011537433">
        <ele>382.26</ele>
        <time>2018-11-10T06:35:09Z</time>
      </trkpt>
      <trkpt lat="37.0481457096" lon="-2.4012229778">
        <ele>382.26</ele>
        <time>2018-11-10T06:35:10Z</time>
      </trkpt>
      <trkpt lat="37.0480851922" lon="-2.4015008379">
        <ele>382.74</ele>
        <time>2018-11-10T06:35:16Z</time>
      </trkpt>
      <trkpt lat="37.0480458811" lon="-2.4016374629">
        <ele>382.74</ele>
        <time>2018-11-10T06:35:19Z</time>
      </trkpt>
      <trkpt lat="37.0479925722" lon="-2.4017325137">
        <ele>382.74</ele>
        <time>2018-11-10T06:35:21Z</time>
      </trkpt>
      <trkpt lat="37.0479554404" lon="-2.4017801229">
        <ele>382.74</ele>
        <time>2018-11-10T06:35:22Z</time>
      </trkpt>
      <trkpt lat="37.0479103457" lon="-2.4018242117">
        <ele>382.74</ele>
        <time>2018-11-10T06:35:23Z</time>
      </trkpt>
      <trkpt lat="37.0475101098" lon="-2.4021067657">
        <ele>382.26</ele>
        <time>2018-11-10T06:35:32Z</time>
      </trkpt>
      <trkpt lat="37.0474248659" lon="-2.4021580629">
        <ele>381.78</ele>
        <time>2018-11-10T06:35:36Z</time>
      </trkpt>
      <trkpt lat="37.0472868998" lon="-2.4022447318">
        <ele>381.78</ele>
        <time>2018-11-10T06:35:42Z</time>
      </trkpt>
      <trkpt lat="37.0470762625" lon="-2.4023944326">
        <ele>381.78</ele>
        <time>2018-11-10T06:35:50Z</time>
      </trkpt>
      <trkpt lat="37.0470027532" lon="-2.4024494179">
        <ele>381.30</ele>
        <time>2018-11-10T06:35:55Z</time>
      </trkpt>
      <trkpt lat="37.0470164157" lon="-2.4024535250">
        <ele>380.82</ele>
        <time>2018-11-10T06:36:09Z</time>
      </trkpt>
      <trkpt lat="37.0470032562" lon="-2.4024579674">
        <ele>379.38</ele>
        <time>2018-11-10T06:36:30Z</time>
      </trkpt>
      <trkpt lat="37.0468566567" lon="-2.4025636632">
        <ele>378.90</ele>
        <time>2018-11-10T06:36:37Z</time>
      </trkpt>
      <trkpt lat="37.0466189459" lon="-2.4027245119">
        <ele>377.94</ele>
        <time>2018-11-10T06:36:46Z</time>
      </trkpt>
      <trkpt lat="37.0462718513" lon="-2.4029659946">
        <ele>376.01</ele>
        <time>2018-11-10T06:36:56Z</time>
      </trkpt>
      <trkpt lat="37.0458354894" lon="-2.4032750353">
        <ele>374.57</ele>
        <time>2018-11-10T06:37:05Z</time>
      </trkpt>
      <trkpt lat="37.0453303959" lon="-2.4036286678">
        <ele>371.69</ele>
        <time>2018-11-10T06:37:13Z</time>
      </trkpt>
      <trkpt lat="37.0447695628" lon="-2.4040244613">
        <ele>366.40</ele>
        <time>2018-11-10T06:37:20Z</time>
      </trkpt>
      <trkpt lat="37.0439788979" lon="-2.4045898207">
        <ele>359.19</ele>
        <time>2018-11-10T06:37:28Z</time>
      </trkpt>
      <trkpt lat="37.0430053398" lon="-2.4052721076">
        <ele>352.46</ele>
        <time>2018-11-10T06:37:37Z</time>
      </trkpt>
      <trkpt lat="37.0424584206" lon="-2.4056617822">
        <ele>352.46</ele>
        <time>2018-11-10T06:37:43Z</time>
      </trkpt>
      <trkpt lat="37.0421226416" lon="-2.4059069529">
        <ele>352.46</ele>
        <time>2018-11-10T06:37:48Z</time>
      </trkpt>
      <trkpt lat="37.0420712605" lon="-2.4059620220">
        <ele>352.46</ele>
        <time>2018-11-10T06:37:49Z</time>
      </trkpt>
      <trkpt lat="37.0420280937" lon="-2.4060210306">
        <ele>352.46</ele>
        <time>2018-11-10T06:37:50Z</time>
      </trkpt>
      <trkpt lat="37.0419882797" lon="-2.4060865771">
        <ele>352.46</ele>
        <time>2018-11-10T06:37:51Z</time>
      </trkpt>
      <trkpt lat="37.0419561770" lon="-2.4061515369">
        <ele>352.46</ele>
        <time>2018-11-10T06:37:52Z</time>
      </trkpt>
      <trkpt lat="37.0419291873" lon="-2.4062172510">
        <ele>352.46</ele>
        <time>2018-11-10T06:37:53Z</time>
      </trkpt>
      <trkpt lat="37.0419076458" lon="-2.4062842224">
        <ele>352.46</ele>
        <time>2018-11-10T06:37:54Z</time>
      </trkpt>
      <trkpt lat="37.0418900438" lon="-2.4063527863">
        <ele>352.46</ele>
        <time>2018-11-10T06:37:55Z</time>
      </trkpt>
      <trkpt lat="37.0418819133" lon="-2.4064172432">
        <ele>352.46</ele>
        <time>2018-11-10T06:37:56Z</time>
      </trkpt>
      <trkpt lat="37.0418804046" lon="-2.4064787664">
        <ele>352.46</ele>
        <time>2018-11-10T06:37:57Z</time>
      </trkpt>
      <trkpt lat="37.0418817457" lon="-2.4065397866">
        <ele>352.46</ele>
        <time>2018-11-10T06:37:58Z</time>
      </trkpt>
      <trkpt lat="37.0418843441" lon="-2.4065930117">
        <ele>352.94</ele>
        <time>2018-11-10T06:37:59Z</time>
      </trkpt>
      <trkpt lat="37.0419131778" lon="-2.4068288784">
        <ele>353.90</ele>
        <time>2018-11-10T06:38:05Z</time>
      </trkpt>
      <trkpt lat="37.0419856813" lon="-2.4070694391">
        <ele>355.83</ele>
        <time>2018-11-10T06:38:15Z</time>
      </trkpt>
      <trkpt lat="37.0420588553" lon="-2.4072711077">
        <ele>357.27</ele>
        <time>2018-11-10T06:38:24Z</time>
      </trkpt>
      <trkpt lat="37.0421461947" lon="-2.4075418431">
        <ele>358.23</ele>
        <time>2018-11-10T06:38:35Z</time>
      </trkpt>
      <trkpt lat="37.0422234759" lon="-2.4077030271">
        <ele>359.67</ele>
        <time>2018-11-10T06:38:44Z</time>
      </trkpt>
      <trkpt lat="37.0422245655" lon="-2.4077008478">
        <ele>359.19</ele>
        <time>2018-11-10T06:38:59Z</time>
      </trkpt>
      <trkpt lat="37.0422272477" lon="-2.4077002611">
        <ele>358.71</ele>
        <time>2018-11-10T06:39:20Z</time>
      </trkpt>
      <trkpt lat="37.0422274154" lon="-2.4077001773">
        <ele>358.71</ele>
        <time>2018-11-10T06:39:40Z</time>
      </trkpt>
      <trkpt lat="37.0422443468" lon="-2.4077731837">
        <ele>359.67</ele>
        <time>2018-11-10T06:39:48Z</time>
      </trkpt>
      <trkpt lat="37.0422642957" lon="-2.4078207090">
        <ele>360.63</ele>
        <time>2018-11-10T06:39:55Z</time>
      </trkpt>
      <trkpt lat="37.0422604401" lon="-2.4078118242">
        <ele>359.67</ele>
        <time>2018-11-10T06:40:14Z</time>
      </trkpt>
      <trkpt lat="37.0422637090" lon="-2.4078158475">
        <ele>359.67</ele>
        <time>2018-11-10T06:40:31Z</time>
      </trkpt>
      <trkpt lat="37.0422730129" lon="-2.4078324437">
        <ele>360.15</ele>
        <time>2018-11-10T06:40:46Z</time>
      </trkpt>
      <trkpt lat="37.0422657207" lon="-2.4078446813">
        <ele>360.15</ele>
        <time>2018-11-10T06:41:03Z</time>
      </trkpt>
      <trkpt lat="37.0422628708" lon="-2.4078275822">
        <ele>360.63</ele>
        <time>2018-11-10T06:41:21Z</time>
      </trkpt>
      <trkpt lat="37.0422775391" lon="-2.4078592658">
        <ele>360.63</ele>
        <time>2018-11-10T06:41:38Z</time>
      </trkpt>
      <trkpt lat="37.0423341170" lon="-2.4080415722">
        <ele>362.55</ele>
        <time>2018-11-10T06:41:46Z</time>
      </trkpt>
      <trkpt lat="37.0424143318" lon="-2.4082510360">
        <ele>364.48</ele>
        <time>2018-11-10T06:41:54Z</time>
      </trkpt>
      <trkpt lat="37.0425139926" lon="-2.4085479230">
        <ele>365.92</ele>
        <time>2018-11-10T06:42:04Z</time>
      </trkpt>
      <trkpt lat="37.0425948780" lon="-2.4088066723">
        <ele>367.36</ele>
        <time>2018-11-10T06:42:14Z</time>
      </trkpt>
      <trkpt lat="37.0426552277" lon="-2.4090867117">
        <ele>368.80</ele>
        <time>2018-11-10T06:42:24Z</time>
      </trkpt>
      <trkpt lat="37.0426781941" lon="-2.4093766417">
        <ele>370.24</ele>
        <time>2018-11-10T06:42:33Z</time>
      </trkpt>
      <trkpt lat="37.0426563174" lon="-2.4097446073">
        <ele>371.69</ele>
        <time>2018-11-10T06:42:44Z</time>
      </trkpt>
      <trkpt lat="37.0425937884" lon="-2.4100451823">
        <ele>371.69</ele>
        <time>2018-11-10T06:42:53Z</time>
      </trkpt>
      <trkpt lat="37.0425388869" lon="-2.4102628604">
        <ele>371.69</ele>
        <time>2018-11-10T06:43:00Z</time>
      </trkpt>
      <trkpt lat="37.0424781181" lon="-2.4105125573">
        <ele>371.21</ele>
        <time>2018-11-10T06:43:09Z</time>
      </trkpt>
      <trkpt lat="37.0424323529" lon="-2.4107250385">
        <ele>370.73</ele>
        <time>2018-11-10T06:43:19Z</time>
      </trkpt>
      <trkpt lat="37.0424602646" lon="-2.4109222647">
        <ele>370.24</ele>
        <time>2018-11-10T06:43:29Z</time>
      </trkpt>
      <trkpt lat="37.0424584206" lon="-2.4109223485">
        <ele>371.21</ele>
        <time>2018-11-10T06:43:37Z</time>
      </trkpt>
      <trkpt lat="37.0424543135" lon="-2.4109293893">
        <ele>370.73</ele>
        <time>2018-11-10T06:43:55Z</time>
      </trkpt>
      <trkpt lat="37.0424614381" lon="-2.4109229352">
        <ele>370.24</ele>
        <time>2018-11-10T06:44:29Z</time>
      </trkpt>
      <trkpt lat="37.0424492843" lon="-2.4109415431">
        <ele>370.24</ele>
        <time>2018-11-10T06:44:44Z</time>
      </trkpt>
      <trkpt lat="37.0424450934" lon="-2.4109531101">
        <ele>370.24</ele>
        <time>2018-11-10T06:44:45Z</time>
      </trkpt>
      <trkpt lat="37.0423535630" lon="-2.4110499211">
        <ele>370.24</ele>
        <time>2018-11-10T06:44:54Z</time>
      </trkpt>
      <trkpt lat="37.0422723424" lon="-2.4112323951">
        <ele>370.24</ele>
        <time>2018-11-10T06:45:03Z</time>
      </trkpt>
      <trkpt lat="37.0421631262" lon="-2.4115115963">
        <ele>370.24</ele>
        <time>2018-11-10T06:45:12Z</time>
      </trkpt>
      <trkpt lat="37.0420408342" lon="-2.4118808191">
        <ele>369.76</ele>
        <time>2018-11-10T06:45:24Z</time>
      </trkpt>
      <trkpt lat="37.0419204701" lon="-2.4121939670">
        <ele>369.76</ele>
        <time>2018-11-10T06:45:32Z</time>
      </trkpt>
      <trkpt lat="37.0417826716" lon="-2.4124797899">
        <ele>368.80</ele>
        <time>2018-11-10T06:45:40Z</time>
      </trkpt>
      <trkpt lat="37.0416690968" lon="-2.4126791116">
        <ele>368.32</ele>
        <time>2018-11-10T06:45:50Z</time>
      </trkpt>
      <trkpt lat="37.0416658279" lon="-2.4127527885">
        <ele>369.28</ele>
        <time>2018-11-10T06:45:57Z</time>
      </trkpt>
      <trkpt lat="37.0416613854" lon="-2.4127547164">
        <ele>371.21</ele>
        <time>2018-11-10T06:46:11Z</time>
      </trkpt>
      <trkpt lat="37.0416488964" lon="-2.4127516150">
        <ele>371.21</ele>
        <time>2018-11-10T06:46:28Z</time>
      </trkpt>
      <trkpt lat="37.0416564401" lon="-2.4127572309">
        <ele>372.17</ele>
        <time>2018-11-10T06:46:44Z</time>
      </trkpt>
      <trkpt lat="37.0416554343" lon="-2.4127560575">
        <ele>371.21</ele>
        <time>2018-11-10T06:46:55Z</time>
      </trkpt>
      <trkpt lat="37.0416515786" lon="-2.4127557222">
        <ele>371.21</ele>
        <time>2018-11-10T06:47:00Z</time>
      </trkpt>
      <trkpt lat="37.0416174643" lon="-2.4127573147">
        <ele>369.76</ele>
        <time>2018-11-10T06:47:08Z</time>
      </trkpt>
      <trkpt lat="37.0415380877" lon="-2.4128294829">
        <ele>369.76</ele>
        <time>2018-11-10T06:47:14Z</time>
      </trkpt>
      <trkpt lat="37.0414472278" lon="-2.4129744060">
        <ele>369.28</ele>
        <time>2018-11-10T06:47:21Z</time>
      </trkpt>
      <trkpt lat="37.0412327349" lon="-2.4132212531">
        <ele>369.28</ele>
        <time>2018-11-10T06:47:30Z</time>
      </trkpt>
      <trkpt lat="37.0409717225" lon="-2.4134501629">
        <ele>368.32</ele>
        <time>2018-11-10T06:47:38Z</time>
      </trkpt>
      <trkpt lat="37.0406491868" lon="-2.4136702716">
        <ele>367.84</ele>
        <time>2018-11-10T06:47:46Z</time>
      </trkpt>
      <trkpt lat="37.0400953107" lon="-2.4139964115">
        <ele>365.92</ele>
        <time>2018-11-10T06:47:57Z</time>
      </trkpt>
      <trkpt lat="37.0395540074" lon="-2.4143087212">
        <ele>364.48</ele>
        <time>2018-11-10T06:48:06Z</time>
      </trkpt>
      <trkpt lat="37.0388152264" lon="-2.4147826340">
        <ele>362.55</ele>
        <time>2018-11-10T06:48:17Z</time>
      </trkpt>
      <trkpt lat="37.0382327680" lon="-2.4153185729">
        <ele>360.15</ele>
        <time>2018-11-10T06:48:26Z</time>
      </trkpt>
      <trkpt lat="37.0377819054" lon="-2.4158915598">
        <ele>358.23</ele>
        <time>2018-11-10T06:48:34Z</time>
      </trkpt>
      <trkpt lat="37.0372907259" lon="-2.4166875053">
        <ele>356.31</ele>
        <time>2018-11-10T06:48:45Z</time>
      </trkpt>
      <trkpt lat="37.0368546154" lon="-2.4174403679">
        <ele>352.94</ele>
        <time>2018-11-10T06:48:55Z</time>
      </trkpt>
      <trkpt lat="37.0362795331" lon="-2.4184244871">
        <ele>348.62</ele>
        <time>2018-11-10T06:49:07Z</time>
      </trkpt>
      <trkpt lat="37.0358471107" lon="-2.4191535451">
        <ele>346.21</ele>
        <time>2018-11-10T06:49:16Z</time>
      </trkpt>
      <trkpt lat="37.0354847610" lon="-2.4197784998">
        <ele>345.73</ele>
        <time>2018-11-10T06:49:25Z</time>
      </trkpt>
      <trkpt lat="37.0352053083" lon="-2.4202618841">
        <ele>346.21</ele>
        <time>2018-11-10T06:49:34Z</time>
      </trkpt>
      <trkpt lat="37.0348341577" lon="-2.4209036864">
        <ele>346.21</ele>
        <time>2018-11-10T06:49:46Z</time>
      </trkpt>
      <trkpt lat="37.0345754921" lon="-2.4213413894">
        <ele>345.73</ele>
        <time>2018-11-10T06:49:55Z</time>
      </trkpt>
      <trkpt lat="37.0342630148" lon="-2.4218892306">
        <ele>344.29</ele>
        <time>2018-11-10T06:50:05Z</time>
      </trkpt>
      <trkpt lat="37.0338627789" lon="-2.4225702602">
        <ele>342.37</ele>
        <time>2018-11-10T06:50:16Z</time>
      </trkpt>
      <trkpt lat="37.0334275905" lon="-2.4231906049">
        <ele>339.96</ele>
        <time>2018-11-10T06:50:25Z</time>
      </trkpt>
      <trkpt lat="37.0330021251" lon="-2.4235053454">
        <ele>338.04</ele>
        <time>2018-11-10T06:50:31Z</time>
      </trkpt>
      <trkpt lat="37.0325187407" lon="-2.4236236140">
        <ele>336.12</ele>
        <time>2018-11-10T06:50:37Z</time>
      </trkpt>
      <trkpt lat="37.0320723206" lon="-2.4235550500">
        <ele>333.23</ele>
        <time>2018-11-10T06:50:42Z</time>
      </trkpt>
      <trkpt lat="37.0315338671" lon="-2.4232741725">
        <ele>330.83</ele>
        <time>2018-11-10T06:50:48Z</time>
      </trkpt>
      <trkpt lat="37.0313062984" lon="-2.4231598433">
        <ele>330.35</ele>
        <time>2018-11-10T06:50:51Z</time>
      </trkpt>
      <trkpt lat="37.0312300231" lon="-2.4231405649">
        <ele>330.35</ele>
        <time>2018-11-10T06:50:52Z</time>
      </trkpt>
      <trkpt lat="37.0311536640" lon="-2.4231341947">
        <ele>330.35</ele>
        <time>2018-11-10T06:50:53Z</time>
      </trkpt>
      <trkpt lat="37.0310834236" lon="-2.4231382180">
        <ele>330.35</ele>
        <time>2018-11-10T06:50:54Z</time>
      </trkpt>
      <trkpt lat="37.0310178772" lon="-2.4231532216">
        <ele>330.35</ele>
        <time>2018-11-10T06:50:55Z</time>
      </trkpt>
      <trkpt lat="37.0309536718" lon="-2.4231818877">
        <ele>329.87</ele>
        <time>2018-11-10T06:50:56Z</time>
      </trkpt>
      <trkpt lat="37.0309007820" lon="-2.4232215341">
        <ele>329.87</ele>
        <time>2018-11-10T06:50:57Z</time>
      </trkpt>
      <trkpt lat="37.0308530889" lon="-2.4232750107">
        <ele>329.87</ele>
        <time>2018-11-10T06:50:58Z</time>
      </trkpt>
      <trkpt lat="37.0308148675" lon="-2.4233364500">
        <ele>329.39</ele>
        <time>2018-11-10T06:50:59Z</time>
      </trkpt>
      <trkpt lat="37.0307818428" lon="-2.4234081153">
        <ele>329.39</ele>
        <time>2018-11-10T06:51:00Z</time>
      </trkpt>
      <trkpt lat="37.0307561941" lon="-2.4234824628">
        <ele>328.91</ele>
        <time>2018-11-10T06:51:01Z</time>
      </trkpt>
      <trkpt lat="37.0307329763" lon="-2.4235635158">
        <ele>328.91</ele>
        <time>2018-11-10T06:51:02Z</time>
      </trkpt>
      <trkpt lat="37.0307173021" lon="-2.4236407969">
        <ele>328.91</ele>
        <time>2018-11-10T06:51:03Z</time>
      </trkpt>
      <trkpt lat="37.0307046454" lon="-2.4237231072">
        <ele>328.43</ele>
        <time>2018-11-10T06:51:04Z</time>
      </trkpt>
      <trkpt lat="37.0306518395" lon="-2.4241242651">
        <ele>327.47</ele>
        <time>2018-11-10T06:51:10Z</time>
      </trkpt>
      <trkpt lat="37.0305745583" lon="-2.4246499781">
        <ele>324.58</ele>
        <time>2018-11-10T06:51:18Z</time>
      </trkpt>
      <trkpt lat="37.0305395219" lon="-2.4249200430">
        <ele>323.14</ele>
        <time>2018-11-10T06:51:25Z</time>
      </trkpt>
      <trkpt lat="37.0305477362" lon="-2.4250286724">
        <ele>321.70</ele>
        <time>2018-11-10T06:51:32Z</time>
      </trkpt>
      <trkpt lat="37.0305448025" lon="-2.4250247329">
        <ele>321.22</ele>
        <time>2018-11-10T06:51:48Z</time>
      </trkpt>
      <trkpt lat="37.0305465627" lon="-2.4250181951">
        <ele>321.70</ele>
        <time>2018-11-10T06:52:02Z</time>
      </trkpt>
      <trkpt lat="37.0305472333" lon="-2.4250198714">
        <ele>321.70</ele>
        <time>2018-11-10T06:52:26Z</time>
      </trkpt>
      <trkpt lat="37.0305418689" lon="-2.4250383116">
        <ele>321.70</ele>
        <time>2018-11-10T06:52:30Z</time>
      </trkpt>
      <trkpt lat="37.0305365045" lon="-2.4250562489">
        <ele>321.70</ele>
        <time>2018-11-10T06:52:31Z</time>
      </trkpt>
      <trkpt lat="37.0304665156" lon="-2.4252486136">
        <ele>320.26</ele>
        <time>2018-11-10T06:52:38Z</time>
      </trkpt>
      <trkpt lat="37.0304038189" lon="-2.4256185908">
        <ele>318.81</ele>
        <time>2018-11-10T06:52:45Z</time>
      </trkpt>
      <trkpt lat="37.0302400365" lon="-2.4261482432">
        <ele>315.45</ele>
        <time>2018-11-10T06:52:52Z</time>
      </trkpt>
      <trkpt lat="37.0299337618" lon="-2.4266080745">
        <ele>312.09</ele>
        <time>2018-11-10T06:52:58Z</time>
      </trkpt>
      <trkpt lat="37.0294562448" lon="-2.4270581827">
        <ele>310.64</ele>
        <time>2018-11-10T06:53:05Z</time>
      </trkpt>
      <trkpt lat="37.0291239023" lon="-2.4273434188">
        <ele>311.60</ele>
        <time>2018-11-10T06:53:11Z</time>
      </trkpt>
      <trkpt lat="37.0289361477" lon="-2.4274958856">
        <ele>313.05</ele>
        <time>2018-11-10T06:53:17Z</time>
      </trkpt>
      <trkpt lat="37.0288524963" lon="-2.4275597557">
        <ele>314.01</ele>
        <time>2018-11-10T06:53:24Z</time>
      </trkpt>
      <trkpt lat="37.0287646540" lon="-2.4276216980">
        <ele>314.49</ele>
        <time>2018-11-10T06:53:33Z</time>
      </trkpt>
      <trkpt lat="37.0287666656" lon="-2.4276196864">
        <ele>315.45</ele>
        <time>2018-11-10T06:53:50Z</time>
      </trkpt>
      <trkpt lat="37.0287584513" lon="-2.4276227038">
        <ele>314.97</ele>
        <time>2018-11-10T06:54:05Z</time>
      </trkpt>
      <trkpt lat="37.0286900550" lon="-2.4276607577">
        <ele>315.45</ele>
        <time>2018-11-10T06:54:11Z</time>
      </trkpt>
      <trkpt lat="37.0284757297" lon="-2.4277869891">
        <ele>317.37</ele>
        <time>2018-11-10T06:54:20Z</time>
      </trkpt>
      <trkpt lat="37.0281877276" lon="-2.4278957024">
        <ele>318.81</ele>
        <time>2018-11-10T06:54:30Z</time>
      </trkpt>
      <trkpt lat="37.0278264675" lon="-2.4279633444">
        <ele>321.22</ele>
        <time>2018-11-10T06:54:42Z</time>
      </trkpt>
      <trkpt lat="37.0275174268" lon="-2.4279677030">
        <ele>322.66</ele>
        <time>2018-11-10T06:54:52Z</time>
      </trkpt>
      <trkpt lat="37.0272619464" lon="-2.4279575609">
        <ele>323.62</ele>
        <time>2018-11-10T06:55:01Z</time>
      </trkpt>
      <trkpt lat="37.0269638859" lon="-2.4279335886">
        <ele>325.06</ele>
        <time>2018-11-10T06:55:10Z</time>
      </trkpt>
      <trkpt lat="37.0265763905" lon="-2.4278936908">
        <ele>326.02</ele>
        <time>2018-11-10T06:55:22Z</time>
      </trkpt>
      <trkpt lat="37.0262795035" lon="-2.4278744962">
        <ele>325.54</ele>
        <time>2018-11-10T06:55:32Z</time>
      </trkpt>
      <trkpt lat="37.0259801857" lon="-2.4278975464">
        <ele>326.02</ele>
        <time>2018-11-10T06:55:42Z</time>
      </trkpt>
      <trkpt lat="37.0256981347" lon="-2.4279920943">
        <ele>325.54</ele>
        <time>2018-11-10T06:55:52Z</time>
      </trkpt>
      <trkpt lat="37.0254036784" lon="-2.4281759933">
        <ele>325.06</ele>
        <time>2018-11-10T06:56:03Z</time>
      </trkpt>
      <trkpt lat="37.0251206215" lon="-2.4284792505">
        <ele>324.10</ele>
        <time>2018-11-10T06:56:14Z</time>
      </trkpt>
      <trkpt lat="37.0248632971" lon="-2.4289246649">
        <ele>322.18</ele>
        <time>2018-11-10T06:56:24Z</time>
      </trkpt>
      <trkpt lat="37.0246992633" lon="-2.4294454325">
        <ele>320.26</ele>
        <time>2018-11-10T06:56:32Z</time>
      </trkpt>
      <trkpt lat="37.0244994387" lon="-2.4302078504">
        <ele>317.37</ele>
        <time>2018-11-10T06:56:41Z</time>
      </trkpt>
      <trkpt lat="37.0242903940" lon="-2.4310809933">
        <ele>312.57</ele>
        <time>2018-11-10T06:56:49Z</time>
      </trkpt>
      <trkpt lat="37.0240311418" lon="-2.4320338480">
        <ele>307.76</ele>
        <time>2018-11-10T06:56:57Z</time>
      </trkpt>
      <trkpt lat="37.0239826106" lon="-2.4321439862">
        <ele>307.28</ele>
        <time>2018-11-10T06:56:58Z</time>
      </trkpt>
      <trkpt lat="37.0239245240" lon="-2.4322487600">
        <ele>306.80</ele>
        <time>2018-11-10T06:56:59Z</time>
      </trkpt>
      <trkpt lat="37.0238573011" lon="-2.4323449004">
        <ele>306.80</ele>
        <time>2018-11-10T06:57:00Z</time>
      </trkpt>
      <trkpt lat="37.0237821154" lon="-2.4324327428">
        <ele>306.32</ele>
        <time>2018-11-10T06:57:01Z</time>
      </trkpt>
      <trkpt lat="37.0237013977" lon="-2.4325108621">
        <ele>305.84</ele>
        <time>2018-11-10T06:57:02Z</time>
      </trkpt>
      <trkpt lat="37.0236123819" lon="-2.4325853772">
        <ele>305.36</ele>
        <time>2018-11-10T06:57:03Z</time>
      </trkpt>
      <trkpt lat="37.0235126372" lon="-2.4326593056">
        <ele>304.39</ele>
        <time>2018-11-10T06:57:04Z</time>
      </trkpt>
      <trkpt lat="37.0225716010" lon="-2.4332917202">
        <ele>301.99</ele>
        <time>2018-11-10T06:57:14Z</time>
      </trkpt>
      <trkpt lat="37.0220189821" lon="-2.4336683191">
        <ele>302.95</ele>
        <time>2018-11-10T06:57:21Z</time>
      </trkpt>
      <trkpt lat="37.0217701234" lon="-2.4338516314">
        <ele>304.39</ele>
        <time>2018-11-10T06:57:26Z</time>
      </trkpt>
      <trkpt lat="37.0215988811" lon="-2.4340456724">
        <ele>304.88</ele>
        <time>2018-11-10T06:57:33Z</time>
      </trkpt>
      <trkpt lat="37.0214410499" lon="-2.4343541265">
        <ele>304.39</ele>
        <time>2018-11-10T06:57:41Z</time>
      </trkpt>
      <trkpt lat="37.0214217715" lon="-2.4343972933">
        <ele>304.39</ele>
        <time>2018-11-10T06:57:42Z</time>
      </trkpt>
      <trkpt lat="37.0212703943" lon="-2.4347643368">
        <ele>302.95</ele>
        <time>2018-11-10T06:57:50Z</time>
      </trkpt>
      <trkpt lat="37.0212307479" lon="-2.4349184800">
        <ele>302.47</ele>
        <time>2018-11-10T06:57:56Z</time>
      </trkpt>
      <trkpt lat="37.0212292392" lon="-2.4349225871">
        <ele>302.47</ele>
        <time>2018-11-10T06:58:02Z</time>
      </trkpt>
      <trkpt lat="37.0212421473" lon="-2.4349185638">
        <ele>302.47</ele>
        <time>2018-11-10T06:58:19Z</time>
      </trkpt>
      <trkpt lat="37.0212524571" lon="-2.4349078350">
        <ele>301.99</ele>
        <time>2018-11-10T06:58:39Z</time>
      </trkpt>
      <trkpt lat="37.0212546363" lon="-2.4348910712">
        <ele>302.95</ele>
        <time>2018-11-10T06:58:49Z</time>
      </trkpt>
      <trkpt lat="37.0212503616" lon="-2.4348854553">
        <ele>302.95</ele>
        <time>2018-11-10T06:58:56Z</time>
      </trkpt>
      <trkpt lat="37.0212540496" lon="-2.4348706193">
        <ele>302.95</ele>
        <time>2018-11-10T06:58:57Z</time>
      </trkpt>
      <trkpt lat="37.0212519541" lon="-2.4348554481">
        <ele>302.95</ele>
        <time>2018-11-10T06:58:58Z</time>
      </trkpt>
      <trkpt lat="37.0212267246" lon="-2.4348554481">
        <ele>303.43</ele>
        <time>2018-11-10T06:59:02Z</time>
      </trkpt>
      <trkpt lat="37.0212210249" lon="-2.4348738045">
        <ele>303.43</ele>
        <time>2018-11-10T06:59:03Z</time>
      </trkpt>
      <trkpt lat="37.0212141518" lon="-2.4348940048">
        <ele>303.43</ele>
        <time>2018-11-10T06:59:04Z</time>
      </trkpt>
      <trkpt lat="37.0212094579" lon="-2.4349106010">
        <ele>303.43</ele>
        <time>2018-11-10T06:59:05Z</time>
      </trkpt>
      <trkpt lat="37.0212025847" lon="-2.4349333160">
        <ele>303.43</ele>
        <time>2018-11-10T06:59:06Z</time>
      </trkpt>
      <trkpt lat="37.0211398881" lon="-2.4350888841">
        <ele>302.47</ele>
        <time>2018-11-10T06:59:13Z</time>
      </trkpt>
      <trkpt lat="37.0210578293" lon="-2.4352908880">
        <ele>301.51</ele>
        <time>2018-11-10T06:59:20Z</time>
      </trkpt>
      <trkpt lat="37.0209025126" lon="-2.4356552493">
        <ele>300.55</ele>
        <time>2018-11-10T06:59:28Z</time>
      </trkpt>
      <trkpt lat="37.0206795540" lon="-2.4362268113">
        <ele>298.63</ele>
        <time>2018-11-10T06:59:37Z</time>
      </trkpt>
      <trkpt lat="37.0205987524" lon="-2.4364545476">
        <ele>297.18</ele>
        <time>2018-11-10T06:59:40Z</time>
      </trkpt>
      <trkpt lat="37.0204472076" lon="-2.4371986929">
        <ele>293.82</ele>
        <time>2018-11-10T06:59:49Z</time>
      </trkpt>
      <trkpt lat="37.0203260053" lon="-2.4380332790">
        <ele>289.97</ele>
        <time>2018-11-10T06:59:58Z</time>
      </trkpt>
      <trkpt lat="37.0201675035" lon="-2.4391055759">
        <ele>285.65</ele>
        <time>2018-11-10T07:00:09Z</time>
      </trkpt>
      <trkpt lat="37.0200028829" lon="-2.4400923774">
        <ele>282.28</ele>
        <time>2018-11-10T07:00:19Z</time>
      </trkpt>
      <trkpt lat="37.0197728835" lon="-2.4407855608">
        <ele>278.92</ele>
        <time>2018-11-10T07:00:26Z</time>
      </trkpt>
      <trkpt lat="37.0195610728" lon="-2.4411367625">
        <ele>276.52</ele>
        <time>2018-11-10T07:00:30Z</time>
      </trkpt>
      <trkpt lat="37.0191118866" lon="-2.4416142795">
        <ele>272.19</ele>
        <time>2018-11-10T07:00:36Z</time>
      </trkpt>
      <trkpt lat="37.0188224595" lon="-2.4419096578">
        <ele>269.31</ele>
        <time>2018-11-10T07:00:40Z</time>
      </trkpt>
      <trkpt lat="37.0187650435" lon="-2.4419941474">
        <ele>268.83</ele>
        <time>2018-11-10T07:00:41Z</time>
      </trkpt>
      <trkpt lat="37.0187126566" lon="-2.4421044532">
        <ele>268.35</ele>
        <time>2018-11-10T07:00:42Z</time>
      </trkpt>
      <trkpt lat="37.0186796319" lon="-2.4422181118">
        <ele>267.86</ele>
        <time>2018-11-10T07:00:43Z</time>
      </trkpt>
      <trkpt lat="37.0186611917" lon="-2.4423555750">
        <ele>266.90</ele>
        <time>2018-11-10T07:00:44Z</time>
      </trkpt>
      <trkpt lat="37.0186599344" lon="-2.4424427468">
        <ele>266.90</ele>
        <time>2018-11-10T07:00:45Z</time>
      </trkpt>
      <trkpt lat="37.0186612755" lon="-2.4425447546">
        <ele>266.90</ele>
        <time>2018-11-10T07:00:46Z</time>
      </trkpt>
      <trkpt lat="37.0186661370" lon="-2.4426386319">
        <ele>266.90</ele>
        <time>2018-11-10T07:00:47Z</time>
      </trkpt>
      <trkpt lat="37.0186992455" lon="-2.4434060790">
        <ele>267.86</ele>
        <time>2018-11-10T07:00:55Z</time>
      </trkpt>
      <trkpt lat="37.0187324379" lon="-2.4437727034">
        <ele>268.35</ele>
        <time>2018-11-10T07:01:00Z</time>
      </trkpt>
      <trkpt lat="37.0187621098" lon="-2.4438282754">
        <ele>268.83</ele>
        <time>2018-11-10T07:01:01Z</time>
      </trkpt>
      <trkpt lat="37.0188486949" lon="-2.4439656548">
        <ele>269.79</ele>
        <time>2018-11-10T07:01:04Z</time>
      </trkpt>
      <trkpt lat="37.0188676380" lon="-2.4440160301">
        <ele>269.79</ele>
        <time>2018-11-10T07:01:05Z</time>
      </trkpt>
      <trkpt lat="37.0188777801" lon="-2.4440959934">
        <ele>270.27</ele>
        <time>2018-11-10T07:01:06Z</time>
      </trkpt>
      <trkpt lat="37.0188681409" lon="-2.4441596121">
        <ele>270.75</ele>
        <time>2018-11-10T07:01:08Z</time>
      </trkpt>
      <trkpt lat="37.0188521314" lon="-2.4442078918">
        <ele>271.23</ele>
        <time>2018-11-10T07:01:09Z</time>
      </trkpt>
      <trkpt lat="37.0188065339" lon="-2.4442700017">
        <ele>271.23</ele>
        <time>2018-11-10T07:01:10Z</time>
      </trkpt>
      <trkpt lat="37.0187691506" lon="-2.4442985840">
        <ele>271.71</ele>
        <time>2018-11-10T07:01:11Z</time>
      </trkpt>
      <trkpt lat="37.0187221281" lon="-2.4443166889">
        <ele>271.71</ele>
        <time>2018-11-10T07:01:12Z</time>
      </trkpt>
      <trkpt lat="37.0186797157" lon="-2.4443140905">
        <ele>272.19</ele>
        <time>2018-11-10T07:01:13Z</time>
      </trkpt>
      <trkpt lat="37.0186416619" lon="-2.4442991707">
        <ele>272.19</ele>
        <time>2018-11-10T07:01:14Z</time>
      </trkpt>
      <trkpt lat="37.0186036080" lon="-2.4442750309">
        <ele>272.67</ele>
        <time>2018-11-10T07:01:15Z</time>
      </trkpt>
      <trkpt lat="37.0185693260" lon="-2.4442416709">
        <ele>272.19</ele>
        <time>2018-11-10T07:01:16Z</time>
      </trkpt>
      <trkpt lat="37.0185388997" lon="-2.4441943131">
        <ele>272.19</ele>
        <time>2018-11-10T07:01:17Z</time>
      </trkpt>
      <trkpt lat="37.0185223036" lon="-2.4441618752">
        <ele>272.19</ele>
        <time>2018-11-10T07:01:18Z</time>
      </trkpt>
      <trkpt lat="37.0185030252" lon="-2.4441140983">
        <ele>272.19</ele>
        <time>2018-11-10T07:01:19Z</time>
      </trkpt>
      <trkpt lat="37.0184748620" lon="-2.4440592807">
        <ele>271.71</ele>
        <time>2018-11-10T07:01:20Z</time>
      </trkpt>
      <trkpt lat="37.0184421726" lon="-2.4440146051">
        <ele>271.23</ele>
        <time>2018-11-10T07:01:21Z</time>
      </trkpt>
      <trkpt lat="37.0183973294" lon="-2.4439762998">
        <ele>270.75</ele>
        <time>2018-11-10T07:01:22Z</time>
      </trkpt>
      <trkpt lat="37.0183434337" lon="-2.4439521600">
        <ele>270.75</ele>
        <time>2018-11-10T07:01:23Z</time>
      </trkpt>
      <trkpt lat="37.0183021110" lon="-2.4439519923">
        <ele>270.75</ele>
        <time>2018-11-10T07:01:24Z</time>
      </trkpt>
      <trkpt lat="37.0182551723" lon="-2.4439680856">
        <ele>271.23</ele>
        <time>2018-11-10T07:01:25Z</time>
      </trkpt>
      <trkpt lat="37.0182180405" lon="-2.4439933989">
        <ele>271.23</ele>
        <time>2018-11-10T07:01:26Z</time>
      </trkpt>
      <trkpt lat="37.0181864407" lon="-2.4440285191">
        <ele>271.71</ele>
        <time>2018-11-10T07:01:27Z</time>
      </trkpt>
      <trkpt lat="37.0181651507" lon="-2.4440640584">
        <ele>272.19</ele>
        <time>2018-11-10T07:01:28Z</time>
      </trkpt>
      <trkpt lat="37.0181487221" lon="-2.4441026151">
        <ele>272.67</ele>
        <time>2018-11-10T07:01:29Z</time>
      </trkpt>
      <trkpt lat="37.0181365684" lon="-2.4441362265">
        <ele>272.67</ele>
        <time>2018-11-10T07:01:30Z</time>
      </trkpt>
      <trkpt lat="37.0179638173" lon="-2.4443725962">
        <ele>274.11</ele>
        <time>2018-11-10T07:01:39Z</time>
      </trkpt>
      <trkpt lat="37.0176977757" lon="-2.4445452634">
        <ele>276.04</ele>
        <time>2018-11-10T07:01:50Z</time>
      </trkpt>
      <trkpt lat="37.0174946822" lon="-2.4446448404">
        <ele>277.48</ele>
        <time>2018-11-10T07:01:58Z</time>
      </trkpt>
      <trkpt lat="37.0171718113" lon="-2.4447869137">
        <ele>279.40</ele>
        <time>2018-11-10T07:02:10Z</time>
      </trkpt>
      <trkpt lat="37.0169071946" lon="-2.4448620994">
        <ele>279.88</ele>
        <time>2018-11-10T07:02:20Z</time>
      </trkpt>
      <trkpt lat="37.0166874211" lon="-2.4448970519">
        <ele>279.40</ele>
        <time>2018-11-10T07:02:29Z</time>
      </trkpt>
      <trkpt lat="37.0163739379" lon="-2.4449677952">
        <ele>279.40</ele>
        <time>2018-11-10T07:02:39Z</time>
      </trkpt>
      <trkpt lat="37.0161395799" lon="-2.4450212717">
        <ele>279.40</ele>
        <time>2018-11-10T07:02:47Z</time>
      </trkpt>
      <trkpt lat="37.0158254262" lon="-2.4450868182">
        <ele>278.92</ele>
        <time>2018-11-10T07:02:58Z</time>
      </trkpt>
      <trkpt lat="37.0155821834" lon="-2.4451440666">
        <ele>278.44</ele>
        <time>2018-11-10T07:03:06Z</time>
      </trkpt>
      <trkpt lat="37.0153637510" lon="-2.4452087749">
        <ele>277.48</ele>
        <time>2018-11-10T07:03:12Z</time>
      </trkpt>
      <trkpt lat="37.0152383577" lon="-2.4452438951">
        <ele>277.00</ele>
        <time>2018-11-10T07:03:15Z</time>
      </trkpt>
      <trkpt lat="37.0149542950" lon="-2.4453606550">
        <ele>276.04</ele>
        <time>2018-11-10T07:03:21Z</time>
      </trkpt>
      <trkpt lat="37.0149081945" lon="-2.4453849625">
        <ele>275.56</ele>
        <time>2018-11-10T07:03:22Z</time>
      </trkpt>
      <trkpt lat="37.0148602501" lon="-2.4454051629">
        <ele>275.56</ele>
        <time>2018-11-10T07:03:23Z</time>
      </trkpt>
      <trkpt lat="37.0143708307" lon="-2.4456457235">
        <ele>273.15</ele>
        <time>2018-11-10T07:03:32Z</time>
      </trkpt>
      <trkpt lat="37.0138178766" lon="-2.4460103363">
        <ele>270.75</ele>
        <time>2018-11-10T07:03:41Z</time>
      </trkpt>
      <trkpt lat="37.0132355019" lon="-2.4465127476">
        <ele>268.83</ele>
        <time>2018-11-10T07:03:50Z</time>
      </trkpt>
      <trkpt lat="37.0126559772" lon="-2.4471864011">
        <ele>266.42</ele>
        <time>2018-11-10T07:03:59Z</time>
      </trkpt>
      <trkpt lat="37.0120957308" lon="-2.4480432831">
        <ele>261.62</ele>
        <time>2018-11-10T07:04:08Z</time>
      </trkpt>
      <trkpt lat="37.0114225801" lon="-2.4492475111">
        <ele>254.89</ele>
        <time>2018-11-10T07:04:19Z</time>
      </trkpt>
      <trkpt lat="37.0107085258" lon="-2.4505245779">
        <ele>249.12</ele>
        <time>2018-11-10T07:04:30Z</time>
      </trkpt>
      <trkpt lat="37.0100144204" lon="-2.4517744035">
        <ele>243.83</ele>
        <time>2018-11-10T07:04:41Z</time>
      </trkpt>
      <trkpt lat="37.0095283538" lon="-2.4526124261">
        <ele>240.95</ele>
        <time>2018-11-10T07:04:49Z</time>
      </trkpt>
      <trkpt lat="37.0089421235" lon="-2.4535178393">
        <ele>236.14</ele>
        <time>2018-11-10T07:04:58Z</time>
      </trkpt>
      <trkpt lat="37.0084925182" lon="-2.4540169816">
        <ele>234.70</ele>
        <time>2018-11-10T07:05:04Z</time>
      </trkpt>
      <trkpt lat="37.0082715712" lon="-2.4541681074">
        <ele>235.18</ele>
        <time>2018-11-10T07:05:07Z</time>
      </trkpt>
      <trkpt lat="37.0078393165" lon="-2.4543451332">
        <ele>236.14</ele>
        <time>2018-11-10T07:05:13Z</time>
      </trkpt>
      <trkpt lat="37.0075521525" lon="-2.4544510804">
        <ele>236.62</ele>
        <time>2018-11-10T07:05:18Z</time>
      </trkpt>
      <trkpt lat="37.0070571173" lon="-2.4546660762">
        <ele>237.10</ele>
        <time>2018-11-10T07:05:28Z</time>
      </trkpt>
      <trkpt lat="37.0067259483" lon="-2.4548891187">
        <ele>237.58</ele>
        <time>2018-11-10T07:05:36Z</time>
      </trkpt>
      <trkpt lat="37.0066551212" lon="-2.4549461994">
        <ele>237.58</ele>
        <time>2018-11-10T07:05:38Z</time>
      </trkpt>
      <trkpt lat="37.0066228509" lon="-2.4549838342">
        <ele>237.58</ele>
        <time>2018-11-10T07:05:39Z</time>
      </trkpt>
      <trkpt lat="37.0065956935" lon="-2.4550259952">
        <ele>237.58</ele>
        <time>2018-11-10T07:05:40Z</time>
      </trkpt>
      <trkpt lat="37.0065446477" lon="-2.4551151786">
        <ele>237.58</ele>
        <time>2018-11-10T07:05:42Z</time>
      </trkpt>
      <trkpt lat="37.0063926838" lon="-2.4555540551">
        <ele>237.10</ele>
        <time>2018-11-10T07:05:51Z</time>
      </trkpt>
      <trkpt lat="37.0063328370" lon="-2.4558075238">
        <ele>237.10</ele>
        <time>2018-11-10T07:05:56Z</time>
      </trkpt>
      <trkpt lat="37.0061579067" lon="-2.4561666884">
        <ele>238.06</ele>
        <time>2018-11-10T07:06:05Z</time>
      </trkpt>
      <trkpt lat="37.0058704913" lon="-2.4565050658">
        <ele>238.54</ele>
        <time>2018-11-10T07:06:16Z</time>
      </trkpt>
      <trkpt lat="37.0055030286" lon="-2.4568357319">
        <ele>239.02</ele>
        <time>2018-11-10T07:06:27Z</time>
      </trkpt>
      <trkpt lat="37.0050801616" lon="-2.4572363868">
        <ele>239.99</ele>
        <time>2018-11-10T07:06:39Z</time>
      </trkpt>
      <trkpt lat="37.0047201589" lon="-2.4574588425">
        <ele>241.43</ele>
        <time>2018-11-10T07:06:48Z</time>
      </trkpt>
      <trkpt lat="37.0043527801" lon="-2.4575521331">
        <ele>240.95</ele>
        <time>2018-11-10T07:06:57Z</time>
      </trkpt>
      <trkpt lat="37.0038304199" lon="-2.4576385505">
        <ele>239.51</ele>
        <time>2018-11-10T07:07:09Z</time>
      </trkpt>
      <trkpt lat="37.0034573413" lon="-2.4578975514">
        <ele>239.02</ele>
        <time>2018-11-10T07:07:18Z</time>
      </trkpt>
      <trkpt lat="37.0030616317" lon="-2.4583005533">
        <ele>238.06</ele>
        <time>2018-11-10T07:07:28Z</time>
      </trkpt>
      <trkpt lat="37.0026722085" lon="-2.4587734602">
        <ele>237.10</ele>
        <time>2018-11-10T07:07:39Z</time>
      </trkpt>
      <trkpt lat="37.0024084300" lon="-2.4591788091">
        <ele>237.58</ele>
        <time>2018-11-10T07:07:48Z</time>
      </trkpt>
      <trkpt lat="37.0021718927" lon="-2.4595896900">
        <ele>239.02</ele>
        <time>2018-11-10T07:07:58Z</time>
      </trkpt>
      <trkpt lat="37.0019314997" lon="-2.4599852320">
        <ele>240.47</ele>
        <time>2018-11-10T07:08:08Z</time>
      </trkpt>
      <trkpt lat="37.0016569085" lon="-2.4603802711">
        <ele>242.39</ele>
        <time>2018-11-10T07:08:19Z</time>
      </trkpt>
      <trkpt lat="37.0014896058" lon="-2.4605777487">
        <ele>241.91</ele>
        <time>2018-11-10T07:08:25Z</time>
      </trkpt>
      <trkpt lat="37.0011648908" lon="-2.4608789943">
        <ele>243.35</ele>
        <time>2018-11-10T07:08:35Z</time>
      </trkpt>
      <trkpt lat="37.0008466300" lon="-2.4611296132">
        <ele>244.31</ele>
        <time>2018-11-10T07:08:44Z</time>
      </trkpt>
      <trkpt lat="37.0004925784" lon="-2.4613782205">
        <ele>244.79</ele>
        <time>2018-11-10T07:08:54Z</time>
      </trkpt>
      <trkpt lat="37.0001022331" lon="-2.4616040289">
        <ele>244.31</ele>
        <time>2018-11-10T07:09:04Z</time>
      </trkpt>
      <trkpt lat="36.9997595809" lon="-2.4617797136">
        <ele>243.35</ele>
        <time>2018-11-10T07:09:13Z</time>
      </trkpt>
      <trkpt lat="36.9993507117" lon="-2.4619630259">
        <ele>242.39</ele>
        <time>2018-11-10T07:09:23Z</time>
      </trkpt>
      <trkpt lat="36.9989146013" lon="-2.4621209409">
        <ele>241.91</ele>
        <time>2018-11-10T07:09:33Z</time>
      </trkpt>
      <trkpt lat="36.9984687679" lon="-2.4622724019">
        <ele>240.47</ele>
        <time>2018-11-10T07:09:43Z</time>
      </trkpt>
      <trkpt lat="36.9980417099" lon="-2.4623835459">
        <ele>239.51</ele>
        <time>2018-11-10T07:09:52Z</time>
      </trkpt>
      <trkpt lat="36.9975989778" lon="-2.4625072628">
        <ele>238.54</ele>
        <time>2018-11-10T07:10:00Z</time>
      </trkpt>
      <trkpt lat="36.9971722551" lon="-2.4627307244">
        <ele>237.10</ele>
        <time>2018-11-10T07:10:07Z</time>
      </trkpt>
      <trkpt lat="36.9966231566" lon="-2.4630913138">
        <ele>234.70</ele>
        <time>2018-11-10T07:10:15Z</time>
      </trkpt>
      <trkpt lat="36.9959202502" lon="-2.4634802341">
        <ele>231.33</ele>
        <time>2018-11-10T07:10:23Z</time>
      </trkpt>
      <trkpt lat="36.9951932039" lon="-2.4637686554">
        <ele>227.01</ele>
        <time>2018-11-10T07:10:30Z</time>
      </trkpt>
      <trkpt lat="36.9942930713" lon="-2.4639273249">
        <ele>222.20</ele>
        <time>2018-11-10T07:10:38Z</time>
      </trkpt>
      <trkpt lat="36.9936018996" lon="-2.4638850801">
        <ele>219.80</ele>
        <time>2018-11-10T07:10:44Z</time>
      </trkpt>
      <trkpt lat="36.9934858941" lon="-2.4638495408">
        <ele>219.32</ele>
        <time>2018-11-10T07:10:45Z</time>
      </trkpt>
      <trkpt lat="36.9933796115" lon="-2.4638037756">
        <ele>218.84</ele>
        <time>2018-11-10T07:10:46Z</time>
      </trkpt>
      <trkpt lat="36.9932738319" lon="-2.4637438450">
        <ele>218.36</ele>
        <time>2018-11-10T07:10:47Z</time>
      </trkpt>
      <trkpt lat="36.9931735005" lon="-2.4636718445">
        <ele>217.88</ele>
        <time>2018-11-10T07:10:48Z</time>
      </trkpt>
      <trkpt lat="36.9930781983" lon="-2.4635911267">
        <ele>217.40</ele>
        <time>2018-11-10T07:10:49Z</time>
      </trkpt>
      <trkpt lat="36.9929858297" lon="-2.4635026976">
        <ele>216.91</ele>
        <time>2018-11-10T07:10:50Z</time>
      </trkpt>
      <trkpt lat="36.9928974845" lon="-2.4634054676">
        <ele>216.43</ele>
        <time>2018-11-10T07:10:51Z</time>
      </trkpt>
      <trkpt lat="36.9928133301" lon="-2.4633018672">
        <ele>215.47</ele>
        <time>2018-11-10T07:10:52Z</time>
      </trkpt>
      <trkpt lat="36.9922966696" lon="-2.4627148826">
        <ele>211.15</ele>
        <time>2018-11-10T07:10:58Z</time>
      </trkpt>
      <trkpt lat="36.9921973441" lon="-2.4626417086">
        <ele>210.67</ele>
        <time>2018-11-10T07:10:59Z</time>
      </trkpt>
      <trkpt lat="36.9920944981" lon="-2.4625806883">
        <ele>209.70</ele>
        <time>2018-11-10T07:11:00Z</time>
      </trkpt>
      <trkpt lat="36.9919877127" lon="-2.4625370186">
        <ele>209.22</ele>
        <time>2018-11-10T07:11:01Z</time>
      </trkpt>
      <trkpt lat="36.9918748084" lon="-2.4625068437">
        <ele>208.26</ele>
        <time>2018-11-10T07:11:02Z</time>
      </trkpt>
      <trkpt lat="36.9917578809" lon="-2.4624898285">
        <ele>207.78</ele>
        <time>2018-11-10T07:11:03Z</time>
      </trkpt>
      <trkpt lat="36.9916404504" lon="-2.4624851346">
        <ele>207.30</ele>
        <time>2018-11-10T07:11:04Z</time>
      </trkpt>
      <trkpt lat="36.9915227685" lon="-2.4624880683">
        <ele>206.34</ele>
        <time>2018-11-10T07:11:05Z</time>
      </trkpt>
      <trkpt lat="36.9914053380" lon="-2.4625001382">
        <ele>205.38</ele>
        <time>2018-11-10T07:11:06Z</time>
      </trkpt>
      <trkpt lat="36.9912884943" lon="-2.4625231884">
        <ele>204.90</ele>
        <time>2018-11-10T07:11:07Z</time>
      </trkpt>
      <trkpt lat="36.9905462768" lon="-2.4627252761">
        <ele>204.42</ele>
        <time>2018-11-10T07:11:14Z</time>
      </trkpt>
      <trkpt lat="36.9902892876" lon="-2.4628288765">
        <ele>204.90</ele>
        <time>2018-11-10T07:11:17Z</time>
      </trkpt>
      <trkpt lat="36.9902177900" lon="-2.4628727138">
        <ele>204.90</ele>
        <time>2018-11-10T07:11:18Z</time>
      </trkpt>
      <trkpt lat="36.9898801669" lon="-2.4630887154">
        <ele>206.34</ele>
        <time>2018-11-10T07:11:24Z</time>
      </trkpt>
      <trkpt lat="36.9895935059" lon="-2.4632113427">
        <ele>207.30</ele>
        <time>2018-11-10T07:11:31Z</time>
      </trkpt>
      <trkpt lat="36.9891446549" lon="-2.4633076508">
        <ele>207.78</ele>
        <time>2018-11-10T07:11:41Z</time>
      </trkpt>
      <trkpt lat="36.9886840694" lon="-2.4633518234">
        <ele>208.26</ele>
        <time>2018-11-10T07:11:51Z</time>
      </trkpt>
      <trkpt lat="36.9881943148" lon="-2.4633245822">
        <ele>208.26</ele>
        <time>2018-11-10T07:12:01Z</time>
      </trkpt>
      <trkpt lat="36.9877383392" lon="-2.4632600415">
        <ele>207.78</ele>
        <time>2018-11-10T07:12:11Z</time>
      </trkpt>
      <trkpt lat="36.9873417076" lon="-2.4631825928">
        <ele>207.30</ele>
        <time>2018-11-10T07:12:19Z</time>
      </trkpt>
      <trkpt lat="36.9868079480" lon="-2.4630586244">
        <ele>208.26</ele>
        <time>2018-11-10T07:12:30Z</time>
      </trkpt>
      <trkpt lat="36.9866041839" lon="-2.4629974365">
        <ele>208.26</ele>
        <time>2018-11-10T07:12:35Z</time>
      </trkpt>
      <trkpt lat="36.9865642861" lon="-2.4629735481">
        <ele>208.26</ele>
        <time>2018-11-10T07:12:36Z</time>
      </trkpt>
      <trkpt lat="36.9865268189" lon="-2.4629501626">
        <ele>208.26</ele>
        <time>2018-11-10T07:12:37Z</time>
      </trkpt>
      <trkpt lat="36.9864859991" lon="-2.4629292078">
        <ele>208.26</ele>
        <time>2018-11-10T07:12:38Z</time>
      </trkpt>
      <trkpt lat="36.9864455145" lon="-2.4629142880">
        <ele>208.26</ele>
        <time>2018-11-10T07:12:39Z</time>
      </trkpt>
      <trkpt lat="36.9864081312" lon="-2.4629054032">
        <ele>208.74</ele>
        <time>2018-11-10T07:12:40Z</time>
      </trkpt>
      <trkpt lat="36.9863705803" lon="-2.4628991168">
        <ele>208.26</ele>
        <time>2018-11-10T07:12:41Z</time>
      </trkpt>
      <trkpt lat="36.9860972464" lon="-2.4628360011">
        <ele>207.78</ele>
        <time>2018-11-10T07:12:50Z</time>
      </trkpt>
      <trkpt lat="36.9859612081" lon="-2.4627917446">
        <ele>208.26</ele>
        <time>2018-11-10T07:12:57Z</time>
      </trkpt>
      <trkpt lat="36.9859607052" lon="-2.4627922475">
        <ele>209.70</ele>
        <time>2018-11-10T07:13:05Z</time>
      </trkpt>
      <trkpt lat="36.9859540835" lon="-2.4627907388">
        <ele>209.22</ele>
        <time>2018-11-10T07:13:23Z</time>
      </trkpt>
      <trkpt lat="36.9859529100" lon="-2.4628003780">
        <ele>210.19</ele>
        <time>2018-11-10T07:13:40Z</time>
      </trkpt>
      <trkpt lat="36.9859405048" lon="-2.4628003780">
        <ele>209.22</ele>
        <time>2018-11-10T07:13:49Z</time>
      </trkpt>
      <trkpt lat="36.9859345537" lon="-2.4628049880">
        <ele>208.74</ele>
        <time>2018-11-10T07:14:04Z</time>
      </trkpt>
      <trkpt lat="36.9859369844" lon="-2.4627993722">
        <ele>208.26</ele>
        <time>2018-11-10T07:14:22Z</time>
      </trkpt>
      <trkpt lat="36.9859425165" lon="-2.4627976120">
        <ele>207.78</ele>
        <time>2018-11-10T07:14:37Z</time>
      </trkpt>
      <trkpt lat="36.9859426841" lon="-2.4628018029">
        <ele>207.78</ele>
        <time>2018-11-10T07:14:51Z</time>
      </trkpt>
      <trkpt lat="36.9859458692" lon="-2.4627979472">
        <ele>207.78</ele>
        <time>2018-11-10T07:15:06Z</time>
      </trkpt>
      <trkpt lat="36.9859522395" lon="-2.4628088437">
        <ele>208.26</ele>
        <time>2018-11-10T07:15:17Z</time>
      </trkpt>
      <trkpt lat="36.9859538320" lon="-2.4628080055">
        <ele>207.78</ele>
        <time>2018-11-10T07:15:36Z</time>
      </trkpt>
      <trkpt lat="36.9859584421" lon="-2.4628036469">
        <ele>208.26</ele>
        <time>2018-11-10T07:15:52Z</time>
      </trkpt>
      <trkpt lat="36.9859569333" lon="-2.4628059939">
        <ele>208.26</ele>
        <time>2018-11-10T07:16:01Z</time>
      </trkpt>
      <trkpt lat="36.9859529100" lon="-2.4628266972">
        <ele>207.30</ele>
        <time>2018-11-10T07:16:12Z</time>
      </trkpt>
      <trkpt lat="36.9859472103" lon="-2.4628407788">
        <ele>206.82</ele>
        <time>2018-11-10T07:16:13Z</time>
      </trkpt>
      <trkpt lat="36.9859179575" lon="-2.4628952611">
        <ele>206.82</ele>
        <time>2018-11-10T07:16:16Z</time>
      </trkpt>
      <trkpt lat="36.9858949073" lon="-2.4629014637">
        <ele>206.82</ele>
        <time>2018-11-10T07:16:17Z</time>
      </trkpt>
      <trkpt lat="36.9858781435" lon="-2.4629016314">
        <ele>206.82</ele>
        <time>2018-11-10T07:16:18Z</time>
      </trkpt>
      <trkpt lat="36.9858567696" lon="-2.4628997035">
        <ele>206.82</ele>
        <time>2018-11-10T07:16:19Z</time>
      </trkpt>
      <trkpt lat="36.9858338032" lon="-2.4628963508">
        <ele>206.82</ele>
        <time>2018-11-10T07:16:20Z</time>
      </trkpt>
      <trkpt lat="36.9858101662" lon="-2.4628937524">
        <ele>206.82</ele>
        <time>2018-11-10T07:16:21Z</time>
      </trkpt>
      <trkpt lat="36.9855895545" lon="-2.4628921598">
        <ele>207.30</ele>
        <time>2018-11-10T07:16:28Z</time>
      </trkpt>
      <trkpt lat="36.9852622412" lon="-2.4628984462">
        <ele>207.30</ele>
        <time>2018-11-10T07:16:37Z</time>
      </trkpt>
      <trkpt lat="36.9848807808" lon="-2.4629409425">
        <ele>206.34</ele>
        <time>2018-11-10T07:16:48Z</time>
      </trkpt>
      <trkpt lat="36.9845185149" lon="-2.4630038068">
        <ele>205.86</ele>
        <time>2018-11-10T07:16:58Z</time>
      </trkpt>
      <trkpt lat="36.9841210451" lon="-2.4631095864">
        <ele>205.38</ele>
        <time>2018-11-10T07:17:10Z</time>
      </trkpt>
      <trkpt lat="36.9837423507" lon="-2.4632486422">
        <ele>204.42</ele>
        <time>2018-11-10T07:17:21Z</time>
      </trkpt>
      <trkpt lat="36.9833488204" lon="-2.4634193815">
        <ele>202.49</ele>
        <time>2018-11-10T07:17:30Z</time>
      </trkpt>
      <trkpt lat="36.9828105345" lon="-2.4636425916">
        <ele>201.53</ele>
        <time>2018-11-10T07:17:40Z</time>
      </trkpt>
      <trkpt lat="36.9821684808" lon="-2.4638843257">
        <ele>200.09</ele>
        <time>2018-11-10T07:17:51Z</time>
      </trkpt>
      <trkpt lat="36.9814253412" lon="-2.4640966393">
        <ele>197.21</ele>
        <time>2018-11-10T07:18:02Z</time>
      </trkpt>
      <trkpt lat="36.9805718958" lon="-2.4642631877">
        <ele>194.32</ele>
        <time>2018-11-10T07:18:13Z</time>
      </trkpt>
      <trkpt lat="36.9797843322" lon="-2.4643454142">
        <ele>191.92</ele>
        <time>2018-11-10T07:18:22Z</time>
      </trkpt>
      <trkpt lat="36.9789590500" lon="-2.4643944483">
        <ele>190.00</ele>
        <time>2018-11-10T07:18:32Z</time>
      </trkpt>
      <trkpt lat="36.9783299044" lon="-2.4644221086">
        <ele>189.52</ele>
        <time>2018-11-10T07:18:41Z</time>
      </trkpt>
      <trkpt lat="36.9775936380" lon="-2.4644599110">
        <ele>189.04</ele>
        <time>2018-11-10T07:18:53Z</time>
      </trkpt>
      <trkpt lat="36.9769540150" lon="-2.4644804467">
        <ele>187.11</ele>
        <time>2018-11-10T07:19:04Z</time>
      </trkpt>
      <trkpt lat="36.9764614943" lon="-2.4645032454">
        <ele>185.67</ele>
        <time>2018-11-10T07:19:13Z</time>
      </trkpt>
      <trkpt lat="36.9759122282" lon="-2.4645164888">
        <ele>184.23</ele>
        <time>2018-11-10T07:19:22Z</time>
      </trkpt>
      <trkpt lat="36.9750798214" lon="-2.4645599909">
        <ele>181.35</ele>
        <time>2018-11-10T07:19:34Z</time>
      </trkpt>
      <trkpt lat="36.9742923416" lon="-2.4645863939">
        <ele>178.94</ele>
        <time>2018-11-10T07:19:44Z</time>
      </trkpt>
      <trkpt lat="36.9733725116" lon="-2.4646268785">
        <ele>176.54</ele>
        <time>2018-11-10T07:19:55Z</time>
      </trkpt>
      <trkpt lat="36.9726390950" lon="-2.4646533653">
        <ele>173.66</ele>
        <time>2018-11-10T07:20:04Z</time>
      </trkpt>
      <trkpt lat="36.9719479233" lon="-2.4646889046">
        <ele>171.73</ele>
        <time>2018-11-10T07:20:13Z</time>
      </trkpt>
      <trkpt lat="36.9712855015" lon="-2.4647239409">
        <ele>171.25</ele>
        <time>2018-11-10T07:20:23Z</time>
      </trkpt>
      <trkpt lat="36.9706932362" lon="-2.4647452310">
        <ele>170.29</ele>
        <time>2018-11-10T07:20:33Z</time>
      </trkpt>
      <trkpt lat="36.9701353367" lon="-2.4647727236">
        <ele>170.77</ele>
        <time>2018-11-10T07:20:43Z</time>
      </trkpt>
      <trkpt lat="36.9694885891" lon="-2.4647973664">
        <ele>169.33</ele>
        <time>2018-11-10T07:20:55Z</time>
      </trkpt>
      <trkpt lat="36.9689136744" lon="-2.4648285471">
        <ele>169.33</ele>
        <time>2018-11-10T07:21:05Z</time>
      </trkpt>
      <trkpt lat="36.9683453813" lon="-2.4648548663">
        <ele>168.37</ele>
        <time>2018-11-10T07:21:15Z</time>
      </trkpt>
      <trkpt lat="36.9676003978" lon="-2.4648906570">
        <ele>167.41</ele>
        <time>2018-11-10T07:21:28Z</time>
      </trkpt>
      <trkpt lat="36.9670478627" lon="-2.4649158865">
        <ele>166.93</ele>
        <time>2018-11-10T07:21:38Z</time>
      </trkpt>
      <trkpt lat="36.9664470479" lon="-2.4650170561">
        <ele>167.41</ele>
        <time>2018-11-10T07:21:49Z</time>
      </trkpt>
      <trkpt lat="36.9658852927" lon="-2.4651758093">
        <ele>167.41</ele>
        <time>2018-11-10T07:21:59Z</time>
      </trkpt>
      <trkpt lat="36.9652154110" lon="-2.4653689284">
        <ele>166.45</ele>
        <time>2018-11-10T07:22:11Z</time>
      </trkpt>
      <trkpt lat="36.9645960722" lon="-2.4655335490">
        <ele>165.00</ele>
        <time>2018-11-10T07:22:23Z</time>
      </trkpt>
      <trkpt lat="36.9643419329" lon="-2.4656012747">
        <ele>164.52</ele>
        <time>2018-11-10T07:22:29Z</time>
      </trkpt>
      <trkpt lat="36.9643082377" lon="-2.4656282645">
        <ele>164.52</ele>
        <time>2018-11-10T07:22:30Z</time>
      </trkpt>
      <trkpt lat="36.9642748777" lon="-2.4656648934">
        <ele>164.04</ele>
        <time>2018-11-10T07:22:31Z</time>
      </trkpt>
      <trkpt lat="36.9642530847" lon="-2.4657235667">
        <ele>164.04</ele>
        <time>2018-11-10T07:22:32Z</time>
      </trkpt>
      <trkpt lat="36.9642542582" lon="-2.4657969922">
        <ele>163.56</ele>
        <time>2018-11-10T07:22:33Z</time>
      </trkpt>
      <trkpt lat="36.9642628916" lon="-2.4658569228">
        <ele>163.56</ele>
        <time>2018-11-10T07:22:34Z</time>
      </trkpt>
      <trkpt lat="36.9642753806" lon="-2.4659331143">
        <ele>163.08</ele>
        <time>2018-11-10T07:22:35Z</time>
      </trkpt>
      <trkpt lat="36.9643198885" lon="-2.4661730882">
        <ele>162.12</ele>
        <time>2018-11-10T07:22:38Z</time>
      </trkpt>
      <trkpt lat="36.9644017797" lon="-2.4668103643">
        <ele>160.20</ele>
        <time>2018-11-10T07:22:45Z</time>
      </trkpt>
      <trkpt lat="36.9644114189" lon="-2.4670330714">
        <ele>159.72</ele>
        <time>2018-11-10T07:22:50Z</time>
      </trkpt>
      <trkpt lat="36.9644466229" lon="-2.4672826845">
        <ele>159.72</ele>
        <time>2018-11-10T07:22:58Z</time>
      </trkpt>
      <trkpt lat="36.9644919690" lon="-2.4676054716">
        <ele>161.16</ele>
        <time>2018-11-10T07:23:07Z</time>
      </trkpt>
      <trkpt lat="36.9645319507" lon="-2.4679025263">
        <ele>163.08</ele>
        <time>2018-11-10T07:23:16Z</time>
      </trkpt>
      <trkpt lat="36.9645711780" lon="-2.4683381338">
        <ele>164.52</ele>
        <time>2018-11-10T07:23:27Z</time>
      </trkpt>
      <trkpt lat="36.9645909593" lon="-2.4687115476">
        <ele>165.00</ele>
        <time>2018-11-10T07:23:36Z</time>
      </trkpt>
      <trkpt lat="36.9646113273" lon="-2.4690992106">
        <ele>165.48</ele>
        <time>2018-11-10T07:23:44Z</time>
      </trkpt>
      <trkpt lat="36.9646161050" lon="-2.4691496696">
        <ele>165.96</ele>
        <time>2018-11-10T07:23:45Z</time>
      </trkpt>
      <trkpt lat="36.9646393228" lon="-2.4695821758">
        <ele>165.96</ele>
        <time>2018-11-10T07:23:54Z</time>
      </trkpt>
      <trkpt lat="36.9646561705" lon="-2.4699866865">
        <ele>165.96</ele>
        <time>2018-11-10T07:24:02Z</time>
      </trkpt>
      <trkpt lat="36.9645612035" lon="-2.4702803884">
        <ele>165.48</ele>
        <time>2018-11-10T07:24:09Z</time>
      </trkpt>
      <trkpt lat="36.9644468743" lon="-2.4705674686">
        <ele>165.00</ele>
        <time>2018-11-10T07:24:16Z</time>
      </trkpt>
      <trkpt lat="36.9645470381" lon="-2.4708129745">
        <ele>164.52</ele>
        <time>2018-11-10T07:24:22Z</time>
      </trkpt>
      <trkpt lat="36.9647529814" lon="-2.4711122923">
        <ele>164.52</ele>
        <time>2018-11-10T07:24:31Z</time>
      </trkpt>
      <trkpt lat="36.9648185279" lon="-2.4713214207">
        <ele>164.52</ele>
        <time>2018-11-10T07:24:36Z</time>
      </trkpt>
      <trkpt lat="36.9647953101" lon="-2.4717375822">
        <ele>165.48</ele>
        <time>2018-11-10T07:24:45Z</time>
      </trkpt>
      <trkpt lat="36.9647140056" lon="-2.4719616305">
        <ele>166.45</ele>
        <time>2018-11-10T07:24:52Z</time>
      </trkpt>
      <trkpt lat="36.9646683242" lon="-2.4720166996">
        <ele>166.93</ele>
        <time>2018-11-10T07:24:58Z</time>
      </trkpt>
      <trkpt lat="36.9646705035" lon="-2.4720260873">
        <ele>166.93</ele>
        <time>2018-11-10T07:25:12Z</time>
      </trkpt>
      <trkpt lat="36.9646697491" lon="-2.4720029533">
        <ele>166.93</ele>
        <time>2018-11-10T07:25:39Z</time>
      </trkpt>
      <trkpt lat="36.9646752812" lon="-2.4720025342">
        <ele>165.00</ele>
        <time>2018-11-10T07:25:58Z</time>
      </trkpt>
      <trkpt lat="36.9646677375" lon="-2.4720087368">
        <ele>164.04</ele>
        <time>2018-11-10T07:26:22Z</time>
      </trkpt>
      <trkpt lat="36.9646645524" lon="-2.4720053002">
        <ele>164.52</ele>
        <time>2018-11-10T07:26:41Z</time>
      </trkpt>
      <trkpt lat="36.9646731857" lon="-2.4720066413">
        <ele>165.48</ele>
        <time>2018-11-10T07:27:03Z</time>
      </trkpt>
      <trkpt lat="36.9646646362" lon="-2.4720162805">
        <ele>165.00</ele>
        <time>2018-11-10T07:27:07Z</time>
      </trkpt>
      <trkpt lat="36.9646616187" lon="-2.4720353074">
        <ele>165.00</ele>
        <time>2018-11-10T07:27:08Z</time>
      </trkpt>
      <trkpt lat="36.9646575116" lon="-2.4720550887">
        <ele>165.00</ele>
        <time>2018-11-10T07:27:09Z</time>
      </trkpt>
      <trkpt lat="36.9646584336" lon="-2.4720814079">
        <ele>165.48</ele>
        <time>2018-11-10T07:27:10Z</time>
      </trkpt>
      <trkpt lat="36.9646614511" lon="-2.4721135106">
        <ele>165.48</ele>
        <time>2018-11-10T07:27:11Z</time>
      </trkpt>
      <trkpt lat="36.9646643009" lon="-2.4721488822">
        <ele>165.96</ele>
        <time>2018-11-10T07:27:12Z</time>
      </trkpt>
      <trkpt lat="36.9646695815" lon="-2.4721829966">
        <ele>166.45</ele>
        <time>2018-11-10T07:27:13Z</time>
      </trkpt>
      <trkpt lat="36.9647114072" lon="-2.4725204520">
        <ele>167.89</ele>
        <time>2018-11-10T07:27:21Z</time>
      </trkpt>
      <trkpt lat="36.9647714216" lon="-2.4730312452">
        <ele>168.85</ele>
        <time>2018-11-10T07:27:32Z</time>
      </trkpt>
      <trkpt lat="36.9648169354" lon="-2.4735063314">
        <ele>169.81</ele>
        <time>2018-11-10T07:27:42Z</time>
      </trkpt>
      <trkpt lat="36.9648777880" lon="-2.4740374088">
        <ele>170.77</ele>
        <time>2018-11-10T07:27:53Z</time>
      </trkpt>
      <trkpt lat="36.9649275765" lon="-2.4744559173">
        <ele>171.73</ele>
        <time>2018-11-10T07:28:02Z</time>
      </trkpt>
      <trkpt lat="36.9649852440" lon="-2.4749916885">
        <ele>172.21</ele>
        <time>2018-11-10T07:28:14Z</time>
      </trkpt>
      <trkpt lat="36.9650907721" lon="-2.4754560459">
        <ele>173.17</ele>
        <time>2018-11-10T07:28:25Z</time>
      </trkpt>
      <trkpt lat="36.9652119745" lon="-2.4759183917">
        <ele>173.66</ele>
        <time>2018-11-10T07:28:37Z</time>
      </trkpt>
      <trkpt lat="36.9652698096" lon="-2.4762877822">
        <ele>174.62</ele>
        <time>2018-11-10T07:28:46Z</time>
      </trkpt>
      <trkpt lat="36.9653066061" lon="-2.4766428396">
        <ele>175.58</ele>
        <time>2018-11-10T07:28:55Z</time>
      </trkpt>
      <trkpt lat="36.9652925245" lon="-2.4769285787">
        <ele>177.02</ele>
        <time>2018-11-10T07:29:04Z</time>
      </trkpt>
      <trkpt lat="36.9651908521" lon="-2.4771617632">
        <ele>177.50</ele>
        <time>2018-11-10T07:29:12Z</time>
      </trkpt>
      <trkpt lat="36.9649854954" lon="-2.4773718975">
        <ele>179.90</ele>
        <time>2018-11-10T07:29:22Z</time>
      </trkpt>
      <trkpt lat="36.9647402409" lon="-2.4774955306">
        <ele>181.83</ele>
        <time>2018-11-10T07:29:34Z</time>
      </trkpt>
      <trkpt lat="36.9646130037" lon="-2.4775588140">
        <ele>183.75</ele>
        <time>2018-11-10T07:29:42Z</time>
      </trkpt>
      <trkpt lat="36.9644257519" lon="-2.4776441418">
        <ele>185.19</ele>
        <time>2018-11-10T07:29:53Z</time>
      </trkpt>
      <trkpt lat="36.9642674178" lon="-2.4777270388">
        <ele>186.63</ele>
        <time>2018-11-10T07:30:02Z</time>
      </trkpt>
      <trkpt lat="36.9640339818" lon="-2.4778492469">
        <ele>187.59</ele>
        <time>2018-11-10T07:30:14Z</time>
      </trkpt>
      <trkpt lat="36.9638757315" lon="-2.4779621512">
        <ele>187.11</ele>
        <time>2018-11-10T07:30:21Z</time>
      </trkpt>
      <trkpt lat="36.9636655971" lon="-2.4781756382">
        <ele>186.15</ele>
        <time>2018-11-10T07:30:29Z</time>
      </trkpt>
      <trkpt lat="36.9634244498" lon="-2.4785182066">
        <ele>184.71</ele>
        <time>2018-11-10T07:30:37Z</time>
      </trkpt>
      <trkpt lat="36.9631139841" lon="-2.4789737631">
        <ele>182.31</ele>
        <time>2018-11-10T07:30:45Z</time>
      </trkpt>
      <trkpt lat="36.9628444221" lon="-2.4793334305">
        <ele>180.38</ele>
        <time>2018-11-10T07:30:51Z</time>
      </trkpt>
      <trkpt lat="36.9627899397" lon="-2.4793804530">
        <ele>180.38</ele>
        <time>2018-11-10T07:30:52Z</time>
      </trkpt>
      <trkpt lat="36.9627311826" lon="-2.4794202670">
        <ele>180.38</ele>
        <time>2018-11-10T07:30:53Z</time>
      </trkpt>
      <trkpt lat="36.9626649655" lon="-2.4794549681">
        <ele>179.90</ele>
        <time>2018-11-10T07:30:54Z</time>
      </trkpt>
      <trkpt lat="36.9625973236" lon="-2.4794877414">
        <ele>179.90</ele>
        <time>2018-11-10T07:30:55Z</time>
      </trkpt>
      <trkpt lat="36.9621363189" lon="-2.4798039068">
        <ele>177.50</ele>
        <time>2018-11-10T07:31:02Z</time>
      </trkpt>
      <trkpt lat="36.9617065787" lon="-2.4803145323">
        <ele>174.14</ele>
        <time>2018-11-10T07:31:09Z</time>
      </trkpt>
      <trkpt lat="36.9612799399" lon="-2.4809488747">
        <ele>171.25</ele>
        <time>2018-11-10T07:31:16Z</time>
      </trkpt>
      <trkpt lat="36.9609081186" lon="-2.4816142302">
        <ele>170.77</ele>
        <time>2018-11-10T07:31:24Z</time>
      </trkpt>
      <trkpt lat="36.9606067892" lon="-2.4819235224">
        <ele>171.25</ele>
        <time>2018-11-10T07:31:30Z</time>
      </trkpt>
      <trkpt lat="36.9602560904" lon="-2.4823606387">
        <ele>171.73</ele>
        <time>2018-11-10T07:31:39Z</time>
      </trkpt>
      <trkpt lat="36.9601887837" lon="-2.4824297056">
        <ele>171.73</ele>
        <time>2018-11-10T07:31:41Z</time>
      </trkpt>
      <trkpt lat="36.9599923957" lon="-2.4825846869">
        <ele>172.69</ele>
        <time>2018-11-10T07:31:48Z</time>
      </trkpt>
      <trkpt lat="36.9597557746" lon="-2.4826874491">
        <ele>173.17</ele>
        <time>2018-11-10T07:31:56Z</time>
      </trkpt>
      <trkpt lat="36.9595222548" lon="-2.4827840924">
        <ele>172.69</ele>
        <time>2018-11-10T07:32:03Z</time>
      </trkpt>
      <trkpt lat="36.9594463147" lon="-2.4828545842">
        <ele>172.21</ele>
        <time>2018-11-10T07:32:05Z</time>
      </trkpt>
      <trkpt lat="36.9594145473" lon="-2.4829064682">
        <ele>172.21</ele>
        <time>2018-11-10T07:32:06Z</time>
      </trkpt>
      <trkpt lat="36.9593898207" lon="-2.4829627946">
        <ele>171.73</ele>
        <time>2018-11-10T07:32:07Z</time>
      </trkpt>
      <trkpt lat="36.9593690336" lon="-2.4830311071">
        <ele>171.73</ele>
        <time>2018-11-10T07:32:08Z</time>
      </trkpt>
      <trkpt lat="36.9593510963" lon="-2.4831057061">
        <ele>171.73</ele>
        <time>2018-11-10T07:32:09Z</time>
      </trkpt>
      <trkpt lat="36.9593386911" lon="-2.4831812270">
        <ele>171.25</ele>
        <time>2018-11-10T07:32:10Z</time>
      </trkpt>
      <trkpt lat="36.9593288004" lon="-2.4832639564">
        <ele>171.25</ele>
        <time>2018-11-10T07:32:11Z</time>
      </trkpt>
      <trkpt lat="36.9591725618" lon="-2.4838898331">
        <ele>170.29</ele>
        <time>2018-11-10T07:32:19Z</time>
      </trkpt>
      <trkpt lat="36.9589667860" lon="-2.4842980318">
        <ele>168.85</ele>
        <time>2018-11-10T07:32:25Z</time>
      </trkpt>
      <trkpt lat="36.9589412212" lon="-2.4843788333">
        <ele>168.85</ele>
        <time>2018-11-10T07:32:26Z</time>
      </trkpt>
      <trkpt lat="36.9589241222" lon="-2.4844581261">
        <ele>168.37</ele>
        <time>2018-11-10T07:32:27Z</time>
      </trkpt>
      <trkpt lat="36.9588506967" lon="-2.4852378946">
        <ele>167.41</ele>
        <time>2018-11-10T07:32:37Z</time>
      </trkpt>
      <trkpt lat="36.9588507805" lon="-2.4855727516">
        <ele>166.45</ele>
        <time>2018-11-10T07:32:42Z</time>
      </trkpt>
      <trkpt lat="36.9588347711" lon="-2.4856311735">
        <ele>166.45</ele>
        <time>2018-11-10T07:32:43Z</time>
      </trkpt>
      <trkpt lat="36.9588107988" lon="-2.4856828060">
        <ele>166.93</ele>
        <time>2018-11-10T07:32:44Z</time>
      </trkpt>
      <trkpt lat="36.9587750081" lon="-2.4857247155">
        <ele>166.93</ele>
        <time>2018-11-10T07:32:45Z</time>
      </trkpt>
      <trkpt lat="36.9587401394" lon="-2.4857518729">
        <ele>167.41</ele>
        <time>2018-11-10T07:32:46Z</time>
      </trkpt>
      <trkpt lat="36.9587017503" lon="-2.4857789464">
        <ele>167.41</ele>
        <time>2018-11-10T07:32:47Z</time>
      </trkpt>
      <trkpt lat="36.9583534822" lon="-2.4859594088">
        <ele>168.85</ele>
        <time>2018-11-10T07:32:55Z</time>
      </trkpt>
      <trkpt lat="36.9579032902" lon="-2.4861340877">
        <ele>168.85</ele>
        <time>2018-11-10T07:33:06Z</time>
      </trkpt>
      <trkpt lat="36.9576313812" lon="-2.4863305595">
        <ele>168.85</ele>
        <time>2018-11-10T07:33:14Z</time>
      </trkpt>
      <trkpt lat="36.9573953468" lon="-2.4865359161">
        <ele>168.85</ele>
        <time>2018-11-10T07:33:21Z</time>
      </trkpt>
      <trkpt lat="36.9573751464" lon="-2.4865756463">
        <ele>168.85</ele>
        <time>2018-11-10T07:33:22Z</time>
      </trkpt>
      <trkpt lat="36.9573557004" lon="-2.4866323918">
        <ele>168.85</ele>
        <time>2018-11-10T07:33:23Z</time>
      </trkpt>
      <trkpt lat="36.9573468994" lon="-2.4866810907">
        <ele>168.85</ele>
        <time>2018-11-10T07:33:24Z</time>
      </trkpt>
      <trkpt lat="36.9573402777" lon="-2.4867395125">
        <ele>168.37</ele>
        <time>2018-11-10T07:33:25Z</time>
      </trkpt>
      <trkpt lat="36.9573739730" lon="-2.4869022891">
        <ele>167.41</ele>
        <time>2018-11-10T07:33:29Z</time>
      </trkpt>
      <trkpt lat="36.9574797526" lon="-2.4872300215">
        <ele>164.52</ele>
        <time>2018-11-10T07:33:37Z</time>
      </trkpt>
      <trkpt lat="36.9574769028" lon="-2.4872789718">
        <ele>164.04</ele>
        <time>2018-11-10T07:33:38Z</time>
      </trkpt>
      <trkpt lat="36.9574670121" lon="-2.4873321131">
        <ele>163.56</ele>
        <time>2018-11-10T07:33:39Z</time>
      </trkpt>
      <trkpt lat="36.9574475661" lon="-2.4873968214">
        <ele>163.56</ele>
        <time>2018-11-10T07:33:40Z</time>
      </trkpt>
      <trkpt lat="36.9572557043" lon="-2.4878281541">
        <ele>161.16</ele>
        <time>2018-11-10T07:33:46Z</time>
      </trkpt>
      <trkpt lat="36.9571733940" lon="-2.4879651982">
        <ele>160.68</ele>
        <time>2018-11-10T07:33:48Z</time>
      </trkpt>
      <trkpt lat="36.9568466675" lon="-2.4883707147">
        <ele>158.75</ele>
        <time>2018-11-10T07:33:55Z</time>
      </trkpt>
      <trkpt lat="36.9568221085" lon="-2.4884323217">
        <ele>158.27</ele>
        <time>2018-11-10T07:33:56Z</time>
      </trkpt>
      <trkpt lat="36.9568137266" lon="-2.4884871393">
        <ele>158.27</ele>
        <time>2018-11-10T07:33:57Z</time>
      </trkpt>
      <trkpt lat="36.9568139780" lon="-2.4885318987">
        <ele>158.27</ele>
        <time>2018-11-10T07:33:58Z</time>
      </trkpt>
      <trkpt lat="36.9568146486" lon="-2.4885837827">
        <ele>158.27</ele>
        <time>2018-11-10T07:33:59Z</time>
      </trkpt>
      <trkpt lat="36.9568120502" lon="-2.4886226747">
        <ele>157.79</ele>
        <time>2018-11-10T07:34:00Z</time>
      </trkpt>
      <trkpt lat="36.9568050932" lon="-2.4886665959">
        <ele>157.79</ele>
        <time>2018-11-10T07:34:01Z</time>
      </trkpt>
      <trkpt lat="36.9567913469" lon="-2.4887052365">
        <ele>157.79</ele>
        <time>2018-11-10T07:34:02Z</time>
      </trkpt>
      <trkpt lat="36.9567677099" lon="-2.4887397699">
        <ele>157.79</ele>
        <time>2018-11-10T07:34:03Z</time>
      </trkpt>
      <trkpt lat="36.9567406364" lon="-2.4887561984">
        <ele>158.27</ele>
        <time>2018-11-10T07:34:04Z</time>
      </trkpt>
      <trkpt lat="36.9567074440" lon="-2.4887607247">
        <ele>158.27</ele>
        <time>2018-11-10T07:34:05Z</time>
      </trkpt>
      <trkpt lat="36.9566756766" lon="-2.4887614790">
        <ele>158.75</ele>
        <time>2018-11-10T07:34:06Z</time>
      </trkpt>
      <trkpt lat="36.9564150833" lon="-2.4888260197">
        <ele>160.20</ele>
        <time>2018-11-10T07:34:15Z</time>
      </trkpt>
      <trkpt lat="36.9561843295" lon="-2.4889413547">
        <ele>162.60</ele>
        <time>2018-11-10T07:34:24Z</time>
      </trkpt>
      <trkpt lat="36.9558919687" lon="-2.4891369045">
        <ele>163.56</ele>
        <time>2018-11-10T07:34:35Z</time>
      </trkpt>
      <trkpt lat="36.9556550961" lon="-2.4893260002">
        <ele>163.08</ele>
        <time>2018-11-10T07:34:45Z</time>
      </trkpt>
      <trkpt lat="36.9555872865" lon="-2.4893864337">
        <ele>162.60</ele>
        <time>2018-11-10T07:34:51Z</time>
      </trkpt>
      <trkpt lat="36.9555903040" lon="-2.4893762916">
        <ele>163.08</ele>
        <time>2018-11-10T07:35:06Z</time>
      </trkpt>
      <trkpt lat="36.9555794913" lon="-2.4893772136">
        <ele>163.08</ele>
        <time>2018-11-10T07:35:10Z</time>
      </trkpt>
      <trkpt lat="36.9555662479" lon="-2.4893871043">
        <ele>163.08</ele>
        <time>2018-11-10T07:35:11Z</time>
      </trkpt>
      <trkpt lat="36.9554099254" lon="-2.4895207956">
        <ele>163.08</ele>
        <time>2018-11-10T07:35:18Z</time>
      </trkpt>
      <trkpt lat="36.9551199954" lon="-2.4897464365">
        <ele>162.60</ele>
        <time>2018-11-10T07:35:30Z</time>
      </trkpt>
      <trkpt lat="36.9549174886" lon="-2.4899029266">
        <ele>163.56</ele>
        <time>2018-11-10T07:35:39Z</time>
      </trkpt>
      <trkpt lat="36.9547648542" lon="-2.4900315888">
        <ele>163.08</ele>
        <time>2018-11-10T07:35:45Z</time>
      </trkpt>
      <trkpt lat="36.9544988126" lon="-2.4902518652">
        <ele>160.68</ele>
        <time>2018-11-10T07:35:53Z</time>
      </trkpt>
      <trkpt lat="36.9543249719" lon="-2.4903936870">
        <ele>159.24</ele>
        <time>2018-11-10T07:35:59Z</time>
      </trkpt>
      <trkpt lat="36.9543220382" lon="-2.4903990515">
        <ele>159.24</ele>
        <time>2018-11-10T07:36:05Z</time>
      </trkpt>
      <trkpt lat="36.9543201104" lon="-2.4903992191">
        <ele>158.27</ele>
        <time>2018-11-10T07:36:20Z</time>
      </trkpt>
      <trkpt lat="36.9543119799" lon="-2.4904008117">
        <ele>158.27</ele>
        <time>2018-11-10T07:36:21Z</time>
      </trkpt>
      <trkpt lat="36.9542957190" lon="-2.4904084392">
        <ele>158.27</ele>
        <time>2018-11-10T07:36:22Z</time>
      </trkpt>
      <trkpt lat="36.9542818051" lon="-2.4904186651">
        <ele>158.27</ele>
        <time>2018-11-10T07:36:23Z</time>
      </trkpt>
      <trkpt lat="36.9540899433" lon="-2.4905483332">
        <ele>159.24</ele>
        <time>2018-11-10T07:36:30Z</time>
      </trkpt>
      <trkpt lat="36.9539198745" lon="-2.4907018058">
        <ele>161.16</ele>
        <time>2018-11-10T07:36:37Z</time>
      </trkpt>
      <trkpt lat="36.9538034499" lon="-2.4909715354">
        <ele>162.12</ele>
        <time>2018-11-10T07:36:45Z</time>
      </trkpt>
      <trkpt lat="36.9537886139" lon="-2.4910270236">
        <ele>163.56</ele>
        <time>2018-11-10T07:36:49Z</time>
      </trkpt>
      <trkpt lat="36.9537928887" lon="-2.4911007844">
        <ele>164.04</ele>
        <time>2018-11-10T07:36:52Z</time>
      </trkpt>
      <trkpt lat="36.9537916314" lon="-2.4911336415">
        <ele>164.04</ele>
        <time>2018-11-10T07:36:53Z</time>
      </trkpt>
      <trkpt lat="36.9537901226" lon="-2.4911548477">
        <ele>164.04</ele>
        <time>2018-11-10T07:36:54Z</time>
      </trkpt>
      <trkpt lat="36.9537829142" lon="-2.4911980983">
        <ele>165.00</ele>
        <time>2018-11-10T07:36:56Z</time>
      </trkpt>
      <trkpt lat="36.9538076408" lon="-2.4912621360">
        <ele>165.48</ele>
        <time>2018-11-10T07:36:59Z</time>
      </trkpt>
      <trkpt lat="36.9538343791" lon="-2.4913026206">
        <ele>165.96</ele>
        <time>2018-11-10T07:37:01Z</time>
      </trkpt>
      <trkpt lat="36.9538524002" lon="-2.4913262576">
        <ele>166.45</ele>
        <time>2018-11-10T07:37:02Z</time>
      </trkpt>
      <trkpt lat="36.9538624585" lon="-2.4913436919">
        <ele>166.45</ele>
        <time>2018-11-10T07:37:03Z</time>
      </trkpt>
      <trkpt lat="36.9538771268" lon="-2.4913702626">
        <ele>166.45</ele>
        <time>2018-11-10T07:37:04Z</time>
      </trkpt>
      <trkpt lat="36.9540163502" lon="-2.4916030280">
        <ele>167.41</ele>
        <time>2018-11-10T07:37:12Z</time>
      </trkpt>
      <trkpt lat="36.9541541487" lon="-2.4918734282">
        <ele>168.85</ele>
        <time>2018-11-10T07:37:21Z</time>
      </trkpt>
      <trkpt lat="36.9542311784" lon="-2.4921501987">
        <ele>171.73</ele>
        <time>2018-11-10T07:37:29Z</time>
      </trkpt>
      <trkpt lat="36.9542532228" lon="-2.4923414737">
        <ele>174.14</ele>
        <time>2018-11-10T07:37:36Z</time>
      </trkpt>
      <trkpt lat="36.9543414842" lon="-2.4926117063">
        <ele>177.02</ele>
        <time>2018-11-10T07:37:46Z</time>
      </trkpt>
      <trkpt lat="36.9544351101" lon="-2.4928729702">
        <ele>177.02</ele>
        <time>2018-11-10T07:37:54Z</time>
      </trkpt>
      <trkpt lat="36.9545382075" lon="-2.4931090884">
        <ele>176.54</ele>
        <time>2018-11-10T07:38:02Z</time>
      </trkpt>
      <trkpt lat="36.9546187576" lon="-2.4933640659">
        <ele>176.06</ele>
        <time>2018-11-10T07:38:10Z</time>
      </trkpt>
      <trkpt lat="36.9547368586" lon="-2.4936677422">
        <ele>176.06</ele>
        <time>2018-11-10T07:38:20Z</time>
      </trkpt>
      <trkpt lat="36.9548603240" lon="-2.4939892720">
        <ele>176.06</ele>
        <time>2018-11-10T07:38:29Z</time>
      </trkpt>
      <trkpt lat="36.9549683668" lon="-2.4942531344">
        <ele>176.54</ele>
        <time>2018-11-10T07:38:37Z</time>
      </trkpt>
      <trkpt lat="36.9551349152" lon="-2.4946547952">
        <ele>176.54</ele>
        <time>2018-11-10T07:38:49Z</time>
      </trkpt>
      <trkpt lat="36.9552786648" lon="-2.4949941784">
        <ele>175.10</ele>
        <time>2018-11-10T07:38:59Z</time>
      </trkpt>
      <trkpt lat="36.9554608036" lon="-2.4953742977">
        <ele>174.62</ele>
        <time>2018-11-10T07:39:11Z</time>
      </trkpt>
      <trkpt lat="36.9556334708" lon="-2.4956625514">
        <ele>176.54</ele>
        <time>2018-11-10T07:39:21Z</time>
      </trkpt>
      <trkpt lat="36.9557915535" lon="-2.4959028605">
        <ele>177.98</ele>
        <time>2018-11-10T07:39:30Z</time>
      </trkpt>
      <trkpt lat="36.9559536595" lon="-2.4961622804">
        <ele>179.90</ele>
        <time>2018-11-10T07:39:40Z</time>
      </trkpt>
      <trkpt lat="36.9561192859" lon="-2.4964544736">
        <ele>180.87</ele>
        <time>2018-11-10T07:39:50Z</time>
      </trkpt>
      <trkpt lat="36.9562631194" lon="-2.4967340939">
        <ele>180.87</ele>
        <time>2018-11-10T07:39:59Z</time>
      </trkpt>
      <trkpt lat="36.9563922845" lon="-2.4970110320">
        <ele>180.87</ele>
        <time>2018-11-10T07:40:08Z</time>
      </trkpt>
      <trkpt lat="36.9565357827" lon="-2.4972894788">
        <ele>180.87</ele>
        <time>2018-11-10T07:40:18Z</time>
      </trkpt>
      <trkpt lat="36.9566792808" lon="-2.4975817557">
        <ele>180.87</ele>
        <time>2018-11-10T07:40:29Z</time>
      </trkpt>
      <trkpt lat="36.9567783549" lon="-2.4978270102">
        <ele>179.90</ele>
        <time>2018-11-10T07:40:35Z</time>
      </trkpt>
      <trkpt lat="36.9569430593" lon="-2.4983261526">
        <ele>178.94</ele>
        <time>2018-11-10T07:40:45Z</time>
      </trkpt>
      <trkpt lat="36.9570684526" lon="-2.4987890851">
        <ele>178.94</ele>
        <time>2018-11-10T07:40:55Z</time>
      </trkpt>
      <trkpt lat="36.9571553729" lon="-2.4991956074">
        <ele>179.42</ele>
        <time>2018-11-10T07:41:03Z</time>
      </trkpt>
      <trkpt lat="36.9572431315" lon="-2.4996264372">
        <ele>180.38</ele>
        <time>2018-11-10T07:41:11Z</time>
      </trkpt>
      <trkpt lat="36.9573389366" lon="-2.5000874419">
        <ele>181.83</ele>
        <time>2018-11-10T07:41:19Z</time>
      </trkpt>
      <trkpt lat="36.9575372525" lon="-2.5007921085">
        <ele>181.83</ele>
        <time>2018-11-10T07:41:32Z</time>
      </trkpt>
      <trkpt lat="36.9576720335" lon="-2.5011362694">
        <ele>180.38</ele>
        <time>2018-11-10T07:41:41Z</time>
      </trkpt>
      <trkpt lat="36.9578268472" lon="-2.5014612358">
        <ele>180.87</ele>
        <time>2018-11-10T07:41:52Z</time>
      </trkpt>
      <trkpt lat="36.9579621311" lon="-2.5017242599">
        <ele>181.83</ele>
        <time>2018-11-10T07:42:02Z</time>
      </trkpt>
      <trkpt lat="36.9580669049" lon="-2.5019287784">
        <ele>182.79</ele>
        <time>2018-11-10T07:42:12Z</time>
      </trkpt>
      <trkpt lat="36.9581493828" lon="-2.5020732824">
        <ele>183.75</ele>
        <time>2018-11-10T07:42:20Z</time>
      </trkpt>
      <trkpt lat="36.9582556654" lon="-2.5022663176">
        <ele>185.67</ele>
        <time>2018-11-10T07:42:31Z</time>
      </trkpt>
      <trkpt lat="36.9583611935" lon="-2.5024611969">
        <ele>188.56</ele>
        <time>2018-11-10T07:42:42Z</time>
      </trkpt>
      <trkpt lat="36.9584543165" lon="-2.5026730914">
        <ele>191.92</ele>
        <time>2018-11-10T07:42:53Z</time>
      </trkpt>
      <trkpt lat="36.9585413206" lon="-2.5028858241">
        <ele>192.88</ele>
        <time>2018-11-10T07:43:03Z</time>
      </trkpt>
      <trkpt lat="36.9586222060" lon="-2.5031189248">
        <ele>194.32</ele>
        <time>2018-11-10T07:43:13Z</time>
      </trkpt>
      <trkpt lat="36.9586922787" lon="-2.5033110380">
        <ele>197.21</ele>
        <time>2018-11-10T07:43:22Z</time>
      </trkpt>
      <trkpt lat="36.9587708171" lon="-2.5035347510">
        <ele>198.17</ele>
        <time>2018-11-10T07:43:32Z</time>
      </trkpt>
      <trkpt lat="36.9588623475" lon="-2.5037510041">
        <ele>199.61</ele>
        <time>2018-11-10T07:43:42Z</time>
      </trkpt>
      <trkpt lat="36.9588999823" lon="-2.5038945023">
        <ele>197.69</ele>
        <time>2018-11-10T07:43:50Z</time>
      </trkpt>
      <trkpt lat="36.9589702226" lon="-2.5040499028">
        <ele>197.69</ele>
        <time>2018-11-10T07:43:58Z</time>
      </trkpt>
      <trkpt lat="36.9590666145" lon="-2.5042379089">
        <ele>198.17</ele>
        <time>2018-11-10T07:44:07Z</time>
      </trkpt>
      <trkpt lat="36.9591609109" lon="-2.5043990929">
        <ele>199.13</ele>
        <time>2018-11-10T07:44:16Z</time>
      </trkpt>
      <trkpt lat="36.9592670258" lon="-2.5045821536">
        <ele>200.57</ele>
        <time>2018-11-10T07:44:25Z</time>
      </trkpt>
      <trkpt lat="36.9594189059" lon="-2.5047880132">
        <ele>201.53</ele>
        <time>2018-11-10T07:44:36Z</time>
      </trkpt>
      <trkpt lat="36.9595733844" lon="-2.5049958006">
        <ele>202.49</ele>
        <time>2018-11-10T07:44:47Z</time>
      </trkpt>
      <trkpt lat="36.9597051479" lon="-2.5051456690">
        <ele>203.94</ele>
        <time>2018-11-10T07:44:56Z</time>
      </trkpt>
      <trkpt lat="36.9598576147" lon="-2.5053273886">
        <ele>204.90</ele>
        <time>2018-11-10T07:45:07Z</time>
      </trkpt>
      <trkpt lat="36.9600145239" lon="-2.5055182446">
        <ele>206.34</ele>
        <time>2018-11-10T07:45:16Z</time>
      </trkpt>
      <trkpt lat="36.9601826649" lon="-2.5057495851">
        <ele>208.74</ele>
        <time>2018-11-10T07:45:25Z</time>
      </trkpt>
      <trkpt lat="36.9603424240" lon="-2.5059867930">
        <ele>209.70</ele>
        <time>2018-11-10T07:45:34Z</time>
      </trkpt>
      <trkpt lat="36.9604641292" lon="-2.5061956700">
        <ele>209.70</ele>
        <time>2018-11-10T07:45:42Z</time>
      </trkpt>
      <trkpt lat="36.9606027659" lon="-2.5064337160">
        <ele>210.67</ele>
        <time>2018-11-10T07:45:50Z</time>
      </trkpt>
      <trkpt lat="36.9607725833" lon="-2.5067466125">
        <ele>211.63</ele>
        <time>2018-11-10T07:46:00Z</time>
      </trkpt>
      <trkpt lat="36.9609237090" lon="-2.5070118997">
        <ele>212.59</ele>
        <time>2018-11-10T07:46:10Z</time>
      </trkpt>
      <trkpt lat="36.9611122180" lon="-2.5072535500">
        <ele>210.19</ele>
        <time>2018-11-10T07:46:19Z</time>
      </trkpt>
      <trkpt lat="36.9613900781" lon="-2.5075524487">
        <ele>207.30</ele>
        <time>2018-11-10T07:46:28Z</time>
      </trkpt>
      <trkpt lat="36.9617011305" lon="-2.5077940151">
        <ele>204.90</ele>
        <time>2018-11-10T07:46:35Z</time>
      </trkpt>
      <trkpt lat="36.9621396717" lon="-2.5080066640">
        <ele>201.53</ele>
        <time>2018-11-10T07:46:42Z</time>
      </trkpt>
      <trkpt lat="36.9627579208" lon="-2.5082178880">
        <ele>197.69</ele>
        <time>2018-11-10T07:46:50Z</time>
      </trkpt>
      <trkpt lat="36.9631299935" lon="-2.5084592029">
        <ele>196.25</ele>
        <time>2018-11-10T07:46:55Z</time>
      </trkpt>
      <trkpt lat="36.9631979708" lon="-2.5085167028">
        <ele>195.77</ele>
        <time>2018-11-10T07:46:58Z</time>
      </trkpt>
      <trkpt lat="36.9632041734" lon="-2.5085283536">
        <ele>197.21</ele>
        <time>2018-11-10T07:47:04Z</time>
      </trkpt>
      <trkpt lat="36.9633165747" lon="-2.5086421799">
        <ele>197.21</ele>
        <time>2018-11-10T07:47:10Z</time>
      </trkpt>
      <trkpt lat="36.9635110348" lon="-2.5088760350">
        <ele>198.17</ele>
        <time>2018-11-10T07:47:19Z</time>
      </trkpt>
      <trkpt lat="36.9637885597" lon="-2.5092158373">
        <ele>199.13</ele>
        <time>2018-11-10T07:47:31Z</time>
      </trkpt>
      <trkpt lat="36.9639701955" lon="-2.5095211901">
        <ele>201.05</ele>
        <time>2018-11-10T07:47:41Z</time>
      </trkpt>
      <trkpt lat="36.9640822615" lon="-2.5098963641">
        <ele>202.98</ele>
        <time>2018-11-10T07:47:51Z</time>
      </trkpt>
      <trkpt lat="36.9641183876" lon="-2.5102083385">
        <ele>204.90</ele>
        <time>2018-11-10T07:48:00Z</time>
      </trkpt>
      <trkpt lat="36.9640720356" lon="-2.5105064828">
        <ele>205.38</ele>
        <time>2018-11-10T07:48:09Z</time>
      </trkpt>
      <trkpt lat="36.9640381727" lon="-2.5106604584">
        <ele>206.34</ele>
        <time>2018-11-10T07:48:16Z</time>
      </trkpt>
      <trkpt lat="36.9640031364" lon="-2.5108194631">
        <ele>206.82</ele>
        <time>2018-11-10T07:48:25Z</time>
      </trkpt>
      <trkpt lat="36.9639470614" lon="-2.5109498855">
        <ele>206.34</ele>
        <time>2018-11-10T07:48:33Z</time>
      </trkpt>
      <trkpt lat="36.9638338219" lon="-2.5110493787">
        <ele>206.82</ele>
        <time>2018-11-10T07:48:42Z</time>
      </trkpt>
      <trkpt lat="36.9636869710" lon="-2.5110664777">
        <ele>207.30</ele>
        <time>2018-11-10T07:48:50Z</time>
      </trkpt>
      <trkpt lat="36.9635241944" lon="-2.5110270828">
        <ele>208.26</ele>
        <time>2018-11-10T07:48:58Z</time>
      </trkpt>
      <trkpt lat="36.9633224420" lon="-2.5110449363">
        <ele>209.22</ele>
        <time>2018-11-10T07:49:09Z</time>
      </trkpt>
      <trkpt lat="36.9631470088" lon="-2.5111153442">
        <ele>211.15</ele>
        <time>2018-11-10T07:49:19Z</time>
      </trkpt>
      <trkpt lat="36.9629471004" lon="-2.5111907814">
        <ele>212.11</ele>
        <time>2018-11-10T07:49:30Z</time>
      </trkpt>
      <trkpt lat="36.9627508800" lon="-2.5112090539">
        <ele>213.07</ele>
        <time>2018-11-10T07:49:40Z</time>
      </trkpt>
      <trkpt lat="36.9626521412" lon="-2.5111735146">
        <ele>213.07</ele>
        <time>2018-11-10T07:49:47Z</time>
      </trkpt>
      <trkpt lat="36.9624873530" lon="-2.5110943895">
        <ele>214.51</ele>
        <time>2018-11-10T07:49:56Z</time>
      </trkpt>
      <trkpt lat="36.9622897077" lon="-2.5110963173">
        <ele>215.47</ele>
        <time>2018-11-10T07:50:05Z</time>
      </trkpt>
      <trkpt lat="36.9621496461" lon="-2.5111989118">
        <ele>217.88</ele>
        <time>2018-11-10T07:50:14Z</time>
      </trkpt>
      <trkpt lat="36.9620342273" lon="-2.5113744289">
        <ele>219.32</ele>
        <time>2018-11-10T07:50:24Z</time>
      </trkpt>
      <trkpt lat="36.9619481452" lon="-2.5115564838">
        <ele>220.28</ele>
        <time>2018-11-10T07:50:34Z</time>
      </trkpt>
      <trkpt lat="36.9619416911" lon="-2.5117931049">
        <ele>221.72</ele>
        <time>2018-11-10T07:50:44Z</time>
      </trkpt>
      <trkpt lat="36.9620295335" lon="-2.5119820330">
        <ele>224.12</ele>
        <time>2018-11-10T07:50:53Z</time>
      </trkpt>
      <trkpt lat="36.9621268474" lon="-2.5121275429">
        <ele>226.53</ele>
        <time>2018-11-10T07:51:02Z</time>
      </trkpt>
      <trkpt lat="36.9621188845" lon="-2.5121306442">
        <ele>226.05</ele>
        <time>2018-11-10T07:51:11Z</time>
      </trkpt>
      <trkpt lat="36.9621226564" lon="-2.5121288840">
        <ele>224.61</ele>
        <time>2018-11-10T07:51:20Z</time>
      </trkpt>
      <trkpt lat="36.9621169567" lon="-2.5121386908">
        <ele>224.12</ele>
        <time>2018-11-10T07:51:27Z</time>
      </trkpt>
      <trkpt lat="36.9621130172" lon="-2.5121433847">
        <ele>224.61</ele>
        <time>2018-11-10T07:51:42Z</time>
      </trkpt>
      <trkpt lat="36.9621188007" lon="-2.5121424627">
        <ele>224.61</ele>
        <time>2018-11-10T07:52:02Z</time>
      </trkpt>
      <trkpt lat="36.9621177111" lon="-2.5121464860">
        <ele>224.12</ele>
        <time>2018-11-10T07:52:14Z</time>
      </trkpt>
      <trkpt lat="36.9621249195" lon="-2.5121476594">
        <ele>224.61</ele>
        <time>2018-11-10T07:52:26Z</time>
      </trkpt>
      <trkpt lat="36.9621296134" lon="-2.5121410377">
        <ele>223.64</ele>
        <time>2018-11-10T07:52:39Z</time>
      </trkpt>
      <trkpt lat="36.9621245842" lon="-2.5121308118">
        <ele>223.16</ele>
        <time>2018-11-10T07:52:51Z</time>
      </trkpt>
      <trkpt lat="36.9621261768" lon="-2.5121292192">
        <ele>220.76</ele>
        <time>2018-11-10T07:53:07Z</time>
      </trkpt>
      <trkpt lat="36.9621300325" lon="-2.5121173169">
        <ele>219.32</ele>
        <time>2018-11-10T07:53:21Z</time>
      </trkpt>
      <trkpt lat="36.9621387497" lon="-2.5121315662">
        <ele>218.84</ele>
        <time>2018-11-10T07:53:40Z</time>
      </trkpt>
      <trkpt lat="36.9621410128" lon="-2.5121418759">
        <ele>219.32</ele>
        <time>2018-11-10T07:53:55Z</time>
      </trkpt>
      <trkpt lat="36.9621286076" lon="-2.5121398643">
        <ele>219.80</ele>
        <time>2018-11-10T07:54:08Z</time>
      </trkpt>
      <trkpt lat="36.9621246681" lon="-2.5121462345">
        <ele>220.76</ele>
        <time>2018-11-10T07:54:19Z</time>
      </trkpt>
      <trkpt lat="36.9621165376" lon="-2.5121422112">
        <ele>221.24</ele>
        <time>2018-11-10T07:54:32Z</time>
      </trkpt>
      <trkpt lat="36.9621100836" lon="-2.5121449772">
        <ele>222.68</ele>
        <time>2018-11-10T07:54:48Z</time>
      </trkpt>
      <trkpt lat="36.9621006120" lon="-2.5121498387">
        <ele>223.16</ele>
        <time>2018-11-10T07:55:04Z</time>
      </trkpt>
      <trkpt lat="36.9620945770" lon="-2.5121436361">
        <ele>222.68</ele>
        <time>2018-11-10T07:55:20Z</time>
      </trkpt>
      <trkpt lat="36.9621022884" lon="-2.5121412892">
        <ele>221.72</ele>
        <time>2018-11-10T07:55:38Z</time>
      </trkpt>
      <trkpt lat="36.9621038809" lon="-2.5121320691">
        <ele>219.80</ele>
        <time>2018-11-10T07:55:54Z</time>
      </trkpt>
      <trkpt lat="36.9621097483" lon="-2.5121294707">
        <ele>218.36</ele>
        <time>2018-11-10T07:56:07Z</time>
      </trkpt>
      <trkpt lat="36.9621067308" lon="-2.5121262018">
        <ele>217.88</ele>
        <time>2018-11-10T07:56:19Z</time>
      </trkpt>
      <trkpt lat="36.9621101674" lon="-2.5121445581">
        <ele>218.84</ele>
        <time>2018-11-10T07:56:37Z</time>
      </trkpt>
      <trkpt lat="36.9620979298" lon="-2.5121484976">
        <ele>220.76</ele>
        <time>2018-11-10T07:56:52Z</time>
      </trkpt>
      <trkpt lat="36.9620907214" lon="-2.5121446420">
        <ele>220.76</ele>
        <time>2018-11-10T07:57:14Z</time>
      </trkpt>
      <trkpt lat="36.9620885421" lon="-2.5121222623">
        <ele>218.84</ele>
        <time>2018-11-10T07:57:34Z</time>
      </trkpt>
      <trkpt lat="36.9621009473" lon="-2.5121186581">
        <ele>217.88</ele>
        <time>2018-11-10T07:57:50Z</time>
      </trkpt>
      <trkpt lat="36.9621058926" lon="-2.5121108629">
        <ele>217.40</ele>
        <time>2018-11-10T07:58:10Z</time>
      </trkpt>
      <trkpt lat="36.9621144421" lon="-2.5121286325">
        <ele>217.88</ele>
        <time>2018-11-10T07:58:28Z</time>
      </trkpt>
      <trkpt lat="36.9621138554" lon="-2.5121415406">
        <ele>219.80</ele>
        <time>2018-11-10T07:58:46Z</time>
      </trkpt>
      <trkpt lat="36.9621234108" lon="-2.5121667702">
        <ele>221.72</ele>
        <time>2018-11-10T07:59:04Z</time>
      </trkpt>
      <trkpt lat="36.9621218182" lon="-2.5121567957">
        <ele>222.68</ele>
        <time>2018-11-10T07:59:23Z</time>
      </trkpt>
      <trkpt lat="36.9621074013" lon="-2.5121538620">
        <ele>222.68</ele>
        <time>2018-11-10T07:59:44Z</time>
      </trkpt>
      <trkpt lat="36.9621003605" lon="-2.5121424627">
        <ele>221.72</ele>
        <time>2018-11-10T08:00:01Z</time>
      </trkpt>
      <trkpt lat="36.9621016178" lon="-2.5121325720">
        <ele>219.32</ele>
        <time>2018-11-10T08:00:21Z</time>
      </trkpt>
      <trkpt lat="36.9621003605" lon="-2.5121248607">
        <ele>216.91</ele>
        <time>2018-11-10T08:00:40Z</time>
      </trkpt>
      <trkpt lat="36.9621109217" lon="-2.5121412054">
        <ele>217.40</ele>
        <time>2018-11-10T08:00:58Z</time>
      </trkpt>
      <trkpt lat="36.9621109217" lon="-2.5121346675">
        <ele>217.40</ele>
        <time>2018-11-10T08:01:16Z</time>
      </trkpt>
      <trkpt lat="36.9620948285" lon="-2.5121413730">
        <ele>217.88</ele>
        <time>2018-11-10T08:01:34Z</time>
      </trkpt>
      <trkpt lat="36.9621002767" lon="-2.5121310633">
        <ele>219.32</ele>
        <time>2018-11-10T08:01:45Z</time>
      </trkpt>
      <trkpt lat="36.9621136039" lon="-2.5121369306">
        <ele>219.80</ele>
        <time>2018-11-10T08:01:55Z</time>
      </trkpt>
      <trkpt lat="36.9621174596" lon="-2.5121417921">
        <ele>220.28</ele>
        <time>2018-11-10T08:02:12Z</time>
      </trkpt>
      <trkpt lat="36.9621054735" lon="-2.5121470727">
        <ele>220.28</ele>
        <time>2018-11-10T08:02:20Z</time>
      </trkpt>
      <trkpt lat="36.9620997738" lon="-2.5121563766">
        <ele>220.28</ele>
        <time>2018-11-10T08:02:21Z</time>
      </trkpt>
      <trkpt lat="36.9620908052" lon="-2.5121657643">
        <ele>220.28</ele>
        <time>2018-11-10T08:02:22Z</time>
      </trkpt>
      <trkpt lat="36.9620854408" lon="-2.5121812709">
        <ele>220.28</ele>
        <time>2018-11-10T08:02:23Z</time>
      </trkpt>
      <trkpt lat="36.9620867819" lon="-2.5121984538">
        <ele>220.28</ele>
        <time>2018-11-10T08:02:24Z</time>
      </trkpt>
      <trkpt lat="36.9620917272" lon="-2.5122128706">
        <ele>220.28</ele>
        <time>2018-11-10T08:02:25Z</time>
      </trkpt>
      <trkpt lat="36.9620975107" lon="-2.5122298859">
        <ele>220.28</ele>
        <time>2018-11-10T08:02:26Z</time>
      </trkpt>
      <trkpt lat="36.9621117599" lon="-2.5124301296">
        <ele>221.72</ele>
        <time>2018-11-10T08:02:34Z</time>
      </trkpt>
      <trkpt lat="36.9620846864" lon="-2.5126663316">
        <ele>223.16</ele>
        <time>2018-11-10T08:02:43Z</time>
      </trkpt>
      <trkpt lat="36.9621356484" lon="-2.5128093269">
        <ele>224.12</ele>
        <time>2018-11-10T08:02:49Z</time>
      </trkpt>
      <trkpt lat="36.9622498099" lon="-2.5129804853">
        <ele>224.61</ele>
        <time>2018-11-10T08:02:58Z</time>
      </trkpt>
      <trkpt lat="36.9623758737" lon="-2.5130701717">
        <ele>225.09</ele>
        <time>2018-11-10T08:03:05Z</time>
      </trkpt>
      <trkpt lat="36.9624731038" lon="-2.5130890310">
        <ele>225.09</ele>
        <time>2018-11-10T08:03:12Z</time>
      </trkpt>
      <trkpt lat="36.9626097288" lon="-2.5130689144">
        <ele>224.61</ele>
        <time>2018-11-10T08:03:20Z</time>
      </trkpt>
      <trkpt lat="36.9628219586" lon="-2.5130106602">
        <ele>224.12</ele>
        <time>2018-11-10T08:03:30Z</time>
      </trkpt>
      <trkpt lat="36.9630937837" lon="-2.5130674895">
        <ele>222.68</ele>
        <time>2018-11-10T08:03:39Z</time>
      </trkpt>
      <trkpt lat="36.9634199236" lon="-2.5133028533">
        <ele>222.20</ele>
        <time>2018-11-10T08:03:49Z</time>
      </trkpt>
      <trkpt lat="36.9635522738" lon="-2.5134112313">
        <ele>222.68</ele>
        <time>2018-11-10T08:03:56Z</time>
      </trkpt>
      <trkpt lat="36.9636735599" lon="-2.5135697331">
        <ele>224.12</ele>
        <time>2018-11-10T08:04:04Z</time>
      </trkpt>
      <trkpt lat="36.9637598097" lon="-2.5138231181">
        <ele>227.49</ele>
        <time>2018-11-10T08:04:14Z</time>
      </trkpt>
      <trkpt lat="36.9637490809" lon="-2.5140880700">
        <ele>227.49</ele>
        <time>2018-11-10T08:04:24Z</time>
      </trkpt>
      <trkpt lat="36.9636381045" lon="-2.5143255293">
        <ele>228.45</ele>
        <time>2018-11-10T08:04:34Z</time>
      </trkpt>
      <trkpt lat="36.9634761661" lon="-2.5145059917">
        <ele>229.89</ele>
        <time>2018-11-10T08:04:44Z</time>
      </trkpt>
      <trkpt lat="36.9633298181" lon="-2.5146655831">
        <ele>231.33</ele>
        <time>2018-11-10T08:04:54Z</time>
      </trkpt>
      <trkpt lat="36.9631899241" lon="-2.5148633122">
        <ele>232.30</ele>
        <time>2018-11-10T08:05:05Z</time>
      </trkpt>
      <trkpt lat="36.9630800374" lon="-2.5150499772">
        <ele>232.78</ele>
        <time>2018-11-10T08:05:15Z</time>
      </trkpt>
      <trkpt lat="36.9629582483" lon="-2.5152668171">
        <ele>233.74</ele>
        <time>2018-11-10T08:05:26Z</time>
      </trkpt>
      <trkpt lat="36.9628503732" lon="-2.5154577568">
        <ele>233.74</ele>
        <time>2018-11-10T08:05:36Z</time>
      </trkpt>
      <trkpt lat="36.9627218787" lon="-2.5156369619">
        <ele>234.22</ele>
        <time>2018-11-10T08:05:46Z</time>
      </trkpt>
      <trkpt lat="36.9626787119" lon="-2.5157017540">
        <ele>235.18</ele>
        <time>2018-11-10T08:05:53Z</time>
      </trkpt>
      <trkpt lat="36.9626890216" lon="-2.5156927016">
        <ele>235.18</ele>
        <time>2018-11-10T08:06:03Z</time>
      </trkpt>
      <trkpt lat="36.9626767002" lon="-2.5156970602">
        <ele>235.66</ele>
        <time>2018-11-10T08:06:31Z</time>
      </trkpt>
      <trkpt lat="36.9626659714" lon="-2.5157113932">
        <ele>235.18</ele>
        <time>2018-11-10T08:06:39Z</time>
      </trkpt>
      <trkpt lat="36.9626544882" lon="-2.5157202780">
        <ele>235.18</ele>
        <time>2018-11-10T08:06:40Z</time>
      </trkpt>
      <trkpt lat="36.9626368023" lon="-2.5157346111">
        <ele>235.18</ele>
        <time>2018-11-10T08:06:41Z</time>
      </trkpt>
      <trkpt lat="36.9624906220" lon="-2.5158885866">
        <ele>236.62</ele>
        <time>2018-11-10T08:06:50Z</time>
      </trkpt>
      <trkpt lat="36.9623431843" lon="-2.5160501059">
        <ele>237.58</ele>
        <time>2018-11-10T08:06:57Z</time>
      </trkpt>
      <trkpt lat="36.9621446170" lon="-2.5162609946">
        <ele>238.54</ele>
        <time>2018-11-10T08:07:06Z</time>
      </trkpt>
      <trkpt lat="36.9619102590" lon="-2.5165074226">
        <ele>239.51</ele>
        <time>2018-11-10T08:07:17Z</time>
      </trkpt>
      <trkpt lat="36.9617174752" lon="-2.5167149585">
        <ele>239.51</ele>
        <time>2018-11-10T08:07:26Z</time>
      </trkpt>
      <trkpt lat="36.9614936784" lon="-2.5168991927">
        <ele>239.02</ele>
        <time>2018-11-10T08:07:35Z</time>
      </trkpt>
      <trkpt lat="36.9612376112" lon="-2.5170661602">
        <ele>237.58</ele>
        <time>2018-11-10T08:07:44Z</time>
      </trkpt>
      <trkpt lat="36.9609258045" lon="-2.5172844250">
        <ele>235.66</ele>
        <time>2018-11-10T08:07:53Z</time>
      </trkpt>
      <trkpt lat="36.9607725833" lon="-2.5173836667">
        <ele>235.18</ele>
        <time>2018-11-10T08:07:59Z</time>
      </trkpt>
      <trkpt lat="36.9607256446" lon="-2.5174060464">
        <ele>235.18</ele>
        <time>2018-11-10T08:08:02Z</time>
      </trkpt>
      <trkpt lat="36.9607104734" lon="-2.5174177811">
        <ele>235.18</ele>
        <time>2018-11-10T08:08:03Z</time>
      </trkpt>
      <trkpt lat="36.9605035242" lon="-2.5175600220">
        <ele>234.22</ele>
        <time>2018-11-10T08:08:11Z</time>
      </trkpt>
      <trkpt lat="36.9603544939" lon="-2.5176626164">
        <ele>233.26</ele>
        <time>2018-11-10T08:08:15Z</time>
      </trkpt>
      <trkpt lat="36.9603186194" lon="-2.5176988263">
        <ele>233.26</ele>
        <time>2018-11-10T08:08:16Z</time>
      </trkpt>
      <trkpt lat="36.9602862652" lon="-2.5177391432">
        <ele>233.26</ele>
        <time>2018-11-10T08:08:17Z</time>
      </trkpt>
      <trkpt lat="36.9602544978" lon="-2.5177848246">
        <ele>233.26</ele>
        <time>2018-11-10T08:08:18Z</time>
      </trkpt>
      <trkpt lat="36.9602309447" lon="-2.5178357866">
        <ele>232.78</ele>
        <time>2018-11-10T08:08:19Z</time>
      </trkpt>
      <trkpt lat="36.9602156058" lon="-2.5178921968">
        <ele>232.78</ele>
        <time>2018-11-10T08:08:20Z</time>
      </trkpt>
      <trkpt lat="36.9602062181" lon="-2.5179488584">
        <ele>232.78</ele>
        <time>2018-11-10T08:08:21Z</time>
      </trkpt>
      <trkpt lat="36.9602032844" lon="-2.5180053525">
        <ele>232.78</ele>
        <time>2018-11-10T08:08:22Z</time>
      </trkpt>
      <trkpt lat="36.9602027815" lon="-2.5180601701">
        <ele>232.78</ele>
        <time>2018-11-10T08:08:23Z</time>
      </trkpt>
      <trkpt lat="36.9601986744" lon="-2.5185236055">
        <ele>232.78</ele>
        <time>2018-11-10T08:08:32Z</time>
      </trkpt>
      <trkpt lat="36.9601874426" lon="-2.5189851969">
        <ele>233.74</ele>
        <time>2018-11-10T08:08:43Z</time>
      </trkpt>
      <trkpt lat="36.9602268375" lon="-2.5192462094">
        <ele>234.22</ele>
        <time>2018-11-10T08:08:52Z</time>
      </trkpt>
      <trkpt lat="36.9603272527" lon="-2.5193444453">
        <ele>233.74</ele>
        <time>2018-11-10T08:09:00Z</time>
      </trkpt>
      <trkpt lat="36.9603916258" lon="-2.5193673279">
        <ele>233.74</ele>
        <time>2018-11-10T08:09:08Z</time>
      </trkpt>
      <trkpt lat="36.9603682403" lon="-2.5193752907">
        <ele>233.74</ele>
        <time>2018-11-10T08:09:29Z</time>
      </trkpt>
      <trkpt lat="36.9604003429" lon="-2.5193830021">
        <ele>232.78</ele>
        <time>2018-11-10T08:09:41Z</time>
      </trkpt>
      <trkpt lat="36.9605669752" lon="-2.5194436871">
        <ele>233.26</ele>
        <time>2018-11-10T08:09:49Z</time>
      </trkpt>
      <trkpt lat="36.9608087093" lon="-2.5194945652">
        <ele>234.70</ele>
        <time>2018-11-10T08:09:57Z</time>
      </trkpt>
      <trkpt lat="36.9609872438" lon="-2.5193997659">
        <ele>234.70</ele>
        <time>2018-11-10T08:10:03Z</time>
      </trkpt>
      <trkpt lat="36.9612972066" lon="-2.5191222411">
        <ele>236.62</ele>
        <time>2018-11-10T08:10:14Z</time>
      </trkpt>
      <trkpt lat="36.9615044910" lon="-2.5189898908">
        <ele>236.14</ele>
        <time>2018-11-10T08:10:22Z</time>
      </trkpt>
      <trkpt lat="36.9616730511" lon="-2.5190333091">
        <ele>236.62</ele>
        <time>2018-11-10T08:10:28Z</time>
      </trkpt>
      <trkpt lat="36.9617991149" lon="-2.5192089099">
        <ele>236.62</ele>
        <time>2018-11-10T08:10:34Z</time>
      </trkpt>
      <trkpt lat="36.9618950039" lon="-2.5194770470">
        <ele>237.58</ele>
        <time>2018-11-10T08:10:42Z</time>
      </trkpt>
      <trkpt lat="36.9620254263" lon="-2.5198603515">
        <ele>238.06</ele>
        <time>2018-11-10T08:10:53Z</time>
      </trkpt>
      <trkpt lat="36.9621369056" lon="-2.5202910136">
        <ele>239.99</ele>
        <time>2018-11-10T08:11:06Z</time>
      </trkpt>
      <trkpt lat="36.9621705171" lon="-2.5206266250">
        <ele>241.91</ele>
        <time>2018-11-10T08:11:17Z</time>
      </trkpt>
      <trkpt lat="36.9621292781" lon="-2.5209147949">
        <ele>243.35</ele>
        <time>2018-11-10T08:11:27Z</time>
      </trkpt>
      <trkpt lat="36.9620064832" lon="-2.5211443752">
        <ele>244.31</ele>
        <time>2018-11-10T08:11:36Z</time>
      </trkpt>
      <trkpt lat="36.9619535096" lon="-2.5213030446">
        <ele>245.27</ele>
        <time>2018-11-10T08:11:43Z</time>
      </trkpt>
      <trkpt lat="36.9619130250" lon="-2.5215161964">
        <ele>246.23</ele>
        <time>2018-11-10T08:11:52Z</time>
      </trkpt>
      <trkpt lat="36.9618256018" lon="-2.5217039511">
        <ele>246.72</ele>
        <time>2018-11-10T08:12:01Z</time>
      </trkpt>
      <trkpt lat="36.9617196545" lon="-2.5219027698">
        <ele>247.20</ele>
        <time>2018-11-10T08:12:11Z</time>
      </trkpt>
      <trkpt lat="36.9616238493" lon="-2.5220794603">
        <ele>248.16</ele>
        <time>2018-11-10T08:12:20Z</time>
      </trkpt>
      <trkpt lat="36.9614958577" lon="-2.5223321747">
        <ele>249.12</ele>
        <time>2018-11-10T08:12:32Z</time>
      </trkpt>
      <trkpt lat="36.9614131283" lon="-2.5225544628">
        <ele>250.08</ele>
        <time>2018-11-10T08:12:42Z</time>
      </trkpt>
      <trkpt lat="36.9613187481" lon="-2.5228478294">
        <ele>252.48</ele>
        <time>2018-11-10T08:12:55Z</time>
      </trkpt>
      <trkpt lat="36.9613029901" lon="-2.5230821874">
        <ele>253.93</ele>
        <time>2018-11-10T08:13:05Z</time>
      </trkpt>
      <trkpt lat="36.9613831211" lon="-2.5232574530">
        <ele>254.89</ele>
        <time>2018-11-10T08:13:13Z</time>
      </trkpt>
      <trkpt lat="36.9615140464" lon="-2.5234630611">
        <ele>255.37</ele>
        <time>2018-11-10T08:13:24Z</time>
      </trkpt>
      <trkpt lat="36.9616096839" lon="-2.5236551743">
        <ele>256.33</ele>
        <time>2018-11-10T08:13:34Z</time>
      </trkpt>
      <trkpt lat="36.9617201574" lon="-2.5238692481">
        <ele>257.77</ele>
        <time>2018-11-10T08:13:45Z</time>
      </trkpt>
      <trkpt lat="36.9618063234" lon="-2.5240701623">
        <ele>259.21</ele>
        <time>2018-11-10T08:13:55Z</time>
      </trkpt>
      <trkpt lat="36.9618337322" lon="-2.5242488645">
        <ele>260.65</ele>
        <time>2018-11-10T08:14:03Z</time>
      </trkpt>
      <trkpt lat="36.9618161302" lon="-2.5244911015">
        <ele>260.65</ele>
        <time>2018-11-10T08:14:13Z</time>
      </trkpt>
      <trkpt lat="36.9618038926" lon="-2.5247208495">
        <ele>261.62</ele>
        <time>2018-11-10T08:14:22Z</time>
      </trkpt>
      <trkpt lat="36.9618707802" lon="-2.5249474961">
        <ele>262.10</ele>
        <time>2018-11-10T08:14:31Z</time>
      </trkpt>
      <trkpt lat="36.9619696867" lon="-2.5252799224">
        <ele>263.54</ele>
        <time>2018-11-10T08:14:45Z</time>
      </trkpt>
      <trkpt lat="36.9619981013" lon="-2.5255401805">
        <ele>264.50</ele>
        <time>2018-11-10T08:14:55Z</time>
      </trkpt>
      <trkpt lat="36.9620222412" lon="-2.5258056354">
        <ele>265.94</ele>
        <time>2018-11-10T08:15:05Z</time>
      </trkpt>
      <trkpt lat="36.9620451238" lon="-2.5260317791">
        <ele>267.38</ele>
        <time>2018-11-10T08:15:14Z</time>
      </trkpt>
      <trkpt lat="36.9620663300" lon="-2.5262764469">
        <ele>268.35</ele>
        <time>2018-11-10T08:15:24Z</time>
      </trkpt>
      <trkpt lat="36.9620840997" lon="-2.5264414027">
        <ele>268.35</ele>
        <time>2018-11-10T08:15:31Z</time>
      </trkpt>
      <trkpt lat="36.9621520769" lon="-2.5266980566">
        <ele>269.79</ele>
        <time>2018-11-10T08:15:42Z</time>
      </trkpt>
      <trkpt lat="36.9622614607" lon="-2.5268626772">
        <ele>269.79</ele>
        <time>2018-11-10T08:15:51Z</time>
      </trkpt>
      <trkpt lat="36.9623600319" lon="-2.5269921776">
        <ele>271.23</ele>
        <time>2018-11-10T08:15:59Z</time>
      </trkpt>
      <trkpt lat="36.9624341279" lon="-2.5271044113">
        <ele>271.71</ele>
        <time>2018-11-10T08:16:06Z</time>
      </trkpt>
      <trkpt lat="36.9625794701" lon="-2.5272981171">
        <ele>272.19</ele>
        <time>2018-11-10T08:16:16Z</time>
      </trkpt>
      <trkpt lat="36.9627034385" lon="-2.5275053177">
        <ele>273.15</ele>
        <time>2018-11-10T08:16:26Z</time>
      </trkpt>
      <trkpt lat="36.9627711643" lon="-2.5277530868">
        <ele>274.11</ele>
        <time>2018-11-10T08:16:37Z</time>
      </trkpt>
      <trkpt lat="36.9627701584" lon="-2.5280058850">
        <ele>275.56</ele>
        <time>2018-11-10T08:16:48Z</time>
      </trkpt>
      <trkpt lat="36.9627544843" lon="-2.5282552466">
        <ele>276.04</ele>
        <time>2018-11-10T08:16:58Z</time>
      </trkpt>
      <trkpt lat="36.9627520535" lon="-2.5284290873">
        <ele>277.48</ele>
        <time>2018-11-10T08:17:05Z</time>
      </trkpt>
      <trkpt lat="36.9627881795" lon="-2.5286633614">
        <ele>279.40</ele>
        <time>2018-11-10T08:17:15Z</time>
      </trkpt>
      <trkpt lat="36.9627968129" lon="-2.5288930256">
        <ele>279.88</ele>
        <time>2018-11-10T08:17:24Z</time>
      </trkpt>
      <trkpt lat="36.9627778698" lon="-2.5291122962">
        <ele>279.88</ele>
        <time>2018-11-10T08:17:33Z</time>
      </trkpt>
      <trkpt lat="36.9627306797" lon="-2.5293496717">
        <ele>280.36</ele>
        <time>2018-11-10T08:17:42Z</time>
      </trkpt>
      <trkpt lat="36.9627160113" lon="-2.5295919925">
        <ele>281.80</ele>
        <time>2018-11-10T08:17:52Z</time>
      </trkpt>
      <trkpt lat="36.9627388939" lon="-2.5298054796">
        <ele>282.77</ele>
        <time>2018-11-10T08:18:00Z</time>
      </trkpt>
      <trkpt lat="36.9627522212" lon="-2.5300004426">
        <ele>284.21</ele>
        <time>2018-11-10T08:18:09Z</time>
      </trkpt>
      <trkpt lat="36.9627752714" lon="-2.5302285142">
        <ele>286.13</ele>
        <time>2018-11-10T08:18:19Z</time>
      </trkpt>
      <trkpt lat="36.9627829827" lon="-2.5304473657">
        <ele>286.61</ele>
        <time>2018-11-10T08:18:28Z</time>
      </trkpt>
      <trkpt lat="36.9627675600" lon="-2.5307523832">
        <ele>287.57</ele>
        <time>2018-11-10T08:18:40Z</time>
      </trkpt>
      <trkpt lat="36.9627364632" lon="-2.5309658702">
        <ele>287.57</ele>
        <time>2018-11-10T08:18:50Z</time>
      </trkpt>
      <trkpt lat="36.9626935478" lon="-2.5310944486">
        <ele>289.01</ele>
        <time>2018-11-10T08:18:57Z</time>
      </trkpt>
      <trkpt lat="36.9626878481" lon="-2.5311383698">
        <ele>289.01</ele>
        <time>2018-11-10T08:19:03Z</time>
      </trkpt>
      <trkpt lat="36.9626825675" lon="-2.5311485119">
        <ele>289.01</ele>
        <time>2018-11-10T08:19:18Z</time>
      </trkpt>
      <trkpt lat="36.9626912009" lon="-2.5311642699">
        <ele>289.49</ele>
        <time>2018-11-10T08:19:27Z</time>
      </trkpt>
      <trkpt lat="36.9626942184" lon="-2.5311596598">
        <ele>289.49</ele>
        <time>2018-11-10T08:19:43Z</time>
      </trkpt>
      <trkpt lat="36.9626917038" lon="-2.5311675388">
        <ele>289.97</ele>
        <time>2018-11-10T08:19:46Z</time>
      </trkpt>
      <trkpt lat="36.9626846630" lon="-2.5311799441">
        <ele>289.97</ele>
        <time>2018-11-10T08:19:47Z</time>
      </trkpt>
      <trkpt lat="36.9626781251" lon="-2.5311920140">
        <ele>289.97</ele>
        <time>2018-11-10T08:19:48Z</time>
      </trkpt>
      <trkpt lat="36.9626730960" lon="-2.5312073529">
        <ele>289.97</ele>
        <time>2018-11-10T08:19:49Z</time>
      </trkpt>
      <trkpt lat="36.9626710005" lon="-2.5312240329">
        <ele>289.97</ele>
        <time>2018-11-10T08:19:50Z</time>
      </trkpt>
      <trkpt lat="36.9626670610" lon="-2.5312408805">
        <ele>289.97</ele>
        <time>2018-11-10T08:19:51Z</time>
      </trkpt>
      <trkpt lat="36.9626609422" lon="-2.5312604941">
        <ele>289.97</ele>
        <time>2018-11-10T08:19:52Z</time>
      </trkpt>
      <trkpt lat="36.9625932164" lon="-2.5314937625">
        <ele>290.94</ele>
        <time>2018-11-10T08:20:03Z</time>
      </trkpt>
      <trkpt lat="36.9625130016" lon="-2.5317766517">
        <ele>292.38</ele>
        <time>2018-11-10T08:20:16Z</time>
      </trkpt>
      <trkpt lat="36.9624455273" lon="-2.5320200622">
        <ele>294.78</ele>
        <time>2018-11-10T08:20:27Z</time>
      </trkpt>
      <trkpt lat="36.9624114968" lon="-2.5322709326">
        <ele>295.74</ele>
        <time>2018-11-10T08:20:38Z</time>
      </trkpt>
      <trkpt lat="36.9624682423" lon="-2.5325005129">
        <ele>297.67</ele>
        <time>2018-11-10T08:20:47Z</time>
      </trkpt>
      <trkpt lat="36.9626011793" lon="-2.5326321088">
        <ele>297.67</ele>
        <time>2018-11-10T08:20:55Z</time>
      </trkpt>
      <trkpt lat="36.9626280013" lon="-2.5326430053">
        <ele>297.18</ele>
        <time>2018-11-10T08:21:01Z</time>
      </trkpt>
      <trkpt lat="36.9626715872" lon="-2.5326814782">
        <ele>296.70</ele>
        <time>2018-11-10T08:21:10Z</time>
      </trkpt>
      <trkpt lat="36.9628559053" lon="-2.5328794587">
        <ele>297.67</ele>
        <time>2018-11-10T08:21:21Z</time>
      </trkpt>
      <trkpt lat="36.9630518742" lon="-2.5330947060">
        <ele>298.15</ele>
        <time>2018-11-10T08:21:33Z</time>
      </trkpt>
      <trkpt lat="36.9632504415" lon="-2.5333460793">
        <ele>299.59</ele>
        <time>2018-11-10T08:21:45Z</time>
      </trkpt>
      <trkpt lat="36.9634060096" lon="-2.5336119533">
        <ele>301.03</ele>
        <time>2018-11-10T08:21:56Z</time>
      </trkpt>
      <trkpt lat="36.9635054190" lon="-2.5338521786">
        <ele>303.43</ele>
        <time>2018-11-10T08:22:06Z</time>
      </trkpt>
      <trkpt lat="36.9635599852" lon="-2.5341108441">
        <ele>305.84</ele>
        <time>2018-11-10T08:22:16Z</time>
      </trkpt>
      <trkpt lat="36.9635718875" lon="-2.5342364889">
        <ele>306.80</ele>
        <time>2018-11-10T08:22:23Z</time>
      </trkpt>
      <trkpt lat="36.9635809399" lon="-2.5344345532">
        <ele>307.28</ele>
        <time>2018-11-10T08:22:33Z</time>
      </trkpt>
      <trkpt lat="36.9635560457" lon="-2.5347095635">
        <ele>308.72</ele>
        <time>2018-11-10T08:22:45Z</time>
      </trkpt>
      <trkpt lat="36.9635029882" lon="-2.5349150039">
        <ele>308.72</ele>
        <time>2018-11-10T08:22:52Z</time>
      </trkpt>
      <trkpt lat="36.9633537903" lon="-2.5352240447">
        <ele>309.68</ele>
        <time>2018-11-10T08:23:02Z</time>
      </trkpt>
      <trkpt lat="36.9631907623" lon="-2.5355034973">
        <ele>310.16</ele>
        <time>2018-11-10T08:23:12Z</time>
      </trkpt>
      <trkpt lat="36.9631289039" lon="-2.5357453991">
        <ele>310.16</ele>
        <time>2018-11-10T08:23:19Z</time>
      </trkpt>
      <trkpt lat="36.9630600885" lon="-2.5360515062">
        <ele>310.16</ele>
        <time>2018-11-10T08:23:28Z</time>
      </trkpt>
      <trkpt lat="36.9629617687" lon="-2.5363545958">
        <ele>310.64</ele>
        <time>2018-11-10T08:23:37Z</time>
      </trkpt>
      <trkpt lat="36.9628732558" lon="-2.5366550870">
        <ele>310.64</ele>
        <time>2018-11-10T08:23:45Z</time>
      </trkpt>
      <trkpt lat="36.9628950488" lon="-2.5369167700">
        <ele>311.60</ele>
        <time>2018-11-10T08:23:52Z</time>
      </trkpt>
      <trkpt lat="36.9630393852" lon="-2.5372184347">
        <ele>313.05</ele>
        <time>2018-11-10T08:24:01Z</time>
      </trkpt>
      <trkpt lat="36.9631719030" lon="-2.5374717358">
        <ele>313.53</ele>
        <time>2018-11-10T08:24:10Z</time>
      </trkpt>
      <trkpt lat="36.9633298181" lon="-2.5377822854">
        <ele>313.53</ele>
        <time>2018-11-10T08:24:19Z</time>
      </trkpt>
      <trkpt lat="36.9635460712" lon="-2.5381898135">
        <ele>314.49</ele>
        <time>2018-11-10T08:24:29Z</time>
      </trkpt>
      <trkpt lat="36.9637738075" lon="-2.5386438612">
        <ele>315.45</ele>
        <time>2018-11-10T08:24:40Z</time>
      </trkpt>
      <trkpt lat="36.9640207384" lon="-2.5391159300">
        <ele>316.89</ele>
        <time>2018-11-10T08:24:52Z</time>
      </trkpt>
      <trkpt lat="36.9642096665" lon="-2.5394709036">
        <ele>318.33</ele>
        <time>2018-11-10T08:25:02Z</time>
      </trkpt>
      <trkpt lat="36.9643348083" lon="-2.5397145655">
        <ele>318.81</ele>
        <time>2018-11-10T08:25:11Z</time>
      </trkpt>
      <trkpt lat="36.9644831680" lon="-2.5399951916">
        <ele>318.81</ele>
        <time>2018-11-10T08:25:20Z</time>
      </trkpt>
      <trkpt lat="36.9647012651" lon="-2.5403316412">
        <ele>319.30</ele>
        <time>2018-11-10T08:25:31Z</time>
      </trkpt>
      <trkpt lat="36.9650173467" lon="-2.5405977666">
        <ele>317.85</ele>
        <time>2018-11-10T08:25:42Z</time>
      </trkpt>
      <trkpt lat="36.9652745873" lon="-2.5407887902">
        <ele>317.37</ele>
        <time>2018-11-10T08:25:51Z</time>
      </trkpt>
      <trkpt lat="36.9654771779" lon="-2.5410186220">
        <ele>317.37</ele>
        <time>2018-11-10T08:25:59Z</time>
      </trkpt>
      <trkpt lat="36.9655930996" lon="-2.5413473602">
        <ele>317.85</ele>
        <time>2018-11-10T08:26:07Z</time>
      </trkpt>
      <trkpt lat="36.9656144734" lon="-2.5414394774">
        <ele>317.85</ele>
        <time>2018-11-10T08:26:09Z</time>
      </trkpt>
      <trkpt lat="36.9656375237" lon="-2.5415378809">
        <ele>317.85</ele>
        <time>2018-11-10T08:26:11Z</time>
      </trkpt>
      <trkpt lat="36.9656573888" lon="-2.5418170821">
        <ele>316.89</ele>
        <time>2018-11-10T08:26:16Z</time>
      </trkpt>
      <trkpt lat="36.9656334165" lon="-2.5421442278">
        <ele>315.45</ele>
        <time>2018-11-10T08:26:21Z</time>
      </trkpt>
      <trkpt lat="36.9656141382" lon="-2.5427147001">
        <ele>313.05</ele>
        <time>2018-11-10T08:26:29Z</time>
      </trkpt>
      <trkpt lat="36.9656273816" lon="-2.5427949987">
        <ele>313.05</ele>
        <time>2018-11-10T08:26:30Z</time>
      </trkpt>
      <trkpt lat="36.9656490907" lon="-2.5428739563">
        <ele>312.57</ele>
        <time>2018-11-10T08:26:31Z</time>
      </trkpt>
      <trkpt lat="36.9656813610" lon="-2.5429495610">
        <ele>312.57</ele>
        <time>2018-11-10T08:26:32Z</time>
      </trkpt>
      <trkpt lat="36.9657231867" lon="-2.5430220645">
        <ele>312.09</ele>
        <time>2018-11-10T08:26:33Z</time>
      </trkpt>
      <trkpt lat="36.9657676946" lon="-2.5430886168">
        <ele>312.09</ele>
        <time>2018-11-10T08:26:34Z</time>
      </trkpt>
      <trkpt lat="36.9662025478" lon="-2.5437041838">
        <ele>310.16</ele>
        <time>2018-11-10T08:26:43Z</time>
      </trkpt>
      <trkpt lat="36.9665792305" lon="-2.5441064313">
        <ele>309.68</ele>
        <time>2018-11-10T08:26:51Z</time>
      </trkpt>
      <trkpt lat="36.9667047076" lon="-2.5442397036">
        <ele>310.16</ele>
        <time>2018-11-10T08:26:54Z</time>
      </trkpt>
      <trkpt lat="36.9667394925" lon="-2.5442878995">
        <ele>309.68</ele>
        <time>2018-11-10T08:26:55Z</time>
      </trkpt>
      <trkpt lat="36.9667741936" lon="-2.5443422142">
        <ele>309.68</ele>
        <time>2018-11-10T08:26:56Z</time>
      </trkpt>
      <trkpt lat="36.9669855852" lon="-2.5448594615">
        <ele>309.68</ele>
        <time>2018-11-10T08:27:05Z</time>
      </trkpt>
      <trkpt lat="36.9671937078" lon="-2.5454878528">
        <ele>310.16</ele>
        <time>2018-11-10T08:27:15Z</time>
      </trkpt>
      <trkpt lat="36.9673908502" lon="-2.5460562296">
        <ele>310.16</ele>
        <time>2018-11-10T08:27:25Z</time>
      </trkpt>
      <trkpt lat="36.9675806165" lon="-2.5466085970">
        <ele>311.60</ele>
        <time>2018-11-10T08:27:35Z</time>
      </trkpt>
      <trkpt lat="36.9677408785" lon="-2.5470642373">
        <ele>312.09</ele>
        <time>2018-11-10T08:27:44Z</time>
      </trkpt>
      <trkpt lat="36.9679214247" lon="-2.5476329494">
        <ele>311.12</ele>
        <time>2018-11-10T08:27:54Z</time>
      </trkpt>
      <trkpt lat="36.9680303894" lon="-2.5478777848">
        <ele>310.64</ele>
        <time>2018-11-10T08:27:58Z</time>
      </trkpt>
      <trkpt lat="36.9680651743" lon="-2.5479329377">
        <ele>310.16</ele>
        <time>2018-11-10T08:27:59Z</time>
      </trkpt>
      <trkpt lat="36.9685084932" lon="-2.5485214312">
        <ele>308.24</ele>
        <time>2018-11-10T08:28:10Z</time>
      </trkpt>
      <trkpt lat="36.9688799791" lon="-2.5490002055">
        <ele>307.76</ele>
        <time>2018-11-10T08:28:20Z</time>
      </trkpt>
      <trkpt lat="36.9690204598" lon="-2.5491963420">
        <ele>307.28</ele>
        <time>2018-11-10T08:28:25Z</time>
      </trkpt>
      <trkpt lat="36.9690430071" lon="-2.5492416043">
        <ele>307.28</ele>
        <time>2018-11-10T08:28:26Z</time>
      </trkpt>
      <trkpt lat="36.9690622017" lon="-2.5492884591">
        <ele>307.28</ele>
        <time>2018-11-10T08:28:27Z</time>
      </trkpt>
      <trkpt lat="36.9690932147" lon="-2.5493881200">
        <ele>307.76</ele>
        <time>2018-11-10T08:28:29Z</time>
      </trkpt>
      <trkpt lat="36.9691017643" lon="-2.5494376570">
        <ele>307.76</ele>
        <time>2018-11-10T08:28:30Z</time>
      </trkpt>
      <trkpt lat="36.9691076316" lon="-2.5494895410">
        <ele>307.76</ele>
        <time>2018-11-10T08:28:31Z</time>
      </trkpt>
      <trkpt lat="36.9691419136" lon="-2.5500333589">
        <ele>308.72</ele>
        <time>2018-11-10T08:28:41Z</time>
      </trkpt>
      <trkpt lat="36.9691346213" lon="-2.5504136458">
        <ele>308.72</ele>
        <time>2018-11-10T08:28:49Z</time>
      </trkpt>
      <trkpt lat="36.9690295123" lon="-2.5509073399">
        <ele>309.68</ele>
        <time>2018-11-10T08:28:59Z</time>
      </trkpt>
      <trkpt lat="36.9688832480" lon="-2.5512787420">
        <ele>311.12</ele>
        <time>2018-11-10T08:29:08Z</time>
      </trkpt>
      <trkpt lat="36.9686942361" lon="-2.5513970945">
        <ele>312.09</ele>
        <time>2018-11-10T08:29:14Z</time>
      </trkpt>
      <trkpt lat="36.9684099220" lon="-2.5514098350">
        <ele>313.05</ele>
        <time>2018-11-10T08:29:22Z</time>
      </trkpt>
      <trkpt lat="36.9681380969" lon="-2.5514957495">
        <ele>312.09</ele>
        <time>2018-11-10T08:29:30Z</time>
      </trkpt>
      <trkpt lat="36.9680706225" lon="-2.5516972505">
        <ele>312.09</ele>
        <time>2018-11-10T08:29:35Z</time>
      </trkpt>
      <trkpt lat="36.9681400247" lon="-2.5519319437">
        <ele>313.05</ele>
        <time>2018-11-10T08:29:41Z</time>
      </trkpt>
      <trkpt lat="36.9682849478" lon="-2.5521735940">
        <ele>314.01</ele>
        <time>2018-11-10T08:29:48Z</time>
      </trkpt>
      <trkpt lat="36.9685138576" lon="-2.5524913520">
        <ele>314.97</ele>
        <time>2018-11-10T08:29:57Z</time>
      </trkpt>
      <trkpt lat="36.9687279314" lon="-2.5527390372">
        <ele>316.41</ele>
        <time>2018-11-10T08:30:06Z</time>
      </trkpt>
      <trkpt lat="36.9688057993" lon="-2.5530100241">
        <ele>317.85</ele>
        <time>2018-11-10T08:30:14Z</time>
      </trkpt>
      <trkpt lat="36.9687606208" lon="-2.5533044804">
        <ele>318.81</ele>
        <time>2018-11-10T08:30:23Z</time>
      </trkpt>
      <trkpt lat="36.9686084893" lon="-2.5534221623">
        <ele>319.30</ele>
        <time>2018-11-10T08:30:29Z</time>
      </trkpt>
      <trkpt lat="36.9683944993" lon="-2.5533637404">
        <ele>318.33</ele>
        <time>2018-11-10T08:30:36Z</time>
      </trkpt>
      <trkpt lat="36.9681669306" lon="-2.5533479825">
        <ele>317.85</ele>
        <time>2018-11-10T08:30:43Z</time>
      </trkpt>
      <trkpt lat="36.9680648390" lon="-2.5535190571">
        <ele>317.85</ele>
        <time>2018-11-10T08:30:49Z</time>
      </trkpt>
      <trkpt lat="36.9680135418" lon="-2.5538052153">
        <ele>316.89</ele>
        <time>2018-11-10T08:30:57Z</time>
      </trkpt>
      <trkpt lat="36.9680717960" lon="-2.5540639646">
        <ele>317.37</ele>
        <time>2018-11-10T08:31:04Z</time>
      </trkpt>
      <trkpt lat="36.9682515878" lon="-2.5542871747">
        <ele>317.37</ele>
        <time>2018-11-10T08:31:11Z</time>
      </trkpt>
      <trkpt lat="36.9685253408" lon="-2.5545268971">
        <ele>316.89</ele>
        <time>2018-11-10T08:31:19Z</time>
      </trkpt>
      <trkpt lat="36.9688696694" lon="-2.5547934417">
        <ele>315.93</ele>
        <time>2018-11-10T08:31:27Z</time>
      </trkpt>
      <trkpt lat="36.9689073879" lon="-2.5548403803">
        <ele>315.93</ele>
        <time>2018-11-10T08:31:28Z</time>
      </trkpt>
      <trkpt lat="36.9689436816" lon="-2.5548946951">
        <ele>315.93</ele>
        <time>2018-11-10T08:31:29Z</time>
      </trkpt>
      <trkpt lat="36.9689728506" lon="-2.5549506862">
        <ele>315.93</ele>
        <time>2018-11-10T08:31:30Z</time>
      </trkpt>
      <trkpt lat="36.9689983316" lon="-2.5550166517">
        <ele>315.93</ele>
        <time>2018-11-10T08:31:31Z</time>
      </trkpt>
      <trkpt lat="36.9690181967" lon="-2.5550818630">
        <ele>315.93</ele>
        <time>2018-11-10T08:31:32Z</time>
      </trkpt>
      <trkpt lat="36.9691428356" lon="-2.5557244197">
        <ele>315.45</ele>
        <time>2018-11-10T08:31:41Z</time>
      </trkpt>
      <trkpt lat="36.9692303427" lon="-2.5561767071">
        <ele>315.45</ele>
        <time>2018-11-10T08:31:49Z</time>
      </trkpt>
      <trkpt lat="36.9693802949" lon="-2.5564901065">
        <ele>314.97</ele>
        <time>2018-11-10T08:31:57Z</time>
      </trkpt>
      <trkpt lat="36.9694455061" lon="-2.5565668847">
        <ele>314.49</ele>
        <time>2018-11-10T08:31:59Z</time>
      </trkpt>
      <trkpt lat="36.9694864936" lon="-2.5566041004">
        <ele>314.49</ele>
        <time>2018-11-10T08:32:00Z</time>
      </trkpt>
      <trkpt lat="36.9695358630" lon="-2.5566302519">
        <ele>314.01</ele>
        <time>2018-11-10T08:32:01Z</time>
      </trkpt>
      <trkpt lat="36.9695942011" lon="-2.5566370413">
        <ele>313.53</ele>
        <time>2018-11-10T08:32:02Z</time>
      </trkpt>
      <trkpt lat="36.9696579035" lon="-2.5566285755">
        <ele>313.05</ele>
        <time>2018-11-10T08:32:03Z</time>
      </trkpt>
      <trkpt lat="36.9697264675" lon="-2.5566104706">
        <ele>312.09</ele>
        <time>2018-11-10T08:32:04Z</time>
      </trkpt>
      <trkpt lat="36.9697979651" lon="-2.5565878395">
        <ele>312.09</ele>
        <time>2018-11-10T08:32:05Z</time>
      </trkpt>
      <trkpt lat="36.9699490909" lon="-2.5565458462">
        <ele>311.12</ele>
        <time>2018-11-10T08:32:07Z</time>
      </trkpt>
      <trkpt lat="36.9700282998" lon="-2.5565357041">
        <ele>310.64</ele>
        <time>2018-11-10T08:32:08Z</time>
      </trkpt>
      <trkpt lat="36.9701063354" lon="-2.5565327704">
        <ele>310.64</ele>
        <time>2018-11-10T08:32:09Z</time>
      </trkpt>
      <trkpt lat="36.9701818563" lon="-2.5565357041">
        <ele>310.16</ele>
        <time>2018-11-10T08:32:10Z</time>
      </trkpt>
      <trkpt lat="36.9702567067" lon="-2.5565481931">
        <ele>309.68</ele>
        <time>2018-11-10T08:32:11Z</time>
      </trkpt>
      <trkpt lat="36.9703305513" lon="-2.5565735903">
        <ele>309.20</ele>
        <time>2018-11-10T08:32:12Z</time>
      </trkpt>
      <trkpt lat="36.9704012945" lon="-2.5566165894">
        <ele>308.72</ele>
        <time>2018-11-10T08:32:13Z</time>
      </trkpt>
      <trkpt lat="36.9704644941" lon="-2.5566775259">
        <ele>308.24</ele>
        <time>2018-11-10T08:32:14Z</time>
      </trkpt>
      <trkpt lat="36.9705229159" lon="-2.5567493588">
        <ele>307.76</ele>
        <time>2018-11-10T08:32:15Z</time>
      </trkpt>
      <trkpt lat="36.9709675759" lon="-2.5573383551">
        <ele>306.32</ele>
        <time>2018-11-10T08:32:23Z</time>
      </trkpt>
      <trkpt lat="36.9710617047" lon="-2.5574631616">
        <ele>305.84</ele>
        <time>2018-11-10T08:32:25Z</time>
      </trkpt>
      <trkpt lat="36.9711132534" lon="-2.5575088430">
        <ele>305.84</ele>
        <time>2018-11-10T08:32:26Z</time>
      </trkpt>
      <trkpt lat="36.9711740222" lon="-2.5575334020">
        <ele>305.36</ele>
        <time>2018-11-10T08:32:27Z</time>
      </trkpt>
      <trkpt lat="36.9712379761" lon="-2.5575339049">
        <ele>305.36</ele>
        <time>2018-11-10T08:32:28Z</time>
      </trkpt>
      <trkpt lat="36.9713025168" lon="-2.5575287919">
        <ele>304.88</ele>
        <time>2018-11-10T08:32:29Z</time>
      </trkpt>
      <trkpt lat="36.9713668060" lon="-2.5575365871">
        <ele>304.39</ele>
        <time>2018-11-10T08:32:30Z</time>
      </trkpt>
      <trkpt lat="36.9714296702" lon="-2.5575660914">
        <ele>303.91</ele>
        <time>2018-11-10T08:32:31Z</time>
      </trkpt>
      <trkpt lat="36.9714890141" lon="-2.5576106831">
        <ele>303.43</ele>
        <time>2018-11-10T08:32:32Z</time>
      </trkpt>
      <trkpt lat="36.9715451729" lon="-2.5576657522">
        <ele>303.43</ele>
        <time>2018-11-10T08:32:33Z</time>
      </trkpt>
      <trkpt lat="36.9715995714" lon="-2.5577361602">
        <ele>302.95</ele>
        <time>2018-11-10T08:32:34Z</time>
      </trkpt>
      <trkpt lat="36.9716461748" lon="-2.5578067359">
        <ele>302.47</ele>
        <time>2018-11-10T08:32:35Z</time>
      </trkpt>
      <trkpt lat="36.9720687903" lon="-2.5584015995">
        <ele>300.55</ele>
        <time>2018-11-10T08:32:43Z</time>
      </trkpt>
      <trkpt lat="36.9721367676" lon="-2.5584295951">
        <ele>300.07</ele>
        <time>2018-11-10T08:32:44Z</time>
      </trkpt>
      <trkpt lat="36.9722098578" lon="-2.5584273320">
        <ele>300.07</ele>
        <time>2018-11-10T08:32:45Z</time>
      </trkpt>
      <trkpt lat="36.9722804334" lon="-2.5583987497">
        <ele>300.07</ele>
        <time>2018-11-10T08:32:46Z</time>
      </trkpt>
      <trkpt lat="36.9723474886" lon="-2.5583528168">
        <ele>299.59</ele>
        <time>2018-11-10T08:32:47Z</time>
      </trkpt>
      <trkpt lat="36.9724158011" lon="-2.5583016872">
        <ele>299.11</ele>
        <time>2018-11-10T08:32:48Z</time>
      </trkpt>
      <trkpt lat="36.9725638255" lon="-2.5582171977">
        <ele>298.63</ele>
        <time>2018-11-10T08:32:50Z</time>
      </trkpt>
      <trkpt lat="36.9726463873" lon="-2.5582081452">
        <ele>298.15</ele>
        <time>2018-11-10T08:32:51Z</time>
      </trkpt>
      <trkpt lat="36.9727293681" lon="-2.5582202990">
        <ele>297.67</ele>
        <time>2018-11-10T08:32:52Z</time>
      </trkpt>
      <trkpt lat="36.9728140254" lon="-2.5582488813">
        <ele>296.70</ele>
        <time>2018-11-10T08:32:53Z</time>
      </trkpt>
      <trkpt lat="36.9729046337" lon="-2.5582920481">
        <ele>295.74</ele>
        <time>2018-11-10T08:32:54Z</time>
      </trkpt>
      <trkpt lat="36.9729835913" lon="-2.5583393220">
        <ele>295.26</ele>
        <time>2018-11-10T08:32:55Z</time>
      </trkpt>
      <trkpt lat="36.9730749540" lon="-2.5584006775">
        <ele>294.30</ele>
        <time>2018-11-10T08:32:56Z</time>
      </trkpt>
      <trkpt lat="36.9736645371" lon="-2.5587624405">
        <ele>289.01</ele>
        <time>2018-11-10T08:33:03Z</time>
      </trkpt>
      <trkpt lat="36.9738612603" lon="-2.5588309206">
        <ele>287.09</ele>
        <time>2018-11-10T08:33:07Z</time>
      </trkpt>
      <trkpt lat="36.9739680458" lon="-2.5588636100">
        <ele>286.61</ele>
        <time>2018-11-10T08:33:12Z</time>
      </trkpt>
      <trkpt lat="36.9739669561" lon="-2.5588633586">
        <ele>287.09</ele>
        <time>2018-11-10T08:33:18Z</time>
      </trkpt>
      <trkpt lat="36.9739642739" lon="-2.5588646997">
        <ele>287.57</ele>
        <time>2018-11-10T08:33:35Z</time>
      </trkpt>
      <trkpt lat="36.9739967119" lon="-2.5588659570">
        <ele>287.57</ele>
        <time>2018-11-10T08:33:44Z</time>
      </trkpt>
      <trkpt lat="36.9739936944" lon="-2.5588593353">
        <ele>288.53</ele>
        <time>2018-11-10T08:33:57Z</time>
      </trkpt>
      <trkpt lat="36.9739923533" lon="-2.5588618498">
        <ele>288.05</ele>
        <time>2018-11-10T08:34:13Z</time>
      </trkpt>
      <trkpt lat="36.9739902578" lon="-2.5588596705">
        <ele>288.05</ele>
        <time>2018-11-10T08:34:27Z</time>
      </trkpt>
      <trkpt lat="36.9739928562" lon="-2.5588548928">
        <ele>288.05</ele>
        <time>2018-11-10T08:34:44Z</time>
      </trkpt>
      <trkpt lat="36.9739921857" lon="-2.5588549767">
        <ele>288.53</ele>
        <time>2018-11-10T08:34:57Z</time>
      </trkpt>
      <trkpt lat="36.9739898387" lon="-2.5588492770">
        <ele>289.01</ele>
        <time>2018-11-10T08:35:12Z</time>
      </trkpt>
      <trkpt lat="36.9739877433" lon="-2.5588489417">
        <ele>289.49</ele>
        <time>2018-11-10T08:35:27Z</time>
      </trkpt>
      <trkpt lat="36.9739827979" lon="-2.5588532165">
        <ele>289.49</ele>
        <time>2018-11-10T08:35:42Z</time>
      </trkpt>
      <trkpt lat="36.9739882462" lon="-2.5588436611">
        <ele>289.49</ele>
        <time>2018-11-10T08:35:56Z</time>
      </trkpt>
      <trkpt lat="36.9739897549" lon="-2.5588470139">
        <ele>288.53</ele>
        <time>2018-11-10T08:36:09Z</time>
      </trkpt>
      <trkpt lat="36.9739960413" lon="-2.5588497799">
        <ele>289.49</ele>
        <time>2018-11-10T08:36:27Z</time>
      </trkpt>
      <trkpt lat="36.9740011543" lon="-2.5588469300">
        <ele>288.05</ele>
        <time>2018-11-10T08:36:47Z</time>
      </trkpt>
      <trkpt lat="36.9740008190" lon="-2.5588416494">
        <ele>288.53</ele>
        <time>2018-11-10T08:37:01Z</time>
      </trkpt>
      <trkpt lat="36.9740117993" lon="-2.5588871632">
        <ele>289.01</ele>
        <time>2018-11-10T08:37:08Z</time>
      </trkpt>
      <trkpt lat="36.9740126375" lon="-2.5589016639">
        <ele>289.01</ele>
        <time>2018-11-10T08:37:15Z</time>
      </trkpt>
      <trkpt lat="36.9740310777" lon="-2.5589145720">
        <ele>289.01</ele>
        <time>2018-11-10T08:37:22Z</time>
      </trkpt>
      <trkpt lat="36.9741528668" lon="-2.5590022467">
        <ele>288.05</ele>
        <time>2018-11-10T08:37:28Z</time>
      </trkpt>
      <trkpt lat="36.9744210038" lon="-2.5591470860">
        <ele>285.65</ele>
        <time>2018-11-10T08:37:35Z</time>
      </trkpt>
      <trkpt lat="36.9745642506" lon="-2.5592484232">
        <ele>284.69</ele>
        <time>2018-11-10T08:37:38Z</time>
      </trkpt>
      <trkpt lat="36.9746051542" lon="-2.5592925958">
        <ele>284.69</ele>
        <time>2018-11-10T08:37:39Z</time>
      </trkpt>
      <trkpt lat="36.9746861234" lon="-2.5593955256">
        <ele>284.21</ele>
        <time>2018-11-10T08:37:41Z</time>
      </trkpt>
      <trkpt lat="36.9748352375" lon="-2.5596749783">
        <ele>282.77</ele>
        <time>2018-11-10T08:37:45Z</time>
      </trkpt>
      <trkpt lat="36.9748629816" lon="-2.5597561151">
        <ele>282.28</ele>
        <time>2018-11-10T08:37:46Z</time>
      </trkpt>
      <trkpt lat="36.9749842677" lon="-2.5604213867">
        <ele>279.88</ele>
        <time>2018-11-10T08:37:53Z</time>
      </trkpt>
      <trkpt lat="36.9750797376" lon="-2.5611809548">
        <ele>276.04</ele>
        <time>2018-11-10T08:38:00Z</time>
      </trkpt>
      <trkpt lat="36.9751110021" lon="-2.5612876564">
        <ele>275.56</ele>
        <time>2018-11-10T08:38:01Z</time>
      </trkpt>
      <trkpt lat="36.9754793029" lon="-2.5622478873">
        <ele>272.67</ele>
        <time>2018-11-10T08:38:11Z</time>
      </trkpt>
      <trkpt lat="36.9755199552" lon="-2.5623290241">
        <ele>272.19</ele>
        <time>2018-11-10T08:38:12Z</time>
      </trkpt>
      <trkpt lat="36.9755709171" lon="-2.5624058861">
        <ele>271.71</ele>
        <time>2018-11-10T08:38:13Z</time>
      </trkpt>
      <trkpt lat="36.9756299257" lon="-2.5624781381">
        <ele>271.23</ele>
        <time>2018-11-10T08:38:14Z</time>
      </trkpt>
      <trkpt lat="36.9757423270" lon="-2.5626135897">
        <ele>270.75</ele>
        <time>2018-11-10T08:38:16Z</time>
      </trkpt>
      <trkpt lat="36.9757911935" lon="-2.5626910385">
        <ele>270.27</ele>
        <time>2018-11-10T08:38:17Z</time>
      </trkpt>
      <trkpt lat="36.9758300856" lon="-2.5627843291">
        <ele>270.27</ele>
        <time>2018-11-10T08:38:18Z</time>
      </trkpt>
      <trkpt lat="36.9758496992" lon="-2.5628781226">
        <ele>269.79</ele>
        <time>2018-11-10T08:38:19Z</time>
      </trkpt>
      <trkpt lat="36.9758537225" lon="-2.5629756041">
        <ele>269.31</ele>
        <time>2018-11-10T08:38:20Z</time>
      </trkpt>
      <trkpt lat="36.9758450892" lon="-2.5630798750">
        <ele>268.83</ele>
        <time>2018-11-10T08:38:21Z</time>
      </trkpt>
      <trkpt lat="36.9758234639" lon="-2.5631887559">
        <ele>268.35</ele>
        <time>2018-11-10T08:38:22Z</time>
      </trkpt>
      <trkpt lat="36.9758037664" lon="-2.5632911827">
        <ele>267.38</ele>
        <time>2018-11-10T08:38:23Z</time>
      </trkpt>
      <trkpt lat="36.9756551553" lon="-2.5643130206">
        <ele>261.14</ele>
        <time>2018-11-10T08:38:32Z</time>
      </trkpt>
      <trkpt lat="36.9756682310" lon="-2.5644545909">
        <ele>260.65</ele>
        <time>2018-11-10T08:38:33Z</time>
      </trkpt>
      <trkpt lat="36.9756874256" lon="-2.5645552576">
        <ele>260.65</ele>
        <time>2018-11-10T08:38:34Z</time>
      </trkpt>
      <trkpt lat="36.9757224619" lon="-2.5646778848">
        <ele>260.65</ele>
        <time>2018-11-10T08:38:35Z</time>
      </trkpt>
      <trkpt lat="36.9757527206" lon="-2.5647658110">
        <ele>260.65</ele>
        <time>2018-11-10T08:38:36Z</time>
      </trkpt>
      <trkpt lat="36.9757797942" lon="-2.5648378953">
        <ele>260.65</ele>
        <time>2018-11-10T08:38:37Z</time>
      </trkpt>
      <trkpt lat="36.9759553112" lon="-2.5652812142">
        <ele>262.10</ele>
        <time>2018-11-10T08:38:43Z</time>
      </trkpt>
      <trkpt lat="36.9761621766" lon="-2.5657804403">
        <ele>262.10</ele>
        <time>2018-11-10T08:38:52Z</time>
      </trkpt>
      <trkpt lat="36.9763144758" lon="-2.5661745574">
        <ele>262.10</ele>
        <time>2018-11-10T08:39:01Z</time>
      </trkpt>
      <trkpt lat="36.9764631707" lon="-2.5665630586">
        <ele>262.58</ele>
        <time>2018-11-10T08:39:10Z</time>
      </trkpt>
      <trkpt lat="36.9766719639" lon="-2.5670955610">
        <ele>262.58</ele>
        <time>2018-11-10T08:39:21Z</time>
      </trkpt>
      <trkpt lat="36.9769095071" lon="-2.5675619300">
        <ele>262.10</ele>
        <time>2018-11-10T08:39:31Z</time>
      </trkpt>
      <trkpt lat="36.9771079067" lon="-2.5677888282">
        <ele>263.06</ele>
        <time>2018-11-10T08:39:38Z</time>
      </trkpt>
      <trkpt lat="36.9773295242" lon="-2.5678761676">
        <ele>266.42</ele>
        <time>2018-11-10T08:39:47Z</time>
      </trkpt>
      <trkpt lat="36.9776026066" lon="-2.5679688714">
        <ele>266.42</ele>
        <time>2018-11-10T08:39:57Z</time>
      </trkpt>
      <trkpt lat="36.9777740166" lon="-2.5680308137">
        <ele>265.94</ele>
        <time>2018-11-10T08:40:05Z</time>
      </trkpt>
      <trkpt lat="36.9779579155" lon="-2.5681145489">
        <ele>264.98</ele>
        <time>2018-11-10T08:40:14Z</time>
      </trkpt>
      <trkpt lat="36.9781887531" lon="-2.5681886449">
        <ele>263.54</ele>
        <time>2018-11-10T08:40:20Z</time>
      </trkpt>
      <trkpt lat="36.9782848936" lon="-2.5682386849">
        <ele>263.06</ele>
        <time>2018-11-10T08:40:22Z</time>
      </trkpt>
      <trkpt lat="36.9783316646" lon="-2.5682748947">
        <ele>263.06</ele>
        <time>2018-11-10T08:40:23Z</time>
      </trkpt>
      <trkpt lat="36.9786428008" lon="-2.5685689319">
        <ele>260.65</ele>
        <time>2018-11-10T08:40:29Z</time>
      </trkpt>
      <trkpt lat="36.9787531067" lon="-2.5686986838">
        <ele>260.17</ele>
        <time>2018-11-10T08:40:31Z</time>
      </trkpt>
      <trkpt lat="36.9788020570" lon="-2.5687745400">
        <ele>259.69</ele>
        <time>2018-11-10T08:40:32Z</time>
      </trkpt>
      <trkpt lat="36.9788435474" lon="-2.5688543357">
        <ele>259.69</ele>
        <time>2018-11-10T08:40:33Z</time>
      </trkpt>
      <trkpt lat="36.9789304677" lon="-2.5690310262">
        <ele>259.21</ele>
        <time>2018-11-10T08:40:35Z</time>
      </trkpt>
      <trkpt lat="36.9789837766" lon="-2.5691042002">
        <ele>259.21</ele>
        <time>2018-11-10T08:40:36Z</time>
      </trkpt>
      <trkpt lat="36.9790439587" lon="-2.5691704173">
        <ele>258.73</ele>
        <time>2018-11-10T08:40:37Z</time>
      </trkpt>
      <trkpt lat="36.9791157078" lon="-2.5692315213">
        <ele>258.73</ele>
        <time>2018-11-10T08:40:38Z</time>
      </trkpt>
      <trkpt lat="36.9791854452" lon="-2.5692810584">
        <ele>258.25</ele>
        <time>2018-11-10T08:40:39Z</time>
      </trkpt>
      <trkpt lat="36.9792617206" lon="-2.5693326071">
        <ele>258.25</ele>
        <time>2018-11-10T08:40:40Z</time>
      </trkpt>
      <trkpt lat="36.9796665665" lon="-2.5696830545">
        <ele>257.29</ele>
        <time>2018-11-10T08:40:46Z</time>
      </trkpt>
      <trkpt lat="36.9797135890" lon="-2.5697668735">
        <ele>257.29</ele>
        <time>2018-11-10T08:40:47Z</time>
      </trkpt>
      <trkpt lat="36.9797438476" lon="-2.5698558893">
        <ele>257.29</ele>
        <time>2018-11-10T08:40:48Z</time>
      </trkpt>
      <trkpt lat="36.9797552470" lon="-2.5699494313">
        <ele>256.81</ele>
        <time>2018-11-10T08:40:49Z</time>
      </trkpt>
      <trkpt lat="36.9797487091" lon="-2.5700433087">
        <ele>256.33</ele>
        <time>2018-11-10T08:40:50Z</time>
      </trkpt>
      <trkpt lat="36.9797281735" lon="-2.5701367669">
        <ele>256.33</ele>
        <time>2018-11-10T08:40:51Z</time>
      </trkpt>
      <trkpt lat="36.9796965737" lon="-2.5702044088">
        <ele>255.85</ele>
        <time>2018-11-10T08:40:52Z</time>
      </trkpt>
      <trkpt lat="36.9796404988" lon="-2.5702723861">
        <ele>255.85</ele>
        <time>2018-11-10T08:40:53Z</time>
      </trkpt>
      <trkpt lat="36.9795790594" lon="-2.5703070033">
        <ele>255.85</ele>
        <time>2018-11-10T08:40:54Z</time>
      </trkpt>
      <trkpt lat="36.9795256667" lon="-2.5703241862">
        <ele>255.85</ele>
        <time>2018-11-10T08:40:55Z</time>
      </trkpt>
      <trkpt lat="36.9794590306" lon="-2.5703398604">
        <ele>255.85</ele>
        <time>2018-11-10T08:40:56Z</time>
      </trkpt>
      <trkpt lat="36.9791487325" lon="-2.5704272836">
        <ele>256.33</ele>
        <time>2018-11-10T08:41:01Z</time>
      </trkpt>
      <trkpt lat="36.9790929090" lon="-2.5704655889">
        <ele>256.33</ele>
        <time>2018-11-10T08:41:02Z</time>
      </trkpt>
      <trkpt lat="36.9790473115" lon="-2.5705095101">
        <ele>256.33</ele>
        <time>2018-11-10T08:41:03Z</time>
      </trkpt>
      <trkpt lat="36.9790067431" lon="-2.5705633219">
        <ele>256.33</ele>
        <time>2018-11-10T08:41:04Z</time>
      </trkpt>
      <trkpt lat="36.9789722096" lon="-2.5706233364">
        <ele>256.33</ele>
        <time>2018-11-10T08:41:05Z</time>
      </trkpt>
      <trkpt lat="36.9789476506" lon="-2.5706816744">
        <ele>256.33</ele>
        <time>2018-11-10T08:41:06Z</time>
      </trkpt>
      <trkpt lat="36.9789287075" lon="-2.5707462151">
        <ele>256.33</ele>
        <time>2018-11-10T08:41:07Z</time>
      </trkpt>
      <trkpt lat="36.9789168052" lon="-2.5708087441">
        <ele>256.33</ele>
        <time>2018-11-10T08:41:08Z</time>
      </trkpt>
      <trkpt lat="36.9789093453" lon="-2.5708711892">
        <ele>256.33</ele>
        <time>2018-11-10T08:41:09Z</time>
      </trkpt>
      <trkpt lat="36.9789047353" lon="-2.5709320419">
        <ele>256.33</ele>
        <time>2018-11-10T08:41:10Z</time>
      </trkpt>
      <trkpt lat="36.9789046515" lon="-2.5709900446">
        <ele>256.33</ele>
        <time>2018-11-10T08:41:11Z</time>
      </trkpt>
      <trkpt lat="36.9789104350" lon="-2.5710470416">
        <ele>256.33</ele>
        <time>2018-11-10T08:41:12Z</time>
      </trkpt>
      <trkpt lat="36.9789592177" lon="-2.5713178609">
        <ele>256.33</ele>
        <time>2018-11-10T08:41:17Z</time>
      </trkpt>
      <trkpt lat="36.9791022129" lon="-2.5716021750">
        <ele>255.85</ele>
        <time>2018-11-10T08:41:24Z</time>
      </trkpt>
      <trkpt lat="36.9792987686" lon="-2.5718094595">
        <ele>255.85</ele>
        <time>2018-11-10T08:41:31Z</time>
      </trkpt>
      <trkpt lat="36.9793281052" lon="-2.5718481001">
        <ele>255.85</ele>
        <time>2018-11-10T08:41:32Z</time>
      </trkpt>
      <trkpt lat="36.9793552626" lon="-2.5718897581">
        <ele>255.85</ele>
        <time>2018-11-10T08:41:33Z</time>
      </trkpt>
      <trkpt lat="36.9795808196" lon="-2.5722644292">
        <ele>255.85</ele>
        <time>2018-11-10T08:41:42Z</time>
      </trkpt>
      <trkpt lat="36.9797964860" lon="-2.5726531819">
        <ele>255.37</ele>
        <time>2018-11-10T08:41:51Z</time>
      </trkpt>
      <trkpt lat="36.9799762778" lon="-2.5729887933">
        <ele>254.89</ele>
        <time>2018-11-10T08:42:00Z</time>
      </trkpt>
      <trkpt lat="36.9800569117" lon="-2.5731681660">
        <ele>254.89</ele>
        <time>2018-11-10T08:42:04Z</time>
      </trkpt>
      <trkpt lat="36.9800694846" lon="-2.5732223969">
        <ele>254.41</ele>
        <time>2018-11-10T08:42:05Z</time>
      </trkpt>
      <trkpt lat="36.9800788723" lon="-2.5732778851">
        <ele>254.41</ele>
        <time>2018-11-10T08:42:06Z</time>
      </trkpt>
      <trkpt lat="36.9800828956" lon="-2.5733330380">
        <ele>254.41</ele>
        <time>2018-11-10T08:42:07Z</time>
      </trkpt>
      <trkpt lat="36.9800810516" lon="-2.5733887777">
        <ele>254.89</ele>
        <time>2018-11-10T08:42:08Z</time>
      </trkpt>
      <trkpt lat="36.9800766930" lon="-2.5734462775">
        <ele>254.89</ele>
        <time>2018-11-10T08:42:09Z</time>
      </trkpt>
      <trkpt lat="36.9800731726" lon="-2.5735563319">
        <ele>254.89</ele>
        <time>2018-11-10T08:42:11Z</time>
      </trkpt>
      <trkpt lat="36.9801368751" lon="-2.5740581565">
        <ele>257.29</ele>
        <time>2018-11-10T08:42:21Z</time>
      </trkpt>
      <trkpt lat="36.9802007452" lon="-2.5745281298">
        <ele>260.17</ele>
        <time>2018-11-10T08:42:31Z</time>
      </trkpt>
      <trkpt lat="36.9802266452" lon="-2.5749916490">
        <ele>261.14</ele>
        <time>2018-11-10T08:42:41Z</time>
      </trkpt>
      <trkpt lat="36.9803277310" lon="-2.5754469540">
        <ele>263.06</ele>
        <time>2018-11-10T08:42:52Z</time>
      </trkpt>
      <trkpt lat="36.9804408867" lon="-2.5758456811">
        <ele>264.50</ele>
        <time>2018-11-10T08:43:01Z</time>
      </trkpt>
      <trkpt lat="36.9804548007" lon="-2.5758920331">
        <ele>264.50</ele>
        <time>2018-11-10T08:43:02Z</time>
      </trkpt>
      <trkpt lat="36.9805737399" lon="-2.5762734096">
        <ele>264.98</ele>
        <time>2018-11-10T08:43:10Z</time>
      </trkpt>
      <trkpt lat="36.9806371070" lon="-2.5764664449">
        <ele>264.50</ele>
        <time>2018-11-10T08:43:14Z</time>
      </trkpt>
      <trkpt lat="36.9806506857" lon="-2.5765195861">
        <ele>264.50</ele>
        <time>2018-11-10T08:43:15Z</time>
      </trkpt>
      <trkpt lat="36.9806605764" lon="-2.5765692070">
        <ele>264.50</ele>
        <time>2018-11-10T08:43:16Z</time>
      </trkpt>
      <trkpt lat="36.9807153940" lon="-2.5770691875">
        <ele>264.98</ele>
        <time>2018-11-10T08:43:27Z</time>
      </trkpt>
      <trkpt lat="36.9807676971" lon="-2.5775295217">
        <ele>264.50</ele>
        <time>2018-11-10T08:43:36Z</time>
      </trkpt>
      <trkpt lat="36.9807816949" lon="-2.5778013468">
        <ele>264.98</ele>
        <time>2018-11-10T08:43:43Z</time>
      </trkpt>
      <trkpt lat="36.9807941839" lon="-2.5780905224">
        <ele>265.46</ele>
        <time>2018-11-10T08:43:50Z</time>
      </trkpt>
      <trkpt lat="36.9808001351" lon="-2.5784635171">
        <ele>264.02</ele>
        <time>2018-11-10T08:43:58Z</time>
      </trkpt>
      <trkpt lat="36.9807868917" lon="-2.5789028965">
        <ele>263.54</ele>
        <time>2018-11-10T08:44:07Z</time>
      </trkpt>
      <trkpt lat="36.9807095267" lon="-2.5793434493">
        <ele>264.50</ele>
        <time>2018-11-10T08:44:16Z</time>
      </trkpt>
      <trkpt lat="36.9806261268" lon="-2.5797354709">
        <ele>265.46</ele>
        <time>2018-11-10T08:44:24Z</time>
      </trkpt>
      <trkpt lat="36.9805796910" lon="-2.5802216213">
        <ele>264.50</ele>
        <time>2018-11-10T08:44:34Z</time>
      </trkpt>
      <trkpt lat="36.9806403760" lon="-2.5805738289">
        <ele>264.98</ele>
        <time>2018-11-10T08:44:42Z</time>
      </trkpt>
      <trkpt lat="36.9807454012" lon="-2.5810075086">
        <ele>265.46</ele>
        <time>2018-11-10T08:44:52Z</time>
      </trkpt>
      <trkpt lat="36.9807828683" lon="-2.5814499892">
        <ele>264.50</ele>
        <time>2018-11-10T08:45:02Z</time>
      </trkpt>
      <trkpt lat="36.9808354229" lon="-2.5818798970">
        <ele>264.98</ele>
        <time>2018-11-10T08:45:12Z</time>
      </trkpt>
      <trkpt lat="36.9809852075" lon="-2.5822922029">
        <ele>265.94</ele>
        <time>2018-11-10T08:45:22Z</time>
      </trkpt>
      <trkpt lat="36.9811224192" lon="-2.5826002378">
        <ele>266.42</ele>
        <time>2018-11-10T08:45:30Z</time>
      </trkpt>
      <trkpt lat="36.9812592119" lon="-2.5829024054">
        <ele>266.42</ele>
        <time>2018-11-10T08:45:38Z</time>
      </trkpt>
      <trkpt lat="36.9812988583" lon="-2.5829856377">
        <ele>266.42</ele>
        <time>2018-11-10T08:45:40Z</time>
      </trkpt>
      <trkpt lat="36.9814120978" lon="-2.5831416249">
        <ele>266.90</ele>
        <time>2018-11-10T08:45:44Z</time>
      </trkpt>
      <trkpt lat="36.9816721883" lon="-2.5833972730">
        <ele>266.42</ele>
        <time>2018-11-10T08:45:51Z</time>
      </trkpt>
      <trkpt lat="36.9819036964" lon="-2.5835335627">
        <ele>266.42</ele>
        <time>2018-11-10T08:45:56Z</time>
      </trkpt>
      <trkpt lat="36.9820857514" lon="-2.5835943315">
        <ele>265.94</ele>
        <time>2018-11-10T08:46:01Z</time>
      </trkpt>
      <trkpt lat="36.9821552373" lon="-2.5836366601">
        <ele>265.46</ele>
        <time>2018-11-10T08:46:03Z</time>
      </trkpt>
      <trkpt lat="36.9824865740" lon="-2.5837906357">
        <ele>264.98</ele>
        <time>2018-11-10T08:46:12Z</time>
      </trkpt>
      <trkpt lat="36.9828669447" lon="-2.5839869399">
        <ele>265.46</ele>
        <time>2018-11-10T08:46:22Z</time>
      </trkpt>
      <trkpt lat="36.9830448087" lon="-2.5842518080">
        <ele>268.35</ele>
        <time>2018-11-10T08:46:29Z</time>
      </trkpt>
      <trkpt lat="36.9830643386" lon="-2.5842998363">
        <ele>268.83</ele>
        <time>2018-11-10T08:46:30Z</time>
      </trkpt>
      <trkpt lat="36.9832729641" lon="-2.5847123936">
        <ele>270.75</ele>
        <time>2018-11-10T08:46:40Z</time>
      </trkpt>
      <trkpt lat="36.9835469685" lon="-2.5849906728">
        <ele>271.23</ele>
        <time>2018-11-10T08:46:49Z</time>
      </trkpt>
      <trkpt lat="36.9837879483" lon="-2.5852380227">
        <ele>271.23</ele>
        <time>2018-11-10T08:46:58Z</time>
      </trkpt>
      <trkpt lat="36.9837872777" lon="-2.5853320677">
        <ele>271.23</ele>
        <time>2018-11-10T08:47:00Z</time>
      </trkpt>
      <trkpt lat="36.9837674964" lon="-2.5853769947">
        <ele>271.23</ele>
        <time>2018-11-10T08:47:01Z</time>
      </trkpt>
      <trkpt lat="36.9837483019" lon="-2.5854046550">
        <ele>271.23</ele>
        <time>2018-11-10T08:47:02Z</time>
      </trkpt>
      <trkpt lat="36.9835713599" lon="-2.5856742170">
        <ele>269.79</ele>
        <time>2018-11-10T08:47:10Z</time>
      </trkpt>
      <trkpt lat="36.9835070707" lon="-2.5858407654">
        <ele>269.31</ele>
        <time>2018-11-10T08:47:14Z</time>
      </trkpt>
      <trkpt lat="36.9834337290" lon="-2.5860679988">
        <ele>268.83</ele>
        <time>2018-11-10T08:47:20Z</time>
      </trkpt>
      <trkpt lat="36.9834312983" lon="-2.5860792305">
        <ele>268.83</ele>
        <time>2018-11-10T08:47:26Z</time>
      </trkpt>
      <trkpt lat="36.9834332261" lon="-2.5860730279">
        <ele>270.27</ele>
        <time>2018-11-10T08:47:40Z</time>
      </trkpt>
      <trkpt lat="36.9834343158" lon="-2.5860684179">
        <ele>270.75</ele>
        <time>2018-11-10T08:47:50Z</time>
      </trkpt>
      <trkpt lat="36.9834246766" lon="-2.5861425977">
        <ele>269.79</ele>
        <time>2018-11-10T08:47:55Z</time>
      </trkpt>
      <trkpt lat="36.9833856169" lon="-2.5864264090">
        <ele>268.83</ele>
        <time>2018-11-10T08:48:03Z</time>
      </trkpt>
      <trkpt lat="36.9833469763" lon="-2.5867499504">
        <ele>268.35</ele>
        <time>2018-11-10T08:48:12Z</time>
      </trkpt>
      <trkpt lat="36.9833240099" lon="-2.5870385394">
        <ele>267.86</ele>
        <time>2018-11-10T08:48:19Z</time>
      </trkpt>
      <trkpt lat="36.9832791667" lon="-2.5874184910">
        <ele>266.90</ele>
        <time>2018-11-10T08:48:28Z</time>
      </trkpt>
      <trkpt lat="36.9832260255" lon="-2.5878421124">
        <ele>267.86</ele>
        <time>2018-11-10T08:48:37Z</time>
      </trkpt>
      <trkpt lat="36.9831752311" lon="-2.5883337948">
        <ele>269.79</ele>
        <time>2018-11-10T08:48:47Z</time>
      </trkpt>
      <trkpt lat="36.9831403624" lon="-2.5886937138">
        <ele>271.23</ele>
        <time>2018-11-10T08:48:55Z</time>
      </trkpt>
      <trkpt lat="36.9831147976" lon="-2.5889212824">
        <ele>271.71</ele>
        <time>2018-11-10T08:49:04Z</time>
      </trkpt>
      <trkpt lat="36.9830849580" lon="-2.5892419741">
        <ele>271.71</ele>
        <time>2018-11-10T08:49:12Z</time>
      </trkpt>
      <trkpt lat="36.9829611573" lon="-2.5896168966">
        <ele>271.23</ele>
        <time>2018-11-10T08:49:21Z</time>
      </trkpt>
      <trkpt lat="36.9827490114" lon="-2.5897943415">
        <ele>272.19</ele>
        <time>2018-11-10T08:49:28Z</time>
      </trkpt>
      <trkpt lat="36.9825400505" lon="-2.5900204852">
        <ele>272.67</ele>
        <time>2018-11-10T08:49:36Z</time>
      </trkpt>
      <trkpt lat="36.9824082032" lon="-2.5902327150">
        <ele>273.15</ele>
        <time>2018-11-10T08:49:44Z</time>
      </trkpt>
      <trkpt lat="36.9823252223" lon="-2.5904816575">
        <ele>274.59</ele>
        <time>2018-11-10T08:49:52Z</time>
      </trkpt>
      <trkpt lat="36.9823196065" lon="-2.5906505529">
        <ele>276.52</ele>
        <time>2018-11-10T08:49:58Z</time>
      </trkpt>
      <trkpt lat="36.9823586661" lon="-2.5908899400">
        <ele>278.44</ele>
        <time>2018-11-10T08:50:05Z</time>
      </trkpt>
      <trkpt lat="36.9824553933" lon="-2.5912020821">
        <ele>280.36</ele>
        <time>2018-11-10T08:50:14Z</time>
      </trkpt>
      <trkpt lat="36.9825226162" lon="-2.5914156530">
        <ele>281.32</ele>
        <time>2018-11-10T08:50:21Z</time>
      </trkpt>
      <trkpt lat="36.9826210197" lon="-2.5917697884">
        <ele>282.28</ele>
        <time>2018-11-10T08:50:32Z</time>
      </trkpt>
      <trkpt lat="36.9827212673" lon="-2.5920663401">
        <ele>282.28</ele>
        <time>2018-11-10T08:50:41Z</time>
      </trkpt>
      <trkpt lat="36.9828125462" lon="-2.5923580304">
        <ele>283.25</ele>
        <time>2018-11-10T08:50:50Z</time>
      </trkpt>
      <trkpt lat="36.9828247000" lon="-2.5923937373">
        <ele>282.77</ele>
        <time>2018-11-10T08:50:55Z</time>
      </trkpt>
      <trkpt lat="36.9828302320" lon="-2.5923893787">
        <ele>283.73</ele>
        <time>2018-11-10T08:51:10Z</time>
      </trkpt>
      <trkpt lat="36.9828407932" lon="-2.5924517401">
        <ele>282.77</ele>
        <time>2018-11-10T08:51:19Z</time>
      </trkpt>
      <trkpt lat="36.9828984607" lon="-2.5926199649">
        <ele>282.77</ele>
        <time>2018-11-10T08:51:26Z</time>
      </trkpt>
      <trkpt lat="36.9829686172" lon="-2.5928613637">
        <ele>283.25</ele>
        <time>2018-11-10T08:51:36Z</time>
      </trkpt>
      <trkpt lat="36.9830476586" lon="-2.5930897705">
        <ele>282.77</ele>
        <time>2018-11-10T08:51:46Z</time>
      </trkpt>
      <trkpt lat="36.9830961060" lon="-2.5933008268">
        <ele>282.77</ele>
        <time>2018-11-10T08:51:55Z</time>
      </trkpt>
      <trkpt lat="36.9831282087" lon="-2.5935219415">
        <ele>282.28</ele>
        <time>2018-11-10T08:52:02Z</time>
      </trkpt>
      <trkpt lat="36.9831167255" lon="-2.5938726403">
        <ele>281.32</ele>
        <time>2018-11-10T08:52:10Z</time>
      </trkpt>
      <trkpt lat="36.9830238540" lon="-2.5942199863">
        <ele>279.40</ele>
        <time>2018-11-10T08:52:16Z</time>
      </trkpt>
      <trkpt lat="36.9830032345" lon="-2.5942763127">
        <ele>278.92</ele>
        <time>2018-11-10T08:52:17Z</time>
      </trkpt>
      <trkpt lat="36.9828146417" lon="-2.5946615450">
        <ele>277.48</ele>
        <time>2018-11-10T08:52:23Z</time>
      </trkpt>
      <trkpt lat="36.9824413117" lon="-2.5950989127">
        <ele>275.07</ele>
        <time>2018-11-10T08:52:30Z</time>
      </trkpt>
      <trkpt lat="36.9821461849" lon="-2.5954227056">
        <ele>274.11</ele>
        <time>2018-11-10T08:52:36Z</time>
      </trkpt>
      <trkpt lat="36.9821128249" lon="-2.5954791997">
        <ele>274.11</ele>
        <time>2018-11-10T08:52:37Z</time>
      </trkpt>
      <trkpt lat="36.9820831530" lon="-2.5955423992">
        <ele>274.11</ele>
        <time>2018-11-10T08:52:38Z</time>
      </trkpt>
      <trkpt lat="36.9820545707" lon="-2.5956607517">
        <ele>273.63</ele>
        <time>2018-11-10T08:52:40Z</time>
      </trkpt>
      <trkpt lat="36.9820488710" lon="-2.5957326684">
        <ele>274.11</ele>
        <time>2018-11-10T08:52:41Z</time>
      </trkpt>
      <trkpt lat="36.9820507150" lon="-2.5957804453">
        <ele>274.11</ele>
        <time>2018-11-10T08:52:42Z</time>
      </trkpt>
      <trkpt lat="36.9820555765" lon="-2.5958374422">
        <ele>274.11</ele>
        <time>2018-11-10T08:52:43Z</time>
      </trkpt>
      <trkpt lat="36.9820674788" lon="-2.5958963670">
        <ele>274.11</ele>
        <time>2018-11-10T08:52:44Z</time>
      </trkpt>
      <trkpt lat="36.9820823148" lon="-2.5959396176">
        <ele>274.11</ele>
        <time>2018-11-10T08:52:45Z</time>
      </trkpt>
      <trkpt lat="36.9820988271" lon="-2.5959909987">
        <ele>274.11</ele>
        <time>2018-11-10T08:52:46Z</time>
      </trkpt>
      <trkpt lat="36.9821136631" lon="-2.5960348360">
        <ele>274.11</ele>
        <time>2018-11-10T08:52:47Z</time>
      </trkpt>
      <trkpt lat="36.9822227955" lon="-2.5963420328">
        <ele>274.59</ele>
        <time>2018-11-10T08:52:55Z</time>
      </trkpt>
      <trkpt lat="36.9823517930" lon="-2.5966484752">
        <ele>274.11</ele>
        <time>2018-11-10T08:53:04Z</time>
      </trkpt>
      <trkpt lat="36.9825111330" lon="-2.5967483036">
        <ele>274.59</ele>
        <time>2018-11-10T08:53:11Z</time>
      </trkpt>
      <trkpt lat="36.9827795215" lon="-2.5968023669">
        <ele>275.56</ele>
        <time>2018-11-10T08:53:21Z</time>
      </trkpt>
      <trkpt lat="36.9829316530" lon="-2.5968424324">
        <ele>276.52</ele>
        <time>2018-11-10T08:53:28Z</time>
      </trkpt>
      <trkpt lat="36.9830634166" lon="-2.5968743674">
        <ele>277.00</ele>
        <time>2018-11-10T08:53:36Z</time>
      </trkpt>
      <trkpt lat="36.9831986167" lon="-2.5969502237">
        <ele>278.92</ele>
        <time>2018-11-10T08:53:44Z</time>
      </trkpt>
      <trkpt lat="36.9833705295" lon="-2.5971225556">
        <ele>282.28</ele>
        <time>2018-11-10T08:53:54Z</time>
      </trkpt>
      <trkpt lat="36.9835132733" lon="-2.5972523913">
        <ele>285.17</ele>
        <time>2018-11-10T08:54:02Z</time>
      </trkpt>
      <trkpt lat="36.9836666621" lon="-2.5972678978">
        <ele>286.13</ele>
        <time>2018-11-10T08:54:09Z</time>
      </trkpt>
      <trkpt lat="36.9837663230" lon="-2.5973501243">
        <ele>287.09</ele>
        <time>2018-11-10T08:54:15Z</time>
      </trkpt>
      <trkpt lat="36.9838876929" lon="-2.5973967277">
        <ele>287.09</ele>
        <time>2018-11-10T08:54:21Z</time>
      </trkpt>
      <trkpt lat="36.9840469491" lon="-2.5974267349">
        <ele>286.13</ele>
        <time>2018-11-10T08:54:28Z</time>
      </trkpt>
      <trkpt lat="36.9842793792" lon="-2.5974191073">
        <ele>283.25</ele>
        <time>2018-11-10T08:54:38Z</time>
      </trkpt>
      <trkpt lat="36.9844831433" lon="-2.5974662974">
        <ele>284.69</ele>
        <time>2018-11-10T08:54:47Z</time>
      </trkpt>
      <trkpt lat="36.9847173337" lon="-2.5975244679">
        <ele>286.13</ele>
        <time>2018-11-10T08:54:57Z</time>
      </trkpt>
      <trkpt lat="36.9848878216" lon="-2.5975083746">
        <ele>287.09</ele>
        <time>2018-11-10T08:55:06Z</time>
      </trkpt>
      <trkpt lat="36.9849109557" lon="-2.5974921975">
        <ele>288.53</ele>
        <time>2018-11-10T08:55:12Z</time>
      </trkpt>
      <trkpt lat="36.9849200919" lon="-2.5974875037">
        <ele>289.49</ele>
        <time>2018-11-10T08:55:20Z</time>
      </trkpt>
      <trkpt lat="36.9849057589" lon="-2.5974849053">
        <ele>289.49</ele>
        <time>2018-11-10T08:55:33Z</time>
      </trkpt>
      <trkpt lat="36.9849124644" lon="-2.5974841509">
        <ele>289.01</ele>
        <time>2018-11-10T08:55:44Z</time>
      </trkpt>
      <trkpt lat="36.9849014003" lon="-2.5974611007">
        <ele>288.53</ele>
        <time>2018-11-10T08:55:57Z</time>
      </trkpt>
      <trkpt lat="36.9849036634" lon="-2.5974638667">
        <ele>288.05</ele>
        <time>2018-11-10T08:56:09Z</time>
      </trkpt>
      <trkpt lat="36.9849184155" lon="-2.5974720810">
        <ele>288.53</ele>
        <time>2018-11-10T08:56:19Z</time>
      </trkpt>
      <trkpt lat="36.9849374425" lon="-2.5974862464">
        <ele>290.46</ele>
        <time>2018-11-10T08:56:37Z</time>
      </trkpt>
      <trkpt lat="36.9849289767" lon="-2.5975029264">
        <ele>291.42</ele>
        <time>2018-11-10T08:56:53Z</time>
      </trkpt>
      <trkpt lat="36.9849145599" lon="-2.5975247193">
        <ele>289.49</ele>
        <time>2018-11-10T08:57:13Z</time>
      </trkpt>
      <trkpt lat="36.9849127997" lon="-2.5975155830">
        <ele>288.05</ele>
        <time>2018-11-10T08:57:29Z</time>
      </trkpt>
      <trkpt lat="36.9849133864" lon="-2.5975126494">
        <ele>288.53</ele>
        <time>2018-11-10T08:57:42Z</time>
      </trkpt>
      <trkpt lat="36.9849216007" lon="-2.5975170080">
        <ele>288.05</ele>
        <time>2018-11-10T08:58:00Z</time>
      </trkpt>
      <trkpt lat="36.9849237800" lon="-2.5975072850">
        <ele>288.05</ele>
        <time>2018-11-10T08:58:19Z</time>
      </trkpt>
      <trkpt lat="36.9849258754" lon="-2.5975107215">
        <ele>288.53</ele>
        <time>2018-11-10T08:58:36Z</time>
      </trkpt>
      <trkpt lat="36.9849169906" lon="-2.5974956341">
        <ele>289.97</ele>
        <time>2018-11-10T08:58:55Z</time>
      </trkpt>
      <trkpt lat="36.9849076029" lon="-2.5974923652">
        <ele>290.46</ele>
        <time>2018-11-10T08:59:06Z</time>
      </trkpt>
      <trkpt lat="36.9849058427" lon="-2.5974817201">
        <ele>291.42</ele>
        <time>2018-11-10T08:59:23Z</time>
      </trkpt>
      <trkpt lat="36.9849241152" lon="-2.5974836480">
        <ele>293.34</ele>
        <time>2018-11-10T08:59:41Z</time>
      </trkpt>
      <trkpt lat="36.9849240314" lon="-2.5974877551">
        <ele>292.86</ele>
        <time>2018-11-10T08:59:51Z</time>
      </trkpt>
      <trkpt lat="36.9848998077" lon="-2.5974722486">
        <ele>292.86</ele>
        <time>2018-11-10T09:00:10Z</time>
      </trkpt>
      <trkpt lat="36.9848789368" lon="-2.5974702369">
        <ele>290.46</ele>
        <time>2018-11-10T09:00:26Z</time>
      </trkpt>
      <trkpt lat="36.9849058427" lon="-2.5974676386">
        <ele>286.61</ele>
        <time>2018-11-10T09:00:50Z</time>
      </trkpt>
      <trkpt lat="36.9849227741" lon="-2.5974796247">
        <ele>285.17</ele>
        <time>2018-11-10T09:01:06Z</time>
      </trkpt>
      <trkpt lat="36.9849373586" lon="-2.5974858273">
        <ele>284.69</ele>
        <time>2018-11-10T09:01:17Z</time>
      </trkpt>
      <trkpt lat="36.9849812798" lon="-2.5975113921">
        <ele>286.61</ele>
        <time>2018-11-10T09:01:37Z</time>
      </trkpt>
      <trkpt lat="36.9849737361" lon="-2.5975166727">
        <ele>287.09</ele>
        <time>2018-11-10T09:01:53Z</time>
      </trkpt>
      <trkpt lat="36.9849577267" lon="-2.5974966399">
        <ele>289.01</ele>
        <time>2018-11-10T09:02:04Z</time>
      </trkpt>
      <trkpt lat="36.9849412143" lon="-2.5974911079">
        <ele>289.49</ele>
        <time>2018-11-10T09:02:12Z</time>
      </trkpt>
      <trkpt lat="36.9849306531" lon="-2.5974982325">
        <ele>289.49</ele>
        <time>2018-11-10T09:02:19Z</time>
      </trkpt>
      <trkpt lat="36.9849159848" lon="-2.5975057762">
        <ele>289.01</ele>
        <time>2018-11-10T09:02:23Z</time>
      </trkpt>
      <trkpt lat="36.9847247098" lon="-2.5975433271">
        <ele>287.57</ele>
        <time>2018-11-10T09:02:31Z</time>
      </trkpt>
      <trkpt lat="36.9845409784" lon="-2.5975004956">
        <ele>289.97</ele>
        <time>2018-11-10T09:02:37Z</time>
      </trkpt>
      <trkpt lat="36.9842523057" lon="-2.5974441692">
        <ele>289.97</ele>
        <time>2018-11-10T09:02:45Z</time>
      </trkpt>
      <trkpt lat="36.9841780420" lon="-2.5974554010">
        <ele>290.46</ele>
        <time>2018-11-10T09:02:47Z</time>
      </trkpt>
      <trkpt lat="36.9839096535" lon="-2.5973761920">
        <ele>293.82</ele>
        <time>2018-11-10T09:02:55Z</time>
      </trkpt>
      <trkpt lat="36.9838612061" lon="-2.5973463524">
        <ele>294.30</ele>
        <time>2018-11-10T09:03:00Z</time>
      </trkpt>
      <trkpt lat="36.9838359766" lon="-2.5973405689">
        <ele>295.26</ele>
        <time>2018-11-10T09:03:07Z</time>
      </trkpt>
      <trkpt lat="36.9838451128" lon="-2.5973637868">
        <ele>291.90</ele>
        <time>2018-11-10T09:03:23Z</time>
      </trkpt>
      <trkpt lat="36.9838416763" lon="-2.5973581709">
        <ele>289.97</ele>
        <time>2018-11-10T09:03:40Z</time>
      </trkpt>
      <trkpt lat="36.9838394970" lon="-2.5973575003">
        <ele>289.97</ele>
        <time>2018-11-10T09:03:53Z</time>
      </trkpt>
      <trkpt lat="36.9838422630" lon="-2.5973522197">
        <ele>289.01</ele>
        <time>2018-11-10T09:04:09Z</time>
      </trkpt>
      <trkpt lat="36.9838546682" lon="-2.5973550696">
        <ele>288.05</ele>
        <time>2018-11-10T09:04:21Z</time>
      </trkpt>
      <trkpt lat="36.9838589430" lon="-2.5973633677">
        <ele>287.57</ele>
        <time>2018-11-10T09:04:36Z</time>
      </trkpt>
      <trkpt lat="36.9838577695" lon="-2.5973692350">
        <ele>289.49</ele>
        <time>2018-11-10T09:04:51Z</time>
      </trkpt>
      <trkpt lat="36.9838505611" lon="-2.5973755214">
        <ele>289.97</ele>
        <time>2018-11-10T09:05:04Z</time>
      </trkpt>
      <trkpt lat="36.9838469569" lon="-2.5973837357">
        <ele>290.46</ele>
        <time>2018-11-10T09:05:17Z</time>
      </trkpt>
      <trkpt lat="36.9838467892" lon="-2.5973777007">
        <ele>290.46</ele>
        <time>2018-11-10T09:05:33Z</time>
      </trkpt>
      <trkpt lat="36.9838437717" lon="-2.5973742642">
        <ele>290.46</ele>
        <time>2018-11-10T09:05:45Z</time>
      </trkpt>
      <trkpt lat="36.9838526566" lon="-2.5973707438">
        <ele>291.42</ele>
        <time>2018-11-10T09:05:54Z</time>
      </trkpt>
      <trkpt lat="36.9838591944" lon="-2.5973766111">
        <ele>295.26</ele>
        <time>2018-11-10T09:06:16Z</time>
      </trkpt>
      <trkpt lat="36.9838572666" lon="-2.5973896030">
        <ele>297.18</ele>
        <time>2018-11-10T09:06:37Z</time>
      </trkpt>
      <trkpt lat="36.9838503934" lon="-2.5973872561">
        <ele>298.15</ele>
        <time>2018-11-10T09:06:52Z</time>
      </trkpt>
      <trkpt lat="36.9838550035" lon="-2.5973745156">
        <ele>298.63</ele>
        <time>2018-11-10T09:07:05Z</time>
      </trkpt>
      <trkpt lat="36.9838481303" lon="-2.5973634515">
        <ele>298.63</ele>
        <time>2018-11-10T09:07:20Z</time>
      </trkpt>
      <trkpt lat="36.9838589430" lon="-2.5973588414">
        <ele>298.15</ele>
        <time>2018-11-10T09:07:30Z</time>
      </trkpt>
      <trkpt lat="36.9838657323" lon="-2.5973529741">
        <ele>297.67</ele>
        <time>2018-11-10T09:07:44Z</time>
      </trkpt>
      <trkpt lat="36.9838778023" lon="-2.5973627809">
        <ele>296.22</ele>
        <time>2018-11-10T09:07:57Z</time>
      </trkpt>
      <trkpt lat="36.9838764612" lon="-2.5973793771">
        <ele>295.26</ele>
        <time>2018-11-10T09:08:09Z</time>
      </trkpt>
      <trkpt lat="36.9838774670" lon="-2.5973816402">
        <ele>294.78</ele>
        <time>2018-11-10T09:08:22Z</time>
      </trkpt>
      <trkpt lat="36.9838771317" lon="-2.5973818079">
        <ele>294.78</ele>
        <time>2018-11-10T09:08:42Z</time>
      </trkpt>
      <trkpt lat="36.9838699233" lon="-2.5973756053">
        <ele>296.22</ele>
        <time>2018-11-10T09:08:55Z</time>
      </trkpt>
      <trkpt lat="36.9838752039" lon="-2.5973648764">
        <ele>297.67</ele>
        <time>2018-11-10T09:09:09Z</time>
      </trkpt>
      <trkpt lat="36.9838747010" lon="-2.5973685645">
        <ele>298.15</ele>
        <time>2018-11-10T09:09:20Z</time>
      </trkpt>
      <trkpt lat="36.9838768803" lon="-2.5973775331">
        <ele>297.67</ele>
        <time>2018-11-10T09:09:34Z</time>
      </trkpt>
      <trkpt lat="36.9838613737" lon="-2.5973763596">
        <ele>297.67</ele>
        <time>2018-11-10T09:09:47Z</time>
      </trkpt>
      <trkpt lat="36.9838508125" lon="-2.5973635353">
        <ele>297.67</ele>
        <time>2018-11-10T09:10:04Z</time>
      </trkpt>
      <trkpt lat="36.9838503096" lon="-2.5973642897">
        <ele>300.07</ele>
        <time>2018-11-10T09:10:26Z</time>
      </trkpt>
      <trkpt lat="36.9838344678" lon="-2.5973948836">
        <ele>298.63</ele>
        <time>2018-11-10T09:10:47Z</time>
      </trkpt>
      <trkpt lat="36.9838302769" lon="-2.5974053610">
        <ele>297.67</ele>
        <time>2018-11-10T09:11:00Z</time>
      </trkpt>
      <trkpt lat="36.9838301931" lon="-2.5973839033">
        <ele>297.18</ele>
        <time>2018-11-10T09:11:17Z</time>
      </trkpt>
      <trkpt lat="36.9838377368" lon="-2.5973747671">
        <ele>296.70</ele>
        <time>2018-11-10T09:11:37Z</time>
      </trkpt>
      <trkpt lat="36.9838490523" lon="-2.5973626971">
        <ele>295.74</ele>
        <time>2018-11-10T09:11:54Z</time>
      </trkpt>
      <trkpt lat="36.9838532433" lon="-2.5973837357">
        <ele>297.18</ele>
        <time>2018-11-10T09:12:11Z</time>
      </trkpt>
      <trkpt lat="36.9838682469" lon="-2.5973892678">
        <ele>299.11</ele>
        <time>2018-11-10T09:12:22Z</time>
      </trkpt>
      <trkpt lat="36.9838664867" lon="-2.5973643735">
        <ele>300.55</ele>
        <time>2018-11-10T09:12:40Z</time>
      </trkpt>
      <trkpt lat="36.9838718511" lon="-2.5973647088">
        <ele>300.07</ele>
        <time>2018-11-10T09:12:54Z</time>
      </trkpt>
      <trkpt lat="36.9838713482" lon="-2.5973799638">
        <ele>298.63</ele>
        <time>2018-11-10T09:13:08Z</time>
      </trkpt>
      <trkpt lat="36.9838639721" lon="-2.5973907765">
        <ele>297.67</ele>
        <time>2018-11-10T09:13:19Z</time>
      </trkpt>
      <trkpt lat="36.9838613737" lon="-2.5974022597">
        <ele>298.63</ele>
        <time>2018-11-10T09:13:36Z</time>
      </trkpt>
      <trkpt lat="36.9838658161" lon="-2.5973916147">
        <ele>298.63</ele>
        <time>2018-11-10T09:13:48Z</time>
      </trkpt>
      <trkpt lat="36.9838592783" lon="-2.5973730069">
        <ele>298.63</ele>
        <time>2018-11-10T09:14:05Z</time>
      </trkpt>
      <trkpt lat="36.9838681631" lon="-2.5973676424">
        <ele>298.63</ele>
        <time>2018-11-10T09:14:18Z</time>
      </trkpt>
      <trkpt lat="36.9838688336" lon="-2.5973657984">
        <ele>299.11</ele>
        <time>2018-11-10T09:14:34Z</time>
      </trkpt>
      <trkpt lat="36.9838757068" lon="-2.5973770302">
        <ele>301.51</ele>
        <time>2018-11-10T09:14:51Z</time>
      </trkpt>
      <trkpt lat="36.9838835020" lon="-2.5973899383">
        <ele>300.55</ele>
        <time>2018-11-10T09:15:05Z</time>
      </trkpt>
      <trkpt lat="36.9838796463" lon="-2.5974108092">
        <ele>298.63</ele>
        <time>2018-11-10T09:15:19Z</time>
      </trkpt>
      <trkpt lat="36.9838857651" lon="-2.5974110607">
        <ele>296.70</ele>
        <time>2018-11-10T09:15:36Z</time>
      </trkpt>
      <trkpt lat="36.9838877767" lon="-2.5974072888">
        <ele>297.67</ele>
        <time>2018-11-10T09:15:48Z</time>
      </trkpt>
      <trkpt lat="36.9838949852" lon="-2.5973753538">
        <ele>298.15</ele>
        <time>2018-11-10T09:16:05Z</time>
      </trkpt>
      <trkpt lat="36.9838975836" lon="-2.5973662175">
        <ele>296.70</ele>
        <time>2018-11-10T09:16:25Z</time>
      </trkpt>
      <trkpt lat="36.9838854298" lon="-2.5973650441">
        <ele>297.18</ele>
        <time>2018-11-10T09:16:36Z</time>
      </trkpt>
      <trkpt lat="36.9838690851" lon="-2.5973744318">
        <ele>296.70</ele>
        <time>2018-11-10T09:16:55Z</time>
      </trkpt>
      <trkpt lat="36.9838682469" lon="-2.5973714981">
        <ele>298.15</ele>
        <time>2018-11-10T09:17:07Z</time>
      </trkpt>
      <trkpt lat="36.9838622957" lon="-2.5973598473">
        <ele>297.67</ele>
        <time>2018-11-10T09:17:20Z</time>
      </trkpt>
      <trkpt lat="36.9838584401" lon="-2.5973610207">
        <ele>298.63</ele>
        <time>2018-11-10T09:17:36Z</time>
      </trkpt>
      <trkpt lat="36.9838601165" lon="-2.5973661337">
        <ele>299.59</ele>
        <time>2018-11-10T09:17:47Z</time>
      </trkpt>
      <trkpt lat="36.9838557579" lon="-2.5973714981">
        <ele>299.59</ele>
        <time>2018-11-10T09:17:59Z</time>
      </trkpt>
      <trkpt lat="36.9838644750" lon="-2.5973683968">
        <ele>299.59</ele>
        <time>2018-11-10T09:18:11Z</time>
      </trkpt>
      <trkpt lat="36.9838902075" lon="-2.5973619428">
        <ele>298.63</ele>
        <time>2018-11-10T09:18:32Z</time>
      </trkpt>
      <trkpt lat="36.9838804007" lon="-2.5973523874">
        <ele>299.11</ele>
        <time>2018-11-10T09:18:51Z</time>
      </trkpt>
      <trkpt lat="36.9838584401" lon="-2.5973566622">
        <ele>299.59</ele>
        <time>2018-11-10T09:19:07Z</time>
      </trkpt>
      <trkpt lat="36.9838499743" lon="-2.5973543152">
        <ele>298.15</ele>
        <time>2018-11-10T09:19:21Z</time>
      </trkpt>
      <trkpt lat="36.9838660676" lon="-2.5973566622">
        <ele>297.67</ele>
        <time>2018-11-10T09:19:35Z</time>
      </trkpt>
      <trkpt lat="36.9838966615" lon="-2.5973575003">
        <ele>296.70</ele>
        <time>2018-11-10T09:19:49Z</time>
      </trkpt>
      <trkpt lat="36.9838993438" lon="-2.5973708276">
        <ele>294.78</ele>
        <time>2018-11-10T09:20:07Z</time>
      </trkpt>
      <trkpt lat="36.9838812388" lon="-2.5973733421">
        <ele>294.78</ele>
        <time>2018-11-10T09:20:20Z</time>
      </trkpt>
      <trkpt lat="36.9838664867" lon="-2.5973723363">
        <ele>292.86</ele>
        <time>2018-11-10T09:20:36Z</time>
      </trkpt>
      <trkpt lat="36.9838636369" lon="-2.5973745994">
        <ele>292.86</ele>
        <time>2018-11-10T09:20:48Z</time>
      </trkpt>
      <trkpt lat="36.9838721864" lon="-2.5973708276">
        <ele>293.34</ele>
        <time>2018-11-10T09:21:01Z</time>
      </trkpt>
      <trkpt lat="36.9838533271" lon="-2.5973408204">
        <ele>293.34</ele>
        <time>2018-11-10T09:21:15Z</time>
      </trkpt>
      <trkpt lat="36.9838586077" lon="-2.5973590091">
        <ele>289.97</ele>
        <time>2018-11-10T09:21:31Z</time>
      </trkpt>
      <trkpt lat="36.9838589430" lon="-2.5973906089">
        <ele>287.09</ele>
        <time>2018-11-10T09:21:55Z</time>
      </trkpt>
      <trkpt lat="36.9838581048" lon="-2.5974097196">
        <ele>287.57</ele>
        <time>2018-11-10T09:22:10Z</time>
      </trkpt>
      <trkpt lat="36.9838529080" lon="-2.5974027626">
        <ele>286.61</ele>
        <time>2018-11-10T09:22:21Z</time>
      </trkpt>
      <trkpt lat="36.9838263374" lon="-2.5974243879">
        <ele>286.13</ele>
        <time>2018-11-10T09:22:29Z</time>
      </trkpt>
      <trkpt lat="36.9838132616" lon="-2.5974300876">
        <ele>286.13</ele>
        <time>2018-11-10T09:22:36Z</time>
      </trkpt>
      <trkpt lat="36.9838102441" lon="-2.5974258967">
        <ele>286.61</ele>
        <time>2018-11-10T09:22:37Z</time>
      </trkpt>
      <trkpt lat="36.9837452844" lon="-2.5973864179">
        <ele>286.13</ele>
        <time>2018-11-10T09:22:43Z</time>
      </trkpt>
      <trkpt lat="36.9835933205" lon="-2.5973054487">
        <ele>287.09</ele>
        <time>2018-11-10T09:22:51Z</time>
      </trkpt>
      <trkpt lat="36.9834340643" lon="-2.5972293410">
        <ele>286.13</ele>
        <time>2018-11-10T09:22:59Z</time>
      </trkpt>
      <trkpt lat="36.9832581282" lon="-2.5970565900">
        <ele>284.69</ele>
        <time>2018-11-10T09:23:05Z</time>
      </trkpt>
      <trkpt lat="36.9830992073" lon="-2.5969217252">
        <ele>281.80</ele>
        <time>2018-11-10T09:23:12Z</time>
      </trkpt>
      <trkpt lat="36.9829220138" lon="-2.5968750380">
        <ele>281.32</ele>
        <time>2018-11-10T09:23:19Z</time>
      </trkpt>
      <trkpt lat="36.9827915914" lon="-2.5968321227">
        <ele>279.88</ele>
        <time>2018-11-10T09:23:25Z</time>
      </trkpt>
      <trkpt lat="36.9825232867" lon="-2.5968102459">
        <ele>277.00</ele>
        <time>2018-11-10T09:23:34Z</time>
      </trkpt>
      <trkpt lat="36.9824332651" lon="-2.5969168637">
        <ele>277.96</ele>
        <time>2018-11-10T09:23:38Z</time>
      </trkpt>
      <trkpt lat="36.9824343547" lon="-2.5969907083">
        <ele>277.48</ele>
        <time>2018-11-10T09:23:40Z</time>
      </trkpt>
      <trkpt lat="36.9824470952" lon="-2.5970336236">
        <ele>277.48</ele>
        <time>2018-11-10T09:23:41Z</time>
      </trkpt>
      <trkpt lat="36.9826014899" lon="-2.5974750984">
        <ele>276.52</ele>
        <time>2018-11-10T09:23:51Z</time>
      </trkpt>
      <trkpt lat="36.9827394560" lon="-2.5978575647">
        <ele>276.04</ele>
        <time>2018-11-10T09:24:00Z</time>
      </trkpt>
      <trkpt lat="36.9828700460" lon="-2.5982126221">
        <ele>276.04</ele>
        <time>2018-11-10T09:24:08Z</time>
      </trkpt>
      <trkpt lat="36.9829769991" lon="-2.5985162146">
        <ele>276.52</ele>
        <time>2018-11-10T09:24:16Z</time>
      </trkpt>
      <trkpt lat="36.9830847904" lon="-2.5988126826">
        <ele>276.52</ele>
        <time>2018-11-10T09:24:24Z</time>
      </trkpt>
      <trkpt lat="36.9832340721" lon="-2.5992063805">
        <ele>277.00</ele>
        <time>2018-11-10T09:24:34Z</time>
      </trkpt>
      <trkpt lat="36.9833664224" lon="-2.5995694008">
        <ele>277.96</ele>
        <time>2018-11-10T09:24:43Z</time>
      </trkpt>
      <trkpt lat="36.9835038017" lon="-2.5999665353">
        <ele>278.92</ele>
        <time>2018-11-10T09:24:53Z</time>
      </trkpt>
      <trkpt lat="36.9836652372" lon="-2.6004111953">
        <ele>278.92</ele>
        <time>2018-11-10T09:25:04Z</time>
      </trkpt>
      <trkpt lat="36.9838197995" lon="-2.6008657459">
        <ele>279.40</ele>
        <time>2018-11-10T09:25:15Z</time>
      </trkpt>
      <trkpt lat="36.9839529041" lon="-2.6012361422">
        <ele>279.88</ele>
        <time>2018-11-10T09:25:24Z</time>
      </trkpt>
      <trkpt lat="36.9841502141" lon="-2.6017934550">
        <ele>280.84</ele>
        <time>2018-11-10T09:25:37Z</time>
      </trkpt>
      <trkpt lat="36.9843098894" lon="-2.6022547111">
        <ele>282.28</ele>
        <time>2018-11-10T09:25:48Z</time>
      </trkpt>
      <trkpt lat="36.9844871666" lon="-2.6027299650">
        <ele>282.28</ele>
        <time>2018-11-10T09:26:00Z</time>
      </trkpt>
      <trkpt lat="36.9846662879" lon="-2.6032495592">
        <ele>282.77</ele>
        <time>2018-11-10T09:26:13Z</time>
      </trkpt>
      <trkpt lat="36.9847858138" lon="-2.6035771240">
        <ele>283.25</ele>
        <time>2018-11-10T09:26:21Z</time>
      </trkpt>
      <trkpt lat="36.9849781785" lon="-2.6040961314">
        <ele>283.73</ele>
        <time>2018-11-10T09:26:34Z</time>
      </trkpt>
      <trkpt lat="36.9851704594" lon="-2.6045614947">
        <ele>285.17</ele>
        <time>2018-11-10T09:26:46Z</time>
      </trkpt>
      <trkpt lat="36.9852369279" lon="-2.6048940886">
        <ele>285.17</ele>
        <time>2018-11-10T09:26:54Z</time>
      </trkpt>
      <trkpt lat="36.9852240197" lon="-2.6054436900">
        <ele>285.17</ele>
        <time>2018-11-10T09:27:06Z</time>
      </trkpt>
      <trkpt lat="36.9852285460" lon="-2.6059445925">
        <ele>284.21</ele>
        <time>2018-11-10T09:27:17Z</time>
      </trkpt>
      <trkpt lat="36.9852397777" lon="-2.6064711437">
        <ele>284.69</ele>
        <time>2018-11-10T09:27:29Z</time>
      </trkpt>
      <trkpt lat="36.9852244388" lon="-2.6070565358">
        <ele>284.69</ele>
        <time>2018-11-10T09:27:42Z</time>
      </trkpt>
      <trkpt lat="36.9851999637" lon="-2.6075779740">
        <ele>285.65</ele>
        <time>2018-11-10T09:27:54Z</time>
      </trkpt>
      <trkpt lat="36.9851894025" lon="-2.6080568321">
        <ele>286.61</ele>
        <time>2018-11-10T09:28:05Z</time>
      </trkpt>
      <trkpt lat="36.9852629956" lon="-2.6084251329">
        <ele>288.05</ele>
        <time>2018-11-10T09:28:14Z</time>
      </trkpt>
      <trkpt lat="36.9854163006" lon="-2.6088042464">
        <ele>289.01</ele>
        <time>2018-11-10T09:28:24Z</time>
      </trkpt>
      <trkpt lat="36.9856297038" lon="-2.6092748903">
        <ele>290.94</ele>
        <time>2018-11-10T09:28:37Z</time>
      </trkpt>
      <trkpt lat="36.9858694263" lon="-2.6097727753">
        <ele>292.38</ele>
        <time>2018-11-10T09:28:51Z</time>
      </trkpt>
      <trkpt lat="36.9860424288" lon="-2.6102038566">
        <ele>293.34</ele>
        <time>2018-11-10T09:29:03Z</time>
      </trkpt>
      <trkpt lat="36.9861588534" lon="-2.6104856562">
        <ele>294.30</ele>
        <time>2018-11-10T09:29:12Z</time>
      </trkpt>
      <trkpt lat="36.9862949755" lon="-2.6106584910">
        <ele>294.78</ele>
        <time>2018-11-10T09:29:21Z</time>
      </trkpt>
      <trkpt lat="36.9862928800" lon="-2.6106751710">
        <ele>295.26</ele>
        <time>2018-11-10T09:29:26Z</time>
      </trkpt>
      <trkpt lat="36.9863067102" lon="-2.6106901746">
        <ele>295.26</ele>
        <time>2018-11-10T09:29:32Z</time>
      </trkpt>
      <trkpt lat="36.9863011781" lon="-2.6106869057">
        <ele>295.26</ele>
        <time>2018-11-10T09:29:43Z</time>
      </trkpt>
      <trkpt lat="36.9863172714" lon="-2.6106910128">
        <ele>295.74</ele>
        <time>2018-11-10T09:30:05Z</time>
      </trkpt>
      <trkpt lat="36.9863026030" lon="-2.6106872410">
        <ele>296.22</ele>
        <time>2018-11-10T09:30:23Z</time>
      </trkpt>
      <trkpt lat="36.9863021001" lon="-2.6106739976">
        <ele>295.74</ele>
        <time>2018-11-10T09:30:39Z</time>
      </trkpt>
      <trkpt lat="36.9863007590" lon="-2.6106853969">
        <ele>296.70</ele>
        <time>2018-11-10T09:30:54Z</time>
      </trkpt>
      <trkpt lat="36.9862928800" lon="-2.6106834691">
        <ele>296.22</ele>
        <time>2018-11-10T09:31:05Z</time>
      </trkpt>
      <trkpt lat="36.9862953946" lon="-2.6106829662">
        <ele>295.74</ele>
        <time>2018-11-10T09:31:11Z</time>
      </trkpt>
      <trkpt lat="36.9863036927" lon="-2.6107109617">
        <ele>295.26</ele>
        <time>2018-11-10T09:31:24Z</time>
      </trkpt>
      <trkpt lat="36.9863046985" lon="-2.6108674519">
        <ele>295.26</ele>
        <time>2018-11-10T09:31:31Z</time>
      </trkpt>
      <trkpt lat="36.9862459414" lon="-2.6111509278">
        <ele>295.26</ele>
        <time>2018-11-10T09:31:40Z</time>
      </trkpt>
      <trkpt lat="36.9862049539" lon="-2.6113930810">
        <ele>297.18</ele>
        <time>2018-11-10T09:31:48Z</time>
      </trkpt>
      <trkpt lat="36.9861905370" lon="-2.6116996072">
        <ele>298.15</ele>
        <time>2018-11-10T09:31:57Z</time>
      </trkpt>
      <trkpt lat="36.9861961529" lon="-2.6119971648">
        <ele>298.63</ele>
        <time>2018-11-10T09:32:06Z</time>
      </trkpt>
      <trkpt lat="36.9862054568" lon="-2.6122583449">
        <ele>298.63</ele>
        <time>2018-11-10T09:32:14Z</time>
      </trkpt>
      <trkpt lat="36.9862798881" lon="-2.6126242988">
        <ele>299.11</ele>
        <time>2018-11-10T09:32:24Z</time>
      </trkpt>
      <trkpt lat="36.9863904454" lon="-2.6129116304">
        <ele>300.07</ele>
        <time>2018-11-10T09:32:32Z</time>
      </trkpt>
      <trkpt lat="36.9865509588" lon="-2.6132970303">
        <ele>300.07</ele>
        <time>2018-11-10T09:32:42Z</time>
      </trkpt>
      <trkpt lat="36.9866802916" lon="-2.6136087533">
        <ele>300.07</ele>
        <time>2018-11-10T09:32:50Z</time>
      </trkpt>
      <trkpt lat="36.9868474267" lon="-2.6140551735">
        <ele>299.59</ele>
        <time>2018-11-10T09:33:01Z</time>
      </trkpt>
      <trkpt lat="36.9869817048" lon="-2.6145486161">
        <ele>299.59</ele>
        <time>2018-11-10T09:33:12Z</time>
      </trkpt>
      <trkpt lat="36.9870696310" lon="-2.6149397157">
        <ele>299.59</ele>
        <time>2018-11-10T09:33:20Z</time>
      </trkpt>
      <trkpt lat="36.9871029072" lon="-2.6153816096">
        <ele>300.07</ele>
        <time>2018-11-10T09:33:29Z</time>
      </trkpt>
      <trkpt lat="36.9871213473" lon="-2.6157455519">
        <ele>300.55</ele>
        <time>2018-11-10T09:33:37Z</time>
      </trkpt>
      <trkpt lat="36.9870722294" lon="-2.6160191372">
        <ele>301.51</ele>
        <time>2018-11-10T09:33:43Z</time>
      </trkpt>
      <trkpt lat="36.9870506879" lon="-2.6160669979">
        <ele>301.51</ele>
        <time>2018-11-10T09:33:44Z</time>
      </trkpt>
      <trkpt lat="36.9870304037" lon="-2.6161058899">
        <ele>301.51</ele>
        <time>2018-11-10T09:33:45Z</time>
      </trkpt>
      <trkpt lat="36.9867933635" lon="-2.6165126637">
        <ele>301.51</ele>
        <time>2018-11-10T09:33:55Z</time>
      </trkpt>
      <trkpt lat="36.9865536410" lon="-2.6168521307">
        <ele>301.51</ele>
        <time>2018-11-10T09:34:04Z</time>
      </trkpt>
      <trkpt lat="36.9862177782" lon="-2.6173598226">
        <ele>302.47</ele>
        <time>2018-11-10T09:34:17Z</time>
      </trkpt>
      <trkpt lat="36.9860260841" lon="-2.6177592203">
        <ele>302.47</ele>
        <time>2018-11-10T09:34:26Z</time>
      </trkpt>
      <trkpt lat="36.9859382417" lon="-2.6181156188">
        <ele>303.43</ele>
        <time>2018-11-10T09:34:34Z</time>
      </trkpt>
      <trkpt lat="36.9859251659" lon="-2.6183441933">
        <ele>305.36</ele>
        <time>2018-11-10T09:34:41Z</time>
      </trkpt>
      <trkpt lat="36.9859245792" lon="-2.6184599474">
        <ele>306.80</ele>
        <time>2018-11-10T09:34:47Z</time>
      </trkpt>
      <trkpt lat="36.9859291892" lon="-2.6184640545">
        <ele>307.28</ele>
        <time>2018-11-10T09:34:53Z</time>
      </trkpt>
      <trkpt lat="36.9859305304" lon="-2.6184595283">
        <ele>308.24</ele>
        <time>2018-11-10T09:35:07Z</time>
      </trkpt>
      <trkpt lat="36.9859322906" lon="-2.6184593607">
        <ele>308.24</ele>
        <time>2018-11-10T09:35:20Z</time>
      </trkpt>
      <trkpt lat="36.9859235734" lon="-2.6184637193">
        <ele>309.68</ele>
        <time>2018-11-10T09:35:37Z</time>
      </trkpt>
      <trkpt lat="36.9859147724" lon="-2.6184721012">
        <ele>309.68</ele>
        <time>2018-11-10T09:35:59Z</time>
      </trkpt>
      <trkpt lat="36.9859213941" lon="-2.6184920501">
        <ele>310.16</ele>
        <time>2018-11-10T09:36:07Z</time>
      </trkpt>
      <trkpt lat="36.9859247468" lon="-2.6185083110">
        <ele>310.16</ele>
        <time>2018-11-10T09:36:08Z</time>
      </trkpt>
      <trkpt lat="36.9859236572" lon="-2.6185271703">
        <ele>310.16</ele>
        <time>2018-11-10T09:36:09Z</time>
      </trkpt>
      <trkpt lat="36.9859221485" lon="-2.6185492147">
        <ele>310.64</ele>
        <time>2018-11-10T09:36:10Z</time>
      </trkpt>
      <trkpt lat="36.9859228190" lon="-2.6185689121">
        <ele>310.64</ele>
        <time>2018-11-10T09:36:11Z</time>
      </trkpt>
      <trkpt lat="36.9859246630" lon="-2.6185938064">
        <ele>310.64</ele>
        <time>2018-11-10T09:36:12Z</time>
      </trkpt>
      <trkpt lat="36.9859093241" lon="-2.6187843271">
        <ele>311.12</ele>
        <time>2018-11-10T09:36:18Z</time>
      </trkpt>
      <trkpt lat="36.9858487230" lon="-2.6191025879">
        <ele>312.57</ele>
        <time>2018-11-10T09:36:27Z</time>
      </trkpt>
      <trkpt lat="36.9857897982" lon="-2.6194047555">
        <ele>313.05</ele>
        <time>2018-11-10T09:36:36Z</time>
      </trkpt>
      <trkpt lat="36.9857193902" lon="-2.6197084319">
        <ele>313.05</ele>
        <time>2018-11-10T09:36:45Z</time>
      </trkpt>
      <trkpt lat="36.9856896345" lon="-2.6199557818">
        <ele>313.05</ele>
        <time>2018-11-10T09:36:53Z</time>
      </trkpt>
      <trkpt lat="36.9857379142" lon="-2.6202167105">
        <ele>313.05</ele>
        <time>2018-11-10T09:37:00Z</time>
      </trkpt>
      <trkpt lat="36.9859052170" lon="-2.6204367355">
        <ele>312.57</ele>
        <time>2018-11-10T09:37:09Z</time>
      </trkpt>
      <trkpt lat="36.9862622861" lon="-2.6208096463">
        <ele>310.64</ele>
        <time>2018-11-10T09:37:23Z</time>
      </trkpt>
      <trkpt lat="36.9864740130" lon="-2.6211054437">
        <ele>311.12</ele>
        <time>2018-11-10T09:37:32Z</time>
      </trkpt>
      <trkpt lat="36.9865895994" lon="-2.6214826293">
        <ele>311.60</ele>
        <time>2018-11-10T09:37:41Z</time>
      </trkpt>
      <trkpt lat="36.9865705725" lon="-2.6217871439">
        <ele>312.57</ele>
        <time>2018-11-10T09:37:48Z</time>
      </trkpt>
      <trkpt lat="36.9865248073" lon="-2.6221385971">
        <ele>314.01</ele>
        <time>2018-11-10T09:37:57Z</time>
      </trkpt>
      <trkpt lat="36.9864750188" lon="-2.6225748751">
        <ele>314.97</ele>
        <time>2018-11-10T09:38:08Z</time>
      </trkpt>
      <trkpt lat="36.9864328578" lon="-2.6229244005">
        <ele>315.45</ele>
        <time>2018-11-10T09:38:17Z</time>
      </trkpt>
      <trkpt lat="36.9863900263" lon="-2.6233331859">
        <ele>314.97</ele>
        <time>2018-11-10T09:38:28Z</time>
      </trkpt>
      <trkpt lat="36.9863549061" lon="-2.6238068473">
        <ele>314.01</ele>
        <time>2018-11-10T09:38:40Z</time>
      </trkpt>
      <trkpt lat="36.9863072131" lon="-2.6242559496">
        <ele>314.01</ele>
        <time>2018-11-10T09:38:50Z</time>
      </trkpt>
      <trkpt lat="36.9862375595" lon="-2.6247626357">
        <ele>314.01</ele>
        <time>2018-11-10T09:39:01Z</time>
      </trkpt>
      <trkpt lat="36.9861858431" lon="-2.6251608599">
        <ele>314.49</ele>
        <time>2018-11-10T09:39:11Z</time>
      </trkpt>
      <trkpt lat="36.9861396588" lon="-2.6255036797">
        <ele>315.93</ele>
        <time>2018-11-10T09:39:21Z</time>
      </trkpt>
      <trkpt lat="36.9860881101" lon="-2.6258397102">
        <ele>317.37</ele>
        <time>2018-11-10T09:39:31Z</time>
      </trkpt>
      <trkpt lat="36.9860076439" lon="-2.6261345856">
        <ele>317.85</ele>
        <time>2018-11-10T09:39:41Z</time>
      </trkpt>
      <trkpt lat="36.9859419297" lon="-2.6263627410">
        <ele>318.33</ele>
        <time>2018-11-10T09:39:49Z</time>
      </trkpt>
      <trkpt lat="36.9858678337" lon="-2.6266228314">
        <ele>318.81</ele>
        <time>2018-11-10T09:39:57Z</time>
      </trkpt>
      <trkpt lat="36.9857616350" lon="-2.6269671600">
        <ele>319.30</ele>
        <time>2018-11-10T09:40:07Z</time>
      </trkpt>
      <trkpt lat="36.9856645726" lon="-2.6272681542">
        <ele>319.78</ele>
        <time>2018-11-10T09:40:16Z</time>
      </trkpt>
      <trkpt lat="36.9855815079" lon="-2.6275647897">
        <ele>320.74</ele>
        <time>2018-11-10T09:40:25Z</time>
      </trkpt>
      <trkpt lat="36.9855162967" lon="-2.6277603395">
        <ele>322.18</ele>
        <time>2018-11-10T09:40:34Z</time>
      </trkpt>
      <trkpt lat="36.9854500797" lon="-2.6279357728">
        <ele>323.62</ele>
        <time>2018-11-10T09:40:42Z</time>
      </trkpt>
      <trkpt lat="36.9853708707" lon="-2.6280959509">
        <ele>325.06</ele>
        <time>2018-11-10T09:40:50Z</time>
      </trkpt>
      <trkpt lat="36.9852639176" lon="-2.6282801852">
        <ele>326.50</ele>
        <time>2018-11-10T09:41:00Z</time>
      </trkpt>
      <trkpt lat="36.9851800147" lon="-2.6283966098">
        <ele>327.95</ele>
        <time>2018-11-10T09:41:07Z</time>
      </trkpt>
      <trkpt lat="36.9850697927" lon="-2.6285324804">
        <ele>328.43</ele>
        <time>2018-11-10T09:41:16Z</time>
      </trkpt>
      <trkpt lat="36.9849531166" lon="-2.6286500785">
        <ele>329.87</ele>
        <time>2018-11-10T09:41:25Z</time>
      </trkpt>
      <trkpt lat="36.9848727342" lon="-2.6287394296">
        <ele>330.35</ele>
        <time>2018-11-10T09:41:32Z</time>
      </trkpt>
      <trkpt lat="36.9847309124" lon="-2.6288958360">
        <ele>332.27</ele>
        <time>2018-11-10T09:41:43Z</time>
      </trkpt>
      <trkpt lat="36.9845959637" lon="-2.6290395018">
        <ele>333.23</ele>
        <time>2018-11-10T09:41:53Z</time>
      </trkpt>
      <trkpt lat="36.9844639488" lon="-2.6291680802">
        <ele>336.12</ele>
        <time>2018-11-10T09:42:03Z</time>
      </trkpt>
      <trkpt lat="36.9844018389" lon="-2.6292396616">
        <ele>336.60</ele>
        <time>2018-11-10T09:42:09Z</time>
      </trkpt>
      <trkpt lat="36.9843026809" lon="-2.6293634623">
        <ele>337.56</ele>
        <time>2018-11-10T09:42:17Z</time>
      </trkpt>
      <trkpt lat="36.9841782935" lon="-2.6295774523">
        <ele>339.48</ele>
        <time>2018-11-10T09:42:29Z</time>
      </trkpt>
      <trkpt lat="36.9840949774" lon="-2.6297417376">
        <ele>340.92</ele>
        <time>2018-11-10T09:42:38Z</time>
      </trkpt>
      <trkpt lat="36.9840446860" lon="-2.6298362017">
        <ele>342.85</ele>
        <time>2018-11-10T09:42:45Z</time>
      </trkpt>
      <trkpt lat="36.9839529879" lon="-2.6299932785">
        <ele>343.81</ele>
        <time>2018-11-10T09:42:56Z</time>
      </trkpt>
      <trkpt lat="36.9838507287" lon="-2.6301173307">
        <ele>345.25</ele>
        <time>2018-11-10T09:43:06Z</time>
      </trkpt>
      <trkpt lat="36.9837629702" lon="-2.6301988028">
        <ele>346.21</ele>
        <time>2018-11-10T09:43:14Z</time>
      </trkpt>
      <trkpt lat="36.9836153649" lon="-2.6303264592">
        <ele>347.65</ele>
        <time>2018-11-10T09:43:26Z</time>
      </trkpt>
      <trkpt lat="36.9835416880" lon="-2.6303704642">
        <ele>348.62</ele>
        <time>2018-11-10T09:43:33Z</time>
      </trkpt>
      <trkpt lat="36.9834176358" lon="-2.6304626651">
        <ele>349.58</ele>
        <time>2018-11-10T09:43:42Z</time>
      </trkpt>
      <trkpt lat="36.9832285400" lon="-2.6305541955">
        <ele>351.02</ele>
        <time>2018-11-10T09:43:55Z</time>
      </trkpt>
      <trkpt lat="36.9831387699" lon="-2.6306039002">
        <ele>352.46</ele>
        <time>2018-11-10T09:44:02Z</time>
      </trkpt>
      <trkpt lat="36.9829946011" lon="-2.6306931674">
        <ele>353.42</ele>
        <time>2018-11-10T09:44:12Z</time>
      </trkpt>
      <trkpt lat="36.9828883186" lon="-2.6307836082">
        <ele>354.86</ele>
        <time>2018-11-10T09:44:21Z</time>
      </trkpt>
      <trkpt lat="36.9827860594" lon="-2.6309219934">
        <ele>356.79</ele>
        <time>2018-11-10T09:44:32Z</time>
      </trkpt>
      <trkpt lat="36.9827181660" lon="-2.6310448721">
        <ele>358.23</ele>
        <time>2018-11-10T09:44:41Z</time>
      </trkpt>
      <trkpt lat="36.9826831296" lon="-2.6311576087">
        <ele>359.19</ele>
        <time>2018-11-10T09:44:48Z</time>
      </trkpt>
      <trkpt lat="36.9826737419" lon="-2.6311945729">
        <ele>359.67</ele>
        <time>2018-11-10T09:44:55Z</time>
      </trkpt>
      <trkpt lat="36.9826621749" lon="-2.6312315371">
        <ele>361.11</ele>
        <time>2018-11-10T09:45:06Z</time>
      </trkpt>
      <trkpt lat="36.9826573133" lon="-2.6312364824">
        <ele>361.59</ele>
        <time>2018-11-10T09:45:15Z</time>
      </trkpt>
      <trkpt lat="36.9826743286" lon="-2.6312325429">
        <ele>359.67</ele>
        <time>2018-11-10T09:45:37Z</time>
      </trkpt>
      <trkpt lat="36.9826846384" lon="-2.6312553417">
        <ele>360.63</ele>
        <time>2018-11-10T09:45:57Z</time>
      </trkpt>
      <trkpt lat="36.9826447405" lon="-2.6312265079">
        <ele>358.23</ele>
        <time>2018-11-10T09:46:21Z</time>
      </trkpt>
      <trkpt lat="36.9826480094" lon="-2.6312339678">
        <ele>357.75</ele>
        <time>2018-11-10T09:46:37Z</time>
      </trkpt>
      <trkpt lat="36.9826418906" lon="-2.6312548388">
        <ele>357.27</ele>
        <time>2018-11-10T09:46:55Z</time>
      </trkpt>
      <trkpt lat="36.9826360233" lon="-2.6312767994">
        <ele>358.71</ele>
        <time>2018-11-10T09:47:00Z</time>
      </trkpt>
      <trkpt lat="36.9826343469" lon="-2.6312841754">
        <ele>358.71</ele>
        <time>2018-11-10T09:47:01Z</time>
      </trkpt>
      <trkpt lat="36.9826171640" lon="-2.6314034499">
        <ele>361.59</ele>
        <time>2018-11-10T09:47:08Z</time>
      </trkpt>
      <trkpt lat="36.9825652801" lon="-2.6315801404">
        <ele>364.00</ele>
        <time>2018-11-10T09:47:16Z</time>
      </trkpt>
      <trkpt lat="36.9825075287" lon="-2.6317683980">
        <ele>365.44</ele>
        <time>2018-11-10T09:47:24Z</time>
      </trkpt>
      <trkpt lat="36.9824524596" lon="-2.6319554821">
        <ele>366.88</ele>
        <time>2018-11-10T09:47:32Z</time>
      </trkpt>
      <trkpt lat="36.9823646173" lon="-2.6322470885">
        <ele>369.76</ele>
        <time>2018-11-10T09:47:44Z</time>
      </trkpt>
      <trkpt lat="36.9823417347" lon="-2.6325200871">
        <ele>371.21</ele>
        <time>2018-11-10T09:47:55Z</time>
      </trkpt>
      <trkpt lat="36.9823832251" lon="-2.6327291317">
        <ele>373.13</ele>
        <time>2018-11-10T09:48:05Z</time>
      </trkpt>
      <trkpt lat="36.9823930319" lon="-2.6329732966">
        <ele>375.05</ele>
        <time>2018-11-10T09:48:15Z</time>
      </trkpt>
      <trkpt lat="36.9824009947" lon="-2.6329988614">
        <ele>376.01</ele>
        <time>2018-11-10T09:48:21Z</time>
      </trkpt>
      <trkpt lat="36.9824130647" lon="-2.6330116019">
        <ele>376.01</ele>
        <time>2018-11-10T09:48:30Z</time>
      </trkpt>
      <trkpt lat="36.9824155793" lon="-2.6330048125">
        <ele>376.49</ele>
        <time>2018-11-10T09:48:50Z</time>
      </trkpt>
      <trkpt lat="36.9824129809" lon="-2.6330054831">
        <ele>376.01</ele>
        <time>2018-11-10T09:49:05Z</time>
      </trkpt>
      <trkpt lat="36.9824118912" lon="-2.6330162957">
        <ele>374.09</ele>
        <time>2018-11-10T09:49:24Z</time>
      </trkpt>
      <trkpt lat="36.9824035931" lon="-2.6330256835">
        <ele>376.97</ele>
        <time>2018-11-10T09:49:42Z</time>
      </trkpt>
      <trkpt lat="36.9824068621" lon="-2.6330358256">
        <ele>376.01</ele>
        <time>2018-11-10T09:50:00Z</time>
      </trkpt>
      <trkpt lat="36.9824027549" lon="-2.6330053154">
        <ele>375.53</ele>
        <time>2018-11-10T09:50:11Z</time>
      </trkpt>
      <trkpt lat="36.9824128132" lon="-2.6330090035">
        <ele>375.53</ele>
        <time>2018-11-10T09:50:13Z</time>
      </trkpt>
      <trkpt lat="36.9824234582" lon="-2.6330132782">
        <ele>375.53</ele>
        <time>2018-11-10T09:50:14Z</time>
      </trkpt>
      <trkpt lat="36.9825539645" lon="-2.6331002824">
        <ele>376.97</ele>
        <time>2018-11-10T09:50:22Z</time>
      </trkpt>
      <trkpt lat="36.9827563874" lon="-2.6331608836">
        <ele>378.90</ele>
        <time>2018-11-10T09:50:32Z</time>
      </trkpt>
      <trkpt lat="36.9829375204" lon="-2.6330560260">
        <ele>381.78</ele>
        <time>2018-11-10T09:50:41Z</time>
      </trkpt>
      <trkpt lat="36.9830399472" lon="-2.6328846160">
        <ele>383.22</ele>
        <time>2018-11-10T09:50:50Z</time>
      </trkpt>
      <trkpt lat="36.9831225928" lon="-2.6327191573">
        <ele>384.66</ele>
        <time>2018-11-10T09:50:59Z</time>
      </trkpt>
      <trkpt lat="36.9831867144" lon="-2.6326153055">
        <ele>385.63</ele>
        <time>2018-11-10T09:51:06Z</time>
      </trkpt>
      <trkpt lat="36.9832738861" lon="-2.6325172372">
        <ele>387.07</ele>
        <time>2018-11-10T09:51:14Z</time>
      </trkpt>
      <trkpt lat="36.9834079966" lon="-2.6324809436">
        <ele>387.55</ele>
        <time>2018-11-10T09:51:23Z</time>
      </trkpt>
      <trkpt lat="36.9835774787" lon="-2.6325275470">
        <ele>388.51</ele>
        <time>2018-11-10T09:51:34Z</time>
      </trkpt>
      <trkpt lat="36.9835946616" lon="-2.6325350069">
        <ele>388.51</ele>
        <time>2018-11-10T09:51:35Z</time>
      </trkpt>
      <trkpt lat="36.9836092461" lon="-2.6325424667">
        <ele>388.99</ele>
        <time>2018-11-10T09:51:36Z</time>
      </trkpt>
      <trkpt lat="36.9836197235" lon="-2.6325546205">
        <ele>388.99</ele>
        <time>2018-11-10T09:51:37Z</time>
      </trkpt>
      <trkpt lat="36.9836317934" lon="-2.6325650141">
        <ele>388.99</ele>
        <time>2018-11-10T09:51:38Z</time>
      </trkpt>
      <trkpt lat="36.9836467970" lon="-2.6325777546">
        <ele>389.47</ele>
        <time>2018-11-10T09:51:39Z</time>
      </trkpt>
      <trkpt lat="36.9837332983" lon="-2.6326612383">
        <ele>390.91</ele>
        <time>2018-11-10T09:51:46Z</time>
      </trkpt>
      <trkpt lat="36.9837423507" lon="-2.6326801814">
        <ele>390.91</ele>
        <time>2018-11-10T09:51:47Z</time>
      </trkpt>
      <trkpt lat="36.9837488886" lon="-2.6326982863">
        <ele>390.91</ele>
        <time>2018-11-10T09:51:48Z</time>
      </trkpt>
      <trkpt lat="36.9837538339" lon="-2.6327186543">
        <ele>390.91</ele>
        <time>2018-11-10T09:51:49Z</time>
      </trkpt>
      <trkpt lat="36.9837602880" lon="-2.6327378489">
        <ele>390.91</ele>
        <time>2018-11-10T09:51:50Z</time>
      </trkpt>
      <trkpt lat="36.9837674964" lon="-2.6327557862">
        <ele>390.91</ele>
        <time>2018-11-10T09:51:51Z</time>
      </trkpt>
      <trkpt lat="36.9837715197" lon="-2.6329237595">
        <ele>391.87</ele>
        <time>2018-11-10T09:51:59Z</time>
      </trkpt>
      <trkpt lat="36.9837410096" lon="-2.6330772322">
        <ele>392.84</ele>
        <time>2018-11-10T09:52:07Z</time>
      </trkpt>
      <trkpt lat="36.9836540055" lon="-2.6332206465">
        <ele>393.80</ele>
        <time>2018-11-10T09:52:16Z</time>
      </trkpt>
      <trkpt lat="36.9836296141" lon="-2.6332559343">
        <ele>393.80</ele>
        <time>2018-11-10T09:52:18Z</time>
      </trkpt>
      <trkpt lat="36.9836172089" lon="-2.6332680881">
        <ele>393.80</ele>
        <time>2018-11-10T09:52:19Z</time>
      </trkpt>
      <trkpt lat="36.9835126866" lon="-2.6333713531">
        <ele>395.24</ele>
        <time>2018-11-10T09:52:27Z</time>
      </trkpt>
      <trkpt lat="36.9833982736" lon="-2.6334764622">
        <ele>396.68</ele>
        <time>2018-11-10T09:52:36Z</time>
      </trkpt>
      <trkpt lat="36.9832914881" lon="-2.6335718483">
        <ele>398.60</ele>
        <time>2018-11-10T09:52:45Z</time>
      </trkpt>
      <trkpt lat="36.9831766561" lon="-2.6336717606">
        <ele>400.05</ele>
        <time>2018-11-10T09:52:54Z</time>
      </trkpt>
      <trkpt lat="36.9831058290" lon="-2.6337585133">
        <ele>401.01</ele>
        <time>2018-11-10T09:53:01Z</time>
      </trkpt>
      <trkpt lat="36.9830107782" lon="-2.6338610239">
        <ele>402.45</ele>
        <time>2018-11-10T09:53:09Z</time>
      </trkpt>
      <trkpt lat="36.9829108659" lon="-2.6339642052">
        <ele>403.89</ele>
        <time>2018-11-10T09:53:19Z</time>
      </trkpt>
      <trkpt lat="36.9827593211" lon="-2.6341177616">
        <ele>404.85</ele>
        <time>2018-11-10T09:53:30Z</time>
      </trkpt>
      <trkpt lat="36.9826655276" lon="-2.6342513692">
        <ele>406.77</ele>
        <time>2018-11-10T09:53:39Z</time>
      </trkpt>
      <trkpt lat="36.9826280605" lon="-2.6344046742">
        <ele>408.70</ele>
        <time>2018-11-10T09:53:47Z</time>
      </trkpt>
      <trkpt lat="36.9826249592" lon="-2.6346095279">
        <ele>410.14</ele>
        <time>2018-11-10T09:53:56Z</time>
      </trkpt>
      <trkpt lat="36.9826287311" lon="-2.6347180735">
        <ele>411.58</ele>
        <time>2018-11-10T09:54:03Z</time>
      </trkpt>
      <trkpt lat="36.9826299045" lon="-2.6347437222">
        <ele>411.58</ele>
        <time>2018-11-10T09:54:05Z</time>
      </trkpt>
      <trkpt lat="36.9826280605" lon="-2.6347583067">
        <ele>412.06</ele>
        <time>2018-11-10T09:54:06Z</time>
      </trkpt>
      <trkpt lat="36.9826281443" lon="-2.6347738970">
        <ele>412.06</ele>
        <time>2018-11-10T09:54:07Z</time>
      </trkpt>
      <trkpt lat="36.9826284796" lon="-2.6347904932">
        <ele>412.06</ele>
        <time>2018-11-10T09:54:08Z</time>
      </trkpt>
      <trkpt lat="36.9826283120" lon="-2.6348089334">
        <ele>412.06</ele>
        <time>2018-11-10T09:54:09Z</time>
      </trkpt>
      <trkpt lat="36.9826286472" lon="-2.6348282956">
        <ele>412.06</ele>
        <time>2018-11-10T09:54:10Z</time>
      </trkpt>
      <trkpt lat="36.9826343469" lon="-2.6350102667">
        <ele>413.98</ele>
        <time>2018-11-10T09:54:19Z</time>
      </trkpt>
      <trkpt lat="36.9826351851" lon="-2.6352029666">
        <ele>414.47</ele>
        <time>2018-11-10T09:54:28Z</time>
      </trkpt>
      <trkpt lat="36.9826362748" lon="-2.6353905536">
        <ele>414.95</ele>
        <time>2018-11-10T09:54:37Z</time>
      </trkpt>
      <trkpt lat="36.9826509431" lon="-2.6356671564">
        <ele>416.87</ele>
        <time>2018-11-10T09:54:49Z</time>
      </trkpt>
      <trkpt lat="36.9827027433" lon="-2.6358297653">
        <ele>416.87</ele>
        <time>2018-11-10T09:54:57Z</time>
      </trkpt>
      <trkpt lat="36.9828282204" lon="-2.6360081322">
        <ele>417.35</ele>
        <time>2018-11-10T09:55:06Z</time>
      </trkpt>
      <trkpt lat="36.9829551224" lon="-2.6360919513">
        <ele>417.83</ele>
        <time>2018-11-10T09:55:13Z</time>
      </trkpt>
      <trkpt lat="36.9831562880" lon="-2.6361411531">
        <ele>418.79</ele>
        <time>2018-11-10T09:55:23Z</time>
      </trkpt>
      <trkpt lat="36.9833812583" lon="-2.6361834817">
        <ele>419.75</ele>
        <time>2018-11-10T09:55:32Z</time>
      </trkpt>
      <trkpt lat="36.9835856929" lon="-2.6362821367">
        <ele>419.75</ele>
        <time>2018-11-10T09:55:40Z</time>
      </trkpt>
      <trkpt lat="36.9837488886" lon="-2.6364708133">
        <ele>419.75</ele>
        <time>2018-11-10T09:55:48Z</time>
      </trkpt>
      <trkpt lat="36.9838617928" lon="-2.6367064286">
        <ele>419.75</ele>
        <time>2018-11-10T09:55:56Z</time>
      </trkpt>
      <trkpt lat="36.9839845877" lon="-2.6369873900">
        <ele>421.19</ele>
        <time>2018-11-10T09:56:05Z</time>
      </trkpt>
      <trkpt lat="36.9841269962" lon="-2.6372995321">
        <ele>422.64</ele>
        <time>2018-11-10T09:56:16Z</time>
      </trkpt>
      <trkpt lat="36.9842271600" lon="-2.6375258435">
        <ele>424.08</ele>
        <time>2018-11-10T09:56:25Z</time>
      </trkpt>
      <trkpt lat="36.9842870906" lon="-2.6377762947">
        <ele>425.52</ele>
        <time>2018-11-10T09:56:36Z</time>
      </trkpt>
      <trkpt lat="36.9843074586" lon="-2.6379716769">
        <ele>426.96</ele>
        <time>2018-11-10T09:56:45Z</time>
      </trkpt>
      <trkpt lat="36.9842864200" lon="-2.6381725073">
        <ele>429.37</ele>
        <time>2018-11-10T09:56:54Z</time>
      </trkpt>
      <trkpt lat="36.9842634536" lon="-2.6383377146">
        <ele>431.29</ele>
        <time>2018-11-10T09:57:02Z</time>
      </trkpt>
      <trkpt lat="36.9842654653" lon="-2.6385154948">
        <ele>432.73</ele>
        <time>2018-11-10T09:57:11Z</time>
      </trkpt>
      <trkpt lat="36.9842682313" lon="-2.6385329291">
        <ele>432.73</ele>
        <time>2018-11-10T09:57:12Z</time>
      </trkpt>
      <trkpt lat="36.9842678122" lon="-2.6386734936">
        <ele>433.21</ele>
        <time>2018-11-10T09:57:20Z</time>
      </trkpt>
      <trkpt lat="36.9842632860" lon="-2.6386881620">
        <ele>433.21</ele>
        <time>2018-11-10T09:57:21Z</time>
      </trkpt>
      <trkpt lat="36.9842541497" lon="-2.6387005672">
        <ele>433.21</ele>
        <time>2018-11-10T09:57:22Z</time>
      </trkpt>
      <trkpt lat="36.9842471089" lon="-2.6387114637">
        <ele>433.21</ele>
        <time>2018-11-10T09:57:23Z</time>
      </trkpt>
      <trkpt lat="36.9842376374" lon="-2.6387232821">
        <ele>432.73</ele>
        <time>2018-11-10T09:57:30Z</time>
      </trkpt>
      <trkpt lat="36.9842330273" lon="-2.6387154032">
        <ele>432.73</ele>
        <time>2018-11-10T09:57:49Z</time>
      </trkpt>
      <trkpt lat="36.9842399005" lon="-2.6387143973">
        <ele>432.73</ele>
        <time>2018-11-10T09:58:03Z</time>
      </trkpt>
      <trkpt lat="36.9842435047" lon="-2.6387194265">
        <ele>432.25</ele>
        <time>2018-11-10T09:58:18Z</time>
      </trkpt>
      <trkpt lat="36.9842482824" lon="-2.6387306582">
        <ele>432.73</ele>
        <time>2018-11-10T09:58:33Z</time>
      </trkpt>
      <trkpt lat="36.9842381403" lon="-2.6387345139">
        <ele>433.21</ele>
        <time>2018-11-10T09:58:40Z</time>
      </trkpt>
      <trkpt lat="36.9842206221" lon="-2.6387061831">
        <ele>433.21</ele>
        <time>2018-11-10T09:58:45Z</time>
      </trkpt>
      <trkpt lat="36.9842229690" lon="-2.6386837196">
        <ele>433.21</ele>
        <time>2018-11-10T09:58:46Z</time>
      </trkpt>
      <trkpt lat="36.9842342846" lon="-2.6386656985">
        <ele>432.73</ele>
        <time>2018-11-10T09:58:47Z</time>
      </trkpt>
      <trkpt lat="36.9843781181" lon="-2.6385673787">
        <ele>431.77</ele>
        <time>2018-11-10T09:58:56Z</time>
      </trkpt>
      <trkpt lat="36.9845697284" lon="-2.6385582425">
        <ele>430.81</ele>
        <time>2018-11-10T09:59:04Z</time>
      </trkpt>
      <trkpt lat="36.9847113825" lon="-2.6387015730">
        <ele>429.85</ele>
        <time>2018-11-10T09:59:09Z</time>
      </trkpt>
      <trkpt lat="36.9848439004" lon="-2.6389964484">
        <ele>429.85</ele>
        <time>2018-11-10T09:59:17Z</time>
      </trkpt>
      <trkpt lat="36.9849269651" lon="-2.6391580515">
        <ele>429.37</ele>
        <time>2018-11-10T09:59:23Z</time>
      </trkpt>
      <trkpt lat="36.9850178249" lon="-2.6392047387">
        <ele>428.89</ele>
        <time>2018-11-10T09:59:30Z</time>
      </trkpt>
      <trkpt lat="36.9850640092" lon="-2.6392121986">
        <ele>427.92</ele>
        <time>2018-11-10T09:59:36Z</time>
      </trkpt>
      <trkpt lat="36.9850723911" lon="-2.6392150484">
        <ele>427.92</ele>
        <time>2018-11-10T09:59:37Z</time>
      </trkpt>
      <trkpt lat="36.9850821141" lon="-2.6392244361">
        <ele>427.92</ele>
        <time>2018-11-10T09:59:38Z</time>
      </trkpt>
      <trkpt lat="36.9850888196" lon="-2.6392462291">
        <ele>427.44</ele>
        <time>2018-11-10T09:59:39Z</time>
      </trkpt>
      <trkpt lat="36.9850844610" lon="-2.6392771583">
        <ele>427.44</ele>
        <time>2018-11-10T09:59:40Z</time>
      </trkpt>
      <trkpt lat="36.9850739837" lon="-2.6392949279">
        <ele>427.44</ele>
        <time>2018-11-10T09:59:41Z</time>
      </trkpt>
      <trkpt lat="36.9850577228" lon="-2.6393136196">
        <ele>427.92</ele>
        <time>2018-11-10T09:59:42Z</time>
      </trkpt>
      <trkpt lat="36.9850459881" lon="-2.6393270306">
        <ele>427.92</ele>
        <time>2018-11-10T09:59:43Z</time>
      </trkpt>
      <trkpt lat="36.9850343373" lon="-2.6393330656">
        <ele>427.92</ele>
        <time>2018-11-10T09:59:50Z</time>
      </trkpt>
      <trkpt lat="36.9850314874" lon="-2.6393460575">
        <ele>427.92</ele>
        <time>2018-11-10T10:00:04Z</time>
      </trkpt>
      <trkpt lat="36.9850504305" lon="-2.6393368375">
        <ele>428.40</ele>
        <time>2018-11-10T10:00:19Z</time>
      </trkpt>
      <trkpt lat="36.9850519393" lon="-2.6393318921">
        <ele>428.40</ele>
        <time>2018-11-10T10:00:29Z</time>
      </trkpt>
      <trkpt lat="36.9850677811" lon="-2.6393254381">
        <ele>428.40</ele>
        <time>2018-11-10T10:00:37Z</time>
      </trkpt>
      <trkpt lat="36.9850770850" lon="-2.6393203251">
        <ele>428.40</ele>
        <time>2018-11-10T10:00:38Z</time>
      </trkpt>
      <trkpt lat="36.9850865565" lon="-2.6393067464">
        <ele>427.92</ele>
        <time>2018-11-10T10:00:39Z</time>
      </trkpt>
      <trkpt lat="36.9850920886" lon="-2.6392919105">
        <ele>427.92</ele>
        <time>2018-11-10T10:00:40Z</time>
      </trkpt>
      <trkpt lat="36.9850955252" lon="-2.6392805111">
        <ele>427.92</ele>
        <time>2018-11-10T10:00:41Z</time>
      </trkpt>
      <trkpt lat="36.9851222634" lon="-2.6392407808">
        <ele>426.96</ele>
        <time>2018-11-10T10:00:45Z</time>
      </trkpt>
      <trkpt lat="36.9852286298" lon="-2.6391849574">
        <ele>426.48</ele>
        <time>2018-11-10T10:00:53Z</time>
      </trkpt>
      <trkpt lat="36.9854080025" lon="-2.6390906610">
        <ele>424.56</ele>
        <time>2018-11-10T10:01:00Z</time>
      </trkpt>
      <trkpt lat="36.9857129361" lon="-2.6389691234">
        <ele>423.60</ele>
        <time>2018-11-10T10:01:10Z</time>
      </trkpt>
      <trkpt lat="36.9859964121" lon="-2.6388760004">
        <ele>422.16</ele>
        <time>2018-11-10T10:01:18Z</time>
      </trkpt>
      <trkpt lat="36.9861716777" lon="-2.6389417145">
        <ele>420.23</ele>
        <time>2018-11-10T10:01:23Z</time>
      </trkpt>
      <trkpt lat="36.9863160141" lon="-2.6390178222">
        <ele>419.27</ele>
        <time>2018-11-10T10:01:28Z</time>
      </trkpt>
      <trkpt lat="36.9865462650" lon="-2.6389877312">
        <ele>418.79</ele>
        <time>2018-11-10T10:01:36Z</time>
      </trkpt>
      <trkpt lat="36.9867250510" lon="-2.6390300598">
        <ele>419.75</ele>
        <time>2018-11-10T10:01:42Z</time>
      </trkpt>
      <trkpt lat="36.9869125541" lon="-2.6392270345">
        <ele>419.75</ele>
        <time>2018-11-10T10:01:49Z</time>
      </trkpt>
      <trkpt lat="36.9870396238" lon="-2.6393057406">
        <ele>421.19</ele>
        <time>2018-11-10T10:01:54Z</time>
      </trkpt>
      <trkpt lat="36.9872009754" lon="-2.6394496579">
        <ele>421.68</ele>
        <time>2018-11-10T10:02:03Z</time>
      </trkpt>
      <trkpt lat="36.9873016421" lon="-2.6395528391">
        <ele>423.12</ele>
        <time>2018-11-10T10:02:11Z</time>
      </trkpt>
      <trkpt lat="36.9874035660" lon="-2.6396850217">
        <ele>424.56</ele>
        <time>2018-11-10T10:02:19Z</time>
      </trkpt>
      <trkpt lat="36.9874841999" lon="-2.6397985965">
        <ele>426.48</ele>
        <time>2018-11-10T10:02:26Z</time>
      </trkpt>
      <trkpt lat="36.9875668455" lon="-2.6399092376">
        <ele>427.44</ele>
        <time>2018-11-10T10:02:33Z</time>
      </trkpt>
      <trkpt lat="36.9876500778" lon="-2.6400747802">
        <ele>429.85</ele>
        <time>2018-11-10T10:02:41Z</time>
      </trkpt>
      <trkpt lat="36.9877138641" lon="-2.6402057055">
        <ele>430.81</ele>
        <time>2018-11-10T10:02:48Z</time>
      </trkpt>
      <trkpt lat="36.9877926540" lon="-2.6404082961">
        <ele>431.29</ele>
        <time>2018-11-10T10:02:57Z</time>
      </trkpt>
      <trkpt lat="36.9878842682" lon="-2.6407315023">
        <ele>432.25</ele>
        <time>2018-11-10T10:03:10Z</time>
      </trkpt>
      <trkpt lat="36.9879427738" lon="-2.6409355178">
        <ele>433.69</ele>
        <time>2018-11-10T10:03:18Z</time>
      </trkpt>
      <trkpt lat="36.9880032912" lon="-2.6411542017">
        <ele>434.17</ele>
        <time>2018-11-10T10:03:26Z</time>
      </trkpt>
      <trkpt lat="36.9880970847" lon="-2.6414835267">
        <ele>435.61</ele>
        <time>2018-11-10T10:03:36Z</time>
      </trkpt>
      <trkpt lat="36.9881893694" lon="-2.6418456249">
        <ele>437.06</ele>
        <time>2018-11-10T10:03:46Z</time>
      </trkpt>
      <trkpt lat="36.9882622082" lon="-2.6421418414">
        <ele>437.06</ele>
        <time>2018-11-10T10:03:54Z</time>
      </trkpt>
      <trkpt lat="36.9883464463" lon="-2.6425098907">
        <ele>438.02</ele>
        <time>2018-11-10T10:04:04Z</time>
      </trkpt>
      <trkpt lat="36.9883973245" lon="-2.6429058518">
        <ele>437.54</ele>
        <time>2018-11-10T10:04:14Z</time>
      </trkpt>
      <trkpt lat="36.9884583447" lon="-2.6433904935">
        <ele>437.06</ele>
        <time>2018-11-10T10:04:26Z</time>
      </trkpt>
      <trkpt lat="36.9885180239" lon="-2.6437599678">
        <ele>437.54</ele>
        <time>2018-11-10T10:04:35Z</time>
      </trkpt>
      <trkpt lat="36.9886120688" lon="-2.6442280971">
        <ele>439.94</ele>
        <time>2018-11-10T10:04:46Z</time>
      </trkpt>
      <trkpt lat="36.9886998273" lon="-2.6444676518">
        <ele>439.94</ele>
        <time>2018-11-10T10:04:54Z</time>
      </trkpt>
      <trkpt lat="36.9888731651" lon="-2.6447825599">
        <ele>438.50</ele>
        <time>2018-11-10T10:05:02Z</time>
      </trkpt>
      <trkpt lat="36.9890946150" lon="-2.6452228613">
        <ele>437.06</ele>
        <time>2018-11-10T10:05:09Z</time>
      </trkpt>
      <trkpt lat="36.9893849641" lon="-2.6457861252">
        <ele>433.21</ele>
        <time>2018-11-10T10:05:16Z</time>
      </trkpt>
      <trkpt lat="36.9897597190" lon="-2.6465024427">
        <ele>428.89</ele>
        <time>2018-11-10T10:05:23Z</time>
      </trkpt>
      <trkpt lat="36.9903774653" lon="-2.6477158908">
        <ele>420.71</ele>
        <time>2018-11-10T10:05:33Z</time>
      </trkpt>
      <trkpt lat="36.9910370372" lon="-2.6490019262">
        <ele>415.91</ele>
        <time>2018-11-10T10:05:43Z</time>
      </trkpt>
      <trkpt lat="36.9913345110" lon="-2.6496175770">
        <ele>416.87</ele>
        <time>2018-11-10T10:05:49Z</time>
      </trkpt>
      <trkpt lat="36.9915102795" lon="-2.6501182280">
        <ele>417.83</ele>
        <time>2018-11-10T10:05:55Z</time>
      </trkpt>
      <trkpt lat="36.9916335773" lon="-2.6507524028">
        <ele>419.27</ele>
        <time>2018-11-10T10:06:03Z</time>
      </trkpt>
      <trkpt lat="36.9916723855" lon="-2.6513812970">
        <ele>419.75</ele>
        <time>2018-11-10T10:06:11Z</time>
      </trkpt>
      <trkpt lat="36.9916531071" lon="-2.6522142906">
        <ele>421.68</ele>
        <time>2018-11-10T10:06:22Z</time>
      </trkpt>
      <trkpt lat="36.9916300569" lon="-2.6528117526">
        <ele>422.64</ele>
        <time>2018-11-10T10:06:31Z</time>
      </trkpt>
      <trkpt lat="36.9916188251" lon="-2.6533920318">
        <ele>423.60</ele>
        <time>2018-11-10T10:06:41Z</time>
      </trkpt>
      <trkpt lat="36.9916096050" lon="-2.6539024897">
        <ele>424.56</ele>
        <time>2018-11-10T10:06:51Z</time>
      </trkpt>
      <trkpt lat="36.9916070905" lon="-2.6543109398">
        <ele>426.00</ele>
        <time>2018-11-10T10:07:00Z</time>
      </trkpt>
      <trkpt lat="36.9916503411" lon="-2.6546789892">
        <ele>425.04</ele>
        <time>2018-11-10T10:07:08Z</time>
      </trkpt>
      <trkpt lat="36.9917479064" lon="-2.6551100705">
        <ele>424.56</ele>
        <time>2018-11-10T10:07:16Z</time>
      </trkpt>
      <trkpt lat="36.9919294585" lon="-2.6555096358">
        <ele>425.04</ele>
        <time>2018-11-10T10:07:25Z</time>
      </trkpt>
      <trkpt lat="36.9921787363" lon="-2.6558435708">
        <ele>423.60</ele>
        <time>2018-11-10T10:07:33Z</time>
      </trkpt>
      <trkpt lat="36.9924790598" lon="-2.6561148092">
        <ele>421.68</ele>
        <time>2018-11-10T10:07:39Z</time>
      </trkpt>
      <trkpt lat="36.9929419085" lon="-2.6564380154">
        <ele>418.31</ele>
        <time>2018-11-10T10:07:46Z</time>
      </trkpt>
      <trkpt lat="36.9935292285" lon="-2.6568313781">
        <ele>413.50</ele>
        <time>2018-11-10T10:07:53Z</time>
      </trkpt>
      <trkpt lat="36.9943111762" lon="-2.6573565882">
        <ele>407.26</ele>
        <time>2018-11-10T10:08:01Z</time>
      </trkpt>
      <trkpt lat="36.9952590857" lon="-2.6580739114">
        <ele>398.60</ele>
        <time>2018-11-10T10:08:10Z</time>
      </trkpt>
      <trkpt lat="36.9956110418" lon="-2.6585559547">
        <ele>395.24</ele>
        <time>2018-11-10T10:08:14Z</time>
      </trkpt>
      <trkpt lat="36.9956762530" lon="-2.6586919930">
        <ele>394.76</ele>
        <time>2018-11-10T10:08:15Z</time>
      </trkpt>
      <trkpt lat="36.9957324117" lon="-2.6588323060">
        <ele>393.80</ele>
        <time>2018-11-10T10:08:16Z</time>
      </trkpt>
      <trkpt lat="36.9957790989" lon="-2.6589694340">
        <ele>393.80</ele>
        <time>2018-11-10T10:08:17Z</time>
      </trkpt>
      <trkpt lat="36.9958246127" lon="-2.6591270138">
        <ele>393.32</ele>
        <time>2018-11-10T10:08:18Z</time>
      </trkpt>
      <trkpt lat="36.9958572183" lon="-2.6592718530">
        <ele>392.84</ele>
        <time>2018-11-10T10:08:19Z</time>
      </trkpt>
      <trkpt lat="36.9958796818" lon="-2.6594121661">
        <ele>392.84</ele>
        <time>2018-11-10T10:08:20Z</time>
      </trkpt>
      <trkpt lat="36.9958946854" lon="-2.6595730986">
        <ele>392.84</ele>
        <time>2018-11-10T10:08:21Z</time>
      </trkpt>
      <trkpt lat="36.9958960265" lon="-2.6597136632">
        <ele>392.84</ele>
        <time>2018-11-10T10:08:22Z</time>
      </trkpt>
      <trkpt lat="36.9958928414" lon="-2.6598497853">
        <ele>392.84</ele>
        <time>2018-11-10T10:08:23Z</time>
      </trkpt>
      <trkpt lat="36.9958304800" lon="-2.6603186689">
        <ele>393.32</ele>
        <time>2018-11-10T10:08:27Z</time>
      </trkpt>
      <trkpt lat="36.9956561364" lon="-2.6608334016">
        <ele>394.28</ele>
        <time>2018-11-10T10:08:33Z</time>
      </trkpt>
      <trkpt lat="36.9956197590" lon="-2.6609111857">
        <ele>394.28</ele>
        <time>2018-11-10T10:08:34Z</time>
      </trkpt>
      <trkpt lat="36.9954293221" lon="-2.6613098290">
        <ele>394.76</ele>
        <time>2018-11-10T10:08:41Z</time>
      </trkpt>
      <trkpt lat="36.9951805472" lon="-2.6618596818">
        <ele>395.72</ele>
        <time>2018-11-10T10:08:52Z</time>
      </trkpt>
      <trkpt lat="36.9950005878" lon="-2.6622940321">
        <ele>397.16</ele>
        <time>2018-11-10T10:09:01Z</time>
      </trkpt>
      <trkpt lat="36.9948385656" lon="-2.6627555396">
        <ele>398.12</ele>
        <time>2018-11-10T10:09:11Z</time>
      </trkpt>
      <trkpt lat="36.9947809819" lon="-2.6629480720">
        <ele>398.60</ele>
        <time>2018-11-10T10:09:15Z</time>
      </trkpt>
      <trkpt lat="36.9946722686" lon="-2.6634600386">
        <ele>400.05</ele>
        <time>2018-11-10T10:09:25Z</time>
      </trkpt>
      <trkpt lat="36.9946248271" lon="-2.6639648806">
        <ele>401.01</ele>
        <time>2018-11-10T10:09:35Z</time>
      </trkpt>
      <trkpt lat="36.9946128409" lon="-2.6643858198">
        <ele>401.97</ele>
        <time>2018-11-10T10:09:44Z</time>
      </trkpt>
      <trkpt lat="36.9946229830" lon="-2.6646650210">
        <ele>401.49</ele>
        <time>2018-11-10T10:09:51Z</time>
      </trkpt>
      <trkpt lat="36.9946715143" lon="-2.6651365031">
        <ele>401.49</ele>
        <time>2018-11-10T10:10:02Z</time>
      </trkpt>
      <trkpt lat="36.9947445206" lon="-2.6655298658">
        <ele>401.01</ele>
        <time>2018-11-10T10:10:10Z</time>
      </trkpt>
      <trkpt lat="36.9948342908" lon="-2.6658782177">
        <ele>400.05</ele>
        <time>2018-11-10T10:10:17Z</time>
      </trkpt>
      <trkpt lat="36.9948424213" lon="-2.6658959035">
        <ele>400.05</ele>
        <time>2018-11-10T10:10:18Z</time>
      </trkpt>
      <trkpt lat="36.9948560838" lon="-2.6658984181">
        <ele>399.57</ele>
        <time>2018-11-10T10:10:24Z</time>
      </trkpt>
      <trkpt lat="36.9948540721" lon="-2.6658933051">
        <ele>399.57</ele>
        <time>2018-11-10T10:10:30Z</time>
      </trkpt>
      <trkpt lat="36.9948565029" lon="-2.6658910420">
        <ele>399.57</ele>
        <time>2018-11-10T10:10:37Z</time>
      </trkpt>
      <trkpt lat="36.9948607776" lon="-2.6658928022">
        <ele>399.08</ele>
        <time>2018-11-10T10:10:49Z</time>
      </trkpt>
      <trkpt lat="36.9948604424" lon="-2.6658948138">
        <ele>399.08</ele>
        <time>2018-11-10T10:11:03Z</time>
      </trkpt>
      <trkpt lat="36.9948627055" lon="-2.6658759546">
        <ele>401.01</ele>
        <time>2018-11-10T10:11:26Z</time>
      </trkpt>
      <trkpt lat="36.9948605262" lon="-2.6658772957">
        <ele>400.53</ele>
        <time>2018-11-10T10:11:43Z</time>
      </trkpt>
      <trkpt lat="36.9948629569" lon="-2.6658832468">
        <ele>400.05</ele>
        <time>2018-11-10T10:11:58Z</time>
      </trkpt>
      <trkpt lat="36.9948550779" lon="-2.6658840850">
        <ele>401.01</ele>
        <time>2018-11-10T10:12:16Z</time>
      </trkpt>
      <trkpt lat="36.9948487915" lon="-2.6658881921">
        <ele>401.49</ele>
        <time>2018-11-10T10:12:33Z</time>
      </trkpt>
      <trkpt lat="36.9948508870" lon="-2.6658886950">
        <ele>400.53</ele>
        <time>2018-11-10T10:12:47Z</time>
      </trkpt>
      <trkpt lat="36.9948505517" lon="-2.6658927184">
        <ele>399.57</ele>
        <time>2018-11-10T10:13:07Z</time>
      </trkpt>
      <trkpt lat="36.9948407449" lon="-2.6658949815">
        <ele>400.05</ele>
        <time>2018-11-10T10:13:27Z</time>
      </trkpt>
      <trkpt lat="36.9948325306" lon="-2.6658996753">
        <ele>399.57</ele>
        <time>2018-11-10T10:13:45Z</time>
      </trkpt>
      <trkpt lat="36.9948355481" lon="-2.6659029443">
        <ele>400.05</ele>
        <time>2018-11-10T10:14:00Z</time>
      </trkpt>
      <trkpt lat="36.9948477019" lon="-2.6658950653">
        <ele>400.05</ele>
        <time>2018-11-10T10:14:14Z</time>
      </trkpt>
      <trkpt lat="36.9948523957" lon="-2.6659010164">
        <ele>399.08</ele>
        <time>2018-11-10T10:14:31Z</time>
      </trkpt>
      <trkpt lat="36.9948559161" lon="-2.6659044530">
        <ele>399.08</ele>
        <time>2018-11-10T10:14:51Z</time>
      </trkpt>
      <trkpt lat="36.9948610291" lon="-2.6659020223">
        <ele>399.57</ele>
        <time>2018-11-10T10:15:12Z</time>
      </trkpt>
      <trkpt lat="36.9948667288" lon="-2.6658968255">
        <ele>400.05</ele>
        <time>2018-11-10T10:15:29Z</time>
      </trkpt>
      <trkpt lat="36.9948537368" lon="-2.6658947300">
        <ele>401.01</ele>
        <time>2018-11-10T10:15:47Z</time>
      </trkpt>
      <trkpt lat="36.9948550779" lon="-2.6658933051">
        <ele>402.45</ele>
        <time>2018-11-10T10:16:06Z</time>
      </trkpt>
      <trkpt lat="36.9948536530" lon="-2.6658913773">
        <ele>401.01</ele>
        <time>2018-11-10T10:16:23Z</time>
      </trkpt>
      <trkpt lat="36.9948577601" lon="-2.6658928022">
        <ele>400.05</ele>
        <time>2018-11-10T10:16:42Z</time>
      </trkpt>
      <trkpt lat="36.9948540721" lon="-2.6658957358">
        <ele>400.05</ele>
        <time>2018-11-10T10:16:57Z</time>
      </trkpt>
      <trkpt lat="36.9948502164" lon="-2.6659009326">
        <ele>400.53</ele>
        <time>2018-11-10T10:17:15Z</time>
      </trkpt>
      <trkpt lat="36.9948585145" lon="-2.6658907905">
        <ele>400.53</ele>
        <time>2018-11-10T10:17:32Z</time>
      </trkpt>
      <trkpt lat="36.9948630407" lon="-2.6658874378">
        <ele>398.60</ele>
        <time>2018-11-10T10:17:52Z</time>
      </trkpt>
      <trkpt lat="36.9948663097" lon="-2.6658939756">
        <ele>397.64</ele>
        <time>2018-11-10T10:18:10Z</time>
      </trkpt>
      <trkpt lat="36.9948669802" lon="-2.6658976637">
        <ele>398.60</ele>
        <time>2018-11-10T10:18:27Z</time>
      </trkpt>
      <trkpt lat="36.9948610291" lon="-2.6658934727">
        <ele>399.57</ele>
        <time>2018-11-10T10:18:47Z</time>
      </trkpt>
      <trkpt lat="36.9948599394" lon="-2.6658976637">
        <ele>400.53</ele>
        <time>2018-11-10T10:19:06Z</time>
      </trkpt>
      <trkpt lat="36.9948607776" lon="-2.6658989210">
        <ele>400.53</ele>
        <time>2018-11-10T10:19:21Z</time>
      </trkpt>
      <trkpt lat="36.9948578440" lon="-2.6658954006">
        <ele>401.49</ele>
        <time>2018-11-10T10:19:38Z</time>
      </trkpt>
      <trkpt lat="36.9948434271" lon="-2.6658915449">
        <ele>399.57</ele>
        <time>2018-11-10T10:19:56Z</time>
      </trkpt>
      <trkpt lat="36.9948409125" lon="-2.6659032796">
        <ele>399.08</ele>
        <time>2018-11-10T10:20:14Z</time>
      </trkpt>
      <trkpt lat="36.9948457740" lon="-2.6659332030">
        <ele>398.60</ele>
        <time>2018-11-10T10:20:19Z</time>
      </trkpt>
      <trkpt lat="36.9948882703" lon="-2.6661040261">
        <ele>398.12</ele>
        <time>2018-11-10T10:20:25Z</time>
      </trkpt>
      <trkpt lat="36.9950218778" lon="-2.6664367877">
        <ele>397.64</ele>
        <time>2018-11-10T10:20:31Z</time>
      </trkpt>
      <trkpt lat="36.9953205250" lon="-2.6670125406">
        <ele>393.80</ele>
        <time>2018-11-10T10:20:39Z</time>
      </trkpt>
      <trkpt lat="36.9957297295" lon="-2.6675925683">
        <ele>392.84</ele>
        <time>2018-11-10T10:20:47Z</time>
      </trkpt>
      <trkpt lat="36.9961865433" lon="-2.6681306865">
        <ele>392.36</ele>
        <time>2018-11-10T10:20:56Z</time>
      </trkpt>
      <trkpt lat="36.9965912215" lon="-2.6685935352">
        <ele>392.36</ele>
        <time>2018-11-10T10:21:05Z</time>
      </trkpt>
      <trkpt lat="36.9970002584" lon="-2.6690635923">
        <ele>393.32</ele>
        <time>2018-11-10T10:21:14Z</time>
      </trkpt>
      <trkpt lat="36.9972309284" lon="-2.6693633292">
        <ele>393.32</ele>
        <time>2018-11-10T10:21:21Z</time>
      </trkpt>
      <trkpt lat="36.9974294957" lon="-2.6697796583">
        <ele>393.32</ele>
        <time>2018-11-10T10:21:30Z</time>
      </trkpt>
      <trkpt lat="36.9975152425" lon="-2.6702502184">
        <ele>393.80</ele>
        <time>2018-11-10T10:21:39Z</time>
      </trkpt>
      <trkpt lat="36.9974801224" lon="-2.6707937848">
        <ele>394.76</ele>
        <time>2018-11-10T10:21:49Z</time>
      </trkpt>
      <trkpt lat="36.9972997438" lon="-2.6712781750">
        <ele>395.24</ele>
        <time>2018-11-10T10:21:58Z</time>
      </trkpt>
      <trkpt lat="36.9969513081" lon="-2.6717529260">
        <ele>392.84</ele>
        <time>2018-11-10T10:22:08Z</time>
      </trkpt>
      <trkpt lat="36.9965616334" lon="-2.6721982565">
        <ele>390.91</ele>
        <time>2018-11-10T10:22:16Z</time>
      </trkpt>
      <trkpt lat="36.9960032310" lon="-2.6728721615">
        <ele>388.99</ele>
        <time>2018-11-10T10:22:26Z</time>
      </trkpt>
      <trkpt lat="36.9956473354" lon="-2.6734100282">
        <ele>388.99</ele>
        <time>2018-11-10T10:22:34Z</time>
      </trkpt>
      <trkpt lat="36.9954071101" lon="-2.6738639921">
        <ele>388.99</ele>
        <time>2018-11-10T10:22:42Z</time>
      </trkpt>
      <trkpt lat="36.9951766916" lon="-2.6744662318">
        <ele>389.47</ele>
        <time>2018-11-10T10:22:53Z</time>
      </trkpt>
      <trkpt lat="36.9950295053" lon="-2.6751945354">
        <ele>389.47</ele>
        <time>2018-11-10T10:23:06Z</time>
      </trkpt>
      <trkpt lat="36.9950156752" lon="-2.6758787502">
        <ele>388.99</ele>
        <time>2018-11-10T10:23:18Z</time>
      </trkpt>
      <trkpt lat="36.9950844906" lon="-2.6763897948">
        <ele>389.95</ele>
        <time>2018-11-10T10:23:28Z</time>
      </trkpt>
      <trkpt lat="36.9951722492" lon="-2.6768324431">
        <ele>391.87</ele>
        <time>2018-11-10T10:23:37Z</time>
      </trkpt>
      <trkpt lat="36.9953066949" lon="-2.6773462538">
        <ele>394.28</ele>
        <time>2018-11-10T10:23:48Z</time>
      </trkpt>
      <trkpt lat="36.9954326749" lon="-2.6777137164">
        <ele>395.24</ele>
        <time>2018-11-10T10:23:56Z</time>
      </trkpt>
      <trkpt lat="36.9956374448" lon="-2.6780650858">
        <ele>397.16</ele>
        <time>2018-11-10T10:24:05Z</time>
      </trkpt>
      <trkpt lat="36.9958910812" lon="-2.6783867832">
        <ele>399.08</ele>
        <time>2018-11-10T10:24:15Z</time>
      </trkpt>
      <trkpt lat="36.9961132016" lon="-2.6786757074">
        <ele>400.05</ele>
        <time>2018-11-10T10:24:24Z</time>
      </trkpt>
      <trkpt lat="36.9963362440" lon="-2.6790388115">
        <ele>400.53</ele>
        <time>2018-11-10T10:24:34Z</time>
      </trkpt>
      <trkpt lat="36.9964663312" lon="-2.6794061903">
        <ele>401.01</ele>
        <time>2018-11-10T10:24:43Z</time>
      </trkpt>
      <trkpt lat="36.9965266809" lon="-2.6798141375">
        <ele>401.01</ele>
        <time>2018-11-10T10:24:52Z</time>
      </trkpt>
      <trkpt lat="36.9965107553" lon="-2.6802562829">
        <ele>401.01</ele>
        <time>2018-11-10T10:25:01Z</time>
      </trkpt>
      <trkpt lat="36.9964005332" lon="-2.6808427647">
        <ele>401.97</ele>
        <time>2018-11-10T10:25:13Z</time>
      </trkpt>
      <trkpt lat="36.9962385949" lon="-2.6813796256">
        <ele>402.45</ele>
        <time>2018-11-10T10:25:24Z</time>
      </trkpt>
      <trkpt lat="36.9961495791" lon="-2.6816783566">
        <ele>402.93</ele>
        <time>2018-11-10T10:25:31Z</time>
      </trkpt>
      <trkpt lat="36.9960517623" lon="-2.6820022333">
        <ele>402.93</ele>
        <time>2018-11-10T10:25:41Z</time>
      </trkpt>
      <trkpt lat="36.9959358405" lon="-2.6821339969">
        <ele>402.93</ele>
        <time>2018-11-10T10:25:48Z</time>
      </trkpt>
      <trkpt lat="36.9959210046" lon="-2.6821508445">
        <ele>402.93</ele>
        <time>2018-11-10T10:25:49Z</time>
      </trkpt>
      <trkpt lat="36.9959024806" lon="-2.6821571309">
        <ele>402.93</ele>
        <time>2018-11-10T10:25:50Z</time>
      </trkpt>
      <trkpt lat="36.9958825316" lon="-2.6821495872">
        <ele>402.93</ele>
        <time>2018-11-10T10:25:51Z</time>
      </trkpt>
      <trkpt lat="36.9958689529" lon="-2.6821356732">
        <ele>402.93</ele>
        <time>2018-11-10T10:25:52Z</time>
      </trkpt>
      <trkpt lat="36.9958681986" lon="-2.6821148861">
        <ele>402.93</ele>
        <time>2018-11-10T10:25:53Z</time>
      </trkpt>
      <trkpt lat="36.9958728924" lon="-2.6820955239">
        <ele>402.93</ele>
        <time>2018-11-10T10:25:54Z</time>
      </trkpt>
      <trkpt lat="36.9958822802" lon="-2.6820762455">
        <ele>402.93</ele>
        <time>2018-11-10T10:25:55Z</time>
      </trkpt>
      <trkpt lat="36.9958901592" lon="-2.6820619125">
        <ele>403.41</ele>
        <time>2018-11-10T10:25:56Z</time>
      </trkpt>
      <trkpt lat="36.9958924223" lon="-2.6820566319">
        <ele>405.33</ele>
        <time>2018-11-10T10:26:02Z</time>
      </trkpt>
      <trkpt lat="36.9958860520" lon="-2.6820485014">
        <ele>411.10</ele>
        <time>2018-11-10T10:26:24Z</time>
      </trkpt>
      <trkpt lat="36.9959178194" lon="-2.6820326596">
        <ele>409.18</ele>
        <time>2018-11-10T10:26:48Z</time>
      </trkpt>
      <trkpt lat="36.9958977029" lon="-2.6820551232">
        <ele>407.74</ele>
        <time>2018-11-10T10:27:07Z</time>
      </trkpt>
      <trkpt lat="36.9958992954" lon="-2.6820586435">
        <ele>408.22</ele>
        <time>2018-11-10T10:27:14Z</time>
      </trkpt>
      <trkpt lat="36.9958998822" lon="-2.6820606552">
        <ele>408.22</ele>
        <time>2018-11-10T10:27:17Z</time>
      </trkpt>
      <trkpt lat="36.9958957750" lon="-2.6820790116">
        <ele>408.22</ele>
        <time>2018-11-10T10:27:18Z</time>
      </trkpt>
      <trkpt lat="36.9958816934" lon="-2.6822106913">
        <ele>406.29</ele>
        <time>2018-11-10T10:27:26Z</time>
      </trkpt>
      <trkpt lat="36.9958877284" lon="-2.6822215877">
        <ele>406.77</ele>
        <time>2018-11-10T10:27:27Z</time>
      </trkpt>
      <trkpt lat="36.9958949368" lon="-2.6822405308">
        <ele>406.77</ele>
        <time>2018-11-10T10:27:28Z</time>
      </trkpt>
      <trkpt lat="36.9958960265" lon="-2.6824793313">
        <ele>406.29</ele>
        <time>2018-11-10T10:27:34Z</time>
      </trkpt>
      <trkpt lat="36.9957199227" lon="-2.6829804014">
        <ele>406.29</ele>
        <time>2018-11-10T10:27:44Z</time>
      </trkpt>
      <trkpt lat="36.9955585711" lon="-2.6833585091">
        <ele>405.81</ele>
        <time>2018-11-10T10:27:52Z</time>
      </trkpt>
      <trkpt lat="36.9953453355" lon="-2.6837615110">
        <ele>406.29</ele>
        <time>2018-11-10T10:28:03Z</time>
      </trkpt>
      <trkpt lat="36.9951321837" lon="-2.6841340866">
        <ele>408.22</ele>
        <time>2018-11-10T10:28:13Z</time>
      </trkpt>
      <trkpt lat="36.9949118234" lon="-2.6845807582">
        <ele>408.70</ele>
        <time>2018-11-10T10:28:24Z</time>
      </trkpt>
      <trkpt lat="36.9947601948" lon="-2.6850369852">
        <ele>407.74</ele>
        <time>2018-11-10T10:28:34Z</time>
      </trkpt>
      <trkpt lat="36.9946565107" lon="-2.6855583396">
        <ele>408.70</ele>
        <time>2018-11-10T10:28:45Z</time>
      </trkpt>
      <trkpt lat="36.9945699256" lon="-2.6861321647">
        <ele>409.18</ele>
        <time>2018-11-10T10:28:57Z</time>
      </trkpt>
      <trkpt lat="36.9944953267" lon="-2.6866482385">
        <ele>409.18</ele>
        <time>2018-11-10T10:29:08Z</time>
      </trkpt>
      <trkpt lat="36.9944457058" lon="-2.6872315351">
        <ele>409.66</ele>
        <time>2018-11-10T10:29:20Z</time>
      </trkpt>
      <trkpt lat="36.9945005234" lon="-2.6877261512">
        <ele>409.66</ele>
        <time>2018-11-10T10:29:30Z</time>
      </trkpt>
      <trkpt lat="36.9946289342" lon="-2.6881802827">
        <ele>411.10</ele>
        <time>2018-11-10T10:29:40Z</time>
      </trkpt>
      <trkpt lat="36.9947547466" lon="-2.6884951070">
        <ele>412.54</ele>
        <time>2018-11-10T10:29:49Z</time>
      </trkpt>
      <trkpt lat="36.9948607776" lon="-2.6887570415">
        <ele>413.02</ele>
        <time>2018-11-10T10:29:57Z</time>
      </trkpt>
      <trkpt lat="36.9949865062" lon="-2.6890508272">
        <ele>414.47</ele>
        <time>2018-11-10T10:30:07Z</time>
      </trkpt>
      <trkpt lat="36.9951067027" lon="-2.6893681660">
        <ele>415.91</ele>
        <time>2018-11-10T10:30:18Z</time>
      </trkpt>
      <trkpt lat="36.9952232111" lon="-2.6896794699">
        <ele>417.83</ele>
        <time>2018-11-10T10:30:29Z</time>
      </trkpt>
      <trkpt lat="36.9952874165" lon="-2.6898986567">
        <ele>418.79</ele>
        <time>2018-11-10T10:30:38Z</time>
      </trkpt>
      <trkpt lat="36.9953448325" lon="-2.6901110541">
        <ele>419.27</ele>
        <time>2018-11-10T10:30:46Z</time>
      </trkpt>
      <trkpt lat="36.9954347704" lon="-2.6904951967">
        <ele>420.71</ele>
        <time>2018-11-10T10:30:58Z</time>
      </trkpt>
      <trkpt lat="36.9955071062" lon="-2.6908117812">
        <ele>421.68</ele>
        <time>2018-11-10T10:31:08Z</time>
      </trkpt>
      <trkpt lat="36.9955907576" lon="-2.6911556069">
        <ele>422.64</ele>
        <time>2018-11-10T10:31:18Z</time>
      </trkpt>
      <trkpt lat="36.9956709724" lon="-2.6915386599">
        <ele>423.60</ele>
        <time>2018-11-10T10:31:28Z</time>
      </trkpt>
      <trkpt lat="36.9957775902" lon="-2.6919958089">
        <ele>424.08</ele>
        <time>2018-11-10T10:31:39Z</time>
      </trkpt>
      <trkpt lat="36.9958950207" lon="-2.6925235335">
        <ele>424.56</ele>
        <time>2018-11-10T10:31:50Z</time>
      </trkpt>
      <trkpt lat="36.9959882274" lon="-2.6930458099">
        <ele>425.52</ele>
        <time>2018-11-10T10:32:01Z</time>
      </trkpt>
      <trkpt lat="36.9960069191" lon="-2.6934462972">
        <ele>426.00</ele>
        <time>2018-11-10T10:32:10Z</time>
      </trkpt>
      <trkpt lat="36.9959716313" lon="-2.6938615367">
        <ele>426.00</ele>
        <time>2018-11-10T10:32:19Z</time>
      </trkpt>
      <trkpt lat="36.9958779216" lon="-2.6944424864">
        <ele>425.52</ele>
        <time>2018-11-10T10:32:31Z</time>
      </trkpt>
      <trkpt lat="36.9957933482" lon="-2.6949535310">
        <ele>425.04</ele>
        <time>2018-11-10T10:32:41Z</time>
      </trkpt>
      <trkpt lat="36.9957453199" lon="-2.6955018751">
        <ele>425.04</ele>
        <time>2018-11-10T10:32:52Z</time>
      </trkpt>
      <trkpt lat="36.9957379438" lon="-2.6960443519">
        <ele>426.00</ele>
        <time>2018-11-10T10:33:03Z</time>
      </trkpt>
      <trkpt lat="36.9957861397" lon="-2.6965899300">
        <ele>427.44</ele>
        <time>2018-11-10T10:33:14Z</time>
      </trkpt>
      <trkpt lat="36.9958558772" lon="-2.6970508508">
        <ele>429.37</ele>
        <time>2018-11-10T10:33:24Z</time>
      </trkpt>
      <trkpt lat="36.9959593937" lon="-2.6974732149">
        <ele>430.33</ele>
        <time>2018-11-10T10:33:34Z</time>
      </trkpt>
      <trkpt lat="36.9960526004" lon="-2.6977553498">
        <ele>430.81</ele>
        <time>2018-11-10T10:33:42Z</time>
      </trkpt>
      <trkpt lat="36.9961750600" lon="-2.6980786398">
        <ele>431.77</ele>
        <time>2018-11-10T10:33:52Z</time>
      </trkpt>
      <trkpt lat="36.9962911494" lon="-2.6983503811">
        <ele>433.21</ele>
        <time>2018-11-10T10:34:01Z</time>
      </trkpt>
      <trkpt lat="36.9964332227" lon="-2.6986439154">
        <ele>434.17</ele>
        <time>2018-11-10T10:34:12Z</time>
      </trkpt>
      <trkpt lat="36.9966006093" lon="-2.6989557222">
        <ele>436.10</ele>
        <time>2018-11-10T10:34:24Z</time>
      </trkpt>
      <trkpt lat="36.9967458677" lon="-2.6992132142">
        <ele>437.06</ele>
        <time>2018-11-10T10:34:34Z</time>
      </trkpt>
      <trkpt lat="36.9968827441" lon="-2.6994535234">
        <ele>438.50</ele>
        <time>2018-11-10T10:34:44Z</time>
      </trkpt>
      <trkpt lat="36.9970344566" lon="-2.6997176372">
        <ele>439.94</ele>
        <time>2018-11-10T10:34:56Z</time>
      </trkpt>
      <trkpt lat="36.9971803017" lon="-2.6999865286">
        <ele>441.38</ele>
        <time>2018-11-10T10:35:08Z</time>
      </trkpt>
      <trkpt lat="36.9972770289" lon="-2.7001529094">
        <ele>442.82</ele>
        <time>2018-11-10T10:35:16Z</time>
      </trkpt>
      <trkpt lat="36.9974108040" lon="-2.7003826573">
        <ele>444.27</ele>
        <time>2018-11-10T10:35:26Z</time>
      </trkpt>
      <trkpt lat="36.9975662883" lon="-2.7006445080">
        <ele>445.71</ele>
        <time>2018-11-10T10:35:36Z</time>
      </trkpt>
      <trkpt lat="36.9977177493" lon="-2.7008967195">
        <ele>446.67</ele>
        <time>2018-11-10T10:35:47Z</time>
      </trkpt>
      <trkpt lat="36.9979067612" lon="-2.7012319118">
        <ele>447.15</ele>
        <time>2018-11-10T10:35:59Z</time>
      </trkpt>
      <trkpt lat="36.9980012253" lon="-2.7014382742">
        <ele>446.19</ele>
        <time>2018-11-10T10:36:07Z</time>
      </trkpt>
      <trkpt lat="36.9980915822" lon="-2.7016752306">
        <ele>446.19</ele>
        <time>2018-11-10T10:36:15Z</time>
      </trkpt>
      <trkpt lat="36.9981928356" lon="-2.7020291984">
        <ele>446.67</ele>
        <time>2018-11-10T10:36:25Z</time>
      </trkpt>
      <trkpt lat="36.9982419536" lon="-2.7023055498">
        <ele>445.71</ele>
        <time>2018-11-10T10:36:32Z</time>
      </trkpt>
      <trkpt lat="36.9982902333" lon="-2.7026834060">
        <ele>446.67</ele>
        <time>2018-11-10T10:36:41Z</time>
      </trkpt>
      <trkpt lat="36.9983378425" lon="-2.7031341847">
        <ele>447.15</ele>
        <time>2018-11-10T10:36:51Z</time>
      </trkpt>
      <trkpt lat="36.9983785786" lon="-2.7035676129">
        <ele>447.63</ele>
        <time>2018-11-10T10:37:00Z</time>
      </trkpt>
      <trkpt lat="36.9984199014" lon="-2.7039565332">
        <ele>448.59</ele>
        <time>2018-11-10T10:37:09Z</time>
      </trkpt>
      <trkpt lat="36.9984411076" lon="-2.7042156179">
        <ele>448.11</ele>
        <time>2018-11-10T10:37:15Z</time>
      </trkpt>
      <trkpt lat="36.9984889682" lon="-2.7046413347">
        <ele>448.11</ele>
        <time>2018-11-10T10:37:25Z</time>
      </trkpt>
      <trkpt lat="36.9985412713" lon="-2.7049941290">
        <ele>448.59</ele>
        <time>2018-11-10T10:37:33Z</time>
      </trkpt>
      <trkpt lat="36.9986232463" lon="-2.7053630166">
        <ele>448.59</ele>
        <time>2018-11-10T10:37:41Z</time>
      </trkpt>
      <trkpt lat="36.9987597875" lon="-2.7057720535">
        <ele>449.07</ele>
        <time>2018-11-10T10:37:50Z</time>
      </trkpt>
      <trkpt lat="36.9989403337" lon="-2.7061437070">
        <ele>449.07</ele>
        <time>2018-11-10T10:37:59Z</time>
      </trkpt>
      <trkpt lat="36.9991205446" lon="-2.7064395044">
        <ele>448.59</ele>
        <time>2018-11-10T10:38:07Z</time>
      </trkpt>
      <trkpt lat="36.9993470237" lon="-2.7067644708">
        <ele>448.59</ele>
        <time>2018-11-10T10:38:16Z</time>
      </trkpt>
      <trkpt lat="36.9995784480" lon="-2.7070734277">
        <ele>449.07</ele>
        <time>2018-11-10T10:38:25Z</time>
      </trkpt>
      <trkpt lat="36.9997782726" lon="-2.7072365396">
        <ele>450.52</ele>
        <time>2018-11-10T10:38:32Z</time>
      </trkpt>
      <trkpt lat="36.9998539612" lon="-2.7073220350">
        <ele>451.48</ele>
        <time>2018-11-10T10:38:39Z</time>
      </trkpt>
      <trkpt lat="36.9998490997" lon="-2.7073061932">
        <ele>451.96</ele>
        <time>2018-11-10T10:38:47Z</time>
      </trkpt>
      <trkpt lat="36.9998512790" lon="-2.7072995715">
        <ele>449.07</ele>
        <time>2018-11-10T10:39:09Z</time>
      </trkpt>
      <trkpt lat="36.9998501055" lon="-2.7072882559">
        <ele>446.19</ele>
        <time>2018-11-10T10:39:27Z</time>
      </trkpt>
      <trkpt lat="36.9998600800" lon="-2.7072967216">
        <ele>449.07</ele>
        <time>2018-11-10T10:39:45Z</time>
      </trkpt>
      <trkpt lat="36.9998568110" lon="-2.7073069476">
        <ele>449.07</ele>
        <time>2018-11-10T10:40:03Z</time>
      </trkpt>
      <trkpt lat="36.9998700544" lon="-2.7072812989">
        <ele>451.00</ele>
        <time>2018-11-10T10:40:21Z</time>
      </trkpt>
      <trkpt lat="36.9998551346" lon="-2.7072946262">
        <ele>449.55</ele>
        <time>2018-11-10T10:40:37Z</time>
      </trkpt>
      <trkpt lat="36.9998393767" lon="-2.7072797902">
        <ele>448.59</ele>
        <time>2018-11-10T10:40:56Z</time>
      </trkpt>
      <trkpt lat="36.9998412207" lon="-2.7073051874">
        <ele>449.07</ele>
        <time>2018-11-10T10:41:13Z</time>
      </trkpt>
      <trkpt lat="36.9998512790" lon="-2.7073111385">
        <ele>449.55</ele>
        <time>2018-11-10T10:41:30Z</time>
      </trkpt>
      <trkpt lat="36.9998715632" lon="-2.7072844002">
        <ele>446.19</ele>
        <time>2018-11-10T10:41:48Z</time>
      </trkpt>
      <trkpt lat="36.9998726528" lon="-2.7072856575">
        <ele>449.07</ele>
        <time>2018-11-10T10:42:05Z</time>
      </trkpt>
      <trkpt lat="36.9998661987" lon="-2.7072969731">
        <ele>449.55</ele>
        <time>2018-11-10T10:42:22Z</time>
      </trkpt>
      <trkpt lat="36.9999134727" lon="-2.7073621843">
        <ele>450.52</ele>
        <time>2018-11-10T10:42:27Z</time>
      </trkpt>
      <trkpt lat="37.0000775065" lon="-2.7075524535">
        <ele>451.00</ele>
        <time>2018-11-10T10:42:34Z</time>
      </trkpt>
      <trkpt lat="37.0001538657" lon="-2.7077677846">
        <ele>451.00</ele>
        <time>2018-11-10T10:42:40Z</time>
      </trkpt>
      <trkpt lat="37.0000958629" lon="-2.7080358379">
        <ele>451.48</ele>
        <time>2018-11-10T10:42:47Z</time>
      </trkpt>
      <trkpt lat="37.0000722259" lon="-2.7083452139">
        <ele>451.96</ele>
        <time>2018-11-10T10:42:55Z</time>
      </trkpt>
      <trkpt lat="37.0001132973" lon="-2.7088658139">
        <ele>451.00</ele>
        <time>2018-11-10T10:43:06Z</time>
      </trkpt>
      <trkpt lat="37.0001289714" lon="-2.7093084622">
        <ele>450.52</ele>
        <time>2018-11-10T10:43:15Z</time>
      </trkpt>
      <trkpt lat="37.0001510996" lon="-2.7098243684">
        <ele>450.52</ele>
        <time>2018-11-10T10:43:25Z</time>
      </trkpt>
      <trkpt lat="37.0002077613" lon="-2.7102070861">
        <ele>451.00</ele>
        <time>2018-11-10T10:43:33Z</time>
      </trkpt>
      <trkpt lat="37.0003650896" lon="-2.7107457910">
        <ele>451.48</ele>
        <time>2018-11-10T10:43:45Z</time>
      </trkpt>
      <trkpt lat="37.0005343203" lon="-2.7111114096">
        <ele>451.48</ele>
        <time>2018-11-10T10:43:54Z</time>
      </trkpt>
      <trkpt lat="37.0008372422" lon="-2.7115935367">
        <ele>453.40</ele>
        <time>2018-11-10T10:44:07Z</time>
      </trkpt>
      <trkpt lat="37.0011070557" lon="-2.7119836304">
        <ele>454.36</ele>
        <time>2018-11-10T10:44:18Z</time>
      </trkpt>
      <trkpt lat="37.0012980793" lon="-2.7123079263">
        <ele>456.28</ele>
        <time>2018-11-10T10:44:27Z</time>
      </trkpt>
      <trkpt lat="37.0014841575" lon="-2.7126801666">
        <ele>455.80</ele>
        <time>2018-11-10T10:44:37Z</time>
      </trkpt>
      <trkpt lat="37.0017505344" lon="-2.7132404968">
        <ele>456.28</ele>
        <time>2018-11-10T10:44:51Z</time>
      </trkpt>
      <trkpt lat="37.0020137262" lon="-2.7137424890">
        <ele>457.24</ele>
        <time>2018-11-10T10:45:04Z</time>
      </trkpt>
      <trkpt lat="37.0022999682" lon="-2.7141567226">
        <ele>459.17</ele>
        <time>2018-11-10T10:45:16Z</time>
      </trkpt>
      <trkpt lat="37.0026129484" lon="-2.7145341597">
        <ele>461.57</ele>
        <time>2018-11-10T10:45:28Z</time>
      </trkpt>
      <trkpt lat="37.0028435346" lon="-2.7148025483">
        <ele>463.49</ele>
        <time>2018-11-10T10:45:38Z</time>
      </trkpt>
      <trkpt lat="37.0030322112" lon="-2.7150477190">
        <ele>464.45</ele>
        <time>2018-11-10T10:45:48Z</time>
      </trkpt>
      <trkpt lat="37.0032259170" lon="-2.7154031955">
        <ele>464.45</ele>
        <time>2018-11-10T10:46:01Z</time>
      </trkpt>
      <trkpt lat="37.0033520646" lon="-2.7157802135">
        <ele>464.45</ele>
        <time>2018-11-10T10:46:13Z</time>
      </trkpt>
      <trkpt lat="37.0034264959" lon="-2.7161622606">
        <ele>466.38</ele>
        <time>2018-11-10T10:46:24Z</time>
      </trkpt>
      <trkpt lat="37.0034715068" lon="-2.7165631671">
        <ele>467.34</ele>
        <time>2018-11-10T10:46:35Z</time>
      </trkpt>
      <trkpt lat="37.0035010949" lon="-2.7169343177">
        <ele>468.78</ele>
        <time>2018-11-10T10:46:45Z</time>
      </trkpt>
      <trkpt lat="37.0035470277" lon="-2.7173870243">
        <ele>470.70</ele>
        <time>2018-11-10T10:46:58Z</time>
      </trkpt>
      <trkpt lat="37.0036046952" lon="-2.7177382261">
        <ele>471.18</ele>
        <time>2018-11-10T10:47:08Z</time>
      </trkpt>
      <trkpt lat="37.0037159231" lon="-2.7180645335">
        <ele>471.66</ele>
        <time>2018-11-10T10:47:18Z</time>
      </trkpt>
      <trkpt lat="37.0039310027" lon="-2.7184400428">
        <ele>472.14</ele>
        <time>2018-11-10T10:47:31Z</time>
      </trkpt>
      <trkpt lat="37.0041214395" lon="-2.7186940983">
        <ele>473.59</ele>
        <time>2018-11-10T10:47:41Z</time>
      </trkpt>
      <trkpt lat="37.0043001417" lon="-2.7188821882">
        <ele>474.55</ele>
        <time>2018-11-10T10:47:49Z</time>
      </trkpt>
      <trkpt lat="37.0045241062" lon="-2.7190948371">
        <ele>475.51</ele>
        <time>2018-11-10T10:47:58Z</time>
      </trkpt>
      <trkpt lat="37.0047465619" lon="-2.7192902192">
        <ele>476.47</ele>
        <time>2018-11-10T10:48:08Z</time>
      </trkpt>
      <trkpt lat="37.0048540179" lon="-2.7194143552">
        <ele>476.95</ele>
        <time>2018-11-10T10:48:17Z</time>
      </trkpt>
      <trkpt lat="37.0049782377" lon="-2.7195380721">
        <ele>477.91</ele>
        <time>2018-11-10T10:48:26Z</time>
      </trkpt>
      <trkpt lat="37.0051143598" lon="-2.7197166067">
        <ele>477.43</ele>
        <time>2018-11-10T10:48:35Z</time>
      </trkpt>
      <trkpt lat="37.0052176248" lon="-2.7198712528">
        <ele>477.43</ele>
        <time>2018-11-10T10:48:44Z</time>
      </trkpt>
      <trkpt lat="37.0053213928" lon="-2.7200724185">
        <ele>476.95</ele>
        <time>2018-11-10T10:48:51Z</time>
      </trkpt>
      <trkpt lat="37.0054819062" lon="-2.7204698883">
        <ele>475.03</ele>
        <time>2018-11-10T10:49:03Z</time>
      </trkpt>
      <trkpt lat="37.0056058746" lon="-2.7208816912">
        <ele>474.55</ele>
        <time>2018-11-10T10:49:15Z</time>
      </trkpt>
      <trkpt lat="37.0057123248" lon="-2.7212112676">
        <ele>474.55</ele>
        <time>2018-11-10T10:49:25Z</time>
      </trkpt>
      <trkpt lat="37.0058455970" lon="-2.7215830889">
        <ele>474.55</ele>
        <time>2018-11-10T10:49:35Z</time>
      </trkpt>
      <trkpt lat="37.0060005784" lon="-2.7219851688">
        <ele>474.07</ele>
        <time>2018-11-10T10:49:46Z</time>
      </trkpt>
      <trkpt lat="37.0061423164" lon="-2.7223481052">
        <ele>474.07</ele>
        <time>2018-11-10T10:49:57Z</time>
      </trkpt>
      <trkpt lat="37.0062352717" lon="-2.7225968800">
        <ele>474.55</ele>
        <time>2018-11-10T10:50:05Z</time>
      </trkpt>
      <trkpt lat="37.0063449908" lon="-2.7229112852">
        <ele>475.03</ele>
        <time>2018-11-10T10:50:14Z</time>
      </trkpt>
      <trkpt lat="37.0064614993" lon="-2.7232955955">
        <ele>475.99</ele>
        <time>2018-11-10T10:50:25Z</time>
      </trkpt>
      <trkpt lat="37.0065067615" lon="-2.7235484775">
        <ele>476.95</ele>
        <time>2018-11-10T10:50:33Z</time>
      </trkpt>
      <trkpt lat="37.0065479167" lon="-2.7238682471">
        <ele>477.91</ele>
        <time>2018-11-10T10:50:42Z</time>
      </trkpt>
      <trkpt lat="37.0065613277" lon="-2.7241062094">
        <ele>477.91</ele>
        <time>2018-11-10T10:50:50Z</time>
      </trkpt>
      <trkpt lat="37.0065657701" lon="-2.7242986578">
        <ele>478.39</ele>
        <time>2018-11-10T10:50:58Z</time>
      </trkpt>
      <trkpt lat="37.0065750740" lon="-2.7243043575">
        <ele>478.39</ele>
        <time>2018-11-10T10:51:10Z</time>
      </trkpt>
      <trkpt lat="37.0065723080" lon="-2.7243212052">
        <ele>478.39</ele>
        <time>2018-11-10T10:51:11Z</time>
      </trkpt>
      <trkpt lat="37.0065715536" lon="-2.7243409865">
        <ele>478.39</ele>
        <time>2018-11-10T10:51:12Z</time>
      </trkpt>
      <trkpt lat="37.0065702964" lon="-2.7243676409">
        <ele>478.39</ele>
        <time>2018-11-10T10:51:13Z</time>
      </trkpt>
      <trkpt lat="37.0065710507" lon="-2.7243993245">
        <ele>478.39</ele>
        <time>2018-11-10T10:51:14Z</time>
      </trkpt>
      <trkpt lat="37.0065708831" lon="-2.7244304214">
        <ele>478.39</ele>
        <time>2018-11-10T10:51:15Z</time>
      </trkpt>
      <trkpt lat="37.0065570530" lon="-2.7247716486">
        <ele>479.35</ele>
        <time>2018-11-10T10:51:25Z</time>
      </trkpt>
      <trkpt lat="37.0065543707" lon="-2.7249971218">
        <ele>480.32</ele>
        <time>2018-11-10T10:51:32Z</time>
      </trkpt>
      <trkpt lat="37.0065439772" lon="-2.7252551168">
        <ele>480.80</ele>
        <time>2018-11-10T10:51:42Z</time>
      </trkpt>
      <trkpt lat="37.0065478329" lon="-2.7255250979">
        <ele>482.24</ele>
        <time>2018-11-10T10:51:53Z</time>
      </trkpt>
      <trkpt lat="37.0065674465" lon="-2.7258018684">
        <ele>484.16</ele>
        <time>2018-11-10T10:52:05Z</time>
      </trkpt>
      <trkpt lat="37.0065794326" lon="-2.7260252461">
        <ele>486.08</ele>
        <time>2018-11-10T10:52:15Z</time>
      </trkpt>
      <trkpt lat="37.0066213422" lon="-2.7262778766">
        <ele>487.05</ele>
        <time>2018-11-10T10:52:26Z</time>
      </trkpt>
      <trkpt lat="37.0066514332" lon="-2.7264432516">
        <ele>488.01</ele>
        <time>2018-11-10T10:52:34Z</time>
      </trkpt>
      <trkpt lat="37.0066895708" lon="-2.7266336046">
        <ele>489.45</ele>
        <time>2018-11-10T10:52:43Z</time>
      </trkpt>
      <trkpt lat="37.0067012217" lon="-2.7266884223">
        <ele>490.89</ele>
        <time>2018-11-10T10:52:50Z</time>
      </trkpt>
      <trkpt lat="37.0067060832" lon="-2.7266916074">
        <ele>491.37</ele>
        <time>2018-11-10T10:53:08Z</time>
      </trkpt>
      <trkpt lat="37.0067336597" lon="-2.7268017456">
        <ele>491.85</ele>
        <time>2018-11-10T10:53:14Z</time>
      </trkpt>
      <trkpt lat="37.0067905728" lon="-2.7270128019">
        <ele>492.33</ele>
        <time>2018-11-10T10:53:23Z</time>
      </trkpt>
      <trkpt lat="37.0068805106" lon="-2.7272715513">
        <ele>493.77</ele>
        <time>2018-11-10T10:53:34Z</time>
      </trkpt>
      <trkpt lat="37.0069846138" lon="-2.7275550272">
        <ele>496.18</ele>
        <time>2018-11-10T10:53:46Z</time>
      </trkpt>
      <trkpt lat="37.0070751384" lon="-2.7277725376">
        <ele>497.62</ele>
        <time>2018-11-10T10:53:56Z</time>
      </trkpt>
      <trkpt lat="37.0071756374" lon="-2.7280027885">
        <ele>499.06</ele>
        <time>2018-11-10T10:54:07Z</time>
      </trkpt>
      <trkpt lat="37.0072137751" lon="-2.7280936483">
        <ele>499.54</ele>
        <time>2018-11-10T10:54:14Z</time>
      </trkpt>
      <trkpt lat="37.0072906371" lon="-2.7282836661">
        <ele>500.50</ele>
        <time>2018-11-10T10:54:25Z</time>
      </trkpt>
      <trkpt lat="37.0073781442" lon="-2.7285004221">
        <ele>501.95</ele>
        <time>2018-11-10T10:54:36Z</time>
      </trkpt>
      <trkpt lat="37.0074446127" lon="-2.7286936250">
        <ele>502.91</ele>
        <time>2018-11-10T10:54:46Z</time>
      </trkpt>
      <trkpt lat="37.0074868575" lon="-2.7288351953">
        <ele>503.87</ele>
        <time>2018-11-10T10:54:54Z</time>
      </trkpt>
      <trkpt lat="37.0075539965" lon="-2.7290380374">
        <ele>505.79</ele>
        <time>2018-11-10T10:55:04Z</time>
      </trkpt>
      <trkpt lat="37.0075995941" lon="-2.7292298991">
        <ele>507.23</ele>
        <time>2018-11-10T10:55:13Z</time>
      </trkpt>
      <trkpt lat="37.0076504722" lon="-2.7294103615">
        <ele>507.71</ele>
        <time>2018-11-10T10:55:22Z</time>
      </trkpt>
      <trkpt lat="37.0076969080" lon="-2.7295586374">
        <ele>508.67</ele>
        <time>2018-11-10T10:55:31Z</time>
      </trkpt>
      <trkpt lat="37.0077479538" lon="-2.7297698613">
        <ele>509.16</ele>
        <time>2018-11-10T10:55:42Z</time>
      </trkpt>
      <trkpt lat="37.0078074653" lon="-2.7300002798">
        <ele>511.08</ele>
        <time>2018-11-10T10:55:52Z</time>
      </trkpt>
      <trkpt lat="37.0078617800" lon="-2.7302143537">
        <ele>513.48</ele>
        <time>2018-11-10T10:56:03Z</time>
      </trkpt>
      <trkpt lat="37.0079220459" lon="-2.7304362226">
        <ele>514.44</ele>
        <time>2018-11-10T10:56:13Z</time>
      </trkpt>
      <trkpt lat="37.0079870056" lon="-2.7306566667">
        <ele>515.88</ele>
        <time>2018-11-10T10:56:24Z</time>
      </trkpt>
      <trkpt lat="37.0080156717" lon="-2.7307453472">
        <ele>516.37</ele>
        <time>2018-11-10T10:56:29Z</time>
      </trkpt>
      <trkpt lat="37.0080232993" lon="-2.7307570819">
        <ele>516.85</ele>
        <time>2018-11-10T10:56:30Z</time>
      </trkpt>
      <trkpt lat="37.0080298372" lon="-2.7307592612">
        <ele>518.77</ele>
        <time>2018-11-10T10:56:36Z</time>
      </trkpt>
      <trkpt lat="37.0080330223" lon="-2.7307522204">
        <ele>521.65</ele>
        <time>2018-11-10T10:56:48Z</time>
      </trkpt>
      <trkpt lat="37.0080388058" lon="-2.7307759412">
        <ele>520.21</ele>
        <time>2018-11-10T10:57:02Z</time>
      </trkpt>
      <trkpt lat="37.0080352016" lon="-2.7307818085">
        <ele>519.73</ele>
        <time>2018-11-10T10:57:15Z</time>
      </trkpt>
      <trkpt lat="37.0080355369" lon="-2.7307904419">
        <ele>521.65</ele>
        <time>2018-11-10T10:57:31Z</time>
      </trkpt>
      <trkpt lat="37.0080389734" lon="-2.7307522204">
        <ele>520.21</ele>
        <time>2018-11-10T10:57:46Z</time>
      </trkpt>
      <trkpt lat="37.0080302563" lon="-2.7307615243">
        <ele>519.25</ele>
        <time>2018-11-10T10:57:58Z</time>
      </trkpt>
      <trkpt lat="37.0080221258" lon="-2.7307475265">
        <ele>519.25</ele>
        <time>2018-11-10T10:58:15Z</time>
      </trkpt>
      <trkpt lat="37.0080284122" lon="-2.7307506278">
        <ele>520.69</ele>
        <time>2018-11-10T10:58:26Z</time>
      </trkpt>
      <trkpt lat="37.0080376323" lon="-2.7307623625">
        <ele>520.21</ele>
        <time>2018-11-10T10:58:40Z</time>
      </trkpt>
      <trkpt lat="37.0080381352" lon="-2.7307766117">
        <ele>517.81</ele>
        <time>2018-11-10T10:58:58Z</time>
      </trkpt>
      <trkpt lat="37.0080334414" lon="-2.7307867538">
        <ele>517.81</ele>
        <time>2018-11-10T10:59:01Z</time>
      </trkpt>
      <trkpt lat="37.0080367103" lon="-2.7307988238">
        <ele>517.81</ele>
        <time>2018-11-10T10:59:02Z</time>
      </trkpt>
      <trkpt lat="37.0080771949" lon="-2.7309841476">
        <ele>519.25</ele>
        <time>2018-11-10T10:59:12Z</time>
      </trkpt>
      <trkpt lat="37.0081396401" lon="-2.7312229481">
        <ele>521.65</ele>
        <time>2018-11-10T10:59:22Z</time>
      </trkpt>
      <trkpt lat="37.0082122274" lon="-2.7314521931">
        <ele>523.58</ele>
        <time>2018-11-10T10:59:32Z</time>
      </trkpt>
      <trkpt lat="37.0082676318" lon="-2.7316362597">
        <ele>524.06</ele>
        <time>2018-11-10T10:59:40Z</time>
      </trkpt>
      <trkpt lat="37.0083227009" lon="-2.7318887226">
        <ele>525.50</ele>
        <time>2018-11-10T10:59:50Z</time>
      </trkpt>
      <trkpt lat="37.0083584078" lon="-2.7320142835">
        <ele>526.46</ele>
        <time>2018-11-10T10:59:57Z</time>
      </trkpt>
      <trkpt lat="37.0084107108" lon="-2.7321821731">
        <ele>527.90</ele>
        <time>2018-11-10T11:00:06Z</time>
      </trkpt>
      <trkpt lat="37.0084608346" lon="-2.7323995996">
        <ele>530.30</ele>
        <time>2018-11-10T11:00:16Z</time>
      </trkpt>
      <trkpt lat="37.0085301530" lon="-2.7326398250">
        <ele>531.27</ele>
        <time>2018-11-10T11:00:27Z</time>
      </trkpt>
      <trkpt lat="37.0085884910" lon="-2.7328659687">
        <ele>533.19</ele>
        <time>2018-11-10T11:00:37Z</time>
      </trkpt>
      <trkpt lat="37.0086229406" lon="-2.7329792082">
        <ele>533.19</ele>
        <time>2018-11-10T11:00:44Z</time>
      </trkpt>
      <trkpt lat="37.0086754952" lon="-2.7331755124">
        <ele>533.67</ele>
        <time>2018-11-10T11:00:54Z</time>
      </trkpt>
      <trkpt lat="37.0087548718" lon="-2.7334652748">
        <ele>536.07</ele>
        <time>2018-11-10T11:01:07Z</time>
      </trkpt>
      <trkpt lat="37.0088156406" lon="-2.7336732298">
        <ele>538.48</ele>
        <time>2018-11-10T11:01:16Z</time>
      </trkpt>
      <trkpt lat="37.0088851266" lon="-2.7338796761">
        <ele>540.40</ele>
        <time>2018-11-10T11:01:25Z</time>
      </trkpt>
      <trkpt lat="37.0089183189" lon="-2.7339873835">
        <ele>541.36</ele>
        <time>2018-11-10T11:01:31Z</time>
      </trkpt>
      <trkpt lat="37.0089911576" lon="-2.7341815084">
        <ele>542.32</ele>
        <time>2018-11-10T11:01:40Z</time>
      </trkpt>
      <trkpt lat="37.0090653375" lon="-2.7343898825">
        <ele>543.76</ele>
        <time>2018-11-10T11:01:49Z</time>
      </trkpt>
      <trkpt lat="37.0090844482" lon="-2.7344321273">
        <ele>543.76</ele>
        <time>2018-11-10T11:01:51Z</time>
      </trkpt>
      <trkpt lat="37.0091393497" lon="-2.7345642261">
        <ele>544.72</ele>
        <time>2018-11-10T11:02:00Z</time>
      </trkpt>
      <trkpt lat="37.0091354940" lon="-2.7345674112">
        <ele>544.72</ele>
        <time>2018-11-10T11:02:07Z</time>
      </trkpt>
      <trkpt lat="37.0091408584" lon="-2.7345591970">
        <ele>544.24</ele>
        <time>2018-11-10T11:02:21Z</time>
      </trkpt>
      <trkpt lat="37.0091405232" lon="-2.7345569339">
        <ele>543.76</ele>
        <time>2018-11-10T11:02:35Z</time>
      </trkpt>
      <trkpt lat="37.0091411937" lon="-2.7345580235">
        <ele>543.76</ele>
        <time>2018-11-10T11:02:51Z</time>
      </trkpt>
      <trkpt lat="37.0091363322" lon="-2.7345591970">
        <ele>544.24</ele>
        <time>2018-11-10T11:03:09Z</time>
      </trkpt>
      <trkpt lat="37.0091582928" lon="-2.7346055489">
        <ele>544.24</ele>
        <time>2018-11-10T11:03:15Z</time>
      </trkpt>
      <trkpt lat="37.0092358254" lon="-2.7347917110">
        <ele>545.69</ele>
        <time>2018-11-10T11:03:24Z</time>
      </trkpt>
      <trkpt lat="37.0093501545" lon="-2.7350036055">
        <ele>547.13</ele>
        <time>2018-11-10T11:03:34Z</time>
      </trkpt>
      <trkpt lat="37.0094711892" lon="-2.7352217864">
        <ele>548.57</ele>
        <time>2018-11-10T11:03:44Z</time>
      </trkpt>
      <trkpt lat="37.0095669106" lon="-2.7353833895">
        <ele>550.49</ele>
        <time>2018-11-10T11:03:52Z</time>
      </trkpt>
      <trkpt lat="37.0096910466" lon="-2.7355109621">
        <ele>550.97</ele>
        <time>2018-11-10T11:04:00Z</time>
      </trkpt>
      <trkpt lat="37.0097924676" lon="-2.7356382832">
        <ele>552.90</ele>
        <time>2018-11-10T11:04:08Z</time>
      </trkpt>
      <trkpt lat="37.0099467784" lon="-2.7358498424">
        <ele>554.34</ele>
        <time>2018-11-10T11:04:20Z</time>
      </trkpt>
      <trkpt lat="37.0100908633" lon="-2.7360168938">
        <ele>556.26</ele>
        <time>2018-11-10T11:04:30Z</time>
      </trkpt>
      <trkpt lat="37.0102202799" lon="-2.7361556143">
        <ele>559.14</ele>
        <time>2018-11-10T11:04:39Z</time>
      </trkpt>
      <trkpt lat="37.0103896782" lon="-2.7363296226">
        <ele>560.59</ele>
        <time>2018-11-10T11:04:50Z</time>
      </trkpt>
      <trkpt lat="37.0104973018" lon="-2.7364185546">
        <ele>561.55</ele>
        <time>2018-11-10T11:04:58Z</time>
      </trkpt>
      <trkpt lat="37.0106158219" lon="-2.7365153655">
        <ele>563.47</ele>
        <time>2018-11-10T11:05:08Z</time>
      </trkpt>
      <trkpt lat="37.0107198413" lon="-2.7365931496">
        <ele>564.91</ele>
        <time>2018-11-10T11:05:16Z</time>
      </trkpt>
      <trkpt lat="37.0108381100" lon="-2.7366758790">
        <ele>565.87</ele>
        <time>2018-11-10T11:05:25Z</time>
      </trkpt>
      <trkpt lat="37.0109440573" lon="-2.7367384918">
        <ele>567.32</ele>
        <time>2018-11-10T11:05:34Z</time>
      </trkpt>
      <trkpt lat="37.0110631641" lon="-2.7368220594">
        <ele>568.28</ele>
        <time>2018-11-10T11:05:44Z</time>
      </trkpt>
      <trkpt lat="37.0111997891" lon="-2.7369039506">
        <ele>568.28</ele>
        <time>2018-11-10T11:05:55Z</time>
      </trkpt>
      <trkpt lat="37.0113392640" lon="-2.7369858418">
        <ele>569.72</ele>
        <time>2018-11-10T11:06:05Z</time>
      </trkpt>
      <trkpt lat="37.0114610530" lon="-2.7370557468">
        <ele>570.20</ele>
        <time>2018-11-10T11:06:14Z</time>
      </trkpt>
      <trkpt lat="37.0115645695" lon="-2.7371119894">
        <ele>571.16</ele>
        <time>2018-11-10T11:06:21Z</time>
      </trkpt>
      <trkpt lat="37.0117322076" lon="-2.7372006699">
        <ele>572.60</ele>
        <time>2018-11-10T11:06:33Z</time>
      </trkpt>
      <trkpt lat="37.0119162742" lon="-2.7373043541">
        <ele>573.56</ele>
        <time>2018-11-10T11:06:45Z</time>
      </trkpt>
      <trkpt lat="37.0120864268" lon="-2.7374058589">
        <ele>575.49</ele>
        <time>2018-11-10T11:06:56Z</time>
      </trkpt>
      <trkpt lat="37.0122748520" lon="-2.7375056036">
        <ele>577.41</ele>
        <time>2018-11-10T11:07:08Z</time>
      </trkpt>
      <trkpt lat="37.0124429930" lon="-2.7375968825">
        <ele>579.33</ele>
        <time>2018-11-10T11:07:19Z</time>
      </trkpt>
      <trkpt lat="37.0126364473" lon="-2.7376987226">
        <ele>581.73</ele>
        <time>2018-11-10T11:07:31Z</time>
      </trkpt>
      <trkpt lat="37.0127542969" lon="-2.7377594914">
        <ele>582.22</ele>
        <time>2018-11-10T11:07:39Z</time>
      </trkpt>
      <trkpt lat="37.0127723180" lon="-2.7377762552">
        <ele>582.22</ele>
        <time>2018-11-10T11:07:41Z</time>
      </trkpt>
      <trkpt lat="37.0128239505" lon="-2.7378038317">
        <ele>583.18</ele>
        <time>2018-11-10T11:07:45Z</time>
      </trkpt>
      <trkpt lat="37.0129827037" lon="-2.7378946077">
        <ele>584.62</ele>
        <time>2018-11-10T11:07:56Z</time>
      </trkpt>
      <trkpt lat="37.0131755713" lon="-2.7379868925">
        <ele>586.06</ele>
        <time>2018-11-10T11:08:08Z</time>
      </trkpt>
      <trkpt lat="37.0133690257" lon="-2.7380965278">
        <ele>587.50</ele>
        <time>2018-11-10T11:08:20Z</time>
      </trkpt>
      <trkpt lat="37.0134953409" lon="-2.7381692827">
        <ele>588.95</ele>
        <time>2018-11-10T11:08:30Z</time>
      </trkpt>
      <trkpt lat="37.0136458799" lon="-2.7382468991">
        <ele>589.43</ele>
        <time>2018-11-10T11:08:40Z</time>
      </trkpt>
      <trkpt lat="37.0138152782" lon="-2.7383429557">
        <ele>591.35</ele>
        <time>2018-11-10T11:08:51Z</time>
      </trkpt>
      <trkpt lat="37.0139888674" lon="-2.7384346537">
        <ele>593.75</ele>
        <time>2018-11-10T11:09:02Z</time>
      </trkpt>
      <trkpt lat="37.0140505582" lon="-2.7384645771">
        <ele>593.75</ele>
        <time>2018-11-10T11:09:07Z</time>
      </trkpt>
      <trkpt lat="37.0141280070" lon="-2.7385169640">
        <ele>594.23</ele>
        <time>2018-11-10T11:09:13Z</time>
      </trkpt>
      <trkpt lat="37.0143295918" lon="-2.7386212349">
        <ele>596.15</ele>
        <time>2018-11-10T11:09:26Z</time>
      </trkpt>
      <trkpt lat="37.0145344455" lon="-2.7387342229">
        <ele>598.56</ele>
        <time>2018-11-10T11:09:39Z</time>
      </trkpt>
      <trkpt lat="37.0146719925" lon="-2.7388120070">
        <ele>600.00</ele>
        <time>2018-11-10T11:09:48Z</time>
      </trkpt>
      <trkpt lat="37.0148400497" lon="-2.7388991788">
        <ele>601.92</ele>
        <time>2018-11-10T11:09:58Z</time>
      </trkpt>
      <trkpt lat="37.0150302351" lon="-2.7390047908">
        <ele>603.85</ele>
        <time>2018-11-10T11:10:09Z</time>
      </trkpt>
      <trkpt lat="37.0151936822" lon="-2.7390798088">
        <ele>604.81</ele>
        <time>2018-11-10T11:10:19Z</time>
      </trkpt>
      <trkpt lat="37.0153136272" lon="-2.7391502168">
        <ele>605.77</ele>
        <time>2018-11-10T11:10:28Z</time>
      </trkpt>
      <trkpt lat="37.0154455584" lon="-2.7392216306">
        <ele>607.69</ele>
        <time>2018-11-10T11:10:38Z</time>
      </trkpt>
      <trkpt lat="37.0155643299" lon="-2.7392896917">
        <ele>608.65</ele>
        <time>2018-11-10T11:10:47Z</time>
      </trkpt>
      <trkpt lat="37.0156856161" lon="-2.7393519692">
        <ele>609.61</ele>
        <time>2018-11-10T11:10:55Z</time>
      </trkpt>
      <trkpt lat="37.0157363266" lon="-2.7393779531">
        <ele>610.57</ele>
        <time>2018-11-10T11:11:02Z</time>
      </trkpt>
      <trkpt lat="37.0157332253" lon="-2.7393787913">
        <ele>608.65</ele>
        <time>2018-11-10T11:11:10Z</time>
      </trkpt>
      <trkpt lat="37.0157811698" lon="-2.7393864188">
        <ele>608.65</ele>
        <time>2018-11-10T11:11:20Z</time>
      </trkpt>
      <trkpt lat="37.0157870371" lon="-2.7393717505">
        <ele>607.21</ele>
        <time>2018-11-10T11:11:43Z</time>
      </trkpt>
      <trkpt lat="37.0157814212" lon="-2.7393750194">
        <ele>608.17</ele>
        <time>2018-11-10T11:12:01Z</time>
      </trkpt>
      <trkpt lat="37.0157924853" lon="-2.7393793780">
        <ele>605.29</ele>
        <time>2018-11-10T11:12:18Z</time>
      </trkpt>
      <trkpt lat="37.0157986041" lon="-2.7393929567">
        <ele>604.33</ele>
        <time>2018-11-10T11:12:33Z</time>
      </trkpt>
      <trkpt lat="37.0157930721" lon="-2.7394108102">
        <ele>606.25</ele>
        <time>2018-11-10T11:12:49Z</time>
      </trkpt>
      <trkpt lat="37.0157856960" lon="-2.7393765282">
        <ele>608.17</ele>
        <time>2018-11-10T11:13:03Z</time>
      </trkpt>
      <trkpt lat="37.0157872047" lon="-2.7393825632">
        <ele>608.17</ele>
        <time>2018-11-10T11:13:15Z</time>
      </trkpt>
      <trkpt lat="37.0157798287" lon="-2.7393811382">
        <ele>606.25</ele>
        <time>2018-11-10T11:13:29Z</time>
      </trkpt>
      <trkpt lat="37.0157796610" lon="-2.7394017577">
        <ele>607.69</ele>
        <time>2018-11-10T11:13:41Z</time>
      </trkpt>
      <trkpt lat="37.0157885458" lon="-2.7393863350">
        <ele>609.13</ele>
        <time>2018-11-10T11:13:55Z</time>
      </trkpt>
      <trkpt lat="37.0157845225" lon="-2.7393993270">
        <ele>607.69</ele>
        <time>2018-11-10T11:14:08Z</time>
      </trkpt>
      <trkpt lat="37.0158151165" lon="-2.7394203655">
        <ele>607.69</ele>
        <time>2018-11-10T11:14:21Z</time>
      </trkpt>
      <trkpt lat="37.0158078242" lon="-2.7394033503">
        <ele>607.21</ele>
        <time>2018-11-10T11:14:34Z</time>
      </trkpt>
      <trkpt lat="37.0157951675" lon="-2.7393797971">
        <ele>608.17</ele>
        <time>2018-11-10T11:14:52Z</time>
      </trkpt>
      <trkpt lat="37.0157742128" lon="-2.7393803839">
        <ele>611.06</ele>
        <time>2018-11-10T11:15:13Z</time>
      </trkpt>
      <trkpt lat="37.0157864504" lon="-2.7393734269">
        <ele>610.57</ele>
        <time>2018-11-10T11:15:30Z</time>
      </trkpt>
      <trkpt lat="37.0157864504" lon="-2.7393694874">
        <ele>609.61</ele>
        <time>2018-11-10T11:15:46Z</time>
      </trkpt>
      <trkpt lat="37.0157866180" lon="-2.7394036856">
        <ele>607.69</ele>
        <time>2018-11-10T11:16:03Z</time>
      </trkpt>
      <trkpt lat="37.0157848578" lon="-2.7393839043">
        <ele>606.73</ele>
        <time>2018-11-10T11:16:21Z</time>
      </trkpt>
      <trkpt lat="37.0157851093" lon="-2.7394053619">
        <ele>605.29</ele>
        <time>2018-11-10T11:16:43Z</time>
      </trkpt>
      <trkpt lat="37.0157870371" lon="-2.7393926214">
        <ele>605.77</ele>
        <time>2018-11-10T11:17:00Z</time>
      </trkpt>
      <trkpt lat="37.0157887135" lon="-2.7394076250">
        <ele>609.13</ele>
        <time>2018-11-10T11:17:16Z</time>
      </trkpt>
      <trkpt lat="37.0157776494" lon="-2.7394080441">
        <ele>611.06</ele>
        <time>2018-11-10T11:17:35Z</time>
      </trkpt>
      <trkpt lat="37.0157875400" lon="-2.7394130733">
        <ele>608.17</ele>
        <time>2018-11-10T11:17:52Z</time>
      </trkpt>
      <trkpt lat="37.0157965086" lon="-2.7393823117">
        <ele>607.69</ele>
        <time>2018-11-10T11:18:09Z</time>
      </trkpt>
      <trkpt lat="37.0157810021" lon="-2.7393743489">
        <ele>608.17</ele>
        <time>2018-11-10T11:18:24Z</time>
      </trkpt>
      <trkpt lat="37.0157940779" lon="-2.7394112293">
        <ele>607.69</ele>
        <time>2018-11-10T11:18:40Z</time>
      </trkpt>
      <trkpt lat="37.0158074889" lon="-2.7393938787">
        <ele>606.25</ele>
        <time>2018-11-10T11:18:59Z</time>
      </trkpt>
      <trkpt lat="37.0157967601" lon="-2.7394136600">
        <ele>607.21</ele>
        <time>2018-11-10T11:19:14Z</time>
      </trkpt>
      <trkpt lat="37.0158139430" lon="-2.7394284960">
        <ele>608.17</ele>
        <time>2018-11-10T11:19:20Z</time>
      </trkpt>
      <trkpt lat="37.0158471353" lon="-2.7394626942">
        <ele>610.57</ele>
        <time>2018-11-10T11:19:29Z</time>
      </trkpt>
      <trkpt lat="37.0159834251" lon="-2.7395326830">
        <ele>612.50</ele>
        <time>2018-11-10T11:19:38Z</time>
      </trkpt>
      <trkpt lat="37.0161777176" lon="-2.7396253869">
        <ele>614.42</ele>
        <time>2018-11-10T11:19:48Z</time>
      </trkpt>
      <trkpt lat="37.0163632091" lon="-2.7397315856">
        <ele>616.82</ele>
        <time>2018-11-10T11:19:58Z</time>
      </trkpt>
      <trkpt lat="37.0165244769" lon="-2.7398204338">
        <ele>617.30</ele>
        <time>2018-11-10T11:20:07Z</time>
      </trkpt>
      <trkpt lat="37.0166887622" lon="-2.7399178315">
        <ele>619.23</ele>
        <time>2018-11-10T11:20:16Z</time>
      </trkpt>
      <trkpt lat="37.0168740861" lon="-2.7400293108">
        <ele>619.23</ele>
        <time>2018-11-10T11:20:26Z</time>
      </trkpt>
      <trkpt lat="37.0170367789" lon="-2.7401370183">
        <ele>620.19</ele>
        <time>2018-11-10T11:20:35Z</time>
      </trkpt>
      <trkpt lat="37.0172323287" lon="-2.7403006330">
        <ele>621.63</ele>
        <time>2018-11-10T11:20:46Z</time>
      </trkpt>
      <trkpt lat="37.0174014755" lon="-2.7404846158">
        <ele>622.59</ele>
        <time>2018-11-10T11:20:56Z</time>
      </trkpt>
      <trkpt lat="37.0175422914" lon="-2.7407035511">
        <ele>622.59</ele>
        <time>2018-11-10T11:21:06Z</time>
      </trkpt>
      <trkpt lat="37.0176621526" lon="-2.7410245780">
        <ele>623.55</ele>
        <time>2018-11-10T11:21:18Z</time>
      </trkpt>
      <trkpt lat="37.0176939201" lon="-2.7412444353">
        <ele>623.07</ele>
        <time>2018-11-10T11:21:26Z</time>
      </trkpt>
      <trkpt lat="37.0176952612" lon="-2.7414967306">
        <ele>622.59</ele>
        <time>2018-11-10T11:21:35Z</time>
      </trkpt>
      <trkpt lat="37.0176593866" lon="-2.7417749260">
        <ele>622.11</ele>
        <time>2018-11-10T11:21:45Z</time>
      </trkpt>
      <trkpt lat="37.0175707899" lon="-2.7420294844">
        <ele>622.59</ele>
        <time>2018-11-10T11:21:55Z</time>
      </trkpt>
      <trkpt lat="37.0174245257" lon="-2.7422876470">
        <ele>623.07</ele>
        <time>2018-11-10T11:22:06Z</time>
      </trkpt>
      <trkpt lat="37.0172435604" lon="-2.7424830291">
        <ele>623.55</ele>
        <time>2018-11-10T11:22:16Z</time>
      </trkpt>
      <trkpt lat="37.0170940273" lon="-2.7425913233">
        <ele>623.55</ele>
        <time>2018-11-10T11:22:24Z</time>
      </trkpt>
      <trkpt lat="37.0168833062" lon="-2.7426935825">
        <ele>623.07</ele>
        <time>2018-11-10T11:22:34Z</time>
      </trkpt>
      <trkpt lat="37.0167094655" lon="-2.7427392639">
        <ele>624.03</ele>
        <time>2018-11-10T11:22:43Z</time>
      </trkpt>
      <trkpt lat="37.0165392291" lon="-2.7427519206">
        <ele>625.47</ele>
        <time>2018-11-10T11:22:52Z</time>
      </trkpt>
      <trkpt lat="37.0163504686" lon="-2.7427369170">
        <ele>628.84</ele>
        <time>2018-11-10T11:23:02Z</time>
      </trkpt>
      <trkpt lat="37.0161822438" lon="-2.7427125257">
        <ele>630.28</ele>
        <time>2018-11-10T11:23:12Z</time>
      </trkpt>
      <trkpt lat="37.0159667451" lon="-2.7426535171">
        <ele>632.68</ele>
        <time>2018-11-10T11:23:24Z</time>
      </trkpt>
      <trkpt lat="37.0158006996" lon="-2.7425818518">
        <ele>633.65</ele>
        <time>2018-11-10T11:23:34Z</time>
      </trkpt>
      <trkpt lat="37.0156318881" lon="-2.7425129525">
        <ele>635.57</ele>
        <time>2018-11-10T11:23:45Z</time>
      </trkpt>
      <trkpt lat="37.0156225003" lon="-2.7425101027">
        <ele>635.57</ele>
        <time>2018-11-10T11:23:46Z</time>
      </trkpt>
      <trkpt lat="37.0154635794" lon="-2.7424303908">
        <ele>636.05</ele>
        <time>2018-11-10T11:23:57Z</time>
      </trkpt>
      <trkpt lat="37.0153127052" lon="-2.7423613239">
        <ele>637.49</ele>
        <time>2018-11-10T11:24:07Z</time>
      </trkpt>
      <trkpt lat="37.0151730627" lon="-2.7422952745">
        <ele>637.97</ele>
        <time>2018-11-10T11:24:16Z</time>
      </trkpt>
      <trkpt lat="37.0150452387" lon="-2.7422261238">
        <ele>638.93</ele>
        <time>2018-11-10T11:24:24Z</time>
      </trkpt>
      <trkpt lat="37.0148780197" lon="-2.7421512734">
        <ele>640.38</ele>
        <time>2018-11-10T11:24:34Z</time>
      </trkpt>
      <trkpt lat="37.0147753414" lon="-2.7421045024">
        <ele>641.34</ele>
        <time>2018-11-10T11:24:41Z</time>
      </trkpt>
      <trkpt lat="37.0146512892" lon="-2.7420506068">
        <ele>642.30</ele>
        <time>2018-11-10T11:24:50Z</time>
      </trkpt>
      <trkpt lat="37.0144612715" lon="-2.7419490181">
        <ele>645.18</ele>
        <time>2018-11-10T11:25:01Z</time>
      </trkpt>
      <trkpt lat="37.0142852515" lon="-2.7419137303">
        <ele>647.10</ele>
        <time>2018-11-10T11:25:10Z</time>
      </trkpt>
      <trkpt lat="37.0141232293" lon="-2.7418923564">
        <ele>648.55</ele>
        <time>2018-11-10T11:25:20Z</time>
      </trkpt>
      <trkpt lat="37.0140003506" lon="-2.7418966312">
        <ele>649.03</ele>
        <time>2018-11-10T11:25:29Z</time>
      </trkpt>
      <trkpt lat="37.0138514042" lon="-2.7419467550">
        <ele>650.47</ele>
        <time>2018-11-10T11:25:39Z</time>
      </trkpt>
      <trkpt lat="37.0136977639" lon="-2.7420124691">
        <ele>651.43</ele>
        <time>2018-11-10T11:25:48Z</time>
      </trkpt>
      <trkpt lat="37.0135862846" lon="-2.7420791052">
        <ele>652.39</ele>
        <time>2018-11-10T11:25:56Z</time>
      </trkpt>
      <trkpt lat="37.0135683473" lon="-2.7420868166">
        <ele>652.39</ele>
        <time>2018-11-10T11:26:03Z</time>
      </trkpt>
      <trkpt lat="37.0135698561" lon="-2.7420898341">
        <ele>651.91</ele>
        <time>2018-11-10T11:26:16Z</time>
      </trkpt>
      <trkpt lat="37.0135546010" lon="-2.7420915943">
        <ele>652.39</ele>
        <time>2018-11-10T11:26:29Z</time>
      </trkpt>
      <trkpt lat="37.0135008730" lon="-2.7421397064">
        <ele>653.35</ele>
        <time>2018-11-10T11:26:33Z</time>
      </trkpt>
      <trkpt lat="37.0133385994" lon="-2.7422756609">
        <ele>654.31</ele>
        <time>2018-11-10T11:26:42Z</time>
      </trkpt>
      <trkpt lat="37.0132454764" lon="-2.7424805984">
        <ele>655.76</ele>
        <time>2018-11-10T11:26:51Z</time>
      </trkpt>
      <trkpt lat="37.0131453965" lon="-2.7427354082">
        <ele>658.16</ele>
        <time>2018-11-10T11:27:02Z</time>
      </trkpt>
      <trkpt lat="37.0131113660" lon="-2.7428416070">
        <ele>659.12</ele>
        <time>2018-11-10T11:27:10Z</time>
      </trkpt>
      <trkpt lat="37.0131045766" lon="-2.7428567782">
        <ele>659.12</ele>
        <time>2018-11-10T11:27:11Z</time>
      </trkpt>
      <trkpt lat="37.0129431412" lon="-2.7429482248">
        <ele>660.56</ele>
        <time>2018-11-10T11:27:21Z</time>
      </trkpt>
      <trkpt lat="37.0128857251" lon="-2.7429592051">
        <ele>661.04</ele>
        <time>2018-11-10T11:27:27Z</time>
      </trkpt>
      <trkpt lat="37.0128001459" lon="-2.7428964246">
        <ele>661.04</ele>
        <time>2018-11-10T11:27:33Z</time>
      </trkpt>
      <trkpt lat="37.0125600882" lon="-2.7428046428">
        <ele>659.12</ele>
        <time>2018-11-10T11:27:41Z</time>
      </trkpt>
      <trkpt lat="37.0123822242" lon="-2.7427789941">
        <ele>657.68</ele>
        <time>2018-11-10T11:27:47Z</time>
      </trkpt>
      <trkpt lat="37.0123673882" lon="-2.7428060677">
        <ele>657.68</ele>
        <time>2018-11-10T11:27:48Z</time>
      </trkpt>
      <trkpt lat="37.0123620238" lon="-2.7428550180">
        <ele>657.68</ele>
        <time>2018-11-10T11:27:49Z</time>
      </trkpt>
      <trkpt lat="37.0123772789" lon="-2.7428877912">
        <ele>657.68</ele>
        <time>2018-11-10T11:27:50Z</time>
      </trkpt>
      <trkpt lat="37.0123924501" lon="-2.7429047227">
        <ele>657.68</ele>
        <time>2018-11-10T11:27:51Z</time>
      </trkpt>
      <trkpt lat="37.0124094654" lon="-2.7429246716">
        <ele>658.16</ele>
        <time>2018-11-10T11:27:52Z</time>
      </trkpt>
      <trkpt lat="37.0124286599" lon="-2.7429427765">
        <ele>658.64</ele>
        <time>2018-11-10T11:27:53Z</time>
      </trkpt>
      <trkpt lat="37.0126153249" lon="-2.7431181259">
        <ele>661.52</ele>
        <time>2018-11-10T11:28:04Z</time>
      </trkpt>
      <trkpt lat="37.0127036702" lon="-2.7432186250">
        <ele>663.45</ele>
        <time>2018-11-10T11:28:10Z</time>
      </trkpt>
      <trkpt lat="37.0127106272" lon="-2.7432450280">
        <ele>663.45</ele>
        <time>2018-11-10T11:28:11Z</time>
      </trkpt>
      <trkpt lat="37.0127124712" lon="-2.7432725206">
        <ele>663.45</ele>
        <time>2018-11-10T11:28:12Z</time>
      </trkpt>
      <trkpt lat="37.0127195958" lon="-2.7433482092">
        <ele>663.45</ele>
        <time>2018-11-10T11:28:15Z</time>
      </trkpt>
      <trkpt lat="37.0127315819" lon="-2.7433641348">
        <ele>663.45</ele>
        <time>2018-11-10T11:28:16Z</time>
      </trkpt>
      <trkpt lat="37.0127867348" lon="-2.7434545755">
        <ele>664.41</ele>
        <time>2018-11-10T11:28:24Z</time>
      </trkpt>
      <trkpt lat="37.0127723180" lon="-2.7434666455">
        <ele>663.93</ele>
        <time>2018-11-10T11:28:34Z</time>
      </trkpt>
      <trkpt lat="37.0127579849" lon="-2.7434723452">
        <ele>662.97</ele>
        <time>2018-11-10T11:28:43Z</time>
      </trkpt>
      <trkpt lat="37.0127630979" lon="-2.7434574254">
        <ele>661.52</ele>
        <time>2018-11-10T11:29:05Z</time>
      </trkpt>
      <trkpt lat="37.0127919316" lon="-2.7434788831">
        <ele>661.52</ele>
        <time>2018-11-10T11:29:31Z</time>
      </trkpt>
      <trkpt lat="37.0127872378" lon="-2.7434828226">
        <ele>663.45</ele>
        <time>2018-11-10T11:29:54Z</time>
      </trkpt>
      <trkpt lat="37.0127792750" lon="-2.7434968203">
        <ele>662.49</ele>
        <time>2018-11-10T11:30:19Z</time>
      </trkpt>
      <trkpt lat="37.0127755031" lon="-2.7434890252">
        <ele>659.12</ele>
        <time>2018-11-10T11:30:40Z</time>
      </trkpt>
      <trkpt lat="37.0127695519" lon="-2.7434799727">
        <ele>659.60</ele>
        <time>2018-11-10T11:30:57Z</time>
      </trkpt>
      <trkpt lat="37.0127579011" lon="-2.7434677351">
        <ele>659.12</ele>
        <time>2018-11-10T11:31:22Z</time>
      </trkpt>
      <trkpt lat="37.0127633493" lon="-2.7434523124">
        <ele>662.49</ele>
        <time>2018-11-10T11:31:50Z</time>
      </trkpt>
      <trkpt lat="37.0127735753" lon="-2.7434705012">
        <ele>662.97</ele>
        <time>2018-11-10T11:32:14Z</time>
      </trkpt>
      <trkpt lat="37.0127687976" lon="-2.7434640471">
        <ele>663.45</ele>
        <time>2018-11-10T11:32:34Z</time>
      </trkpt>
      <trkpt lat="37.0127554704" lon="-2.7434667293">
        <ele>661.04</ele>
        <time>2018-11-10T11:32:55Z</time>
      </trkpt>
      <trkpt lat="37.0127571467" lon="-2.7434835769">
        <ele>659.60</ele>
        <time>2018-11-10T11:33:15Z</time>
      </trkpt>
      <trkpt lat="37.0127633493" lon="-2.7434958983">
        <ele>659.12</ele>
        <time>2018-11-10T11:33:38Z</time>
      </trkpt>
      <trkpt lat="37.0127698872" lon="-2.7434832416">
        <ele>661.52</ele>
        <time>2018-11-10T11:34:00Z</time>
      </trkpt>
      <trkpt lat="37.0127678756" lon="-2.7434772905">
        <ele>662.97</ele>
        <time>2018-11-10T11:34:19Z</time>
      </trkpt>
      <trkpt lat="37.0127812866" lon="-2.7434824873">
        <ele>661.04</ele>
        <time>2018-11-10T11:34:39Z</time>
      </trkpt>
      <trkpt lat="37.0127572306" lon="-2.7434683219">
        <ele>658.16</ele>
        <time>2018-11-10T11:34:59Z</time>
      </trkpt>
      <trkpt lat="37.0127429813" lon="-2.7434747759">
        <ele>661.04</ele>
        <time>2018-11-10T11:35:23Z</time>
      </trkpt>
      <trkpt lat="37.0127586555" lon="-2.7434525639">
        <ele>662.49</ele>
        <time>2018-11-10T11:35:52Z</time>
      </trkpt>
      <trkpt lat="37.0127580687" lon="-2.7434648015">
        <ele>662.97</ele>
        <time>2018-11-10T11:36:19Z</time>
      </trkpt>
      <trkpt lat="37.0127570629" lon="-2.7434648015">
        <ele>664.41</ele>
        <time>2018-11-10T11:36:42Z</time>
      </trkpt>
      <trkpt lat="37.0127796941" lon="-2.7434423380">
        <ele>664.41</ele>
        <time>2018-11-10T11:37:03Z</time>
      </trkpt>
      <trkpt lat="37.0127683785" lon="-2.7434725966">
        <ele>662.01</ele>
        <time>2018-11-10T11:37:27Z</time>
      </trkpt>
      <trkpt lat="37.0127516985" lon="-2.7434824873">
        <ele>659.60</ele>
        <time>2018-11-10T11:37:45Z</time>
      </trkpt>
      <trkpt lat="37.0127558894" lon="-2.7434886899">
        <ele>658.64</ele>
        <time>2018-11-10T11:38:10Z</time>
      </trkpt>
      <trkpt lat="37.0127555542" lon="-2.7434787992">
        <ele>659.60</ele>
        <time>2018-11-10T11:38:33Z</time>
      </trkpt>
      <trkpt lat="37.0127628464" lon="-2.7434730995">
        <ele>662.49</ele>
        <time>2018-11-10T11:38:58Z</time>
      </trkpt>
      <trkpt lat="37.0127752516" lon="-2.7434637956">
        <ele>662.97</ele>
        <time>2018-11-10T11:39:30Z</time>
      </trkpt>
      <trkpt lat="37.0127599128" lon="-2.7434467804">
        <ele>661.52</ele>
        <time>2018-11-10T11:40:03Z</time>
      </trkpt>
      <trkpt lat="37.0127715636" lon="-2.7434531506">
        <ele>660.56</ele>
        <time>2018-11-10T11:40:32Z</time>
      </trkpt>
      <trkpt lat="37.0127685461" lon="-2.7434822358">
        <ele>660.08</ele>
        <time>2018-11-10T11:40:51Z</time>
      </trkpt>
      <trkpt lat="37.0127704740" lon="-2.7434797212">
        <ele>660.56</ele>
        <time>2018-11-10T11:41:11Z</time>
      </trkpt>
      <trkpt lat="37.0127590746" lon="-2.7434698306">
        <ele>660.56</ele>
        <time>2018-11-10T11:41:37Z</time>
      </trkpt>
      <trkpt lat="37.0127739944" lon="-2.7434648853">
        <ele>662.01</ele>
        <time>2018-11-10T11:41:56Z</time>
      </trkpt>
      <trkpt lat="37.0127774309" lon="-2.7434601076">
        <ele>663.93</ele>
        <time>2018-11-10T11:42:16Z</time>
      </trkpt>
      <trkpt lat="37.0127657801" lon="-2.7434491273">
        <ele>665.37</ele>
        <time>2018-11-10T11:42:40Z</time>
      </trkpt>
      <trkpt lat="37.0127609186" lon="-2.7434613649">
        <ele>665.37</ele>
        <time>2018-11-10T11:43:02Z</time>
      </trkpt>
      <trkpt lat="37.0127690490" lon="-2.7434491273">
        <ele>664.89</ele>
        <time>2018-11-10T11:43:28Z</time>
      </trkpt>
      <trkpt lat="37.0127563924" lon="-2.7434525639">
        <ele>663.93</ele>
        <time>2018-11-10T11:43:46Z</time>
      </trkpt>
      <trkpt lat="37.0127620082" lon="-2.7434680704">
        <ele>662.49</ele>
        <time>2018-11-10T11:44:14Z</time>
      </trkpt>
      <trkpt lat="37.0127801970" lon="-2.7434713393">
        <ele>661.04</ele>
        <time>2018-11-10T11:44:42Z</time>
      </trkpt>
      <trkpt lat="37.0127786882" lon="-2.7434574254">
        <ele>662.49</ele>
        <time>2018-11-10T11:45:10Z</time>
      </trkpt>
      <trkpt lat="37.0127643552" lon="-2.7434580121">
        <ele>662.01</ele>
        <time>2018-11-10T11:45:44Z</time>
      </trkpt>
      <trkpt lat="37.0127646066" lon="-2.7434512228">
        <ele>666.33</ele>
        <time>2018-11-10T11:46:23Z</time>
      </trkpt>
      <trkpt lat="37.0127657801" lon="-2.7434642985">
        <ele>667.77</ele>
        <time>2018-11-10T11:46:46Z</time>
      </trkpt>
      <trkpt lat="37.0127683785" lon="-2.7434746921">
        <ele>668.25</ele>
        <time>2018-11-10T11:47:12Z</time>
      </trkpt>
      <trkpt lat="37.0127632655" lon="-2.7434600238">
        <ele>667.29</ele>
        <time>2018-11-10T11:47:46Z</time>
      </trkpt>
      <trkpt lat="37.0127638523" lon="-2.7434567548">
        <ele>665.85</ele>
        <time>2018-11-10T11:48:20Z</time>
      </trkpt>
      <trkpt lat="37.0127659477" lon="-2.7434637118">
        <ele>667.29</ele>
        <time>2018-11-10T11:48:51Z</time>
      </trkpt>
      <trkpt lat="37.0127578173" lon="-2.7434823196">
        <ele>666.81</ele>
        <time>2018-11-10T11:49:23Z</time>
      </trkpt>
      <trkpt lat="37.0127535425" lon="-2.7434582636">
        <ele>664.41</ele>
        <time>2018-11-10T11:49:54Z</time>
      </trkpt>
      <trkpt lat="37.0127639361" lon="-2.7434532344">
        <ele>664.89</ele>
        <time>2018-11-10T11:50:24Z</time>
      </trkpt>
      <trkpt lat="37.0127676241" lon="-2.7434516419">
        <ele>666.33</ele>
        <time>2018-11-10T11:50:50Z</time>
      </trkpt>
      <trkpt lat="37.0127696358" lon="-2.7434622031">
        <ele>666.33</ele>
        <time>2018-11-10T11:51:17Z</time>
      </trkpt>
      <trkpt lat="37.0127785206" lon="-2.7434471995">
        <ele>664.89</ele>
        <time>2018-11-10T11:51:41Z</time>
      </trkpt>
      <trkpt lat="37.0127759222" lon="-2.7434411645">
        <ele>666.81</ele>
        <time>2018-11-10T11:52:09Z</time>
      </trkpt>
      <trkpt lat="37.0127755869" lon="-2.7434297651">
        <ele>666.81</ele>
        <time>2018-11-10T11:52:32Z</time>
      </trkpt>
      <trkpt lat="37.0127646066" lon="-2.7434405778">
        <ele>666.81</ele>
        <time>2018-11-10T11:53:05Z</time>
      </trkpt>
      <trkpt lat="37.0127599128" lon="-2.7434611972">
        <ele>665.85</ele>
        <time>2018-11-10T11:53:28Z</time>
      </trkpt>
      <trkpt lat="37.0127620082" lon="-2.7434586827">
        <ele>666.33</ele>
        <time>2018-11-10T11:53:45Z</time>
      </trkpt>
      <trkpt lat="37.0127821248" lon="-2.7434587665">
        <ele>665.37</ele>
        <time>2018-11-10T11:54:03Z</time>
      </trkpt>
      <trkpt lat="37.0127776824" lon="-2.7434627060">
        <ele>667.29</ele>
        <time>2018-11-10T11:54:19Z</time>
      </trkpt>
      <trkpt lat="37.0127594098" lon="-2.7434648015">
        <ele>666.81</ele>
        <time>2018-11-10T11:54:40Z</time>
      </trkpt>
      <trkpt lat="37.0127648581" lon="-2.7434709202">
        <ele>665.85</ele>
        <time>2018-11-10T11:55:03Z</time>
      </trkpt>
      <trkpt lat="37.0127678756" lon="-2.7434579283">
        <ele>663.93</ele>
        <time>2018-11-10T11:55:22Z</time>
      </trkpt>
      <trkpt lat="37.0127573144" lon="-2.7434620354">
        <ele>664.89</ele>
        <time>2018-11-10T11:55:38Z</time>
      </trkpt>
      <trkpt lat="37.0127645228" lon="-2.7434640471">
        <ele>664.89</ele>
        <time>2018-11-10T11:55:55Z</time>
      </trkpt>
      <trkpt lat="37.0127600804" lon="-2.7434577607">
        <ele>664.89</ele>
        <time>2018-11-10T11:56:17Z</time>
      </trkpt>
      <trkpt lat="37.0127701387" lon="-2.7434637956">
        <ele>662.97</ele>
        <time>2018-11-10T11:56:35Z</time>
      </trkpt>
      <trkpt lat="37.0127660315" lon="-2.7434620354">
        <ele>663.45</ele>
        <time>2018-11-10T11:56:52Z</time>
      </trkpt>
      <trkpt lat="37.0127593260" lon="-2.7434601076">
        <ele>663.45</ele>
        <time>2018-11-10T11:57:04Z</time>
      </trkpt>
      <trkpt lat="37.0127545483" lon="-2.7434737701">
        <ele>662.97</ele>
        <time>2018-11-10T11:57:23Z</time>
      </trkpt>
      <trkpt lat="37.0127673727" lon="-2.7434549108">
        <ele>660.56</ele>
        <time>2018-11-10T11:57:44Z</time>
      </trkpt>
      <trkpt lat="37.0127553865" lon="-2.7434634604">
        <ele>662.97</ele>
        <time>2018-11-10T11:57:59Z</time>
      </trkpt>
      <trkpt lat="37.0127467532" lon="-2.7434659749">
        <ele>663.93</ele>
        <time>2018-11-10T11:58:20Z</time>
      </trkpt>
      <trkpt lat="37.0127513632" lon="-2.7434736025">
        <ele>663.45</ele>
        <time>2018-11-10T11:58:42Z</time>
      </trkpt>
      <trkpt lat="37.0127716474" lon="-2.7434710041">
        <ele>663.45</ele>
        <time>2018-11-10T11:59:00Z</time>
      </trkpt>
      <trkpt lat="37.0127599966" lon="-2.7434906177">
        <ele>664.89</ele>
        <time>2018-11-10T11:59:23Z</time>
      </trkpt>
      <trkpt lat="37.0127657801" lon="-2.7434922941">
        <ele>663.45</ele>
        <time>2018-11-10T11:59:42Z</time>
      </trkpt>
      <trkpt lat="37.0127693843" lon="-2.7434968203">
        <ele>660.08</ele>
        <time>2018-11-10T11:59:59Z</time>
      </trkpt>
      <trkpt lat="37.0127754193" lon="-2.7434761170">
        <ele>660.08</ele>
        <time>2018-11-10T12:00:14Z</time>
      </trkpt>
      <trkpt lat="37.0127608348" lon="-2.7434827387">
        <ele>660.08</ele>
        <time>2018-11-10T12:00:30Z</time>
      </trkpt>
      <trkpt lat="37.0127656963" lon="-2.7434854209">
        <ele>657.68</ele>
        <time>2018-11-10T12:00:50Z</time>
      </trkpt>
      <trkpt lat="37.0127608348" lon="-2.7434601914">
        <ele>661.52</ele>
        <time>2018-11-10T12:01:08Z</time>
      </trkpt>
      <trkpt lat="37.0127668697" lon="-2.7434737701">
        <ele>662.49</ele>
        <time>2018-11-10T12:01:25Z</time>
      </trkpt>
      <trkpt lat="37.0127798617" lon="-2.7434715070">
        <ele>663.45</ele>
        <time>2018-11-10T12:01:45Z</time>
      </trkpt>
      <trkpt lat="37.0127637684" lon="-2.7434564196">
        <ele>664.41</ele>
        <time>2018-11-10T12:02:02Z</time>
      </trkpt>
      <trkpt lat="37.0127749164" lon="-2.7434736863">
        <ele>662.01</ele>
        <time>2018-11-10T12:02:29Z</time>
      </trkpt>
      <trkpt lat="37.0127817895" lon="-2.7434711717">
        <ele>662.49</ele>
        <time>2018-11-10T12:02:54Z</time>
      </trkpt>
      <trkpt lat="37.0127434004" lon="-2.7434578445">
        <ele>663.45</ele>
        <time>2018-11-10T12:03:18Z</time>
      </trkpt>
      <trkpt lat="37.0127605833" lon="-2.7434787992">
        <ele>664.89</ele>
        <time>2018-11-10T12:03:47Z</time>
      </trkpt>
      <trkpt lat="37.0127791073" lon="-2.7434798889">
        <ele>665.37</ele>
        <time>2018-11-10T12:04:11Z</time>
      </trkpt>
      <trkpt lat="37.0127573982" lon="-2.7434561681">
        <ele>667.29</ele>
        <time>2018-11-10T12:04:50Z</time>
      </trkpt>
      <trkpt lat="37.0127493516" lon="-2.7434518933">
        <ele>668.73</ele>
        <time>2018-11-10T12:05:25Z</time>
      </trkpt>
      <trkpt lat="37.0127572306" lon="-2.7434692439">
        <ele>667.29</ele>
        <time>2018-11-10T12:06:03Z</time>
      </trkpt>
      <trkpt lat="37.0127664506" lon="-2.7434585989">
        <ele>664.41</ele>
        <time>2018-11-10T12:06:36Z</time>
      </trkpt>
      <trkpt lat="37.0127585717" lon="-2.7434778772">
        <ele>664.89</ele>
        <time>2018-11-10T12:07:05Z</time>
      </trkpt>
      <trkpt lat="37.0127584878" lon="-2.7434873488">
        <ele>662.97</ele>
        <time>2018-11-10T12:07:37Z</time>
      </trkpt>
      <trkpt lat="37.0127724856" lon="-2.7434798889">
        <ele>662.01</ele>
        <time>2018-11-10T12:08:04Z</time>
      </trkpt>
      <trkpt lat="37.0127684623" lon="-2.7434651367">
        <ele>664.89</ele>
        <time>2018-11-10T12:08:34Z</time>
      </trkpt>
      <trkpt lat="37.0127551351" lon="-2.7434475347">
        <ele>665.85</ele>
        <time>2018-11-10T12:09:05Z</time>
      </trkpt>
      <trkpt lat="37.0127576496" lon="-2.7434879355">
        <ele>664.41</ele>
        <time>2018-11-10T12:09:38Z</time>
      </trkpt>
      <trkpt lat="37.0127781853" lon="-2.7434948087">
        <ele>662.97</ele>
        <time>2018-11-10T12:10:15Z</time>
      </trkpt>
      <trkpt lat="37.0127519500" lon="-2.7434917912">
        <ele>662.01</ele>
        <time>2018-11-10T12:10:53Z</time>
      </trkpt>
      <trkpt lat="37.0127583202" lon="-2.7434876002">
        <ele>663.93</ele>
        <time>2018-11-10T12:11:23Z</time>
      </trkpt>
      <trkpt lat="37.0127496868" lon="-2.7434693277">
        <ele>666.33</ele>
        <time>2018-11-10T12:11:51Z</time>
      </trkpt>
      <trkpt lat="37.0127522014" lon="-2.7434715908">
        <ele>662.97</ele>
        <time>2018-11-10T12:12:19Z</time>
      </trkpt>
      <trkpt lat="37.0127615053" lon="-2.7434745245">
        <ele>664.89</ele>
        <time>2018-11-10T12:12:41Z</time>
      </trkpt>
      <trkpt lat="37.0127744973" lon="-2.7434863430">
        <ele>663.45</ele>
        <time>2018-11-10T12:13:15Z</time>
      </trkpt>
      <trkpt lat="37.0127621759" lon="-2.7434555814">
        <ele>664.89</ele>
        <time>2018-11-10T12:13:44Z</time>
      </trkpt>
      <trkpt lat="37.0127576496" lon="-2.7434744406">
        <ele>665.37</ele>
        <time>2018-11-10T12:14:10Z</time>
      </trkpt>
      <trkpt lat="37.0127455797" lon="-2.7434658073">
        <ele>666.33</ele>
        <time>2018-11-10T12:14:35Z</time>
      </trkpt>
      <trkpt lat="37.0127519500" lon="-2.7434508037">
        <ele>667.29</ele>
        <time>2018-11-10T12:15:02Z</time>
      </trkpt>
      <trkpt lat="37.0127689652" lon="-2.7434713393">
        <ele>664.89</ele>
        <time>2018-11-10T12:15:26Z</time>
      </trkpt>
      <trkpt lat="37.0127568115" lon="-2.7434671484">
        <ele>662.49</ele>
        <time>2018-11-10T12:15:48Z</time>
      </trkpt>
      <trkpt lat="37.0127550513" lon="-2.7434898634">
        <ele>660.56</ele>
        <time>2018-11-10T12:16:10Z</time>
      </trkpt>
      <trkpt lat="37.0127563924" lon="-2.7434784640">
        <ele>663.93</ele>
        <time>2018-11-10T12:16:31Z</time>
      </trkpt>
      <trkpt lat="37.0127640199" lon="-2.7434822358">
        <ele>665.85</ele>
        <time>2018-11-10T12:16:54Z</time>
      </trkpt>
      <trkpt lat="37.0127887465" lon="-2.7434723452">
        <ele>664.89</ele>
        <time>2018-11-10T12:17:15Z</time>
      </trkpt>
      <trkpt lat="37.0127718151" lon="-2.7434719261">
        <ele>666.81</ele>
        <time>2018-11-10T12:17:32Z</time>
      </trkpt>
      <trkpt lat="37.0127601642" lon="-2.7434665617">
        <ele>665.37</ele>
        <time>2018-11-10T12:17:41Z</time>
      </trkpt>
      <trkpt lat="37.0127465017" lon="-2.7434651367">
        <ele>664.89</ele>
        <time>2018-11-10T12:17:53Z</time>
      </trkpt>
      <trkpt lat="37.0127667021" lon="-2.7434834931">
        <ele>665.85</ele>
        <time>2018-11-10T12:18:10Z</time>
      </trkpt>
      <trkpt lat="37.0127773471" lon="-2.7434746083">
        <ele>664.89</ele>
        <time>2018-11-10T12:18:24Z</time>
      </trkpt>
      <trkpt lat="37.0127991401" lon="-2.7434627898">
        <ele>664.89</ele>
        <time>2018-11-10T12:18:32Z</time>
      </trkpt>
      <trkpt lat="37.0127970446" lon="-2.7434507199">
        <ele>664.41</ele>
        <time>2018-11-10T12:18:41Z</time>
      </trkpt>
      <trkpt lat="37.0127914287" lon="-2.7434407454">
        <ele>663.93</ele>
        <time>2018-11-10T12:18:42Z</time>
      </trkpt>
      <trkpt lat="37.0127838012" lon="-2.7434240654">
        <ele>663.93</ele>
        <time>2018-11-10T12:18:43Z</time>
      </trkpt>
      <trkpt lat="37.0127742458" lon="-2.7434058767">
        <ele>663.93</ele>
        <time>2018-11-10T12:18:44Z</time>
      </trkpt>
      <trkpt lat="37.0127672050" lon="-2.7433897834">
        <ele>663.93</ele>
        <time>2018-11-10T12:18:45Z</time>
      </trkpt>
      <trkpt lat="37.0127563085" lon="-2.7433639672">
        <ele>663.93</ele>
        <time>2018-11-10T12:18:46Z</time>
      </trkpt>
      <trkpt lat="37.0126366988" lon="-2.7431935631">
        <ele>662.97</ele>
        <time>2018-11-10T12:18:51Z</time>
      </trkpt>
      <trkpt lat="37.0124735869" lon="-2.7430338040">
        <ele>661.04</ele>
        <time>2018-11-10T12:18:56Z</time>
      </trkpt>
      <trkpt lat="37.0123420749" lon="-2.7428390086">
        <ele>659.60</ele>
        <time>2018-11-10T12:19:02Z</time>
      </trkpt>
      <trkpt lat="37.0123632811" lon="-2.7427092567">
        <ele>660.08</ele>
        <time>2018-11-10T12:19:06Z</time>
      </trkpt>
      <trkpt lat="37.0123802964" lon="-2.7426980250">
        <ele>660.08</ele>
        <time>2018-11-10T12:19:07Z</time>
      </trkpt>
      <trkpt lat="37.0123952162" lon="-2.7426976059">
        <ele>660.08</ele>
        <time>2018-11-10T12:19:08Z</time>
      </trkpt>
      <trkpt lat="37.0124151651" lon="-2.7427020483">
        <ele>660.08</ele>
        <time>2018-11-10T12:19:09Z</time>
      </trkpt>
      <trkpt lat="37.0124371257" lon="-2.7427094243">
        <ele>660.08</ele>
        <time>2018-11-10T12:19:10Z</time>
      </trkpt>
      <trkpt lat="37.0126289874" lon="-2.7427732106">
        <ele>661.52</ele>
        <time>2018-11-10T12:19:19Z</time>
      </trkpt>
      <trkpt lat="37.0127881598" lon="-2.7428048104">
        <ele>662.49</ele>
        <time>2018-11-10T12:19:27Z</time>
      </trkpt>
      <trkpt lat="37.0129661076" lon="-2.7428328060">
        <ele>662.49</ele>
        <time>2018-11-10T12:19:36Z</time>
      </trkpt>
      <trkpt lat="37.0130687859" lon="-2.7429715265">
        <ele>662.01</ele>
        <time>2018-11-10T12:19:43Z</time>
      </trkpt>
      <trkpt lat="37.0130592305" lon="-2.7431241609">
        <ele>662.97</ele>
        <time>2018-11-10T12:19:49Z</time>
      </trkpt>
      <trkpt lat="37.0130592305" lon="-2.7433637995">
        <ele>664.41</ele>
        <time>2018-11-10T12:19:59Z</time>
      </trkpt>
      <trkpt lat="37.0130840410" lon="-2.7435465250">
        <ele>665.85</ele>
        <time>2018-11-10T12:20:07Z</time>
      </trkpt>
      <trkpt lat="37.0131479949" lon="-2.7437609341">
        <ele>668.25</ele>
        <time>2018-11-10T12:20:18Z</time>
      </trkpt>
      <trkpt lat="37.0132304728" lon="-2.7439255547">
        <ele>669.22</ele>
        <time>2018-11-10T12:20:27Z</time>
      </trkpt>
      <trkpt lat="37.0133324806" lon="-2.7441043407">
        <ele>671.14</ele>
        <time>2018-11-10T12:20:38Z</time>
      </trkpt>
      <trkpt lat="37.0134481508" lon="-2.7442637645">
        <ele>672.10</ele>
        <time>2018-11-10T12:20:48Z</time>
      </trkpt>
      <trkpt lat="37.0135544334" lon="-2.7443899121">
        <ele>673.54</ele>
        <time>2018-11-10T12:20:57Z</time>
      </trkpt>
      <trkpt lat="37.0136759710" lon="-2.7445313986">
        <ele>674.02</ele>
        <time>2018-11-10T12:21:07Z</time>
      </trkpt>
      <trkpt lat="37.0137976762" lon="-2.7446720470">
        <ele>674.98</ele>
        <time>2018-11-10T12:21:17Z</time>
      </trkpt>
      <trkpt lat="37.0139128435" lon="-2.7447997034">
        <ele>675.94</ele>
        <time>2018-11-10T12:21:26Z</time>
      </trkpt>
      <trkpt lat="37.0140283462" lon="-2.7449398488">
        <ele>677.87</ele>
        <time>2018-11-10T12:21:36Z</time>
      </trkpt>
      <trkpt lat="37.0141276717" lon="-2.7450513281">
        <ele>678.83</ele>
        <time>2018-11-10T12:21:44Z</time>
      </trkpt>
      <trkpt lat="37.0142316073" lon="-2.7451758832">
        <ele>680.27</ele>
        <time>2018-11-10T12:21:52Z</time>
      </trkpt>
      <trkpt lat="37.0142942201" lon="-2.7452435251">
        <ele>680.75</ele>
        <time>2018-11-10T12:21:58Z</time>
      </trkpt>
      <trkpt lat="37.0144174341" lon="-2.7454177849">
        <ele>682.19</ele>
        <time>2018-11-10T12:22:08Z</time>
      </trkpt>
      <trkpt lat="37.0145140775" lon="-2.7455738559">
        <ele>683.63</ele>
        <time>2018-11-10T12:22:17Z</time>
      </trkpt>
      <trkpt lat="37.0146069489" lon="-2.7457466908">
        <ele>685.08</ele>
        <time>2018-11-10T12:22:26Z</time>
      </trkpt>
      <trkpt lat="37.0147167519" lon="-2.7459645364">
        <ele>686.52</ele>
        <time>2018-11-10T12:22:38Z</time>
      </trkpt>
      <trkpt lat="37.0147999842" lon="-2.7461518720">
        <ele>687.48</ele>
        <time>2018-11-10T12:22:48Z</time>
      </trkpt>
      <trkpt lat="37.0148605015" lon="-2.7463530377">
        <ele>688.92</ele>
        <time>2018-11-10T12:22:58Z</time>
      </trkpt>
      <trkpt lat="37.0149124693" lon="-2.7465529460">
        <ele>689.40</ele>
        <time>2018-11-10T12:23:08Z</time>
      </trkpt>
      <trkpt lat="37.0149473380" lon="-2.7467828616">
        <ele>690.36</ele>
        <time>2018-11-10T12:23:18Z</time>
      </trkpt>
      <trkpt lat="37.0149680413" lon="-2.7469220012">
        <ele>690.84</ele>
        <time>2018-11-10T12:23:24Z</time>
      </trkpt>
      <trkpt lat="37.0149964560" lon="-2.7471020445">
        <ele>691.33</ele>
        <time>2018-11-10T12:23:32Z</time>
      </trkpt>
      <trkpt lat="37.0150251221" lon="-2.7473338880">
        <ele>691.33</ele>
        <time>2018-11-10T12:23:41Z</time>
      </trkpt>
      <trkpt lat="37.0150639303" lon="-2.7475751191">
        <ele>691.33</ele>
        <time>2018-11-10T12:23:50Z</time>
      </trkpt>
      <trkpt lat="37.0151285548" lon="-2.7478295099">
        <ele>691.81</ele>
        <time>2018-11-10T12:23:59Z</time>
      </trkpt>
      <trkpt lat="37.0152498409" lon="-2.7481339406">
        <ele>692.29</ele>
        <time>2018-11-10T12:24:08Z</time>
      </trkpt>
      <trkpt lat="37.0153662656" lon="-2.7483325917">
        <ele>692.29</ele>
        <time>2018-11-10T12:24:16Z</time>
      </trkpt>
      <trkpt lat="37.0155629050" lon="-2.7485729009">
        <ele>692.77</ele>
        <time>2018-11-10T12:24:28Z</time>
      </trkpt>
      <trkpt lat="37.0157509949" lon="-2.7487442270">
        <ele>692.77</ele>
        <time>2018-11-10T12:24:38Z</time>
      </trkpt>
      <trkpt lat="37.0159420185" lon="-2.7488680277">
        <ele>694.21</ele>
        <time>2018-11-10T12:24:48Z</time>
      </trkpt>
      <trkpt lat="37.0161177032" lon="-2.7489555348">
        <ele>694.69</ele>
        <time>2018-11-10T12:24:57Z</time>
      </trkpt>
      <trkpt lat="37.0163096488" lon="-2.7490535192">
        <ele>695.65</ele>
        <time>2018-11-10T12:25:07Z</time>
      </trkpt>
      <trkpt lat="37.0164994150" lon="-2.7491727099">
        <ele>696.61</ele>
        <time>2018-11-10T12:25:17Z</time>
      </trkpt>
      <trkpt lat="37.0166601799" lon="-2.7493466344">
        <ele>698.05</ele>
        <time>2018-11-10T12:25:27Z</time>
      </trkpt>
      <trkpt lat="37.0167882554" lon="-2.7496102452">
        <ele>699.98</ele>
        <time>2018-11-10T12:25:39Z</time>
      </trkpt>
      <trkpt lat="37.0168387983" lon="-2.7498569246">
        <ele>701.42</ele>
        <time>2018-11-10T12:25:49Z</time>
      </trkpt>
      <trkpt lat="37.0168447495" lon="-2.7501102258">
        <ele>702.86</ele>
        <time>2018-11-10T12:25:59Z</time>
      </trkpt>
      <trkpt lat="37.0168053545" lon="-2.7503299154">
        <ele>704.30</ele>
        <time>2018-11-10T12:26:08Z</time>
      </trkpt>
      <trkpt lat="37.0167451724" lon="-2.7504963800">
        <ele>705.26</ele>
        <time>2018-11-10T12:26:15Z</time>
      </trkpt>
      <trkpt lat="37.0166501217" lon="-2.7506842185">
        <ele>706.23</ele>
        <time>2018-11-10T12:26:24Z</time>
      </trkpt>
      <trkpt lat="37.0165248122" lon="-2.7508425526">
        <ele>706.71</ele>
        <time>2018-11-10T12:26:33Z</time>
      </trkpt>
      <trkpt lat="37.0163622871" lon="-2.7509777527">
        <ele>707.19</ele>
        <time>2018-11-10T12:26:43Z</time>
      </trkpt>
      <trkpt lat="37.0161816571" lon="-2.7510689478">
        <ele>708.15</ele>
        <time>2018-11-10T12:26:53Z</time>
      </trkpt>
      <trkpt lat="37.0160111692" lon="-2.7511044871">
        <ele>708.63</ele>
        <time>2018-11-10T12:27:02Z</time>
      </trkpt>
      <trkpt lat="37.0157544315" lon="-2.7511397749">
        <ele>709.59</ele>
        <time>2018-11-10T12:27:14Z</time>
      </trkpt>
      <trkpt lat="37.0155032258" lon="-2.7511678543">
        <ele>711.03</ele>
        <time>2018-11-10T12:27:26Z</time>
      </trkpt>
      <trkpt lat="37.0152798481" lon="-2.7511949278">
        <ele>712.47</ele>
        <time>2018-11-10T12:27:37Z</time>
      </trkpt>
      <trkpt lat="37.0151251182" lon="-2.7512223367">
        <ele>713.92</ele>
        <time>2018-11-10T12:27:46Z</time>
      </trkpt>
      <trkpt lat="37.0150933508" lon="-2.7512504160">
        <ele>714.40</ele>
        <time>2018-11-10T12:27:52Z</time>
      </trkpt>
      <trkpt lat="37.0150868967" lon="-2.7512484882">
        <ele>713.44</ele>
        <time>2018-11-10T12:28:02Z</time>
      </trkpt>
      <trkpt lat="37.0150754135" lon="-2.7512425371">
        <ele>713.92</ele>
        <time>2018-11-10T12:28:18Z</time>
      </trkpt>
      <trkpt lat="37.0150965359" lon="-2.7512491588">
        <ele>711.51</ele>
        <time>2018-11-10T12:28:41Z</time>
      </trkpt>
      <trkpt lat="37.0150957815" lon="-2.7512476500">
        <ele>712.95</ele>
        <time>2018-11-10T12:29:03Z</time>
      </trkpt>
      <trkpt lat="37.0150942728" lon="-2.7512519248">
        <ele>713.44</ele>
        <time>2018-11-10T12:29:19Z</time>
      </trkpt>
      <trkpt lat="37.0150918420" lon="-2.7512425371">
        <ele>714.40</ele>
        <time>2018-11-10T12:29:28Z</time>
      </trkpt>
      <trkpt lat="37.0150809456" lon="-2.7512322273">
        <ele>714.40</ele>
        <time>2018-11-10T12:29:29Z</time>
      </trkpt>
      <trkpt lat="37.0150687080" lon="-2.7512251027">
        <ele>714.40</ele>
        <time>2018-11-10T12:29:30Z</time>
      </trkpt>
      <trkpt lat="37.0150516927" lon="-2.7512225881">
        <ele>714.40</ele>
        <time>2018-11-10T12:29:31Z</time>
      </trkpt>
      <trkpt lat="37.0150363538" lon="-2.7512247674">
        <ele>713.92</ele>
        <time>2018-11-10T12:29:32Z</time>
      </trkpt>
      <trkpt lat="37.0150180813" lon="-2.7512305509">
        <ele>714.40</ele>
        <time>2018-11-10T12:29:33Z</time>
      </trkpt>
      <trkpt lat="37.0148581546" lon="-2.7512543555">
        <ele>714.88</ele>
        <time>2018-11-10T12:29:41Z</time>
      </trkpt>
      <trkpt lat="37.0145536400" lon="-2.7512984443">
        <ele>716.32</ele>
        <time>2018-11-10T12:29:52Z</time>
      </trkpt>
      <trkpt lat="37.0142111555" lon="-2.7514006197">
        <ele>717.76</ele>
        <time>2018-11-10T12:30:04Z</time>
      </trkpt>
      <trkpt lat="37.0139451139" lon="-2.7515806630">
        <ele>719.20</ele>
        <time>2018-11-10T12:30:15Z</time>
      </trkpt>
      <trkpt lat="37.0138765499" lon="-2.7516521607">
        <ele>719.20</ele>
        <time>2018-11-10T12:30:21Z</time>
      </trkpt>
      <trkpt lat="37.0138644800" lon="-2.7516494785">
        <ele>720.16</ele>
        <time>2018-11-10T12:30:34Z</time>
      </trkpt>
      <trkpt lat="37.0137489773" lon="-2.7517802361">
        <ele>720.65</ele>
        <time>2018-11-10T12:30:41Z</time>
      </trkpt>
      <trkpt lat="37.0135928225" lon="-2.7520130016">
        <ele>721.61</ele>
        <time>2018-11-10T12:30:50Z</time>
      </trkpt>
      <trkpt lat="37.0134409424" lon="-2.7523188572">
        <ele>723.53</ele>
        <time>2018-11-10T12:31:00Z</time>
      </trkpt>
      <trkpt lat="37.0134034753" lon="-2.7524333540">
        <ele>724.97</ele>
        <time>2018-11-10T12:31:06Z</time>
      </trkpt>
      <trkpt lat="37.0134012960" lon="-2.7524258941">
        <ele>725.45</ele>
        <time>2018-11-10T12:31:21Z</time>
      </trkpt>
      <trkpt lat="37.0134098455" lon="-2.7524270676">
        <ele>724.49</ele>
        <time>2018-11-10T12:31:36Z</time>
      </trkpt>
      <trkpt lat="37.0134124439" lon="-2.7524225414">
        <ele>724.97</ele>
        <time>2018-11-10T12:32:03Z</time>
      </trkpt>
      <trkpt lat="37.0133953448" lon="-2.7524160035">
        <ele>725.45</ele>
        <time>2018-11-10T12:32:19Z</time>
      </trkpt>
      <trkpt lat="37.0134105999" lon="-2.7524168417">
        <ele>725.93</ele>
        <time>2018-11-10T12:32:29Z</time>
      </trkpt>
      <trkpt lat="37.0134157129" lon="-2.7524182666">
        <ele>726.41</ele>
        <time>2018-11-10T12:32:37Z</time>
      </trkpt>
      <trkpt lat="37.0134125277" lon="-2.7524333540">
        <ele>725.93</ele>
        <time>2018-11-10T12:32:47Z</time>
      </trkpt>
      <trkpt lat="37.0134020504" lon="-2.7524346113">
        <ele>726.89</ele>
        <time>2018-11-10T12:32:59Z</time>
      </trkpt>
      <trkpt lat="37.0134062413" lon="-2.7524360362">
        <ele>726.89</ele>
        <time>2018-11-10T12:33:10Z</time>
      </trkpt>
      <trkpt lat="37.0134010445" lon="-2.7524463460">
        <ele>725.93</ele>
        <time>2018-11-10T12:33:16Z</time>
      </trkpt>
      <trkpt lat="37.0133939199" lon="-2.7524735872">
        <ele>724.49</ele>
        <time>2018-11-10T12:33:29Z</time>
      </trkpt>
      <trkpt lat="37.0133883879" lon="-2.7524922788">
        <ele>724.49</ele>
        <time>2018-11-10T12:33:30Z</time>
      </trkpt>
      <trkpt lat="37.0133181475" lon="-2.7527614217">
        <ele>726.41</ele>
        <time>2018-11-10T12:33:40Z</time>
      </trkpt>
      <trkpt lat="37.0132459793" lon="-2.7531997114">
        <ele>729.78</ele>
        <time>2018-11-10T12:33:53Z</time>
      </trkpt>
      <trkpt lat="37.0131702907" lon="-2.7535556071">
        <ele>731.22</ele>
        <time>2018-11-10T12:34:03Z</time>
      </trkpt>
      <trkpt lat="37.0130485017" lon="-2.7538707666">
        <ele>732.18</ele>
        <time>2018-11-10T12:34:13Z</time>
      </trkpt>
      <trkpt lat="37.0128806960" lon="-2.7541157696">
        <ele>732.66</ele>
        <time>2018-11-10T12:34:22Z</time>
      </trkpt>
      <trkpt lat="37.0126433205" lon="-2.7543239761">
        <ele>733.14</ele>
        <time>2018-11-10T12:34:32Z</time>
      </trkpt>
      <trkpt lat="37.0123364590" lon="-2.7545461804">
        <ele>734.10</ele>
        <time>2018-11-10T12:34:44Z</time>
      </trkpt>
      <trkpt lat="37.0121108182" lon="-2.7547703125">
        <ele>735.55</ele>
        <time>2018-11-10T12:34:55Z</time>
      </trkpt>
      <trkpt lat="37.0119513944" lon="-2.7550057601">
        <ele>736.51</ele>
        <time>2018-11-10T12:35:05Z</time>
      </trkpt>
      <trkpt lat="37.0118353050" lon="-2.7552516852">
        <ele>737.95</ele>
        <time>2018-11-10T12:35:15Z</time>
      </trkpt>
      <trkpt lat="37.0117443614" lon="-2.7555577923">
        <ele>740.35</ele>
        <time>2018-11-10T12:35:26Z</time>
      </trkpt>
      <trkpt lat="37.0117182098" lon="-2.7558400948">
        <ele>742.28</ele>
        <time>2018-11-10T12:35:36Z</time>
      </trkpt>
      <trkpt lat="37.0117171202" lon="-2.7560061403">
        <ele>742.76</ele>
        <time>2018-11-10T12:35:43Z</time>
      </trkpt>
      <trkpt lat="37.0117503125" lon="-2.7562964894">
        <ele>744.20</ele>
        <time>2018-11-10T12:35:55Z</time>
      </trkpt>
      <trkpt lat="37.0117933955" lon="-2.7565362956">
        <ele>744.20</ele>
        <time>2018-11-10T12:36:05Z</time>
      </trkpt>
      <trkpt lat="37.0118285157" lon="-2.7567789517">
        <ele>746.12</ele>
        <time>2018-11-10T12:36:16Z</time>
      </trkpt>
      <trkpt lat="37.0118694194" lon="-2.7570051793">
        <ele>747.08</ele>
        <time>2018-11-10T12:36:26Z</time>
      </trkpt>
      <trkpt lat="37.0119061321" lon="-2.7572292276">
        <ele>749.00</ele>
        <time>2018-11-10T12:36:36Z</time>
      </trkpt>
      <trkpt lat="37.0119368099" lon="-2.7574396133">
        <ele>750.45</ele>
        <time>2018-11-10T12:36:46Z</time>
      </trkpt>
      <trkpt lat="37.0119575132" lon="-2.7575549483">
        <ele>750.93</ele>
        <time>2018-11-10T12:36:53Z</time>
      </trkpt>
      <trkpt lat="37.0119918790" lon="-2.7577410266">
        <ele>751.89</ele>
        <time>2018-11-10T12:37:02Z</time>
      </trkpt>
      <trkpt lat="37.0120336208" lon="-2.7580042183">
        <ele>753.81</ele>
        <time>2018-11-10T12:37:14Z</time>
      </trkpt>
      <trkpt lat="37.0120577607" lon="-2.7581300307">
        <ele>754.77</ele>
        <time>2018-11-10T12:37:22Z</time>
      </trkpt>
      <trkpt lat="37.0120650530" lon="-2.7581593674">
        <ele>754.77</ele>
        <time>2018-11-10T12:37:34Z</time>
      </trkpt>
      <trkpt lat="37.0120736025" lon="-2.7581412625">
        <ele>754.77</ele>
        <time>2018-11-10T12:37:43Z</time>
      </trkpt>
      <trkpt lat="37.0120617840" lon="-2.7581593674">
        <ele>754.29</ele>
        <time>2018-11-10T12:37:56Z</time>
      </trkpt>
      <trkpt lat="37.0120544918" lon="-2.7581601217">
        <ele>754.29</ele>
        <time>2018-11-10T12:38:11Z</time>
      </trkpt>
      <trkpt lat="37.0120720938" lon="-2.7581357304">
        <ele>755.25</ele>
        <time>2018-11-10T12:38:26Z</time>
      </trkpt>
      <trkpt lat="37.0120715071" lon="-2.7581451181">
        <ele>755.25</ele>
        <time>2018-11-10T12:38:44Z</time>
      </trkpt>
      <trkpt lat="37.0120777097" lon="-2.7581768855">
        <ele>754.29</ele>
        <time>2018-11-10T12:38:58Z</time>
      </trkpt>
      <trkpt lat="37.0120912045" lon="-2.7583364770">
        <ele>755.73</ele>
        <time>2018-11-10T12:39:05Z</time>
      </trkpt>
      <trkpt lat="37.0121173561" lon="-2.7584986668">
        <ele>757.18</ele>
        <time>2018-11-10T12:39:12Z</time>
      </trkpt>
      <trkpt lat="37.0121524762" lon="-2.7587288339">
        <ele>758.14</ele>
        <time>2018-11-10T12:39:22Z</time>
      </trkpt>
      <trkpt lat="37.0121958107" lon="-2.7589541394">
        <ele>759.58</ele>
        <time>2018-11-10T12:39:32Z</time>
      </trkpt>
      <trkpt lat="37.0122330263" lon="-2.7591075283">
        <ele>760.54</ele>
        <time>2018-11-10T12:39:39Z</time>
      </trkpt>
      <trkpt lat="37.0122704096" lon="-2.7593088616">
        <ele>761.98</ele>
        <time>2018-11-10T12:39:48Z</time>
      </trkpt>
      <trkpt lat="37.0122966450" lon="-2.7594768349">
        <ele>762.46</ele>
        <time>2018-11-10T12:39:55Z</time>
      </trkpt>
      <trkpt lat="37.0123210363" lon="-2.7596623264">
        <ele>763.90</ele>
        <time>2018-11-10T12:40:03Z</time>
      </trkpt>
      <trkpt lat="37.0123419911" lon="-2.7598904818">
        <ele>765.83</ele>
        <time>2018-11-10T12:40:13Z</time>
      </trkpt>
      <trkpt lat="37.0123429131" lon="-2.7600499894">
        <ele>766.31</ele>
        <time>2018-11-10T12:40:20Z</time>
      </trkpt>
      <trkpt lat="37.0123515464" lon="-2.7601399273">
        <ele>766.79</ele>
        <time>2018-11-10T12:40:27Z</time>
      </trkpt>
      <trkpt lat="37.0123603474" lon="-2.7601465490">
        <ele>765.35</ele>
        <time>2018-11-10T12:40:39Z</time>
      </trkpt>
      <trkpt lat="37.0123605151" lon="-2.7601555176">
        <ele>765.83</ele>
        <time>2018-11-10T12:40:54Z</time>
      </trkpt>
      <trkpt lat="37.0123588387" lon="-2.7601593733">
        <ele>766.31</ele>
        <time>2018-11-10T12:41:02Z</time>
      </trkpt>
      <trkpt lat="37.0123652089" lon="-2.7601577807">
        <ele>768.71</ele>
        <time>2018-11-10T12:41:15Z</time>
      </trkpt>
      <trkpt lat="37.0123645384" lon="-2.7601594571">
        <ele>767.75</ele>
        <time>2018-11-10T12:41:24Z</time>
      </trkpt>
      <trkpt lat="37.0123746805" lon="-2.7601429448">
        <ele>766.79</ele>
        <time>2018-11-10T12:41:47Z</time>
      </trkpt>
      <trkpt lat="37.0123636164" lon="-2.7601667494">
        <ele>767.75</ele>
        <time>2018-11-10T12:42:11Z</time>
      </trkpt>
      <trkpt lat="37.0123563241" lon="-2.7601522487">
        <ele>769.67</ele>
        <time>2018-11-10T12:42:34Z</time>
      </trkpt>
      <trkpt lat="37.0123508759" lon="-2.7601628937">
        <ele>768.71</ele>
        <time>2018-11-10T12:42:52Z</time>
      </trkpt>
      <trkpt lat="37.0123509597" lon="-2.7601571940">
        <ele>768.23</ele>
        <time>2018-11-10T12:43:16Z</time>
      </trkpt>
      <trkpt lat="37.0123611856" lon="-2.7601498179">
        <ele>768.23</ele>
        <time>2018-11-10T12:43:34Z</time>
      </trkpt>
      <trkpt lat="37.0123632811" lon="-2.7601576131">
        <ele>769.19</ele>
        <time>2018-11-10T12:43:58Z</time>
      </trkpt>
      <trkpt lat="37.0123694837" lon="-2.7601639833">
        <ele>768.23</ele>
        <time>2018-11-10T12:44:15Z</time>
      </trkpt>
      <trkpt lat="37.0123719983" lon="-2.7601545118">
        <ele>768.71</ele>
        <time>2018-11-10T12:44:31Z</time>
      </trkpt>
      <trkpt lat="37.0123688970" lon="-2.7601546794">
        <ele>768.71</ele>
        <time>2018-11-10T12:44:50Z</time>
      </trkpt>
      <trkpt lat="37.0123546477" lon="-2.7601411846">
        <ele>769.67</ele>
        <time>2018-11-10T12:45:11Z</time>
      </trkpt>
      <trkpt lat="37.0123682264" lon="-2.7601520810">
        <ele>769.19</ele>
        <time>2018-11-10T12:45:29Z</time>
      </trkpt>
      <trkpt lat="37.0123630296" lon="-2.7601563558">
        <ele>768.23</ele>
        <time>2018-11-10T12:45:51Z</time>
      </trkpt>
      <trkpt lat="37.0123579167" lon="-2.7601633128">
        <ele>767.27</ele>
        <time>2018-11-10T12:46:11Z</time>
      </trkpt>
      <trkpt lat="37.0123524684" lon="-2.7601783164">
        <ele>766.79</ele>
        <time>2018-11-10T12:46:19Z</time>
      </trkpt>
      <trkpt lat="37.0123519655" lon="-2.7601774782">
        <ele>766.31</ele>
        <time>2018-11-10T12:46:23Z</time>
      </trkpt>
      <trkpt lat="37.0123401470" lon="-2.7601919789">
        <ele>766.31</ele>
        <time>2018-11-10T12:46:25Z</time>
      </trkpt>
      <trkpt lat="37.0123165939" lon="-2.7603734471">
        <ele>768.71</ele>
        <time>2018-11-10T12:46:34Z</time>
      </trkpt>
      <trkpt lat="37.0122735947" lon="-2.7605741099">
        <ele>769.67</ele>
        <time>2018-11-10T12:46:43Z</time>
      </trkpt>
      <trkpt lat="37.0122085512" lon="-2.7607912011">
        <ele>771.11</ele>
        <time>2018-11-10T12:46:53Z</time>
      </trkpt>
      <trkpt lat="37.0120785479" lon="-2.7610562369">
        <ele>772.56</ele>
        <time>2018-11-10T12:47:06Z</time>
      </trkpt>
      <trkpt lat="37.0119808987" lon="-2.7612149063">
        <ele>773.52</ele>
        <time>2018-11-10T12:47:15Z</time>
      </trkpt>
      <trkpt lat="37.0118553378" lon="-2.7613710612">
        <ele>774.48</ele>
        <time>2018-11-10T12:47:25Z</time>
      </trkpt>
      <trkpt lat="37.0117284358" lon="-2.7615037467">
        <ele>775.44</ele>
        <time>2018-11-10T12:47:34Z</time>
      </trkpt>
      <trkpt lat="37.0115602110" lon="-2.7616298944">
        <ele>777.36</ele>
        <time>2018-11-10T12:47:44Z</time>
      </trkpt>
      <trkpt lat="37.0113675110" lon="-2.7617489174">
        <ele>778.32</ele>
        <time>2018-11-10T12:47:55Z</time>
      </trkpt>
      <trkpt lat="37.0111808460" lon="-2.7618444711">
        <ele>779.29</ele>
        <time>2018-11-10T12:48:05Z</time>
      </trkpt>
      <trkpt lat="37.0109787583" lon="-2.7619204950">
        <ele>779.77</ele>
        <time>2018-11-10T12:48:15Z</time>
      </trkpt>
      <trkpt lat="37.0108135510" lon="-2.7619746421">
        <ele>780.25</ele>
        <time>2018-11-10T12:48:22Z</time>
      </trkpt>
      <trkpt lat="37.0105292369" lon="-2.7620462235">
        <ele>780.73</ele>
        <time>2018-11-10T12:48:32Z</time>
      </trkpt>
      <trkpt lat="37.0102030132" lon="-2.7621225826">
        <ele>780.73</ele>
        <time>2018-11-10T12:48:43Z</time>
      </trkpt>
      <trkpt lat="37.0099497121" lon="-2.7621945832">
        <ele>779.77</ele>
        <time>2018-11-10T12:48:51Z</time>
      </trkpt>
      <trkpt lat="37.0096311998" lon="-2.7623567730">
        <ele>778.81</ele>
        <time>2018-11-10T12:48:59Z</time>
      </trkpt>
      <trkpt lat="37.0092539303" lon="-2.7627125848">
        <ele>777.36</ele>
        <time>2018-11-10T12:49:08Z</time>
      </trkpt>
      <trkpt lat="37.0087943505" lon="-2.7632748429">
        <ele>774.96</ele>
        <time>2018-11-10T12:49:19Z</time>
      </trkpt>
      <trkpt lat="37.0083381236" lon="-2.7638657670">
        <ele>773.04</ele>
        <time>2018-11-10T12:49:29Z</time>
      </trkpt>
      <trkpt lat="37.0077499654" lon="-2.7646058053">
        <ele>770.63</ele>
        <time>2018-11-10T12:49:41Z</time>
      </trkpt>
      <trkpt lat="37.0070131123" lon="-2.7655358613">
        <ele>767.75</ele>
        <time>2018-11-10T12:49:55Z</time>
      </trkpt>
      <trkpt lat="37.0062307455" lon="-2.7664606366">
        <ele>764.87</ele>
        <time>2018-11-10T12:50:09Z</time>
      </trkpt>
      <trkpt lat="37.0060749259" lon="-2.7666265145">
        <ele>764.39</ele>
        <time>2018-11-10T12:50:13Z</time>
      </trkpt>
      <trkpt lat="37.0060109720" lon="-2.7667051367">
        <ele>763.90</ele>
        <time>2018-11-10T12:50:17Z</time>
      </trkpt>
      <trkpt lat="37.0060066134" lon="-2.7667184640">
        <ele>763.90</ele>
        <time>2018-11-10T12:50:18Z</time>
      </trkpt>
      <trkpt lat="37.0059946273" lon="-2.7667379100">
        <ele>764.87</ele>
        <time>2018-11-10T12:50:24Z</time>
      </trkpt>
      <trkpt lat="37.0059911907" lon="-2.7667260077">
        <ele>764.87</ele>
        <time>2018-11-10T12:50:44Z</time>
      </trkpt>
      <trkpt lat="37.0059861615" lon="-2.7667340543">
        <ele>765.35</ele>
        <time>2018-11-10T12:51:04Z</time>
      </trkpt>
      <trkpt lat="37.0059848204" lon="-2.7667315397">
        <ele>765.35</ele>
        <time>2018-11-10T12:51:06Z</time>
      </trkpt>
      <trkpt lat="37.0059742592" lon="-2.7667395864">
        <ele>765.35</ele>
        <time>2018-11-10T12:51:12Z</time>
      </trkpt>
      <trkpt lat="37.0059725828" lon="-2.7667377423">
        <ele>765.83</ele>
        <time>2018-11-10T12:51:28Z</time>
      </trkpt>
      <trkpt lat="37.0059678890" lon="-2.7667360660">
        <ele>765.83</ele>
        <time>2018-11-10T12:51:29Z</time>
      </trkpt>
      <trkpt lat="37.0058388915" lon="-2.7668570168">
        <ele>765.35</ele>
        <time>2018-11-10T12:51:37Z</time>
      </trkpt>
      <trkpt lat="37.0056183636" lon="-2.7670850046">
        <ele>763.90</ele>
        <time>2018-11-10T12:51:45Z</time>
      </trkpt>
      <trkpt lat="37.0052774716" lon="-2.7675354481">
        <ele>761.98</ele>
        <time>2018-11-10T12:51:56Z</time>
      </trkpt>
      <trkpt lat="37.0050080772" lon="-2.7680272143">
        <ele>761.02</ele>
        <time>2018-11-10T12:52:05Z</time>
      </trkpt>
      <trkpt lat="37.0048228372" lon="-2.7685068268">
        <ele>761.02</ele>
        <time>2018-11-10T12:52:14Z</time>
      </trkpt>
      <trkpt lat="37.0047410298" lon="-2.7688264288">
        <ele>761.98</ele>
        <time>2018-11-10T12:52:22Z</time>
      </trkpt>
      <trkpt lat="37.0046833623" lon="-2.7692212164">
        <ele>763.42</ele>
        <time>2018-11-10T12:52:32Z</time>
      </trkpt>
      <trkpt lat="37.0046530198" lon="-2.7696662955">
        <ele>765.35</ele>
        <time>2018-11-10T12:52:43Z</time>
      </trkpt>
      <trkpt lat="37.0046559535" lon="-2.7698618453">
        <ele>766.31</ele>
        <time>2018-11-10T12:52:50Z</time>
      </trkpt>
      <trkpt lat="37.0046555344" lon="-2.7698643599">
        <ele>766.31</ele>
        <time>2018-11-10T12:52:56Z</time>
      </trkpt>
      <trkpt lat="37.0046546124" lon="-2.7698558103">
        <ele>765.83</ele>
        <time>2018-11-10T12:53:12Z</time>
      </trkpt>
      <trkpt lat="37.0046563726" lon="-2.7699235361">
        <ele>766.31</ele>
        <time>2018-11-10T12:53:18Z</time>
      </trkpt>
      <trkpt lat="37.0046795066" lon="-2.7702112868">
        <ele>767.27</ele>
        <time>2018-11-10T12:53:26Z</time>
      </trkpt>
      <trkpt lat="37.0047478192" lon="-2.7706199046">
        <ele>767.27</ele>
        <time>2018-11-10T12:53:38Z</time>
      </trkpt>
      <trkpt lat="37.0048304647" lon="-2.7709555160">
        <ele>768.23</ele>
        <time>2018-11-10T12:53:49Z</time>
      </trkpt>
      <trkpt lat="37.0048998669" lon="-2.7712480444">
        <ele>769.19</ele>
        <time>2018-11-10T12:53:58Z</time>
      </trkpt>
      <trkpt lat="37.0049794950" lon="-2.7715734299">
        <ele>770.15</ele>
        <time>2018-11-10T12:54:08Z</time>
      </trkpt>
      <trkpt lat="37.0050863642" lon="-2.7720258851">
        <ele>771.11</ele>
        <time>2018-11-10T12:54:21Z</time>
      </trkpt>
      <trkpt lat="37.0051384158" lon="-2.7723425534">
        <ele>771.11</ele>
        <time>2018-11-10T12:54:30Z</time>
      </trkpt>
      <trkpt lat="37.0051318780" lon="-2.7726238500">
        <ele>771.11</ele>
        <time>2018-11-10T12:54:38Z</time>
      </trkpt>
      <trkpt lat="37.0050349832" lon="-2.7729739621">
        <ele>771.11</ele>
        <time>2018-11-10T12:54:47Z</time>
      </trkpt>
      <trkpt lat="37.0049919002" lon="-2.7730633970">
        <ele>771.11</ele>
        <time>2018-11-10T12:54:49Z</time>
      </trkpt>
      <trkpt lat="37.0048229210" lon="-2.7733164467">
        <ele>769.67</ele>
        <time>2018-11-10T12:54:54Z</time>
      </trkpt>
      <trkpt lat="37.0047764014" lon="-2.7733633015">
        <ele>769.19</ele>
        <time>2018-11-10T12:54:55Z</time>
      </trkpt>
      <trkpt lat="37.0047263615" lon="-2.7734084800">
        <ele>769.19</ele>
        <time>2018-11-10T12:54:56Z</time>
      </trkpt>
      <trkpt lat="37.0046679396" lon="-2.7734518982">
        <ele>768.71</ele>
        <time>2018-11-10T12:54:57Z</time>
      </trkpt>
      <trkpt lat="37.0046120323" lon="-2.7734858450">
        <ele>768.71</ele>
        <time>2018-11-10T12:54:58Z</time>
      </trkpt>
      <trkpt lat="37.0045456477" lon="-2.7735178638">
        <ele>768.71</ele>
        <time>2018-11-10T12:54:59Z</time>
      </trkpt>
      <trkpt lat="37.0044822805" lon="-2.7735432610">
        <ele>768.23</ele>
        <time>2018-11-10T12:55:00Z</time>
      </trkpt>
      <trkpt lat="37.0044122078" lon="-2.7735659759">
        <ele>767.75</ele>
        <time>2018-11-10T12:55:01Z</time>
      </trkpt>
      <trkpt lat="37.0043429732" lon="-2.7735829074">
        <ele>767.75</ele>
        <time>2018-11-10T12:55:02Z</time>
      </trkpt>
      <trkpt lat="37.0037946291" lon="-2.7736767009">
        <ele>764.87</ele>
        <time>2018-11-10T12:55:09Z</time>
      </trkpt>
      <trkpt lat="37.0034864265" lon="-2.7738231327">
        <ele>762.46</ele>
        <time>2018-11-10T12:55:13Z</time>
      </trkpt>
      <trkpt lat="37.0034208801" lon="-2.7738806326">
        <ele>762.46</ele>
        <time>2018-11-10T12:55:14Z</time>
      </trkpt>
      <trkpt lat="37.0033580158" lon="-2.7739516273">
        <ele>761.50</ele>
        <time>2018-11-10T12:55:15Z</time>
      </trkpt>
      <trkpt lat="37.0030404255" lon="-2.7745082695">
        <ele>758.14</ele>
        <time>2018-11-10T12:55:21Z</time>
      </trkpt>
      <trkpt lat="37.0026909001" lon="-2.7753357310">
        <ele>752.37</ele>
        <time>2018-11-10T12:55:28Z</time>
      </trkpt>
      <trkpt lat="37.0022279676" lon="-2.7764659468">
        <ele>749.49</ele>
        <time>2018-11-10T12:55:37Z</time>
      </trkpt>
      <trkpt lat="37.0021315757" lon="-2.7769874688">
        <ele>751.41</ele>
        <time>2018-11-10T12:55:42Z</time>
      </trkpt>
      <trkpt lat="37.0021153148" lon="-2.7772456314">
        <ele>753.33</ele>
        <time>2018-11-10T12:55:46Z</time>
      </trkpt>
      <trkpt lat="37.0021192543" lon="-2.7775704302">
        <ele>756.21</ele>
        <time>2018-11-10T12:55:55Z</time>
      </trkpt>
      <trkpt lat="37.0021349285" lon="-2.7778058778">
        <ele>758.62</ele>
        <time>2018-11-10T12:56:03Z</time>
      </trkpt>
      <trkpt lat="37.0021660253" lon="-2.7780567482">
        <ele>762.46</ele>
        <time>2018-11-10T12:56:13Z</time>
      </trkpt>
      <trkpt lat="37.0022130478" lon="-2.7782984823">
        <ele>764.39</ele>
        <time>2018-11-10T12:56:24Z</time>
      </trkpt>
      <trkpt lat="37.0022563823" lon="-2.7784906793">
        <ele>766.31</ele>
        <time>2018-11-10T12:56:33Z</time>
      </trkpt>
      <trkpt lat="37.0022878982" lon="-2.7785796113">
        <ele>767.27</ele>
        <time>2018-11-10T12:56:41Z</time>
      </trkpt>
      <trkpt lat="37.0022863057" lon="-2.7785806172">
        <ele>768.23</ele>
        <time>2018-11-10T12:56:55Z</time>
      </trkpt>
      <trkpt lat="37.0022833720" lon="-2.7785812877">
        <ele>768.71</ele>
        <time>2018-11-10T12:57:10Z</time>
      </trkpt>
      <trkpt lat="37.0022847969" lon="-2.7785776835">
        <ele>767.75</ele>
        <time>2018-11-10T12:57:22Z</time>
      </trkpt>
      <trkpt lat="37.0022873115" lon="-2.7786071878">
        <ele>767.27</ele>
        <time>2018-11-10T12:57:30Z</time>
      </trkpt>
      <trkpt lat="37.0022907481" lon="-2.7785988059">
        <ele>768.23</ele>
        <time>2018-11-10T12:57:39Z</time>
      </trkpt>
      <trkpt lat="37.0022966992" lon="-2.7786070202">
        <ele>768.71</ele>
        <time>2018-11-10T12:57:50Z</time>
      </trkpt>
      <trkpt lat="37.0023085177" lon="-2.7786414698">
        <ele>769.19</ele>
        <time>2018-11-10T12:57:57Z</time>
      </trkpt>
      <trkpt lat="37.0023196656" lon="-2.7786428109">
        <ele>768.71</ele>
        <time>2018-11-10T12:58:05Z</time>
      </trkpt>
      <trkpt lat="37.0023091044" lon="-2.7786392067">
        <ele>770.63</ele>
        <time>2018-11-10T12:58:21Z</time>
      </trkpt>
      <trkpt lat="37.0023072604" lon="-2.7786440682">
        <ele>770.15</ele>
        <time>2018-11-10T12:58:41Z</time>
      </trkpt>
      <trkpt lat="37.0023020636" lon="-2.7786483429">
        <ele>770.15</ele>
        <time>2018-11-10T12:58:54Z</time>
      </trkpt>
      <trkpt lat="37.0023188274" lon="-2.7787006460">
        <ele>769.67</ele>
        <time>2018-11-10T12:59:04Z</time>
      </trkpt>
      <trkpt lat="37.0023805182" lon="-2.7788886521">
        <ele>770.63</ele>
        <time>2018-11-10T12:59:13Z</time>
      </trkpt>
      <trkpt lat="37.0023830328" lon="-2.7789070085">
        <ele>770.63</ele>
        <time>2018-11-10T12:59:14Z</time>
      </trkpt>
      <trkpt lat="37.0024334081" lon="-2.7790873870">
        <ele>771.11</ele>
        <time>2018-11-10T12:59:24Z</time>
      </trkpt>
      <trkpt lat="37.0024980325" lon="-2.7793444600">
        <ele>773.04</ele>
        <time>2018-11-10T12:59:36Z</time>
      </trkpt>
      <trkpt lat="37.0025571249" lon="-2.7795540076">
        <ele>774.00</ele>
        <time>2018-11-10T12:59:46Z</time>
      </trkpt>
      <trkpt lat="37.0026244316" lon="-2.7797923889">
        <ele>775.92</ele>
        <time>2018-11-10T12:59:58Z</time>
      </trkpt>
      <trkpt lat="37.0026792493" lon="-2.7800124139">
        <ele>778.32</ele>
        <time>2018-11-10T13:00:09Z</time>
      </trkpt>
      <trkpt lat="37.0027442928" lon="-2.7802556567">
        <ele>778.81</ele>
        <time>2018-11-10T13:00:20Z</time>
      </trkpt>
      <trkpt lat="37.0028064027" lon="-2.7804849017">
        <ele>779.77</ele>
        <time>2018-11-10T13:00:31Z</time>
      </trkpt>
      <trkpt lat="37.0028587896" lon="-2.7806856483">
        <ele>781.69</ele>
        <time>2018-11-10T13:00:41Z</time>
      </trkpt>
      <trkpt lat="37.0029067341" lon="-2.7808629256">
        <ele>783.13</ele>
        <time>2018-11-10T13:00:50Z</time>
      </trkpt>
      <trkpt lat="37.0029442851" lon="-2.7810134646">
        <ele>784.57</ele>
        <time>2018-11-10T13:00:58Z</time>
      </trkpt>
      <trkpt lat="37.0030068979" lon="-2.7812754828">
        <ele>786.98</ele>
        <time>2018-11-10T13:01:10Z</time>
      </trkpt>
      <trkpt lat="37.0030441973" lon="-2.7815089189">
        <ele>788.42</ele>
        <time>2018-11-10T13:01:21Z</time>
      </trkpt>
      <trkpt lat="37.0030554291" lon="-2.7817593701">
        <ele>791.30</ele>
        <time>2018-11-10T13:01:33Z</time>
      </trkpt>
      <trkpt lat="37.0030488074" lon="-2.7819757909">
        <ele>792.74</ele>
        <time>2018-11-10T13:01:44Z</time>
      </trkpt>
      <trkpt lat="37.0030320436" lon="-2.7821903676">
        <ele>794.19</ele>
        <time>2018-11-10T13:01:54Z</time>
      </trkpt>
      <trkpt lat="37.0030027069" lon="-2.7823634539">
        <ele>795.15</ele>
        <time>2018-11-10T13:02:03Z</time>
      </trkpt>
      <trkpt lat="37.0029698499" lon="-2.7825036831">
        <ele>795.63</ele>
        <time>2018-11-10T13:02:11Z</time>
      </trkpt>
      <trkpt lat="37.0029006992" lon="-2.7827356104">
        <ele>796.11</ele>
        <time>2018-11-10T13:02:22Z</time>
      </trkpt>
      <trkpt lat="37.0028504077" lon="-2.7828924358">
        <ele>797.55</ele>
        <time>2018-11-10T13:02:30Z</time>
      </trkpt>
      <trkpt lat="37.0028328057" lon="-2.7829662804">
        <ele>797.55</ele>
        <time>2018-11-10T13:02:38Z</time>
      </trkpt>
      <trkpt lat="37.0028344821" lon="-2.7829791885">
        <ele>797.07</ele>
        <time>2018-11-10T13:02:48Z</time>
      </trkpt>
      <trkpt lat="37.0028279442" lon="-2.7829744108">
        <ele>797.07</ele>
        <time>2018-11-10T13:03:05Z</time>
      </trkpt>
      <trkpt lat="37.0028378349" lon="-2.7829819545">
        <ele>794.67</ele>
        <time>2018-11-10T13:03:27Z</time>
      </trkpt>
      <trkpt lat="37.0028278604" lon="-2.7829713933">
        <ele>796.59</ele>
        <time>2018-11-10T13:03:48Z</time>
      </trkpt>
      <trkpt lat="37.0028122701" lon="-2.7830141410">
        <ele>796.59</ele>
        <time>2018-11-10T13:04:01Z</time>
      </trkpt>
      <trkpt lat="37.0027581230" lon="-2.7831826173">
        <ele>798.03</ele>
        <time>2018-11-10T13:04:09Z</time>
      </trkpt>
      <trkpt lat="37.0026949234" lon="-2.7834041510">
        <ele>799.95</ele>
        <time>2018-11-10T13:04:19Z</time>
      </trkpt>
      <trkpt lat="37.0026501641" lon="-2.7835446317">
        <ele>801.40</ele>
        <time>2018-11-10T13:04:26Z</time>
      </trkpt>
      <trkpt lat="37.0025974419" lon="-2.7837222442">
        <ele>801.88</ele>
        <time>2018-11-10T13:04:34Z</time>
      </trkpt>
      <trkpt lat="37.0025594719" lon="-2.7838718612">
        <ele>802.36</ele>
        <time>2018-11-10T13:04:41Z</time>
      </trkpt>
      <trkpt lat="37.0025187358" lon="-2.7840610407">
        <ele>803.80</ele>
        <time>2018-11-10T13:04:51Z</time>
      </trkpt>
      <trkpt lat="37.0024945121" lon="-2.7842518967">
        <ele>804.76</ele>
        <time>2018-11-10T13:05:00Z</time>
      </trkpt>
      <trkpt lat="37.0024832804" lon="-2.7844314370">
        <ele>805.72</ele>
        <time>2018-11-10T13:05:09Z</time>
      </trkpt>
      <trkpt lat="37.0024812687" lon="-2.7846286632">
        <ele>807.16</ele>
        <time>2018-11-10T13:05:19Z</time>
      </trkpt>
      <trkpt lat="37.0024835318" lon="-2.7846431639">
        <ele>807.64</ele>
        <time>2018-11-10T13:05:20Z</time>
      </trkpt>
      <trkpt lat="37.0025031455" lon="-2.7848572377">
        <ele>809.57</ele>
        <time>2018-11-10T13:05:30Z</time>
      </trkpt>
      <trkpt lat="37.0025378466" lon="-2.7850631811">
        <ele>811.97</ele>
        <time>2018-11-10T13:05:39Z</time>
      </trkpt>
      <trkpt lat="37.0025994536" lon="-2.7853058372">
        <ele>814.37</ele>
        <time>2018-11-10T13:05:50Z</time>
      </trkpt>
      <trkpt lat="37.0026344899" lon="-2.7854157239">
        <ele>815.34</ele>
        <time>2018-11-10T13:05:57Z</time>
      </trkpt>
      <trkpt lat="37.0026966836" lon="-2.7855945099">
        <ele>816.78</ele>
        <time>2018-11-10T13:06:07Z</time>
      </trkpt>
      <trkpt lat="37.0027985238" lon="-2.7858239226">
        <ele>818.22</ele>
        <time>2018-11-10T13:06:20Z</time>
      </trkpt>
      <trkpt lat="37.0029012859" lon="-2.7860348951">
        <ele>819.66</ele>
        <time>2018-11-10T13:06:32Z</time>
      </trkpt>
      <trkpt lat="37.0029892959" lon="-2.7862171177">
        <ele>820.62</ele>
        <time>2018-11-10T13:06:42Z</time>
      </trkpt>
      <trkpt lat="37.0030913875" lon="-2.7864306048">
        <ele>822.06</ele>
        <time>2018-11-10T13:06:54Z</time>
      </trkpt>
      <trkpt lat="37.0031628851" lon="-2.7866000868">
        <ele>823.51</ele>
        <time>2018-11-10T13:07:04Z</time>
      </trkpt>
      <trkpt lat="37.0032522362" lon="-2.7867861651">
        <ele>824.95</ele>
        <time>2018-11-10T13:07:14Z</time>
      </trkpt>
      <trkpt lat="37.0033204649" lon="-2.7869433258">
        <ele>825.91</ele>
        <time>2018-11-10T13:07:23Z</time>
      </trkpt>
      <trkpt lat="37.0033892803" lon="-2.7870839741">
        <ele>826.87</ele>
        <time>2018-11-10T13:07:32Z</time>
      </trkpt>
      <trkpt lat="37.0034434274" lon="-2.7872105408">
        <ele>827.83</ele>
        <time>2018-11-10T13:07:40Z</time>
      </trkpt>
      <trkpt lat="37.0035121590" lon="-2.7873454057">
        <ele>828.79</ele>
        <time>2018-11-10T13:07:49Z</time>
      </trkpt>
      <trkpt lat="37.0035892725" lon="-2.7875116188">
        <ele>829.76</ele>
        <time>2018-11-10T13:07:59Z</time>
      </trkpt>
      <trkpt lat="37.0036582556" lon="-2.7876673546">
        <ele>830.72</ele>
        <time>2018-11-10T13:08:08Z</time>
      </trkpt>
      <trkpt lat="37.0036931243" lon="-2.7877540234">
        <ele>831.68</ele>
        <time>2018-11-10T13:08:13Z</time>
      </trkpt>
      <trkpt lat="37.0037284959" lon="-2.7877988666">
        <ele>832.16</ele>
        <time>2018-11-10T13:08:21Z</time>
      </trkpt>
      <trkpt lat="37.0037231315" lon="-2.7877987828">
        <ele>832.16</ele>
        <time>2018-11-10T13:08:37Z</time>
      </trkpt>
      <trkpt lat="37.0037284121" lon="-2.7877818514">
        <ele>831.20</ele>
        <time>2018-11-10T13:08:52Z</time>
      </trkpt>
      <trkpt lat="37.0037331898" lon="-2.7877907362">
        <ele>833.60</ele>
        <time>2018-11-10T13:09:08Z</time>
      </trkpt>
      <trkpt lat="37.0037175156" lon="-2.7877932508">
        <ele>834.56</ele>
        <time>2018-11-10T13:09:21Z</time>
      </trkpt>
      <trkpt lat="37.0037290826" lon="-2.7877998725">
        <ele>833.60</ele>
        <time>2018-11-10T13:09:37Z</time>
      </trkpt>
      <trkpt lat="37.0037336927" lon="-2.7877941728">
        <ele>835.04</ele>
        <time>2018-11-10T13:09:54Z</time>
      </trkpt>
      <trkpt lat="37.0037213713" lon="-2.7877851203">
        <ele>835.04</ele>
        <time>2018-11-10T13:10:09Z</time>
      </trkpt>
      <trkpt lat="37.0037282445" lon="-2.7877976932">
        <ele>833.12</ele>
        <time>2018-11-10T13:10:24Z</time>
      </trkpt>
      <trkpt lat="37.0037240535" lon="-2.7877970226">
        <ele>834.08</ele>
        <time>2018-11-10T13:10:36Z</time>
      </trkpt>
      <trkpt lat="37.0037273224" lon="-2.7878083382">
        <ele>834.08</ele>
        <time>2018-11-10T13:10:38Z</time>
      </trkpt>
      <trkpt lat="37.0037548989" lon="-2.7878745552">
        <ele>834.08</ele>
        <time>2018-11-10T13:10:43Z</time>
      </trkpt>
      <trkpt lat="37.0038523804" lon="-2.7880901378">
        <ele>835.52</ele>
        <time>2018-11-10T13:10:58Z</time>
      </trkpt>
      <trkpt lat="37.0039365347" lon="-2.7882417664">
        <ele>836.48</ele>
        <time>2018-11-10T13:11:09Z</time>
      </trkpt>
      <trkpt lat="37.0039712358" lon="-2.7882997692">
        <ele>836.48</ele>
        <time>2018-11-10T13:11:17Z</time>
      </trkpt>
      <trkpt lat="37.0039791148" lon="-2.7883234061">
        <ele>836.96</ele>
        <time>2018-11-10T13:11:20Z</time>
      </trkpt>
      <trkpt lat="37.0041040052" lon="-2.7885314450">
        <ele>837.93</ele>
        <time>2018-11-10T13:11:30Z</time>
      </trkpt>
      <trkpt lat="37.0042473357" lon="-2.7887756098">
        <ele>838.89</ele>
        <time>2018-11-10T13:11:41Z</time>
      </trkpt>
      <trkpt lat="37.0043489244" lon="-2.7889422420">
        <ele>839.85</ele>
        <time>2018-11-10T13:11:50Z</time>
      </trkpt>
      <trkpt lat="37.0044438913" lon="-2.7890866622">
        <ele>841.29</ele>
        <time>2018-11-10T13:11:59Z</time>
      </trkpt>
      <trkpt lat="37.0045066718" lon="-2.7891737502">
        <ele>842.25</ele>
        <time>2018-11-10T13:12:07Z</time>
      </trkpt>
      <trkpt lat="37.0045721345" lon="-2.7892693039">
        <ele>842.73</ele>
        <time>2018-11-10T13:12:18Z</time>
      </trkpt>
      <trkpt lat="37.0045712125" lon="-2.7892700583">
        <ele>842.25</ele>
        <time>2018-11-10T13:12:30Z</time>
      </trkpt>
      <trkpt lat="37.0045815222" lon="-2.7892845590">
        <ele>842.25</ele>
        <time>2018-11-10T13:12:47Z</time>
      </trkpt>
      <trkpt lat="37.0046580490" lon="-2.7893732395">
        <ele>843.21</ele>
        <time>2018-11-10T13:12:55Z</time>
      </trkpt>
      <trkpt lat="37.0047817659" lon="-2.7895117085">
        <ele>844.66</ele>
        <time>2018-11-10T13:13:07Z</time>
      </trkpt>
      <trkpt lat="37.0049094222" lon="-2.7896459866">
        <ele>846.10</ele>
        <time>2018-11-10T13:13:18Z</time>
      </trkpt>
      <trkpt lat="37.0050575305" lon="-2.7897856291">
        <ele>848.02</ele>
        <time>2018-11-10T13:13:30Z</time>
      </trkpt>
      <trkpt lat="37.0052231569" lon="-2.7899154648">
        <ele>850.42</ele>
        <time>2018-11-10T13:13:43Z</time>
      </trkpt>
      <trkpt lat="37.0053889509" lon="-2.7900508326">
        <ele>853.31</ele>
        <time>2018-11-10T13:13:57Z</time>
      </trkpt>
      <trkpt lat="37.0053886157" lon="-2.7900473960">
        <ele>853.31</ele>
        <time>2018-11-10T13:14:05Z</time>
      </trkpt>
      <trkpt lat="37.0054493845" lon="-2.7900890540">
        <ele>854.27</ele>
        <time>2018-11-10T13:14:13Z</time>
      </trkpt>
      <trkpt lat="37.0055907033" lon="-2.7901865356">
        <ele>855.23</ele>
        <time>2018-11-10T13:14:24Z</time>
      </trkpt>
      <trkpt lat="37.0057712495" lon="-2.7902967576">
        <ele>856.19</ele>
        <time>2018-11-10T13:14:38Z</time>
      </trkpt>
      <trkpt lat="37.0059178490" lon="-2.7903829236">
        <ele>858.11</ele>
        <time>2018-11-10T13:14:50Z</time>
      </trkpt>
      <trkpt lat="37.0060340222" lon="-2.7904318739">
        <ele>859.56</ele>
        <time>2018-11-10T13:15:00Z</time>
      </trkpt>
      <trkpt lat="37.0060367044" lon="-2.7904200554">
        <ele>859.56</ele>
        <time>2018-11-10T13:15:09Z</time>
      </trkpt>
      <trkpt lat="37.0060574077" lon="-2.7904376574">
        <ele>858.59</ele>
        <time>2018-11-10T13:15:21Z</time>
      </trkpt>
      <trkpt lat="37.0061731618" lon="-2.7904862724">
        <ele>859.56</ele>
        <time>2018-11-10T13:15:30Z</time>
      </trkpt>
      <trkpt lat="37.0063736569" lon="-2.7905476280">
        <ele>861.48</ele>
        <time>2018-11-10T13:15:44Z</time>
      </trkpt>
      <trkpt lat="37.0065273810" lon="-2.7905971650">
        <ele>861.96</ele>
        <time>2018-11-10T13:15:55Z</time>
      </trkpt>
      <trkpt lat="37.0066566300" lon="-2.7906388231">
        <ele>862.92</ele>
        <time>2018-11-10T13:16:06Z</time>
      </trkpt>
      <trkpt lat="37.0066630840" lon="-2.7906362247">
        <ele>862.92</ele>
        <time>2018-11-10T13:16:12Z</time>
      </trkpt>
      <trkpt lat="37.0066594798" lon="-2.7906373143">
        <ele>862.92</ele>
        <time>2018-11-10T13:16:15Z</time>
      </trkpt>
      <trkpt lat="37.0066990424" lon="-2.7906416729">
        <ele>863.88</ele>
        <time>2018-11-10T13:16:24Z</time>
      </trkpt>
      <trkpt lat="37.0066931751" lon="-2.7906394098">
        <ele>863.40</ele>
        <time>2018-11-10T13:16:41Z</time>
      </trkpt>
      <trkpt lat="37.0066888165" lon="-2.7906312793">
        <ele>862.44</ele>
        <time>2018-11-10T13:16:52Z</time>
      </trkpt>
      <trkpt lat="37.0066951029" lon="-2.7906377334">
        <ele>862.92</ele>
        <time>2018-11-10T13:17:08Z</time>
      </trkpt>
      <trkpt lat="37.0066935942" lon="-2.7906389069">
        <ele>863.40</ele>
        <time>2018-11-10T13:17:23Z</time>
      </trkpt>
      <trkpt lat="37.0067006350" lon="-2.7906406671">
        <ele>862.92</ele>
        <time>2018-11-10T13:17:33Z</time>
      </trkpt>
      <trkpt lat="37.0068341587" lon="-2.7907031961">
        <ele>864.36</ele>
        <time>2018-11-10T13:17:41Z</time>
      </trkpt>
      <trkpt lat="37.0070463885" lon="-2.7907862607">
        <ele>866.77</ele>
        <time>2018-11-10T13:17:51Z</time>
      </trkpt>
      <trkpt lat="37.0072525833" lon="-2.7908972371">
        <ele>868.21</ele>
        <time>2018-11-10T13:18:01Z</time>
      </trkpt>
      <trkpt lat="37.0074757934" lon="-2.7910789568">
        <ele>870.13</ele>
        <time>2018-11-10T13:18:13Z</time>
      </trkpt>
      <trkpt lat="37.0076285955" lon="-2.7912900131">
        <ele>871.09</ele>
        <time>2018-11-10T13:18:23Z</time>
      </trkpt>
      <trkpt lat="37.0077436790" lon="-2.7915329207">
        <ele>872.53</ele>
        <time>2018-11-10T13:18:34Z</time>
      </trkpt>
      <trkpt lat="37.0078014303" lon="-2.7917924244">
        <ele>875.90</ele>
        <time>2018-11-10T13:18:45Z</time>
      </trkpt>
      <trkpt lat="37.0078319404" lon="-2.7921611443">
        <ele>876.86</ele>
        <time>2018-11-10T13:18:59Z</time>
      </trkpt>
      <trkpt lat="37.0078296773" lon="-2.7924254257">
        <ele>877.82</ele>
        <time>2018-11-10T13:19:09Z</time>
      </trkpt>
      <trkpt lat="37.0078290068" lon="-2.7925807424">
        <ele>877.82</ele>
        <time>2018-11-10T13:19:16Z</time>
      </trkpt>
      <trkpt lat="37.0078176912" lon="-2.7928507235">
        <ele>879.26</ele>
        <time>2018-11-10T13:19:27Z</time>
      </trkpt>
      <trkpt lat="37.0078128297" lon="-2.7931582555">
        <ele>880.22</ele>
        <time>2018-11-10T13:19:39Z</time>
      </trkpt>
      <trkpt lat="37.0078055374" lon="-2.7934340201">
        <ele>881.19</ele>
        <time>2018-11-10T13:19:50Z</time>
      </trkpt>
      <trkpt lat="37.0078015979" lon="-2.7935834695">
        <ele>882.15</ele>
        <time>2018-11-10T13:19:57Z</time>
      </trkpt>
      <trkpt lat="37.0078031905" lon="-2.7936019935">
        <ele>882.63</ele>
        <time>2018-11-10T13:19:58Z</time>
      </trkpt>
      <trkpt lat="37.0078103989" lon="-2.7938293107">
        <ele>883.59</ele>
        <time>2018-11-10T13:20:08Z</time>
      </trkpt>
      <trkpt lat="37.0078089740" lon="-2.7940551192">
        <ele>885.03</ele>
        <time>2018-11-10T13:20:18Z</time>
      </trkpt>
      <trkpt lat="37.0078130811" lon="-2.7942929137">
        <ele>885.99</ele>
        <time>2018-11-10T13:20:28Z</time>
      </trkpt>
      <trkpt lat="37.0078187808" lon="-2.7945116814">
        <ele>886.95</ele>
        <time>2018-11-10T13:20:38Z</time>
      </trkpt>
      <trkpt lat="37.0078051183" lon="-2.7947484702">
        <ele>888.40</ele>
        <time>2018-11-10T13:20:48Z</time>
      </trkpt>
      <trkpt lat="37.0077846665" lon="-2.7950101532">
        <ele>889.84</ele>
        <time>2018-11-10T13:20:59Z</time>
      </trkpt>
      <trkpt lat="37.0077700820" lon="-2.7951570041">
        <ele>891.28</ele>
        <time>2018-11-10T13:21:07Z</time>
      </trkpt>
      <trkpt lat="37.0077544078" lon="-2.7953188587">
        <ele>892.24</ele>
        <time>2018-11-10T13:21:15Z</time>
      </trkpt>
      <trkpt lat="37.0077361353" lon="-2.7954564895">
        <ele>893.20</ele>
        <time>2018-11-10T13:21:22Z</time>
      </trkpt>
      <trkpt lat="37.0077040326" lon="-2.7956147399">
        <ele>893.68</ele>
        <time>2018-11-10T13:21:30Z</time>
      </trkpt>
      <trkpt lat="37.0076993387" lon="-2.7956352755">
        <ele>893.68</ele>
        <time>2018-11-10T13:21:31Z</time>
      </trkpt>
      <trkpt lat="37.0076948125" lon="-2.7956569847">
        <ele>893.68</ele>
        <time>2018-11-10T13:21:32Z</time>
      </trkpt>
      <trkpt lat="37.0076922979" lon="-2.7956762630">
        <ele>894.16</ele>
        <time>2018-11-10T13:21:33Z</time>
      </trkpt>
      <trkpt lat="37.0076874364" lon="-2.7956942841">
        <ele>894.16</ele>
        <time>2018-11-10T13:21:34Z</time>
      </trkpt>
      <trkpt lat="37.0076345466" lon="-2.7959519438">
        <ele>894.64</ele>
        <time>2018-11-10T13:21:46Z</time>
      </trkpt>
      <trkpt lat="37.0075586066" lon="-2.7961706277">
        <ele>895.12</ele>
        <time>2018-11-10T13:21:56Z</time>
      </trkpt>
      <trkpt lat="37.0075097401" lon="-2.7963323146">
        <ele>896.09</ele>
        <time>2018-11-10T13:22:04Z</time>
      </trkpt>
      <trkpt lat="37.0074340515" lon="-2.7965903934">
        <ele>898.49</ele>
        <time>2018-11-10T13:22:15Z</time>
      </trkpt>
      <trkpt lat="37.0073981769" lon="-2.7968451194">
        <ele>900.41</ele>
        <time>2018-11-10T13:22:27Z</time>
      </trkpt>
      <trkpt lat="37.0073867775" lon="-2.7970060520">
        <ele>901.85</ele>
        <time>2018-11-10T13:22:37Z</time>
      </trkpt>
      <trkpt lat="37.0073784795" lon="-2.7972337883">
        <ele>902.82</ele>
        <time>2018-11-10T13:22:48Z</time>
      </trkpt>
      <trkpt lat="37.0073985960" lon="-2.7974677272">
        <ele>904.26</ele>
        <time>2018-11-10T13:22:59Z</time>
      </trkpt>
      <trkpt lat="37.0074637234" lon="-2.7977417316">
        <ele>906.18</ele>
        <time>2018-11-10T13:23:11Z</time>
      </trkpt>
      <trkpt lat="37.0075080637" lon="-2.7978863195">
        <ele>907.14</ele>
        <time>2018-11-10T13:23:19Z</time>
      </trkpt>
      <trkpt lat="37.0075614564" lon="-2.7980051748">
        <ele>908.10</ele>
        <time>2018-11-10T13:23:26Z</time>
      </trkpt>
      <trkpt lat="37.0076425094" lon="-2.7982043289">
        <ele>908.58</ele>
        <time>2018-11-10T13:23:36Z</time>
      </trkpt>
      <trkpt lat="37.0077011827" lon="-2.7983368468">
        <ele>909.06</ele>
        <time>2018-11-10T13:23:45Z</time>
      </trkpt>
      <trkpt lat="37.0077320281" lon="-2.7984095179">
        <ele>909.06</ele>
        <time>2018-11-10T13:23:53Z</time>
      </trkpt>
      <trkpt lat="37.0077760331" lon="-2.7985164709">
        <ele>910.51</ele>
        <time>2018-11-10T13:24:02Z</time>
      </trkpt>
      <trkpt lat="37.0077779610" lon="-2.7985325642">
        <ele>910.51</ele>
        <time>2018-11-10T13:24:03Z</time>
      </trkpt>
      <trkpt lat="37.0077850018" lon="-2.7985453047">
        <ele>910.51</ele>
        <time>2018-11-10T13:24:04Z</time>
      </trkpt>
      <trkpt lat="37.0077922940" lon="-2.7985589672">
        <ele>910.51</ele>
        <time>2018-11-10T13:24:05Z</time>
      </trkpt>
      <trkpt lat="37.0077974908" lon="-2.7985776588">
        <ele>910.99</ele>
        <time>2018-11-10T13:24:06Z</time>
      </trkpt>
      <trkpt lat="37.0078038611" lon="-2.7985963505">
        <ele>910.99</ele>
        <time>2018-11-10T13:24:07Z</time>
      </trkpt>
      <trkpt lat="37.0078634564" lon="-2.7987514157">
        <ele>911.95</ele>
        <time>2018-11-10T13:24:16Z</time>
      </trkpt>
      <trkpt lat="37.0079292543" lon="-2.7988853585">
        <ele>912.43</ele>
        <time>2018-11-10T13:24:24Z</time>
      </trkpt>
      <trkpt lat="37.0080175158" lon="-2.7990607079">
        <ele>912.91</ele>
        <time>2018-11-10T13:24:35Z</time>
      </trkpt>
      <trkpt lat="37.0080730878" lon="-2.7991902921">
        <ele>913.87</ele>
        <time>2018-11-10T13:24:45Z</time>
      </trkpt>
      <trkpt lat="37.0080771111" lon="-2.7992081456">
        <ele>914.35</ele>
        <time>2018-11-10T13:24:56Z</time>
      </trkpt>
      <trkpt lat="37.0080811344" lon="-2.7992120013">
        <ele>913.87</ele>
        <time>2018-11-10T13:25:04Z</time>
      </trkpt>
      <trkpt lat="37.0080711599" lon="-2.7991938964">
        <ele>915.31</ele>
        <time>2018-11-10T13:25:18Z</time>
      </trkpt>
      <trkpt lat="37.0081017539" lon="-2.7992463671">
        <ele>914.83</ele>
        <time>2018-11-10T13:25:26Z</time>
      </trkpt>
      <trkpt lat="37.0080965571" lon="-2.7992419247">
        <ele>916.27</ele>
        <time>2018-11-10T13:25:39Z</time>
      </trkpt>
      <trkpt lat="37.0080915280" lon="-2.7992614545">
        <ele>916.27</ele>
        <time>2018-11-10T13:25:56Z</time>
      </trkpt>
      <trkpt lat="37.0080980659" lon="-2.7992418408">
        <ele>915.31</ele>
        <time>2018-11-10T13:26:15Z</time>
      </trkpt>
      <trkpt lat="37.0080952160" lon="-2.7992502227">
        <ele>914.83</ele>
        <time>2018-11-10T13:26:28Z</time>
      </trkpt>
      <trkpt lat="37.0080949645" lon="-2.7992556710">
        <ele>914.35</ele>
        <time>2018-11-10T13:26:47Z</time>
      </trkpt>
      <trkpt lat="37.0080992393" lon="-2.7992564254">
        <ele>913.87</ele>
        <time>2018-11-10T13:27:02Z</time>
      </trkpt>
      <trkpt lat="37.0081102196" lon="-2.7992809005">
        <ele>913.87</ele>
        <time>2018-11-10T13:27:16Z</time>
      </trkpt>
      <trkpt lat="37.0081146620" lon="-2.7992933057">
        <ele>913.87</ele>
        <time>2018-11-10T13:27:17Z</time>
      </trkpt>
      <trkpt lat="37.0081188530" lon="-2.7993071359">
        <ele>914.35</ele>
        <time>2018-11-10T13:27:18Z</time>
      </trkpt>
      <trkpt lat="37.0081248879" lon="-2.7993222233">
        <ele>914.35</ele>
        <time>2018-11-10T13:27:19Z</time>
      </trkpt>
      <trkpt lat="37.0081325155" lon="-2.7993367240">
        <ele>914.35</ele>
        <time>2018-11-10T13:27:20Z</time>
      </trkpt>
      <trkpt lat="37.0081400592" lon="-2.7993511409">
        <ele>914.35</ele>
        <time>2018-11-10T13:27:21Z</time>
      </trkpt>
      <trkpt lat="37.0082316734" lon="-2.7995516360">
        <ele>917.24</ele>
        <time>2018-11-10T13:27:35Z</time>
      </trkpt>
      <trkpt lat="37.0083243772" lon="-2.7997817192">
        <ele>918.20</ele>
        <time>2018-11-10T13:27:50Z</time>
      </trkpt>
      <trkpt lat="37.0084182546" lon="-2.8000133950">
        <ele>919.64</ele>
        <time>2018-11-10T13:28:05Z</time>
      </trkpt>
      <trkpt lat="37.0084703900" lon="-2.8001464158">
        <ele>920.12</ele>
        <time>2018-11-10T13:28:14Z</time>
      </trkpt>
      <trkpt lat="37.0085375290" lon="-2.8003377747">
        <ele>922.04</ele>
        <time>2018-11-10T13:28:26Z</time>
      </trkpt>
      <trkpt lat="37.0085985493" lon="-2.8005085140">
        <ele>923.96</ele>
        <time>2018-11-10T13:28:38Z</time>
      </trkpt>
      <trkpt lat="37.0086019859" lon="-2.8005241882">
        <ele>924.93</ele>
        <time>2018-11-10T13:28:50Z</time>
      </trkpt>
      <trkpt lat="37.0086393692" lon="-2.8006801754">
        <ele>926.37</ele>
        <time>2018-11-10T13:29:00Z</time>
      </trkpt>
      <trkpt lat="37.0086814463" lon="-2.8008561954">
        <ele>927.33</ele>
        <time>2018-11-10T13:29:11Z</time>
      </trkpt>
      <trkpt lat="37.0087195002" lon="-2.8010652401">
        <ele>929.25</ele>
        <time>2018-11-10T13:29:24Z</time>
      </trkpt>
      <trkpt lat="37.0087446459" lon="-2.8012595326">
        <ele>931.17</ele>
        <time>2018-11-10T13:29:36Z</time>
      </trkpt>
      <trkpt lat="37.0087597333" lon="-2.8013269231">
        <ele>931.17</ele>
        <time>2018-11-10T13:29:47Z</time>
      </trkpt>
      <trkpt lat="37.0087651815" lon="-2.8015009314">
        <ele>932.62</ele>
        <time>2018-11-10T13:29:58Z</time>
      </trkpt>
      <trkpt lat="37.0087662712" lon="-2.8017109819">
        <ele>933.58</ele>
        <time>2018-11-10T13:30:10Z</time>
      </trkpt>
      <trkpt lat="37.0087581407" lon="-2.8019117285">
        <ele>935.98</ele>
        <time>2018-11-10T13:30:22Z</time>
      </trkpt>
      <trkpt lat="37.0087420475" lon="-2.8020605072">
        <ele>936.46</ele>
        <time>2018-11-10T13:30:31Z</time>
      </trkpt>
      <trkpt lat="37.0087303966" lon="-2.8021843918">
        <ele>937.42</ele>
        <time>2018-11-10T13:30:41Z</time>
      </trkpt>
      <trkpt lat="37.0087046642" lon="-2.8023856413">
        <ele>938.86</ele>
        <time>2018-11-10T13:30:53Z</time>
      </trkpt>
      <trkpt lat="37.0086653531" lon="-2.8025948536">
        <ele>940.31</ele>
        <time>2018-11-10T13:31:06Z</time>
      </trkpt>
      <trkpt lat="37.0086382795" lon="-2.8027146310">
        <ele>941.27</ele>
        <time>2018-11-10T13:31:15Z</time>
      </trkpt>
      <trkpt lat="37.0085885748" lon="-2.8029119410">
        <ele>942.71</ele>
        <time>2018-11-10T13:31:28Z</time>
      </trkpt>
      <trkpt lat="37.0085432287" lon="-2.8030397650">
        <ele>943.67</ele>
        <time>2018-11-10T13:31:38Z</time>
      </trkpt>
      <trkpt lat="37.0085252915" lon="-2.8030845243">
        <ele>944.15</ele>
        <time>2018-11-10T13:31:49Z</time>
      </trkpt>
      <trkpt lat="37.0085209329" lon="-2.8030926548">
        <ele>944.15</ele>
        <time>2018-11-10T13:31:56Z</time>
      </trkpt>
      <trkpt lat="37.0085188374" lon="-2.8030917328">
        <ele>943.19</ele>
        <time>2018-11-10T13:32:00Z</time>
      </trkpt>
      <trkpt lat="37.0084802806" lon="-2.8031923156">
        <ele>944.15</ele>
        <time>2018-11-10T13:32:06Z</time>
      </trkpt>
      <trkpt lat="37.0083591621" lon="-2.8034725226">
        <ele>945.11</ele>
        <time>2018-11-10T13:32:19Z</time>
      </trkpt>
      <trkpt lat="37.0082782768" lon="-2.8036365565">
        <ele>945.59</ele>
        <time>2018-11-10T13:32:26Z</time>
      </trkpt>
      <trkpt lat="37.0081040170" lon="-2.8039297555">
        <ele>947.04</ele>
        <time>2018-11-10T13:32:36Z</time>
      </trkpt>
      <trkpt lat="37.0079487842" lon="-2.8041585814">
        <ele>947.52</ele>
        <time>2018-11-10T13:32:45Z</time>
      </trkpt>
      <trkpt lat="37.0078487881" lon="-2.8043132275">
        <ele>947.52</ele>
        <time>2018-11-10T13:32:53Z</time>
      </trkpt>
      <trkpt lat="37.0077161863" lon="-2.8045209311">
        <ele>948.00</ele>
        <time>2018-11-10T13:33:02Z</time>
      </trkpt>
      <trkpt lat="37.0075391605" lon="-2.8048498370">
        <ele>947.52</ele>
        <time>2018-11-10T13:33:12Z</time>
      </trkpt>
      <trkpt lat="37.0073326305" lon="-2.8053644020">
        <ele>945.59</ele>
        <time>2018-11-10T13:33:25Z</time>
      </trkpt>
      <trkpt lat="37.0072337240" lon="-2.8058005963">
        <ele>943.67</ele>
        <time>2018-11-10T13:33:33Z</time>
      </trkpt>
      <trkpt lat="37.0071934070" lon="-2.8064176720">
        <ele>942.23</ele>
        <time>2018-11-10T13:33:42Z</time>
      </trkpt>
      <trkpt lat="37.0072100032" lon="-2.8070620727">
        <ele>940.31</ele>
        <time>2018-11-10T13:33:51Z</time>
      </trkpt>
      <trkpt lat="37.0071981847" lon="-2.8078771289">
        <ele>939.35</ele>
        <time>2018-11-10T13:34:02Z</time>
      </trkpt>
      <trkpt lat="37.0071137790" lon="-2.8083712421">
        <ele>939.83</ele>
        <time>2018-11-10T13:34:10Z</time>
      </trkpt>
      <trkpt lat="37.0069607254" lon="-2.8088485915">
        <ele>939.83</ele>
        <time>2018-11-10T13:34:20Z</time>
      </trkpt>
      <trkpt lat="37.0067743957" lon="-2.8092217539">
        <ele>939.35</ele>
        <time>2018-11-10T13:34:30Z</time>
      </trkpt>
      <trkpt lat="37.0065531135" lon="-2.8095687646">
        <ele>938.38</ele>
        <time>2018-11-10T13:34:40Z</time>
      </trkpt>
      <trkpt lat="37.0063716453" lon="-2.8097899631">
        <ele>938.38</ele>
        <time>2018-11-10T13:34:49Z</time>
      </trkpt>
      <trkpt lat="37.0061674621" lon="-2.8099987563">
        <ele>939.35</ele>
        <time>2018-11-10T13:34:56Z</time>
      </trkpt>
      <trkpt lat="37.0059518795" lon="-2.8102091420">
        <ele>939.35</ele>
        <time>2018-11-10T13:35:04Z</time>
      </trkpt>
      <trkpt lat="37.0056640450" lon="-2.8104870021">
        <ele>940.31</ele>
        <time>2018-11-10T13:35:16Z</time>
      </trkpt>
      <trkpt lat="37.0054622926" lon="-2.8107060213">
        <ele>940.31</ele>
        <time>2018-11-10T13:35:24Z</time>
      </trkpt>
      <trkpt lat="37.0052505657" lon="-2.8109706379">
        <ele>940.31</ele>
        <time>2018-11-10T13:35:32Z</time>
      </trkpt>
      <trkpt lat="37.0050577819" lon="-2.8112968616">
        <ele>941.27</ele>
        <time>2018-11-10T13:35:42Z</time>
      </trkpt>
      <trkpt lat="37.0049120206" lon="-2.8116024658">
        <ele>941.27</ele>
        <time>2018-11-10T13:35:52Z</time>
      </trkpt>
      <trkpt lat="37.0048131142" lon="-2.8118747938">
        <ele>942.23</ele>
        <time>2018-11-10T13:36:02Z</time>
      </trkpt>
      <trkpt lat="37.0047422871" lon="-2.8121384047">
        <ele>943.19</ele>
        <time>2018-11-10T13:36:13Z</time>
      </trkpt>
      <trkpt lat="37.0047033951" lon="-2.8123481199">
        <ele>944.63</ele>
        <time>2018-11-10T13:36:22Z</time>
      </trkpt>
      <trkpt lat="37.0046764053" lon="-2.8125294205">
        <ele>945.59</ele>
        <time>2018-11-10T13:36:30Z</time>
      </trkpt>
      <trkpt lat="37.0046629105" lon="-2.8127289936">
        <ele>946.56</ele>
        <time>2018-11-10T13:36:39Z</time>
      </trkpt>
      <trkpt lat="37.0046588033" lon="-2.8128858190">
        <ele>948.00</ele>
        <time>2018-11-10T13:36:47Z</time>
      </trkpt>
      <trkpt lat="37.0046598930" lon="-2.8130889125">
        <ele>948.96</ele>
        <time>2018-11-10T13:36:57Z</time>
      </trkpt>
      <trkpt lat="37.0046627428" lon="-2.8132469114">
        <ele>949.92</ele>
        <time>2018-11-10T13:37:05Z</time>
      </trkpt>
      <trkpt lat="37.0046722144" lon="-2.8133272100">
        <ele>951.36</ele>
        <time>2018-11-10T13:37:12Z</time>
      </trkpt>
      <trkpt lat="37.0046740584" lon="-2.8133892361">
        <ele>951.36</ele>
        <time>2018-11-10T13:37:18Z</time>
      </trkpt>
      <trkpt lat="37.0046958514" lon="-2.8136271983">
        <ele>952.80</ele>
        <time>2018-11-10T13:37:31Z</time>
      </trkpt>
      <trkpt lat="37.0047132019" lon="-2.8138047270">
        <ele>953.28</ele>
        <time>2018-11-10T13:37:43Z</time>
      </trkpt>
      <trkpt lat="37.0047185663" lon="-2.8137986921">
        <ele>953.77</ele>
        <time>2018-11-10T13:37:54Z</time>
      </trkpt>
      <trkpt lat="37.0047166385" lon="-2.8138118517">
        <ele>953.77</ele>
        <time>2018-11-10T13:38:06Z</time>
      </trkpt>
      <trkpt lat="37.0047151297" lon="-2.8138069902">
        <ele>953.28</ele>
        <time>2018-11-10T13:38:36Z</time>
      </trkpt>
      <trkpt lat="37.0047159679" lon="-2.8138114326">
        <ele>947.04</ele>
        <time>2018-11-10T13:41:02Z</time>
      </trkpt>
      <trkpt lat="37.0047280379" lon="-2.8138065711">
        <ele>948.96</ele>
        <time>2018-11-10T13:41:23Z</time>
      </trkpt>
      <trkpt lat="37.0047051553" lon="-2.8137979377">
        <ele>952.32</ele>
        <time>2018-11-10T13:41:40Z</time>
      </trkpt>
      <trkpt lat="37.0047137886" lon="-2.8137965128">
        <ele>950.88</ele>
        <time>2018-11-10T13:41:58Z</time>
      </trkpt>
      <trkpt lat="37.0047080051" lon="-2.8138390929">
        <ele>953.28</ele>
        <time>2018-11-10T13:42:07Z</time>
      </trkpt>
      <trkpt lat="37.0047196560" lon="-2.8139875364">
        <ele>956.17</ele>
        <time>2018-11-10T13:42:18Z</time>
      </trkpt>
      <trkpt lat="37.0047410298" lon="-2.8142189607">
        <ele>956.65</ele>
        <time>2018-11-10T13:42:32Z</time>
      </trkpt>
      <trkpt lat="37.0047552790" lon="-2.8144206293">
        <ele>957.61</ele>
        <time>2018-11-10T13:42:44Z</time>
      </trkpt>
      <trkpt lat="37.0047700312" lon="-2.8146217111">
        <ele>959.53</ele>
        <time>2018-11-10T13:42:56Z</time>
      </trkpt>
      <trkpt lat="37.0047776587" lon="-2.8147380520">
        <ele>960.49</ele>
        <time>2018-11-10T13:43:05Z</time>
      </trkpt>
      <trkpt lat="37.0047774073" lon="-2.8147920314">
        <ele>961.46</ele>
        <time>2018-11-10T13:43:14Z</time>
      </trkpt>
      <trkpt lat="37.0047863759" lon="-2.8148051910">
        <ele>960.49</ele>
        <time>2018-11-10T13:43:34Z</time>
      </trkpt>
      <trkpt lat="37.0047846995" lon="-2.8148740903">
        <ele>960.49</ele>
        <time>2018-11-10T13:43:42Z</time>
      </trkpt>
      <trkpt lat="37.0047964342" lon="-2.8151061013">
        <ele>961.46</ele>
        <time>2018-11-10T13:43:56Z</time>
      </trkpt>
      <trkpt lat="37.0047955122" lon="-2.8153510205">
        <ele>962.90</ele>
        <time>2018-11-10T13:44:10Z</time>
      </trkpt>
      <trkpt lat="37.0047827717" lon="-2.8155447263">
        <ele>964.34</ele>
        <time>2018-11-10T13:44:21Z</time>
      </trkpt>
      <trkpt lat="37.0047385152" lon="-2.8157556150">
        <ele>966.26</ele>
        <time>2018-11-10T13:44:33Z</time>
      </trkpt>
      <trkpt lat="37.0046884753" lon="-2.8159768134">
        <ele>967.70</ele>
        <time>2018-11-10T13:44:46Z</time>
      </trkpt>
      <trkpt lat="37.0046303887" lon="-2.8161633946">
        <ele>968.67</ele>
        <time>2018-11-10T13:44:58Z</time>
      </trkpt>
      <trkpt lat="37.0045553707" lon="-2.8163818270">
        <ele>969.63</ele>
        <time>2018-11-10T13:45:12Z</time>
      </trkpt>
      <trkpt lat="37.0044861361" lon="-2.8166033607">
        <ele>972.03</ele>
        <time>2018-11-10T13:45:26Z</time>
      </trkpt>
      <trkpt lat="37.0044163987" lon="-2.8168153390">
        <ele>972.99</ele>
        <time>2018-11-10T13:45:40Z</time>
      </trkpt>
      <trkpt lat="37.0044101961" lon="-2.8168183565">
        <ele>973.95</ele>
        <time>2018-11-10T13:45:47Z</time>
      </trkpt>
      <trkpt lat="37.0043672808" lon="-2.8169063665">
        <ele>973.47</ele>
        <time>2018-11-10T13:45:54Z</time>
      </trkpt>
      <trkpt lat="37.0043154806" lon="-2.8170852363">
        <ele>972.99</ele>
        <time>2018-11-10T13:46:02Z</time>
      </trkpt>
      <trkpt lat="37.0042749122" lon="-2.8172104619">
        <ele>972.99</ele>
        <time>2018-11-10T13:46:08Z</time>
      </trkpt>
      <trkpt lat="37.0041790232" lon="-2.8174966201">
        <ele>973.95</ele>
        <time>2018-11-10T13:46:17Z</time>
      </trkpt>
      <trkpt lat="37.0040766802" lon="-2.8178241849">
        <ele>974.43</ele>
        <time>2018-11-10T13:46:28Z</time>
      </trkpt>
      <trkpt lat="37.0039857365" lon="-2.8180960938">
        <ele>973.95</ele>
        <time>2018-11-10T13:46:38Z</time>
      </trkpt>
      <trkpt lat="37.0039032586" lon="-2.8183302842">
        <ele>973.47</ele>
        <time>2018-11-10T13:46:46Z</time>
      </trkpt>
      <trkpt lat="37.0037424937" lon="-2.8186797258">
        <ele>973.47</ele>
        <time>2018-11-10T13:46:57Z</time>
      </trkpt>
      <trkpt lat="37.0035973191" lon="-2.8189347032">
        <ele>973.95</ele>
        <time>2018-11-10T13:47:05Z</time>
      </trkpt>
      <trkpt lat="37.0034073852" lon="-2.8192115575">
        <ele>974.43</ele>
        <time>2018-11-10T13:47:14Z</time>
      </trkpt>
      <trkpt lat="37.0032047108" lon="-2.8194573149">
        <ele>975.88</ele>
        <time>2018-11-10T13:47:23Z</time>
      </trkpt>
      <trkpt lat="37.0029095840" lon="-2.8197843768">
        <ele>977.32</ele>
        <time>2018-11-10T13:47:36Z</time>
      </trkpt>
      <trkpt lat="37.0027758926" lon="-2.8199314792">
        <ele>977.80</ele>
        <time>2018-11-10T13:47:45Z</time>
      </trkpt>
      <trkpt lat="37.0026608929" lon="-2.8200793359">
        <ele>979.24</ele>
        <time>2018-11-10T13:47:54Z</time>
      </trkpt>
      <trkpt lat="37.0025389362" lon="-2.8202605527">
        <ele>980.68</ele>
        <time>2018-11-10T13:48:04Z</time>
      </trkpt>
      <trkpt lat="37.0024372637" lon="-2.8204355668">
        <ele>981.16</ele>
        <time>2018-11-10T13:48:13Z</time>
      </trkpt>
      <trkpt lat="37.0023439731" lon="-2.8206217289">
        <ele>982.12</ele>
        <time>2018-11-10T13:48:22Z</time>
      </trkpt>
      <trkpt lat="37.0022415463" lon="-2.8208459448">
        <ele>983.09</ele>
        <time>2018-11-10T13:48:33Z</time>
      </trkpt>
      <trkpt lat="37.0021541230" lon="-2.8210547380">
        <ele>984.05</ele>
        <time>2018-11-10T13:48:43Z</time>
      </trkpt>
      <trkpt lat="37.0020892471" lon="-2.8211750183">
        <ele>985.01</ele>
        <time>2018-11-10T13:48:50Z</time>
      </trkpt>
      <trkpt lat="37.0020164922" lon="-2.8213122301">
        <ele>985.97</ele>
        <time>2018-11-10T13:48:58Z</time>
      </trkpt>
      <trkpt lat="37.0018916856" lon="-2.8214786109">
        <ele>987.41</ele>
        <time>2018-11-10T13:49:08Z</time>
      </trkpt>
      <trkpt lat="37.0017382968" lon="-2.8215905093">
        <ele>988.85</ele>
        <time>2018-11-10T13:49:18Z</time>
      </trkpt>
      <trkpt lat="37.0015576668" lon="-2.8216656949">
        <ele>990.30</ele>
        <time>2018-11-10T13:49:28Z</time>
      </trkpt>
      <trkpt lat="37.0014302619" lon="-2.8216664493">
        <ele>991.26</ele>
        <time>2018-11-10T13:49:35Z</time>
      </trkpt>
      <trkpt lat="37.0012722630" lon="-2.8216572292">
        <ele>993.18</ele>
        <time>2018-11-10T13:49:44Z</time>
      </trkpt>
      <trkpt lat="37.0011322852" lon="-2.8216052614">
        <ele>994.62</ele>
        <time>2018-11-10T13:49:52Z</time>
      </trkpt>
      <trkpt lat="37.0009966660" lon="-2.8214916028">
        <ele>995.58</ele>
        <time>2018-11-10T13:50:00Z</time>
      </trkpt>
      <trkpt lat="37.0008843485" lon="-2.8213596717">
        <ele>997.51</ele>
        <time>2018-11-10T13:50:08Z</time>
      </trkpt>
      <trkpt lat="37.0007463824" lon="-2.8211483639">
        <ele>998.47</ele>
        <time>2018-11-10T13:50:19Z</time>
      </trkpt>
      <trkpt lat="37.0006618928" lon="-2.8209927958">
        <ele>998.95</ele>
        <time>2018-11-10T13:50:27Z</time>
      </trkpt>
      <trkpt lat="37.0005511679" lon="-2.8208156023">
        <ele>998.95</ele>
        <time>2018-11-10T13:50:36Z</time>
      </trkpt>
      <trkpt lat="37.0003450569" lon="-2.8206210583">
        <ele>1000.39</ele>
        <time>2018-11-10T13:50:46Z</time>
      </trkpt>
      <trkpt lat="37.0001373533" lon="-2.8205446992">
        <ele>999.91</ele>
        <time>2018-11-10T13:50:55Z</time>
      </trkpt>
      <trkpt lat="36.9999719784" lon="-2.8205510695">
        <ele>1000.39</ele>
        <time>2018-11-10T13:51:02Z</time>
      </trkpt>
      <trkpt lat="36.9997866545" lon="-2.8206234053">
        <ele>1000.39</ele>
        <time>2018-11-10T13:51:10Z</time>
      </trkpt>
      <trkpt lat="36.9996440783" lon="-2.8207603656">
        <ele>1000.87</ele>
        <time>2018-11-10T13:51:17Z</time>
      </trkpt>
      <trkpt lat="36.9994996581" lon="-2.8210472781">
        <ele>1002.31</ele>
        <time>2018-11-10T13:51:26Z</time>
      </trkpt>
      <trkpt lat="36.9994646218" lon="-2.8214278165">
        <ele>1000.39</ele>
        <time>2018-11-10T13:51:35Z</time>
      </trkpt>
      <trkpt lat="36.9994950481" lon="-2.8218846302">
        <ele>997.99</ele>
        <time>2018-11-10T13:51:43Z</time>
      </trkpt>
      <trkpt lat="36.9995274860" lon="-2.8224282805">
        <ele>994.14</ele>
        <time>2018-11-10T13:51:50Z</time>
      </trkpt>
      <trkpt lat="36.9995647017" lon="-2.8231870104">
        <ele>989.33</ele>
        <time>2018-11-10T13:51:57Z</time>
      </trkpt>
      <trkpt lat="36.9995998219" lon="-2.8243389353">
        <ele>981.64</ele>
        <time>2018-11-10T13:52:06Z</time>
      </trkpt>
      <trkpt lat="36.9995792862" lon="-2.8244751412">
        <ele>980.68</ele>
        <time>2018-11-10T13:52:07Z</time>
      </trkpt>
      <trkpt lat="36.9994324353" lon="-2.8248206433">
        <ele>978.28</ele>
        <time>2018-11-10T13:52:10Z</time>
      </trkpt>
      <trkpt lat="36.9991613645" lon="-2.8250571806">
        <ele>975.39</ele>
        <time>2018-11-10T13:52:13Z</time>
      </trkpt>
      <trkpt lat="36.9990508910" lon="-2.8251057956">
        <ele>974.43</ele>
        <time>2018-11-10T13:52:14Z</time>
      </trkpt>
      <trkpt lat="36.9989568461" lon="-2.8251347970">
        <ele>973.95</ele>
        <time>2018-11-10T13:52:15Z</time>
      </trkpt>
      <trkpt lat="36.9988515694" lon="-2.8251612000">
        <ele>973.47</ele>
        <time>2018-11-10T13:52:16Z</time>
      </trkpt>
      <trkpt lat="36.9985399302" lon="-2.8252549097">
        <ele>971.07</ele>
        <time>2018-11-10T13:52:19Z</time>
      </trkpt>
      <trkpt lat="36.9984409399" lon="-2.8253135830">
        <ele>970.11</ele>
        <time>2018-11-10T13:52:20Z</time>
      </trkpt>
      <trkpt lat="36.9983566180" lon="-2.8253831528">
        <ele>969.15</ele>
        <time>2018-11-10T13:52:21Z</time>
      </trkpt>
      <trkpt lat="36.9982848689" lon="-2.8254704084">
        <ele>968.18</ele>
        <time>2018-11-10T13:52:22Z</time>
      </trkpt>
      <trkpt lat="36.9982256927" lon="-2.8255695663">
        <ele>967.70</ele>
        <time>2018-11-10T13:52:23Z</time>
      </trkpt>
      <trkpt lat="36.9981754012" lon="-2.8256869130">
        <ele>966.74</ele>
        <time>2018-11-10T13:52:24Z</time>
      </trkpt>
      <trkpt lat="36.9981189910" lon="-2.8259306587">
        <ele>964.82</ele>
        <time>2018-11-10T13:52:26Z</time>
      </trkpt>
      <trkpt lat="36.9980566297" lon="-2.8264401108">
        <ele>962.42</ele>
        <time>2018-11-10T13:52:30Z</time>
      </trkpt>
      <trkpt lat="36.9978004787" lon="-2.8270030394">
        <ele>958.57</ele>
        <time>2018-11-10T13:52:35Z</time>
      </trkpt>
      <trkpt lat="36.9977073558" lon="-2.8270778898">
        <ele>957.61</ele>
        <time>2018-11-10T13:52:36Z</time>
      </trkpt>
      <trkpt lat="36.9976163283" lon="-2.8271320369">
        <ele>957.13</ele>
        <time>2018-11-10T13:52:37Z</time>
      </trkpt>
      <trkpt lat="36.9975097105" lon="-2.8271689173">
        <ele>956.17</ele>
        <time>2018-11-10T13:52:38Z</time>
      </trkpt>
      <trkpt lat="36.9974075351" lon="-2.8271854296">
        <ele>955.69</ele>
        <time>2018-11-10T13:52:39Z</time>
      </trkpt>
      <trkpt lat="36.9973052759" lon="-2.8271929733">
        <ele>954.73</ele>
        <time>2018-11-10T13:52:40Z</time>
      </trkpt>
      <trkpt lat="36.9965439476" lon="-2.8271756228">
        <ele>948.48</ele>
        <time>2018-11-10T13:52:47Z</time>
      </trkpt>
      <trkpt lat="36.9962135330" lon="-2.8272422589">
        <ele>945.59</ele>
        <time>2018-11-10T13:52:50Z</time>
      </trkpt>
      <trkpt lat="36.9961140398" lon="-2.8272891138">
        <ele>944.63</ele>
        <time>2018-11-10T13:52:51Z</time>
      </trkpt>
      <trkpt lat="36.9960150495" lon="-2.8273543250">
        <ele>943.67</ele>
        <time>2018-11-10T13:52:52Z</time>
      </trkpt>
      <trkpt lat="36.9959195796" lon="-2.8274388984">
        <ele>942.71</ele>
        <time>2018-11-10T13:52:53Z</time>
      </trkpt>
      <trkpt lat="36.9958412088" lon="-2.8275290877">
        <ele>941.75</ele>
        <time>2018-11-10T13:52:54Z</time>
      </trkpt>
      <trkpt lat="36.9956419710" lon="-2.8278769366">
        <ele>939.83</ele>
        <time>2018-11-10T13:52:57Z</time>
      </trkpt>
      <trkpt lat="36.9952533022" lon="-2.8286938369">
        <ele>933.58</ele>
        <time>2018-11-10T13:53:04Z</time>
      </trkpt>
      <trkpt lat="36.9951735064" lon="-2.8287933301">
        <ele>932.62</ele>
        <time>2018-11-10T13:53:05Z</time>
      </trkpt>
      <trkpt lat="36.9948996697" lon="-2.8290564381">
        <ele>929.73</ele>
        <time>2018-11-10T13:53:08Z</time>
      </trkpt>
      <trkpt lat="36.9947902020" lon="-2.8291249182">
        <ele>928.77</ele>
        <time>2018-11-10T13:53:09Z</time>
      </trkpt>
      <trkpt lat="36.9946709275" lon="-2.8291851841">
        <ele>927.81</ele>
        <time>2018-11-10T13:53:10Z</time>
      </trkpt>
      <trkpt lat="36.9940098468" lon="-2.8294581827">
        <ele>921.56</ele>
        <time>2018-11-10T13:53:16Z</time>
      </trkpt>
      <trkpt lat="36.9939170592" lon="-2.8295295127">
        <ele>920.60</ele>
        <time>2018-11-10T13:53:17Z</time>
      </trkpt>
      <trkpt lat="36.9938364252" lon="-2.8296146728">
        <ele>919.64</ele>
        <time>2018-11-10T13:53:18Z</time>
      </trkpt>
      <trkpt lat="36.9937715493" lon="-2.8297156747">
        <ele>918.68</ele>
        <time>2018-11-10T13:53:19Z</time>
      </trkpt>
      <trkpt lat="36.9937218446" lon="-2.8298305906">
        <ele>917.72</ele>
        <time>2018-11-10T13:53:20Z</time>
      </trkpt>
      <trkpt lat="36.9936872274" lon="-2.8299611807">
        <ele>916.75</ele>
        <time>2018-11-10T13:53:21Z</time>
      </trkpt>
      <trkpt lat="36.9936749060" lon="-2.8300863225">
        <ele>915.79</ele>
        <time>2018-11-10T13:53:22Z</time>
      </trkpt>
      <trkpt lat="36.9936788455" lon="-2.8302171640">
        <ele>914.83</ele>
        <time>2018-11-10T13:53:23Z</time>
      </trkpt>
      <trkpt lat="36.9937016442" lon="-2.8303527832">
        <ele>913.87</ele>
        <time>2018-11-10T13:53:24Z</time>
      </trkpt>
      <trkpt lat="36.9937391113" lon="-2.8304708004">
        <ele>912.91</ele>
        <time>2018-11-10T13:53:25Z</time>
      </trkpt>
      <trkpt lat="36.9937937614" lon="-2.8305855487">
        <ele>911.95</ele>
        <time>2018-11-10T13:53:26Z</time>
      </trkpt>
      <trkpt lat="36.9938605651" lon="-2.8306957707">
        <ele>911.47</ele>
        <time>2018-11-10T13:53:27Z</time>
      </trkpt>
      <trkpt lat="36.9939270336" lon="-2.8307919111">
        <ele>910.99</ele>
        <time>2018-11-10T13:53:28Z</time>
      </trkpt>
      <trkpt lat="36.9941411074" lon="-2.8310931567">
        <ele>908.58</ele>
        <time>2018-11-10T13:53:31Z</time>
      </trkpt>
      <trkpt lat="36.9943219051" lon="-2.8317129984">
        <ele>904.74</ele>
        <time>2018-11-10T13:53:36Z</time>
      </trkpt>
      <trkpt lat="36.9943074044" lon="-2.8318537306">
        <ele>903.78</ele>
        <time>2018-11-10T13:53:37Z</time>
      </trkpt>
      <trkpt lat="36.9942777324" lon="-2.8319687303">
        <ele>902.82</ele>
        <time>2018-11-10T13:53:38Z</time>
      </trkpt>
      <trkpt lat="36.9942308776" lon="-2.8320836462">
        <ele>902.33</ele>
        <time>2018-11-10T13:53:39Z</time>
      </trkpt>
      <trkpt lat="36.9941700250" lon="-2.8321931977">
        <ele>901.37</ele>
        <time>2018-11-10T13:53:40Z</time>
      </trkpt>
      <trkpt lat="36.9940998685" lon="-2.8322880808">
        <ele>900.89</ele>
        <time>2018-11-10T13:53:41Z</time>
      </trkpt>
      <trkpt lat="36.9940333162" lon="-2.8323620930">
        <ele>900.41</ele>
        <time>2018-11-10T13:53:42Z</time>
      </trkpt>
      <trkpt lat="36.9939536043" lon="-2.8324354347">
        <ele>899.45</ele>
        <time>2018-11-10T13:53:43Z</time>
      </trkpt>
      <trkpt lat="36.9938744791" lon="-2.8325000592">
        <ele>898.49</ele>
        <time>2018-11-10T13:53:44Z</time>
      </trkpt>
      <trkpt lat="36.9935309887" lon="-2.8327650111">
        <ele>895.61</ele>
        <time>2018-11-10T13:53:48Z</time>
      </trkpt>
      <trkpt lat="36.9934515283" lon="-2.8328561224">
        <ele>895.12</ele>
        <time>2018-11-10T13:53:49Z</time>
      </trkpt>
      <trkpt lat="36.9933822099" lon="-2.8329627402">
        <ele>894.16</ele>
        <time>2018-11-10T13:53:50Z</time>
      </trkpt>
      <trkpt lat="36.9933291525" lon="-2.8330859542">
        <ele>893.68</ele>
        <time>2018-11-10T13:53:51Z</time>
      </trkpt>
      <trkpt lat="36.9932918530" lon="-2.8332198132">
        <ele>892.72</ele>
        <time>2018-11-10T13:53:52Z</time>
      </trkpt>
      <trkpt lat="36.9932728261" lon="-2.8333761357">
        <ele>891.76</ele>
        <time>2018-11-10T13:53:53Z</time>
      </trkpt>
      <trkpt lat="36.9932821300" lon="-2.8335209750">
        <ele>890.80</ele>
        <time>2018-11-10T13:53:54Z</time>
      </trkpt>
      <trkpt lat="36.9933139812" lon="-2.8336628806">
        <ele>889.84</ele>
        <time>2018-11-10T13:53:55Z</time>
      </trkpt>
      <trkpt lat="36.9933684636" lon="-2.8338016011">
        <ele>888.88</ele>
        <time>2018-11-10T13:53:56Z</time>
      </trkpt>
      <trkpt lat="36.9934335072" lon="-2.8339145891">
        <ele>887.91</ele>
        <time>2018-11-10T13:53:57Z</time>
      </trkpt>
      <trkpt lat="36.9935174100" lon="-2.8340274934">
        <ele>887.43</ele>
        <time>2018-11-10T13:53:58Z</time>
      </trkpt>
      <trkpt lat="36.9937061705" lon="-2.8342509549">
        <ele>885.03</ele>
        <time>2018-11-10T13:54:00Z</time>
      </trkpt>
      <trkpt lat="36.9939577114" lon="-2.8347399551">
        <ele>881.67</ele>
        <time>2018-11-10T13:54:04Z</time>
      </trkpt>
      <trkpt lat="36.9939556997" lon="-2.8351800889">
        <ele>878.78</ele>
        <time>2018-11-10T13:54:07Z</time>
      </trkpt>
      <trkpt lat="36.9939098507" lon="-2.8353219107">
        <ele>877.82</ele>
        <time>2018-11-10T13:54:08Z</time>
      </trkpt>
      <trkpt lat="36.9938420411" lon="-2.8354618885">
        <ele>876.86</ele>
        <time>2018-11-10T13:54:09Z</time>
      </trkpt>
      <trkpt lat="36.9937803503" lon="-2.8355622198">
        <ele>875.90</ele>
        <time>2018-11-10T13:54:10Z</time>
      </trkpt>
      <trkpt lat="36.9936990459" lon="-2.8356775548">
        <ele>874.94</ele>
        <time>2018-11-10T13:54:11Z</time>
      </trkpt>
      <trkpt lat="36.9936034922" lon="-2.8357968293">
        <ele>873.98</ele>
        <time>2018-11-10T13:54:12Z</time>
      </trkpt>
      <trkpt lat="36.9932181761" lon="-2.8364039306">
        <ele>869.65</ele>
        <time>2018-11-10T13:54:17Z</time>
      </trkpt>
      <trkpt lat="36.9931625202" lon="-2.8365444113">
        <ele>868.69</ele>
        <time>2018-11-10T13:54:18Z</time>
      </trkpt>
      <trkpt lat="36.9928341173" lon="-2.8373221681">
        <ele>863.40</ele>
        <time>2018-11-10T13:54:24Z</time>
      </trkpt>
      <trkpt lat="36.9927625358" lon="-2.8374271095">
        <ele>862.92</ele>
        <time>2018-11-10T13:54:25Z</time>
      </trkpt>
      <trkpt lat="36.9926801417" lon="-2.8375224117">
        <ele>861.96</ele>
        <time>2018-11-10T13:54:26Z</time>
      </trkpt>
      <trkpt lat="36.9925896171" lon="-2.8376088291">
        <ele>861.00</ele>
        <time>2018-11-10T13:54:27Z</time>
      </trkpt>
      <trkpt lat="36.9924933929" lon="-2.8376799915">
        <ele>860.52</ele>
        <time>2018-11-10T13:54:28Z</time>
      </trkpt>
      <trkpt lat="36.9923934806" lon="-2.8377462085">
        <ele>859.56</ele>
        <time>2018-11-10T13:54:29Z</time>
      </trkpt>
      <trkpt lat="36.9916099403" lon="-2.8382367175">
        <ele>853.31</ele>
        <time>2018-11-10T13:54:37Z</time>
      </trkpt>
      <trkpt lat="36.9915268756" lon="-2.8383139148">
        <ele>852.35</ele>
        <time>2018-11-10T13:54:38Z</time>
      </trkpt>
      <trkpt lat="36.9914489239" lon="-2.8384070378">
        <ele>851.87</ele>
        <time>2018-11-10T13:54:39Z</time>
      </trkpt>
      <trkpt lat="36.9913859759" lon="-2.8385077883">
        <ele>850.90</ele>
        <time>2018-11-10T13:54:40Z</time>
      </trkpt>
      <trkpt lat="36.9913381990" lon="-2.8386216983">
        <ele>850.42</ele>
        <time>2018-11-10T13:54:41Z</time>
      </trkpt>
      <trkpt lat="36.9912733231" lon="-2.8390054218">
        <ele>848.02</ele>
        <time>2018-11-10T13:54:44Z</time>
      </trkpt>
      <trkpt lat="36.9912457466" lon="-2.8394023888">
        <ele>846.58</ele>
        <time>2018-11-10T13:54:47Z</time>
      </trkpt>
      <trkpt lat="36.9910802878" lon="-2.8398990165">
        <ele>844.66</ele>
        <time>2018-11-10T13:54:51Z</time>
      </trkpt>
      <trkpt lat="36.9910005759" lon="-2.8399980068">
        <ele>843.69</ele>
        <time>2018-11-10T13:54:52Z</time>
      </trkpt>
      <trkpt lat="36.9909294136" lon="-2.8400614578">
        <ele>843.21</ele>
        <time>2018-11-10T13:54:53Z</time>
      </trkpt>
      <trkpt lat="36.9908359554" lon="-2.8401215561">
        <ele>842.73</ele>
        <time>2018-11-10T13:54:54Z</time>
      </trkpt>
      <trkpt lat="36.9907341152" lon="-2.8401666507">
        <ele>842.25</ele>
        <time>2018-11-10T13:54:55Z</time>
      </trkpt>
      <trkpt lat="36.9906196184" lon="-2.8401963226">
        <ele>841.29</ele>
        <time>2018-11-10T13:54:56Z</time>
      </trkpt>
      <trkpt lat="36.9905084744" lon="-2.8402092308">
        <ele>840.81</ele>
        <time>2018-11-10T13:54:57Z</time>
      </trkpt>
      <trkpt lat="36.9903947320" lon="-2.8402170260">
        <ele>839.85</ele>
        <time>2018-11-10T13:54:58Z</time>
      </trkpt>
      <trkpt lat="36.9900373276" lon="-2.8402654734">
        <ele>837.45</ele>
        <time>2018-11-10T13:55:01Z</time>
      </trkpt>
      <trkpt lat="36.9899231661" lon="-2.8403059579">
        <ele>836.48</ele>
        <time>2018-11-10T13:55:02Z</time>
      </trkpt>
      <trkpt lat="36.9898106810" lon="-2.8403657209">
        <ele>836.00</ele>
        <time>2018-11-10T13:55:03Z</time>
      </trkpt>
      <trkpt lat="36.9897095952" lon="-2.8404386435">
        <ele>835.04</ele>
        <time>2018-11-10T13:55:04Z</time>
      </trkpt>
      <trkpt lat="36.9896147121" lon="-2.8405234683">
        <ele>834.56</ele>
        <time>2018-11-10T13:55:05Z</time>
      </trkpt>
      <trkpt lat="36.9895182364" lon="-2.8406221233">
        <ele>833.12</ele>
        <time>2018-11-10T13:55:06Z</time>
      </trkpt>
      <trkpt lat="36.9889856502" lon="-2.8411707189">
        <ele>827.35</ele>
        <time>2018-11-10T13:55:12Z</time>
      </trkpt>
      <trkpt lat="36.9885632861" lon="-2.8414278757">
        <ele>823.03</ele>
        <time>2018-11-10T13:55:17Z</time>
      </trkpt>
      <trkpt lat="36.9880119245" lon="-2.8417216614">
        <ele>817.74</ele>
        <time>2018-11-10T13:55:23Z</time>
      </trkpt>
      <trkpt lat="36.9877307117" lon="-2.8419533372">
        <ele>814.85</ele>
        <time>2018-11-10T13:55:26Z</time>
      </trkpt>
      <trkpt lat="36.9874997903" lon="-2.8422617074">
        <ele>812.45</ele>
        <time>2018-11-10T13:55:29Z</time>
      </trkpt>
      <trkpt lat="36.9874408655" lon="-2.8423639666">
        <ele>811.97</ele>
        <time>2018-11-10T13:55:30Z</time>
      </trkpt>
      <trkpt lat="36.9873853773" lon="-2.8424746916">
        <ele>811.49</ele>
        <time>2018-11-10T13:55:31Z</time>
      </trkpt>
      <trkpt lat="36.9873376843" lon="-2.8425854165">
        <ele>810.53</ele>
        <time>2018-11-10T13:55:32Z</time>
      </trkpt>
      <trkpt lat="36.9872973673" lon="-2.8426994104">
        <ele>810.05</ele>
        <time>2018-11-10T13:55:33Z</time>
      </trkpt>
      <trkpt lat="36.9872542005" lon="-2.8428385500">
        <ele>809.57</ele>
        <time>2018-11-10T13:55:34Z</time>
      </trkpt>
      <trkpt lat="36.9870738219" lon="-2.8436559532">
        <ele>806.68</ele>
        <time>2018-11-10T13:55:41Z</time>
      </trkpt>
      <trkpt lat="36.9869550504" lon="-2.8443953209">
        <ele>806.20</ele>
        <time>2018-11-10T13:55:48Z</time>
      </trkpt>
      <trkpt lat="36.9868817087" lon="-2.8448500391">
        <ele>807.16</ele>
        <time>2018-11-10T13:55:54Z</time>
      </trkpt>
      <trkpt lat="36.9868396316" lon="-2.8451194335">
        <ele>807.64</ele>
        <time>2018-11-10T13:56:00Z</time>
      </trkpt>
      <trkpt lat="36.9867828023" lon="-2.8454324137">
        <ele>809.57</ele>
        <time>2018-11-10T13:56:09Z</time>
      </trkpt>
      <trkpt lat="36.9867134839" lon="-2.8458672669">
        <ele>812.45</ele>
        <time>2018-11-10T13:56:22Z</time>
      </trkpt>
      <trkpt lat="36.9866867457" lon="-2.8460444603">
        <ele>812.93</ele>
        <time>2018-11-10T13:56:29Z</time>
      </trkpt>
      <trkpt lat="36.9866500329" lon="-2.8462468833">
        <ele>813.41</ele>
        <time>2018-11-10T13:56:37Z</time>
      </trkpt>
      <trkpt lat="36.9866052736" lon="-2.8465167806">
        <ele>814.37</ele>
        <time>2018-11-10T13:56:48Z</time>
      </trkpt>
      <trkpt lat="36.9865740091" lon="-2.8466976620">
        <ele>815.34</ele>
        <time>2018-11-10T13:56:56Z</time>
      </trkpt>
      <trkpt lat="36.9865405653" lon="-2.8469249792">
        <ele>815.82</ele>
        <time>2018-11-10T13:57:07Z</time>
      </trkpt>
      <trkpt lat="36.9865141623" lon="-2.8470986523">
        <ele>817.26</ele>
        <time>2018-11-10T13:57:15Z</time>
      </trkpt>
      <trkpt lat="36.9864841551" lon="-2.8472652007">
        <ele>817.74</ele>
        <time>2018-11-10T13:57:23Z</time>
      </trkpt>
      <trkpt lat="36.9864455983" lon="-2.8474863153">
        <ele>819.18</ele>
        <time>2018-11-10T13:57:34Z</time>
      </trkpt>
      <trkpt lat="36.9864093047" lon="-2.8477257863">
        <ele>821.58</ele>
        <time>2018-11-10T13:57:45Z</time>
      </trkpt>
      <trkpt lat="36.9863718376" lon="-2.8479699511">
        <ele>822.55</ele>
        <time>2018-11-10T13:57:56Z</time>
      </trkpt>
      <trkpt lat="36.9863332808" lon="-2.8481404390">
        <ele>823.99</ele>
        <time>2018-11-10T13:58:04Z</time>
      </trkpt>
      <trkpt lat="36.9862782117" lon="-2.8484050557">
        <ele>824.95</ele>
        <time>2018-11-10T13:58:16Z</time>
      </trkpt>
      <trkpt lat="36.9861953147" lon="-2.8486636374">
        <ele>825.91</ele>
        <time>2018-11-10T13:58:28Z</time>
      </trkpt>
      <trkpt lat="36.9861739408" lon="-2.8487263341">
        <ele>826.39</ele>
        <time>2018-11-10T13:58:35Z</time>
      </trkpt>
      <trkpt lat="36.9861764554" lon="-2.8487228975">
        <ele>825.91</ele>
        <time>2018-11-10T13:58:54Z</time>
      </trkpt>
      <trkpt lat="36.9861691631" lon="-2.8487278428">
        <ele>826.87</ele>
        <time>2018-11-10T13:59:03Z</time>
      </trkpt>
      <trkpt lat="36.9861748628" lon="-2.8487314470">
        <ele>827.35</ele>
        <time>2018-11-10T13:59:17Z</time>
      </trkpt>
      <trkpt lat="36.9861714263" lon="-2.8487220593">
        <ele>827.35</ele>
        <time>2018-11-10T13:59:26Z</time>
      </trkpt>
      <trkpt lat="36.9861637987" lon="-2.8487244900">
        <ele>827.35</ele>
        <time>2018-11-10T13:59:27Z</time>
      </trkpt>
      <trkpt lat="36.9861550815" lon="-2.8487321176">
        <ele>827.35</ele>
        <time>2018-11-10T13:59:28Z</time>
      </trkpt>
      <trkpt lat="36.9861483760" lon="-2.8487448581">
        <ele>827.35</ele>
        <time>2018-11-10T13:59:29Z</time>
      </trkpt>
      <trkpt lat="36.9861415867" lon="-2.8487609513">
        <ele>827.83</ele>
        <time>2018-11-10T13:59:30Z</time>
      </trkpt>
      <trkpt lat="36.9861310255" lon="-2.8487750329">
        <ele>827.35</ele>
        <time>2018-11-10T13:59:31Z</time>
      </trkpt>
      <trkpt lat="36.9861190394" lon="-2.8487938084">
        <ele>827.35</ele>
        <time>2018-11-10T13:59:32Z</time>
      </trkpt>
      <trkpt lat="36.9859136827" lon="-2.8490659688">
        <ele>828.79</ele>
        <time>2018-11-10T13:59:46Z</time>
      </trkpt>
      <trkpt lat="36.9857579470" lon="-2.8491840698">
        <ele>829.76</ele>
        <time>2018-11-10T13:59:54Z</time>
      </trkpt>
      <trkpt lat="36.9855868723" lon="-2.8492703196">
        <ele>830.24</ele>
        <time>2018-11-10T14:00:03Z</time>
      </trkpt>
      <trkpt lat="36.9854661729" lon="-2.8493336029">
        <ele>830.72</ele>
        <time>2018-11-10T14:00:10Z</time>
      </trkpt>
      <trkpt lat="36.9854544383" lon="-2.8493398055">
        <ele>831.20</ele>
        <time>2018-11-10T14:00:11Z</time>
      </trkpt>
      <trkpt lat="36.9854431227" lon="-2.8493532166">
        <ele>830.72</ele>
        <time>2018-11-10T14:00:17Z</time>
      </trkpt>
      <trkpt lat="36.9854549412" lon="-2.8493470978">
        <ele>829.27</ele>
        <time>2018-11-10T14:00:32Z</time>
      </trkpt>
      <trkpt lat="36.9854441285" lon="-2.8493519593">
        <ele>830.24</ele>
        <time>2018-11-10T14:00:40Z</time>
      </trkpt>
      <trkpt lat="36.9853471499" lon="-2.8494070284">
        <ele>831.20</ele>
        <time>2018-11-10T14:00:45Z</time>
      </trkpt>
      <trkpt lat="36.9852065854" lon="-2.8495921008">
        <ele>832.64</ele>
        <time>2018-11-10T14:00:54Z</time>
      </trkpt>
      <trkpt lat="36.9851682801" lon="-2.8497229423">
        <ele>833.12</ele>
        <time>2018-11-10T14:01:01Z</time>
      </trkpt>
      <trkpt lat="36.9851710461" lon="-2.8497240320">
        <ele>834.56</ele>
        <time>2018-11-10T14:01:11Z</time>
      </trkpt>
      <trkpt lat="36.9851624966" lon="-2.8497238643">
        <ele>833.60</ele>
        <time>2018-11-10T14:01:27Z</time>
      </trkpt>
      <trkpt lat="36.9851523545" lon="-2.8497294802">
        <ele>834.56</ele>
        <time>2018-11-10T14:01:48Z</time>
      </trkpt>
      <trkpt lat="36.9851599820" lon="-2.8497358505">
        <ele>835.04</ele>
        <time>2018-11-10T14:02:05Z</time>
      </trkpt>
      <trkpt lat="36.9851665199" lon="-2.8497445676">
        <ele>835.52</ele>
        <time>2018-11-10T14:02:22Z</time>
      </trkpt>
      <trkpt lat="36.9851616584" lon="-2.8497392032">
        <ele>836.96</ele>
        <time>2018-11-10T14:02:36Z</time>
      </trkpt>
      <trkpt lat="36.9851519354" lon="-2.8498155624">
        <ele>836.00</ele>
        <time>2018-11-10T14:02:44Z</time>
      </trkpt>
      <trkpt lat="36.9851396140" lon="-2.8500111960">
        <ele>835.04</ele>
        <time>2018-11-10T14:02:52Z</time>
      </trkpt>
      <trkpt lat="36.9851298071" lon="-2.8502298798">
        <ele>834.56</ele>
        <time>2018-11-10T14:03:00Z</time>
      </trkpt>
      <trkpt lat="36.9851314835" lon="-2.8502385132">
        <ele>835.04</ele>
        <time>2018-11-10T14:03:05Z</time>
      </trkpt>
      <trkpt lat="36.9851234369" lon="-2.8502426203">
        <ele>834.08</ele>
        <time>2018-11-10T14:03:21Z</time>
      </trkpt>
      <trkpt lat="36.9851282146" lon="-2.8502580430">
        <ele>835.04</ele>
        <time>2018-11-10T14:03:43Z</time>
      </trkpt>
      <trkpt lat="36.9851338305" lon="-2.8502440453">
        <ele>834.56</ele>
        <time>2018-11-10T14:03:58Z</time>
      </trkpt>
      <trkpt lat="36.9851270411" lon="-2.8502466436">
        <ele>835.52</ele>
        <time>2018-11-10T14:04:16Z</time>
      </trkpt>
      <trkpt lat="36.9851232693" lon="-2.8502493259">
        <ele>834.08</ele>
        <time>2018-11-10T14:04:29Z</time>
      </trkpt>
      <trkpt lat="36.9850891549" lon="-2.8504056484">
        <ele>834.08</ele>
        <time>2018-11-10T14:04:36Z</time>
      </trkpt>
      <trkpt lat="36.9850353431" lon="-2.8505429439">
        <ele>834.08</ele>
        <time>2018-11-10T14:04:43Z</time>
      </trkpt>
      <trkpt lat="36.9849276356" lon="-2.8507289384">
        <ele>834.56</ele>
        <time>2018-11-10T14:04:52Z</time>
      </trkpt>
      <trkpt lat="36.9847696368" lon="-2.8508684132">
        <ele>835.52</ele>
        <time>2018-11-10T14:05:01Z</time>
      </trkpt>
      <trkpt lat="36.9845372904" lon="-2.8510757815">
        <ele>836.96</ele>
        <time>2018-11-10T14:05:13Z</time>
      </trkpt>
      <trkpt lat="36.9843259826" lon="-2.8512573335">
        <ele>838.41</ele>
        <time>2018-11-10T14:05:23Z</time>
      </trkpt>
      <trkpt lat="36.9840762019" lon="-2.8514749277">
        <ele>837.93</ele>
        <time>2018-11-10T14:05:34Z</time>
      </trkpt>
      <trkpt lat="36.9839515630" lon="-2.8515764326">
        <ele>838.41</ele>
        <time>2018-11-10T14:05:42Z</time>
      </trkpt>
      <trkpt lat="36.9837975875" lon="-2.8517138958">
        <ele>838.89</ele>
        <time>2018-11-10T14:05:49Z</time>
      </trkpt>
      <trkpt lat="36.9836001098" lon="-2.8518737387">
        <ele>840.33</ele>
        <time>2018-11-10T14:05:58Z</time>
      </trkpt>
      <trkpt lat="36.9833012111" lon="-2.8521363437">
        <ele>842.73</ele>
        <time>2018-11-10T14:06:11Z</time>
      </trkpt>
      <trkpt lat="36.9830608182" lon="-2.8523597214">
        <ele>845.62</ele>
        <time>2018-11-10T14:06:22Z</time>
      </trkpt>
      <trkpt lat="36.9828973711" lon="-2.8525229171">
        <ele>847.06</ele>
        <time>2018-11-10T14:06:31Z</time>
      </trkpt>
      <trkpt lat="36.9826489314" lon="-2.8527745418">
        <ele>850.90</ele>
        <time>2018-11-10T14:06:43Z</time>
      </trkpt>
      <trkpt lat="36.9825264718" lon="-2.8529289365">
        <ele>852.35</ele>
        <time>2018-11-10T14:06:51Z</time>
      </trkpt>
      <trkpt lat="36.9825206045" lon="-2.8529475443">
        <ele>852.35</ele>
        <time>2018-11-10T14:06:52Z</time>
      </trkpt>
      <trkpt lat="36.9825164136" lon="-2.8529632185">
        <ele>852.35</ele>
        <time>2018-11-10T14:06:53Z</time>
      </trkpt>
      <trkpt lat="36.9825132284" lon="-2.8529781383">
        <ele>852.35</ele>
        <time>2018-11-10T14:06:54Z</time>
      </trkpt>
      <trkpt lat="36.9825038407" lon="-2.8529976681">
        <ele>850.42</ele>
        <time>2018-11-10T14:07:00Z</time>
      </trkpt>
      <trkpt lat="36.9825085346" lon="-2.8530292679">
        <ele>850.42</ele>
        <time>2018-11-10T14:07:21Z</time>
      </trkpt>
      <trkpt lat="36.9824869093" lon="-2.8530287649">
        <ele>850.42</ele>
        <time>2018-11-10T14:07:23Z</time>
      </trkpt>
      <trkpt lat="36.9824703131" lon="-2.8530311119">
        <ele>849.94</ele>
        <time>2018-11-10T14:07:24Z</time>
      </trkpt>
      <trkpt lat="36.9822988193" lon="-2.8531433456">
        <ele>851.38</ele>
        <time>2018-11-10T14:07:33Z</time>
      </trkpt>
      <trkpt lat="36.9821770303" lon="-2.8532575909">
        <ele>852.83</ele>
        <time>2018-11-10T14:07:40Z</time>
      </trkpt>
      <trkpt lat="36.9820295088" lon="-2.8534113988">
        <ele>854.75</ele>
        <time>2018-11-10T14:07:48Z</time>
      </trkpt>
      <trkpt lat="36.9817669876" lon="-2.8536852356">
        <ele>856.67</ele>
        <time>2018-11-10T14:08:00Z</time>
      </trkpt>
      <trkpt lat="36.9815272652" lon="-2.8539464157">
        <ele>858.11</ele>
        <time>2018-11-10T14:08:11Z</time>
      </trkpt>
      <trkpt lat="36.9813415222" lon="-2.8541733976">
        <ele>858.59</ele>
        <time>2018-11-10T14:08:20Z</time>
      </trkpt>
      <trkpt lat="36.9812238403" lon="-2.8543779999">
        <ele>859.08</ele>
        <time>2018-11-10T14:08:27Z</time>
      </trkpt>
      <trkpt lat="36.9811417814" lon="-2.8545623180">
        <ele>860.04</ele>
        <time>2018-11-10T14:08:33Z</time>
      </trkpt>
      <trkpt lat="36.9810200762" lon="-2.8548833448">
        <ele>861.00</ele>
        <time>2018-11-10T14:08:42Z</time>
      </trkpt>
      <trkpt lat="36.9808639213" lon="-2.8553066310">
        <ele>863.88</ele>
        <time>2018-11-10T14:08:53Z</time>
      </trkpt>
      <trkpt lat="36.9807226025" lon="-2.8557087108">
        <ele>862.92</ele>
        <time>2018-11-10T14:09:03Z</time>
      </trkpt>
      <trkpt lat="36.9805378653" lon="-2.8562060930">
        <ele>863.40</ele>
        <time>2018-11-10T14:09:16Z</time>
      </trkpt>
      <trkpt lat="36.9804554712" lon="-2.8564658482">
        <ele>865.32</ele>
        <time>2018-11-10T14:09:24Z</time>
      </trkpt>
      <trkpt lat="36.9803382084" lon="-2.8567640763">
        <ele>865.80</ele>
        <time>2018-11-10T14:09:32Z</time>
      </trkpt>
      <trkpt lat="36.9802109711" lon="-2.8570225742">
        <ele>865.32</ele>
        <time>2018-11-10T14:09:39Z</time>
      </trkpt>
      <trkpt lat="36.9801237993" lon="-2.8572800662">
        <ele>865.32</ele>
        <time>2018-11-10T14:09:44Z</time>
      </trkpt>
      <trkpt lat="36.9801174290" lon="-2.8573394101">
        <ele>864.84</ele>
        <time>2018-11-10T14:09:45Z</time>
      </trkpt>
      <trkpt lat="36.9801116455" lon="-2.8574046213">
        <ele>864.36</ele>
        <time>2018-11-10T14:09:46Z</time>
      </trkpt>
      <trkpt lat="36.9801051915" lon="-2.8574777115">
        <ele>864.36</ele>
        <time>2018-11-10T14:09:47Z</time>
      </trkpt>
      <trkpt lat="36.9801005814" lon="-2.8575448506">
        <ele>863.88</ele>
        <time>2018-11-10T14:09:48Z</time>
      </trkpt>
      <trkpt lat="36.9801035151" lon="-2.8576860018">
        <ele>862.92</ele>
        <time>2018-11-10T14:09:50Z</time>
      </trkpt>
      <trkpt lat="36.9801399764" lon="-2.8579707351">
        <ele>862.44</ele>
        <time>2018-11-10T14:09:54Z</time>
      </trkpt>
      <trkpt lat="36.9801383000" lon="-2.8580314200">
        <ele>862.44</ele>
        <time>2018-11-10T14:09:55Z</time>
      </trkpt>
      <trkpt lat="36.9801220391" lon="-2.8581744991">
        <ele>863.88</ele>
        <time>2018-11-10T14:09:59Z</time>
      </trkpt>
      <trkpt lat="36.9801070355" lon="-2.8582242876">
        <ele>863.88</ele>
        <time>2018-11-10T14:10:05Z</time>
      </trkpt>
      <trkpt lat="36.9800958876" lon="-2.8583023231">
        <ele>863.40</ele>
        <time>2018-11-10T14:10:13Z</time>
      </trkpt>
      <trkpt lat="36.9800801296" lon="-2.8584436420">
        <ele>863.88</ele>
        <time>2018-11-10T14:10:18Z</time>
      </trkpt>
      <trkpt lat="36.9800541457" lon="-2.8586927522">
        <ele>865.80</ele>
        <time>2018-11-10T14:10:25Z</time>
      </trkpt>
      <trkpt lat="36.9800330233" lon="-2.8590416908">
        <ele>864.36</ele>
        <time>2018-11-10T14:10:34Z</time>
      </trkpt>
      <trkpt lat="36.9800445065" lon="-2.8591345623">
        <ele>864.36</ele>
        <time>2018-11-10T14:10:36Z</time>
      </trkpt>
      <trkpt lat="36.9800511282" lon="-2.8591879550">
        <ele>863.88</ele>
        <time>2018-11-10T14:10:37Z</time>
      </trkpt>
      <trkpt lat="36.9800744299" lon="-2.8594093211">
        <ele>861.96</ele>
        <time>2018-11-10T14:10:43Z</time>
      </trkpt>
      <trkpt lat="36.9800831471" lon="-2.8594139311">
        <ele>861.00</ele>
        <time>2018-11-10T14:10:49Z</time>
      </trkpt>
      <trkpt lat="36.9800820574" lon="-2.8594018612">
        <ele>859.56</ele>
        <time>2018-11-10T14:11:06Z</time>
      </trkpt>
      <trkpt lat="36.9800786208" lon="-2.8594068065">
        <ele>860.04</ele>
        <time>2018-11-10T14:11:15Z</time>
      </trkpt>
      <trkpt lat="36.9800814707" lon="-2.8594205528">
        <ele>860.04</ele>
        <time>2018-11-10T14:11:16Z</time>
      </trkpt>
      <trkpt lat="36.9800838176" lon="-2.8594335448">
        <ele>859.56</ele>
        <time>2018-11-10T14:11:17Z</time>
      </trkpt>
      <trkpt lat="36.9800863322" lon="-2.8594477102">
        <ele>859.08</ele>
        <time>2018-11-10T14:11:18Z</time>
      </trkpt>
      <trkpt lat="36.9800897688" lon="-2.8594622109">
        <ele>859.08</ele>
        <time>2018-11-10T14:11:19Z</time>
      </trkpt>
      <trkpt lat="36.9800929539" lon="-2.8594793100">
        <ele>858.59</ele>
        <time>2018-11-10T14:11:20Z</time>
      </trkpt>
      <trkpt lat="36.9801073708" lon="-2.8596471157">
        <ele>858.59</ele>
        <time>2018-11-10T14:11:28Z</time>
      </trkpt>
      <trkpt lat="36.9801008329" lon="-2.8597835731">
        <ele>858.11</ele>
        <time>2018-11-10T14:11:34Z</time>
      </trkpt>
      <trkpt lat="36.9800971448" lon="-2.8598060366">
        <ele>857.63</ele>
        <time>2018-11-10T14:11:35Z</time>
      </trkpt>
      <trkpt lat="36.9800971448" lon="-2.8598297574">
        <ele>857.63</ele>
        <time>2018-11-10T14:11:36Z</time>
      </trkpt>
      <trkpt lat="36.9800968934" lon="-2.8598538972">
        <ele>857.63</ele>
        <time>2018-11-10T14:11:37Z</time>
      </trkpt>
      <trkpt lat="36.9800954685" lon="-2.8598740976">
        <ele>857.63</ele>
        <time>2018-11-10T14:11:38Z</time>
      </trkpt>
      <trkpt lat="36.9800644554" lon="-2.8600114770">
        <ele>859.56</ele>
        <time>2018-11-10T14:11:45Z</time>
      </trkpt>
      <trkpt lat="36.9800431654" lon="-2.8601810429">
        <ele>859.08</ele>
        <time>2018-11-10T14:11:52Z</time>
      </trkpt>
      <trkpt lat="36.9800448418" lon="-2.8603527881">
        <ele>858.11</ele>
        <time>2018-11-10T14:11:58Z</time>
      </trkpt>
      <trkpt lat="36.9801130705" lon="-2.8605997190">
        <ele>859.56</ele>
        <time>2018-11-10T14:12:04Z</time>
      </trkpt>
      <trkpt lat="36.9802201912" lon="-2.8609150462">
        <ele>859.08</ele>
        <time>2018-11-10T14:12:11Z</time>
      </trkpt>
      <trkpt lat="36.9802487735" lon="-2.8609625716">
        <ele>859.56</ele>
        <time>2018-11-10T14:12:12Z</time>
      </trkpt>
      <trkpt lat="36.9803806208" lon="-2.8612022102">
        <ele>862.44</ele>
        <time>2018-11-10T14:12:18Z</time>
      </trkpt>
      <trkpt lat="36.9805506058" lon="-2.8614958283">
        <ele>863.40</ele>
        <time>2018-11-10T14:12:25Z</time>
      </trkpt>
      <trkpt lat="36.9807620812" lon="-2.8618689906">
        <ele>862.92</ele>
        <time>2018-11-10T14:12:34Z</time>
      </trkpt>
      <trkpt lat="36.9809865486" lon="-2.8622555640">
        <ele>860.04</ele>
        <time>2018-11-10T14:12:43Z</time>
      </trkpt>
      <trkpt lat="36.9812105130" lon="-2.8626021557">
        <ele>856.67</ele>
        <time>2018-11-10T14:12:52Z</time>
      </trkpt>
      <trkpt lat="36.9813534245" lon="-2.8628455661">
        <ele>854.75</ele>
        <time>2018-11-10T14:13:00Z</time>
      </trkpt>
      <trkpt lat="36.9815486390" lon="-2.8631883860">
        <ele>852.83</ele>
        <time>2018-11-10T14:13:08Z</time>
      </trkpt>
      <trkpt lat="36.9816659857" lon="-2.8633319680">
        <ele>851.87</ele>
        <time>2018-11-10T14:13:13Z</time>
      </trkpt>
      <trkpt lat="36.9817899540" lon="-2.8636043798">
        <ele>850.42</ele>
        <time>2018-11-10T14:13:20Z</time>
      </trkpt>
      <trkpt lat="36.9818563387" lon="-2.8638467845">
        <ele>849.94</ele>
        <time>2018-11-10T14:13:27Z</time>
      </trkpt>
      <trkpt lat="36.9818534888" lon="-2.8638549987">
        <ele>849.94</ele>
        <time>2018-11-10T14:13:33Z</time>
      </trkpt>
      <trkpt lat="36.9818512257" lon="-2.8638685774">
        <ele>849.94</ele>
        <time>2018-11-10T14:13:35Z</time>
      </trkpt>
      <trkpt lat="36.9818551652" lon="-2.8638875205">
        <ele>849.94</ele>
        <time>2018-11-10T14:13:36Z</time>
      </trkpt>
      <trkpt lat="36.9818601105" lon="-2.8639152646">
        <ele>850.42</ele>
        <time>2018-11-10T14:13:37Z</time>
      </trkpt>
      <trkpt lat="36.9818662293" lon="-2.8639485408">
        <ele>850.42</ele>
        <time>2018-11-10T14:13:38Z</time>
      </trkpt>
      <trkpt lat="36.9818740245" lon="-2.8639842477">
        <ele>850.42</ele>
        <time>2018-11-10T14:13:39Z</time>
      </trkpt>
      <trkpt lat="36.9819592685" lon="-2.8642926179">
        <ele>849.94</ele>
        <time>2018-11-10T14:13:47Z</time>
      </trkpt>
      <trkpt lat="36.9820611924" lon="-2.8646932729">
        <ele>850.90</ele>
        <time>2018-11-10T14:13:56Z</time>
      </trkpt>
      <trkpt lat="36.9821763597" lon="-2.8651814349">
        <ele>850.90</ele>
        <time>2018-11-10T14:14:06Z</time>
      </trkpt>
      <trkpt lat="36.9822807144" lon="-2.8656185511">
        <ele>851.38</ele>
        <time>2018-11-10T14:14:16Z</time>
      </trkpt>
      <trkpt lat="36.9823762681" lon="-2.8660415858">
        <ele>851.87</ele>
        <time>2018-11-10T14:14:25Z</time>
      </trkpt>
      <trkpt lat="36.9824514538" lon="-2.8663732577">
        <ele>852.83</ele>
        <time>2018-11-10T14:14:33Z</time>
      </trkpt>
      <trkpt lat="36.9825498573" lon="-2.8667761758">
        <ele>852.35</ele>
        <time>2018-11-10T14:14:42Z</time>
      </trkpt>
      <trkpt lat="36.9825816248" lon="-2.8669305705">
        <ele>852.83</ele>
        <time>2018-11-10T14:14:48Z</time>
      </trkpt>
      <trkpt lat="36.9825722370" lon="-2.8669262957">
        <ele>851.87</ele>
        <time>2018-11-10T14:14:59Z</time>
      </trkpt>
      <trkpt lat="36.9825774338" lon="-2.8669289779">
        <ele>849.94</ele>
        <time>2018-11-10T14:15:10Z</time>
      </trkpt>
      <trkpt lat="36.9825944491" lon="-2.8669940215">
        <ele>851.38</ele>
        <time>2018-11-10T14:15:18Z</time>
      </trkpt>
      <trkpt lat="36.9826588221" lon="-2.8672916628">
        <ele>851.38</ele>
        <time>2018-11-10T14:15:26Z</time>
      </trkpt>
      <trkpt lat="36.9826899190" lon="-2.8675570339">
        <ele>850.42</ele>
        <time>2018-11-10T14:15:32Z</time>
      </trkpt>
      <trkpt lat="36.9827952795" lon="-2.8680182062">
        <ele>850.90</ele>
        <time>2018-11-10T14:15:41Z</time>
      </trkpt>
      <trkpt lat="36.9829140510" lon="-2.8684985731">
        <ele>851.38</ele>
        <time>2018-11-10T14:15:51Z</time>
      </trkpt>
      <trkpt lat="36.9830390252" lon="-2.8690329194">
        <ele>852.35</ele>
        <time>2018-11-10T14:16:02Z</time>
      </trkpt>
      <trkpt lat="36.9831308909" lon="-2.8694499191">
        <ele>852.35</ele>
        <time>2018-11-10T14:16:11Z</time>
      </trkpt>
      <trkpt lat="36.9832509197" lon="-2.8699498996">
        <ele>853.31</ele>
        <time>2018-11-10T14:16:22Z</time>
      </trkpt>
      <trkpt lat="36.9833257701" lon="-2.8702712618">
        <ele>853.79</ele>
        <time>2018-11-10T14:16:30Z</time>
      </trkpt>
      <trkpt lat="36.9833815098" lon="-2.8705123253">
        <ele>855.71</ele>
        <time>2018-11-10T14:16:36Z</time>
      </trkpt>
      <trkpt lat="36.9834871218" lon="-2.8709065262">
        <ele>855.23</ele>
        <time>2018-11-10T14:16:45Z</time>
      </trkpt>
      <trkpt lat="36.9835015386" lon="-2.8709562309">
        <ele>855.23</ele>
        <time>2018-11-10T14:16:46Z</time>
      </trkpt>
      <trkpt lat="36.9835151173" lon="-2.8709995653">
        <ele>855.71</ele>
        <time>2018-11-10T14:16:47Z</time>
      </trkpt>
      <trkpt lat="36.9836213998" lon="-2.8713387810">
        <ele>855.71</ele>
        <time>2018-11-10T14:16:55Z</time>
      </trkpt>
      <trkpt lat="36.9837274309" lon="-2.8716608137">
        <ele>856.19</ele>
        <time>2018-11-10T14:17:03Z</time>
      </trkpt>
      <trkpt lat="36.9838257506" lon="-2.8719860315">
        <ele>857.15</ele>
        <time>2018-11-10T14:17:11Z</time>
      </trkpt>
      <trkpt lat="36.9839571789" lon="-2.8723778855">
        <ele>858.11</ele>
        <time>2018-11-10T14:17:21Z</time>
      </trkpt>
      <trkpt lat="36.9840864278" lon="-2.8727572504">
        <ele>859.56</ele>
        <time>2018-11-10T14:17:31Z</time>
      </trkpt>
      <trkpt lat="36.9841865078" lon="-2.8730914369">
        <ele>859.56</ele>
        <time>2018-11-10T14:17:40Z</time>
      </trkpt>
      <trkpt lat="36.9843093026" lon="-2.8734709695">
        <ele>859.08</ele>
        <time>2018-11-10T14:17:50Z</time>
      </trkpt>
      <trkpt lat="36.9844254758" lon="-2.8738479037">
        <ele>858.59</ele>
        <time>2018-11-10T14:18:00Z</time>
      </trkpt>
      <trkpt lat="36.9845798705" lon="-2.8742623888">
        <ele>859.08</ele>
        <time>2018-11-10T14:18:11Z</time>
      </trkpt>
      <trkpt lat="36.9847238716" lon="-2.8745643049">
        <ele>859.08</ele>
        <time>2018-11-10T14:18:19Z</time>
      </trkpt>
      <trkpt lat="36.9848896656" lon="-2.8748717532">
        <ele>859.08</ele>
        <time>2018-11-10T14:18:28Z</time>
      </trkpt>
      <trkpt lat="36.9850003906" lon="-2.8750763554">
        <ele>859.08</ele>
        <time>2018-11-10T14:18:35Z</time>
      </trkpt>
      <trkpt lat="36.9850289728" lon="-2.8751292452">
        <ele>859.08</ele>
        <time>2018-11-10T14:18:40Z</time>
      </trkpt>
      <trkpt lat="36.9850709662" lon="-2.8752452508">
        <ele>859.08</ele>
        <time>2018-11-10T14:18:46Z</time>
      </trkpt>
      <trkpt lat="36.9851176534" lon="-2.8753373679">
        <ele>859.56</ele>
        <time>2018-11-10T14:18:52Z</time>
      </trkpt>
      <trkpt lat="36.9851222634" lon="-2.8753553052">
        <ele>863.88</ele>
        <time>2018-11-10T14:19:05Z</time>
      </trkpt>
      <trkpt lat="36.9851215091" lon="-2.8753433190">
        <ele>866.29</ele>
        <time>2018-11-10T14:19:22Z</time>
      </trkpt>
      <trkpt lat="36.9851247780" lon="-2.8753457498">
        <ele>866.29</ele>
        <time>2018-11-10T14:19:35Z</time>
      </trkpt>
      <trkpt lat="36.9851259515" lon="-2.8753434867">
        <ele>864.84</ele>
        <time>2018-11-10T14:19:47Z</time>
      </trkpt>
      <trkpt lat="36.9851275440" lon="-2.8753592446">
        <ele>864.36</ele>
        <time>2018-11-10T14:19:57Z</time>
      </trkpt>
      <trkpt lat="36.9851294719" lon="-2.8753739968">
        <ele>864.36</ele>
        <time>2018-11-10T14:19:58Z</time>
      </trkpt>
      <trkpt lat="36.9851339981" lon="-2.8753915150">
        <ele>864.36</ele>
        <time>2018-11-10T14:19:59Z</time>
      </trkpt>
      <trkpt lat="36.9852046575" lon="-2.8756213468">
        <ele>864.36</ele>
        <time>2018-11-10T14:20:07Z</time>
      </trkpt>
      <trkpt lat="36.9852961041" lon="-2.8759288788">
        <ele>863.88</ele>
        <time>2018-11-10T14:20:16Z</time>
      </trkpt>
      <trkpt lat="36.9854255207" lon="-2.8763737064">
        <ele>862.44</ele>
        <time>2018-11-10T14:20:28Z</time>
      </trkpt>
      <trkpt lat="36.9855139498" lon="-2.8766685817">
        <ele>861.48</ele>
        <time>2018-11-10T14:20:35Z</time>
      </trkpt>
      <trkpt lat="36.9856051449" lon="-2.8769764490">
        <ele>861.00</ele>
        <time>2018-11-10T14:20:42Z</time>
      </trkpt>
      <trkpt lat="36.9856247585" lon="-2.8770285845">
        <ele>861.48</ele>
        <time>2018-11-10T14:20:43Z</time>
      </trkpt>
      <trkpt lat="36.9857337233" lon="-2.8773876652">
        <ele>861.96</ele>
        <time>2018-11-10T14:20:51Z</time>
      </trkpt>
      <trkpt lat="36.9857493974" lon="-2.8774363641">
        <ele>861.96</ele>
        <time>2018-11-10T14:20:52Z</time>
      </trkpt>
      <trkpt lat="36.9858756289" lon="-2.8778320737">
        <ele>861.00</ele>
        <time>2018-11-10T14:21:01Z</time>
      </trkpt>
      <trkpt lat="36.9860306103" lon="-2.8782365005">
        <ele>861.96</ele>
        <time>2018-11-10T14:21:10Z</time>
      </trkpt>
      <trkpt lat="36.9861828256" lon="-2.8786426876">
        <ele>861.48</ele>
        <time>2018-11-10T14:21:18Z</time>
      </trkpt>
      <trkpt lat="36.9863463566" lon="-2.8791088890">
        <ele>861.00</ele>
        <time>2018-11-10T14:21:28Z</time>
      </trkpt>
      <trkpt lat="36.9865441695" lon="-2.8795196023">
        <ele>860.52</ele>
        <time>2018-11-10T14:21:37Z</time>
      </trkpt>
      <trkpt lat="36.9867886696" lon="-2.8798018210">
        <ele>860.04</ele>
        <time>2018-11-10T14:21:45Z</time>
      </trkpt>
      <trkpt lat="36.9870745763" lon="-2.8801173996">
        <ele>859.56</ele>
        <time>2018-11-10T14:21:55Z</time>
      </trkpt>
      <trkpt lat="36.9873293862" lon="-2.8803947568">
        <ele>860.52</ele>
        <time>2018-11-10T14:22:04Z</time>
      </trkpt>
      <trkpt lat="36.9875764009" lon="-2.8806500696">
        <ele>861.96</ele>
        <time>2018-11-10T14:22:14Z</time>
      </trkpt>
      <trkpt lat="36.9878052268" lon="-2.8809154406">
        <ele>863.88</ele>
        <time>2018-11-10T14:22:25Z</time>
      </trkpt>
      <trkpt lat="36.9880282693" lon="-2.8811642993">
        <ele>865.80</ele>
        <time>2018-11-10T14:22:36Z</time>
      </trkpt>
      <trkpt lat="36.9882539939" lon="-2.8814185224">
        <ele>866.77</ele>
        <time>2018-11-10T14:22:48Z</time>
      </trkpt>
      <trkpt lat="36.9884695765" lon="-2.8816474322">
        <ele>868.21</ele>
        <time>2018-11-10T14:22:59Z</time>
      </trkpt>
      <trkpt lat="36.9886968937" lon="-2.8818831313">
        <ele>870.13</ele>
        <time>2018-11-10T14:23:09Z</time>
      </trkpt>
      <trkpt lat="36.9888420682" lon="-2.8820433933">
        <ele>870.13</ele>
        <time>2018-11-10T14:23:17Z</time>
      </trkpt>
      <trkpt lat="36.9890598301" lon="-2.8822909947">
        <ele>869.65</ele>
        <time>2018-11-10T14:23:27Z</time>
      </trkpt>
      <trkpt lat="36.9892674498" lon="-2.8825199045">
        <ele>871.09</ele>
        <time>2018-11-10T14:23:37Z</time>
      </trkpt>
      <trkpt lat="36.9894769974" lon="-2.8827467188">
        <ele>872.05</ele>
        <time>2018-11-10T14:23:48Z</time>
      </trkpt>
      <trkpt lat="36.9896578789" lon="-2.8829467110">
        <ele>873.50</ele>
        <time>2018-11-10T14:23:57Z</time>
      </trkpt>
      <trkpt lat="36.9898989424" lon="-2.8831971623">
        <ele>875.90</ele>
        <time>2018-11-10T14:24:08Z</time>
      </trkpt>
      <trkpt lat="36.9900631439" lon="-2.8833885211">
        <ele>875.90</ele>
        <time>2018-11-10T14:24:17Z</time>
      </trkpt>
      <trkpt lat="36.9900750462" lon="-2.8833951429">
        <ele>875.90</ele>
        <time>2018-11-10T14:24:22Z</time>
      </trkpt>
      <trkpt lat="36.9900778122" lon="-2.8833767027">
        <ele>875.42</ele>
        <time>2018-11-10T14:24:37Z</time>
      </trkpt>
      <trkpt lat="36.9900756329" lon="-2.8834062070">
        <ele>875.42</ele>
        <time>2018-11-10T14:24:43Z</time>
      </trkpt>
      <trkpt lat="36.9900848530" lon="-2.8834191989">
        <ele>875.90</ele>
        <time>2018-11-10T14:24:44Z</time>
      </trkpt>
      <trkpt lat="36.9902568497" lon="-2.8836054448">
        <ele>875.90</ele>
        <time>2018-11-10T14:24:53Z</time>
      </trkpt>
      <trkpt lat="36.9904682413" lon="-2.8838229552">
        <ele>876.86</ele>
        <time>2018-11-10T14:25:02Z</time>
      </trkpt>
      <trkpt lat="36.9907193631" lon="-2.8840997256">
        <ele>878.30</ele>
        <time>2018-11-10T14:25:13Z</time>
      </trkpt>
      <trkpt lat="36.9909006637" lon="-2.8843017295">
        <ele>877.82</ele>
        <time>2018-11-10T14:25:21Z</time>
      </trkpt>
      <trkpt lat="36.9910921901" lon="-2.8845013864">
        <ele>877.82</ele>
        <time>2018-11-10T14:25:29Z</time>
      </trkpt>
      <trkpt lat="36.9912788551" lon="-2.8847255185">
        <ele>879.26</ele>
        <time>2018-11-10T14:25:37Z</time>
      </trkpt>
      <trkpt lat="36.9915364310" lon="-2.8850020375">
        <ele>882.15</ele>
        <time>2018-11-10T14:25:48Z</time>
      </trkpt>
      <trkpt lat="36.9916640036" lon="-2.8851379082">
        <ele>883.59</ele>
        <time>2018-11-10T14:25:56Z</time>
      </trkpt>
      <trkpt lat="36.9918309711" lon="-2.8853190411">
        <ele>885.03</ele>
        <time>2018-11-10T14:26:06Z</time>
      </trkpt>
      <trkpt lat="36.9919644110" lon="-2.8854723461">
        <ele>885.99</ele>
        <time>2018-11-10T14:26:16Z</time>
      </trkpt>
      <trkpt lat="36.9921135250" lon="-2.8856313508">
        <ele>886.95</ele>
        <time>2018-11-10T14:26:27Z</time>
      </trkpt>
      <trkpt lat="36.9921956677" lon="-2.8857171815">
        <ele>887.43</ele>
        <time>2018-11-10T14:26:35Z</time>
      </trkpt>
      <trkpt lat="36.9922920596" lon="-2.8858277388">
        <ele>888.40</ele>
        <time>2018-11-10T14:26:42Z</time>
      </trkpt>
      <trkpt lat="36.9924378209" lon="-2.8859866597">
        <ele>890.32</ele>
        <time>2018-11-10T14:26:52Z</time>
      </trkpt>
      <trkpt lat="36.9925591908" lon="-2.8861056827">
        <ele>892.72</ele>
        <time>2018-11-10T14:27:01Z</time>
      </trkpt>
      <trkpt lat="36.9925671536" lon="-2.8861105442">
        <ele>892.24</ele>
        <time>2018-11-10T14:27:02Z</time>
      </trkpt>
      <trkpt lat="36.9925766252" lon="-2.8861092031">
        <ele>892.24</ele>
        <time>2018-11-10T14:27:03Z</time>
      </trkpt>
      <trkpt lat="36.9925862644" lon="-2.8860988934">
        <ele>892.24</ele>
        <time>2018-11-10T14:27:04Z</time>
      </trkpt>
      <trkpt lat="36.9925962389" lon="-2.8860998154">
        <ele>892.24</ele>
        <time>2018-11-10T14:27:10Z</time>
      </trkpt>
      <trkpt lat="36.9925964903" lon="-2.8861188423">
        <ele>891.76</ele>
        <time>2018-11-10T14:27:28Z</time>
      </trkpt>
      <trkpt lat="36.9926135894" lon="-2.8861008212">
        <ele>890.80</ele>
        <time>2018-11-10T14:27:41Z</time>
      </trkpt>
      <trkpt lat="36.9926656410" lon="-2.8858979791">
        <ele>890.32</ele>
        <time>2018-11-10T14:27:50Z</time>
      </trkpt>
      <trkpt lat="36.9927637093" lon="-2.8855558299">
        <ele>890.80</ele>
        <time>2018-11-10T14:27:58Z</time>
      </trkpt>
      <trkpt lat="36.9928989094" lon="-2.8853573464">
        <ele>889.84</ele>
        <time>2018-11-10T14:28:03Z</time>
      </trkpt>
      <trkpt lat="36.9930333551" lon="-2.8852681629">
        <ele>889.84</ele>
        <time>2018-11-10T14:28:07Z</time>
      </trkpt>
      <trkpt lat="36.9930773601" lon="-2.8852591943">
        <ele>889.84</ele>
        <time>2018-11-10T14:28:08Z</time>
      </trkpt>
      <trkpt lat="36.9931258075" lon="-2.8852565121">
        <ele>889.36</ele>
        <time>2018-11-10T14:28:09Z</time>
      </trkpt>
      <trkpt lat="36.9935537875" lon="-2.8852862678">
        <ele>886.47</ele>
        <time>2018-11-10T14:28:17Z</time>
      </trkpt>
      <trkpt lat="36.9936086889" lon="-2.8852724377">
        <ele>886.47</ele>
        <time>2018-11-10T14:28:18Z</time>
      </trkpt>
      <trkpt lat="36.9936618302" lon="-2.8852411732">
        <ele>886.95</ele>
        <time>2018-11-10T14:28:19Z</time>
      </trkpt>
      <trkpt lat="36.9937104452" lon="-2.8851875290">
        <ele>886.95</ele>
        <time>2018-11-10T14:28:20Z</time>
      </trkpt>
      <trkpt lat="36.9937535282" lon="-2.8851227369">
        <ele>886.95</ele>
        <time>2018-11-10T14:28:21Z</time>
      </trkpt>
      <trkpt lat="36.9937917497" lon="-2.8850513231">
        <ele>886.95</ele>
        <time>2018-11-10T14:28:22Z</time>
      </trkpt>
      <trkpt lat="36.9938184042" lon="-2.8849755507">
        <ele>886.95</ele>
        <time>2018-11-10T14:28:23Z</time>
      </trkpt>
      <trkpt lat="36.9938392751" lon="-2.8849040531">
        <ele>887.43</ele>
        <time>2018-11-10T14:28:24Z</time>
      </trkpt>
      <trkpt lat="36.9939595554" lon="-2.8844728041">
        <ele>888.40</ele>
        <time>2018-11-10T14:28:32Z</time>
      </trkpt>
      <trkpt lat="36.9939712062" lon="-2.8841837961">
        <ele>888.40</ele>
        <time>2018-11-10T14:28:39Z</time>
      </trkpt>
      <trkpt lat="36.9939616509" lon="-2.8841589019">
        <ele>889.84</ele>
        <time>2018-11-10T14:28:44Z</time>
      </trkpt>
      <trkpt lat="36.9939397741" lon="-2.8840743285">
        <ele>890.80</ele>
        <time>2018-11-10T14:28:51Z</time>
      </trkpt>
      <trkpt lat="36.9938862976" lon="-2.8839159943">
        <ele>893.20</ele>
        <time>2018-11-10T14:29:02Z</time>
      </trkpt>
      <trkpt lat="36.9938097708" lon="-2.8837746754">
        <ele>895.61</ele>
        <time>2018-11-10T14:29:14Z</time>
      </trkpt>
      <trkpt lat="36.9937240239" lon="-2.8836746793">
        <ele>896.09</ele>
        <time>2018-11-10T14:29:25Z</time>
      </trkpt>
      <trkpt lat="36.9936539512" lon="-2.8836090490">
        <ele>896.09</ele>
        <time>2018-11-10T14:29:34Z</time>
      </trkpt>
      <trkpt lat="36.9935293123" lon="-2.8835445084">
        <ele>896.09</ele>
        <time>2018-11-10T14:29:45Z</time>
      </trkpt>
      <trkpt lat="36.9934084453" lon="-2.8835409880">
        <ele>898.01</ele>
        <time>2018-11-10T14:29:55Z</time>
      </trkpt>
      <trkpt lat="36.9932984747" lon="-2.8835048620">
        <ele>901.85</ele>
        <time>2018-11-10T14:30:06Z</time>
      </trkpt>
      <trkpt lat="36.9932282344" lon="-2.8834264912">
        <ele>902.82</ele>
        <time>2018-11-10T14:30:17Z</time>
      </trkpt>
      <trkpt lat="36.9932003226" lon="-2.8833710030">
        <ele>902.33</ele>
        <time>2018-11-10T14:30:24Z</time>
      </trkpt>
      <trkpt lat="36.9931584131" lon="-2.8832270019">
        <ele>902.82</ele>
        <time>2018-11-10T14:30:35Z</time>
      </trkpt>
      <trkpt lat="36.9931431580" lon="-2.8831415903">
        <ele>903.78</ele>
        <time>2018-11-10T14:30:43Z</time>
      </trkpt>
      <trkpt lat="36.9931234606" lon="-2.8830004390">
        <ele>905.70</ele>
        <time>2018-11-10T14:30:53Z</time>
      </trkpt>
      <trkpt lat="36.9930941239" lon="-2.8828247543">
        <ele>905.70</ele>
        <time>2018-11-10T14:31:05Z</time>
      </trkpt>
      <trkpt lat="36.9930887595" lon="-2.8826620616">
        <ele>905.22</ele>
        <time>2018-11-10T14:31:16Z</time>
      </trkpt>
      <trkpt lat="36.9931361172" lon="-2.8825102653">
        <ele>905.70</ele>
        <time>2018-11-10T14:31:27Z</time>
      </trkpt>
      <trkpt lat="36.9931475166" lon="-2.8824638296">
        <ele>907.62</ele>
        <time>2018-11-10T14:31:35Z</time>
      </trkpt>
      <trkpt lat="36.9931600057" lon="-2.8824411985">
        <ele>907.62</ele>
        <time>2018-11-10T14:31:51Z</time>
      </trkpt>
      <trkpt lat="36.9932137337" lon="-2.8823212534">
        <ele>909.54</ele>
        <time>2018-11-10T14:32:01Z</time>
      </trkpt>
      <trkpt lat="36.9933015760" lon="-2.8822152223">
        <ele>910.99</ele>
        <time>2018-11-10T14:32:12Z</time>
      </trkpt>
      <trkpt lat="36.9934041705" lon="-2.8821117897">
        <ele>912.91</ele>
        <time>2018-11-10T14:32:23Z</time>
      </trkpt>
      <trkpt lat="36.9934595749" lon="-2.8820703831">
        <ele>913.39</ele>
        <time>2018-11-10T14:32:30Z</time>
      </trkpt>
      <trkpt lat="36.9935708027" lon="-2.8820723947">
        <ele>914.83</ele>
        <time>2018-11-10T14:32:40Z</time>
      </trkpt>
      <trkpt lat="36.9936145563" lon="-2.8820906673">
        <ele>915.31</ele>
        <time>2018-11-10T14:32:48Z</time>
      </trkpt>
      <trkpt lat="36.9936291408" lon="-2.8821082693">
        <ele>915.79</ele>
        <time>2018-11-10T14:32:51Z</time>
      </trkpt>
      <trkpt lat="36.9936376065" lon="-2.8821179084">
        <ele>915.79</ele>
        <time>2018-11-10T14:32:52Z</time>
      </trkpt>
      <trkpt lat="36.9936449826" lon="-2.8821292240">
        <ele>915.79</ele>
        <time>2018-11-10T14:32:53Z</time>
      </trkpt>
      <trkpt lat="36.9936742354" lon="-2.8822661005">
        <ele>915.79</ele>
        <time>2018-11-10T14:33:04Z</time>
      </trkpt>
      <trkpt lat="36.9936730620" lon="-2.8822789248">
        <ele>915.79</ele>
        <time>2018-11-10T14:33:05Z</time>
      </trkpt>
      <trkpt lat="36.9936816953" lon="-2.8824261948">
        <ele>918.20</ele>
        <time>2018-11-10T14:33:17Z</time>
      </trkpt>
      <trkpt lat="36.9937261194" lon="-2.8825666755">
        <ele>919.16</ele>
        <time>2018-11-10T14:33:29Z</time>
      </trkpt>
      <trkpt lat="36.9938003831" lon="-2.8826742154">
        <ele>921.56</ele>
        <time>2018-11-10T14:33:39Z</time>
      </trkpt>
      <trkpt lat="36.9938691985" lon="-2.8826559428">
        <ele>922.04</ele>
        <time>2018-11-10T14:33:47Z</time>
      </trkpt>
      <trkpt lat="36.9939489104" lon="-2.8825934976">
        <ele>923.96</ele>
        <time>2018-11-10T14:33:56Z</time>
      </trkpt>
      <trkpt lat="36.9940202404" lon="-2.8824951779">
        <ele>925.89</ele>
        <time>2018-11-10T14:34:06Z</time>
      </trkpt>
      <trkpt lat="36.9940696098" lon="-2.8823972773">
        <ele>927.33</ele>
        <time>2018-11-10T14:34:16Z</time>
      </trkpt>
      <trkpt lat="36.9940504152" lon="-2.8823588043">
        <ele>928.29</ele>
        <time>2018-11-10T14:34:24Z</time>
      </trkpt>
      <trkpt lat="36.9940500800" lon="-2.8823448904">
        <ele>928.29</ele>
        <time>2018-11-10T14:34:25Z</time>
      </trkpt>
      <trkpt lat="36.9940510858" lon="-2.8823296353">
        <ele>928.29</ele>
        <time>2018-11-10T14:34:26Z</time>
      </trkpt>
      <trkpt lat="36.9940486550" lon="-2.8823145479">
        <ele>928.29</ele>
        <time>2018-11-10T14:34:27Z</time>
      </trkpt>
      <trkpt lat="36.9940480683" lon="-2.8823014721">
        <ele>928.29</ele>
        <time>2018-11-10T14:34:28Z</time>
      </trkpt>
      <trkpt lat="36.9940476492" lon="-2.8822888993">
        <ele>928.77</ele>
        <time>2018-11-10T14:34:29Z</time>
      </trkpt>
      <trkpt lat="36.9940496609" lon="-2.8822738957">
        <ele>928.77</ele>
        <time>2018-11-10T14:34:30Z</time>
      </trkpt>
      <trkpt lat="36.9940517563" lon="-2.8822593950">
        <ele>928.77</ele>
        <time>2018-11-10T14:34:31Z</time>
      </trkpt>
      <trkpt lat="36.9940525945" lon="-2.8822405357">
        <ele>929.25</ele>
        <time>2018-11-10T14:34:32Z</time>
      </trkpt>
      <trkpt lat="36.9940525945" lon="-2.8822230175">
        <ele>929.25</ele>
        <time>2018-11-10T14:34:33Z</time>
      </trkpt>
      <trkpt lat="36.9940552767" lon="-2.8822106123">
        <ele>929.73</ele>
        <time>2018-11-10T14:34:34Z</time>
      </trkpt>
      <trkpt lat="36.9940631557" lon="-2.8821086045">
        <ele>931.65</ele>
        <time>2018-11-10T14:34:43Z</time>
      </trkpt>
      <trkpt lat="36.9940587133" lon="-2.8821143880">
        <ele>932.14</ele>
        <time>2018-11-10T14:34:54Z</time>
      </trkpt>
      <trkpt lat="36.9940620661" lon="-2.8821181599">
        <ele>931.17</ele>
        <time>2018-11-10T14:35:08Z</time>
      </trkpt>
      <trkpt lat="36.9940665923" lon="-2.8821205068">
        <ele>932.62</ele>
        <time>2018-11-10T14:35:23Z</time>
      </trkpt>
      <trkpt lat="36.9940259401" lon="-2.8820181638">
        <ele>928.77</ele>
        <time>2018-11-12T06:27:22Z</time>
      </trkpt>
      <trkpt lat="36.9940848649" lon="-2.8819954488">
        <ele>926.37</ele>
        <time>2018-11-12T06:27:41Z</time>
      </trkpt>
      <trkpt lat="36.9940590486" lon="-2.8819729853">
        <ele>924.45</ele>
        <time>2018-11-12T06:27:59Z</time>
      </trkpt>
      <trkpt lat="36.9940042309" lon="-2.8819619212">
        <ele>925.89</ele>
        <time>2018-11-12T06:28:17Z</time>
      </trkpt>
      <trkpt lat="36.9940033928" lon="-2.8819680400">
        <ele>925.89</ele>
        <time>2018-11-12T06:28:30Z</time>
      </trkpt>
      <trkpt lat="36.9939916581" lon="-2.8819700517">
        <ele>926.37</ele>
        <time>2018-11-12T06:28:47Z</time>
      </trkpt>
      <trkpt lat="36.9939963520" lon="-2.8819757514">
        <ele>924.93</ele>
        <time>2018-11-12T06:29:02Z</time>
      </trkpt>
      <trkpt lat="36.9940158818" lon="-2.8820005618">
        <ele>925.41</ele>
        <time>2018-11-12T06:29:13Z</time>
      </trkpt>
      <trkpt lat="36.9940451346" lon="-2.8820127156">
        <ele>924.93</ele>
        <time>2018-11-12T06:29:22Z</time>
      </trkpt>
      <trkpt lat="36.9940600544" lon="-2.8820267133">
        <ele>925.41</ele>
        <time>2018-11-12T06:29:25Z</time>
      </trkpt>
      <trkpt lat="36.9940774050" lon="-2.8821510170">
        <ele>925.41</ele>
        <time>2018-11-12T06:29:31Z</time>
      </trkpt>
      <trkpt lat="36.9940709509" lon="-2.8824005462">
        <ele>924.45</ele>
        <time>2018-11-12T06:29:39Z</time>
      </trkpt>
      <trkpt lat="36.9939925801" lon="-2.8825750574">
        <ele>922.52</ele>
        <time>2018-11-12T06:29:44Z</time>
      </trkpt>
      <trkpt lat="36.9939551130" lon="-2.8826238401">
        <ele>922.04</ele>
        <time>2018-11-12T06:29:45Z</time>
      </trkpt>
      <trkpt lat="36.9939069171" lon="-2.8826767299">
        <ele>921.08</ele>
        <time>2018-11-12T06:29:46Z</time>
      </trkpt>
      <trkpt lat="36.9938648399" lon="-2.8827082459">
        <ele>920.60</ele>
        <time>2018-11-12T06:29:47Z</time>
      </trkpt>
      <trkpt lat="36.9938106090" lon="-2.8827244230">
        <ele>919.64</ele>
        <time>2018-11-12T06:29:48Z</time>
      </trkpt>
      <trkpt lat="36.9937591441" lon="-2.8827136103">
        <ele>919.16</ele>
        <time>2018-11-12T06:29:49Z</time>
      </trkpt>
      <trkpt lat="36.9937115349" lon="-2.8826744668">
        <ele>918.20</ele>
        <time>2018-11-12T06:29:50Z</time>
      </trkpt>
      <trkpt lat="36.9936775044" lon="-2.8826245107">
        <ele>917.72</ele>
        <time>2018-11-12T06:29:51Z</time>
      </trkpt>
      <trkpt lat="36.9936529454" lon="-2.8825649992">
        <ele>917.24</ele>
        <time>2018-11-12T06:29:52Z</time>
      </trkpt>
      <trkpt lat="36.9936390314" lon="-2.8825220000">
        <ele>916.75</ele>
        <time>2018-11-12T06:29:53Z</time>
      </trkpt>
      <trkpt lat="36.9936143886" lon="-2.8823629115">
        <ele>914.35</ele>
        <time>2018-11-12T06:29:58Z</time>
      </trkpt>
      <trkpt lat="36.9936275482" lon="-2.8821972851">
        <ele>912.91</ele>
        <time>2018-11-12T06:30:07Z</time>
      </trkpt>
      <trkpt lat="36.9935726468" lon="-2.8821170703">
        <ele>911.95</ele>
        <time>2018-11-12T06:30:10Z</time>
      </trkpt>
      <trkpt lat="36.9935293123" lon="-2.8821087722">
        <ele>911.47</ele>
        <time>2018-11-12T06:30:11Z</time>
      </trkpt>
      <trkpt lat="36.9934713095" lon="-2.8821208421">
        <ele>910.99</ele>
        <time>2018-11-12T06:30:12Z</time>
      </trkpt>
      <trkpt lat="36.9934129715" lon="-2.8821536992">
        <ele>910.03</ele>
        <time>2018-11-12T06:30:13Z</time>
      </trkpt>
      <trkpt lat="36.9933501072" lon="-2.8822035715">
        <ele>909.54</ele>
        <time>2018-11-12T06:30:14Z</time>
      </trkpt>
      <trkpt lat="36.9933102094" lon="-2.8822451457">
        <ele>908.58</ele>
        <time>2018-11-12T06:30:15Z</time>
      </trkpt>
      <trkpt lat="36.9932667911" lon="-2.8823023941">
        <ele>907.14</ele>
        <time>2018-11-12T06:30:16Z</time>
      </trkpt>
      <trkpt lat="36.9932291564" lon="-2.8823639173">
        <ele>906.18</ele>
        <time>2018-11-12T06:30:17Z</time>
      </trkpt>
      <trkpt lat="36.9931934495" lon="-2.8824311402">
        <ele>904.74</ele>
        <time>2018-11-12T06:30:18Z</time>
      </trkpt>
      <trkpt lat="36.9931655377" lon="-2.8824922442">
        <ele>903.30</ele>
        <time>2018-11-12T06:30:19Z</time>
      </trkpt>
      <trkpt lat="36.9931403920" lon="-2.8825533483">
        <ele>902.33</ele>
        <time>2018-11-12T06:30:20Z</time>
      </trkpt>
      <trkpt lat="36.9931221195" lon="-2.8826059029">
        <ele>901.85</ele>
        <time>2018-11-12T06:30:21Z</time>
      </trkpt>
      <trkpt lat="36.9931113906" lon="-2.8826504108">
        <ele>901.37</ele>
        <time>2018-11-12T06:30:22Z</time>
      </trkpt>
      <trkpt lat="36.9931056071" lon="-2.8826747183">
        <ele>900.89</ele>
        <time>2018-11-12T06:30:23Z</time>
      </trkpt>
      <trkpt lat="36.9930999074" lon="-2.8826898057">
        <ele>900.89</ele>
        <time>2018-11-12T06:30:24Z</time>
      </trkpt>
      <trkpt lat="36.9930999074" lon="-2.8827070724">
        <ele>900.89</ele>
        <time>2018-11-12T06:30:30Z</time>
      </trkpt>
      <trkpt lat="36.9931080379" lon="-2.8827221598">
        <ele>900.41</ele>
        <time>2018-11-12T06:30:38Z</time>
      </trkpt>
      <trkpt lat="36.9931380451" lon="-2.8829611279">
        <ele>899.93</ele>
        <time>2018-11-12T06:30:47Z</time>
      </trkpt>
      <trkpt lat="36.9931848999" lon="-2.8832932189">
        <ele>898.01</ele>
        <time>2018-11-12T06:30:53Z</time>
      </trkpt>
      <trkpt lat="36.9932061899" lon="-2.8833614476">
        <ele>897.05</ele>
        <time>2018-11-12T06:30:54Z</time>
      </trkpt>
      <trkpt lat="36.9932377059" lon="-2.8834185284">
        <ele>896.09</ele>
        <time>2018-11-12T06:30:55Z</time>
      </trkpt>
      <trkpt lat="36.9932828005" lon="-2.8834666405">
        <ele>895.12</ele>
        <time>2018-11-12T06:30:56Z</time>
      </trkpt>
      <trkpt lat="36.9933387078" lon="-2.8834938817">
        <ele>893.68</ele>
        <time>2018-11-12T06:30:57Z</time>
      </trkpt>
      <trkpt lat="36.9934094511" lon="-2.8835070413">
        <ele>892.72</ele>
        <time>2018-11-12T06:30:58Z</time>
      </trkpt>
      <trkpt lat="36.9934861455" lon="-2.8835148364">
        <ele>891.76</ele>
        <time>2018-11-12T06:30:59Z</time>
      </trkpt>
      <trkpt lat="36.9935562182" lon="-2.8835353721">
        <ele>890.80</ele>
        <time>2018-11-12T06:31:00Z</time>
      </trkpt>
      <trkpt lat="36.9936297275" lon="-2.8835733421">
        <ele>890.80</ele>
        <time>2018-11-12T06:31:01Z</time>
      </trkpt>
      <trkpt lat="36.9936891552" lon="-2.8836203646">
        <ele>890.32</ele>
        <time>2018-11-12T06:31:02Z</time>
      </trkpt>
      <trkpt lat="36.9937438890" lon="-2.8836781997">
        <ele>889.84</ele>
        <time>2018-11-12T06:31:03Z</time>
      </trkpt>
      <trkpt lat="36.9937957730" lon="-2.8837402258">
        <ele>889.36</ele>
        <time>2018-11-12T06:31:04Z</time>
      </trkpt>
      <trkpt lat="36.9938463159" lon="-2.8838094603">
        <ele>888.40</ele>
        <time>2018-11-12T06:31:05Z</time>
      </trkpt>
      <trkpt lat="36.9938902371" lon="-2.8838943690">
        <ele>886.95</ele>
        <time>2018-11-12T06:31:06Z</time>
      </trkpt>
      <trkpt lat="36.9939303864" lon="-2.8839957900">
        <ele>885.99</ele>
        <time>2018-11-12T06:31:07Z</time>
      </trkpt>
      <trkpt lat="36.9939642493" lon="-2.8841087781">
        <ele>884.07</ele>
        <time>2018-11-12T06:31:08Z</time>
      </trkpt>
      <trkpt lat="36.9939852040" lon="-2.8842260409">
        <ele>883.11</ele>
        <time>2018-11-12T06:31:09Z</time>
      </trkpt>
      <trkpt lat="36.9939888921" lon="-2.8843471594">
        <ele>882.15</ele>
        <time>2018-11-12T06:31:10Z</time>
      </trkpt>
      <trkpt lat="36.9939760678" lon="-2.8844646737">
        <ele>881.67</ele>
        <time>2018-11-12T06:31:11Z</time>
      </trkpt>
      <trkpt lat="36.9939531013" lon="-2.8845826909">
        <ele>881.67</ele>
        <time>2018-11-12T06:31:12Z</time>
      </trkpt>
      <trkpt lat="36.9938019756" lon="-2.8850956634">
        <ele>880.71</ele>
        <time>2018-11-12T06:31:17Z</time>
      </trkpt>
      <trkpt lat="36.9937624969" lon="-2.8851678316">
        <ele>880.71</ele>
        <time>2018-11-12T06:31:18Z</time>
      </trkpt>
      <trkpt lat="36.9937113672" lon="-2.8852362279">
        <ele>880.71</ele>
        <time>2018-11-12T06:31:19Z</time>
      </trkpt>
      <trkpt lat="36.9936498441" lon="-2.8852849267">
        <ele>880.71</ele>
        <time>2018-11-12T06:31:20Z</time>
      </trkpt>
      <trkpt lat="36.9935827889" lon="-2.8853151854">
        <ele>880.71</ele>
        <time>2018-11-12T06:31:21Z</time>
      </trkpt>
      <trkpt lat="36.9935391191" lon="-2.8853232320">
        <ele>880.71</ele>
        <time>2018-11-12T06:31:22Z</time>
      </trkpt>
      <trkpt lat="36.9934933539" lon="-2.8853210527">
        <ele>881.19</ele>
        <time>2018-11-12T06:31:23Z</time>
      </trkpt>
      <trkpt lat="36.9934547972" lon="-2.8853164427">
        <ele>881.19</ele>
        <time>2018-11-12T06:31:24Z</time>
      </trkpt>
      <trkpt lat="36.9932584092" lon="-2.8852820769">
        <ele>882.15</ele>
        <time>2018-11-12T06:31:31Z</time>
      </trkpt>
      <trkpt lat="36.9931162521" lon="-2.8852741141">
        <ele>882.63</ele>
        <time>2018-11-12T06:31:38Z</time>
      </trkpt>
      <trkpt lat="36.9930419046" lon="-2.8852748685">
        <ele>883.11</ele>
        <time>2018-11-12T06:31:46Z</time>
      </trkpt>
      <trkpt lat="36.9930450898" lon="-2.8852407541">
        <ele>883.59</ele>
        <time>2018-11-12T06:31:51Z</time>
      </trkpt>
      <trkpt lat="36.9930863287" lon="-2.8852899559">
        <ele>871.57</ele>
        <time>2018-11-12T06:31:58Z</time>
      </trkpt>
      <trkpt lat="36.9930383004" lon="-2.8852915484">
        <ele>881.19</ele>
        <time>2018-11-12T06:32:01Z</time>
      </trkpt>
      <trkpt lat="36.9930085447" lon="-2.8852924705">
        <ele>881.67</ele>
        <time>2018-11-12T06:32:02Z</time>
      </trkpt>
      <trkpt lat="36.9929906074" lon="-2.8852960747">
        <ele>882.15</ele>
        <time>2018-11-12T06:32:03Z</time>
      </trkpt>
      <trkpt lat="36.9929651264" lon="-2.8853084799">
        <ele>882.63</ele>
        <time>2018-11-12T06:32:04Z</time>
      </trkpt>
      <trkpt lat="36.9929419924" lon="-2.8853249922">
        <ele>883.11</ele>
        <time>2018-11-12T06:32:05Z</time>
      </trkpt>
      <trkpt lat="36.9929201156" lon="-2.8853453603">
        <ele>883.11</ele>
        <time>2018-11-12T06:32:06Z</time>
      </trkpt>
      <trkpt lat="36.9929001667" lon="-2.8853656445">
        <ele>883.11</ele>
        <time>2018-11-12T06:32:07Z</time>
      </trkpt>
      <trkpt lat="36.9928797986" lon="-2.8853887785">
        <ele>883.11</ele>
        <time>2018-11-12T06:32:08Z</time>
      </trkpt>
      <trkpt lat="36.9927305169" lon="-2.8856396489">
        <ele>884.55</ele>
        <time>2018-11-12T06:32:17Z</time>
      </trkpt>
      <trkpt lat="36.9926374778" lon="-2.8860802855">
        <ele>887.43</ele>
        <time>2018-11-12T06:32:29Z</time>
      </trkpt>
      <trkpt lat="36.9926605280" lon="-2.8862446547">
        <ele>888.88</ele>
        <time>2018-11-12T06:32:35Z</time>
      </trkpt>
      <trkpt lat="36.9927829038" lon="-2.8863708023">
        <ele>889.84</ele>
        <time>2018-11-12T06:32:44Z</time>
      </trkpt>
      <trkpt lat="36.9928813912" lon="-2.8864672780">
        <ele>891.28</ele>
        <time>2018-11-12T06:32:53Z</time>
      </trkpt>
      <trkpt lat="36.9929939602" lon="-2.8866180684">
        <ele>894.16</ele>
        <time>2018-11-12T06:33:03Z</time>
      </trkpt>
      <trkpt lat="36.9931772724" lon="-2.8868316393">
        <ele>897.53</ele>
        <time>2018-11-12T06:33:17Z</time>
      </trkpt>
      <trkpt lat="36.9932942837" lon="-2.8870086651">
        <ele>899.93</ele>
        <time>2018-11-12T06:33:27Z</time>
      </trkpt>
      <trkpt lat="36.9934223592" lon="-2.8872412629">
        <ele>901.85</ele>
        <time>2018-11-12T06:33:39Z</time>
      </trkpt>
      <trkpt lat="36.9935114589" lon="-2.8873804025">
        <ele>902.33</ele>
        <time>2018-11-12T06:33:48Z</time>
      </trkpt>
      <trkpt lat="36.9936252013" lon="-2.8875888605">
        <ele>903.30</ele>
        <time>2018-11-12T06:33:59Z</time>
      </trkpt>
      <trkpt lat="36.9937139656" lon="-2.8877684847">
        <ele>903.78</ele>
        <time>2018-11-12T06:34:09Z</time>
      </trkpt>
      <trkpt lat="36.9938336592" lon="-2.8880198579">
        <ele>905.22</ele>
        <time>2018-11-12T06:34:23Z</time>
      </trkpt>
      <trkpt lat="36.9939002953" lon="-2.8881759290">
        <ele>906.66</ele>
        <time>2018-11-12T06:34:32Z</time>
      </trkpt>
      <trkpt lat="36.9939450547" lon="-2.8883563913">
        <ele>908.58</ele>
        <time>2018-11-12T06:34:42Z</time>
      </trkpt>
      <trkpt lat="36.9939611480" lon="-2.8885248676">
        <ele>909.54</ele>
        <time>2018-11-12T06:34:52Z</time>
      </trkpt>
      <trkpt lat="36.9939541072" lon="-2.8887030669">
        <ele>910.51</ele>
        <time>2018-11-12T06:35:04Z</time>
      </trkpt>
      <trkpt lat="36.9939445518" lon="-2.8889100999">
        <ele>911.47</ele>
        <time>2018-11-12T06:35:16Z</time>
      </trkpt>
      <trkpt lat="36.9939141255" lon="-2.8890918195">
        <ele>911.95</ele>
        <time>2018-11-12T06:35:26Z</time>
      </trkpt>
      <trkpt lat="36.9939007144" lon="-2.8892760538">
        <ele>911.95</ele>
        <time>2018-11-12T06:35:36Z</time>
      </trkpt>
      <trkpt lat="36.9938762393" lon="-2.8894901276">
        <ele>913.39</ele>
        <time>2018-11-12T06:35:47Z</time>
      </trkpt>
      <trkpt lat="36.9938572124" lon="-2.8895472083">
        <ele>913.39</ele>
        <time>2018-11-12T06:35:55Z</time>
      </trkpt>
      <trkpt lat="36.9938391913" lon="-2.8895798139">
        <ele>913.39</ele>
        <time>2018-11-12T06:36:11Z</time>
      </trkpt>
      <trkpt lat="36.9938486628" lon="-2.8897571750">
        <ele>912.91</ele>
        <time>2018-11-12T06:36:20Z</time>
      </trkpt>
      <trkpt lat="36.9939525984" lon="-2.8899940476">
        <ele>913.39</ele>
        <time>2018-11-12T06:36:29Z</time>
      </trkpt>
      <trkpt lat="36.9939567056" lon="-2.8902736679">
        <ele>911.95</ele>
        <time>2018-11-12T06:36:36Z</time>
      </trkpt>
      <trkpt lat="36.9939375110" lon="-2.8903755918">
        <ele>911.47</ele>
        <time>2018-11-12T06:36:38Z</time>
      </trkpt>
      <trkpt lat="36.9938878901" lon="-2.8906966187">
        <ele>909.54</ele>
        <time>2018-11-12T06:36:44Z</time>
      </trkpt>
      <trkpt lat="36.9938886445" lon="-2.8907482512">
        <ele>909.54</ele>
        <time>2018-11-12T06:36:45Z</time>
      </trkpt>
      <trkpt lat="36.9938741438" lon="-2.8912316356">
        <ele>907.62</ele>
        <time>2018-11-12T06:36:54Z</time>
      </trkpt>
      <trkpt lat="36.9938563742" lon="-2.8912771493">
        <ele>907.14</ele>
        <time>2018-11-12T06:36:55Z</time>
      </trkpt>
      <trkpt lat="36.9936817791" lon="-2.8917251620">
        <ele>903.78</ele>
        <time>2018-11-12T06:37:03Z</time>
      </trkpt>
      <trkpt lat="36.9935857225" lon="-2.8920287546">
        <ele>902.82</ele>
        <time>2018-11-12T06:37:09Z</time>
      </trkpt>
      <trkpt lat="36.9934813678" lon="-2.8923383821">
        <ele>902.82</ele>
        <time>2018-11-12T06:37:17Z</time>
      </trkpt>
      <trkpt lat="36.9933487661" lon="-2.8926687967">
        <ele>900.89</ele>
        <time>2018-11-12T06:37:25Z</time>
      </trkpt>
      <trkpt lat="36.9932463393" lon="-2.8929410409">
        <ele>898.97</ele>
        <time>2018-11-12T06:37:31Z</time>
      </trkpt>
      <trkpt lat="36.9932288211" lon="-2.8929896560">
        <ele>898.97</ele>
        <time>2018-11-12T06:37:32Z</time>
      </trkpt>
      <trkpt lat="36.9931187667" lon="-2.8932960983">
        <ele>898.01</ele>
        <time>2018-11-12T06:37:38Z</time>
      </trkpt>
      <trkpt lat="36.9931034278" lon="-2.8933491558">
        <ele>898.01</ele>
        <time>2018-11-12T06:37:39Z</time>
      </trkpt>
      <trkpt lat="36.9930037670" lon="-2.8939306922">
        <ele>898.97</ele>
        <time>2018-11-12T06:37:48Z</time>
      </trkpt>
      <trkpt lat="36.9929387234" lon="-2.8943889309">
        <ele>900.41</ele>
        <time>2018-11-12T06:37:55Z</time>
      </trkpt>
      <trkpt lat="36.9928704109" lon="-2.8949073516">
        <ele>901.85</ele>
        <time>2018-11-12T06:38:04Z</time>
      </trkpt>
      <trkpt lat="36.9927966502" lon="-2.8955180570">
        <ele>901.85</ele>
        <time>2018-11-12T06:38:14Z</time>
      </trkpt>
      <trkpt lat="36.9927051198" lon="-2.8961781319">
        <ele>902.33</ele>
        <time>2018-11-12T06:38:25Z</time>
      </trkpt>
      <trkpt lat="36.9926260784" lon="-2.8967517894">
        <ele>902.33</ele>
        <time>2018-11-12T06:38:34Z</time>
      </trkpt>
      <trkpt lat="36.9925563410" lon="-2.8972903267">
        <ele>902.33</ele>
        <time>2018-11-12T06:38:43Z</time>
      </trkpt>
      <trkpt lat="36.9924801495" lon="-2.8978550993">
        <ele>905.22</ele>
        <time>2018-11-12T06:38:53Z</time>
      </trkpt>
      <trkpt lat="36.9924403355" lon="-2.8981246613">
        <ele>907.14</ele>
        <time>2018-11-12T06:38:58Z</time>
      </trkpt>
      <trkpt lat="36.9924397487" lon="-2.8981777187">
        <ele>907.14</ele>
        <time>2018-11-12T06:38:59Z</time>
      </trkpt>
      <trkpt lat="36.9924638048" lon="-2.8985076305">
        <ele>908.58</ele>
        <time>2018-11-12T06:39:06Z</time>
      </trkpt>
      <trkpt lat="36.9925374817" lon="-2.8988501150">
        <ele>910.99</ele>
        <time>2018-11-12T06:39:14Z</time>
      </trkpt>
      <trkpt lat="36.9925517309" lon="-2.8990235366">
        <ele>912.43</ele>
        <time>2018-11-12T06:39:19Z</time>
      </trkpt>
      <trkpt lat="36.9925008528" lon="-2.8993091080">
        <ele>912.91</ele>
        <time>2018-11-12T06:39:28Z</time>
      </trkpt>
      <trkpt lat="36.9924622122" lon="-2.8996178973">
        <ele>914.35</ele>
        <time>2018-11-12T06:39:38Z</time>
      </trkpt>
      <trkpt lat="36.9923468772" lon="-2.8999201488">
        <ele>915.31</ele>
        <time>2018-11-12T06:39:48Z</time>
      </trkpt>
      <trkpt lat="36.9922167063" lon="-2.9001304507">
        <ele>915.79</ele>
        <time>2018-11-12T06:39:57Z</time>
      </trkpt>
      <trkpt lat="36.9922113419" lon="-2.9001675826">
        <ele>915.79</ele>
        <time>2018-11-12T06:40:03Z</time>
      </trkpt>
      <trkpt lat="36.9922115933" lon="-2.9001778085">
        <ele>914.83</ele>
        <time>2018-11-12T06:40:22Z</time>
      </trkpt>
      <trkpt lat="36.9921983499" lon="-2.9001708515">
        <ele>916.27</ele>
        <time>2018-11-12T06:40:37Z</time>
      </trkpt>
      <trkpt lat="36.9921960868" lon="-2.9001626372">
        <ele>915.31</ele>
        <time>2018-11-12T06:41:00Z</time>
      </trkpt>
      <trkpt lat="36.9922087435" lon="-2.9001681693">
        <ele>918.68</ele>
        <time>2018-11-12T06:41:19Z</time>
      </trkpt>
      <trkpt lat="36.9921999425" lon="-2.9001762159">
        <ele>918.20</ele>
        <time>2018-11-12T06:41:34Z</time>
      </trkpt>
      <trkpt lat="36.9921972603" lon="-2.9001794010">
        <ele>917.72</ele>
        <time>2018-11-12T06:41:46Z</time>
      </trkpt>
      <trkpt lat="36.9921877887" lon="-2.9001928121">
        <ele>917.72</ele>
        <time>2018-11-12T06:41:47Z</time>
      </trkpt>
      <trkpt lat="36.9921767246" lon="-2.9002096597">
        <ele>917.72</ele>
        <time>2018-11-12T06:41:48Z</time>
      </trkpt>
      <trkpt lat="36.9921655767" lon="-2.9002317041">
        <ele>917.72</ele>
        <time>2018-11-12T06:41:49Z</time>
      </trkpt>
      <trkpt lat="36.9921563566" lon="-2.9002571851">
        <ele>917.72</ele>
        <time>2018-11-12T06:41:50Z</time>
      </trkpt>
      <trkpt lat="36.9921457116" lon="-2.9002857674">
        <ele>917.24</ele>
        <time>2018-11-12T06:41:51Z</time>
      </trkpt>
      <trkpt lat="36.9921297859" lon="-2.9003148526">
        <ele>917.72</ele>
        <time>2018-11-12T06:41:52Z</time>
      </trkpt>
      <trkpt lat="36.9921128545" lon="-2.9003458656">
        <ele>917.72</ele>
        <time>2018-11-12T06:41:53Z</time>
      </trkpt>
      <trkpt lat="36.9919397682" lon="-2.9007611889">
        <ele>917.72</ele>
        <time>2018-11-12T06:42:05Z</time>
      </trkpt>
      <trkpt lat="36.9918234274" lon="-2.9010703973">
        <ele>918.20</ele>
        <time>2018-11-12T06:42:14Z</time>
      </trkpt>
      <trkpt lat="36.9917199947" lon="-2.9013603274">
        <ele>917.72</ele>
        <time>2018-11-12T06:42:23Z</time>
      </trkpt>
      <trkpt lat="36.9916455634" lon="-2.9017090145">
        <ele>917.24</ele>
        <time>2018-11-12T06:42:32Z</time>
      </trkpt>
      <trkpt lat="36.9915288873" lon="-2.9022489768">
        <ele>916.27</ele>
        <time>2018-11-12T06:42:44Z</time>
      </trkpt>
      <trkpt lat="36.9914393686" lon="-2.9028182756">
        <ele>915.31</ele>
        <time>2018-11-12T06:42:55Z</time>
      </trkpt>
      <trkpt lat="36.9913292304" lon="-2.9034289811">
        <ele>914.35</ele>
        <time>2018-11-12T06:43:07Z</time>
      </trkpt>
      <trkpt lat="36.9912257977" lon="-2.9037449788">
        <ele>915.31</ele>
        <time>2018-11-12T06:43:15Z</time>
      </trkpt>
      <trkpt lat="36.9910662901" lon="-2.9042000324">
        <ele>916.75</ele>
        <time>2018-11-12T06:43:27Z</time>
      </trkpt>
      <trkpt lat="36.9909287430" lon="-2.9045850132">
        <ele>917.72</ele>
        <time>2018-11-12T06:43:37Z</time>
      </trkpt>
      <trkpt lat="36.9907669723" lon="-2.9050696548">
        <ele>918.68</ele>
        <time>2018-11-12T06:43:49Z</time>
      </trkpt>
      <trkpt lat="36.9906584267" lon="-2.9054212756">
        <ele>920.12</ele>
        <time>2018-11-12T06:43:58Z</time>
      </trkpt>
      <trkpt lat="36.9906146731" lon="-2.9055821244">
        <ele>920.12</ele>
        <time>2018-11-12T06:44:04Z</time>
      </trkpt>
      <trkpt lat="36.9906151760" lon="-2.9055864830">
        <ele>921.08</ele>
        <time>2018-11-12T06:44:14Z</time>
      </trkpt>
      <trkpt lat="36.9906129129" lon="-2.9055737425">
        <ele>920.60</ele>
        <time>2018-11-12T06:44:30Z</time>
      </trkpt>
      <trkpt lat="36.9905990828" lon="-2.9056371097">
        <ele>920.60</ele>
        <time>2018-11-12T06:44:38Z</time>
      </trkpt>
      <trkpt lat="36.9905463606" lon="-2.9058180749">
        <ele>921.08</ele>
        <time>2018-11-12T06:44:45Z</time>
      </trkpt>
      <trkpt lat="36.9903995935" lon="-2.9063174687">
        <ele>922.52</ele>
        <time>2018-11-12T06:44:57Z</time>
      </trkpt>
      <trkpt lat="36.9902824145" lon="-2.9067410063">
        <ele>923.96</ele>
        <time>2018-11-12T06:45:07Z</time>
      </trkpt>
      <trkpt lat="36.9901698455" lon="-2.9071585927">
        <ele>924.45</ele>
        <time>2018-11-12T06:45:17Z</time>
      </trkpt>
      <trkpt lat="36.9900602102" lon="-2.9074973892">
        <ele>924.93</ele>
        <time>2018-11-12T06:45:25Z</time>
      </trkpt>
      <trkpt lat="36.9899274409" lon="-2.9079201724">
        <ele>925.41</ele>
        <time>2018-11-12T06:45:34Z</time>
      </trkpt>
      <trkpt lat="36.9897509180" lon="-2.9084064905">
        <ele>925.41</ele>
        <time>2018-11-12T06:45:44Z</time>
      </trkpt>
      <trkpt lat="36.9895357545" lon="-2.9089032859">
        <ele>924.93</ele>
        <time>2018-11-12T06:45:54Z</time>
      </trkpt>
      <trkpt lat="36.9892476685" lon="-2.9095531348">
        <ele>923.96</ele>
        <time>2018-11-12T06:46:06Z</time>
      </trkpt>
      <trkpt lat="36.9890204351" lon="-2.9100534506">
        <ele>923.00</ele>
        <time>2018-11-12T06:46:15Z</time>
      </trkpt>
      <trkpt lat="36.9887306727" lon="-2.9107044730">
        <ele>922.04</ele>
        <time>2018-11-12T06:46:27Z</time>
      </trkpt>
      <trkpt lat="36.9886621088" lon="-2.9108662438">
        <ele>922.04</ele>
        <time>2018-11-12T06:46:30Z</time>
      </trkpt>
      <trkpt lat="36.9885609392" lon="-2.9111345485">
        <ele>921.56</ele>
        <time>2018-11-12T06:46:37Z</time>
      </trkpt>
      <trkpt lat="36.9884312712" lon="-2.9114177730">
        <ele>921.08</ele>
        <time>2018-11-12T06:46:45Z</time>
      </trkpt>
      <trkpt lat="36.9882174488" lon="-2.9118576553">
        <ele>921.08</ele>
        <time>2018-11-12T06:46:55Z</time>
      </trkpt>
      <trkpt lat="36.9879846834" lon="-2.9123904929">
        <ele>920.12</ele>
        <time>2018-11-12T06:47:05Z</time>
      </trkpt>
      <trkpt lat="36.9876749720" lon="-2.9130961653">
        <ele>920.60</ele>
        <time>2018-11-12T06:47:18Z</time>
      </trkpt>
      <trkpt lat="36.9874272868" lon="-2.9136607703">
        <ele>920.60</ele>
        <time>2018-11-12T06:47:28Z</time>
      </trkpt>
      <trkpt lat="36.9871635921" lon="-2.9142688774">
        <ele>920.60</ele>
        <time>2018-11-12T06:47:39Z</time>
      </trkpt>
      <trkpt lat="36.9868905097" lon="-2.9148729611">
        <ele>920.60</ele>
        <time>2018-11-12T06:47:50Z</time>
      </trkpt>
      <trkpt lat="36.9866481051" lon="-2.9154340457">
        <ele>920.60</ele>
        <time>2018-11-12T06:48:00Z</time>
      </trkpt>
      <trkpt lat="36.9863567501" lon="-2.9160866607">
        <ele>921.08</ele>
        <time>2018-11-12T06:48:12Z</time>
      </trkpt>
      <trkpt lat="36.9860280119" lon="-2.9168322310">
        <ele>921.08</ele>
        <time>2018-11-12T06:48:26Z</time>
      </trkpt>
      <trkpt lat="36.9857281074" lon="-2.9175033700">
        <ele>922.04</ele>
        <time>2018-11-12T06:48:39Z</time>
      </trkpt>
      <trkpt lat="36.9854831044" lon="-2.9180582520">
        <ele>922.52</ele>
        <time>2018-11-12T06:48:50Z</time>
      </trkpt>
      <trkpt lat="36.9852790888" lon="-2.9185354337">
        <ele>923.00</ele>
        <time>2018-11-12T06:49:00Z</time>
      </trkpt>
      <trkpt lat="36.9850682840" lon="-2.9190178961">
        <ele>923.00</ele>
        <time>2018-11-12T06:49:10Z</time>
      </trkpt>
      <trkpt lat="36.9848113786" lon="-2.9196013603">
        <ele>923.48</ele>
        <time>2018-11-12T06:49:22Z</time>
      </trkpt>
      <trkpt lat="36.9846000709" lon="-2.9199088924">
        <ele>923.48</ele>
        <time>2018-11-12T06:49:30Z</time>
      </trkpt>
      <trkpt lat="36.9845773559" lon="-2.9199524783">
        <ele>923.48</ele>
        <time>2018-11-12T06:49:31Z</time>
      </trkpt>
      <trkpt lat="36.9844182674" lon="-2.9204501957">
        <ele>923.96</ele>
        <time>2018-11-12T06:49:41Z</time>
      </trkpt>
      <trkpt lat="36.9842129946" lon="-2.9210495017">
        <ele>924.45</ele>
        <time>2018-11-12T06:49:53Z</time>
      </trkpt>
      <trkpt lat="36.9839699194" lon="-2.9216443654">
        <ele>924.45</ele>
        <time>2018-11-12T06:50:05Z</time>
      </trkpt>
      <trkpt lat="36.9837695081" lon="-2.9220879357">
        <ele>924.45</ele>
        <time>2018-11-12T06:50:14Z</time>
      </trkpt>
      <trkpt lat="36.9834738784" lon="-2.9227260500">
        <ele>925.89</ele>
        <time>2018-11-12T06:50:27Z</time>
      </trkpt>
      <trkpt lat="36.9832655042" lon="-2.9232029803">
        <ele>926.37</ele>
        <time>2018-11-12T06:50:37Z</time>
      </trkpt>
      <trkpt lat="36.9830070063" lon="-2.9237864446">
        <ele>926.85</ele>
        <time>2018-11-12T06:50:49Z</time>
      </trkpt>
      <trkpt lat="36.9827408809" lon="-2.9243920371">
        <ele>926.85</ele>
        <time>2018-11-12T06:51:01Z</time>
      </trkpt>
      <trkpt lat="36.9824543037" lon="-2.9250482563">
        <ele>927.81</ele>
        <time>2018-11-12T06:51:14Z</time>
      </trkpt>
      <trkpt lat="36.9821450114" lon="-2.9257547669">
        <ele>928.77</ele>
        <time>2018-11-12T06:51:28Z</time>
      </trkpt>
      <trkpt lat="36.9818862621" lon="-2.9263762012">
        <ele>929.25</ele>
        <time>2018-11-12T06:51:40Z</time>
      </trkpt>
      <trkpt lat="36.9816796482" lon="-2.9268942866">
        <ele>929.73</ele>
        <time>2018-11-12T06:51:50Z</time>
      </trkpt>
      <trkpt lat="36.9814684242" lon="-2.9274896532">
        <ele>930.21</ele>
        <time>2018-11-12T06:52:01Z</time>
      </trkpt>
      <trkpt lat="36.9812899735" lon="-2.9279702716">
        <ele>929.73</ele>
        <time>2018-11-12T06:52:11Z</time>
      </trkpt>
      <trkpt lat="36.9811495766" lon="-2.9284125846">
        <ele>928.77</ele>
        <time>2018-11-12T06:52:20Z</time>
      </trkpt>
      <trkpt lat="36.9809811842" lon="-2.9289911874">
        <ele>926.85</ele>
        <time>2018-11-12T06:52:30Z</time>
      </trkpt>
      <trkpt lat="36.9808007218" lon="-2.9296516813">
        <ele>924.93</ele>
        <time>2018-11-12T06:52:39Z</time>
      </trkpt>
      <trkpt lat="36.9806131348" lon="-2.9304467048">
        <ele>922.04</ele>
        <time>2018-11-12T06:52:48Z</time>
      </trkpt>
      <trkpt lat="36.9804411381" lon="-2.9312683828">
        <ele>918.68</ele>
        <time>2018-11-12T06:52:57Z</time>
      </trkpt>
      <trkpt lat="36.9802657887" lon="-2.9322997760">
        <ele>915.31</ele>
        <time>2018-11-12T06:53:07Z</time>
      </trkpt>
      <trkpt lat="36.9801067002" lon="-2.9335509427">
        <ele>911.47</ele>
        <time>2018-11-12T06:53:19Z</time>
      </trkpt>
      <trkpt lat="36.9799745176" lon="-2.9348022770">
        <ele>908.10</ele>
        <time>2018-11-12T06:53:31Z</time>
      </trkpt>
      <trkpt lat="36.9798008446" lon="-2.9358599894">
        <ele>905.70</ele>
        <time>2018-11-12T06:53:42Z</time>
      </trkpt>
      <trkpt lat="36.9795550872" lon="-2.9368518200">
        <ele>904.26</ele>
        <time>2018-11-12T06:53:53Z</time>
      </trkpt>
      <trkpt lat="36.9792334735" lon="-2.9378903378">
        <ele>902.33</ele>
        <time>2018-11-12T06:54:05Z</time>
      </trkpt>
      <trkpt lat="36.9788743090" lon="-2.9390131775">
        <ele>899.93</ele>
        <time>2018-11-12T06:54:18Z</time>
      </trkpt>
      <trkpt lat="36.9785443973" lon="-2.9400672857">
        <ele>897.53</ele>
        <time>2018-11-12T06:54:30Z</time>
      </trkpt>
      <trkpt lat="36.9782113843" lon="-2.9411105812">
        <ele>893.20</ele>
        <time>2018-11-12T06:54:41Z</time>
      </trkpt>
      <trkpt lat="36.9778896030" lon="-2.9420982208">
        <ele>888.40</ele>
        <time>2018-11-12T06:54:50Z</time>
      </trkpt>
      <trkpt lat="36.9775487110" lon="-2.9432000220">
        <ele>882.15</ele>
        <time>2018-11-12T06:54:59Z</time>
      </trkpt>
      <trkpt lat="36.9773736969" lon="-2.9442988057">
        <ele>876.38</ele>
        <time>2018-11-12T06:55:07Z</time>
      </trkpt>
      <trkpt lat="36.9773213938" lon="-2.9452856071">
        <ele>871.09</ele>
        <time>2018-11-12T06:55:14Z</time>
      </trkpt>
      <trkpt lat="36.9773465395" lon="-2.9462501965">
        <ele>866.29</ele>
        <time>2018-11-12T06:55:21Z</time>
      </trkpt>
      <trkpt lat="36.9773572683" lon="-2.9464294855">
        <ele>864.84</ele>
        <time>2018-11-12T06:55:24Z</time>
      </trkpt>
      <trkpt lat="36.9773612078" lon="-2.9464472551">
        <ele>864.36</ele>
        <time>2018-11-12T06:55:28Z</time>
      </trkpt>
      <trkpt lat="36.9773617946" lon="-2.9464397952">
        <ele>864.84</ele>
        <time>2018-11-12T06:55:38Z</time>
      </trkpt>
      <trkpt lat="36.9773552567" lon="-2.9464316647">
        <ele>868.21</ele>
        <time>2018-11-12T06:55:57Z</time>
      </trkpt>
      <trkpt lat="36.9773500599" lon="-2.9464227799">
        <ele>868.21</ele>
        <time>2018-11-12T06:56:27Z</time>
      </trkpt>
      <trkpt lat="36.9773555081" lon="-2.9464191757">
        <ele>867.25</ele>
        <time>2018-11-12T06:56:50Z</time>
      </trkpt>
      <trkpt lat="36.9773479644" lon="-2.9464315809">
        <ele>866.29</ele>
        <time>2018-11-12T06:57:08Z</time>
      </trkpt>
      <trkpt lat="36.9773453660" lon="-2.9464397952">
        <ele>866.77</ele>
        <time>2018-11-12T06:57:12Z</time>
      </trkpt>
      <trkpt lat="36.9773471262" lon="-2.9464557208">
        <ele>866.77</ele>
        <time>2018-11-12T06:57:13Z</time>
      </trkpt>
      <trkpt lat="36.9773641415" lon="-2.9464816209">
        <ele>866.29</ele>
        <time>2018-11-12T06:57:20Z</time>
      </trkpt>
      <trkpt lat="36.9773640577" lon="-2.9464861471">
        <ele>866.77</ele>
        <time>2018-11-12T06:57:34Z</time>
      </trkpt>
      <trkpt lat="36.9773718528" lon="-2.9466804396">
        <ele>865.32</ele>
        <time>2018-11-12T06:57:41Z</time>
      </trkpt>
      <trkpt lat="36.9773805700" lon="-2.9469961859">
        <ele>863.88</ele>
        <time>2018-11-12T06:57:48Z</time>
      </trkpt>
      <trkpt lat="36.9773871917" lon="-2.9471313022">
        <ele>862.92</ele>
        <time>2018-11-12T06:57:53Z</time>
      </trkpt>
      <trkpt lat="36.9773850124" lon="-2.9471177235">
        <ele>864.36</ele>
        <time>2018-11-12T06:58:15Z</time>
      </trkpt>
      <trkpt lat="36.9773886167" lon="-2.9471165501">
        <ele>863.88</ele>
        <time>2018-11-12T06:58:29Z</time>
      </trkpt>
      <trkpt lat="36.9773913827" lon="-2.9471187294">
        <ele>863.40</ele>
        <time>2018-11-12T06:58:48Z</time>
      </trkpt>
      <trkpt lat="36.9773849286" lon="-2.9472313821">
        <ele>862.44</ele>
        <time>2018-11-12T06:58:54Z</time>
      </trkpt>
      <trkpt lat="36.9773817435" lon="-2.9475828353">
        <ele>860.04</ele>
        <time>2018-11-12T06:59:01Z</time>
      </trkpt>
      <trkpt lat="36.9773745351" lon="-2.9480583407">
        <ele>857.63</ele>
        <time>2018-11-12T06:59:07Z</time>
      </trkpt>
      <trkpt lat="36.9773577712" lon="-2.9489971977">
        <ele>851.87</ele>
        <time>2018-11-12T06:59:16Z</time>
      </trkpt>
      <trkpt lat="36.9772822503" lon="-2.9500045348">
        <ele>847.54</ele>
        <time>2018-11-12T06:59:24Z</time>
      </trkpt>
      <trkpt lat="36.9770672545" lon="-2.9506496899">
        <ele>844.18</ele>
        <time>2018-11-12T06:59:29Z</time>
      </trkpt>
      <trkpt lat="36.9766894821" lon="-2.9513230920">
        <ele>841.77</ele>
        <time>2018-11-12T06:59:35Z</time>
      </trkpt>
      <trkpt lat="36.9762966223" lon="-2.9520470370">
        <ele>839.85</ele>
        <time>2018-11-12T06:59:42Z</time>
      </trkpt>
      <trkpt lat="36.9760414772" lon="-2.9528449103">
        <ele>836.96</ele>
        <time>2018-11-12T06:59:49Z</time>
      </trkpt>
      <trkpt lat="36.9758075383" lon="-2.9541456141">
        <ele>832.64</ele>
        <time>2018-11-12T07:00:00Z</time>
      </trkpt>
      <trkpt lat="36.9755486213" lon="-2.9550500214">
        <ele>829.27</ele>
        <time>2018-11-12T07:00:08Z</time>
      </trkpt>
      <trkpt lat="36.9751730282" lon="-2.9558024649">
        <ele>826.39</ele>
        <time>2018-11-12T07:00:15Z</time>
      </trkpt>
      <trkpt lat="36.9747186452" lon="-2.9564314429">
        <ele>823.51</ele>
        <time>2018-11-12T07:00:22Z</time>
      </trkpt>
      <trkpt lat="36.9741733186" lon="-2.9569453374">
        <ele>821.10</ele>
        <time>2018-11-12T07:00:29Z</time>
      </trkpt>
      <trkpt lat="36.9735782873" lon="-2.9573111236">
        <ele>817.74</ele>
        <time>2018-11-12T07:00:36Z</time>
      </trkpt>
      <trkpt lat="36.9729304500" lon="-2.9575421289">
        <ele>814.85</ele>
        <time>2018-11-12T07:00:43Z</time>
      </trkpt>
      <trkpt lat="36.9718661997" lon="-2.9578179773">
        <ele>811.49</ele>
        <time>2018-11-12T07:00:54Z</time>
      </trkpt>
      <trkpt lat="36.9712137524" lon="-2.9579817597">
        <ele>811.97</ele>
        <time>2018-11-12T07:01:02Z</time>
      </trkpt>
      <trkpt lat="36.9708821643" lon="-2.9580652434">
        <ele>812.45</ele>
        <time>2018-11-12T07:01:08Z</time>
      </trkpt>
      <trkpt lat="36.9705324713" lon="-2.9581598751">
        <ele>814.37</ele>
        <time>2018-11-12T07:01:16Z</time>
      </trkpt>
      <trkpt lat="36.9701430481" lon="-2.9582562670">
        <ele>816.30</ele>
        <time>2018-11-12T07:01:27Z</time>
      </trkpt>
      <trkpt lat="36.9698490947" lon="-2.9583367333">
        <ele>817.74</ele>
        <time>2018-11-12T07:01:35Z</time>
      </trkpt>
      <trkpt lat="36.9695211109" lon="-2.9584105778">
        <ele>819.18</ele>
        <time>2018-11-12T07:01:46Z</time>
      </trkpt>
      <trkpt lat="36.9691926241" lon="-2.9584894516">
        <ele>820.62</ele>
        <time>2018-11-12T07:01:56Z</time>
      </trkpt>
      <trkpt lat="36.9688679930" lon="-2.9585432634">
        <ele>821.58</ele>
        <time>2018-11-12T07:02:05Z</time>
      </trkpt>
      <trkpt lat="36.9684488978" lon="-2.9585966561">
        <ele>821.58</ele>
        <time>2018-11-12T07:02:16Z</time>
      </trkpt>
      <trkpt lat="36.9679935928" lon="-2.9586185329">
        <ele>821.58</ele>
        <time>2018-11-12T07:02:28Z</time>
      </trkpt>
      <trkpt lat="36.9676147308" lon="-2.9586004280">
        <ele>820.62</ele>
        <time>2018-11-12T07:02:38Z</time>
      </trkpt>
      <trkpt lat="36.9672941230" lon="-2.9585707560">
        <ele>820.14</ele>
        <time>2018-11-12T07:02:46Z</time>
      </trkpt>
      <trkpt lat="36.9668172766" lon="-2.9585013539">
        <ele>818.70</ele>
        <time>2018-11-12T07:02:57Z</time>
      </trkpt>
      <trkpt lat="36.9662418589" lon="-2.9583579395">
        <ele>817.26</ele>
        <time>2018-11-12T07:03:08Z</time>
      </trkpt>
      <trkpt lat="36.9657134637" lon="-2.9581913911">
        <ele>814.85</ele>
        <time>2018-11-12T07:03:16Z</time>
      </trkpt>
      <trkpt lat="36.9651442487" lon="-2.9580053128">
        <ele>811.01</ele>
        <time>2018-11-12T07:03:23Z</time>
      </trkpt>
      <trkpt lat="36.9643146079" lon="-2.9577932507">
        <ele>806.20</ele>
        <time>2018-11-12T07:03:31Z</time>
      </trkpt>
      <trkpt lat="36.9633200113" lon="-2.9576236010">
        <ele>798.99</ele>
        <time>2018-11-12T07:03:40Z</time>
      </trkpt>
      <trkpt lat="36.9621917233" lon="-2.9575394467">
        <ele>792.26</ele>
        <time>2018-11-12T07:03:49Z</time>
      </trkpt>
      <trkpt lat="36.9613454863" lon="-2.9575395305">
        <ele>791.30</ele>
        <time>2018-11-12T07:03:56Z</time>
      </trkpt>
      <trkpt lat="36.9607995730" lon="-2.9575759917">
        <ele>792.26</ele>
        <time>2018-11-12T07:04:02Z</time>
      </trkpt>
      <trkpt lat="36.9603912905" lon="-2.9576215893">
        <ele>793.22</ele>
        <time>2018-11-12T07:04:09Z</time>
      </trkpt>
      <trkpt lat="36.9600441121" lon="-2.9576733895">
        <ele>794.19</ele>
        <time>2018-11-12T07:04:17Z</time>
      </trkpt>
      <trkpt lat="36.9595574588" lon="-2.9577612318">
        <ele>795.63</ele>
        <time>2018-11-12T07:04:29Z</time>
      </trkpt>
      <trkpt lat="36.9592091069" lon="-2.9578289576">
        <ele>796.11</ele>
        <time>2018-11-12T07:04:38Z</time>
      </trkpt>
      <trkpt lat="36.9588096254" lon="-2.9579270259">
        <ele>797.07</ele>
        <time>2018-11-12T07:04:49Z</time>
      </trkpt>
      <trkpt lat="36.9584180228" lon="-2.9580428638">
        <ele>797.55</ele>
        <time>2018-11-12T07:05:00Z</time>
      </trkpt>
      <trkpt lat="36.9579700939" lon="-2.9581944086">
        <ele>797.55</ele>
        <time>2018-11-12T07:05:13Z</time>
      </trkpt>
      <trkpt lat="36.9576948322" lon="-2.9582991824">
        <ele>797.55</ele>
        <time>2018-11-12T07:05:22Z</time>
      </trkpt>
      <trkpt lat="36.9573562872" lon="-2.9584373161">
        <ele>798.51</ele>
        <time>2018-11-12T07:05:33Z</time>
      </trkpt>
      <trkpt lat="36.9570524432" lon="-2.9585699178">
        <ele>798.03</ele>
        <time>2018-11-12T07:05:43Z</time>
      </trkpt>
      <trkpt lat="36.9567855634" lon="-2.9586872645">
        <ele>798.03</ele>
        <time>2018-11-12T07:05:53Z</time>
      </trkpt>
      <trkpt lat="36.9565160014" lon="-2.9588173516">
        <ele>799.47</ele>
        <time>2018-11-12T07:06:03Z</time>
      </trkpt>
      <trkpt lat="36.9562789612" lon="-2.9589494504">
        <ele>801.40</ele>
        <time>2018-11-12T07:06:12Z</time>
      </trkpt>
      <trkpt lat="36.9559415895" lon="-2.9591228720">
        <ele>802.36</ele>
        <time>2018-11-12T07:06:25Z</time>
      </trkpt>
      <trkpt lat="36.9556716084" lon="-2.9592506960">
        <ele>803.32</ele>
        <time>2018-11-12T07:06:35Z</time>
      </trkpt>
      <trkpt lat="36.9553480670" lon="-2.9593866505">
        <ele>803.80</ele>
        <time>2018-11-12T07:06:47Z</time>
      </trkpt>
      <trkpt lat="36.9550692849" lon="-2.9594840482">
        <ele>805.24</ele>
        <time>2018-11-12T07:06:58Z</time>
      </trkpt>
      <trkpt lat="36.9548018184" lon="-2.9595858045">
        <ele>806.68</ele>
        <time>2018-11-12T07:07:09Z</time>
      </trkpt>
      <trkpt lat="36.9546722341" lon="-2.9596652649">
        <ele>808.13</ele>
        <time>2018-11-12T07:07:15Z</time>
      </trkpt>
      <trkpt lat="36.9546443224" lon="-2.9596706294">
        <ele>808.61</ele>
        <time>2018-11-12T07:07:20Z</time>
      </trkpt>
      <trkpt lat="36.9546463341" lon="-2.9596684501">
        <ele>808.13</ele>
        <time>2018-11-12T07:07:35Z</time>
      </trkpt>
      <trkpt lat="36.9546385389" lon="-2.9596570507">
        <ele>808.13</ele>
        <time>2018-11-12T07:07:49Z</time>
      </trkpt>
      <trkpt lat="36.9546340127" lon="-2.9596723057">
        <ele>807.64</ele>
        <time>2018-11-12T07:08:01Z</time>
      </trkpt>
      <trkpt lat="36.9546428137" lon="-2.9596701264">
        <ele>810.05</ele>
        <time>2018-11-12T07:08:13Z</time>
      </trkpt>
      <trkpt lat="36.9546328392" lon="-2.9596663546">
        <ele>809.57</ele>
        <time>2018-11-12T07:08:14Z</time>
      </trkpt>
      <trkpt lat="36.9546186738" lon="-2.9596679471">
        <ele>809.57</ele>
        <time>2018-11-12T07:08:15Z</time>
      </trkpt>
      <trkpt lat="36.9546023291" lon="-2.9596709646">
        <ele>810.05</ele>
        <time>2018-11-12T07:08:16Z</time>
      </trkpt>
      <trkpt lat="36.9545836374" lon="-2.9596723057">
        <ele>810.05</ele>
        <time>2018-11-12T07:08:17Z</time>
      </trkpt>
      <trkpt lat="36.9545636885" lon="-2.9596768320">
        <ele>810.05</ele>
        <time>2018-11-12T07:08:18Z</time>
      </trkpt>
      <trkpt lat="36.9544413127" lon="-2.9597185738">
        <ele>811.01</ele>
        <time>2018-11-12T07:08:25Z</time>
      </trkpt>
      <trkpt lat="36.9542368781" lon="-2.9597540293">
        <ele>812.45</ele>
        <time>2018-11-12T07:08:33Z</time>
      </trkpt>
      <trkpt lat="36.9539404940" lon="-2.9597867187">
        <ele>814.85</ele>
        <time>2018-11-12T07:08:45Z</time>
      </trkpt>
      <trkpt lat="36.9536895398" lon="-2.9598137084">
        <ele>816.78</ele>
        <time>2018-11-12T07:08:55Z</time>
      </trkpt>
      <trkpt lat="36.9534701016" lon="-2.9598372616">
        <ele>818.70</ele>
        <time>2018-11-12T07:09:05Z</time>
      </trkpt>
      <trkpt lat="36.9532540161" lon="-2.9598360043">
        <ele>820.62</ele>
        <time>2018-11-12T07:09:15Z</time>
      </trkpt>
      <trkpt lat="36.9531341549" lon="-2.9598380160">
        <ele>821.10</ele>
        <time>2018-11-12T07:09:21Z</time>
      </trkpt>
      <trkpt lat="36.9529381022" lon="-2.9598287959">
        <ele>822.55</ele>
        <time>2018-11-12T07:09:31Z</time>
      </trkpt>
      <trkpt lat="36.9527608249" lon="-2.9598133732">
        <ele>823.51</ele>
        <time>2018-11-12T07:09:40Z</time>
      </trkpt>
      <trkpt lat="36.9525896665" lon="-2.9597945977">
        <ele>824.47</ele>
        <time>2018-11-12T07:09:49Z</time>
      </trkpt>
      <trkpt lat="36.9524294883" lon="-2.9597753193">
        <ele>825.43</ele>
        <time>2018-11-12T07:09:57Z</time>
      </trkpt>
      <trkpt lat="36.9522356149" lon="-2.9597535264">
        <ele>826.87</ele>
        <time>2018-11-12T07:10:07Z</time>
      </trkpt>
      <trkpt lat="36.9519985747" lon="-2.9597293865">
        <ele>828.79</ele>
        <time>2018-11-12T07:10:18Z</time>
      </trkpt>
      <trkpt lat="36.9517861772" lon="-2.9597026482">
        <ele>830.24</ele>
        <time>2018-11-12T07:10:28Z</time>
      </trkpt>
      <trkpt lat="36.9515970815" lon="-2.9596814420">
        <ele>830.72</ele>
        <time>2018-11-12T07:10:35Z</time>
      </trkpt>
      <trkpt lat="36.9512980990" lon="-2.9596490879">
        <ele>831.20</ele>
        <time>2018-11-12T07:10:45Z</time>
      </trkpt>
      <trkpt lat="36.9510551915" lon="-2.9596267082">
        <ele>831.68</ele>
        <time>2018-11-12T07:10:53Z</time>
      </trkpt>
      <trkpt lat="36.9507199153" lon="-2.9595915880">
        <ele>830.72</ele>
        <time>2018-11-12T07:11:03Z</time>
      </trkpt>
      <trkpt lat="36.9502215274" lon="-2.9595444817">
        <ele>829.76</ele>
        <time>2018-11-12T07:11:16Z</time>
      </trkpt>
      <trkpt lat="36.9497313537" lon="-2.9594952799">
        <ele>828.79</ele>
        <time>2018-11-12T07:11:27Z</time>
      </trkpt>
      <trkpt lat="36.9491815008" lon="-2.9594354331">
        <ele>827.83</ele>
        <time>2018-11-12T07:11:38Z</time>
      </trkpt>
      <trkpt lat="36.9486236013" lon="-2.9593755864">
        <ele>827.35</ele>
        <time>2018-11-12T07:11:49Z</time>
      </trkpt>
      <trkpt lat="36.9479070324" lon="-2.9593002331">
        <ele>825.91</ele>
        <time>2018-11-12T07:12:03Z</time>
      </trkpt>
      <trkpt lat="36.9473659806" lon="-2.9592638556">
        <ele>824.47</ele>
        <time>2018-11-12T07:12:14Z</time>
      </trkpt>
      <trkpt lat="36.9470028765" lon="-2.9592584912">
        <ele>823.51</ele>
        <time>2018-11-12T07:12:21Z</time>
      </trkpt>
      <trkpt lat="36.9462309871" lon="-2.9592910968">
        <ele>822.06</ele>
        <time>2018-11-12T07:12:34Z</time>
      </trkpt>
      <trkpt lat="36.9454879314" lon="-2.9593496863">
        <ele>821.58</ele>
        <time>2018-11-12T07:12:47Z</time>
      </trkpt>
      <trkpt lat="36.9446688518" lon="-2.9594109580">
        <ele>823.51</ele>
        <time>2018-11-12T07:13:01Z</time>
      </trkpt>
      <trkpt lat="36.9443805143" lon="-2.9594336729">
        <ele>824.47</ele>
        <time>2018-11-12T07:13:08Z</time>
      </trkpt>
      <trkpt lat="36.9440173265" lon="-2.9594643507">
        <ele>826.39</ele>
        <time>2018-11-12T07:13:18Z</time>
      </trkpt>
      <trkpt lat="36.9436404761" lon="-2.9594938550">
        <ele>828.31</ele>
        <time>2018-11-12T07:13:29Z</time>
      </trkpt>
      <trkpt lat="36.9432111550" lon="-2.9595287237">
        <ele>830.72</ele>
        <time>2018-11-12T07:13:41Z</time>
      </trkpt>
      <trkpt lat="36.9428222347" lon="-2.9595583957">
        <ele>832.16</ele>
        <time>2018-11-12T07:13:52Z</time>
      </trkpt>
      <trkpt lat="36.9424070790" lon="-2.9596002214">
        <ele>832.64</ele>
        <time>2018-11-12T07:14:04Z</time>
      </trkpt>
      <trkpt lat="36.9420158118" lon="-2.9596294742">
        <ele>832.64</ele>
        <time>2018-11-12T07:14:15Z</time>
      </trkpt>
      <trkpt lat="36.9415938668" lon="-2.9596677795">
        <ele>833.12</ele>
        <time>2018-11-12T07:14:27Z</time>
      </trkpt>
      <trkpt lat="36.9411541522" lon="-2.9597003013">
        <ele>833.60</ele>
        <time>2018-11-12T07:14:40Z</time>
      </trkpt>
      <trkpt lat="36.9407847617" lon="-2.9597237706">
        <ele>834.08</ele>
        <time>2018-11-12T07:14:51Z</time>
      </trkpt>
      <trkpt lat="36.9403380062" lon="-2.9597654287">
        <ele>835.04</ele>
        <time>2018-11-12T07:15:04Z</time>
      </trkpt>
      <trkpt lat="36.9398904126" lon="-2.9598007165">
        <ele>836.48</ele>
        <time>2018-11-12T07:15:16Z</time>
      </trkpt>
      <trkpt lat="36.9393808767" lon="-2.9598425422">
        <ele>837.45</ele>
        <time>2018-11-12T07:15:29Z</time>
      </trkpt>
      <trkpt lat="36.9389433414" lon="-2.9598807637">
        <ele>837.93</ele>
        <time>2018-11-12T07:15:40Z</time>
      </trkpt>
      <trkpt lat="36.9385241624" lon="-2.9599214159">
        <ele>837.93</ele>
        <time>2018-11-12T07:15:51Z</time>
      </trkpt>
      <trkpt lat="36.9381072465" lon="-2.9600240104">
        <ele>838.41</ele>
        <time>2018-11-12T07:16:01Z</time>
      </trkpt>
      <trkpt lat="36.9377302285" lon="-2.9602518305">
        <ele>836.48</ele>
        <time>2018-11-12T07:16:09Z</time>
      </trkpt>
      <trkpt lat="36.9373190962" lon="-2.9606423434">
        <ele>834.08</ele>
        <time>2018-11-12T07:16:17Z</time>
      </trkpt>
      <trkpt lat="36.9369881786" lon="-2.9609755240">
        <ele>832.16</ele>
        <time>2018-11-12T07:16:24Z</time>
      </trkpt>
      <trkpt lat="36.9365891162" lon="-2.9612817988">
        <ele>830.24</ele>
        <time>2018-11-12T07:16:32Z</time>
      </trkpt>
      <trkpt lat="36.9361681771" lon="-2.9614261352">
        <ele>827.83</ele>
        <time>2018-11-12T07:16:38Z</time>
      </trkpt>
      <trkpt lat="36.9356780872" lon="-2.9614278115">
        <ele>825.91</ele>
        <time>2018-11-12T07:16:44Z</time>
      </trkpt>
      <trkpt lat="36.9349567406" lon="-2.9613027535">
        <ele>822.06</ele>
        <time>2018-11-12T07:16:52Z</time>
      </trkpt>
      <trkpt lat="36.9340729527" lon="-2.9611625243">
        <ele>817.26</ele>
        <time>2018-11-12T07:17:01Z</time>
      </trkpt>
      <trkpt lat="36.9335686974" lon="-2.9612400569">
        <ele>814.37</ele>
        <time>2018-11-12T07:17:06Z</time>
      </trkpt>
      <trkpt lat="36.9330281485" lon="-2.9614303261">
        <ele>811.49</ele>
        <time>2018-11-12T07:17:12Z</time>
      </trkpt>
      <trkpt lat="36.9325082190" lon="-2.9615145642">
        <ele>809.09</ele>
        <time>2018-11-12T07:17:18Z</time>
      </trkpt>
      <trkpt lat="36.9320426043" lon="-2.9614193458">
        <ele>806.68</ele>
        <time>2018-11-12T07:17:24Z</time>
      </trkpt>
      <trkpt lat="36.9315990340" lon="-2.9611631949">
        <ele>804.76</ele>
        <time>2018-11-12T07:17:30Z</time>
      </trkpt>
      <trkpt lat="36.9310663640" lon="-2.9607048724">
        <ele>800.92</ele>
        <time>2018-11-12T07:17:38Z</time>
      </trkpt>
      <trkpt lat="36.9304966461" lon="-2.9602063168">
        <ele>796.59</ele>
        <time>2018-11-12T07:17:46Z</time>
      </trkpt>
      <trkpt lat="36.9299848471" lon="-2.9597817734">
        <ele>794.19</ele>
        <time>2018-11-12T07:17:53Z</time>
      </trkpt>
      <trkpt lat="36.9294752274" lon="-2.9595187493">
        <ele>792.74</ele>
        <time>2018-11-12T07:17:59Z</time>
      </trkpt>
      <trkpt lat="36.9288054295" lon="-2.9594112933">
        <ele>789.86</ele>
        <time>2018-11-12T07:18:06Z</time>
      </trkpt>
      <trkpt lat="36.9282185286" lon="-2.9595273826">
        <ele>787.46</ele>
        <time>2018-11-12T07:18:12Z</time>
      </trkpt>
      <trkpt lat="36.9276375789" lon="-2.9598599765">
        <ele>784.09</ele>
        <time>2018-11-12T07:18:18Z</time>
      </trkpt>
      <trkpt lat="36.9269342534" lon="-2.9603523295">
        <ele>778.81</ele>
        <time>2018-11-12T07:18:25Z</time>
      </trkpt>
      <trkpt lat="36.9261414092" lon="-2.9609751888">
        <ele>771.11</ele>
        <time>2018-11-12T07:18:32Z</time>
      </trkpt>
      <trkpt lat="36.9251840282" lon="-2.9618985392">
        <ele>761.98</ele>
        <time>2018-11-12T07:18:41Z</time>
      </trkpt>
      <trkpt lat="36.9245258812" lon="-2.9624106735">
        <ele>756.21</ele>
        <time>2018-11-12T07:18:47Z</time>
      </trkpt>
      <trkpt lat="36.9239103142" lon="-2.9627570976">
        <ele>751.41</ele>
        <time>2018-11-12T07:18:53Z</time>
      </trkpt>
      <trkpt lat="36.9230774883" lon="-2.9631243926">
        <ele>744.20</ele>
        <time>2018-11-12T07:19:00Z</time>
      </trkpt>
      <trkpt lat="36.9221222866" lon="-2.9635281488">
        <ele>736.03</ele>
        <time>2018-11-12T07:19:07Z</time>
      </trkpt>
      <trkpt lat="36.9210281130" lon="-2.9640001338">
        <ele>726.41</ele>
        <time>2018-11-12T07:19:15Z</time>
      </trkpt>
      <trkpt lat="36.9201952871" lon="-2.9643798340">
        <ele>719.68</ele>
        <time>2018-11-12T07:19:22Z</time>
      </trkpt>
      <trkpt lat="36.9195470307" lon="-2.9648876935">
        <ele>713.92</ele>
        <time>2018-11-12T07:19:28Z</time>
      </trkpt>
      <trkpt lat="36.9189567771" lon="-2.9655605089">
        <ele>708.15</ele>
        <time>2018-11-12T07:19:34Z</time>
      </trkpt>
      <trkpt lat="36.9184820261" lon="-2.9663467314">
        <ele>702.38</ele>
        <time>2018-11-12T07:19:40Z</time>
      </trkpt>
      <trkpt lat="36.9181404635" lon="-2.9671923816">
        <ele>696.61</ele>
        <time>2018-11-12T07:19:46Z</time>
      </trkpt>
      <trkpt lat="36.9178734999" lon="-2.9681595694">
        <ele>690.36</ele>
        <time>2018-11-12T07:19:53Z</time>
      </trkpt>
      <trkpt lat="36.9177483581" lon="-2.9685013834">
        <ele>687.96</ele>
        <time>2018-11-12T07:19:56Z</time>
      </trkpt>
      <trkpt lat="36.9176937081" lon="-2.9686079174">
        <ele>687.00</ele>
        <time>2018-11-12T07:19:57Z</time>
      </trkpt>
      <trkpt lat="36.9176306762" lon="-2.9687128589">
        <ele>686.52</ele>
        <time>2018-11-12T07:19:58Z</time>
      </trkpt>
      <trkpt lat="36.9175601844" lon="-2.9688134417">
        <ele>685.56</ele>
        <time>2018-11-12T07:19:59Z</time>
      </trkpt>
      <trkpt lat="36.9174844120" lon="-2.9689092468">
        <ele>684.60</ele>
        <time>2018-11-12T07:20:00Z</time>
      </trkpt>
      <trkpt lat="36.9174000900" lon="-2.9690031242">
        <ele>683.63</ele>
        <time>2018-11-12T07:20:01Z</time>
      </trkpt>
      <trkpt lat="36.9173118286" lon="-2.9690886196">
        <ele>683.15</ele>
        <time>2018-11-12T07:20:02Z</time>
      </trkpt>
      <trkpt lat="36.9166031387" lon="-2.9696728382">
        <ele>676.91</ele>
        <time>2018-11-12T07:20:09Z</time>
      </trkpt>
      <trkpt lat="36.9160573091" lon="-2.9700169992">
        <ele>672.58</ele>
        <time>2018-11-12T07:20:14Z</time>
      </trkpt>
      <trkpt lat="36.9152142573" lon="-2.9702807777">
        <ele>665.37</ele>
        <time>2018-11-12T07:20:20Z</time>
      </trkpt>
      <trkpt lat="36.9143956807" lon="-2.9704767466">
        <ele>659.60</ele>
        <time>2018-11-12T07:20:26Z</time>
      </trkpt>
      <trkpt lat="36.9142626598" lon="-2.9704814404">
        <ele>658.16</ele>
        <time>2018-11-12T07:20:27Z</time>
      </trkpt>
      <trkpt lat="36.9141288009" lon="-2.9704723042">
        <ele>657.20</ele>
        <time>2018-11-12T07:20:28Z</time>
      </trkpt>
      <trkpt lat="36.9139946904" lon="-2.9704501759">
        <ele>656.24</ele>
        <time>2018-11-12T07:20:29Z</time>
      </trkpt>
      <trkpt lat="36.9138566405" lon="-2.9704148881">
        <ele>655.28</ele>
        <time>2018-11-12T07:20:30Z</time>
      </trkpt>
      <trkpt lat="36.9137130585" lon="-2.9703631718">
        <ele>653.83</ele>
        <time>2018-11-12T07:20:31Z</time>
      </trkpt>
      <trkpt lat="36.9135897607" lon="-2.9703092761">
        <ele>652.39</ele>
        <time>2018-11-12T07:20:32Z</time>
      </trkpt>
      <trkpt lat="36.9133269880" lon="-2.9702086933">
        <ele>649.99</ele>
        <time>2018-11-12T07:20:34Z</time>
      </trkpt>
      <trkpt lat="36.9131836575" lon="-2.9701821227">
        <ele>649.03</ele>
        <time>2018-11-12T07:20:35Z</time>
      </trkpt>
      <trkpt lat="36.9130480383" lon="-2.9701791890">
        <ele>648.07</ele>
        <time>2018-11-12T07:20:36Z</time>
      </trkpt>
      <trkpt lat="36.9129140954" lon="-2.9701879062">
        <ele>647.59</ele>
        <time>2018-11-12T07:20:37Z</time>
      </trkpt>
      <trkpt lat="36.9127739500" lon="-2.9702077713">
        <ele>646.62</ele>
        <time>2018-11-12T07:20:38Z</time>
      </trkpt>
      <trkpt lat="36.9125138596" lon="-2.9702888243">
        <ele>645.66</ele>
        <time>2018-11-12T07:20:40Z</time>
      </trkpt>
      <trkpt lat="36.9123953395" lon="-2.9703501798">
        <ele>645.18</ele>
        <time>2018-11-12T07:20:41Z</time>
      </trkpt>
      <trkpt lat="36.9122860394" lon="-2.9704210907">
        <ele>645.18</ele>
        <time>2018-11-12T07:20:42Z</time>
      </trkpt>
      <trkpt lat="36.9121822715" lon="-2.9704992101">
        <ele>645.18</ele>
        <time>2018-11-12T07:20:43Z</time>
      </trkpt>
      <trkpt lat="36.9120903220" lon="-2.9705777485">
        <ele>645.18</ele>
        <time>2018-11-12T07:20:44Z</time>
      </trkpt>
      <trkpt lat="36.9120054971" lon="-2.9706652556">
        <ele>645.18</ele>
        <time>2018-11-12T07:20:45Z</time>
      </trkpt>
      <trkpt lat="36.9119343348" lon="-2.9707484040">
        <ele>645.66</ele>
        <time>2018-11-12T07:20:46Z</time>
      </trkpt>
      <trkpt lat="36.9118682016" lon="-2.9708305467">
        <ele>645.66</ele>
        <time>2018-11-12T07:20:47Z</time>
      </trkpt>
      <trkpt lat="36.9115366973" lon="-2.9712837562">
        <ele>646.62</ele>
        <time>2018-11-12T07:20:53Z</time>
      </trkpt>
      <trkpt lat="36.9111929554" lon="-2.9716350418">
        <ele>645.66</ele>
        <time>2018-11-12T07:21:00Z</time>
      </trkpt>
      <trkpt lat="36.9108068012" lon="-2.9718561564">
        <ele>644.70</ele>
        <time>2018-11-12T07:21:07Z</time>
      </trkpt>
      <trkpt lat="36.9106065575" lon="-2.9719177634">
        <ele>643.74</ele>
        <time>2018-11-12T07:21:10Z</time>
      </trkpt>
      <trkpt lat="36.9101198204" lon="-2.9719434120">
        <ele>641.34</ele>
        <time>2018-11-12T07:21:16Z</time>
      </trkpt>
      <trkpt lat="36.9100414496" lon="-2.9719306715">
        <ele>640.86</ele>
        <time>2018-11-12T07:21:17Z</time>
      </trkpt>
      <trkpt lat="36.9099654257" lon="-2.9719086271">
        <ele>640.38</ele>
        <time>2018-11-12T07:21:18Z</time>
      </trkpt>
      <trkpt lat="36.9094498549" lon="-2.9716440942">
        <ele>636.05</ele>
        <time>2018-11-12T07:21:24Z</time>
      </trkpt>
      <trkpt lat="36.9092823006" lon="-2.9714978300">
        <ele>634.13</ele>
        <time>2018-11-12T07:21:26Z</time>
      </trkpt>
      <trkpt lat="36.9090279099" lon="-2.9711876996">
        <ele>630.76</ele>
        <time>2018-11-12T07:21:30Z</time>
      </trkpt>
      <trkpt lat="36.9089699909" lon="-2.9710949119">
        <ele>630.28</ele>
        <time>2018-11-12T07:21:31Z</time>
      </trkpt>
      <trkpt lat="36.9085767120" lon="-2.9702554643">
        <ele>623.07</ele>
        <time>2018-11-12T07:21:39Z</time>
      </trkpt>
      <trkpt lat="36.9083462097" lon="-2.9698489420">
        <ele>619.71</ele>
        <time>2018-11-12T07:21:43Z</time>
      </trkpt>
      <trkpt lat="36.9080985244" lon="-2.9695602693">
        <ele>617.30</ele>
        <time>2018-11-12T07:21:47Z</time>
      </trkpt>
      <trkpt lat="36.9080503285" lon="-2.9695203714">
        <ele>616.82</ele>
        <time>2018-11-12T07:21:48Z</time>
      </trkpt>
      <trkpt lat="36.9080022164" lon="-2.9695041105">
        <ele>616.34</ele>
        <time>2018-11-12T07:21:49Z</time>
      </trkpt>
      <trkpt lat="36.9079751428" lon="-2.9695119895">
        <ele>616.34</ele>
        <time>2018-11-12T07:21:50Z</time>
      </trkpt>
      <trkpt lat="36.9079562835" lon="-2.9695180245">
        <ele>616.34</ele>
        <time>2018-11-12T07:21:51Z</time>
      </trkpt>
      <trkpt lat="36.9079476502" lon="-2.9695205390">
        <ele>615.86</ele>
        <time>2018-11-12T07:21:55Z</time>
      </trkpt>
      <trkpt lat="36.9079587981" lon="-2.9695329443">
        <ele>614.90</ele>
        <time>2018-11-12T07:22:05Z</time>
      </trkpt>
      <trkpt lat="36.9079587981" lon="-2.9695181921">
        <ele>613.94</ele>
        <time>2018-11-12T07:22:28Z</time>
      </trkpt>
      <trkpt lat="36.9079678506" lon="-2.9695124924">
        <ele>615.38</ele>
        <time>2018-11-12T07:22:47Z</time>
      </trkpt>
      <trkpt lat="36.9079793338" lon="-2.9695187788">
        <ele>615.38</ele>
        <time>2018-11-12T07:23:04Z</time>
      </trkpt>
      <trkpt lat="36.9079833571" lon="-2.9695057869">
        <ele>615.38</ele>
        <time>2018-11-12T07:23:27Z</time>
      </trkpt>
      <trkpt lat="36.9079727959" lon="-2.9695086367">
        <ele>615.38</ele>
        <time>2018-11-12T07:23:48Z</time>
      </trkpt>
      <trkpt lat="36.9079717062" lon="-2.9695129115">
        <ele>615.38</ele>
        <time>2018-11-12T07:24:06Z</time>
      </trkpt>
      <trkpt lat="36.9079608936" lon="-2.9695191141">
        <ele>615.38</ele>
        <time>2018-11-12T07:24:27Z</time>
      </trkpt>
      <trkpt lat="36.9079601392" lon="-2.9695200361">
        <ele>614.90</ele>
        <time>2018-11-12T07:24:45Z</time>
      </trkpt>
      <trkpt lat="36.9079669286" lon="-2.9695241433">
        <ele>614.90</ele>
        <time>2018-11-12T07:25:03Z</time>
      </trkpt>
      <trkpt lat="36.9079927448" lon="-2.9694980755">
        <ele>615.38</ele>
        <time>2018-11-12T07:25:21Z</time>
      </trkpt>
      <trkpt lat="36.9079774898" lon="-2.9695000872">
        <ele>615.86</ele>
        <time>2018-11-12T07:25:43Z</time>
      </trkpt>
      <trkpt lat="36.9079621509" lon="-2.9695169348">
        <ele>615.86</ele>
        <time>2018-11-12T07:26:03Z</time>
      </trkpt>
      <trkpt lat="36.9079605583" lon="-2.9695270769">
        <ele>616.34</ele>
        <time>2018-11-12T07:26:20Z</time>
      </trkpt>
      <trkpt lat="36.9079649169" lon="-2.9695329443">
        <ele>616.82</ele>
        <time>2018-11-12T07:26:37Z</time>
      </trkpt>
      <trkpt lat="36.9079702813" lon="-2.9695160128">
        <ele>616.34</ele>
        <time>2018-11-12T07:26:55Z</time>
      </trkpt>
      <trkpt lat="36.9079541881" lon="-2.9695202038">
        <ele>616.34</ele>
        <time>2018-11-12T07:27:02Z</time>
      </trkpt>
      <trkpt lat="36.9079583790" lon="-2.9695181921">
        <ele>614.90</ele>
        <time>2018-11-12T07:27:15Z</time>
      </trkpt>
      <trkpt lat="36.9079621509" lon="-2.9695104808">
        <ele>614.42</ele>
        <time>2018-11-12T07:27:21Z</time>
      </trkpt>
      <trkpt lat="36.9079685211" lon="-2.9694994166">
        <ele>614.42</ele>
        <time>2018-11-12T07:27:22Z</time>
      </trkpt>
      <trkpt lat="36.9079867098" lon="-2.9694627039">
        <ele>614.42</ele>
        <time>2018-11-12T07:27:25Z</time>
      </trkpt>
      <trkpt lat="36.9079805072" lon="-2.9694476165">
        <ele>613.94</ele>
        <time>2018-11-12T07:27:26Z</time>
      </trkpt>
      <trkpt lat="36.9079692755" lon="-2.9694378097">
        <ele>613.94</ele>
        <time>2018-11-12T07:27:27Z</time>
      </trkpt>
      <trkpt lat="36.9079540204" lon="-2.9694238957">
        <ele>613.94</ele>
        <time>2018-11-12T07:27:28Z</time>
      </trkpt>
      <trkpt lat="36.9079337362" lon="-2.9694024380">
        <ele>613.46</ele>
        <time>2018-11-12T07:27:29Z</time>
      </trkpt>
      <trkpt lat="36.9077273738" lon="-2.9692282621">
        <ele>612.02</ele>
        <time>2018-11-12T07:27:37Z</time>
      </trkpt>
      <trkpt lat="36.9074525312" lon="-2.9689999390">
        <ele>610.57</ele>
        <time>2018-11-12T07:27:44Z</time>
      </trkpt>
      <trkpt lat="36.9070620183" lon="-2.9687186424">
        <ele>609.13</ele>
        <time>2018-11-12T07:27:51Z</time>
      </trkpt>
      <trkpt lat="36.9065163564" lon="-2.9683029838">
        <ele>605.77</ele>
        <time>2018-11-12T07:27:59Z</time>
      </trkpt>
      <trkpt lat="36.9057375938" lon="-2.9677238781">
        <ele>600.96</ele>
        <time>2018-11-12T07:28:09Z</time>
      </trkpt>
      <trkpt lat="36.9049152452" lon="-2.9672504682">
        <ele>597.12</ele>
        <time>2018-11-12T07:28:18Z</time>
      </trkpt>
      <trkpt lat="36.9036189839" lon="-2.9665603861">
        <ele>589.43</ele>
        <time>2018-11-12T07:28:31Z</time>
      </trkpt>
      <trkpt lat="36.9025611039" lon="-2.9661003873">
        <ele>583.66</ele>
        <time>2018-11-12T07:28:41Z</time>
      </trkpt>
      <trkpt lat="36.9010466617" lon="-2.9655329324">
        <ele>575.97</ele>
        <time>2018-11-12T07:28:55Z</time>
      </trkpt>
      <trkpt lat="36.8998495582" lon="-2.9650805611">
        <ele>569.72</ele>
        <time>2018-11-12T07:29:06Z</time>
      </trkpt>
      <trkpt lat="36.8983583339" lon="-2.9645198956">
        <ele>562.03</ele>
        <time>2018-11-12T07:29:20Z</time>
      </trkpt>
      <trkpt lat="36.8973141164" lon="-2.9641229287">
        <ele>559.14</ele>
        <time>2018-11-12T07:29:30Z</time>
      </trkpt>
      <trkpt lat="36.8966396246" lon="-2.9638728965">
        <ele>559.14</ele>
        <time>2018-11-12T07:29:38Z</time>
      </trkpt>
      <trkpt lat="36.8960138317" lon="-2.9637214355">
        <ele>558.18</ele>
        <time>2018-11-12T07:29:46Z</time>
      </trkpt>
      <trkpt lat="36.8954542559" lon="-2.9637611657">
        <ele>556.26</ele>
        <time>2018-11-12T07:29:53Z</time>
      </trkpt>
      <trkpt lat="36.8944553006" lon="-2.9639586434">
        <ele>551.45</ele>
        <time>2018-11-12T07:30:04Z</time>
      </trkpt>
      <trkpt lat="36.8933529127" lon="-2.9641715437">
        <ele>545.20</ele>
        <time>2018-11-12T07:30:15Z</time>
      </trkpt>
      <trkpt lat="36.8923929334" lon="-2.9644267727">
        <ele>539.92</ele>
        <time>2018-11-12T07:30:24Z</time>
      </trkpt>
      <trkpt lat="36.8919428252" lon="-2.9647752084">
        <ele>537.51</ele>
        <time>2018-11-12T07:30:29Z</time>
      </trkpt>
      <trkpt lat="36.8916136678" lon="-2.9653050285">
        <ele>535.59</ele>
        <time>2018-11-12T07:30:34Z</time>
      </trkpt>
      <trkpt lat="36.8913809024" lon="-2.9659832083">
        <ele>534.15</ele>
        <time>2018-11-12T07:30:40Z</time>
      </trkpt>
      <trkpt lat="36.8911089096" lon="-2.9665306304">
        <ele>534.15</ele>
        <time>2018-11-12T07:30:46Z</time>
      </trkpt>
      <trkpt lat="36.8907450512" lon="-2.9669239093">
        <ele>533.19</ele>
        <time>2018-11-12T07:30:52Z</time>
      </trkpt>
      <trkpt lat="36.8901444878" lon="-2.9673231393">
        <ele>531.75</ele>
        <time>2018-11-12T07:31:01Z</time>
      </trkpt>
      <trkpt lat="36.8894339539" lon="-2.9677747563">
        <ele>529.82</ele>
        <time>2018-11-12T07:31:12Z</time>
      </trkpt>
      <trkpt lat="36.8886950053" lon="-2.9682431370">
        <ele>527.42</ele>
        <time>2018-11-12T07:31:23Z</time>
      </trkpt>
      <trkpt lat="36.8878519535" lon="-2.9687724542">
        <ele>523.58</ele>
        <time>2018-11-12T07:31:34Z</time>
      </trkpt>
      <trkpt lat="36.8869455345" lon="-2.9693154339">
        <ele>519.25</ele>
        <time>2018-11-12T07:31:45Z</time>
      </trkpt>
      <trkpt lat="36.8859450705" lon="-2.9698181804">
        <ele>515.40</ele>
        <time>2018-11-12T07:31:56Z</time>
      </trkpt>
      <trkpt lat="36.8847131822" lon="-2.9704262875">
        <ele>509.64</ele>
        <time>2018-11-12T07:32:09Z</time>
      </trkpt>
      <trkpt lat="36.8837580644" lon="-2.9708946683">
        <ele>505.79</ele>
        <time>2018-11-12T07:32:19Z</time>
      </trkpt>
      <trkpt lat="36.8826742843" lon="-2.9713219777">
        <ele>501.46</ele>
        <time>2018-11-12T07:32:30Z</time>
      </trkpt>
      <trkpt lat="36.8816350121" lon="-2.9714726005">
        <ele>496.66</ele>
        <time>2018-11-12T07:32:40Z</time>
      </trkpt>
      <trkpt lat="36.8803431932" lon="-2.9716161825">
        <ele>490.41</ele>
        <time>2018-11-12T07:32:52Z</time>
      </trkpt>
      <trkpt lat="36.8795120437" lon="-2.9715754464">
        <ele>484.16</ele>
        <time>2018-11-12T07:32:59Z</time>
      </trkpt>
      <trkpt lat="36.8787787948" lon="-2.9713351373">
        <ele>478.39</ele>
        <time>2018-11-12T07:33:05Z</time>
      </trkpt>
      <trkpt lat="36.8779153749" lon="-2.9708230030">
        <ele>471.18</ele>
        <time>2018-11-12T07:33:12Z</time>
      </trkpt>
      <trkpt lat="36.8772436492" lon="-2.9702141415">
        <ele>465.42</ele>
        <time>2018-11-12T07:33:18Z</time>
      </trkpt>
      <trkpt lat="36.8760160357" lon="-2.9689100012">
        <ele>453.40</ele>
        <time>2018-11-12T07:33:29Z</time>
      </trkpt>
      <trkpt lat="36.8745057844" lon="-2.9673087224">
        <ele>438.98</ele>
        <time>2018-11-12T07:33:42Z</time>
      </trkpt>
      <trkpt lat="36.8732736446" lon="-2.9660013970">
        <ele>426.96</ele>
        <time>2018-11-12T07:33:53Z</time>
      </trkpt>
      <trkpt lat="36.8730190862" lon="-2.9656180087">
        <ele>424.56</ele>
        <time>2018-11-12T07:33:56Z</time>
      </trkpt>
      <trkpt lat="36.8729531206" lon="-2.9654749297">
        <ele>423.12</ele>
        <time>2018-11-12T07:33:57Z</time>
      </trkpt>
      <trkpt lat="36.8729102053" lon="-2.9653647915">
        <ele>422.16</ele>
        <time>2018-11-12T07:33:58Z</time>
      </trkpt>
      <trkpt lat="36.8726378772" lon="-2.9645497352">
        <ele>416.39</ele>
        <time>2018-11-12T07:34:04Z</time>
      </trkpt>
      <trkpt lat="36.8723550718" lon="-2.9640256148">
        <ele>412.06</ele>
        <time>2018-11-12T07:34:08Z</time>
      </trkpt>
      <trkpt lat="36.8717045523" lon="-2.9631922022">
        <ele>405.81</ele>
        <time>2018-11-12T07:34:15Z</time>
      </trkpt>
      <trkpt lat="36.8707414716" lon="-2.9619724676">
        <ele>396.20</ele>
        <time>2018-11-12T07:34:25Z</time>
      </trkpt>
      <trkpt lat="36.8701087218" lon="-2.9613048490">
        <ele>389.95</ele>
        <time>2018-11-12T07:34:31Z</time>
      </trkpt>
      <trkpt lat="36.8688086048" lon="-2.9599456396">
        <ele>376.97</ele>
        <time>2018-11-12T07:34:43Z</time>
      </trkpt>
      <trkpt lat="36.8676919676" lon="-2.9588140827">
        <ele>365.44</ele>
        <time>2018-11-12T07:34:53Z</time>
      </trkpt>
      <trkpt lat="36.8672823440" lon="-2.9585337080">
        <ele>361.59</ele>
        <time>2018-11-12T07:34:56Z</time>
      </trkpt>
      <trkpt lat="36.8669602275" lon="-2.9584175348">
        <ele>359.19</ele>
        <time>2018-11-12T07:34:58Z</time>
      </trkpt>
      <trkpt lat="36.8667485844" lon="-2.9583830014">
        <ele>357.75</ele>
        <time>2018-11-12T07:35:00Z</time>
      </trkpt>
      <trkpt lat="36.8666534498" lon="-2.9583788104">
        <ele>357.27</ele>
        <time>2018-11-12T07:35:01Z</time>
      </trkpt>
      <trkpt lat="36.8664028309" lon="-2.9584006872">
        <ele>355.83</ele>
        <time>2018-11-12T07:35:05Z</time>
      </trkpt>
      <trkpt lat="36.8663364463" lon="-2.9584188759">
        <ele>355.34</ele>
        <time>2018-11-12T07:35:09Z</time>
      </trkpt>
      <trkpt lat="36.8663223647" lon="-2.9584157746">
        <ele>356.31</ele>
        <time>2018-11-12T07:35:22Z</time>
      </trkpt>
      <trkpt lat="36.8661753461" lon="-2.9584290180">
        <ele>355.83</ele>
        <time>2018-11-12T07:35:29Z</time>
      </trkpt>
      <trkpt lat="36.8658958096" lon="-2.9584669881">
        <ele>353.90</ele>
        <time>2018-11-12T07:35:36Z</time>
      </trkpt>
      <trkpt lat="36.8653457891" lon="-2.9585523997">
        <ele>351.50</ele>
        <time>2018-11-12T07:35:46Z</time>
      </trkpt>
      <trkpt lat="36.8647992052" lon="-2.9585622903">
        <ele>350.06</ele>
        <time>2018-11-12T07:35:55Z</time>
      </trkpt>
      <trkpt lat="36.8641863205" lon="-2.9584663175">
        <ele>347.65</ele>
        <time>2018-11-12T07:36:05Z</time>
      </trkpt>
      <trkpt lat="36.8636098132" lon="-2.9583685845">
        <ele>345.73</ele>
        <time>2018-11-12T07:36:14Z</time>
      </trkpt>
      <trkpt lat="36.8629303761" lon="-2.9582733661">
        <ele>343.33</ele>
        <time>2018-11-12T07:36:23Z</time>
      </trkpt>
      <trkpt lat="36.8623989634" lon="-2.9583073966">
        <ele>342.37</ele>
        <time>2018-11-12T07:36:30Z</time>
      </trkpt>
      <trkpt lat="36.8619219493" lon="-2.9584847577">
        <ele>341.41</ele>
        <time>2018-11-12T07:36:38Z</time>
      </trkpt>
      <trkpt lat="36.8618615158" lon="-2.9585447721">
        <ele>341.41</ele>
        <time>2018-11-12T07:36:42Z</time>
      </trkpt>
      <trkpt lat="36.8618664611" lon="-2.9585441854">
        <ele>340.44</ele>
        <time>2018-11-12T07:36:58Z</time>
      </trkpt>
      <trkpt lat="36.8618648686" lon="-2.9585479572">
        <ele>339.96</ele>
        <time>2018-11-12T07:37:16Z</time>
      </trkpt>
      <trkpt lat="36.8618657906" lon="-2.9585427605">
        <ele>340.44</ele>
        <time>2018-11-12T07:37:32Z</time>
      </trkpt>
      <trkpt lat="36.8618719932" lon="-2.9585493822">
        <ele>341.41</ele>
        <time>2018-11-12T07:37:48Z</time>
      </trkpt>
      <trkpt lat="36.8618807942" lon="-2.9585425928">
        <ele>341.89</ele>
        <time>2018-11-12T07:38:02Z</time>
      </trkpt>
      <trkpt lat="36.8618786149" lon="-2.9585451074">
        <ele>342.37</ele>
        <time>2018-11-12T07:38:27Z</time>
      </trkpt>
      <trkpt lat="36.8618772738" lon="-2.9585522320">
        <ele>343.81</ele>
        <time>2018-11-12T07:38:46Z</time>
      </trkpt>
      <trkpt lat="36.8618816324" lon="-2.9585463647">
        <ele>342.85</ele>
        <time>2018-11-12T07:39:06Z</time>
      </trkpt>
      <trkpt lat="36.8618740048" lon="-2.9585442692">
        <ele>341.89</ele>
        <time>2018-11-12T07:39:25Z</time>
      </trkpt>
      <trkpt lat="36.8618682213" lon="-2.9585458618">
        <ele>341.89</ele>
        <time>2018-11-12T07:39:40Z</time>
      </trkpt>
      <trkpt lat="36.8618692271" lon="-2.9585482087">
        <ele>340.92</ele>
        <time>2018-11-12T07:40:00Z</time>
      </trkpt>
      <trkpt lat="36.8618712388" lon="-2.9585385695">
        <ele>340.92</ele>
        <time>2018-11-12T07:40:15Z</time>
      </trkpt>
      <trkpt lat="36.8618703168" lon="-2.9585390724">
        <ele>341.41</ele>
        <time>2018-11-12T07:40:27Z</time>
      </trkpt>
      <trkpt lat="36.8618714064" lon="-2.9585396592">
        <ele>341.41</ele>
        <time>2018-11-12T07:40:41Z</time>
      </trkpt>
      <trkpt lat="36.8618703168" lon="-2.9585501365">
        <ele>340.44</ele>
        <time>2018-11-12T07:41:00Z</time>
      </trkpt>
      <trkpt lat="36.8618721608" lon="-2.9585397430">
        <ele>340.92</ele>
        <time>2018-11-12T07:41:18Z</time>
      </trkpt>
      <trkpt lat="36.8618635274" lon="-2.9585450236">
        <ele>341.41</ele>
        <time>2018-11-12T07:41:22Z</time>
      </trkpt>
      <trkpt lat="36.8618507031" lon="-2.9585513938">
        <ele>341.41</ele>
        <time>2018-11-12T07:41:23Z</time>
      </trkpt>
      <trkpt lat="36.8618378788" lon="-2.9585592728">
        <ele>341.41</ele>
        <time>2018-11-12T07:41:24Z</time>
      </trkpt>
      <trkpt lat="36.8618226238" lon="-2.9585687444">
        <ele>341.41</ele>
        <time>2018-11-12T07:41:25Z</time>
      </trkpt>
      <trkpt lat="36.8617986515" lon="-2.9585800599">
        <ele>341.41</ele>
        <time>2018-11-12T07:41:26Z</time>
      </trkpt>
      <trkpt lat="36.8617759366" lon="-2.9585865140">
        <ele>341.41</ele>
        <time>2018-11-12T07:41:27Z</time>
      </trkpt>
      <trkpt lat="36.8617506232" lon="-2.9585922975">
        <ele>341.41</ele>
        <time>2018-11-12T07:41:28Z</time>
      </trkpt>
      <trkpt lat="36.8615193665" lon="-2.9587409087">
        <ele>341.41</ele>
        <time>2018-11-12T07:41:36Z</time>
      </trkpt>
      <trkpt lat="36.8612340465" lon="-2.9590099677">
        <ele>341.41</ele>
        <time>2018-11-12T07:41:44Z</time>
      </trkpt>
      <trkpt lat="36.8608787376" lon="-2.9594625067">
        <ele>341.89</ele>
        <time>2018-11-12T07:41:54Z</time>
      </trkpt>
      <trkpt lat="36.8604545295" lon="-2.9600089230">
        <ele>341.41</ele>
        <time>2018-11-12T07:42:05Z</time>
      </trkpt>
      <trkpt lat="36.8600532878" lon="-2.9603149462">
        <ele>340.92</ele>
        <time>2018-11-12T07:42:13Z</time>
      </trkpt>
      <trkpt lat="36.8595702387" lon="-2.9604949057">
        <ele>338.04</ele>
        <time>2018-11-12T07:42:21Z</time>
      </trkpt>
      <trkpt lat="36.8591046240" lon="-2.9605077300">
        <ele>336.60</ele>
        <time>2018-11-12T07:42:28Z</time>
      </trkpt>
      <trkpt lat="36.8586366624" lon="-2.9603643995">
        <ele>336.12</ele>
        <time>2018-11-12T07:42:35Z</time>
      </trkpt>
      <trkpt lat="36.8582008034" lon="-2.9600716196">
        <ele>335.16</ele>
        <time>2018-11-12T07:42:42Z</time>
      </trkpt>
      <trkpt lat="36.8578218576" lon="-2.9596262053">
        <ele>335.64</ele>
        <time>2018-11-12T07:42:50Z</time>
      </trkpt>
      <trkpt lat="36.8574502040" lon="-2.9589873366">
        <ele>336.12</ele>
        <time>2018-11-12T07:43:00Z</time>
      </trkpt>
      <trkpt lat="36.8572016805" lon="-2.9585387371">
        <ele>336.60</ele>
        <time>2018-11-12T07:43:08Z</time>
      </trkpt>
      <trkpt lat="36.8568265904" lon="-2.9578702804">
        <ele>337.56</ele>
        <time>2018-11-12T07:43:20Z</time>
      </trkpt>
      <trkpt lat="36.8564249296" lon="-2.9571672063">
        <ele>338.04</ele>
        <time>2018-11-12T07:43:33Z</time>
      </trkpt>
      <trkpt lat="36.8561417051" lon="-2.9566619452">
        <ele>339.00</ele>
        <time>2018-11-12T07:43:43Z</time>
      </trkpt>
      <trkpt lat="36.8558581453" lon="-2.9561519064">
        <ele>339.96</ele>
        <time>2018-11-12T07:43:53Z</time>
      </trkpt>
      <trkpt lat="36.8555747531" lon="-2.9556415323">
        <ele>339.96</ele>
        <time>2018-11-12T07:44:03Z</time>
      </trkpt>
      <trkpt lat="36.8552814703" lon="-2.9551410489">
        <ele>340.44</ele>
        <time>2018-11-12T07:44:13Z</time>
      </trkpt>
      <trkpt lat="36.8549939711" lon="-2.9546901863">
        <ele>341.41</ele>
        <time>2018-11-12T07:44:23Z</time>
      </trkpt>
      <trkpt lat="36.8547720183" lon="-2.9544631205">
        <ele>342.85</ele>
        <time>2018-11-12T07:44:31Z</time>
      </trkpt>
      <trkpt lat="36.8544860277" lon="-2.9542814009">
        <ele>345.25</ele>
        <time>2018-11-12T07:44:40Z</time>
      </trkpt>
      <trkpt lat="36.8541873805" lon="-2.9541279282">
        <ele>347.17</ele>
        <time>2018-11-12T07:44:50Z</time>
      </trkpt>
      <trkpt lat="36.8539544474" lon="-2.9540059716">
        <ele>349.10</ele>
        <time>2018-11-12T07:44:59Z</time>
      </trkpt>
      <trkpt lat="36.8536669482" lon="-2.9538835119">
        <ele>351.98</ele>
        <time>2018-11-12T07:45:10Z</time>
      </trkpt>
      <trkpt lat="36.8534390442" lon="-2.9537985194">
        <ele>353.42</ele>
        <time>2018-11-12T07:45:19Z</time>
      </trkpt>
      <trkpt lat="36.8532537203" lon="-2.9537465516">
        <ele>354.38</ele>
        <time>2018-11-12T07:45:26Z</time>
      </trkpt>
      <trkpt lat="36.8529899418" lon="-2.9536771495">
        <ele>356.31</ele>
        <time>2018-11-12T07:45:36Z</time>
      </trkpt>
      <trkpt lat="36.8527311087" lon="-2.9536004551">
        <ele>356.79</ele>
        <time>2018-11-12T07:45:46Z</time>
      </trkpt>
      <trkpt lat="36.8524775561" lon="-2.9535038956">
        <ele>357.75</ele>
        <time>2018-11-12T07:45:55Z</time>
      </trkpt>
      <trkpt lat="36.8521423638" lon="-2.9533674382">
        <ele>359.19</ele>
        <time>2018-11-12T07:46:06Z</time>
      </trkpt>
      <trkpt lat="36.8519266974" lon="-2.9532811046">
        <ele>358.71</ele>
        <time>2018-11-12T07:46:14Z</time>
      </trkpt>
      <trkpt lat="36.8517218437" lon="-2.9531938490">
        <ele>358.23</ele>
        <time>2018-11-12T07:46:23Z</time>
      </trkpt>
      <trkpt lat="36.8514993042" lon="-2.9531503469">
        <ele>357.27</ele>
        <time>2018-11-12T07:46:30Z</time>
      </trkpt>
      <trkpt lat="36.8512779381" lon="-2.9531281348">
        <ele>355.83</ele>
        <time>2018-11-12T07:46:36Z</time>
      </trkpt>
      <trkpt lat="36.8510970566" lon="-2.9529075231">
        <ele>354.38</ele>
        <time>2018-11-12T07:46:42Z</time>
      </trkpt>
      <trkpt lat="36.8510569911" lon="-2.9528859816">
        <ele>353.90</ele>
        <time>2018-11-12T07:46:43Z</time>
      </trkpt>
      <trkpt lat="36.8510026764" lon="-2.9528645240">
        <ele>353.90</ele>
        <time>2018-11-12T07:46:44Z</time>
      </trkpt>
      <trkpt lat="36.8506400753" lon="-2.9527525418">
        <ele>351.02</ele>
        <time>2018-11-12T07:46:50Z</time>
      </trkpt>
      <trkpt lat="36.8505090661" lon="-2.9527812079">
        <ele>349.58</ele>
        <time>2018-11-12T07:46:54Z</time>
      </trkpt>
      <trkpt lat="36.8504285160" lon="-2.9528231174">
        <ele>349.10</ele>
        <time>2018-11-12T07:46:56Z</time>
      </trkpt>
      <trkpt lat="36.8504004367" lon="-2.9528245423">
        <ele>349.10</ele>
        <time>2018-11-12T07:46:57Z</time>
      </trkpt>
      <trkpt lat="36.8503640592" lon="-2.9528197646">
        <ele>348.62</ele>
        <time>2018-11-12T07:46:58Z</time>
      </trkpt>
      <trkpt lat="36.8503314536" lon="-2.9528053477">
        <ele>348.13</ele>
        <time>2018-11-12T07:46:59Z</time>
      </trkpt>
      <trkpt lat="36.8503025360" lon="-2.9527815431">
        <ele>348.13</ele>
        <time>2018-11-12T07:47:00Z</time>
      </trkpt>
      <trkpt lat="36.8502730317" lon="-2.9527482670">
        <ele>348.13</ele>
        <time>2018-11-12T07:47:01Z</time>
      </trkpt>
      <trkpt lat="36.8502433598" lon="-2.9527112190">
        <ele>347.65</ele>
        <time>2018-11-12T07:47:02Z</time>
      </trkpt>
      <trkpt lat="36.8502032943" lon="-2.9526684713">
        <ele>347.65</ele>
        <time>2018-11-12T07:47:03Z</time>
      </trkpt>
      <trkpt lat="36.8501581997" lon="-2.9526291601">
        <ele>347.17</ele>
        <time>2018-11-12T07:47:04Z</time>
      </trkpt>
      <trkpt lat="36.8501180504" lon="-2.9525984824">
        <ele>346.69</ele>
        <time>2018-11-12T07:47:05Z</time>
      </trkpt>
      <trkpt lat="36.8500650767" lon="-2.9525637813">
        <ele>346.69</ele>
        <time>2018-11-12T07:47:06Z</time>
      </trkpt>
      <trkpt lat="36.8500101753" lon="-2.9525319301">
        <ele>346.21</ele>
        <time>2018-11-12T07:47:07Z</time>
      </trkpt>
      <trkpt lat="36.8497174792" lon="-2.9523438402">
        <ele>343.81</ele>
        <time>2018-11-12T07:47:12Z</time>
      </trkpt>
      <trkpt lat="36.8493018206" lon="-2.9520331230">
        <ele>341.41</ele>
        <time>2018-11-12T07:47:19Z</time>
      </trkpt>
      <trkpt lat="36.8490233738" lon="-2.9517821688">
        <ele>341.41</ele>
        <time>2018-11-12T07:47:25Z</time>
      </trkpt>
      <trkpt lat="36.8486136664" lon="-2.9513543565">
        <ele>340.92</ele>
        <time>2018-11-12T07:47:34Z</time>
      </trkpt>
      <trkpt lat="36.8482019473" lon="-2.9509697948">
        <ele>339.00</ele>
        <time>2018-11-12T07:47:43Z</time>
      </trkpt>
      <trkpt lat="36.8480378296" lon="-2.9508421384">
        <ele>339.00</ele>
        <time>2018-11-12T07:47:48Z</time>
      </trkpt>
      <trkpt lat="36.8480130192" lon="-2.9508299846">
        <ele>340.44</ele>
        <time>2018-11-12T07:48:02Z</time>
      </trkpt>
      <trkpt lat="36.8479754683" lon="-2.9508052580">
        <ele>342.37</ele>
        <time>2018-11-12T07:48:09Z</time>
      </trkpt>
      <trkpt lat="36.8479845207" lon="-2.9507963732">
        <ele>344.29</ele>
        <time>2018-11-12T07:48:22Z</time>
      </trkpt>
      <trkpt lat="36.8479834311" lon="-2.9507997259">
        <ele>345.73</ele>
        <time>2018-11-12T07:48:37Z</time>
      </trkpt>
      <trkpt lat="36.8479764741" lon="-2.9507738259">
        <ele>346.21</ele>
        <time>2018-11-12T07:48:43Z</time>
      </trkpt>
      <trkpt lat="36.8479679246" lon="-2.9507584870">
        <ele>346.21</ele>
        <time>2018-11-12T07:48:44Z</time>
      </trkpt>
      <trkpt lat="36.8479540106" lon="-2.9507465009">
        <ele>346.69</ele>
        <time>2018-11-12T07:48:45Z</time>
      </trkpt>
      <trkpt lat="36.8479410186" lon="-2.9507332575">
        <ele>346.69</ele>
        <time>2018-11-12T07:48:46Z</time>
      </trkpt>
      <trkpt lat="36.8479266018" lon="-2.9507203493">
        <ele>346.69</ele>
        <time>2018-11-12T07:48:47Z</time>
      </trkpt>
      <trkpt lat="36.8477691058" lon="-2.9505984765">
        <ele>346.69</ele>
        <time>2018-11-12T07:48:55Z</time>
      </trkpt>
      <trkpt lat="36.8475246057" lon="-2.9503834806">
        <ele>346.21</ele>
        <time>2018-11-12T07:49:03Z</time>
      </trkpt>
      <trkpt lat="36.8472086918" lon="-2.9501572531">
        <ele>346.69</ele>
        <time>2018-11-12T07:49:12Z</time>
      </trkpt>
      <trkpt lat="36.8468784448" lon="-2.9499387369">
        <ele>345.73</ele>
        <time>2018-11-12T07:49:21Z</time>
      </trkpt>
      <trkpt lat="36.8467825558" lon="-2.9499061313">
        <ele>345.25</ele>
        <time>2018-11-12T07:49:24Z</time>
      </trkpt>
      <trkpt lat="36.8467527162" lon="-2.9499187879">
        <ele>345.25</ele>
        <time>2018-11-12T07:49:25Z</time>
      </trkpt>
      <trkpt lat="36.8467226252" lon="-2.9499390721">
        <ele>344.77</ele>
        <time>2018-11-12T07:49:26Z</time>
      </trkpt>
      <trkpt lat="36.8465861678" lon="-2.9500096478">
        <ele>343.81</ele>
        <time>2018-11-12T07:49:32Z</time>
      </trkpt>
      <trkpt lat="36.8465669733" lon="-2.9500157665">
        <ele>342.85</ele>
        <time>2018-11-12T07:49:39Z</time>
      </trkpt>
      <trkpt lat="36.8465607706" lon="-2.9500047863">
        <ele>342.85</ele>
        <time>2018-11-12T07:49:43Z</time>
      </trkpt>
      <trkpt lat="36.8465353735" lon="-2.9499793053">
        <ele>343.33</ele>
        <time>2018-11-12T07:49:46Z</time>
      </trkpt>
      <trkpt lat="36.8465207051" lon="-2.9499703366">
        <ele>343.33</ele>
        <time>2018-11-12T07:49:47Z</time>
      </trkpt>
      <trkpt lat="36.8465083838" lon="-2.9499632120">
        <ele>343.81</ele>
        <time>2018-11-12T07:49:48Z</time>
      </trkpt>
      <trkpt lat="36.8464986607" lon="-2.9499539919">
        <ele>344.29</ele>
        <time>2018-11-12T07:49:49Z</time>
      </trkpt>
      <trkpt lat="36.8464866746" lon="-2.9499384854">
        <ele>344.77</ele>
        <time>2018-11-12T07:49:50Z</time>
      </trkpt>
      <trkpt lat="36.8464197870" lon="-2.9498961568">
        <ele>345.25</ele>
        <time>2018-11-12T07:49:56Z</time>
      </trkpt>
      <trkpt lat="36.8463346269" lon="-2.9498477094">
        <ele>345.25</ele>
        <time>2018-11-12T07:50:04Z</time>
      </trkpt>
      <trkpt lat="36.8462823238" lon="-2.9498117510">
        <ele>344.77</ele>
        <time>2018-11-12T07:50:11Z</time>
      </trkpt>
      <trkpt lat="36.8462729361" lon="-2.9498140141">
        <ele>345.25</ele>
        <time>2018-11-12T07:50:21Z</time>
      </trkpt>
      <trkpt lat="36.8462643865" lon="-2.9498124216">
        <ele>343.33</ele>
        <time>2018-11-12T07:50:34Z</time>
      </trkpt>
      <trkpt lat="36.8462658115" lon="-2.9497999325">
        <ele>342.37</ele>
        <time>2018-11-12T07:50:51Z</time>
      </trkpt>
      <trkpt lat="36.8462661467" lon="-2.9498089012">
        <ele>341.89</ele>
        <time>2018-11-12T07:51:08Z</time>
      </trkpt>
      <trkpt lat="36.8462610338" lon="-2.9498035368">
        <ele>344.77</ele>
        <time>2018-11-12T07:51:22Z</time>
      </trkpt>
      <trkpt lat="36.8462762050" lon="-2.9498150200">
        <ele>345.73</ele>
        <time>2018-11-12T07:51:37Z</time>
      </trkpt>
      <trkpt lat="36.8462764565" lon="-2.9498052131">
        <ele>344.77</ele>
        <time>2018-11-12T07:51:52Z</time>
      </trkpt>
      <trkpt lat="36.8462728523" lon="-2.9498038720">
        <ele>344.77</ele>
        <time>2018-11-12T07:52:04Z</time>
      </trkpt>
      <trkpt lat="36.8462700024" lon="-2.9498060513">
        <ele>344.29</ele>
        <time>2018-11-12T07:52:18Z</time>
      </trkpt>
      <trkpt lat="36.8462750316" lon="-2.9497933947">
        <ele>344.77</ele>
        <time>2018-11-12T07:52:32Z</time>
      </trkpt>
      <trkpt lat="36.8462916277" lon="-2.9498004355">
        <ele>345.25</ele>
        <time>2018-11-12T07:52:43Z</time>
      </trkpt>
      <trkpt lat="36.8462922145" lon="-2.9497970827">
        <ele>348.62</ele>
        <time>2018-11-12T07:52:58Z</time>
      </trkpt>
      <trkpt lat="36.8462999258" lon="-2.9498186242">
        <ele>349.58</ele>
        <time>2018-11-12T07:53:14Z</time>
      </trkpt>
      <trkpt lat="36.8462195434" lon="-2.9497879464">
        <ele>349.10</ele>
        <time>2018-11-12T07:53:22Z</time>
      </trkpt>
      <trkpt lat="36.8460573535" lon="-2.9497232381">
        <ele>347.17</ele>
        <time>2018-11-12T07:53:28Z</time>
      </trkpt>
      <trkpt lat="36.8459825031" lon="-2.9496674985">
        <ele>346.21</ele>
        <time>2018-11-12T07:53:31Z</time>
      </trkpt>
      <trkpt lat="36.8458582833" lon="-2.9496132676">
        <ele>345.73</ele>
        <time>2018-11-12T07:53:35Z</time>
      </trkpt>
      <trkpt lat="36.8457090016" lon="-2.9495015368">
        <ele>345.25</ele>
        <time>2018-11-12T07:53:39Z</time>
      </trkpt>
      <trkpt lat="36.8453446403" lon="-2.9491040669">
        <ele>344.29</ele>
        <time>2018-11-12T07:53:48Z</time>
      </trkpt>
      <trkpt lat="36.8453013897" lon="-2.9490575474">
        <ele>343.81</ele>
        <time>2018-11-12T07:53:49Z</time>
      </trkpt>
      <trkpt lat="36.8450235296" lon="-2.9487316590">
        <ele>341.41</ele>
        <time>2018-11-12T07:53:56Z</time>
      </trkpt>
      <trkpt lat="36.8445532210" lon="-2.9483087920">
        <ele>339.48</ele>
        <time>2018-11-12T07:54:08Z</time>
      </trkpt>
      <trkpt lat="36.8443818111" lon="-2.9481709097">
        <ele>339.48</ele>
        <time>2018-11-12T07:54:12Z</time>
      </trkpt>
      <trkpt lat="36.8440431822" lon="-2.9480152577">
        <ele>338.52</ele>
        <time>2018-11-12T07:54:18Z</time>
      </trkpt>
      <trkpt lat="36.8435728736" lon="-2.9478842486">
        <ele>336.60</ele>
        <time>2018-11-12T07:54:25Z</time>
      </trkpt>
      <trkpt lat="36.8432048243" lon="-2.9478078056">
        <ele>337.08</ele>
        <time>2018-11-12T07:54:32Z</time>
      </trkpt>
      <trkpt lat="36.8429176603" lon="-2.9477850907">
        <ele>338.04</ele>
        <time>2018-11-12T07:54:38Z</time>
      </trkpt>
      <trkpt lat="36.8428566400" lon="-2.9477862641">
        <ele>338.04</ele>
        <time>2018-11-12T07:54:39Z</time>
      </trkpt>
      <trkpt lat="36.8424657080" lon="-2.9478127509">
        <ele>336.60</ele>
        <time>2018-11-12T07:54:45Z</time>
      </trkpt>
      <trkpt lat="36.8419748638" lon="-2.9478327837">
        <ele>336.12</ele>
        <time>2018-11-12T07:54:52Z</time>
      </trkpt>
      <trkpt lat="36.8418998457" lon="-2.9478287604">
        <ele>336.60</ele>
        <time>2018-11-12T07:54:53Z</time>
      </trkpt>
      <trkpt lat="36.8416728638" lon="-2.9477415886">
        <ele>336.12</ele>
        <time>2018-11-12T07:54:58Z</time>
      </trkpt>
      <trkpt lat="36.8416353129" lon="-2.9477183707">
        <ele>336.12</ele>
        <time>2018-11-12T07:54:59Z</time>
      </trkpt>
      <trkpt lat="36.8414768111" lon="-2.9474433605">
        <ele>333.71</ele>
        <time>2018-11-12T07:55:05Z</time>
      </trkpt>
      <trkpt lat="36.8414746318" lon="-2.9473872855">
        <ele>333.23</ele>
        <time>2018-11-12T07:55:06Z</time>
      </trkpt>
      <trkpt lat="36.8414785713" lon="-2.9472736269">
        <ele>332.27</ele>
        <time>2018-11-12T07:55:08Z</time>
      </trkpt>
      <trkpt lat="36.8414897192" lon="-2.9468020611">
        <ele>329.39</ele>
        <time>2018-11-12T07:55:17Z</time>
      </trkpt>
      <trkpt lat="36.8414996937" lon="-2.9464070220">
        <ele>327.95</ele>
        <time>2018-11-12T07:55:25Z</time>
      </trkpt>
      <trkpt lat="36.8414711952" lon="-2.9460956343">
        <ele>327.95</ele>
        <time>2018-11-12T07:55:32Z</time>
      </trkpt>
      <trkpt lat="36.8413204886" lon="-2.9460361227">
        <ele>326.99</ele>
        <time>2018-11-12T07:55:37Z</time>
      </trkpt>
      <trkpt lat="36.8412299640" lon="-2.9460782837">
        <ele>325.06</ele>
        <time>2018-11-12T07:55:42Z</time>
      </trkpt>
      <trkpt lat="36.8410572968" lon="-2.9461546429">
        <ele>323.14</ele>
        <time>2018-11-12T07:55:48Z</time>
      </trkpt>
      <trkpt lat="36.8407526985" lon="-2.9463034216">
        <ele>321.70</ele>
        <time>2018-11-12T07:55:55Z</time>
      </trkpt>
      <trkpt lat="36.8405366130" lon="-2.9464031663">
        <ele>319.78</ele>
        <time>2018-11-12T07:56:01Z</time>
      </trkpt>
      <trkpt lat="36.8404203560" lon="-2.9464701377">
        <ele>316.89</ele>
        <time>2018-11-12T07:56:09Z</time>
      </trkpt>
      <trkpt lat="36.8404175900" lon="-2.9464713112">
        <ele>314.49</ele>
        <time>2018-11-12T07:56:16Z</time>
      </trkpt>
      <trkpt lat="36.8403569050" lon="-2.9464902543">
        <ele>313.53</ele>
        <time>2018-11-12T07:56:24Z</time>
      </trkpt>
      <trkpt lat="36.8402077910" lon="-2.9465661943">
        <ele>313.05</ele>
        <time>2018-11-12T07:56:28Z</time>
      </trkpt>
      <trkpt lat="36.8401677255" lon="-2.9465887416">
        <ele>312.57</ele>
        <time>2018-11-12T07:56:29Z</time>
      </trkpt>
      <trkpt lat="36.8397932220" lon="-2.9467606544">
        <ele>310.16</ele>
        <time>2018-11-12T07:56:37Z</time>
      </trkpt>
      <trkpt lat="36.8394314591" lon="-2.9469334055">
        <ele>308.72</ele>
        <time>2018-11-12T07:56:43Z</time>
      </trkpt>
      <trkpt lat="36.8388886470" lon="-2.9471932445">
        <ele>304.88</ele>
        <time>2018-11-12T07:56:51Z</time>
      </trkpt>
      <trkpt lat="36.8383599166" lon="-2.9474524967">
        <ele>303.43</ele>
        <time>2018-11-12T07:56:59Z</time>
      </trkpt>
      <trkpt lat="36.8378368020" lon="-2.9476949852">
        <ele>302.95</ele>
        <time>2018-11-12T07:57:08Z</time>
      </trkpt>
      <trkpt lat="36.8375377357" lon="-2.9478316102">
        <ele>302.47</ele>
        <time>2018-11-12T07:57:14Z</time>
      </trkpt>
      <trkpt lat="36.8372599594" lon="-2.9479700793">
        <ele>300.55</ele>
        <time>2018-11-12T07:57:20Z</time>
      </trkpt>
      <trkpt lat="36.8369717896" lon="-2.9480953887">
        <ele>300.07</ele>
        <time>2018-11-12T07:57:26Z</time>
      </trkpt>
      <trkpt lat="36.8365585618" lon="-2.9482971411">
        <ele>299.59</ele>
        <time>2018-11-12T07:57:33Z</time>
      </trkpt>
      <trkpt lat="36.8360665441" lon="-2.9485356063">
        <ele>297.18</ele>
        <time>2018-11-12T07:57:41Z</time>
      </trkpt>
      <trkpt lat="36.8357935455" lon="-2.9486647714">
        <ele>296.22</ele>
        <time>2018-11-12T07:57:48Z</time>
      </trkpt>
      <trkpt lat="36.8355637975" lon="-2.9487712216">
        <ele>294.78</ele>
        <time>2018-11-12T07:57:54Z</time>
      </trkpt>
      <trkpt lat="36.8351535872" lon="-2.9489666037">
        <ele>293.34</ele>
        <time>2018-11-12T07:58:02Z</time>
      </trkpt>
      <trkpt lat="36.8346806802" lon="-2.9492022190">
        <ele>292.38</ele>
        <time>2018-11-12T07:58:10Z</time>
      </trkpt>
      <trkpt lat="36.8345614057" lon="-2.9492673464">
        <ele>292.38</ele>
        <time>2018-11-12T07:58:12Z</time>
      </trkpt>
      <trkpt lat="36.8340196833" lon="-2.9495177977">
        <ele>289.49</ele>
        <time>2018-11-12T07:58:20Z</time>
      </trkpt>
      <trkpt lat="36.8333638832" lon="-2.9498255812">
        <ele>286.13</ele>
        <time>2018-11-12T07:58:29Z</time>
      </trkpt>
      <trkpt lat="36.8326634914" lon="-2.9501504637">
        <ele>283.25</ele>
        <time>2018-11-12T07:58:38Z</time>
      </trkpt>
      <trkpt lat="36.8320147321" lon="-2.9504611809">
        <ele>279.40</ele>
        <time>2018-11-12T07:58:46Z</time>
      </trkpt>
      <trkpt lat="36.8314652145" lon="-2.9507278930">
        <ele>277.48</ele>
        <time>2018-11-12T07:58:53Z</time>
      </trkpt>
      <trkpt lat="36.8308902998" lon="-2.9509998020">
        <ele>274.59</ele>
        <time>2018-11-12T07:59:01Z</time>
      </trkpt>
      <trkpt lat="36.8302556220" lon="-2.9513094295">
        <ele>272.19</ele>
        <time>2018-11-12T07:59:09Z</time>
      </trkpt>
      <trkpt lat="36.8296297453" lon="-2.9516389221">
        <ele>270.75</ele>
        <time>2018-11-12T07:59:17Z</time>
      </trkpt>
      <trkpt lat="36.8291397393" lon="-2.9518955760">
        <ele>269.79</ele>
        <time>2018-11-12T07:59:24Z</time>
      </trkpt>
      <trkpt lat="36.8287615478" lon="-2.9520929698">
        <ele>269.31</ele>
        <time>2018-11-12T07:59:30Z</time>
      </trkpt>
      <trkpt lat="36.8282466475" lon="-2.9523605201">
        <ele>268.35</ele>
        <time>2018-11-12T07:59:39Z</time>
      </trkpt>
      <trkpt lat="36.8277160730" lon="-2.9526478518">
        <ele>266.42</ele>
        <time>2018-11-12T07:59:49Z</time>
      </trkpt>
      <trkpt lat="36.8276152387" lon="-2.9527273122">
        <ele>265.94</ele>
        <time>2018-11-12T07:59:51Z</time>
      </trkpt>
      <trkpt lat="36.8275697250" lon="-2.9527750053">
        <ele>265.94</ele>
        <time>2018-11-12T07:59:52Z</time>
      </trkpt>
      <trkpt lat="36.8275254685" lon="-2.9528317507">
        <ele>265.94</ele>
        <time>2018-11-12T07:59:53Z</time>
      </trkpt>
      <trkpt lat="36.8274842296" lon="-2.9528978840">
        <ele>265.46</ele>
        <time>2018-11-12T07:59:54Z</time>
      </trkpt>
      <trkpt lat="36.8274450023" lon="-2.9529703874">
        <ele>265.46</ele>
        <time>2018-11-12T07:59:55Z</time>
      </trkpt>
      <trkpt lat="36.8271763623" lon="-2.9536016285">
        <ele>262.10</ele>
        <time>2018-11-12T08:00:03Z</time>
      </trkpt>
      <trkpt lat="36.8267642241" lon="-2.9545455147">
        <ele>259.21</ele>
        <time>2018-11-12T08:00:14Z</time>
      </trkpt>
      <trkpt lat="36.8264711928" lon="-2.9552200902">
        <ele>257.77</ele>
        <time>2018-11-12T08:00:23Z</time>
      </trkpt>
      <trkpt lat="36.8262375053" lon="-2.9559079092">
        <ele>257.77</ele>
        <time>2018-11-12T08:00:32Z</time>
      </trkpt>
      <trkpt lat="36.8260307238" lon="-2.9566099774">
        <ele>256.81</ele>
        <time>2018-11-12T08:00:40Z</time>
      </trkpt>
      <trkpt lat="36.8258155603" lon="-2.9573384486">
        <ele>255.85</ele>
        <time>2018-11-12T08:00:48Z</time>
      </trkpt>
      <trkpt lat="36.8256045878" lon="-2.9580416903">
        <ele>254.89</ele>
        <time>2018-11-12T08:00:56Z</time>
      </trkpt>
      <trkpt lat="36.8254133128" lon="-2.9586490430">
        <ele>255.85</ele>
        <time>2018-11-12T08:01:04Z</time>
      </trkpt>
      <trkpt lat="36.8252680544" lon="-2.9591393843">
        <ele>257.29</ele>
        <time>2018-11-12T08:01:11Z</time>
      </trkpt>
      <trkpt lat="36.8251158390" lon="-2.9596495908">
        <ele>258.73</ele>
        <time>2018-11-12T08:01:19Z</time>
      </trkpt>
      <trkpt lat="36.8249774538" lon="-2.9601206537">
        <ele>258.73</ele>
        <time>2018-11-12T08:01:27Z</time>
      </trkpt>
      <trkpt lat="36.8248099834" lon="-2.9606990889">
        <ele>260.17</ele>
        <time>2018-11-12T08:01:36Z</time>
      </trkpt>
      <trkpt lat="36.8245936465" lon="-2.9611590877">
        <ele>261.62</ele>
        <time>2018-11-12T08:01:44Z</time>
      </trkpt>
      <trkpt lat="36.8243564386" lon="-2.9615453258">
        <ele>263.06</ele>
        <time>2018-11-12T08:01:52Z</time>
      </trkpt>
      <trkpt lat="36.8241204042" lon="-2.9619342461">
        <ele>263.54</ele>
        <time>2018-11-12T08:02:01Z</time>
      </trkpt>
      <trkpt lat="36.8238641694" lon="-2.9623521678">
        <ele>264.98</ele>
        <time>2018-11-12T08:02:11Z</time>
      </trkpt>
      <trkpt lat="36.8235836271" lon="-2.9628127534">
        <ele>265.46</ele>
        <time>2018-11-12T08:02:22Z</time>
      </trkpt>
      <trkpt lat="36.8233679608" lon="-2.9631706607">
        <ele>264.98</ele>
        <time>2018-11-12T08:02:32Z</time>
      </trkpt>
      <trkpt lat="36.8231461756" lon="-2.9635369498">
        <ele>264.98</ele>
        <time>2018-11-12T08:02:41Z</time>
      </trkpt>
      <trkpt lat="36.8228364643" lon="-2.9640339967">
        <ele>264.98</ele>
        <time>2018-11-12T08:02:51Z</time>
      </trkpt>
      <trkpt lat="36.8225179520" lon="-2.9645601287">
        <ele>265.46</ele>
        <time>2018-11-12T08:03:01Z</time>
      </trkpt>
      <trkpt lat="36.8221457954" lon="-2.9651712533">
        <ele>266.42</ele>
        <time>2018-11-12T08:03:13Z</time>
      </trkpt>
      <trkpt lat="36.8218049873" lon="-2.9657374509">
        <ele>267.38</ele>
        <time>2018-11-12T08:03:24Z</time>
      </trkpt>
      <trkpt lat="36.8213941902" lon="-2.9664154630">
        <ele>268.35</ele>
        <time>2018-11-12T08:03:37Z</time>
      </trkpt>
      <trkpt lat="36.8210259732" lon="-2.9670195468">
        <ele>269.31</ele>
        <time>2018-11-12T08:03:49Z</time>
      </trkpt>
      <trkpt lat="36.8206747714" lon="-2.9675890133">
        <ele>270.27</ele>
        <time>2018-11-12T08:04:01Z</time>
      </trkpt>
      <trkpt lat="36.8203466199" lon="-2.9681214318">
        <ele>271.23</ele>
        <time>2018-11-12T08:04:13Z</time>
      </trkpt>
      <trkpt lat="36.8200801592" lon="-2.9685650859">
        <ele>272.19</ele>
        <time>2018-11-12T08:04:24Z</time>
      </trkpt>
      <trkpt lat="36.8198737968" lon="-2.9688903876">
        <ele>273.15</ele>
        <time>2018-11-12T08:04:33Z</time>
      </trkpt>
      <trkpt lat="36.8195505906" lon="-2.9693622049">
        <ele>274.11</ele>
        <time>2018-11-12T08:04:43Z</time>
      </trkpt>
      <trkpt lat="36.8191220239" lon="-2.9698013328">
        <ele>274.11</ele>
        <time>2018-11-12T08:04:54Z</time>
      </trkpt>
      <trkpt lat="36.8187610991" lon="-2.9700312484">
        <ele>274.11</ele>
        <time>2018-11-12T08:05:02Z</time>
      </trkpt>
      <trkpt lat="36.8184078857" lon="-2.9701729026">
        <ele>273.63</ele>
        <time>2018-11-12T08:05:11Z</time>
      </trkpt>
      <trkpt lat="36.8181019463" lon="-2.9702387843">
        <ele>273.15</ele>
        <time>2018-11-12T08:05:19Z</time>
      </trkpt>
      <trkpt lat="36.8175879680" lon="-2.9702169914">
        <ele>272.67</ele>
        <time>2018-11-12T08:05:28Z</time>
      </trkpt>
      <trkpt lat="36.8171446491" lon="-2.9701178335">
        <ele>271.23</ele>
        <time>2018-11-12T08:05:36Z</time>
      </trkpt>
      <trkpt lat="36.8166521285" lon="-2.9700233694">
        <ele>270.75</ele>
        <time>2018-11-12T08:05:46Z</time>
      </trkpt>
      <trkpt lat="36.8166058604" lon="-2.9700251296">
        <ele>270.75</ele>
        <time>2018-11-12T08:05:47Z</time>
      </trkpt>
      <trkpt lat="36.8161260802" lon="-2.9700936098">
        <ele>271.23</ele>
        <time>2018-11-12T08:05:57Z</time>
      </trkpt>
      <trkpt lat="36.8156574480" lon="-2.9702942725">
        <ele>271.71</ele>
        <time>2018-11-12T08:06:06Z</time>
      </trkpt>
      <trkpt lat="36.8152934220" lon="-2.9705925006">
        <ele>272.19</ele>
        <time>2018-11-12T08:06:14Z</time>
      </trkpt>
      <trkpt lat="36.8149899133" lon="-2.9709873721">
        <ele>271.71</ele>
        <time>2018-11-12T08:06:22Z</time>
      </trkpt>
      <trkpt lat="36.8147420604" lon="-2.9715219699">
        <ele>271.71</ele>
        <time>2018-11-12T08:06:31Z</time>
      </trkpt>
      <trkpt lat="36.8146040943" lon="-2.9721634369">
        <ele>271.71</ele>
        <time>2018-11-12T08:06:41Z</time>
      </trkpt>
      <trkpt lat="36.8145962991" lon="-2.9726044089">
        <ele>272.19</ele>
        <time>2018-11-12T08:06:48Z</time>
      </trkpt>
      <trkpt lat="36.8146009091" lon="-2.9726585560">
        <ele>272.19</ele>
        <time>2018-11-12T08:06:49Z</time>
      </trkpt>
      <trkpt lat="36.8146870751" lon="-2.9731841851">
        <ele>272.67</ele>
        <time>2018-11-12T08:06:59Z</time>
      </trkpt>
      <trkpt lat="36.8148810323" lon="-2.9737390671">
        <ele>273.15</ele>
        <time>2018-11-12T08:07:10Z</time>
      </trkpt>
      <trkpt lat="36.8150748219" lon="-2.9741864931">
        <ele>273.15</ele>
        <time>2018-11-12T08:07:20Z</time>
      </trkpt>
      <trkpt lat="36.8152365927" lon="-2.9746825341">
        <ele>272.19</ele>
        <time>2018-11-12T08:07:30Z</time>
      </trkpt>
      <trkpt lat="36.8152999599" lon="-2.9749132879">
        <ele>271.71</ele>
        <time>2018-11-12T08:07:37Z</time>
      </trkpt>
      <trkpt lat="36.8153358344" lon="-2.9749221727">
        <ele>272.19</ele>
        <time>2018-11-12T08:07:42Z</time>
      </trkpt>
      <trkpt lat="36.8153324816" lon="-2.9749356676">
        <ele>271.71</ele>
        <time>2018-11-12T08:07:52Z</time>
      </trkpt>
      <trkpt lat="36.8153350800" lon="-2.9749427922">
        <ele>272.67</ele>
        <time>2018-11-12T08:08:12Z</time>
      </trkpt>
      <trkpt lat="36.8153135385" lon="-2.9749558680">
        <ele>270.75</ele>
        <time>2018-11-12T08:08:34Z</time>
      </trkpt>
      <trkpt lat="36.8153120298" lon="-2.9749507550">
        <ele>270.75</ele>
        <time>2018-11-12T08:08:56Z</time>
      </trkpt>
      <trkpt lat="36.8153199926" lon="-2.9749563709">
        <ele>271.71</ele>
        <time>2018-11-12T08:09:11Z</time>
      </trkpt>
      <trkpt lat="36.8153170589" lon="-2.9749635793">
        <ele>270.75</ele>
        <time>2018-11-12T08:09:28Z</time>
      </trkpt>
      <trkpt lat="36.8152986187" lon="-2.9749629088">
        <ele>268.83</ele>
        <time>2018-11-12T08:09:51Z</time>
      </trkpt>
      <trkpt lat="36.8153034803" lon="-2.9749675188">
        <ele>268.35</ele>
        <time>2018-11-12T08:10:15Z</time>
      </trkpt>
      <trkpt lat="36.8152995408" lon="-2.9749659263">
        <ele>268.83</ele>
        <time>2018-11-12T08:10:37Z</time>
      </trkpt>
      <trkpt lat="36.8153035641" lon="-2.9749510903">
        <ele>270.75</ele>
        <time>2018-11-12T08:10:59Z</time>
      </trkpt>
      <trkpt lat="36.8153042346" lon="-2.9749483243">
        <ele>270.27</ele>
        <time>2018-11-12T08:11:14Z</time>
      </trkpt>
      <trkpt lat="36.8152988702" lon="-2.9749545269">
        <ele>270.27</ele>
        <time>2018-11-12T08:11:34Z</time>
      </trkpt>
      <trkpt lat="36.8153013848" lon="-2.9749482404">
        <ele>269.79</ele>
        <time>2018-11-12T08:11:48Z</time>
      </trkpt>
      <trkpt lat="36.8153115269" lon="-2.9749591369">
        <ele>268.83</ele>
        <time>2018-11-12T08:12:08Z</time>
      </trkpt>
      <trkpt lat="36.8153058272" lon="-2.9749572091">
        <ele>269.79</ele>
        <time>2018-11-12T08:12:30Z</time>
      </trkpt>
      <trkpt lat="36.8153065816" lon="-2.9749559518">
        <ele>268.35</ele>
        <time>2018-11-12T08:12:48Z</time>
      </trkpt>
      <trkpt lat="36.8153044023" lon="-2.9749589693">
        <ele>269.79</ele>
        <time>2018-11-12T08:13:09Z</time>
      </trkpt>
      <trkpt lat="36.8153145444" lon="-2.9749425407">
        <ele>269.31</ele>
        <time>2018-11-12T08:13:29Z</time>
      </trkpt>
      <trkpt lat="36.8153303862" lon="-2.9749364220">
        <ele>268.83</ele>
        <time>2018-11-12T08:13:49Z</time>
      </trkpt>
      <trkpt lat="36.8153355829" lon="-2.9749341588">
        <ele>268.35</ele>
        <time>2018-11-12T08:14:06Z</time>
      </trkpt>
      <trkpt lat="36.8153413665" lon="-2.9749485757">
        <ele>269.79</ele>
        <time>2018-11-12T08:14:25Z</time>
      </trkpt>
      <trkpt lat="36.8153515086" lon="-2.9749525990">
        <ele>269.79</ele>
        <time>2018-11-12T08:14:40Z</time>
      </trkpt>
      <trkpt lat="36.8153441325" lon="-2.9749481566">
        <ele>270.75</ele>
        <time>2018-11-12T08:14:57Z</time>
      </trkpt>
      <trkpt lat="36.8153433781" lon="-2.9749464802">
        <ele>271.71</ele>
        <time>2018-11-12T08:15:17Z</time>
      </trkpt>
      <trkpt lat="36.8153476529" lon="-2.9749422893">
        <ele>272.67</ele>
        <time>2018-11-12T08:15:30Z</time>
      </trkpt>
      <trkpt lat="36.8153170589" lon="-2.9749682732">
        <ele>273.15</ele>
        <time>2018-11-12T08:15:38Z</time>
      </trkpt>
      <trkpt lat="36.8152861297" lon="-2.9749938380">
        <ele>270.75</ele>
        <time>2018-11-12T08:15:47Z</time>
      </trkpt>
      <trkpt lat="36.8152695335" lon="-2.9749984480">
        <ele>269.31</ele>
        <time>2018-11-12T08:15:51Z</time>
      </trkpt>
      <trkpt lat="36.8152904883" lon="-2.9751741327">
        <ele>272.19</ele>
        <time>2018-11-12T08:15:58Z</time>
      </trkpt>
      <trkpt lat="36.8153010495" lon="-2.9755572695">
        <ele>272.67</ele>
        <time>2018-11-12T08:16:08Z</time>
      </trkpt>
      <trkpt lat="36.8152397778" lon="-2.9759124946">
        <ele>273.15</ele>
        <time>2018-11-12T08:16:16Z</time>
      </trkpt>
      <trkpt lat="36.8151024822" lon="-2.9762999900">
        <ele>273.63</ele>
        <time>2018-11-12T08:16:24Z</time>
      </trkpt>
      <trkpt lat="36.8148798589" lon="-2.9766796902">
        <ele>274.11</ele>
        <time>2018-11-12T08:16:32Z</time>
      </trkpt>
      <trkpt lat="36.8145814631" lon="-2.9770032316">
        <ele>274.59</ele>
        <time>2018-11-12T08:16:40Z</time>
      </trkpt>
      <trkpt lat="36.8141350430" lon="-2.9772918206">
        <ele>275.56</ele>
        <time>2018-11-12T08:16:50Z</time>
      </trkpt>
      <trkpt lat="36.8136707693" lon="-2.9774231650">
        <ele>275.56</ele>
        <time>2018-11-12T08:16:59Z</time>
      </trkpt>
      <trkpt lat="36.8131860439" lon="-2.9774151184">
        <ele>274.59</ele>
        <time>2018-11-12T08:17:08Z</time>
      </trkpt>
      <trkpt lat="36.8127853051" lon="-2.9772978555">
        <ele>274.59</ele>
        <time>2018-11-12T08:17:16Z</time>
      </trkpt>
      <trkpt lat="36.8123274855" lon="-2.9770222586">
        <ele>274.59</ele>
        <time>2018-11-12T08:17:26Z</time>
      </trkpt>
      <trkpt lat="36.8119818997" lon="-2.9766796064">
        <ele>274.11</ele>
        <time>2018-11-12T08:17:35Z</time>
      </trkpt>
      <trkpt lat="36.8116261717" lon="-2.9762300849">
        <ele>274.59</ele>
        <time>2018-11-12T08:17:45Z</time>
      </trkpt>
      <trkpt lat="36.8111961801" lon="-2.9757627938">
        <ele>275.07</ele>
        <time>2018-11-12T08:17:56Z</time>
      </trkpt>
      <trkpt lat="36.8107839581" lon="-2.9755313694">
        <ele>275.56</ele>
        <time>2018-11-12T08:18:05Z</time>
      </trkpt>
      <trkpt lat="36.8104005698" lon="-2.9754727799">
        <ele>272.67</ele>
        <time>2018-11-12T08:18:13Z</time>
      </trkpt>
      <trkpt lat="36.8099190295" lon="-2.9756256659">
        <ele>273.63</ele>
        <time>2018-11-12T08:18:23Z</time>
      </trkpt>
      <trkpt lat="36.8093739543" lon="-2.9759240616">
        <ele>275.07</ele>
        <time>2018-11-12T08:18:35Z</time>
      </trkpt>
      <trkpt lat="36.8090591300" lon="-2.9762429930">
        <ele>276.04</ele>
        <time>2018-11-12T08:18:43Z</time>
      </trkpt>
      <trkpt lat="36.8088263646" lon="-2.9766697157">
        <ele>276.04</ele>
        <time>2018-11-12T08:18:51Z</time>
      </trkpt>
      <trkpt lat="36.8087048270" lon="-2.9771667626">
        <ele>276.04</ele>
        <time>2018-11-12T08:18:59Z</time>
      </trkpt>
      <trkpt lat="36.8087039888" lon="-2.9776586965">
        <ele>276.04</ele>
        <time>2018-11-12T08:19:07Z</time>
      </trkpt>
      <trkpt lat="36.8087754026" lon="-2.9783341940">
        <ele>277.00</ele>
        <time>2018-11-12T08:19:18Z</time>
      </trkpt>
      <trkpt lat="36.8088401109" lon="-2.9789380264">
        <ele>277.00</ele>
        <time>2018-11-12T08:19:28Z</time>
      </trkpt>
      <trkpt lat="36.8089339882" lon="-2.9797607102">
        <ele>277.96</ele>
        <time>2018-11-12T08:19:42Z</time>
      </trkpt>
      <trkpt lat="36.8089481536" lon="-2.9803835694">
        <ele>278.92</ele>
        <time>2018-11-12T08:19:53Z</time>
      </trkpt>
      <trkpt lat="36.8088294659" lon="-2.9808796104">
        <ele>279.40</ele>
        <time>2018-11-12T08:20:02Z</time>
      </trkpt>
      <trkpt lat="36.8085625861" lon="-2.9812886473">
        <ele>280.36</ele>
        <time>2018-11-12T08:20:11Z</time>
      </trkpt>
      <trkpt lat="36.8082221970" lon="-2.9815252684">
        <ele>280.36</ele>
        <time>2018-11-12T08:20:19Z</time>
      </trkpt>
      <trkpt lat="36.8077795487" lon="-2.9815869592">
        <ele>280.36</ele>
        <time>2018-11-12T08:20:28Z</time>
      </trkpt>
      <trkpt lat="36.8073838390" lon="-2.9814577103">
        <ele>280.36</ele>
        <time>2018-11-12T08:20:36Z</time>
      </trkpt>
      <trkpt lat="36.8070152029" lon="-2.9812083486">
        <ele>279.88</ele>
        <time>2018-11-12T08:20:44Z</time>
      </trkpt>
      <trkpt lat="36.8065345008" lon="-2.9809262138">
        <ele>280.36</ele>
        <time>2018-11-12T08:20:54Z</time>
      </trkpt>
      <trkpt lat="36.8060135655" lon="-2.9807671253">
        <ele>279.88</ele>
        <time>2018-11-12T08:21:04Z</time>
      </trkpt>
      <trkpt lat="36.8054426741" lon="-2.9806484375">
        <ele>280.36</ele>
        <time>2018-11-12T08:21:15Z</time>
      </trkpt>
      <trkpt lat="36.8048046436" lon="-2.9805180989">
        <ele>280.36</ele>
        <time>2018-11-12T08:21:27Z</time>
      </trkpt>
      <trkpt lat="36.8042729795" lon="-2.9804116488">
        <ele>280.36</ele>
        <time>2018-11-12T08:21:38Z</time>
      </trkpt>
      <trkpt lat="36.8039167486" lon="-2.9803484492">
        <ele>278.92</ele>
        <time>2018-11-12T08:21:46Z</time>
      </trkpt>
      <trkpt lat="36.8037641142" lon="-2.9803479463">
        <ele>278.44</ele>
        <time>2018-11-12T08:21:49Z</time>
      </trkpt>
      <trkpt lat="36.8033120781" lon="-2.9804776143">
        <ele>276.52</ele>
        <time>2018-11-12T08:21:57Z</time>
      </trkpt>
      <trkpt lat="36.8029644806" lon="-2.9807540495">
        <ele>274.59</ele>
        <time>2018-11-12T08:22:03Z</time>
      </trkpt>
      <trkpt lat="36.8029080704" lon="-2.9808252119">
        <ele>274.11</ele>
        <time>2018-11-12T08:22:04Z</time>
      </trkpt>
      <trkpt lat="36.8027124368" lon="-2.9811581410">
        <ele>272.67</ele>
        <time>2018-11-12T08:22:08Z</time>
      </trkpt>
      <trkpt lat="36.8026753888" lon="-2.9812518507">
        <ele>272.19</ele>
        <time>2018-11-12T08:22:09Z</time>
      </trkpt>
      <trkpt lat="36.8026422802" lon="-2.9813507572">
        <ele>271.71</ele>
        <time>2018-11-12T08:22:10Z</time>
      </trkpt>
      <trkpt lat="36.8025022186" lon="-2.9819970857">
        <ele>268.83</ele>
        <time>2018-11-12T08:22:16Z</time>
      </trkpt>
      <trkpt lat="36.8023018073" lon="-2.9826439172">
        <ele>265.94</ele>
        <time>2018-11-12T08:22:22Z</time>
      </trkpt>
      <trkpt lat="36.8022407033" lon="-2.9827471823">
        <ele>265.46</ele>
        <time>2018-11-12T08:22:23Z</time>
      </trkpt>
      <trkpt lat="36.8021754082" lon="-2.9828418139">
        <ele>264.98</ele>
        <time>2018-11-12T08:22:24Z</time>
      </trkpt>
      <trkpt lat="36.8021035753" lon="-2.9829304945">
        <ele>264.02</ele>
        <time>2018-11-12T08:22:25Z</time>
      </trkpt>
      <trkpt lat="36.8020210974" lon="-2.9830163252">
        <ele>263.54</ele>
        <time>2018-11-12T08:22:26Z</time>
      </trkpt>
      <trkpt lat="36.8019381166" lon="-2.9830953665">
        <ele>263.06</ele>
        <time>2018-11-12T08:22:27Z</time>
      </trkpt>
      <trkpt lat="36.8012663070" lon="-2.9836886376">
        <ele>258.25</ele>
        <time>2018-11-12T08:22:35Z</time>
      </trkpt>
      <trkpt lat="36.8002797570" lon="-2.9845517222">
        <ele>251.04</ele>
        <time>2018-11-12T08:22:46Z</time>
      </trkpt>
      <trkpt lat="36.7996035051" lon="-2.9851476755">
        <ele>246.23</ele>
        <time>2018-11-12T08:22:54Z</time>
      </trkpt>
      <trkpt lat="36.7994433269" lon="-2.9853177443">
        <ele>245.27</ele>
        <time>2018-11-12T08:22:56Z</time>
      </trkpt>
      <trkpt lat="36.7993775290" lon="-2.9854130466">
        <ele>244.31</ele>
        <time>2018-11-12T08:22:57Z</time>
      </trkpt>
      <trkpt lat="36.7993156705" lon="-2.9855204187">
        <ele>243.83</ele>
        <time>2018-11-12T08:22:58Z</time>
      </trkpt>
      <trkpt lat="36.7992585897" lon="-2.9856359214">
        <ele>242.87</ele>
        <time>2018-11-12T08:22:59Z</time>
      </trkpt>
      <trkpt lat="36.7992082145" lon="-2.9857571237">
        <ele>242.39</ele>
        <time>2018-11-12T08:23:00Z</time>
      </trkpt>
      <trkpt lat="36.7991643772" lon="-2.9858825170">
        <ele>241.43</ele>
        <time>2018-11-12T08:23:01Z</time>
      </trkpt>
      <trkpt lat="36.7988194618" lon="-2.9868919495">
        <ele>236.62</ele>
        <time>2018-11-12T08:23:09Z</time>
      </trkpt>
      <trkpt lat="36.7987545021" lon="-2.9870051891">
        <ele>236.14</ele>
        <time>2018-11-12T08:23:10Z</time>
      </trkpt>
      <trkpt lat="36.7986831721" lon="-2.9871113878">
        <ele>235.66</ele>
        <time>2018-11-12T08:23:11Z</time>
      </trkpt>
      <trkpt lat="36.7986053042" lon="-2.9872103781">
        <ele>235.18</ele>
        <time>2018-11-12T08:23:12Z</time>
      </trkpt>
      <trkpt lat="36.7985188030" lon="-2.9872984719">
        <ele>235.18</ele>
        <time>2018-11-12T08:23:13Z</time>
      </trkpt>
      <trkpt lat="36.7984250095" lon="-2.9873740766">
        <ele>235.18</ele>
        <time>2018-11-12T08:23:14Z</time>
      </trkpt>
      <trkpt lat="36.7983270250" lon="-2.9874398746">
        <ele>234.70</ele>
        <time>2018-11-12T08:23:15Z</time>
      </trkpt>
      <trkpt lat="36.7982274480" lon="-2.9874959495">
        <ele>234.70</ele>
        <time>2018-11-12T08:23:16Z</time>
      </trkpt>
      <trkpt lat="36.7981254403" lon="-2.9875416309">
        <ele>234.22</ele>
        <time>2018-11-12T08:23:17Z</time>
      </trkpt>
      <trkpt lat="36.7980223428" lon="-2.9875744879">
        <ele>234.22</ele>
        <time>2018-11-12T08:23:18Z</time>
      </trkpt>
      <trkpt lat="36.7979206704" lon="-2.9875942692">
        <ele>234.22</ele>
        <time>2018-11-12T08:23:19Z</time>
      </trkpt>
      <trkpt lat="36.7978134658" lon="-2.9876034893">
        <ele>233.74</ele>
        <time>2018-11-12T08:23:20Z</time>
      </trkpt>
      <trkpt lat="36.7977216002" lon="-2.9876035731">
        <ele>234.22</ele>
        <time>2018-11-12T08:23:21Z</time>
      </trkpt>
      <trkpt lat="36.7976269685" lon="-2.9875988793">
        <ele>233.74</ele>
        <time>2018-11-12T08:23:22Z</time>
      </trkpt>
      <trkpt lat="36.7970160116" lon="-2.9874737374">
        <ele>233.74</ele>
        <time>2018-11-12T08:23:29Z</time>
      </trkpt>
      <trkpt lat="36.7963535897" lon="-2.9872852284">
        <ele>232.78</ele>
        <time>2018-11-12T08:23:38Z</time>
      </trkpt>
      <trkpt lat="36.7956469953" lon="-2.9870918579">
        <ele>231.81</ele>
        <time>2018-11-12T08:23:49Z</time>
      </trkpt>
      <trkpt lat="36.7950526346" lon="-2.9869520478">
        <ele>231.81</ele>
        <time>2018-11-12T08:23:59Z</time>
      </trkpt>
      <trkpt lat="36.7945406679" lon="-2.9869444203">
        <ele>231.33</ele>
        <time>2018-11-12T08:24:08Z</time>
      </trkpt>
      <trkpt lat="36.7943822499" lon="-2.9869862460">
        <ele>230.85</ele>
        <time>2018-11-12T08:24:11Z</time>
      </trkpt>
      <trkpt lat="36.7943322100" lon="-2.9870087933">
        <ele>230.85</ele>
        <time>2018-11-12T08:24:12Z</time>
      </trkpt>
      <trkpt lat="36.7940665875" lon="-2.9871919379">
        <ele>229.41</ele>
        <time>2018-11-12T08:24:18Z</time>
      </trkpt>
      <trkpt lat="36.7940290365" lon="-2.9872333445">
        <ele>229.41</ele>
        <time>2018-11-12T08:24:19Z</time>
      </trkpt>
      <trkpt lat="36.7939546052" lon="-2.9873269703">
        <ele>229.41</ele>
        <time>2018-11-12T08:24:21Z</time>
      </trkpt>
      <trkpt lat="36.7938178126" lon="-2.9875645973">
        <ele>230.37</ele>
        <time>2018-11-12T08:24:26Z</time>
      </trkpt>
      <trkpt lat="36.7936236877" lon="-2.9881366622">
        <ele>230.85</ele>
        <time>2018-11-12T08:24:36Z</time>
      </trkpt>
      <trkpt lat="36.7933792714" lon="-2.9886119161">
        <ele>230.85</ele>
        <time>2018-11-12T08:24:45Z</time>
      </trkpt>
      <trkpt lat="36.7930136528" lon="-2.9889992438">
        <ele>230.85</ele>
        <time>2018-11-12T08:24:54Z</time>
      </trkpt>
      <trkpt lat="36.7925203778" lon="-2.9895070195">
        <ele>229.89</ele>
        <time>2018-11-12T08:25:05Z</time>
      </trkpt>
      <trkpt lat="36.7919939104" lon="-2.9900426231">
        <ele>229.89</ele>
        <time>2018-11-12T08:25:17Z</time>
      </trkpt>
      <trkpt lat="36.7916783318" lon="-2.9902991932">
        <ele>229.89</ele>
        <time>2018-11-12T08:25:24Z</time>
      </trkpt>
      <trkpt lat="36.7913008109" lon="-2.9904322140">
        <ele>229.89</ele>
        <time>2018-11-12T08:25:31Z</time>
      </trkpt>
      <trkpt lat="36.7908968031" lon="-2.9903835990">
        <ele>229.41</ele>
        <time>2018-11-12T08:25:38Z</time>
      </trkpt>
      <trkpt lat="36.7905621137" lon="-2.9901896417">
        <ele>229.89</ele>
        <time>2018-11-12T08:25:44Z</time>
      </trkpt>
      <trkpt lat="36.7902399972" lon="-2.9898592271">
        <ele>228.93</ele>
        <time>2018-11-12T08:25:51Z</time>
      </trkpt>
      <trkpt lat="36.7899998557" lon="-2.9896023218">
        <ele>228.45</ele>
        <time>2018-11-12T08:25:57Z</time>
      </trkpt>
      <trkpt lat="36.7896242626" lon="-2.9893883318">
        <ele>228.45</ele>
        <time>2018-11-12T08:26:05Z</time>
      </trkpt>
      <trkpt lat="36.7892151419" lon="-2.9893610906">
        <ele>227.97</ele>
        <time>2018-11-12T08:26:12Z</time>
      </trkpt>
      <trkpt lat="36.7888502777" lon="-2.9894992243">
        <ele>227.49</ele>
        <time>2018-11-12T08:26:19Z</time>
      </trkpt>
      <trkpt lat="36.7883121595" lon="-2.9898303095">
        <ele>227.97</ele>
        <time>2018-11-12T08:26:29Z</time>
      </trkpt>
      <trkpt lat="36.7878053058" lon="-2.9901214130">
        <ele>228.45</ele>
        <time>2018-11-12T08:26:39Z</time>
      </trkpt>
      <trkpt lat="36.7873706203" lon="-2.9903448746">
        <ele>228.45</ele>
        <time>2018-11-12T08:26:48Z</time>
      </trkpt>
      <trkpt lat="36.7868611682" lon="-2.9905314557">
        <ele>227.97</ele>
        <time>2018-11-12T08:26:58Z</time>
      </trkpt>
      <trkpt lat="36.7867636867" lon="-2.9905619659">
        <ele>227.97</ele>
        <time>2018-11-12T08:27:02Z</time>
      </trkpt>
      <trkpt lat="36.7867346853" lon="-2.9905742873">
        <ele>227.49</ele>
        <time>2018-11-12T08:27:07Z</time>
      </trkpt>
      <trkpt lat="36.7867383733" lon="-2.9905728623">
        <ele>227.97</ele>
        <time>2018-11-12T08:27:20Z</time>
      </trkpt>
      <trkpt lat="36.7867157422" lon="-2.9905679170">
        <ele>227.97</ele>
        <time>2018-11-12T08:27:29Z</time>
      </trkpt>
      <trkpt lat="36.7866970506" lon="-2.9905611277">
        <ele>227.97</ele>
        <time>2018-11-12T08:27:30Z</time>
      </trkpt>
      <trkpt lat="36.7866791133" lon="-2.9905606247">
        <ele>227.97</ele>
        <time>2018-11-12T08:27:31Z</time>
      </trkpt>
      <trkpt lat="36.7864419054" lon="-2.9906026181">
        <ele>227.49</ele>
        <time>2018-11-12T08:27:38Z</time>
      </trkpt>
      <trkpt lat="36.7863943800" lon="-2.9906083178">
        <ele>227.01</ele>
        <time>2018-11-12T08:27:39Z</time>
      </trkpt>
      <trkpt lat="36.7862557434" lon="-2.9906357266">
        <ele>225.57</ele>
        <time>2018-11-12T08:27:44Z</time>
      </trkpt>
      <trkpt lat="36.7862354591" lon="-2.9906411748">
        <ele>224.61</ele>
        <time>2018-11-12T08:27:50Z</time>
      </trkpt>
      <trkpt lat="36.7862117384" lon="-2.9906432703">
        <ele>224.12</ele>
        <time>2018-11-12T08:28:04Z</time>
      </trkpt>
      <trkpt lat="36.7860130873" lon="-2.9906562623">
        <ele>222.68</ele>
        <time>2018-11-12T08:28:10Z</time>
      </trkpt>
      <trkpt lat="36.7856637295" lon="-2.9906465393">
        <ele>220.76</ele>
        <time>2018-11-12T08:28:16Z</time>
      </trkpt>
      <trkpt lat="36.7851624917" lon="-2.9905784782">
        <ele>216.91</ele>
        <time>2018-11-12T08:28:22Z</time>
      </trkpt>
      <trkpt lat="36.7845323402" lon="-2.9903921485">
        <ele>211.63</ele>
        <time>2018-11-12T08:28:28Z</time>
      </trkpt>
      <trkpt lat="36.7836810742" lon="-2.9900587164">
        <ele>203.46</ele>
        <time>2018-11-12T08:28:35Z</time>
      </trkpt>
      <trkpt lat="36.7824738286" lon="-2.9895795230">
        <ele>192.88</ele>
        <time>2018-11-12T08:28:44Z</time>
      </trkpt>
      <trkpt lat="36.7818635423" lon="-2.9894149862">
        <ele>189.04</ele>
        <time>2018-11-12T08:28:49Z</time>
      </trkpt>
      <trkpt lat="36.7817446869" lon="-2.9894223623">
        <ele>188.08</ele>
        <time>2018-11-12T08:28:50Z</time>
      </trkpt>
      <trkpt lat="36.7816319503" lon="-2.9894460831">
        <ele>187.11</ele>
        <time>2018-11-12T08:28:51Z</time>
      </trkpt>
      <trkpt lat="36.7815205548" lon="-2.9894836340">
        <ele>185.67</ele>
        <time>2018-11-12T08:28:52Z</time>
      </trkpt>
      <trkpt lat="36.7814098299" lon="-2.9895332549">
        <ele>184.71</ele>
        <time>2018-11-12T08:28:53Z</time>
      </trkpt>
      <trkpt lat="36.7812953331" lon="-2.9896000586">
        <ele>183.75</ele>
        <time>2018-11-12T08:28:54Z</time>
      </trkpt>
      <trkpt lat="36.7811913975" lon="-2.9896791838">
        <ele>182.79</ele>
        <time>2018-11-12T08:28:55Z</time>
      </trkpt>
      <trkpt lat="36.7810977716" lon="-2.9897706304">
        <ele>181.83</ele>
        <time>2018-11-12T08:28:56Z</time>
      </trkpt>
      <trkpt lat="36.7810123600" lon="-2.9898728058">
        <ele>180.38</ele>
        <time>2018-11-12T08:28:57Z</time>
      </trkpt>
      <trkpt lat="36.7809383478" lon="-2.9899764061">
        <ele>179.42</ele>
        <time>2018-11-12T08:28:58Z</time>
      </trkpt>
      <trkpt lat="36.7808705382" lon="-2.9900878854">
        <ele>178.46</ele>
        <time>2018-11-12T08:28:59Z</time>
      </trkpt>
      <trkpt lat="36.7808096018" lon="-2.9902002867">
        <ele>177.98</ele>
        <time>2018-11-12T08:29:00Z</time>
      </trkpt>
      <trkpt lat="36.7805017345" lon="-2.9907446075">
        <ele>174.14</ele>
        <time>2018-11-12T08:29:05Z</time>
      </trkpt>
      <trkpt lat="36.7804217711" lon="-2.9908398259">
        <ele>173.66</ele>
        <time>2018-11-12T08:29:06Z</time>
      </trkpt>
      <trkpt lat="36.7803338449" lon="-2.9909290094">
        <ele>172.69</ele>
        <time>2018-11-12T08:29:07Z</time>
      </trkpt>
      <trkpt lat="36.7802350223" lon="-2.9910144210">
        <ele>171.73</ele>
        <time>2018-11-12T08:29:08Z</time>
      </trkpt>
      <trkpt lat="36.7801350262" lon="-2.9910797160">
        <ele>170.77</ele>
        <time>2018-11-12T08:29:09Z</time>
      </trkpt>
      <trkpt lat="36.7800238822" lon="-2.9911360424">
        <ele>169.81</ele>
        <time>2018-11-12T08:29:10Z</time>
      </trkpt>
      <trkpt lat="36.7799114808" lon="-2.9911834840">
        <ele>168.85</ele>
        <time>2018-11-12T08:29:11Z</time>
      </trkpt>
      <trkpt lat="36.7790343985" lon="-2.9915197659">
        <ele>161.16</ele>
        <time>2018-11-12T08:29:18Z</time>
      </trkpt>
      <trkpt lat="36.7781592440" lon="-2.9917631764">
        <ele>153.47</ele>
        <time>2018-11-12T08:29:24Z</time>
      </trkpt>
      <trkpt lat="36.7774891108" lon="-2.9917783476">
        <ele>147.70</ele>
        <time>2018-11-12T08:29:29Z</time>
      </trkpt>
      <trkpt lat="36.7765966058" lon="-2.9916202649">
        <ele>140.01</ele>
        <time>2018-11-12T08:29:35Z</time>
      </trkpt>
      <trkpt lat="36.7749739531" lon="-2.9912804626">
        <ele>127.51</ele>
        <time>2018-11-12T08:29:46Z</time>
      </trkpt>
      <trkpt lat="36.7734958045" lon="-2.9909824021">
        <ele>117.42</ele>
        <time>2018-11-12T08:29:57Z</time>
      </trkpt>
      <trkpt lat="36.7723872140" lon="-2.9907506425">
        <ele>112.13</ele>
        <time>2018-11-12T08:30:06Z</time>
      </trkpt>
      <trkpt lat="36.7720654327" lon="-2.9906159453">
        <ele>110.21</ele>
        <time>2018-11-12T08:30:09Z</time>
      </trkpt>
      <trkpt lat="36.7719672807" lon="-2.9905473813">
        <ele>109.73</ele>
        <time>2018-11-12T08:30:10Z</time>
      </trkpt>
      <trkpt lat="36.7718739901" lon="-2.9904698487">
        <ele>109.25</ele>
        <time>2018-11-12T08:30:11Z</time>
      </trkpt>
      <trkpt lat="36.7717807833" lon="-2.9903798271">
        <ele>108.29</ele>
        <time>2018-11-12T08:30:12Z</time>
      </trkpt>
      <trkpt lat="36.7716965452" lon="-2.9902868718">
        <ele>107.81</ele>
        <time>2018-11-12T08:30:13Z</time>
      </trkpt>
      <trkpt lat="36.7710234784" lon="-2.9894668702">
        <ele>102.52</ele>
        <time>2018-11-12T08:30:21Z</time>
      </trkpt>
      <trkpt lat="36.7704836838" lon="-2.9889356252">
        <ele>97.23</ele>
        <time>2018-11-12T08:30:27Z</time>
      </trkpt>
      <trkpt lat="36.7697531171" lon="-2.9884110857">
        <ele>91.46</ele>
        <time>2018-11-12T08:30:34Z</time>
      </trkpt>
      <trkpt lat="36.7690232210" lon="-2.9879487399">
        <ele>84.73</ele>
        <time>2018-11-12T08:30:41Z</time>
      </trkpt>
      <trkpt lat="36.7683140282" lon="-2.9874848016">
        <ele>77.04</ele>
        <time>2018-11-12T08:30:48Z</time>
      </trkpt>
      <trkpt lat="36.7677180748" lon="-2.9870937020">
        <ele>70.79</ele>
        <time>2018-11-12T08:30:55Z</time>
      </trkpt>
      <trkpt lat="36.7670987360" lon="-2.9866338708">
        <ele>66.47</ele>
        <time>2018-11-12T08:31:03Z</time>
      </trkpt>
      <trkpt lat="36.7667865939" lon="-2.9862768017">
        <ele>65.03</ele>
        <time>2018-11-12T08:31:08Z</time>
      </trkpt>
      <trkpt lat="36.7665940616" lon="-2.9859664198">
        <ele>65.51</ele>
        <time>2018-11-12T08:31:12Z</time>
      </trkpt>
      <trkpt lat="36.7664922215" lon="-2.9858455528">
        <ele>65.99</ele>
        <time>2018-11-12T08:31:15Z</time>
      </trkpt>
      <trkpt lat="36.7664495576" lon="-2.9858343210">
        <ele>65.51</ele>
        <time>2018-11-12T08:31:19Z</time>
      </trkpt>
      <trkpt lat="36.7664353922" lon="-2.9858543538">
        <ele>64.07</ele>
        <time>2018-11-12T08:31:31Z</time>
      </trkpt>
      <trkpt lat="36.7664320394" lon="-2.9858672619">
        <ele>63.58</ele>
        <time>2018-11-12T08:31:46Z</time>
      </trkpt>
      <trkpt lat="36.7664265912" lon="-2.9858663399">
        <ele>64.07</ele>
        <time>2018-11-12T08:31:59Z</time>
      </trkpt>
      <trkpt lat="36.7663808260" lon="-2.9858025536">
        <ele>63.58</ele>
        <time>2018-11-12T08:32:05Z</time>
      </trkpt>
      <trkpt lat="36.7662544269" lon="-2.9856514279">
        <ele>63.10</ele>
        <time>2018-11-12T08:32:10Z</time>
      </trkpt>
      <trkpt lat="36.7659686878" lon="-2.9854371864">
        <ele>62.14</ele>
        <time>2018-11-12T08:32:17Z</time>
      </trkpt>
      <trkpt lat="36.7654095311" lon="-2.9851754196">
        <ele>60.70</ele>
        <time>2018-11-12T08:32:28Z</time>
      </trkpt>
      <trkpt lat="36.7652963754" lon="-2.9851473402">
        <ele>60.22</ele>
        <time>2018-11-12T08:32:30Z</time>
      </trkpt>
      <trkpt lat="36.7650678847" lon="-2.9851218592">
        <ele>59.26</ele>
        <time>2018-11-12T08:32:34Z</time>
      </trkpt>
      <trkpt lat="36.7650138214" lon="-2.9850994796">
        <ele>59.26</ele>
        <time>2018-11-12T08:32:35Z</time>
      </trkpt>
      <trkpt lat="36.7649228778" lon="-2.9850556422">
        <ele>58.78</ele>
        <time>2018-11-12T08:32:37Z</time>
      </trkpt>
      <trkpt lat="36.7648795433" lon="-2.9850445781">
        <ele>58.78</ele>
        <time>2018-11-12T08:32:38Z</time>
      </trkpt>
      <trkpt lat="36.7648372985" lon="-2.9850349389">
        <ele>58.30</ele>
        <time>2018-11-12T08:32:39Z</time>
      </trkpt>
      <trkpt lat="36.7647986580" lon="-2.9850175045">
        <ele>58.30</ele>
        <time>2018-11-12T08:32:40Z</time>
      </trkpt>
      <trkpt lat="36.7647735961" lon="-2.9849968012">
        <ele>58.30</ele>
        <time>2018-11-12T08:32:41Z</time>
      </trkpt>
      <trkpt lat="36.7647605203" lon="-2.9849827196">
        <ele>58.30</ele>
        <time>2018-11-12T08:32:42Z</time>
      </trkpt>
      <trkpt lat="36.7647530604" lon="-2.9849743377">
        <ele>58.78</ele>
        <time>2018-11-12T08:32:48Z</time>
      </trkpt>
      <trkpt lat="36.7647668906" lon="-2.9849770200">
        <ele>59.74</ele>
        <time>2018-11-12T08:32:53Z</time>
      </trkpt>
      <trkpt lat="36.7647631187" lon="-2.9849691410">
        <ele>59.26</ele>
        <time>2018-11-12T08:33:06Z</time>
      </trkpt>
      <trkpt lat="36.7647635378" lon="-2.9849628545">
        <ele>58.78</ele>
        <time>2018-11-12T08:33:21Z</time>
      </trkpt>
      <trkpt lat="36.7647488695" lon="-2.9849612620">
        <ele>59.74</ele>
        <time>2018-11-12T08:33:35Z</time>
      </trkpt>
      <trkpt lat="36.7647462711" lon="-2.9849649500">
        <ele>59.26</ele>
        <time>2018-11-12T08:33:47Z</time>
      </trkpt>
      <trkpt lat="36.7647659685" lon="-2.9849257227">
        <ele>59.26</ele>
        <time>2018-11-12T08:33:54Z</time>
      </trkpt>
      <trkpt lat="36.7647752725" lon="-2.9849132337">
        <ele>60.22</ele>
        <time>2018-11-12T08:34:01Z</time>
      </trkpt>
      <trkpt lat="36.7647697404" lon="-2.9849124793">
        <ele>61.18</ele>
        <time>2018-11-12T08:34:17Z</time>
      </trkpt>
      <trkpt lat="36.7647660524" lon="-2.9849148262">
        <ele>60.70</ele>
        <time>2018-11-12T08:34:41Z</time>
      </trkpt>
      <trkpt lat="36.7647634540" lon="-2.9849135689">
        <ele>58.78</ele>
        <time>2018-11-12T08:35:00Z</time>
      </trkpt>
      <trkpt lat="36.7647691537" lon="-2.9849213641">
        <ele>58.78</ele>
        <time>2018-11-12T08:35:14Z</time>
      </trkpt>
      <trkpt lat="36.7647716682" lon="-2.9849239625">
        <ele>58.30</ele>
        <time>2018-11-12T08:35:27Z</time>
      </trkpt>
      <trkpt lat="36.7647813912" lon="-2.9849339370">
        <ele>57.34</ele>
        <time>2018-11-12T08:35:41Z</time>
      </trkpt>
      <trkpt lat="36.7647843249" lon="-2.9849284049">
        <ele>57.82</ele>
        <time>2018-11-12T08:35:54Z</time>
      </trkpt>
      <trkpt lat="36.7647843249" lon="-2.9849215318">
        <ele>57.82</ele>
        <time>2018-11-12T08:36:08Z</time>
      </trkpt>
      <trkpt lat="36.7647810560" lon="-2.9849227052">
        <ele>58.30</ele>
        <time>2018-11-12T08:36:24Z</time>
      </trkpt>
      <trkpt lat="36.7647799663" lon="-2.9849198554">
        <ele>58.30</ele>
        <time>2018-11-12T08:36:34Z</time>
      </trkpt>
      <trkpt lat="36.7647907790" lon="-2.9849202745">
        <ele>59.26</ele>
        <time>2018-11-12T08:36:50Z</time>
      </trkpt>
      <trkpt lat="36.7647955567" lon="-2.9849135689">
        <ele>59.74</ele>
        <time>2018-11-12T08:37:04Z</time>
      </trkpt>
      <trkpt lat="36.7647890188" lon="-2.9849157482">
        <ele>59.74</ele>
        <time>2018-11-12T08:37:19Z</time>
      </trkpt>
      <trkpt lat="36.7647932936" lon="-2.9849214479">
        <ele>58.78</ele>
        <time>2018-11-12T08:37:34Z</time>
      </trkpt>
      <trkpt lat="36.7647783738" lon="-2.9849154130">
        <ele>58.78</ele>
        <time>2018-11-12T08:37:46Z</time>
      </trkpt>
      <trkpt lat="36.7647701595" lon="-2.9849114735">
        <ele>58.78</ele>
        <time>2018-11-12T08:38:01Z</time>
      </trkpt>
      <trkpt lat="36.7647769488" lon="-2.9849108029">
        <ele>59.26</ele>
        <time>2018-11-12T08:38:13Z</time>
      </trkpt>
      <trkpt lat="36.7647640407" lon="-2.9849021696">
        <ele>59.74</ele>
        <time>2018-11-12T08:38:30Z</time>
      </trkpt>
      <trkpt lat="36.7647616100" lon="-2.9848966375">
        <ele>60.70</ele>
        <time>2018-11-12T08:38:48Z</time>
      </trkpt>
      <trkpt lat="36.7647498753" lon="-2.9849065281">
        <ele>62.14</ele>
        <time>2018-11-12T08:39:05Z</time>
      </trkpt>
      <trkpt lat="36.7647579219" lon="-2.9849069472">
        <ele>62.14</ele>
        <time>2018-11-12T08:39:16Z</time>
      </trkpt>
      <trkpt lat="36.7647659685" lon="-2.9849046003">
        <ele>62.14</ele>
        <time>2018-11-12T08:39:27Z</time>
      </trkpt>
      <trkpt lat="36.7647766974" lon="-2.9849057738">
        <ele>61.66</ele>
        <time>2018-11-12T08:39:40Z</time>
      </trkpt>
      <trkpt lat="36.7647738475" lon="-2.9849060252">
        <ele>60.22</ele>
        <time>2018-11-12T08:39:52Z</time>
      </trkpt>
      <trkpt lat="36.7647742666" lon="-2.9849126469">
        <ele>60.22</ele>
        <time>2018-11-12T08:40:03Z</time>
      </trkpt>
      <trkpt lat="36.7647742666" lon="-2.9849082883">
        <ele>60.70</ele>
        <time>2018-11-12T08:40:18Z</time>
      </trkpt>
      <trkpt lat="36.7647659685" lon="-2.9849056061">
        <ele>62.14</ele>
        <time>2018-11-12T08:40:35Z</time>
      </trkpt>
      <trkpt lat="36.7647632025" lon="-2.9849166702">
        <ele>62.62</ele>
        <time>2018-11-12T08:40:47Z</time>
      </trkpt>
      <trkpt lat="36.7647609394" lon="-2.9849272314">
        <ele>63.58</ele>
        <time>2018-11-12T08:40:59Z</time>
      </trkpt>
      <trkpt lat="36.7647677287" lon="-2.9849320091">
        <ele>62.62</ele>
        <time>2018-11-12T08:41:15Z</time>
      </trkpt>
      <trkpt lat="36.7647608556" lon="-2.9849284049">
        <ele>64.55</ele>
        <time>2018-11-12T08:41:31Z</time>
      </trkpt>
      <trkpt lat="36.7647713330" lon="-2.9849211965">
        <ele>64.55</ele>
        <time>2018-11-12T08:41:50Z</time>
      </trkpt>
      <trkpt lat="36.7647583410" lon="-2.9849081207">
        <ele>64.55</ele>
        <time>2018-11-12T08:41:56Z</time>
      </trkpt>
      <trkpt lat="36.7647439241" lon="-2.9849090427">
        <ele>65.03</ele>
        <time>2018-11-12T08:41:57Z</time>
      </trkpt>
      <trkpt lat="36.7647492886" lon="-2.9849714041">
        <ele>64.55</ele>
        <time>2018-11-12T08:42:01Z</time>
      </trkpt>
      <trkpt lat="36.7648377176" lon="-2.9850301612">
        <ele>65.03</ele>
        <time>2018-11-12T08:42:07Z</time>
      </trkpt>
      <trkpt lat="36.7648966424" lon="-2.9849988129">
        <ele>64.55</ele>
        <time>2018-11-12T08:42:10Z</time>
      </trkpt>
      <trkpt lat="36.7649196088" lon="-2.9849366192">
        <ele>64.55</ele>
        <time>2018-11-12T08:42:12Z</time>
      </trkpt>
      <trkpt lat="36.7649093829" lon="-2.9848929495">
        <ele>64.55</ele>
        <time>2018-11-12T08:42:13Z</time>
      </trkpt>
      <trkpt lat="36.7648956366" lon="-2.9848585837">
        <ele>64.07</ele>
        <time>2018-11-12T08:42:14Z</time>
      </trkpt>
      <trkpt lat="36.7648771964" lon="-2.9848187696">
        <ele>63.58</ele>
        <time>2018-11-12T08:42:15Z</time>
      </trkpt>
      <trkpt lat="36.7647476122" lon="-2.9845956434">
        <ele>62.14</ele>
        <time>2018-11-12T08:42:21Z</time>
      </trkpt>
      <trkpt lat="36.7646030243" lon="-2.9842855129">
        <ele>59.26</ele>
        <time>2018-11-12T08:42:29Z</time>
      </trkpt>
      <trkpt lat="36.7644495517" lon="-2.9839404300">
        <ele>56.86</ele>
        <time>2018-11-12T08:42:37Z</time>
      </trkpt>
      <trkpt lat="36.7642964981" lon="-2.9835795052">
        <ele>55.41</ele>
        <time>2018-11-12T08:42:44Z</time>
      </trkpt>
      <trkpt lat="36.7640904710" lon="-2.9831401259">
        <ele>52.53</ele>
        <time>2018-11-12T08:42:51Z</time>
      </trkpt>
      <trkpt lat="36.7637967691" lon="-2.9826098867">
        <ele>49.65</ele>
        <time>2018-11-12T08:42:58Z</time>
      </trkpt>
      <trkpt lat="36.7636743933" lon="-2.9824747704">
        <ele>48.68</ele>
        <time>2018-11-12T08:43:00Z</time>
      </trkpt>
      <trkpt lat="36.7636090983" lon="-2.9824168514">
        <ele>48.20</ele>
        <time>2018-11-12T08:43:01Z</time>
      </trkpt>
      <trkpt lat="36.7635419592" lon="-2.9823658895">
        <ele>47.72</ele>
        <time>2018-11-12T08:43:02Z</time>
      </trkpt>
      <trkpt lat="36.7634689528" lon="-2.9823220521">
        <ele>47.24</ele>
        <time>2018-11-12T08:43:03Z</time>
      </trkpt>
      <trkpt lat="36.7633945215" lon="-2.9822862614">
        <ele>46.76</ele>
        <time>2018-11-12T08:43:04Z</time>
      </trkpt>
      <trkpt lat="36.7632333376" lon="-2.9822280910">
        <ele>45.80</ele>
        <time>2018-11-12T08:43:06Z</time>
      </trkpt>
      <trkpt lat="36.7631502729" lon="-2.9822141770">
        <ele>45.32</ele>
        <time>2018-11-12T08:43:07Z</time>
      </trkpt>
      <trkpt lat="36.7630614247" lon="-2.9822068010">
        <ele>44.84</ele>
        <time>2018-11-12T08:43:08Z</time>
      </trkpt>
      <trkpt lat="36.7629749235" lon="-2.9822074715">
        <ele>44.36</ele>
        <time>2018-11-12T08:43:09Z</time>
      </trkpt>
      <trkpt lat="36.7628885899" lon="-2.9822143447">
        <ele>43.88</ele>
        <time>2018-11-12T08:43:10Z</time>
      </trkpt>
      <trkpt lat="36.7627975624" lon="-2.9822267499">
        <ele>43.40</ele>
        <time>2018-11-12T08:43:11Z</time>
      </trkpt>
      <trkpt lat="36.7620193865" lon="-2.9823456891">
        <ele>40.03</ele>
        <time>2018-11-12T08:43:20Z</time>
      </trkpt>
      <trkpt lat="36.7616020516" lon="-2.9823031090">
        <ele>37.63</ele>
        <time>2018-11-12T08:43:26Z</time>
      </trkpt>
      <trkpt lat="36.7609953694" lon="-2.9821788054">
        <ele>34.26</ele>
        <time>2018-11-12T08:43:35Z</time>
      </trkpt>
      <trkpt lat="36.7609196808" lon="-2.9821760394">
        <ele>33.78</ele>
        <time>2018-11-12T08:43:36Z</time>
      </trkpt>
      <trkpt lat="36.7608374543" lon="-2.9821849242">
        <ele>33.30</ele>
        <time>2018-11-12T08:43:37Z</time>
      </trkpt>
      <trkpt lat="36.7607593350" lon="-2.9822028615">
        <ele>32.82</ele>
        <time>2018-11-12T08:43:38Z</time>
      </trkpt>
      <trkpt lat="36.7606820539" lon="-2.9822313599">
        <ele>32.34</ele>
        <time>2018-11-12T08:43:39Z</time>
      </trkpt>
      <trkpt lat="36.7606050242" lon="-2.9822711740">
        <ele>32.34</ele>
        <time>2018-11-12T08:43:40Z</time>
      </trkpt>
      <trkpt lat="36.7605392262" lon="-2.9823156819">
        <ele>31.86</ele>
        <time>2018-11-12T08:43:41Z</time>
      </trkpt>
      <trkpt lat="36.7604518030" lon="-2.9823900294">
        <ele>31.38</ele>
        <time>2018-11-12T08:43:42Z</time>
      </trkpt>
      <trkpt lat="36.7603937164" lon="-2.9824547376">
        <ele>31.38</ele>
        <time>2018-11-12T08:43:43Z</time>
      </trkpt>
      <trkpt lat="36.7603430897" lon="-2.9825176857">
        <ele>30.90</ele>
        <time>2018-11-12T08:43:44Z</time>
      </trkpt>
      <trkpt lat="36.7602953129" lon="-2.9825819749">
        <ele>30.90</ele>
        <time>2018-11-12T08:43:45Z</time>
      </trkpt>
      <trkpt lat="36.7601842526" lon="-2.9827869125">
        <ele>29.94</ele>
        <time>2018-11-12T08:43:49Z</time>
      </trkpt>
      <trkpt lat="36.7600796465" lon="-2.9830889963">
        <ele>29.46</ele>
        <time>2018-11-12T08:43:54Z</time>
      </trkpt>
      <trkpt lat="36.7600456160" lon="-2.9831496812">
        <ele>29.46</ele>
        <time>2018-11-12T08:43:55Z</time>
      </trkpt>
      <trkpt lat="36.7599400040" lon="-2.9833324067">
        <ele>29.46</ele>
        <time>2018-11-12T08:43:58Z</time>
      </trkpt>
      <trkpt lat="36.7596866190" lon="-2.9839125182">
        <ele>29.94</ele>
        <time>2018-11-12T08:44:07Z</time>
      </trkpt>
      <trkpt lat="36.7593799252" lon="-2.9844785482">
        <ele>32.34</ele>
        <time>2018-11-12T08:44:17Z</time>
      </trkpt>
      <trkpt lat="36.7591101117" lon="-2.9849610943">
        <ele>33.78</ele>
        <time>2018-11-12T08:44:27Z</time>
      </trkpt>
      <trkpt lat="36.7590995505" lon="-2.9849893413">
        <ele>34.26</ele>
        <time>2018-11-12T08:44:31Z</time>
      </trkpt>
      <trkpt lat="36.7590547074" lon="-2.9850676283">
        <ele>34.26</ele>
        <time>2018-11-12T08:44:37Z</time>
      </trkpt>
      <trkpt lat="36.7589563876" lon="-2.9852791876">
        <ele>36.19</ele>
        <time>2018-11-12T08:44:43Z</time>
      </trkpt>
      <trkpt lat="36.7587633524" lon="-2.9857714567">
        <ele>38.59</ele>
        <time>2018-11-12T08:44:55Z</time>
      </trkpt>
      <trkpt lat="36.7585943732" lon="-2.9861232452">
        <ele>39.07</ele>
        <time>2018-11-12T08:45:03Z</time>
      </trkpt>
      <trkpt lat="36.7583265714" lon="-2.9865218047">
        <ele>38.59</ele>
        <time>2018-11-12T08:45:12Z</time>
      </trkpt>
      <trkpt lat="36.7579752021" lon="-2.9870828055">
        <ele>38.11</ele>
        <time>2018-11-12T08:45:23Z</time>
      </trkpt>
      <trkpt lat="36.7577967513" lon="-2.9872938618">
        <ele>38.59</ele>
        <time>2018-11-12T08:45:28Z</time>
      </trkpt>
      <trkpt lat="36.7577503156" lon="-2.9873140622">
        <ele>38.59</ele>
        <time>2018-11-12T08:45:29Z</time>
      </trkpt>
      <trkpt lat="36.7577007785" lon="-2.9873195104">
        <ele>38.59</ele>
        <time>2018-11-12T08:45:30Z</time>
      </trkpt>
      <trkpt lat="36.7573131155" lon="-2.9873614199">
        <ele>36.67</ele>
        <time>2018-11-12T08:45:38Z</time>
      </trkpt>
      <trkpt lat="36.7570629995" lon="-2.9873998929">
        <ele>35.71</ele>
        <time>2018-11-12T08:45:45Z</time>
      </trkpt>
      <trkpt lat="36.7570169829" lon="-2.9874356836">
        <ele>35.23</ele>
        <time>2018-11-12T08:45:50Z</time>
      </trkpt>
      <trkpt lat="36.7570134625" lon="-2.9874368571">
        <ele>35.23</ele>
        <time>2018-11-12T08:46:12Z</time>
      </trkpt>
      <trkpt lat="36.7570000514" lon="-2.9874318279">
        <ele>35.23</ele>
        <time>2018-11-12T08:46:14Z</time>
      </trkpt>
      <trkpt lat="36.7569629196" lon="-2.9874190874">
        <ele>35.71</ele>
        <time>2018-11-12T08:46:16Z</time>
      </trkpt>
      <trkpt lat="36.7569378577" lon="-2.9874217696">
        <ele>35.71</ele>
        <time>2018-11-12T08:46:17Z</time>
      </trkpt>
      <trkpt lat="36.7569101136" lon="-2.9874256253">
        <ele>36.19</ele>
        <time>2018-11-12T08:46:18Z</time>
      </trkpt>
      <trkpt lat="36.7568836268" lon="-2.9874297325">
        <ele>36.19</ele>
        <time>2018-11-12T08:46:19Z</time>
      </trkpt>
      <trkpt lat="36.7568519432" lon="-2.9874315765">
        <ele>36.19</ele>
        <time>2018-11-12T08:46:20Z</time>
      </trkpt>
      <trkpt lat="36.7568179965" lon="-2.9874318279">
        <ele>35.71</ele>
        <time>2018-11-12T08:46:21Z</time>
      </trkpt>
      <trkpt lat="36.7564928625" lon="-2.9874637630">
        <ele>35.23</ele>
        <time>2018-11-12T08:46:28Z</time>
      </trkpt>
      <trkpt lat="36.7560744379" lon="-2.9875352606">
        <ele>33.30</ele>
        <time>2018-11-12T08:46:35Z</time>
      </trkpt>
      <trkpt lat="36.7555711884" lon="-2.9876118712">
        <ele>30.42</ele>
        <time>2018-11-12T08:46:44Z</time>
      </trkpt>
      <trkpt lat="36.7550220899" lon="-2.9877066705">
        <ele>27.05</ele>
        <time>2018-11-12T08:46:52Z</time>
      </trkpt>
      <trkpt lat="36.7544910125" lon="-2.9877840355">
        <ele>23.69</ele>
        <time>2018-11-12T08:46:59Z</time>
      </trkpt>
      <trkpt lat="36.7540160939" lon="-2.9878501687">
        <ele>19.84</ele>
        <time>2018-11-12T08:47:05Z</time>
      </trkpt>
      <trkpt lat="36.7539573368" lon="-2.9878768232">
        <ele>19.36</ele>
        <time>2018-11-12T08:47:06Z</time>
      </trkpt>
      <trkpt lat="36.7539009266" lon="-2.9879125301">
        <ele>18.40</ele>
        <time>2018-11-12T08:47:07Z</time>
      </trkpt>
      <trkpt lat="36.7538456898" lon="-2.9879556131">
        <ele>17.92</ele>
        <time>2018-11-12T08:47:08Z</time>
      </trkpt>
      <trkpt lat="36.7537958175" lon="-2.9879955109">
        <ele>16.96</ele>
        <time>2018-11-12T08:47:09Z</time>
      </trkpt>
      <trkpt lat="36.7536415067" lon="-2.9881130252">
        <ele>15.52</ele>
        <time>2018-11-12T08:47:12Z</time>
      </trkpt>
      <trkpt lat="36.7535827495" lon="-2.9881306272">
        <ele>15.52</ele>
        <time>2018-11-12T08:47:13Z</time>
      </trkpt>
      <trkpt lat="36.7535291053" lon="-2.9881213233">
        <ele>15.04</ele>
        <time>2018-11-12T08:47:14Z</time>
      </trkpt>
      <trkpt lat="36.7534098309" lon="-2.9879841954">
        <ele>14.56</ele>
        <time>2018-11-12T08:47:17Z</time>
      </trkpt>
      <trkpt lat="36.7533991020" lon="-2.9879085068">
        <ele>14.56</ele>
        <time>2018-11-12T08:47:18Z</time>
      </trkpt>
      <trkpt lat="36.7534033768" lon="-2.9878453910">
        <ele>14.56</ele>
        <time>2018-11-12T08:47:19Z</time>
      </trkpt>
      <trkpt lat="36.7534146924" lon="-2.9877985362">
        <ele>14.56</ele>
        <time>2018-11-12T08:47:20Z</time>
      </trkpt>
      <trkpt lat="36.7534590326" lon="-2.9877142981">
        <ele>15.04</ele>
        <time>2018-11-12T08:47:22Z</time>
      </trkpt>
      <trkpt lat="36.7534804065" lon="-2.9876788426">
        <ele>15.04</ele>
        <time>2018-11-12T08:47:23Z</time>
      </trkpt>
      <trkpt lat="36.7535237409" lon="-2.9875402059">
        <ele>14.56</ele>
        <time>2018-11-12T08:47:28Z</time>
      </trkpt>
      <trkpt lat="36.7535095755" lon="-2.9875427205">
        <ele>14.56</ele>
        <time>2018-11-12T08:47:35Z</time>
      </trkpt>
      <trkpt lat="36.7535146885" lon="-2.9875407927">
        <ele>15.04</ele>
        <time>2018-11-12T08:47:49Z</time>
      </trkpt>
      <trkpt lat="36.7535286862" lon="-2.9875295609">
        <ele>15.52</ele>
        <time>2018-11-12T08:48:03Z</time>
      </trkpt>
      <trkpt lat="36.7535416782" lon="-2.9875209276">
        <ele>15.52</ele>
        <time>2018-11-12T08:48:04Z</time>
      </trkpt>
      <trkpt lat="36.7535575200" lon="-2.9875259567">
        <ele>15.52</ele>
        <time>2018-11-12T08:48:05Z</time>
      </trkpt>
      <trkpt lat="36.7535696737" lon="-2.9875497613">
        <ele>15.52</ele>
        <time>2018-11-12T08:48:06Z</time>
      </trkpt>
      <trkpt lat="36.7535764631" lon="-2.9875759128">
        <ele>15.52</ele>
        <time>2018-11-12T08:48:07Z</time>
      </trkpt>
      <trkpt lat="36.7535874434" lon="-2.9876065906">
        <ele>16.00</ele>
        <time>2018-11-12T08:48:08Z</time>
      </trkpt>
      <trkpt lat="36.7536056321" lon="-2.9876415431">
        <ele>16.00</ele>
        <time>2018-11-12T08:48:09Z</time>
      </trkpt>
      <trkpt lat="36.7536282632" lon="-2.9876769986">
        <ele>16.00</ele>
        <time>2018-11-12T08:48:10Z</time>
      </trkpt>
      <trkpt lat="36.7536519002" lon="-2.9877074249">
        <ele>16.00</ele>
        <time>2018-11-12T08:48:11Z</time>
      </trkpt>
      <trkpt lat="36.7536814045" lon="-2.9877427965">
        <ele>16.48</ele>
        <time>2018-11-12T08:48:12Z</time>
      </trkpt>
      <trkpt lat="36.7537523992" lon="-2.9878921621">
        <ele>16.48</ele>
        <time>2018-11-12T08:48:16Z</time>
      </trkpt>
      <trkpt lat="36.7537568416" lon="-2.9879416153">
        <ele>16.48</ele>
        <time>2018-11-12T08:48:17Z</time>
      </trkpt>
      <trkpt lat="36.7537475377" lon="-2.9879968520">
        <ele>16.00</ele>
        <time>2018-11-12T08:48:18Z</time>
      </trkpt>
      <trkpt lat="36.7537236493" lon="-2.9880530946">
        <ele>16.00</ele>
        <time>2018-11-12T08:48:19Z</time>
      </trkpt>
      <trkpt lat="36.7536952347" lon="-2.9880913161">
        <ele>15.52</ele>
        <time>2018-11-12T08:48:20Z</time>
      </trkpt>
      <trkpt lat="36.7536538281" lon="-2.9881286155">
        <ele>15.04</ele>
        <time>2018-11-12T08:48:21Z</time>
      </trkpt>
      <trkpt lat="36.7536122538" lon="-2.9881539289">
        <ele>15.04</ele>
        <time>2018-11-12T08:48:22Z</time>
      </trkpt>
      <trkpt lat="36.7535624653" lon="-2.9881713632">
        <ele>14.56</ele>
        <time>2018-11-12T08:48:23Z</time>
      </trkpt>
      <trkpt lat="36.7535042949" lon="-2.9881855287">
        <ele>14.56</ele>
        <time>2018-11-12T08:48:24Z</time>
      </trkpt>
      <trkpt lat="36.7534474656" lon="-2.9882043879">
        <ele>14.08</ele>
        <time>2018-11-12T08:48:25Z</time>
      </trkpt>
      <trkpt lat="36.7532855272" lon="-2.9882948287">
        <ele>13.60</ele>
        <time>2018-11-12T08:48:28Z</time>
      </trkpt>
      <trkpt lat="36.7532343976" lon="-2.9883397557">
        <ele>13.60</ele>
        <time>2018-11-12T08:48:29Z</time>
      </trkpt>
      <trkpt lat="36.7531848606" lon="-2.9883933160">
        <ele>13.12</ele>
        <time>2018-11-12T08:48:30Z</time>
      </trkpt>
      <trkpt lat="36.7531466391" lon="-2.9884478822">
        <ele>13.12</ele>
        <time>2018-11-12T08:48:31Z</time>
      </trkpt>
      <trkpt lat="36.7531117704" lon="-2.9885129258">
        <ele>13.12</ele>
        <time>2018-11-12T08:48:32Z</time>
      </trkpt>
      <trkpt lat="36.7530745547" lon="-2.9885888658">
        <ele>12.63</ele>
        <time>2018-11-12T08:48:33Z</time>
      </trkpt>
      <trkpt lat="36.7527253646" lon="-2.9894118849">
        <ele>12.63</ele>
        <time>2018-11-12T08:48:44Z</time>
      </trkpt>
      <trkpt lat="36.7524620052" lon="-2.9900637455">
        <ele>12.63</ele>
        <time>2018-11-12T08:48:53Z</time>
      </trkpt>
      <trkpt lat="36.7522439081" lon="-2.9907446075">
        <ele>13.12</ele>
        <time>2018-11-12T08:49:02Z</time>
      </trkpt>
      <trkpt lat="36.7519606836" lon="-2.9917092808">
        <ele>13.60</ele>
        <time>2018-11-12T08:49:15Z</time>
      </trkpt>
      <trkpt lat="36.7517891899" lon="-2.9922981933">
        <ele>13.12</ele>
        <time>2018-11-12T08:49:23Z</time>
      </trkpt>
      <trkpt lat="36.7515817378" lon="-2.9929976631">
        <ele>12.15</ele>
        <time>2018-11-12T08:49:33Z</time>
      </trkpt>
      <trkpt lat="36.7515519820" lon="-2.9931317735">
        <ele>12.63</ele>
        <time>2018-11-12T08:49:35Z</time>
      </trkpt>
      <trkpt lat="36.7515453603" lon="-2.9931983259">
        <ele>12.63</ele>
        <time>2018-11-12T08:49:36Z</time>
      </trkpt>
      <trkpt lat="36.7515465338" lon="-2.9932694882">
        <ele>13.12</ele>
        <time>2018-11-12T08:49:37Z</time>
      </trkpt>
      <trkpt lat="36.7515529040" lon="-2.9933354538">
        <ele>13.12</ele>
        <time>2018-11-12T08:49:38Z</time>
      </trkpt>
      <trkpt lat="36.7515614536" lon="-2.9934034310">
        <ele>13.60</ele>
        <time>2018-11-12T08:49:39Z</time>
      </trkpt>
      <trkpt lat="36.7515667342" lon="-2.9934689775">
        <ele>13.60</ele>
        <time>2018-11-12T08:49:40Z</time>
      </trkpt>
      <trkpt lat="36.7515616212" lon="-2.9935372062">
        <ele>13.60</ele>
        <time>2018-11-12T08:49:41Z</time>
      </trkpt>
      <trkpt lat="36.7515446898" lon="-2.9935994837">
        <ele>14.08</ele>
        <time>2018-11-12T08:49:42Z</time>
      </trkpt>
      <trkpt lat="36.7515140120" lon="-2.9936573189">
        <ele>14.08</ele>
        <time>2018-11-12T08:49:43Z</time>
      </trkpt>
      <trkpt lat="36.7514749523" lon="-2.9937030841">
        <ele>14.08</ele>
        <time>2018-11-12T08:49:44Z</time>
      </trkpt>
      <trkpt lat="36.7514248285" lon="-2.9937403835">
        <ele>14.08</ele>
        <time>2018-11-12T08:49:45Z</time>
      </trkpt>
      <trkpt lat="36.7513716035" lon="-2.9937649425">
        <ele>14.08</ele>
        <time>2018-11-12T08:49:46Z</time>
      </trkpt>
      <trkpt lat="36.7513199709" lon="-2.9937925190">
        <ele>14.56</ele>
        <time>2018-11-12T08:49:47Z</time>
      </trkpt>
      <trkpt lat="36.7512713559" lon="-2.9938309081">
        <ele>14.56</ele>
        <time>2018-11-12T08:49:48Z</time>
      </trkpt>
      <trkpt lat="36.7512293626" lon="-2.9938749131">
        <ele>15.04</ele>
        <time>2018-11-12T08:49:49Z</time>
      </trkpt>
      <trkpt lat="36.7511902191" lon="-2.9939267971">
        <ele>15.04</ele>
        <time>2018-11-12T08:49:50Z</time>
      </trkpt>
      <trkpt lat="36.7511588708" lon="-2.9939820338">
        <ele>15.52</ele>
        <time>2018-11-12T08:49:51Z</time>
      </trkpt>
      <trkpt lat="36.7511295341" lon="-2.9940427188">
        <ele>15.52</ele>
        <time>2018-11-12T08:49:52Z</time>
      </trkpt>
      <trkpt lat="36.7508206610" lon="-2.9946580343">
        <ele>17.44</ele>
        <time>2018-11-12T08:50:03Z</time>
      </trkpt>
      <trkpt lat="36.7505531944" lon="-2.9951313604">
        <ele>18.40</ele>
        <time>2018-11-12T08:50:12Z</time>
      </trkpt>
      <trkpt lat="36.7501740810" lon="-2.9957188480">
        <ele>20.32</ele>
        <time>2018-11-12T08:50:23Z</time>
      </trkpt>
      <trkpt lat="36.7498001643" lon="-2.9963032342">
        <ele>21.29</ele>
        <time>2018-11-12T08:50:34Z</time>
      </trkpt>
      <trkpt lat="36.7494042870" lon="-2.9969249200">
        <ele>21.29</ele>
        <time>2018-11-12T08:50:45Z</time>
      </trkpt>
      <trkpt lat="36.7489990219" lon="-2.9975430015">
        <ele>20.32</ele>
        <time>2018-11-12T08:50:57Z</time>
      </trkpt>
      <trkpt lat="36.7486531846" lon="-2.9980933573">
        <ele>19.84</ele>
        <time>2018-11-12T08:51:07Z</time>
      </trkpt>
      <trkpt lat="36.7482067645" lon="-2.9987818468">
        <ele>17.92</ele>
        <time>2018-11-12T08:51:18Z</time>
      </trkpt>
      <trkpt lat="36.7478756793" lon="-2.9993250780">
        <ele>16.96</ele>
        <time>2018-11-12T08:51:26Z</time>
      </trkpt>
      <trkpt lat="36.7478077020" lon="-2.9994829092">
        <ele>16.00</ele>
        <time>2018-11-12T08:51:28Z</time>
      </trkpt>
      <trkpt lat="36.7477871664" lon="-2.9995705839">
        <ele>15.52</ele>
        <time>2018-11-12T08:51:29Z</time>
      </trkpt>
      <trkpt lat="36.7477835622" lon="-2.9996575043">
        <ele>15.52</ele>
        <time>2018-11-12T08:51:30Z</time>
      </trkpt>
      <trkpt lat="36.7477939557" lon="-2.9997431673">
        <ele>15.04</ele>
        <time>2018-11-12T08:51:31Z</time>
      </trkpt>
      <trkpt lat="36.7478140723" lon="-2.9998329375">
        <ele>15.04</ele>
        <time>2018-11-12T08:51:32Z</time>
      </trkpt>
      <trkpt lat="36.7478303332" lon="-2.9999143258">
        <ele>14.56</ele>
        <time>2018-11-12T08:51:33Z</time>
      </trkpt>
      <trkpt lat="36.7478351109" lon="-3.0000009947">
        <ele>14.56</ele>
        <time>2018-11-12T08:51:34Z</time>
      </trkpt>
      <trkpt lat="36.7478209455" lon="-3.0000924412">
        <ele>14.56</ele>
        <time>2018-11-12T08:51:35Z</time>
      </trkpt>
      <trkpt lat="36.7477946263" lon="-3.0001693871">
        <ele>14.56</ele>
        <time>2018-11-12T08:51:36Z</time>
      </trkpt>
      <trkpt lat="36.7477584165" lon="-3.0002442375">
        <ele>14.56</ele>
        <time>2018-11-12T08:51:37Z</time>
      </trkpt>
      <trkpt lat="36.7477278225" lon="-3.0003125500">
        <ele>14.08</ele>
        <time>2018-11-12T08:51:38Z</time>
      </trkpt>
      <trkpt lat="36.7477043532" lon="-3.0003951956">
        <ele>14.08</ele>
        <time>2018-11-12T08:51:39Z</time>
      </trkpt>
      <trkpt lat="36.7476978153" lon="-3.0004806910">
        <ele>13.60</ele>
        <time>2018-11-12T08:51:40Z</time>
      </trkpt>
      <trkpt lat="36.7477048561" lon="-3.0005627498">
        <ele>13.60</ele>
        <time>2018-11-12T08:51:41Z</time>
      </trkpt>
      <trkpt lat="36.7477157526" lon="-3.0006412882">
        <ele>13.12</ele>
        <time>2018-11-12T08:51:42Z</time>
      </trkpt>
      <trkpt lat="36.7478423193" lon="-3.0014664028">
        <ele>11.19</ele>
        <time>2018-11-12T08:51:52Z</time>
      </trkpt>
      <trkpt lat="36.7479804531" lon="-3.0023729894">
        <ele>12.15</ele>
        <time>2018-11-12T08:52:03Z</time>
      </trkpt>
      <trkpt lat="36.7480758391" lon="-3.0029946752">
        <ele>12.15</ele>
        <time>2018-11-12T08:52:11Z</time>
      </trkpt>
      <trkpt lat="36.7481863964" lon="-3.0037293490">
        <ele>13.60</ele>
        <time>2018-11-12T08:52:21Z</time>
      </trkpt>
      <trkpt lat="36.7483282182" lon="-3.0046458263">
        <ele>14.56</ele>
        <time>2018-11-12T08:52:34Z</time>
      </trkpt>
      <trkpt lat="36.7483687866" lon="-3.0049283803">
        <ele>15.04</ele>
        <time>2018-11-12T08:52:38Z</time>
      </trkpt>
      <trkpt lat="36.7483751569" lon="-3.0049975310">
        <ele>15.52</ele>
        <time>2018-11-12T08:52:39Z</time>
      </trkpt>
      <trkpt lat="36.7484701239" lon="-3.0056407582">
        <ele>18.40</ele>
        <time>2018-11-12T08:52:48Z</time>
      </trkpt>
      <trkpt lat="36.7485904042" lon="-3.0063769408">
        <ele>19.36</ele>
        <time>2018-11-12T08:52:59Z</time>
      </trkpt>
      <trkpt lat="36.7486605607" lon="-3.0068170745">
        <ele>19.36</ele>
        <time>2018-11-12T08:53:05Z</time>
      </trkpt>
      <trkpt lat="36.7486806773" lon="-3.0068870634">
        <ele>19.36</ele>
        <time>2018-11-12T08:53:06Z</time>
      </trkpt>
      <trkpt lat="36.7487053201" lon="-3.0069471616">
        <ele>19.36</ele>
        <time>2018-11-12T08:53:07Z</time>
      </trkpt>
      <trkpt lat="36.7487895582" lon="-3.0071238521">
        <ele>18.88</ele>
        <time>2018-11-12T08:53:10Z</time>
      </trkpt>
      <trkpt lat="36.7487964313" lon="-3.0071752332">
        <ele>18.88</ele>
        <time>2018-11-12T08:53:11Z</time>
      </trkpt>
      <trkpt lat="36.7487883847" lon="-3.0072399415">
        <ele>18.88</ele>
        <time>2018-11-12T08:53:12Z</time>
      </trkpt>
      <trkpt lat="36.7487624846" lon="-3.0072922446">
        <ele>18.88</ele>
        <time>2018-11-12T08:53:13Z</time>
      </trkpt>
      <trkpt lat="36.7487204913" lon="-3.0073302146">
        <ele>19.36</ele>
        <time>2018-11-12T08:53:14Z</time>
      </trkpt>
      <trkpt lat="36.7486577109" lon="-3.0073491577">
        <ele>18.88</ele>
        <time>2018-11-12T08:53:16Z</time>
      </trkpt>
      <trkpt lat="36.7485891469" lon="-3.0073200725">
        <ele>18.88</ele>
        <time>2018-11-12T08:53:17Z</time>
      </trkpt>
      <trkpt lat="36.7485448904" lon="-3.0072923284">
        <ele>18.88</ele>
        <time>2018-11-12T08:53:18Z</time>
      </trkpt>
      <trkpt lat="36.7485017236" lon="-3.0072738882">
        <ele>18.88</ele>
        <time>2018-11-12T08:53:19Z</time>
      </trkpt>
      <trkpt lat="36.7484628316" lon="-3.0072622374">
        <ele>18.88</ele>
        <time>2018-11-12T08:53:20Z</time>
      </trkpt>
      <trkpt lat="36.7484200839" lon="-3.0072581302">
        <ele>18.40</ele>
        <time>2018-11-12T08:53:21Z</time>
      </trkpt>
      <trkpt lat="36.7483707983" lon="-3.0072594713">
        <ele>18.88</ele>
        <time>2018-11-12T08:53:22Z</time>
      </trkpt>
      <trkpt lat="36.7483246140" lon="-3.0072649196">
        <ele>19.36</ele>
        <time>2018-11-12T08:53:23Z</time>
      </trkpt>
      <trkpt lat="36.7479661200" lon="-3.0073618982">
        <ele>18.88</ele>
        <time>2018-11-12T08:53:31Z</time>
      </trkpt>
      <trkpt lat="36.7478781939" lon="-3.0073792487">
        <ele>18.88</ele>
        <time>2018-11-12T08:53:33Z</time>
      </trkpt>
      <trkpt lat="36.7477518786" lon="-3.0074138660">
        <ele>17.92</ele>
        <time>2018-11-12T08:53:36Z</time>
      </trkpt>
      <trkpt lat="36.7475071270" lon="-3.0074499082">
        <ele>17.44</ele>
        <time>2018-11-12T08:53:42Z</time>
      </trkpt>
      <trkpt lat="36.7474619485" lon="-3.0074597988">
        <ele>17.44</ele>
        <time>2018-11-12T08:53:43Z</time>
      </trkpt>
      <trkpt lat="36.7470724415" lon="-3.0075102579">
        <ele>15.52</ele>
        <time>2018-11-12T08:53:51Z</time>
      </trkpt>
      <trkpt lat="36.7464834452" lon="-3.0075915623">
        <ele>14.56</ele>
        <time>2018-11-12T08:54:02Z</time>
      </trkpt>
      <trkpt lat="36.7459922656" lon="-3.0076550134">
        <ele>13.60</ele>
        <time>2018-11-12T08:54:11Z</time>
      </trkpt>
      <trkpt lat="36.7453694902" lon="-3.0077427719">
        <ele>12.63</ele>
        <time>2018-11-12T08:54:22Z</time>
      </trkpt>
      <trkpt lat="36.7447436973" lon="-3.0079337955">
        <ele>12.15</ele>
        <time>2018-11-12T08:54:33Z</time>
      </trkpt>
      <trkpt lat="36.7441852950" lon="-3.0081215501">
        <ele>11.67</ele>
        <time>2018-11-12T08:54:43Z</time>
      </trkpt>
      <trkpt lat="36.7436651979" lon="-3.0082834885">
        <ele>11.67</ele>
        <time>2018-11-12T08:54:52Z</time>
      </trkpt>
      <trkpt lat="36.7434137408" lon="-3.0083943810">
        <ele>11.67</ele>
        <time>2018-11-12T08:54:57Z</time>
      </trkpt>
      <trkpt lat="36.7432645429" lon="-3.0084615201">
        <ele>11.19</ele>
        <time>2018-11-12T08:55:02Z</time>
      </trkpt>
      <trkpt lat="36.7430503853" lon="-3.0085441656">
        <ele>10.23</ele>
        <time>2018-11-12T08:55:09Z</time>
      </trkpt>
      <trkpt lat="36.7427249998" lon="-3.0087190960">
        <ele>9.75</ele>
        <time>2018-11-12T08:55:19Z</time>
      </trkpt>
      <trkpt lat="36.7426343914" lon="-3.0087631848">
        <ele>9.27</ele>
        <time>2018-11-12T08:55:25Z</time>
      </trkpt>
      <trkpt lat="36.7426103354" lon="-3.0087770149">
        <ele>8.79</ele>
        <time>2018-11-12T08:55:27Z</time>
      </trkpt>
      <trkpt lat="36.7425931524" lon="-3.0088226963">
        <ele>7.35</ele>
        <time>2018-11-12T08:55:34Z</time>
      </trkpt>
      <trkpt lat="36.7426149454" lon="-3.0088242050">
        <ele>6.87</ele>
        <time>2018-11-12T08:55:48Z</time>
      </trkpt>
      <trkpt lat="36.7426172085" lon="-3.0088236183">
        <ele>6.87</ele>
        <time>2018-11-12T08:55:57Z</time>
      </trkpt>
      <trkpt lat="36.7426141072" lon="-3.0088200141">
        <ele>7.83</ele>
        <time>2018-11-12T08:56:13Z</time>
      </trkpt>
      <trkpt lat="36.7426192202" lon="-3.0088108778">
        <ele>8.31</ele>
        <time>2018-11-12T08:56:34Z</time>
      </trkpt>
      <trkpt lat="36.7426202260" lon="-3.0088087823">
        <ele>8.31</ele>
        <time>2018-11-12T08:56:56Z</time>
      </trkpt>
      <trkpt lat="36.7426159512" lon="-3.0088148173">
        <ele>7.35</ele>
        <time>2018-11-12T08:57:14Z</time>
      </trkpt>
      <trkpt lat="36.7426136881" lon="-3.0088195950">
        <ele>7.35</ele>
        <time>2018-11-12T08:57:31Z</time>
      </trkpt>
      <trkpt lat="36.7426118441" lon="-3.0088257976">
        <ele>7.83</ele>
        <time>2018-11-12T08:57:45Z</time>
      </trkpt>
      <trkpt lat="36.7426141072" lon="-3.0088264681">
        <ele>7.83</ele>
        <time>2018-11-12T08:58:01Z</time>
      </trkpt>
      <trkpt lat="36.7426190525" lon="-3.0088201817">
        <ele>8.31</ele>
        <time>2018-11-12T08:58:16Z</time>
      </trkpt>
      <trkpt lat="36.7426191363" lon="-3.0088138115">
        <ele>7.83</ele>
        <time>2018-11-12T08:58:35Z</time>
      </trkpt>
      <trkpt lat="36.7426162027" lon="-3.0088092014">
        <ele>6.87</ele>
        <time>2018-11-12T08:58:50Z</time>
      </trkpt>
      <trkpt lat="36.7426118441" lon="-3.0088157393">
        <ele>6.87</ele>
        <time>2018-11-12T08:59:06Z</time>
      </trkpt>
      <trkpt lat="36.7426105030" lon="-3.0088194273">
        <ele>7.83</ele>
        <time>2018-11-12T08:59:22Z</time>
      </trkpt>
      <trkpt lat="36.7426088266" lon="-3.0088211875">
        <ele>7.83</ele>
        <time>2018-11-12T08:59:34Z</time>
      </trkpt>
      <trkpt lat="36.7426036298" lon="-3.0088173319">
        <ele>8.31</ele>
        <time>2018-11-12T08:59:49Z</time>
      </trkpt>
      <trkpt lat="36.7426080722" lon="-3.0088190082">
        <ele>9.75</ele>
        <time>2018-11-12T09:00:00Z</time>
      </trkpt>
      <trkpt lat="36.7426208127" lon="-3.0088579003">
        <ele>9.75</ele>
        <time>2018-11-12T09:00:03Z</time>
      </trkpt>
      <trkpt lat="36.7427118402" lon="-3.0089768395">
        <ele>9.27</ele>
        <time>2018-11-12T09:00:11Z</time>
      </trkpt>
      <trkpt lat="36.7428343836" lon="-3.0091223493">
        <ele>9.27</ele>
        <time>2018-11-12T09:00:19Z</time>
      </trkpt>
      <trkpt lat="36.7429399956" lon="-3.0092880595">
        <ele>8.79</ele>
        <time>2018-11-12T09:00:28Z</time>
      </trkpt>
      <trkpt lat="36.7430213001" lon="-3.0094245169">
        <ele>8.79</ele>
        <time>2018-11-12T09:00:35Z</time>
      </trkpt>
      <trkpt lat="36.7431072984" lon="-3.0095914006">
        <ele>8.79</ele>
        <time>2018-11-12T09:00:43Z</time>
      </trkpt>
      <trkpt lat="36.7431311868" lon="-3.0096303765">
        <ele>9.27</ele>
        <time>2018-11-12T09:00:48Z</time>
      </trkpt>
      <trkpt lat="36.7431553267" lon="-3.0097201467">
        <ele>8.79</ele>
        <time>2018-11-12T09:00:56Z</time>
      </trkpt>
      <trkpt lat="36.7432484496" lon="-3.0099988449">
        <ele>8.79</ele>
        <time>2018-11-12T09:01:04Z</time>
      </trkpt>
      <trkpt lat="36.7433334421" lon="-3.0103464425">
        <ele>8.31</ele>
        <time>2018-11-12T09:01:14Z</time>
      </trkpt>
      <trkpt lat="36.7434187699" lon="-3.0107039306">
        <ele>7.83</ele>
        <time>2018-11-12T09:01:24Z</time>
      </trkpt>
      <trkpt lat="36.7435009964" lon="-3.0110584851">
        <ele>7.83</ele>
        <time>2018-11-12T09:01:33Z</time>
      </trkpt>
      <trkpt lat="36.7435902636" lon="-3.0114118662">
        <ele>7.83</ele>
        <time>2018-11-12T09:01:43Z</time>
      </trkpt>
      <trkpt lat="36.7437427305" lon="-3.0115692783">
        <ele>7.83</ele>
        <time>2018-11-12T09:01:49Z</time>
      </trkpt>
      <trkpt lat="36.7437556386" lon="-3.0116220005">
        <ele>7.35</ele>
        <time>2018-11-12T09:01:50Z</time>
      </trkpt>
      <trkpt lat="36.7437645234" lon="-3.0116572883">
        <ele>7.35</ele>
        <time>2018-11-12T09:01:51Z</time>
      </trkpt>
      <trkpt lat="36.7437827960" lon="-3.0117021315">
        <ele>7.83</ele>
        <time>2018-11-12T09:01:52Z</time>
      </trkpt>
      <trkpt lat="36.7438118812" lon="-3.0117474776">
        <ele>7.83</ele>
        <time>2018-11-12T09:01:53Z</time>
      </trkpt>
      <trkpt lat="36.7438355181" lon="-3.0117825978">
        <ele>8.31</ele>
        <time>2018-11-12T09:01:54Z</time>
      </trkpt>
      <trkpt lat="36.7438972928" lon="-3.0119288620">
        <ele>7.83</ele>
        <time>2018-11-12T09:02:00Z</time>
      </trkpt>
      <trkpt lat="36.7439626716" lon="-3.0121532455">
        <ele>7.35</ele>
        <time>2018-11-12T09:02:06Z</time>
      </trkpt>
      <trkpt lat="36.7440884002" lon="-3.0123721808">
        <ele>7.35</ele>
        <time>2018-11-12T09:02:12Z</time>
      </trkpt>
      <trkpt lat="36.7442901526" lon="-3.0126797128">
        <ele>7.83</ele>
        <time>2018-11-12T09:02:21Z</time>
      </trkpt>
      <trkpt lat="36.7444344889" lon="-3.0130081158">
        <ele>7.83</ele>
        <time>2018-11-12T09:02:29Z</time>
      </trkpt>
      <trkpt lat="36.7446594592" lon="-3.0134115368">
        <ele>7.35</ele>
        <time>2018-11-12T09:02:39Z</time>
      </trkpt>
      <trkpt lat="36.7448827531" lon="-3.0138791632">
        <ele>6.87</ele>
        <time>2018-11-12T09:02:49Z</time>
      </trkpt>
      <trkpt lat="36.7449034564" lon="-3.0139259342">
        <ele>7.35</ele>
        <time>2018-11-12T09:02:50Z</time>
      </trkpt>
      <trkpt lat="36.7450762913" lon="-3.0143866874">
        <ele>6.87</ele>
        <time>2018-11-12T09:03:00Z</time>
      </trkpt>
      <trkpt lat="36.7452295963" lon="-3.0148930382">
        <ele>6.87</ele>
        <time>2018-11-12T09:03:10Z</time>
      </trkpt>
      <trkpt lat="36.7453835718" lon="-3.0154422205">
        <ele>6.39</ele>
        <time>2018-11-12T09:03:21Z</time>
      </trkpt>
      <trkpt lat="36.7454444245" lon="-3.0155682005">
        <ele>6.39</ele>
        <time>2018-11-12T09:03:24Z</time>
      </trkpt>
      <trkpt lat="36.7454409879" lon="-3.0156143010">
        <ele>5.91</ele>
        <time>2018-11-12T09:03:25Z</time>
      </trkpt>
      <trkpt lat="36.7454292532" lon="-3.0156566296">
        <ele>5.91</ele>
        <time>2018-11-12T09:03:26Z</time>
      </trkpt>
      <trkpt lat="36.7454104777" lon="-3.0157412030">
        <ele>5.42</ele>
        <time>2018-11-12T09:03:28Z</time>
      </trkpt>
      <trkpt lat="36.7454130761" lon="-3.0157805141">
        <ele>5.42</ele>
        <time>2018-11-12T09:03:29Z</time>
      </trkpt>
      <trkpt lat="36.7454196140" lon="-3.0158144608">
        <ele>5.42</ele>
        <time>2018-11-12T09:03:30Z</time>
      </trkpt>
      <trkpt lat="36.7454249784" lon="-3.0158479046">
        <ele>5.42</ele>
        <time>2018-11-12T09:03:31Z</time>
      </trkpt>
      <trkpt lat="36.7454297561" lon="-3.0158876348">
        <ele>5.42</ele>
        <time>2018-11-12T09:03:32Z</time>
      </trkpt>
      <trkpt lat="36.7454544827" lon="-3.0161716137">
        <ele>5.91</ele>
        <time>2018-11-12T09:03:39Z</time>
      </trkpt>
      <trkpt lat="36.7455495335" lon="-3.0166765396">
        <ele>4.94</ele>
        <time>2018-11-12T09:03:52Z</time>
      </trkpt>
      <trkpt lat="36.7456669640" lon="-3.0167767033">
        <ele>4.46</ele>
        <time>2018-11-12T09:03:58Z</time>
      </trkpt>
      <trkpt lat="36.7457602546" lon="-3.0169521365">
        <ele>4.46</ele>
        <time>2018-11-12T09:04:04Z</time>
      </trkpt>
      <trkpt lat="36.7458232027" lon="-3.0171046034">
        <ele>4.94</ele>
        <time>2018-11-12T09:04:10Z</time>
      </trkpt>
      <trkpt lat="36.7459253781" lon="-3.0172763485">
        <ele>5.42</ele>
        <time>2018-11-12T09:04:17Z</time>
      </trkpt>
      <trkpt lat="36.7460520286" lon="-3.0174071901">
        <ele>4.46</ele>
        <time>2018-11-12T09:04:25Z</time>
      </trkpt>
      <trkpt lat="36.7461695429" lon="-3.0176087748">
        <ele>4.46</ele>
        <time>2018-11-12T09:04:33Z</time>
      </trkpt>
      <trkpt lat="36.7462785076" lon="-3.0177969486">
        <ele>3.98</ele>
        <time>2018-11-12T09:04:40Z</time>
      </trkpt>
      <trkpt lat="36.7463764083" lon="-3.0179738067">
        <ele>4.94</ele>
        <time>2018-11-12T09:04:46Z</time>
      </trkpt>
      <trkpt lat="36.7465053219" lon="-3.0182153732">
        <ele>5.42</ele>
        <time>2018-11-12T09:04:54Z</time>
      </trkpt>
      <trkpt lat="36.7466556095" lon="-3.0184514076">
        <ele>4.46</ele>
        <time>2018-11-12T09:05:02Z</time>
      </trkpt>
      <trkpt lat="36.7467443738" lon="-3.0186479632">
        <ele>4.46</ele>
        <time>2018-11-12T09:05:09Z</time>
      </trkpt>
      <trkpt lat="36.7468582839" lon="-3.0188921280">
        <ele>7.35</ele>
        <time>2018-11-12T09:05:18Z</time>
      </trkpt>
      <trkpt lat="36.7468966730" lon="-3.0190249812">
        <ele>8.31</ele>
        <time>2018-11-12T09:05:22Z</time>
      </trkpt>
      <trkpt lat="36.7468872014" lon="-3.0191278271">
        <ele>8.31</ele>
        <time>2018-11-12T09:05:26Z</time>
      </trkpt>
      <trkpt lat="36.7468319647" lon="-3.0192137416">
        <ele>8.31</ele>
        <time>2018-11-12T09:05:34Z</time>
      </trkpt>
      <trkpt lat="36.7468280252" lon="-3.0192400608">
        <ele>7.35</ele>
        <time>2018-11-12T09:05:44Z</time>
      </trkpt>
      <trkpt lat="36.7467994429" lon="-3.0192595907">
        <ele>7.35</ele>
        <time>2018-11-12T09:05:51Z</time>
      </trkpt>
      <trkpt lat="36.7467964254" lon="-3.0193437450">
        <ele>7.35</ele>
        <time>2018-11-12T09:05:55Z</time>
      </trkpt>
      <trkpt lat="36.7467880435" lon="-3.0194102973">
        <ele>7.35</ele>
        <time>2018-11-12T09:05:57Z</time>
      </trkpt>
      <trkpt lat="36.7467870377" lon="-3.0194475129">
        <ele>7.35</ele>
        <time>2018-11-12T09:05:58Z</time>
      </trkpt>
      <trkpt lat="36.7468224932" lon="-3.0196091160">
        <ele>6.87</ele>
        <time>2018-11-12T09:06:04Z</time>
      </trkpt>
      <trkpt lat="36.7469659913" lon="-3.0198514368">
        <ele>6.39</ele>
        <time>2018-11-12T09:06:13Z</time>
      </trkpt>
      <trkpt lat="36.7471212242" lon="-3.0200899020">
        <ele>5.91</ele>
        <time>2018-11-12T09:06:21Z</time>
      </trkpt>
      <trkpt lat="36.7472623754" lon="-3.0201250222">
        <ele>5.91</ele>
        <time>2018-11-12T09:06:25Z</time>
      </trkpt>
      <trkpt lat="36.7472945619" lon="-3.0201583821">
        <ele>6.39</ele>
        <time>2018-11-12T09:06:26Z</time>
      </trkpt>
      <trkpt lat="36.7473218869" lon="-3.0202024709">
        <ele>5.91</ele>
        <time>2018-11-12T09:06:27Z</time>
      </trkpt>
      <trkpt lat="36.7473389022" lon="-3.0202490743">
        <ele>5.91</ele>
        <time>2018-11-12T09:06:28Z</time>
      </trkpt>
      <trkpt lat="36.7473502178" lon="-3.0202986114">
        <ele>6.39</ele>
        <time>2018-11-12T09:06:29Z</time>
      </trkpt>
      <trkpt lat="36.7473593540" lon="-3.0203453824">
        <ele>6.39</ele>
        <time>2018-11-12T09:06:30Z</time>
      </trkpt>
      <trkpt lat="36.7474402394" lon="-3.0207468756">
        <ele>6.87</ele>
        <time>2018-11-12T09:06:38Z</time>
      </trkpt>
      <trkpt lat="36.7474943865" lon="-3.0209775455">
        <ele>6.87</ele>
        <time>2018-11-12T09:06:42Z</time>
      </trkpt>
      <trkpt lat="36.7475906946" lon="-3.0214541405">
        <ele>5.91</ele>
        <time>2018-11-12T09:06:50Z</time>
      </trkpt>
      <trkpt lat="36.7476522177" lon="-3.0218788516">
        <ele>4.94</ele>
        <time>2018-11-12T09:06:58Z</time>
      </trkpt>
      <trkpt lat="36.7476857454" lon="-3.0222463142">
        <ele>5.91</ele>
        <time>2018-11-12T09:07:07Z</time>
      </trkpt>
      <trkpt lat="36.7477385513" lon="-3.0226176325">
        <ele>6.87</ele>
        <time>2018-11-12T09:07:15Z</time>
      </trkpt>
      <trkpt lat="36.7477662116" lon="-3.0226374976">
        <ele>7.35</ele>
        <time>2018-11-12T09:07:16Z</time>
      </trkpt>
      <trkpt lat="36.7477973085" lon="-3.0226288643">
        <ele>7.35</ele>
        <time>2018-11-12T09:07:17Z</time>
      </trkpt>
      <trkpt lat="36.7478128988" lon="-3.0225960072">
        <ele>7.35</ele>
        <time>2018-11-12T09:07:18Z</time>
      </trkpt>
      <trkpt lat="36.7478242982" lon="-3.0225675926">
        <ele>7.35</ele>
        <time>2018-11-12T09:07:19Z</time>
      </trkpt>
      <trkpt lat="36.7478455883" lon="-3.0225354899">
        <ele>7.35</ele>
        <time>2018-11-12T09:07:20Z</time>
      </trkpt>
      <trkpt lat="36.7478627712" lon="-3.0225004535">
        <ele>7.83</ele>
        <time>2018-11-12T09:07:21Z</time>
      </trkpt>
      <trkpt lat="36.7478646990" lon="-3.0224602204">
        <ele>7.83</ele>
        <time>2018-11-12T09:07:22Z</time>
      </trkpt>
      <trkpt lat="36.7478562333" lon="-3.0223871302">
        <ele>8.31</ele>
        <time>2018-11-12T09:07:24Z</time>
      </trkpt>
      <trkpt lat="36.7478175089" lon="-3.0221419595">
        <ele>8.79</ele>
        <time>2018-11-12T09:07:32Z</time>
      </trkpt>
      <trkpt lat="36.7477959674" lon="-3.0219650175">
        <ele>8.79</ele>
        <time>2018-11-12T09:07:41Z</time>
      </trkpt>
      <trkpt lat="36.7478285730" lon="-3.0219506007">
        <ele>7.35</ele>
        <time>2018-11-12T09:07:46Z</time>
      </trkpt>
      <trkpt lat="36.7478544731" lon="-3.0220081843">
        <ele>6.39</ele>
        <time>2018-11-12T09:07:53Z</time>
      </trkpt>
      <trkpt lat="36.7478719074" lon="-3.0220069271">
        <ele>5.91</ele>
        <time>2018-11-12T09:08:03Z</time>
      </trkpt>
      <trkpt lat="36.7478693090" lon="-3.0219827034">
        <ele>6.39</ele>
        <time>2018-11-12T09:08:23Z</time>
      </trkpt>
      <trkpt lat="36.7478229571" lon="-3.0219692085">
        <ele>10.23</ele>
        <time>2018-11-12T09:08:40Z</time>
      </trkpt>
      <trkpt lat="36.7478086241" lon="-3.0219584797">
        <ele>13.60</ele>
        <time>2018-11-12T09:08:59Z</time>
      </trkpt>
      <trkpt lat="36.7477952130" lon="-3.0219308194">
        <ele>16.00</ele>
        <time>2018-11-12T09:09:17Z</time>
      </trkpt>
      <trkpt lat="36.7477933690" lon="-3.0219160672">
        <ele>16.00</ele>
        <time>2018-11-12T09:09:34Z</time>
      </trkpt>
      <trkpt lat="36.7477862444" lon="-3.0219195038">
        <ele>16.96</ele>
        <time>2018-11-12T09:09:46Z</time>
      </trkpt>
      <trkpt lat="36.7477915250" lon="-3.0219324958">
        <ele>16.00</ele>
        <time>2018-11-12T09:10:00Z</time>
      </trkpt>
      <trkpt lat="36.7477977276" lon="-3.0219490919">
        <ele>16.48</ele>
        <time>2018-11-12T09:10:11Z</time>
      </trkpt>
      <trkpt lat="36.7477961350" lon="-3.0219671968">
        <ele>16.00</ele>
        <time>2018-11-12T09:10:20Z</time>
      </trkpt>
      <trkpt lat="36.7477947101" lon="-3.0219737347">
        <ele>17.92</ele>
        <time>2018-11-12T09:10:33Z</time>
      </trkpt>
      <trkpt lat="36.7477875855" lon="-3.0219826195">
        <ele>17.92</ele>
        <time>2018-11-12T09:10:44Z</time>
      </trkpt>
      <trkpt lat="36.7477740068" lon="-3.0219969526">
        <ele>19.36</ele>
        <time>2018-11-12T09:10:57Z</time>
      </trkpt>
      <trkpt lat="36.7477732524" lon="-3.0219899956">
        <ele>19.84</ele>
        <time>2018-11-12T09:11:10Z</time>
      </trkpt>
      <trkpt lat="36.7477654573" lon="-3.0219737347">
        <ele>19.36</ele>
        <time>2018-11-12T09:11:22Z</time>
      </trkpt>
      <trkpt lat="36.7477757670" lon="-3.0219752435">
        <ele>20.81</ele>
        <time>2018-11-12T09:11:34Z</time>
      </trkpt>
      <trkpt lat="36.7477920279" lon="-3.0219671968">
        <ele>22.25</ele>
        <time>2018-11-12T09:11:47Z</time>
      </trkpt>
      <trkpt lat="36.7478060257" lon="-3.0219526961">
        <ele>21.77</ele>
        <time>2018-11-12T09:11:59Z</time>
      </trkpt>
      <trkpt lat="36.7477973085" lon="-3.0219485052">
        <ele>20.32</ele>
        <time>2018-11-12T09:12:11Z</time>
      </trkpt>
      <trkpt lat="36.7477823887" lon="-3.0219471641">
        <ele>19.84</ele>
        <time>2018-11-12T09:12:23Z</time>
      </trkpt>
      <trkpt lat="36.7477885913" lon="-3.0219437275">
        <ele>18.88</ele>
        <time>2018-11-12T09:12:35Z</time>
      </trkpt>
      <trkpt lat="36.7477886751" lon="-3.0219396204">
        <ele>19.36</ele>
        <time>2018-11-12T09:12:49Z</time>
      </trkpt>
      <trkpt lat="36.7477882560" lon="-3.0219387822">
        <ele>20.81</ele>
        <time>2018-11-12T09:12:59Z</time>
      </trkpt>
      <trkpt lat="36.7477906868" lon="-3.0219368543">
        <ele>21.77</ele>
        <time>2018-11-12T09:13:11Z</time>
      </trkpt>
      <trkpt lat="36.7478008289" lon="-3.0219498463">
        <ele>20.32</ele>
        <time>2018-11-12T09:13:26Z</time>
      </trkpt>
      <trkpt lat="36.7478035949" lon="-3.0219570547">
        <ele>20.81</ele>
        <time>2018-11-12T09:13:40Z</time>
      </trkpt>
      <trkpt lat="36.7477994040" lon="-3.0219555460">
        <ele>21.77</ele>
        <time>2018-11-12T09:13:52Z</time>
      </trkpt>
      <trkpt lat="36.7477922793" lon="-3.0219594017">
        <ele>23.69</ele>
        <time>2018-11-12T09:14:03Z</time>
      </trkpt>
      <trkpt lat="36.7477916926" lon="-3.0219866429">
        <ele>26.57</ele>
        <time>2018-11-12T09:14:16Z</time>
      </trkpt>
      <trkpt lat="36.7477871664" lon="-3.0220074300">
        <ele>28.50</ele>
        <time>2018-11-12T09:14:26Z</time>
      </trkpt>
      <trkpt lat="36.7477807961" lon="-3.0220157281">
        <ele>29.94</ele>
        <time>2018-11-12T09:14:39Z</time>
      </trkpt>
      <trkpt lat="36.7477743421" lon="-3.0220205896">
        <ele>30.90</ele>
        <time>2018-11-12T09:14:50Z</time>
      </trkpt>
      <trkpt lat="36.7477742583" lon="-3.0220130458">
        <ele>29.94</ele>
        <time>2018-11-12T09:15:03Z</time>
      </trkpt>
      <trkpt lat="36.7477769405" lon="-3.0220086873">
        <ele>29.94</ele>
        <time>2018-11-12T09:15:12Z</time>
      </trkpt>
      <trkpt lat="36.7477808800" lon="-3.0220033228">
        <ele>28.98</ele>
        <time>2018-11-12T09:15:24Z</time>
      </trkpt>
      <trkpt lat="36.7477833107" lon="-3.0220158957">
        <ele>27.53</ele>
        <time>2018-11-12T09:15:40Z</time>
      </trkpt>
      <trkpt lat="36.7477761861" lon="-3.0220358446">
        <ele>27.53</ele>
        <time>2018-11-12T09:15:53Z</time>
      </trkpt>
      <trkpt lat="36.7477807123" lon="-3.0220163986">
        <ele>26.09</ele>
        <time>2018-11-12T09:16:07Z</time>
      </trkpt>
      <trkpt lat="36.7477755155" lon="-3.0220097769">
        <ele>27.05</ele>
        <time>2018-11-12T09:16:20Z</time>
      </trkpt>
      <trkpt lat="36.7477751803" lon="-3.0220038258">
        <ele>28.02</ele>
        <time>2018-11-12T09:16:33Z</time>
      </trkpt>
      <trkpt lat="36.7477612663" lon="-3.0220231041">
        <ele>28.98</ele>
        <time>2018-11-12T09:16:46Z</time>
      </trkpt>
      <trkpt lat="36.7477566563" lon="-3.0220451485">
        <ele>30.42</ele>
        <time>2018-11-12T09:17:00Z</time>
      </trkpt>
      <trkpt lat="36.7477472685" lon="-3.0220367666">
        <ele>30.90</ele>
        <time>2018-11-12T09:17:12Z</time>
      </trkpt>
      <trkpt lat="36.7477406468" lon="-3.0220287200">
        <ele>32.82</ele>
        <time>2018-11-12T09:17:26Z</time>
      </trkpt>
      <trkpt lat="36.7477377132" lon="-3.0220326595">
        <ele>35.23</ele>
        <time>2018-11-12T09:17:40Z</time>
      </trkpt>
      <trkpt lat="36.7477320973" lon="-3.0220518541">
        <ele>36.19</ele>
        <time>2018-11-12T09:18:00Z</time>
      </trkpt>
      <trkpt lat="36.7477279902" lon="-3.0220615771">
        <ele>37.63</ele>
        <time>2018-11-12T09:18:14Z</time>
      </trkpt>
      <trkpt lat="36.7477292474" lon="-3.0220627505">
        <ele>37.63</ele>
        <time>2018-11-12T09:18:24Z</time>
      </trkpt>
      <trkpt lat="36.7477274872" lon="-3.0220614932">
        <ele>36.67</ele>
        <time>2018-11-12T09:18:42Z</time>
      </trkpt>
      <trkpt lat="36.7477213684" lon="-3.0220668577">
        <ele>37.15</ele>
        <time>2018-11-12T09:18:53Z</time>
      </trkpt>
      <trkpt lat="36.7477239668" lon="-3.0220507644">
        <ele>35.71</ele>
        <time>2018-11-12T09:19:03Z</time>
      </trkpt>
      <trkpt lat="36.7477214523" lon="-3.0220527761">
        <ele>34.74</ele>
        <time>2018-11-12T09:19:17Z</time>
      </trkpt>
      <trkpt lat="36.7477232125" lon="-3.0220483337">
        <ele>32.34</ele>
        <time>2018-11-12T09:19:30Z</time>
      </trkpt>
      <trkpt lat="36.7477215361" lon="-3.0220653489">
        <ele>33.30</ele>
        <time>2018-11-12T09:19:42Z</time>
      </trkpt>
      <trkpt lat="36.7477259785" lon="-3.0220830347">
        <ele>34.26</ele>
        <time>2018-11-12T09:19:57Z</time>
      </trkpt>
      <trkpt lat="36.7477258947" lon="-3.0220702104">
        <ele>33.30</ele>
        <time>2018-11-12T09:20:14Z</time>
      </trkpt>
      <trkpt lat="36.7477190215" lon="-3.0220746528">
        <ele>32.34</ele>
        <time>2018-11-12T09:20:26Z</time>
      </trkpt>
      <trkpt lat="36.7477160040" lon="-3.0220636725">
        <ele>30.42</ele>
        <time>2018-11-12T09:20:40Z</time>
      </trkpt>
      <trkpt lat="36.7477211170" lon="-3.0220388621">
        <ele>29.94</ele>
        <time>2018-11-12T09:20:59Z</time>
      </trkpt>
      <trkpt lat="36.7477125674" lon="-3.0220329110">
        <ele>29.94</ele>
        <time>2018-11-12T09:21:14Z</time>
      </trkpt>
      <trkpt lat="36.7477161717" lon="-3.0220174883">
        <ele>31.38</ele>
        <time>2018-11-12T09:21:41Z</time>
      </trkpt>
      <trkpt lat="36.7477246374" lon="-3.0220216792">
        <ele>31.38</ele>
        <time>2018-11-12T09:21:59Z</time>
      </trkpt>
      <trkpt lat="36.7477330193" lon="-3.0220283009">
        <ele>33.30</ele>
        <time>2018-11-12T09:22:12Z</time>
      </trkpt>
      <trkpt lat="36.7477482744" lon="-3.0220018141">
        <ele>30.90</ele>
        <time>2018-11-12T09:22:31Z</time>
      </trkpt>
      <trkpt lat="36.7477609310" lon="-3.0219744053">
        <ele>26.57</ele>
        <time>2018-11-12T09:22:54Z</time>
      </trkpt>
      <trkpt lat="36.7477538902" lon="-3.0219646823">
        <ele>28.02</ele>
        <time>2018-11-12T09:23:17Z</time>
      </trkpt>
      <trkpt lat="36.7477217875" lon="-3.0219691247">
        <ele>30.42</ele>
        <time>2018-11-12T09:23:40Z</time>
      </trkpt>
      <trkpt lat="36.7477136571" lon="-3.0219786800">
        <ele>31.38</ele>
        <time>2018-11-12T09:24:07Z</time>
      </trkpt>
      <trkpt lat="36.7477199435" lon="-3.0220086034">
        <ele>33.30</ele>
        <time>2018-11-12T09:24:31Z</time>
      </trkpt>
      <trkpt lat="36.7477163393" lon="-3.0220191646">
        <ele>31.86</ele>
        <time>2018-11-12T09:24:53Z</time>
      </trkpt>
      <trkpt lat="36.7477160040" lon="-3.0220459029">
        <ele>36.19</ele>
        <time>2018-11-12T09:25:16Z</time>
      </trkpt>
      <trkpt lat="36.7477131542" lon="-3.0220408738">
        <ele>35.23</ele>
        <time>2018-11-12T09:25:36Z</time>
      </trkpt>
      <trkpt lat="36.7477118969" lon="-3.0220538657">
        <ele>33.78</ele>
        <time>2018-11-12T09:25:59Z</time>
      </trkpt>
      <trkpt lat="36.7477155011" lon="-3.0220633373">
        <ele>32.82</ele>
        <time>2018-11-12T09:26:21Z</time>
      </trkpt>
      <trkpt lat="36.7477296665" lon="-3.0220719706">
        <ele>33.30</ele>
        <time>2018-11-12T09:26:45Z</time>
      </trkpt>
      <trkpt lat="36.7477439996" lon="-3.0220525246">
        <ele>32.34</ele>
        <time>2018-11-12T09:27:00Z</time>
      </trkpt>
      <trkpt lat="36.7477532197" lon="-3.0220639240">
        <ele>29.94</ele>
        <time>2018-11-12T09:27:25Z</time>
      </trkpt>
      <trkpt lat="36.7477452569" lon="-3.0220578890">
        <ele>29.46</ele>
        <time>2018-11-12T09:27:40Z</time>
      </trkpt>
      <trkpt lat="36.7477434129" lon="-3.0220475793">
        <ele>30.90</ele>
        <time>2018-11-12T09:28:08Z</time>
      </trkpt>
      <trkpt lat="36.7477499507" lon="-3.0220454000">
        <ele>30.42</ele>
        <time>2018-11-12T09:28:23Z</time>
      </trkpt>
      <trkpt lat="36.7477353662" lon="-3.0220486689">
        <ele>32.34</ele>
        <time>2018-11-12T09:28:50Z</time>
      </trkpt>
      <trkpt lat="36.7477346957" lon="-3.0220881477">
        <ele>34.26</ele>
        <time>2018-11-12T09:29:09Z</time>
      </trkpt>
      <trkpt lat="36.7477334384" lon="-3.0220977031">
        <ele>33.78</ele>
        <time>2018-11-12T09:29:29Z</time>
      </trkpt>
      <trkpt lat="36.7477304209" lon="-3.0220961943">
        <ele>33.30</ele>
        <time>2018-11-12T09:29:44Z</time>
      </trkpt>
      <trkpt lat="36.7477250565" lon="-3.0220460705">
        <ele>31.38</ele>
        <time>2018-11-12T09:30:04Z</time>
      </trkpt>
      <trkpt lat="36.7477352824" lon="-3.0220309831">
        <ele>29.94</ele>
        <time>2018-11-12T09:30:23Z</time>
      </trkpt>
      <trkpt lat="36.7477486935" lon="-3.0220395327">
        <ele>29.46</ele>
        <time>2018-11-12T09:30:43Z</time>
      </trkpt>
      <trkpt lat="36.7477625236" lon="-3.0220507644">
        <ele>28.98</ele>
        <time>2018-11-12T09:31:00Z</time>
      </trkpt>
      <trkpt lat="36.7477724981" lon="-3.0220463220">
        <ele>27.53</ele>
        <time>2018-11-12T09:31:17Z</time>
      </trkpt>
      <trkpt lat="36.7477681395" lon="-3.0220407061">
        <ele>27.53</ele>
        <time>2018-11-12T09:31:31Z</time>
      </trkpt>
      <trkpt lat="36.7477799580" lon="-3.0220413767">
        <ele>25.61</ele>
        <time>2018-11-12T09:31:45Z</time>
      </trkpt>
      <trkpt lat="36.7477907706" lon="-3.0220294744">
        <ele>24.17</ele>
        <time>2018-11-12T09:32:05Z</time>
      </trkpt>
      <trkpt lat="36.7477876693" lon="-3.0220261216">
        <ele>23.21</ele>
        <time>2018-11-12T09:32:18Z</time>
      </trkpt>
      <trkpt lat="36.7477749288" lon="-3.0220316537">
        <ele>22.73</ele>
        <time>2018-11-12T09:32:36Z</time>
      </trkpt>
      <trkpt lat="36.7477689777" lon="-3.0220106989">
        <ele>23.21</ele>
        <time>2018-11-12T09:32:57Z</time>
      </trkpt>
      <trkpt lat="36.7477712408" lon="-3.0220116209">
        <ele>22.73</ele>
        <time>2018-11-12T09:33:10Z</time>
      </trkpt>
      <trkpt lat="36.7477765214" lon="-3.0220193323">
        <ele>21.77</ele>
        <time>2018-11-12T09:33:25Z</time>
      </trkpt>
      <trkpt lat="36.7477948777" lon="-3.0220340006">
        <ele>21.77</ele>
        <time>2018-11-12T09:33:44Z</time>
      </trkpt>
      <trkpt lat="36.7477974761" lon="-3.0220278818">
        <ele>21.29</ele>
        <time>2018-11-12T09:34:01Z</time>
      </trkpt>
      <trkpt lat="36.7477934528" lon="-3.0220320728">
        <ele>19.84</ele>
        <time>2018-11-12T09:34:21Z</time>
      </trkpt>
      <trkpt lat="36.7477826402" lon="-3.0220425501">
        <ele>20.32</ele>
        <time>2018-11-12T09:34:41Z</time>
      </trkpt>
      <trkpt lat="36.7477645352" lon="-3.0220433883">
        <ele>21.29</ele>
        <time>2018-11-12T09:34:56Z</time>
      </trkpt>
      <trkpt lat="36.7477755155" lon="-3.0220552906">
        <ele>21.77</ele>
        <time>2018-11-12T09:35:07Z</time>
      </trkpt>
      <trkpt lat="36.7477810476" lon="-3.0220596492">
        <ele>22.25</ele>
        <time>2018-11-12T09:35:19Z</time>
      </trkpt>
      <trkpt lat="36.7477832269" lon="-3.0220492557">
        <ele>22.73</ele>
        <time>2018-11-12T09:35:27Z</time>
      </trkpt>
      <trkpt lat="36.7477875855" lon="-3.0220292229">
        <ele>23.21</ele>
        <time>2018-11-12T09:35:40Z</time>
      </trkpt>
      <trkpt lat="36.7477740906" lon="-3.0220232718">
        <ele>24.65</ele>
        <time>2018-11-12T09:35:51Z</time>
      </trkpt>
      <trkpt lat="36.7477737553" lon="-3.0220195837">
        <ele>24.17</ele>
        <time>2018-11-12T09:36:05Z</time>
      </trkpt>
      <trkpt lat="36.7477792036" lon="-3.0220085196">
        <ele>22.73</ele>
        <time>2018-11-12T09:36:13Z</time>
      </trkpt>
      <trkpt lat="36.7477664631" lon="-3.0219931807">
        <ele>21.77</ele>
        <time>2018-11-12T09:36:23Z</time>
      </trkpt>
      <trkpt lat="36.7477463465" lon="-3.0219830386">
        <ele>21.77</ele>
        <time>2018-11-12T09:36:39Z</time>
      </trkpt>
      <trkpt lat="36.7477426585" lon="-3.0219667777">
        <ele>20.32</ele>
        <time>2018-11-12T09:36:52Z</time>
      </trkpt>
      <trkpt lat="36.7477343604" lon="-3.0219520256">
        <ele>18.40</ele>
        <time>2018-11-12T09:37:06Z</time>
      </trkpt>
      <trkpt lat="36.7477340251" lon="-3.0219288915">
        <ele>17.44</ele>
        <time>2018-11-12T09:37:20Z</time>
      </trkpt>
      <trkpt lat="36.7477394734" lon="-3.0219206773">
        <ele>15.04</ele>
        <time>2018-11-12T09:37:35Z</time>
      </trkpt>
      <trkpt lat="36.7477496155" lon="-3.0219287239">
        <ele>13.12</ele>
        <time>2018-11-12T09:37:51Z</time>
      </trkpt>
      <trkpt lat="36.7477414850" lon="-3.0219257902">
        <ele>13.60</ele>
        <time>2018-11-12T09:38:03Z</time>
      </trkpt>
      <trkpt lat="36.7477491964" lon="-3.0219349265">
        <ele>13.60</ele>
        <time>2018-11-12T09:38:17Z</time>
      </trkpt>
      <trkpt lat="36.7477652058" lon="-3.0219247844">
        <ele>12.63</ele>
        <time>2018-11-12T09:38:34Z</time>
      </trkpt>
      <trkpt lat="36.7477701511" lon="-3.0219395366">
        <ele>13.60</ele>
        <time>2018-11-12T09:38:51Z</time>
      </trkpt>
      <trkpt lat="36.7477541417" lon="-3.0219614133">
        <ele>16.00</ele>
        <time>2018-11-12T09:39:11Z</time>
      </trkpt>
      <trkpt lat="36.7477653734" lon="-3.0219748244">
        <ele>18.88</ele>
        <time>2018-11-12T09:39:24Z</time>
      </trkpt>
      <trkpt lat="36.7477745097" lon="-3.0219991319">
        <ele>19.84</ele>
        <time>2018-11-12T09:39:42Z</time>
      </trkpt>
      <trkpt lat="36.7477794550" lon="-3.0220230203">
        <ele>20.81</ele>
        <time>2018-11-12T09:39:57Z</time>
      </trkpt>
      <trkpt lat="36.7477823887" lon="-3.0220258702">
        <ele>20.81</ele>
        <time>2018-11-12T09:40:09Z</time>
      </trkpt>
      <trkpt lat="36.7477822211" lon="-3.0220564641">
        <ele>22.25</ele>
        <time>2018-11-12T09:40:29Z</time>
      </trkpt>
      <trkpt lat="36.7477981467" lon="-3.0220602360">
        <ele>21.29</ele>
        <time>2018-11-12T09:40:46Z</time>
      </trkpt>
      <trkpt lat="36.7477801256" lon="-3.0220589787">
        <ele>22.73</ele>
        <time>2018-11-12T09:41:03Z</time>
      </trkpt>
      <trkpt lat="36.7477768566" lon="-3.0220546201">
        <ele>22.73</ele>
        <time>2018-11-12T09:41:16Z</time>
      </trkpt>
      <trkpt lat="36.7477660440" lon="-3.0220548715">
        <ele>24.17</ele>
        <time>2018-11-12T09:41:33Z</time>
      </trkpt>
      <trkpt lat="36.7477657925" lon="-3.0220570508">
        <ele>27.05</ele>
        <time>2018-11-12T09:41:52Z</time>
      </trkpt>
      <trkpt lat="36.7477442510" lon="-3.0220385268">
        <ele>27.53</ele>
        <time>2018-11-12T09:42:11Z</time>
      </trkpt>
      <trkpt lat="36.7477419041" lon="-3.0220372695">
        <ele>27.05</ele>
        <time>2018-11-12T09:42:27Z</time>
      </trkpt>
      <trkpt lat="36.7477459274" lon="-3.0220423825">
        <ele>27.53</ele>
        <time>2018-11-12T09:42:43Z</time>
      </trkpt>
      <trkpt lat="36.7477551475" lon="-3.0220465735">
        <ele>28.98</ele>
        <time>2018-11-12T09:43:05Z</time>
      </trkpt>
      <trkpt lat="36.7477616016" lon="-3.0220500939">
        <ele>28.02</ele>
        <time>2018-11-12T09:43:24Z</time>
      </trkpt>
      <trkpt lat="36.7477546446" lon="-3.0220562965">
        <ele>28.02</ele>
        <time>2018-11-12T09:43:43Z</time>
      </trkpt>
      <trkpt lat="36.7477396410" lon="-3.0220331624">
        <ele>27.53</ele>
        <time>2018-11-12T09:44:12Z</time>
      </trkpt>
      <trkpt lat="36.7477640323" lon="-3.0220359284">
        <ele>27.53</ele>
        <time>2018-11-12T09:44:22Z</time>
      </trkpt>
      <trkpt lat="36.7477769405" lon="-3.0220349226">
        <ele>27.05</ele>
        <time>2018-11-12T09:44:28Z</time>
      </trkpt>
      <trkpt lat="36.7477788683" lon="-3.0220417120">
        <ele>25.13</ele>
        <time>2018-11-12T09:44:47Z</time>
      </trkpt>
      <trkpt lat="36.7477685586" lon="-3.0219919235">
        <ele>22.25</ele>
        <time>2018-11-12T09:44:52Z</time>
      </trkpt>
      <trkpt lat="36.7476547323" lon="-3.0219583120">
        <ele>19.36</ele>
        <time>2018-11-12T09:45:02Z</time>
      </trkpt>
      <trkpt lat="36.7476193607" lon="-3.0219427217">
        <ele>18.40</ele>
        <time>2018-11-12T09:45:08Z</time>
      </trkpt>
      <trkpt lat="36.7475896887" lon="-3.0219161510">
        <ele>17.92</ele>
        <time>2018-11-12T09:45:10Z</time>
      </trkpt>
      <trkpt lat="36.7475735955" lon="-3.0218958668">
        <ele>17.92</ele>
        <time>2018-11-12T09:45:11Z</time>
      </trkpt>
      <trkpt lat="36.7475635372" lon="-3.0218676198">
        <ele>17.44</ele>
        <time>2018-11-12T09:45:12Z</time>
      </trkpt>
      <trkpt lat="36.7475553229" lon="-3.0218290631">
        <ele>17.44</ele>
        <time>2018-11-12T09:45:13Z</time>
      </trkpt>
      <trkpt lat="36.7475495394" lon="-3.0217876565">
        <ele>16.96</ele>
        <time>2018-11-12T09:45:14Z</time>
      </trkpt>
      <trkpt lat="36.7475460190" lon="-3.0217432324">
        <ele>16.96</ele>
        <time>2018-11-12T09:45:15Z</time>
      </trkpt>
      <trkpt lat="36.7475434206" lon="-3.0216998979">
        <ele>16.96</ele>
        <time>2018-11-12T09:45:16Z</time>
      </trkpt>
      <trkpt lat="36.7475388944" lon="-3.0216505285">
        <ele>16.48</ele>
        <time>2018-11-12T09:45:17Z</time>
      </trkpt>
      <trkpt lat="36.7474508006" lon="-3.0212121550">
        <ele>13.60</ele>
        <time>2018-11-12T09:45:25Z</time>
      </trkpt>
      <trkpt lat="36.7472963221" lon="-3.0207161978">
        <ele>10.71</ele>
        <time>2018-11-12T09:45:34Z</time>
      </trkpt>
      <trkpt lat="36.7471384071" lon="-3.0203560274">
        <ele>9.27</ele>
        <time>2018-11-12T09:45:42Z</time>
      </trkpt>
      <trkpt lat="36.7471154407" lon="-3.0203112680">
        <ele>9.27</ele>
        <time>2018-11-12T09:45:43Z</time>
      </trkpt>
      <trkpt lat="36.7468746286" lon="-3.0198402889">
        <ele>8.79</ele>
        <time>2018-11-12T09:45:53Z</time>
      </trkpt>
      <trkpt lat="36.7466148734" lon="-3.0193965510">
        <ele>6.39</ele>
        <time>2018-11-12T09:46:02Z</time>
      </trkpt>
      <trkpt lat="36.7462692037" lon="-3.0187436007">
        <ele>4.46</ele>
        <time>2018-11-12T09:46:15Z</time>
      </trkpt>
      <trkpt lat="36.7459772620" lon="-3.0182205699">
        <ele>4.46</ele>
        <time>2018-11-12T09:46:25Z</time>
      </trkpt>
      <trkpt lat="36.7456803750" lon="-3.0176770035">
        <ele>4.46</ele>
        <time>2018-11-12T09:46:36Z</time>
      </trkpt>
      <trkpt lat="36.7455305066" lon="-3.0173879117">
        <ele>4.46</ele>
        <time>2018-11-12T09:46:42Z</time>
      </trkpt>
      <trkpt lat="36.7455101386" lon="-3.0173366982">
        <ele>4.46</ele>
        <time>2018-11-12T09:46:43Z</time>
      </trkpt>
      <trkpt lat="36.7454951350" lon="-3.0172911845">
        <ele>4.46</ele>
        <time>2018-11-12T09:46:44Z</time>
      </trkpt>
      <trkpt lat="36.7454835679" lon="-3.0172510352">
        <ele>4.94</ele>
        <time>2018-11-12T09:46:45Z</time>
      </trkpt>
      <trkpt lat="36.7454756051" lon="-3.0172066949">
        <ele>4.94</ele>
        <time>2018-11-12T09:46:46Z</time>
      </trkpt>
      <trkpt lat="36.7454889324" lon="-3.0171110574">
        <ele>4.94</ele>
        <time>2018-11-12T09:46:48Z</time>
      </trkpt>
      <trkpt lat="36.7455101386" lon="-3.0170689803">
        <ele>5.42</ele>
        <time>2018-11-12T09:46:49Z</time>
      </trkpt>
      <trkpt lat="36.7455453426" lon="-3.0169872567">
        <ele>5.91</ele>
        <time>2018-11-12T09:46:51Z</time>
      </trkpt>
      <trkpt lat="36.7455429118" lon="-3.0169354565">
        <ele>5.91</ele>
        <time>2018-11-12T09:46:52Z</time>
      </trkpt>
      <trkpt lat="36.7455274891" lon="-3.0168925412">
        <ele>5.91</ele>
        <time>2018-11-12T09:46:53Z</time>
      </trkpt>
      <trkpt lat="36.7455103062" lon="-3.0168413278">
        <ele>5.91</ele>
        <time>2018-11-12T09:46:54Z</time>
      </trkpt>
      <trkpt lat="36.7455020081" lon="-3.0167956464">
        <ele>5.91</ele>
        <time>2018-11-12T09:46:55Z</time>
      </trkpt>
      <trkpt lat="36.7455037683" lon="-3.0167417508">
        <ele>5.91</ele>
        <time>2018-11-12T09:46:56Z</time>
      </trkpt>
      <trkpt lat="36.7455082946" lon="-3.0166972429">
        <ele>5.91</ele>
        <time>2018-11-12T09:46:57Z</time>
      </trkpt>
      <trkpt lat="36.7454823945" lon="-3.0163585301">
        <ele>6.87</ele>
        <time>2018-11-12T09:47:05Z</time>
      </trkpt>
      <trkpt lat="36.7454497050" lon="-3.0160750542">
        <ele>6.87</ele>
        <time>2018-11-12T09:47:11Z</time>
      </trkpt>
      <trkpt lat="36.7454430833" lon="-3.0160270259">
        <ele>6.87</ele>
        <time>2018-11-12T09:47:12Z</time>
      </trkpt>
      <trkpt lat="36.7454357073" lon="-3.0159810092">
        <ele>6.39</ele>
        <time>2018-11-12T09:47:13Z</time>
      </trkpt>
      <trkpt lat="36.7453844100" lon="-3.0157166440">
        <ele>6.87</ele>
        <time>2018-11-12T09:47:19Z</time>
      </trkpt>
      <trkpt lat="36.7453202046" lon="-3.0153456610">
        <ele>8.31</ele>
        <time>2018-11-12T09:47:27Z</time>
      </trkpt>
      <trkpt lat="36.7452086415" lon="-3.0148437526">
        <ele>8.31</ele>
        <time>2018-11-12T09:47:37Z</time>
      </trkpt>
      <trkpt lat="36.7450026982" lon="-3.0141912214">
        <ele>6.87</ele>
        <time>2018-11-12T09:47:50Z</time>
      </trkpt>
      <trkpt lat="36.7448311206" lon="-3.0137764011">
        <ele>5.91</ele>
        <time>2018-11-12T09:47:59Z</time>
      </trkpt>
      <trkpt lat="36.7446123529" lon="-3.0133201741">
        <ele>5.91</ele>
        <time>2018-11-12T09:48:09Z</time>
      </trkpt>
      <trkpt lat="36.7443845328" lon="-3.0129269790">
        <ele>6.39</ele>
        <time>2018-11-12T09:48:18Z</time>
      </trkpt>
      <trkpt lat="36.7442746460" lon="-3.0126935430">
        <ele>5.91</ele>
        <time>2018-11-12T09:48:23Z</time>
      </trkpt>
      <trkpt lat="36.7440034077" lon="-3.0122549180">
        <ele>6.39</ele>
        <time>2018-11-12T09:48:33Z</time>
      </trkpt>
      <trkpt lat="36.7439790163" lon="-3.0122108292">
        <ele>6.39</ele>
        <time>2018-11-12T09:48:34Z</time>
      </trkpt>
      <trkpt lat="36.7439591512" lon="-3.0121654831">
        <ele>6.39</ele>
        <time>2018-11-12T09:48:35Z</time>
      </trkpt>
      <trkpt lat="36.7439420521" lon="-3.0121093243">
        <ele>6.39</ele>
        <time>2018-11-12T09:48:36Z</time>
      </trkpt>
      <trkpt lat="36.7439279705" lon="-3.0120550096">
        <ele>6.87</ele>
        <time>2018-11-12T09:48:37Z</time>
      </trkpt>
      <trkpt lat="36.7439135537" lon="-3.0120037962">
        <ele>6.87</ele>
        <time>2018-11-12T09:48:38Z</time>
      </trkpt>
      <trkpt lat="36.7438599095" lon="-3.0118513294">
        <ele>7.35</ele>
        <time>2018-11-12T09:48:43Z</time>
      </trkpt>
      <trkpt lat="36.7437732406" lon="-3.0116963480">
        <ele>6.87</ele>
        <time>2018-11-12T09:48:47Z</time>
      </trkpt>
      <trkpt lat="36.7437566444" lon="-3.0116505828">
        <ele>6.87</ele>
        <time>2018-11-12T09:48:48Z</time>
      </trkpt>
      <trkpt lat="36.7437289841" lon="-3.0115530174">
        <ele>6.87</ele>
        <time>2018-11-12T09:48:50Z</time>
      </trkpt>
      <trkpt lat="36.7437047604" lon="-3.0115124490">
        <ele>6.87</ele>
        <time>2018-11-12T09:48:51Z</time>
      </trkpt>
      <trkpt lat="36.7436728254" lon="-3.0114811007">
        <ele>6.87</ele>
        <time>2018-11-12T09:48:52Z</time>
      </trkpt>
      <trkpt lat="36.7436403036" lon="-3.0114589725">
        <ele>6.39</ele>
        <time>2018-11-12T09:48:53Z</time>
      </trkpt>
      <trkpt lat="36.7436071113" lon="-3.0114302225">
        <ele>6.39</ele>
        <time>2018-11-12T09:48:54Z</time>
      </trkpt>
      <trkpt lat="36.7435837258" lon="-3.0113911629">
        <ele>6.39</ele>
        <time>2018-11-12T09:48:55Z</time>
      </trkpt>
      <trkpt lat="36.7435690574" lon="-3.0113479123">
        <ele>6.39</ele>
        <time>2018-11-12T09:48:56Z</time>
      </trkpt>
      <trkpt lat="36.7435567360" lon="-3.0113003869">
        <ele>6.87</ele>
        <time>2018-11-12T09:48:57Z</time>
      </trkpt>
      <trkpt lat="36.7434333544" lon="-3.0108166672">
        <ele>6.87</ele>
        <time>2018-11-12T09:49:07Z</time>
      </trkpt>
      <trkpt lat="36.7433268204" lon="-3.0103950575">
        <ele>6.87</ele>
        <time>2018-11-12T09:49:16Z</time>
      </trkpt>
      <trkpt lat="36.7431720905" lon="-3.0098011997">
        <ele>7.35</ele>
        <time>2018-11-12T09:49:28Z</time>
      </trkpt>
      <trkpt lat="36.7429740261" lon="-3.0093563721">
        <ele>7.83</ele>
        <time>2018-11-12T09:49:37Z</time>
      </trkpt>
      <trkpt lat="36.7427393328" lon="-3.0090113729">
        <ele>7.83</ele>
        <time>2018-11-12T09:49:46Z</time>
      </trkpt>
      <trkpt lat="36.7425548472" lon="-3.0087726563">
        <ele>6.87</ele>
        <time>2018-11-12T09:49:53Z</time>
      </trkpt>
      <trkpt lat="36.7424768116" lon="-3.0086677987">
        <ele>6.87</ele>
        <time>2018-11-12T09:49:56Z</time>
      </trkpt>
      <trkpt lat="36.7422306351" lon="-3.0083296727">
        <ele>6.87</ele>
        <time>2018-11-12T09:50:05Z</time>
      </trkpt>
      <trkpt lat="36.7421340756" lon="-3.0081593525">
        <ele>7.35</ele>
        <time>2018-11-12T09:50:09Z</time>
      </trkpt>
      <trkpt lat="36.7420746479" lon="-3.0080143455">
        <ele>7.35</ele>
        <time>2018-11-12T09:50:12Z</time>
      </trkpt>
      <trkpt lat="36.7420304753" lon="-3.0079057999">
        <ele>7.83</ele>
        <time>2018-11-12T09:50:15Z</time>
      </trkpt>
      <trkpt lat="36.7420270387" lon="-3.0078473780">
        <ele>8.31</ele>
        <time>2018-11-12T09:50:17Z</time>
      </trkpt>
      <trkpt lat="36.7420368455" lon="-3.0078193825">
        <ele>8.31</ele>
        <time>2018-11-12T09:50:18Z</time>
      </trkpt>
      <trkpt lat="36.7420438863" lon="-3.0077968352">
        <ele>8.31</ele>
        <time>2018-11-12T09:50:19Z</time>
      </trkpt>
      <trkpt lat="36.7420511786" lon="-3.0077721924">
        <ele>8.79</ele>
        <time>2018-11-12T09:50:20Z</time>
      </trkpt>
      <trkpt lat="36.7420540284" lon="-3.0077488907">
        <ele>8.79</ele>
        <time>2018-11-12T09:50:21Z</time>
      </trkpt>
      <trkpt lat="36.7420491669" lon="-3.0077167880">
        <ele>8.79</ele>
        <time>2018-11-12T09:50:26Z</time>
      </trkpt>
      <trkpt lat="36.7420066707" lon="-3.0076493137">
        <ele>9.27</ele>
        <time>2018-11-12T09:50:32Z</time>
      </trkpt>
      <trkpt lat="36.7419765797" lon="-3.0076388363">
        <ele>8.79</ele>
        <time>2018-11-12T09:50:34Z</time>
      </trkpt>
      <trkpt lat="36.7419583909" lon="-3.0076457094">
        <ele>8.79</ele>
        <time>2018-11-12T09:50:35Z</time>
      </trkpt>
      <trkpt lat="36.7418507673" lon="-3.0077374075">
        <ele>7.35</ele>
        <time>2018-11-12T09:50:42Z</time>
      </trkpt>
      <trkpt lat="36.7417389527" lon="-3.0077175424">
        <ele>5.42</ele>
        <time>2018-11-12T09:50:49Z</time>
      </trkpt>
      <trkpt lat="36.7417128012" lon="-3.0075944960">
        <ele>4.94</ele>
        <time>2018-11-12T09:50:56Z</time>
      </trkpt>
      <trkpt lat="36.7417104542" lon="-3.0075391755">
        <ele>4.94</ele>
        <time>2018-11-12T09:51:02Z</time>
      </trkpt>
      <trkpt lat="36.7416950315" lon="-3.0074972659">
        <ele>5.42</ele>
        <time>2018-11-12T09:51:10Z</time>
      </trkpt>
      <trkpt lat="36.7416957021" lon="-3.0074854475">
        <ele>5.42</ele>
        <time>2018-11-12T09:51:11Z</time>
      </trkpt>
      <trkpt lat="36.7417133041" lon="-3.0074071605">
        <ele>5.91</ele>
        <time>2018-11-12T09:51:15Z</time>
      </trkpt>
      <trkpt lat="36.7417738214" lon="-3.0071807653">
        <ele>6.39</ele>
        <time>2018-11-12T09:51:23Z</time>
      </trkpt>
      <trkpt lat="36.7417810299" lon="-3.0070948508">
        <ele>6.39</ele>
        <time>2018-11-12T09:51:29Z</time>
      </trkpt>
      <trkpt lat="36.7417813651" lon="-3.0070975330">
        <ele>5.91</ele>
        <time>2018-11-12T09:51:41Z</time>
      </trkpt>
      <trkpt lat="36.7417903338" lon="-3.0070790928">
        <ele>5.91</ele>
        <time>2018-11-12T09:51:54Z</time>
      </trkpt>
      <trkpt lat="36.7418523598" lon="-3.0069123767">
        <ele>5.91</ele>
        <time>2018-11-12T09:52:01Z</time>
      </trkpt>
      <trkpt lat="36.7419498414" lon="-3.0065978877">
        <ele>5.42</ele>
        <time>2018-11-12T09:52:10Z</time>
      </trkpt>
      <trkpt lat="36.7420405336" lon="-3.0062617734">
        <ele>6.39</ele>
        <time>2018-11-12T09:52:19Z</time>
      </trkpt>
      <trkpt lat="36.7421040684" lon="-3.0060042813">
        <ele>6.39</ele>
        <time>2018-11-12T09:52:27Z</time>
      </trkpt>
      <trkpt lat="36.7422116082" lon="-3.0056324601">
        <ele>5.91</ele>
        <time>2018-11-12T09:52:36Z</time>
      </trkpt>
      <trkpt lat="36.7423005402" lon="-3.0053551868">
        <ele>5.91</ele>
        <time>2018-11-12T09:52:44Z</time>
      </trkpt>
      <trkpt lat="36.7423718702" lon="-3.0050073378">
        <ele>5.42</ele>
        <time>2018-11-12T09:52:54Z</time>
      </trkpt>
      <trkpt lat="36.7424257658" lon="-3.0049045756">
        <ele>5.42</ele>
        <time>2018-11-12T09:53:00Z</time>
      </trkpt>
      <trkpt lat="36.7424248438" lon="-3.0049091019">
        <ele>5.91</ele>
        <time>2018-11-12T09:53:08Z</time>
      </trkpt>
      <trkpt lat="36.7424236704" lon="-3.0049132928">
        <ele>6.39</ele>
        <time>2018-11-12T09:53:45Z</time>
      </trkpt>
      <trkpt lat="36.7424276099" lon="-3.0049119517">
        <ele>5.91</ele>
        <time>2018-11-12T09:54:09Z</time>
      </trkpt>
      <trkpt lat="36.7424281128" lon="-3.0049119517">
        <ele>5.91</ele>
        <time>2018-11-12T09:54:34Z</time>
      </trkpt>
      <trkpt lat="36.7424285319" lon="-3.0049088504">
        <ele>6.39</ele>
        <time>2018-11-12T09:54:53Z</time>
      </trkpt>
      <trkpt lat="36.7424285319" lon="-3.0049120355">
        <ele>6.39</ele>
        <time>2018-11-12T09:55:22Z</time>
      </trkpt>
      <trkpt lat="36.7424266040" lon="-3.0049089342">
        <ele>6.87</ele>
        <time>2018-11-12T09:55:45Z</time>
      </trkpt>
      <trkpt lat="36.7424221616" lon="-3.0049096886">
        <ele>6.39</ele>
        <time>2018-11-12T09:56:07Z</time>
      </trkpt>
      <trkpt lat="36.7424235027" lon="-3.0049135443">
        <ele>5.91</ele>
        <time>2018-11-12T09:56:33Z</time>
      </trkpt>
      <trkpt lat="36.7424288671" lon="-3.0049122870">
        <ele>5.91</ele>
        <time>2018-11-12T09:56:43Z</time>
      </trkpt>
      <trkpt lat="36.7424327228" lon="-3.0048986245">
        <ele>5.91</ele>
        <time>2018-11-12T09:56:54Z</time>
      </trkpt>
      <trkpt lat="36.7424390092" lon="-3.0047700461">
        <ele>5.42</ele>
        <time>2018-11-12T09:57:02Z</time>
      </trkpt>
      <trkpt lat="36.7424421106" lon="-3.0047516059">
        <ele>5.42</ele>
        <time>2018-11-12T09:57:06Z</time>
      </trkpt>
      <trkpt lat="36.7424648255" lon="-3.0046630930">
        <ele>5.91</ele>
        <time>2018-11-12T09:57:12Z</time>
      </trkpt>
      <trkpt lat="36.7424989399" lon="-3.0044409726">
        <ele>5.91</ele>
        <time>2018-11-12T09:57:19Z</time>
      </trkpt>
      <trkpt lat="36.7425682582" lon="-3.0041341949">
        <ele>6.39</ele>
        <time>2018-11-12T09:57:27Z</time>
      </trkpt>
      <trkpt lat="36.7426183820" lon="-3.0038510542">
        <ele>6.39</ele>
        <time>2018-11-12T09:57:34Z</time>
      </trkpt>
      <trkpt lat="36.7426396720" lon="-3.0036303587">
        <ele>5.91</ele>
        <time>2018-11-12T09:57:40Z</time>
      </trkpt>
      <trkpt lat="36.7426736187" lon="-3.0033439491">
        <ele>5.91</ele>
        <time>2018-11-12T09:57:47Z</time>
      </trkpt>
      <trkpt lat="36.7426878680" lon="-3.0030411109">
        <ele>5.91</ele>
        <time>2018-11-12T09:57:55Z</time>
      </trkpt>
      <trkpt lat="36.7427034583" lon="-3.0027386080">
        <ele>5.42</ele>
        <time>2018-11-12T09:58:03Z</time>
      </trkpt>
      <trkpt lat="36.7427006084" lon="-3.0024189223">
        <ele>5.42</ele>
        <time>2018-11-12T09:58:11Z</time>
      </trkpt>
      <trkpt lat="36.7427097447" lon="-3.0021556467">
        <ele>5.91</ele>
        <time>2018-11-12T09:58:18Z</time>
      </trkpt>
      <trkpt lat="36.7427454516" lon="-3.0018615257">
        <ele>5.91</ele>
        <time>2018-11-12T09:58:26Z</time>
      </trkpt>
      <trkpt lat="36.7427658197" lon="-3.0015440192">
        <ele>5.91</ele>
        <time>2018-11-12T09:58:34Z</time>
      </trkpt>
      <trkpt lat="36.7427931447" lon="-3.0012908019">
        <ele>5.91</ele>
        <time>2018-11-12T09:58:41Z</time>
      </trkpt>
      <trkpt lat="36.7428405024" lon="-3.0009532627">
        <ele>5.91</ele>
        <time>2018-11-12T09:58:50Z</time>
      </trkpt>
      <trkpt lat="36.7429200467" lon="-3.0005212594">
        <ele>5.91</ele>
        <time>2018-11-12T09:59:01Z</time>
      </trkpt>
      <trkpt lat="36.7429912928" lon="-3.0001789425">
        <ele>6.39</ele>
        <time>2018-11-12T09:59:10Z</time>
      </trkpt>
      <trkpt lat="36.7430797219" lon="-2.9998453427">
        <ele>6.87</ele>
        <time>2018-11-12T09:59:18Z</time>
      </trkpt>
      <trkpt lat="36.7431751080" lon="-2.9995363019">
        <ele>7.35</ele>
        <time>2018-11-12T09:59:26Z</time>
      </trkpt>
      <trkpt lat="36.7432624474" lon="-2.9992804024">
        <ele>7.83</ele>
        <time>2018-11-12T09:59:33Z</time>
      </trkpt>
      <trkpt lat="36.7433613539" lon="-2.9989775643">
        <ele>7.35</ele>
        <time>2018-11-12T09:59:42Z</time>
      </trkpt>
      <trkpt lat="36.7434545606" lon="-2.9986287933">
        <ele>6.87</ele>
        <time>2018-11-12T09:59:51Z</time>
      </trkpt>
      <trkpt lat="36.7435392179" lon="-2.9982996359">
        <ele>5.91</ele>
        <time>2018-11-12T10:00:00Z</time>
      </trkpt>
      <trkpt lat="36.7435732484" lon="-2.9980923515">
        <ele>5.91</ele>
        <time>2018-11-12T10:00:08Z</time>
      </trkpt>
      <trkpt lat="36.7436118890" lon="-2.9979426507">
        <ele>5.91</ele>
        <time>2018-11-12T10:00:16Z</time>
      </trkpt>
      <trkpt lat="36.7436523736" lon="-2.9977258109">
        <ele>6.39</ele>
        <time>2018-11-12T10:00:23Z</time>
      </trkpt>
      <trkpt lat="36.7437071912" lon="-2.9974570870">
        <ele>6.39</ele>
        <time>2018-11-12T10:00:31Z</time>
      </trkpt>
      <trkpt lat="36.7437693011" lon="-2.9972069710">
        <ele>6.39</ele>
        <time>2018-11-12T10:00:39Z</time>
      </trkpt>
      <trkpt lat="36.7438154854" lon="-2.9969976749">
        <ele>6.39</ele>
        <time>2018-11-12T10:00:46Z</time>
      </trkpt>
      <trkpt lat="36.7438888270" lon="-2.9968282767">
        <ele>7.35</ele>
        <time>2018-11-12T10:00:53Z</time>
      </trkpt>
      <trkpt lat="36.7440443113" lon="-2.9966258537">
        <ele>7.83</ele>
        <time>2018-11-12T10:01:01Z</time>
      </trkpt>
      <trkpt lat="36.7441657651" lon="-2.9964197427">
        <ele>7.35</ele>
        <time>2018-11-12T10:01:07Z</time>
      </trkpt>
      <trkpt lat="36.7442875542" lon="-2.9960981291">
        <ele>7.35</ele>
        <time>2018-11-12T10:01:16Z</time>
      </trkpt>
      <trkpt lat="36.7444238439" lon="-2.9957002401">
        <ele>6.87</ele>
        <time>2018-11-12T10:01:26Z</time>
      </trkpt>
      <trkpt lat="36.7445227504" lon="-2.9952974059">
        <ele>6.39</ele>
        <time>2018-11-12T10:01:35Z</time>
      </trkpt>
      <trkpt lat="36.7445556913" lon="-2.9949912149">
        <ele>6.39</ele>
        <time>2018-11-12T10:01:42Z</time>
      </trkpt>
      <trkpt lat="36.7446069047" lon="-2.9945038911">
        <ele>5.91</ele>
        <time>2018-11-12T10:01:52Z</time>
      </trkpt>
      <trkpt lat="36.7446113471" lon="-2.9940791801">
        <ele>5.42</ele>
        <time>2018-11-12T10:02:01Z</time>
      </trkpt>
      <trkpt lat="36.7446145322" lon="-2.9936914332">
        <ele>5.42</ele>
        <time>2018-11-12T10:02:10Z</time>
      </trkpt>
      <trkpt lat="36.7446149513" lon="-2.9931689054">
        <ele>6.39</ele>
        <time>2018-11-12T10:02:22Z</time>
      </trkpt>
      <trkpt lat="36.7446084972" lon="-2.9927249998">
        <ele>5.91</ele>
        <time>2018-11-12T10:02:31Z</time>
      </trkpt>
      <trkpt lat="36.7446027137" lon="-2.9922977742">
        <ele>5.91</ele>
        <time>2018-11-12T10:02:40Z</time>
      </trkpt>
      <trkpt lat="36.7446162086" lon="-2.9919930082">
        <ele>5.91</ele>
        <time>2018-11-12T10:02:47Z</time>
      </trkpt>
      <trkpt lat="36.7446128558" lon="-2.9914961290">
        <ele>5.42</ele>
        <time>2018-11-12T10:02:57Z</time>
      </trkpt>
      <trkpt lat="36.7446016241" lon="-2.9909429234">
        <ele>5.91</ele>
        <time>2018-11-12T10:03:07Z</time>
      </trkpt>
      <trkpt lat="36.7445283663" lon="-2.9903483950">
        <ele>6.39</ele>
        <time>2018-11-12T10:03:18Z</time>
      </trkpt>
      <trkpt lat="36.7443983629" lon="-2.9899153020">
        <ele>6.39</ele>
        <time>2018-11-12T10:03:27Z</time>
      </trkpt>
      <trkpt lat="36.7443152983" lon="-2.9897257872">
        <ele>6.39</ele>
        <time>2018-11-12T10:03:31Z</time>
      </trkpt>
      <trkpt lat="36.7441079300" lon="-2.9892683867">
        <ele>5.91</ele>
        <time>2018-11-12T10:03:41Z</time>
      </trkpt>
      <trkpt lat="36.7439374421" lon="-2.9888484534">
        <ele>6.39</ele>
        <time>2018-11-12T10:03:51Z</time>
      </trkpt>
      <trkpt lat="36.7439448182" lon="-2.9885466211">
        <ele>5.91</ele>
        <time>2018-11-12T10:03:58Z</time>
      </trkpt>
      <trkpt lat="36.7440853827" lon="-2.9881855287">
        <ele>6.39</ele>
        <time>2018-11-12T10:04:07Z</time>
      </trkpt>
      <trkpt lat="36.7441107798" lon="-2.9881482292">
        <ele>6.39</ele>
        <time>2018-11-12T10:04:08Z</time>
      </trkpt>
      <trkpt lat="36.7441390269" lon="-2.9881064035">
        <ele>6.39</ele>
        <time>2018-11-12T10:04:09Z</time>
      </trkpt>
      <trkpt lat="36.7443545256" lon="-2.9878009669">
        <ele>6.87</ele>
        <time>2018-11-12T10:04:18Z</time>
      </trkpt>
      <trkpt lat="36.7445428669" lon="-2.9875252023">
        <ele>6.87</ele>
        <time>2018-11-12T10:04:26Z</time>
      </trkpt>
      <trkpt lat="36.7446504068" lon="-2.9873651918">
        <ele>6.87</ele>
        <time>2018-11-12T10:04:30Z</time>
      </trkpt>
      <trkpt lat="36.7446714453" lon="-2.9873187561">
        <ele>7.35</ele>
        <time>2018-11-12T10:04:31Z</time>
      </trkpt>
      <trkpt lat="36.7447945755" lon="-2.9870148282">
        <ele>7.35</ele>
        <time>2018-11-12T10:04:39Z</time>
      </trkpt>
      <trkpt lat="36.7449494731" lon="-2.9867086373">
        <ele>8.31</ele>
        <time>2018-11-12T10:04:47Z</time>
      </trkpt>
      <trkpt lat="36.7451059632" lon="-2.9863400012">
        <ele>8.31</ele>
        <time>2018-11-12T10:04:56Z</time>
      </trkpt>
      <trkpt lat="36.7452841625" lon="-2.9858837742">
        <ele>8.79</ele>
        <time>2018-11-12T10:05:06Z</time>
      </trkpt>
      <trkpt lat="36.7454152554" lon="-2.9854291398">
        <ele>9.27</ele>
        <time>2018-11-12T10:05:16Z</time>
      </trkpt>
      <trkpt lat="36.7455442529" lon="-2.9850847274">
        <ele>9.75</ele>
        <time>2018-11-12T10:05:24Z</time>
      </trkpt>
      <trkpt lat="36.7456600908" lon="-2.9847844038">
        <ele>9.75</ele>
        <time>2018-11-12T10:05:31Z</time>
      </trkpt>
      <trkpt lat="36.7457455862" lon="-2.9846079648">
        <ele>10.23</ele>
        <time>2018-11-12T10:05:35Z</time>
      </trkpt>
      <trkpt lat="36.7457714863" lon="-2.9845585953">
        <ele>10.23</ele>
        <time>2018-11-12T10:05:36Z</time>
      </trkpt>
      <trkpt lat="36.7459748313" lon="-2.9841736145">
        <ele>10.71</ele>
        <time>2018-11-12T10:05:45Z</time>
      </trkpt>
      <trkpt lat="36.7459961213" lon="-2.9841269273">
        <ele>10.71</ele>
        <time>2018-11-12T10:05:46Z</time>
      </trkpt>
      <trkpt lat="36.7461899109" lon="-2.9837078322">
        <ele>11.19</ele>
        <time>2018-11-12T10:05:56Z</time>
      </trkpt>
      <trkpt lat="36.7463218421" lon="-2.9834949318">
        <ele>12.15</ele>
        <time>2018-11-12T10:06:03Z</time>
      </trkpt>
      <trkpt lat="36.7464595567" lon="-2.9831964523">
        <ele>13.12</ele>
        <time>2018-11-12T10:06:11Z</time>
      </trkpt>
      <trkpt lat="36.7465329822" lon="-2.9829715658">
        <ele>14.08</ele>
        <time>2018-11-12T10:06:18Z</time>
      </trkpt>
      <trkpt lat="36.7466660868" lon="-2.9824464396">
        <ele>13.60</ele>
        <time>2018-11-12T10:06:28Z</time>
      </trkpt>
      <trkpt lat="36.7467924859" lon="-2.9820894543">
        <ele>14.08</ele>
        <time>2018-11-12T10:06:35Z</time>
      </trkpt>
      <trkpt lat="36.7468385864" lon="-2.9819353949">
        <ele>13.60</ele>
        <time>2018-11-12T10:06:38Z</time>
      </trkpt>
      <trkpt lat="36.7468719464" lon="-2.9818387516">
        <ele>13.60</ele>
        <time>2018-11-12T10:06:40Z</time>
      </trkpt>
      <trkpt lat="36.7469786480" lon="-2.9813572112">
        <ele>14.08</ele>
        <time>2018-11-12T10:06:50Z</time>
      </trkpt>
      <trkpt lat="36.7469709367" lon="-2.9813115299">
        <ele>14.56</ele>
        <time>2018-11-12T10:06:51Z</time>
      </trkpt>
      <trkpt lat="36.7469541728" lon="-2.9812847078">
        <ele>14.56</ele>
        <time>2018-11-12T10:06:52Z</time>
      </trkpt>
      <trkpt lat="36.7469314579" lon="-2.9812621605">
        <ele>14.56</ele>
        <time>2018-11-12T10:06:53Z</time>
      </trkpt>
      <trkpt lat="36.7468022928" lon="-2.9811766651">
        <ele>15.52</ele>
        <time>2018-11-12T10:06:59Z</time>
      </trkpt>
      <trkpt lat="36.7466662545" lon="-2.9811080173">
        <ele>15.04</ele>
        <time>2018-11-12T10:07:06Z</time>
      </trkpt>
      <trkpt lat="36.7465255223" lon="-2.9810571391">
        <ele>12.63</ele>
        <time>2018-11-12T10:07:11Z</time>
      </trkpt>
      <trkpt lat="36.7465103511" lon="-2.9810356814">
        <ele>12.15</ele>
        <time>2018-11-12T10:07:12Z</time>
      </trkpt>
      <trkpt lat="36.7465002090" lon="-2.9810105357">
        <ele>12.15</ele>
        <time>2018-11-12T10:07:13Z</time>
      </trkpt>
      <trkpt lat="36.7465065792" lon="-2.9807630181">
        <ele>11.67</ele>
        <time>2018-11-12T10:07:21Z</time>
      </trkpt>
      <trkpt lat="36.7465418670" lon="-2.9805738386">
        <ele>12.15</ele>
        <time>2018-11-12T10:07:27Z</time>
      </trkpt>
      <trkpt lat="36.7465542722" lon="-2.9805516265">
        <ele>12.15</ele>
        <time>2018-11-12T10:07:28Z</time>
      </trkpt>
      <trkpt lat="36.7465659231" lon="-2.9805356171">
        <ele>12.15</ele>
        <time>2018-11-12T10:07:29Z</time>
      </trkpt>
      <trkpt lat="36.7465844471" lon="-2.9805235472">
        <ele>12.15</ele>
        <time>2018-11-12T10:07:30Z</time>
      </trkpt>
      <trkpt lat="36.7466048151" lon="-2.9805216193">
        <ele>12.15</ele>
        <time>2018-11-12T10:07:31Z</time>
      </trkpt>
      <trkpt lat="36.7466273624" lon="-2.9805258103">
        <ele>12.63</ele>
        <time>2018-11-12T10:07:32Z</time>
      </trkpt>
      <trkpt lat="36.7466481496" lon="-2.9805320129">
        <ele>12.63</ele>
        <time>2018-11-12T10:07:33Z</time>
      </trkpt>
      <trkpt lat="36.7468648218" lon="-2.9805802926">
        <ele>14.56</ele>
        <time>2018-11-12T10:07:43Z</time>
      </trkpt>
      <trkpt lat="36.7470872775" lon="-2.9805999901">
        <ele>14.08</ele>
        <time>2018-11-12T10:07:50Z</time>
      </trkpt>
      <trkpt lat="36.7471816577" lon="-2.9805961344">
        <ele>13.60</ele>
        <time>2018-11-12T10:07:52Z</time>
      </trkpt>
      <trkpt lat="36.7472327035" lon="-2.9805760179">
        <ele>13.12</ele>
        <time>2018-11-12T10:07:53Z</time>
      </trkpt>
      <trkpt lat="36.7472789716" lon="-2.9805331025">
        <ele>12.63</ele>
        <time>2018-11-12T10:07:54Z</time>
      </trkpt>
      <trkpt lat="36.7473131698" lon="-2.9804725014">
        <ele>12.63</ele>
        <time>2018-11-12T10:07:55Z</time>
      </trkpt>
      <trkpt lat="36.7473373096" lon="-2.9804072902">
        <ele>12.63</ele>
        <time>2018-11-12T10:07:56Z</time>
      </trkpt>
      <trkpt lat="36.7473534867" lon="-2.9803406540">
        <ele>12.63</ele>
        <time>2018-11-12T10:07:57Z</time>
      </trkpt>
      <trkpt lat="36.7473592702" lon="-2.9802777898">
        <ele>12.63</ele>
        <time>2018-11-12T10:07:58Z</time>
      </trkpt>
      <trkpt lat="36.7473553307" lon="-2.9802176915">
        <ele>12.15</ele>
        <time>2018-11-12T10:07:59Z</time>
      </trkpt>
      <trkpt lat="36.7473476194" lon="-2.9801626224">
        <ele>12.15</ele>
        <time>2018-11-12T10:08:00Z</time>
      </trkpt>
      <trkpt lat="36.7473387346" lon="-2.9801101517">
        <ele>12.15</ele>
        <time>2018-11-12T10:08:01Z</time>
      </trkpt>
      <trkpt lat="36.7473266646" lon="-2.9800614528">
        <ele>11.67</ele>
        <time>2018-11-12T10:08:02Z</time>
      </trkpt>
      <trkpt lat="36.7472727690" lon="-2.9798433557">
        <ele>12.15</ele>
        <time>2018-11-12T10:08:06Z</time>
      </trkpt>
      <trkpt lat="36.7472418398" lon="-2.9796058964">
        <ele>12.15</ele>
        <time>2018-11-12T10:08:10Z</time>
      </trkpt>
      <trkpt lat="36.7472694162" lon="-2.9789488390">
        <ele>10.71</ele>
        <time>2018-11-12T10:08:21Z</time>
      </trkpt>
      <trkpt lat="36.7474157643" lon="-2.9784103855">
        <ele>10.23</ele>
        <time>2018-11-12T10:08:31Z</time>
      </trkpt>
      <trkpt lat="36.7474320251" lon="-2.9783607647">
        <ele>10.23</ele>
        <time>2018-11-12T10:08:32Z</time>
      </trkpt>
      <trkpt lat="36.7475650460" lon="-2.9779049568">
        <ele>10.71</ele>
        <time>2018-11-12T10:08:41Z</time>
      </trkpt>
      <trkpt lat="36.7476973962" lon="-2.9774628952">
        <ele>11.19</ele>
        <time>2018-11-12T10:08:50Z</time>
      </trkpt>
      <trkpt lat="36.7478633579" lon="-2.9769394454">
        <ele>10.71</ele>
        <time>2018-11-12T10:09:00Z</time>
      </trkpt>
      <trkpt lat="36.7480211891" lon="-2.9764310829">
        <ele>10.71</ele>
        <time>2018-11-12T10:09:10Z</time>
      </trkpt>
      <trkpt lat="36.7480459157" lon="-2.9763165023">
        <ele>10.71</ele>
        <time>2018-11-12T10:09:12Z</time>
      </trkpt>
      <trkpt lat="36.7480528727" lon="-2.9762603436">
        <ele>10.71</ele>
        <time>2018-11-12T10:09:13Z</time>
      </trkpt>
      <trkpt lat="36.7481548805" lon="-2.9756772984">
        <ele>11.67</ele>
        <time>2018-11-12T10:09:23Z</time>
      </trkpt>
      <trkpt lat="36.7482612468" lon="-2.9751287866">
        <ele>13.12</ele>
        <time>2018-11-12T10:09:32Z</time>
      </trkpt>
      <trkpt lat="36.7483026534" lon="-2.9747983720">
        <ele>13.12</ele>
        <time>2018-11-12T10:09:39Z</time>
      </trkpt>
      <trkpt lat="36.7483370192" lon="-2.9744357709">
        <ele>13.12</ele>
        <time>2018-11-12T10:09:46Z</time>
      </trkpt>
      <trkpt lat="36.7483458202" lon="-2.9743816238">
        <ele>13.12</ele>
        <time>2018-11-12T10:09:47Z</time>
      </trkpt>
      <trkpt lat="36.7483522743" lon="-2.9743286502">
        <ele>12.63</ele>
        <time>2018-11-12T10:09:48Z</time>
      </trkpt>
      <trkpt lat="36.7483851314" lon="-2.9737698287">
        <ele>11.67</ele>
        <time>2018-11-12T10:09:59Z</time>
      </trkpt>
      <trkpt lat="36.7483893223" lon="-2.9733428545">
        <ele>11.19</ele>
        <time>2018-11-12T10:10:08Z</time>
      </trkpt>
      <trkpt lat="36.7484050803" lon="-2.9729117732">
        <ele>10.23</ele>
        <time>2018-11-12T10:10:16Z</time>
      </trkpt>
      <trkpt lat="36.7484480795" lon="-2.9723770078">
        <ele>10.71</ele>
        <time>2018-11-12T10:10:26Z</time>
      </trkpt>
      <trkpt lat="36.7485181522" lon="-2.9719600081">
        <ele>10.71</ele>
        <time>2018-11-12T10:10:34Z</time>
      </trkpt>
      <trkpt lat="36.7486392707" lon="-2.9714917112">
        <ele>10.23</ele>
        <time>2018-11-12T10:10:45Z</time>
      </trkpt>
      <trkpt lat="36.7487373389" lon="-2.9711015336">
        <ele>10.23</ele>
        <time>2018-11-12T10:10:54Z</time>
      </trkpt>
      <trkpt lat="36.7488371674" lon="-2.9707132000">
        <ele>10.23</ele>
        <time>2018-11-12T10:11:03Z</time>
      </trkpt>
      <trkpt lat="36.7489761394" lon="-2.9701978806">
        <ele>10.23</ele>
        <time>2018-11-12T10:11:14Z</time>
      </trkpt>
      <trkpt lat="36.7491030414" lon="-2.9697218724">
        <ele>9.75</ele>
        <time>2018-11-12T10:11:23Z</time>
      </trkpt>
      <trkpt lat="36.7492358107" lon="-2.9692392424">
        <ele>10.23</ele>
        <time>2018-11-12T10:11:33Z</time>
      </trkpt>
      <trkpt lat="36.7493826617" lon="-2.9686989449">
        <ele>9.75</ele>
        <time>2018-11-12T10:11:43Z</time>
      </trkpt>
      <trkpt lat="36.7495039478" lon="-2.9681946896">
        <ele>9.75</ele>
        <time>2018-11-12T10:11:53Z</time>
      </trkpt>
      <trkpt lat="36.7495555803" lon="-2.9677537177">
        <ele>9.75</ele>
        <time>2018-11-12T10:12:01Z</time>
      </trkpt>
      <trkpt lat="36.7495802231" lon="-2.9672155157">
        <ele>9.27</ele>
        <time>2018-11-12T10:12:10Z</time>
      </trkpt>
      <trkpt lat="36.7495758645" lon="-2.9666680098">
        <ele>9.27</ele>
        <time>2018-11-12T10:12:19Z</time>
      </trkpt>
      <trkpt lat="36.7495735176" lon="-2.9662766587">
        <ele>8.79</ele>
        <time>2018-11-12T10:12:26Z</time>
      </trkpt>
      <trkpt lat="36.7495819833" lon="-2.9662227631">
        <ele>9.27</ele>
        <time>2018-11-12T10:12:27Z</time>
      </trkpt>
      <trkpt lat="36.7497025989" lon="-2.9657789413">
        <ele>9.27</ele>
        <time>2018-11-12T10:12:36Z</time>
      </trkpt>
      <trkpt lat="36.7497522198" lon="-2.9656169191">
        <ele>8.79</ele>
        <time>2018-11-12T10:12:40Z</time>
      </trkpt>
      <trkpt lat="36.7497500405" lon="-2.9655747581">
        <ele>8.79</ele>
        <time>2018-11-12T10:12:41Z</time>
      </trkpt>
      <trkpt lat="36.7497477774" lon="-2.9655308370">
        <ele>8.31</ele>
        <time>2018-11-12T10:12:42Z</time>
      </trkpt>
      <trkpt lat="36.7497540638" lon="-2.9654832277">
        <ele>8.79</ele>
        <time>2018-11-12T10:12:43Z</time>
      </trkpt>
      <trkpt lat="36.7497655470" lon="-2.9654414859">
        <ele>8.79</ele>
        <time>2018-11-12T10:12:44Z</time>
      </trkpt>
      <trkpt lat="36.7497817241" lon="-2.9653997440">
        <ele>8.79</ele>
        <time>2018-11-12T10:12:45Z</time>
      </trkpt>
      <trkpt lat="36.7498036847" lon="-2.9653596785">
        <ele>8.79</ele>
        <time>2018-11-12T10:12:46Z</time>
      </trkpt>
      <trkpt lat="36.7498310935" lon="-2.9653176852">
        <ele>8.79</ele>
        <time>2018-11-12T10:12:47Z</time>
      </trkpt>
      <trkpt lat="36.7500573210" lon="-2.9649769608">
        <ele>8.31</ele>
        <time>2018-11-12T10:12:55Z</time>
      </trkpt>
      <trkpt lat="36.7501434870" lon="-2.9647695087">
        <ele>7.83</ele>
        <time>2018-11-12T10:12:59Z</time>
      </trkpt>
      <trkpt lat="36.7501517851" lon="-2.9647087399">
        <ele>7.83</ele>
        <time>2018-11-12T10:13:00Z</time>
      </trkpt>
      <trkpt lat="36.7501481809" lon="-2.9646529164">
        <ele>7.83</ele>
        <time>2018-11-12T10:13:01Z</time>
      </trkpt>
      <trkpt lat="36.7501336802" lon="-2.9645948298">
        <ele>7.83</ele>
        <time>2018-11-12T10:13:02Z</time>
      </trkpt>
      <trkpt lat="36.7501158267" lon="-2.9645451251">
        <ele>7.83</ele>
        <time>2018-11-12T10:13:03Z</time>
      </trkpt>
      <trkpt lat="36.7499911040" lon="-2.9641655087">
        <ele>7.35</ele>
        <time>2018-11-12T10:13:10Z</time>
      </trkpt>
      <trkpt lat="36.7499646172" lon="-2.9638858046">
        <ele>7.83</ele>
        <time>2018-11-12T10:13:15Z</time>
      </trkpt>
      <trkpt lat="36.7499945406" lon="-2.9634219501">
        <ele>8.31</ele>
        <time>2018-11-12T10:13:24Z</time>
      </trkpt>
      <trkpt lat="36.7500101309" lon="-2.9632144142">
        <ele>8.31</ele>
        <time>2018-11-12T10:13:28Z</time>
      </trkpt>
      <trkpt lat="36.7500085384" lon="-2.9631595965">
        <ele>8.79</ele>
        <time>2018-11-12T10:13:29Z</time>
      </trkpt>
      <trkpt lat="36.7500030901" lon="-2.9631086346">
        <ele>8.79</ele>
        <time>2018-11-12T10:13:30Z</time>
      </trkpt>
      <trkpt lat="36.7498816364" lon="-2.9625534173">
        <ele>8.79</ele>
        <time>2018-11-12T10:13:40Z</time>
      </trkpt>
      <trkpt lat="36.7498680577" lon="-2.9624482244">
        <ele>8.31</ele>
        <time>2018-11-12T10:13:42Z</time>
      </trkpt>
      <trkpt lat="36.7498722486" lon="-2.9623936582">
        <ele>8.31</ele>
        <time>2018-11-12T10:13:43Z</time>
      </trkpt>
      <trkpt lat="36.7499773577" lon="-2.9618246108">
        <ele>6.87</ele>
        <time>2018-11-12T10:13:54Z</time>
      </trkpt>
      <trkpt lat="36.7500383779" lon="-2.9614998959">
        <ele>6.87</ele>
        <time>2018-11-12T10:14:00Z</time>
      </trkpt>
      <trkpt lat="36.7500555608" lon="-2.9613418132">
        <ele>6.87</ele>
        <time>2018-11-12T10:14:03Z</time>
      </trkpt>
      <trkpt lat="36.7500620987" lon="-2.9612936173">
        <ele>6.87</ele>
        <time>2018-11-12T10:14:04Z</time>
      </trkpt>
      <trkpt lat="36.7500648648" lon="-2.9612458404">
        <ele>6.87</ele>
        <time>2018-11-12T10:14:05Z</time>
      </trkpt>
      <trkpt lat="36.7500681337" lon="-2.9610415734">
        <ele>6.87</ele>
        <time>2018-11-12T10:14:09Z</time>
      </trkpt>
      <trkpt lat="36.7500708997" lon="-2.9609867558">
        <ele>6.87</ele>
        <time>2018-11-12T10:14:10Z</time>
      </trkpt>
      <trkpt lat="36.7500434909" lon="-2.9605204705">
        <ele>6.87</ele>
        <time>2018-11-12T10:14:18Z</time>
      </trkpt>
      <trkpt lat="36.7499500327" lon="-2.9599857051">
        <ele>6.39</ele>
        <time>2018-11-12T10:14:27Z</time>
      </trkpt>
      <trkpt lat="36.7498974781" lon="-2.9597430490">
        <ele>6.39</ele>
        <time>2018-11-12T10:14:31Z</time>
      </trkpt>
      <trkpt lat="36.7498896830" lon="-2.9594974592">
        <ele>6.39</ele>
        <time>2018-11-12T10:14:35Z</time>
      </trkpt>
      <trkpt lat="36.7498895153" lon="-2.9592699744">
        <ele>6.39</ele>
        <time>2018-11-12T10:14:39Z</time>
      </trkpt>
      <trkpt lat="36.7498942930" lon="-2.9592133127">
        <ele>6.39</ele>
        <time>2018-11-12T10:14:40Z</time>
      </trkpt>
      <trkpt lat="36.7499056924" lon="-2.9591574892">
        <ele>5.91</ele>
        <time>2018-11-12T10:14:41Z</time>
      </trkpt>
      <trkpt lat="36.7500606738" lon="-2.9587357119">
        <ele>4.94</ele>
        <time>2018-11-12T10:14:50Z</time>
      </trkpt>
      <trkpt lat="36.7501240410" lon="-2.9585782159">
        <ele>4.94</ele>
        <time>2018-11-12T10:14:56Z</time>
      </trkpt>
      <trkpt lat="36.7501249630" lon="-2.9585819039">
        <ele>4.94</ele>
        <time>2018-11-12T10:15:05Z</time>
      </trkpt>
      <trkpt lat="36.7501278128" lon="-2.9585775454">
        <ele>4.94</ele>
        <time>2018-11-12T10:15:08Z</time>
      </trkpt>
      <trkpt lat="36.7501351889" lon="-2.9585624579">
        <ele>4.94</ele>
        <time>2018-11-12T10:15:09Z</time>
      </trkpt>
      <trkpt lat="36.7501443252" lon="-2.9585456941">
        <ele>4.94</ele>
        <time>2018-11-12T10:15:10Z</time>
      </trkpt>
      <trkpt lat="36.7502693832" lon="-2.9583433550">
        <ele>5.42</ele>
        <time>2018-11-12T10:15:19Z</time>
      </trkpt>
      <trkpt lat="36.7504217662" lon="-2.9581493139">
        <ele>4.94</ele>
        <time>2018-11-12T10:15:28Z</time>
      </trkpt>
      <trkpt lat="36.7506405339" lon="-2.9579137824">
        <ele>5.42</ele>
        <time>2018-11-12T10:15:38Z</time>
      </trkpt>
      <trkpt lat="36.7508252710" lon="-2.9577083420">
        <ele>5.42</ele>
        <time>2018-11-12T10:15:47Z</time>
      </trkpt>
      <trkpt lat="36.7509872094" lon="-2.9575148877">
        <ele>5.42</ele>
        <time>2018-11-12T10:15:54Z</time>
      </trkpt>
      <trkpt lat="36.7511511594" lon="-2.9572816193">
        <ele>5.91</ele>
        <time>2018-11-12T10:16:02Z</time>
      </trkpt>
      <trkpt lat="36.7512773070" lon="-2.9571251292">
        <ele>6.39</ele>
        <time>2018-11-12T10:16:09Z</time>
      </trkpt>
      <trkpt lat="36.7512918077" lon="-2.9570958763">
        <ele>6.39</ele>
        <time>2018-11-12T10:16:10Z</time>
      </trkpt>
      <trkpt lat="36.7513061408" lon="-2.9570658691">
        <ele>6.39</ele>
        <time>2018-11-12T10:16:11Z</time>
      </trkpt>
      <trkpt lat="36.7513271794" lon="-2.9570367001">
        <ele>6.39</ele>
        <time>2018-11-12T10:16:12Z</time>
      </trkpt>
      <trkpt lat="36.7513510678" lon="-2.9570093751">
        <ele>6.39</ele>
        <time>2018-11-12T10:16:13Z</time>
      </trkpt>
      <trkpt lat="36.7513739504" lon="-2.9569864925">
        <ele>6.39</ele>
        <time>2018-11-12T10:16:14Z</time>
      </trkpt>
      <trkpt lat="36.7516111583" lon="-2.9567574989">
        <ele>7.35</ele>
        <time>2018-11-12T10:16:22Z</time>
      </trkpt>
      <trkpt lat="36.7518694885" lon="-2.9565757792">
        <ele>6.39</ele>
        <time>2018-11-12T10:16:30Z</time>
      </trkpt>
      <trkpt lat="36.7521344405" lon="-2.9563842528">
        <ele>5.91</ele>
        <time>2018-11-12T10:16:38Z</time>
      </trkpt>
      <trkpt lat="36.7522636056" lon="-2.9562809039">
        <ele>5.91</ele>
        <time>2018-11-12T10:16:42Z</time>
      </trkpt>
      <trkpt lat="36.7523586564" lon="-2.9561742861">
        <ele>5.91</ele>
        <time>2018-11-12T10:16:45Z</time>
      </trkpt>
      <trkpt lat="36.7523944471" lon="-2.9561429378">
        <ele>5.91</ele>
        <time>2018-11-12T10:16:46Z</time>
      </trkpt>
      <trkpt lat="36.7526405398" lon="-2.9559262656">
        <ele>6.39</ele>
        <time>2018-11-12T10:16:54Z</time>
      </trkpt>
      <trkpt lat="36.7526560463" lon="-2.9558789078">
        <ele>6.39</ele>
        <time>2018-11-12T10:16:55Z</time>
      </trkpt>
      <trkpt lat="36.7526714690" lon="-2.9558292869">
        <ele>6.39</ele>
        <time>2018-11-12T10:16:56Z</time>
      </trkpt>
      <trkpt lat="36.7528786696" lon="-2.9553768318">
        <ele>5.91</ele>
        <time>2018-11-12T10:17:05Z</time>
      </trkpt>
      <trkpt lat="36.7529486585" lon="-2.9552097805">
        <ele>5.42</ele>
        <time>2018-11-12T10:17:08Z</time>
      </trkpt>
      <trkpt lat="36.7530877143" lon="-2.9547310062">
        <ele>5.91</ele>
        <time>2018-11-12T10:17:17Z</time>
      </trkpt>
      <trkpt lat="36.7531641573" lon="-2.9542964045">
        <ele>6.39</ele>
        <time>2018-11-12T10:17:26Z</time>
      </trkpt>
      <trkpt lat="36.7532610521" lon="-2.9539105017">
        <ele>6.39</ele>
        <time>2018-11-12T10:17:34Z</time>
      </trkpt>
      <trkpt lat="36.7533954978" lon="-2.9535540193">
        <ele>6.39</ele>
        <time>2018-11-12T10:17:42Z</time>
      </trkpt>
      <trkpt lat="36.7535143532" lon="-2.9531219322">
        <ele>5.91</ele>
        <time>2018-11-12T10:17:51Z</time>
      </trkpt>
      <trkpt lat="36.7536925524" lon="-2.9525359534">
        <ele>5.91</ele>
        <time>2018-11-12T10:18:03Z</time>
      </trkpt>
      <trkpt lat="36.7538655549" lon="-2.9520215560">
        <ele>5.91</ele>
        <time>2018-11-12T10:18:14Z</time>
      </trkpt>
      <trkpt lat="36.7540264037" lon="-2.9515794106">
        <ele>5.91</ele>
        <time>2018-11-12T10:18:24Z</time>
      </trkpt>
      <trkpt lat="36.7541329376" lon="-2.9512178991">
        <ele>5.42</ele>
        <time>2018-11-12T10:18:32Z</time>
      </trkpt>
      <trkpt lat="36.7543080356" lon="-2.9507347662">
        <ele>5.42</ele>
        <time>2018-11-12T10:18:42Z</time>
      </trkpt>
      <trkpt lat="36.7544610053" lon="-2.9502723366">
        <ele>5.91</ele>
        <time>2018-11-12T10:18:51Z</time>
      </trkpt>
      <trkpt lat="36.7546143103" lon="-2.9497536644">
        <ele>5.91</ele>
        <time>2018-11-12T10:19:01Z</time>
      </trkpt>
      <trkpt lat="36.7547157314" lon="-2.9492867086">
        <ele>5.42</ele>
        <time>2018-11-12T10:19:10Z</time>
      </trkpt>
      <trkpt lat="36.7548320722" lon="-2.9487263784">
        <ele>5.42</ele>
        <time>2018-11-12T10:19:20Z</time>
      </trkpt>
      <trkpt lat="36.7549991235" lon="-2.9480666388">
        <ele>5.42</ele>
        <time>2018-11-12T10:19:31Z</time>
      </trkpt>
      <trkpt lat="36.7550135404" lon="-2.9480097257">
        <ele>5.42</ele>
        <time>2018-11-12T10:19:32Z</time>
      </trkpt>
      <trkpt lat="36.7551406100" lon="-2.9475208092">
        <ele>5.42</ele>
        <time>2018-11-12T10:19:41Z</time>
      </trkpt>
      <trkpt lat="36.7552082520" lon="-2.9473025445">
        <ele>5.42</ele>
        <time>2018-11-12T10:19:45Z</time>
      </trkpt>
      <trkpt lat="36.7552285362" lon="-2.9472519178">
        <ele>5.42</ele>
        <time>2018-11-12T10:19:46Z</time>
      </trkpt>
      <trkpt lat="36.7552439589" lon="-2.9471987765">
        <ele>5.42</ele>
        <time>2018-11-12T10:19:47Z</time>
      </trkpt>
      <trkpt lat="36.7554081604" lon="-2.9466671962">
        <ele>5.91</ele>
        <time>2018-11-12T10:19:57Z</time>
      </trkpt>
      <trkpt lat="36.7554901354" lon="-2.9463725723">
        <ele>5.91</ele>
        <time>2018-11-12T10:20:03Z</time>
      </trkpt>
      <trkpt lat="36.7554965056" lon="-2.9463227000">
        <ele>5.91</ele>
        <time>2018-11-12T10:20:04Z</time>
      </trkpt>
      <trkpt lat="36.7555504013" lon="-2.9457887728">
        <ele>5.42</ele>
        <time>2018-11-12T10:20:14Z</time>
      </trkpt>
      <trkpt lat="36.7555924784" lon="-2.9453562666">
        <ele>5.42</ele>
        <time>2018-11-12T10:20:22Z</time>
      </trkpt>
      <trkpt lat="36.7555893771" lon="-2.9453041311">
        <ele>5.42</ele>
        <time>2018-11-12T10:20:23Z</time>
      </trkpt>
      <trkpt lat="36.7555806600" lon="-2.9452473018">
        <ele>5.42</ele>
        <time>2018-11-12T10:20:24Z</time>
      </trkpt>
      <trkpt lat="36.7555726971" lon="-2.9451929033">
        <ele>5.42</ele>
        <time>2018-11-12T10:20:25Z</time>
      </trkpt>
      <trkpt lat="36.7555674165" lon="-2.9451439530">
        <ele>5.42</ele>
        <time>2018-11-12T10:20:26Z</time>
      </trkpt>
      <trkpt lat="36.7555652373" lon="-2.9450888839">
        <ele>5.91</ele>
        <time>2018-11-12T10:20:27Z</time>
      </trkpt>
      <trkpt lat="36.7555683386" lon="-2.9450349044">
        <ele>5.91</ele>
        <time>2018-11-12T10:20:28Z</time>
      </trkpt>
      <trkpt lat="36.7555768881" lon="-2.9449829366">
        <ele>5.91</ele>
        <time>2018-11-12T10:20:29Z</time>
      </trkpt>
      <trkpt lat="36.7555895448" lon="-2.9449311364">
        <ele>6.39</ele>
        <time>2018-11-12T10:20:30Z</time>
      </trkpt>
      <trkpt lat="36.7556030396" lon="-2.9448786657">
        <ele>6.39</ele>
        <time>2018-11-12T10:20:31Z</time>
      </trkpt>
      <trkpt lat="36.7556976713" lon="-2.9445662722">
        <ele>6.39</ele>
        <time>2018-11-12T10:20:38Z</time>
      </trkpt>
      <trkpt lat="36.7556865234" lon="-2.9444871470">
        <ele>6.87</ele>
        <time>2018-11-12T10:20:41Z</time>
      </trkpt>
      <trkpt lat="36.7556613777" lon="-2.9444743227">
        <ele>6.87</ele>
        <time>2018-11-12T10:20:42Z</time>
      </trkpt>
      <trkpt lat="36.7554850224" lon="-2.9444257077">
        <ele>6.39</ele>
        <time>2018-11-12T10:20:47Z</time>
      </trkpt>
      <trkpt lat="36.7554434482" lon="-2.9444159847">
        <ele>6.39</ele>
        <time>2018-11-12T10:20:48Z</time>
      </trkpt>
      <trkpt lat="36.7550929170" lon="-2.9443195090">
        <ele>6.87</ele>
        <time>2018-11-12T10:20:56Z</time>
      </trkpt>
      <trkpt lat="36.7546199262" lon="-2.9441816267">
        <ele>5.42</ele>
        <time>2018-11-12T10:21:07Z</time>
      </trkpt>
      <trkpt lat="36.7542871647" lon="-2.9441012442">
        <ele>5.91</ele>
        <time>2018-11-12T10:21:14Z</time>
      </trkpt>
      <trkpt lat="36.7537461128" lon="-2.9439263977">
        <ele>5.42</ele>
        <time>2018-11-12T10:21:25Z</time>
      </trkpt>
      <trkpt lat="36.7534815799" lon="-2.9438321851">
        <ele>5.42</ele>
        <time>2018-11-12T10:21:32Z</time>
      </trkpt>
      <trkpt lat="36.7532699369" lon="-2.9437799659">
        <ele>6.39</ele>
        <time>2018-11-12T10:21:38Z</time>
      </trkpt>
      <trkpt lat="36.7529904842" lon="-2.9437211249">
        <ele>6.39</ele>
        <time>2018-11-12T10:21:45Z</time>
      </trkpt>
      <trkpt lat="36.7526889034" lon="-2.9436308518">
        <ele>6.39</ele>
        <time>2018-11-12T10:21:52Z</time>
      </trkpt>
      <trkpt lat="36.7523260508" lon="-2.9435452726">
        <ele>6.39</ele>
        <time>2018-11-12T10:22:00Z</time>
      </trkpt>
      <trkpt lat="36.7521959636" lon="-2.9435227253">
        <ele>5.91</ele>
        <time>2018-11-12T10:22:03Z</time>
      </trkpt>
      <trkpt lat="36.7518709134" lon="-2.9434337094">
        <ele>5.91</ele>
        <time>2018-11-12T10:22:11Z</time>
      </trkpt>
      <trkpt lat="36.7514416762" lon="-2.9433239065">
        <ele>5.42</ele>
        <time>2018-11-12T10:22:20Z</time>
      </trkpt>
      <trkpt lat="36.7510743812" lon="-2.9432248324">
        <ele>4.94</ele>
        <time>2018-11-12T10:22:28Z</time>
      </trkpt>
      <trkpt lat="36.7506658472" lon="-2.9431203101">
        <ele>4.94</ele>
        <time>2018-11-12T10:22:38Z</time>
      </trkpt>
      <trkpt lat="36.7505558766" lon="-2.9431208968">
        <ele>4.94</ele>
        <time>2018-11-12T10:22:43Z</time>
      </trkpt>
      <trkpt lat="36.7505239416" lon="-2.9431038816">
        <ele>5.42</ele>
        <time>2018-11-12T10:22:50Z</time>
      </trkpt>
      <trkpt lat="36.7505055852" lon="-2.9430704378">
        <ele>5.42</ele>
        <time>2018-11-12T10:23:02Z</time>
      </trkpt>
      <trkpt lat="36.7504991312" lon="-2.9430353176">
        <ele>5.91</ele>
        <time>2018-11-12T10:23:13Z</time>
      </trkpt>
      <trkpt lat="36.7504967004" lon="-2.9430268519">
        <ele>4.94</ele>
        <time>2018-11-12T10:23:33Z</time>
      </trkpt>
      <trkpt lat="36.7504946887" lon="-2.9430236667">
        <ele>3.98</ele>
        <time>2018-11-12T10:23:53Z</time>
      </trkpt>
      <trkpt lat="36.7504940182" lon="-2.9430277739">
        <ele>4.46</ele>
        <time>2018-11-12T10:24:13Z</time>
      </trkpt>
      <trkpt lat="36.7504966166" lon="-2.9430307914">
        <ele>4.46</ele>
        <time>2018-11-12T10:24:31Z</time>
      </trkpt>
      <trkpt lat="36.7504983768" lon="-2.9430188891">
        <ele>4.46</ele>
        <time>2018-11-12T10:24:38Z</time>
      </trkpt>
      <trkpt lat="36.7505104467" lon="-2.9429619759">
        <ele>4.46</ele>
        <time>2018-11-12T10:24:42Z</time>
      </trkpt>
      <trkpt lat="36.7505245283" lon="-2.9429002851">
        <ele>4.46</ele>
        <time>2018-11-12T10:24:47Z</time>
      </trkpt>
      <trkpt lat="36.7505864706" lon="-2.9428115208">
        <ele>4.46</ele>
        <time>2018-11-12T10:24:57Z</time>
      </trkpt>
      <trkpt lat="36.7506148014" lon="-2.9427437112">
        <ele>4.46</ele>
        <time>2018-11-12T10:25:07Z</time>
      </trkpt>
      <trkpt lat="36.7506173998" lon="-2.9427348264">
        <ele>4.46</ele>
        <time>2018-11-12T10:25:10Z</time>
      </trkpt>
      <trkpt lat="36.7506334931" lon="-2.9426659271">
        <ele>4.46</ele>
        <time>2018-11-12T10:25:15Z</time>
      </trkpt>
      <trkpt lat="36.7506769951" lon="-2.9425276257">
        <ele>4.46</ele>
        <time>2018-11-12T10:25:25Z</time>
      </trkpt>
      <trkpt lat="36.7507255264" lon="-2.9423933476">
        <ele>4.46</ele>
        <time>2018-11-12T10:25:35Z</time>
      </trkpt>
      <trkpt lat="36.7507671006" lon="-2.9422751628">
        <ele>4.46</ele>
        <time>2018-11-12T10:25:45Z</time>
      </trkpt>
      <trkpt lat="36.7508047353" lon="-2.9421665333">
        <ele>4.94</ele>
        <time>2018-11-12T10:25:54Z</time>
      </trkpt>
      <trkpt lat="36.7508667614" lon="-2.9419982247">
        <ele>4.46</ele>
        <time>2018-11-12T10:26:07Z</time>
      </trkpt>
      <trkpt lat="36.7509066593" lon="-2.9418968875">
        <ele>3.98</ele>
        <time>2018-11-12T10:26:17Z</time>
      </trkpt>
      <trkpt lat="36.7509178072" lon="-2.9418164212">
        <ele>3.98</ele>
        <time>2018-11-12T10:26:25Z</time>
      </trkpt>
      <trkpt lat="36.7509028874" lon="-2.9417554010">
        <ele>3.98</ele>
        <time>2018-11-12T10:26:33Z</time>
      </trkpt>
      <trkpt lat="36.7509235907" lon="-2.9416814726">
        <ele>3.98</ele>
        <time>2018-11-12T10:26:42Z</time>
      </trkpt>
      <trkpt lat="36.7509494070" lon="-2.9415713344">
        <ele>3.50</ele>
        <time>2018-11-12T10:26:52Z</time>
      </trkpt>
      <trkpt lat="36.7509440426" lon="-2.9415627848">
        <ele>3.02</ele>
        <time>2018-11-12T10:26:53Z</time>
      </trkpt>
      <trkpt lat="36.7509447131" lon="-2.9414316919">
        <ele>3.02</ele>
        <time>2018-11-12T10:27:04Z</time>
      </trkpt>
      <trkpt lat="36.7509717867" lon="-2.9413102381">
        <ele>3.02</ele>
        <time>2018-11-12T10:27:14Z</time>
      </trkpt>
      <trkpt lat="36.7510047276" lon="-2.9412078951">
        <ele>3.02</ele>
        <time>2018-11-12T10:27:23Z</time>
      </trkpt>
      <trkpt lat="36.7510159593" lon="-2.9411239922">
        <ele>2.54</ele>
        <time>2018-11-12T10:27:31Z</time>
      </trkpt>
      <trkpt lat="36.7510203179" lon="-2.9411249142">
        <ele>3.02</ele>
        <time>2018-11-12T10:27:46Z</time>
      </trkpt>
      <trkpt lat="36.7510223296" lon="-2.9411244951">
        <ele>2.06</ele>
        <time>2018-11-12T10:28:05Z</time>
      </trkpt>
      <trkpt lat="36.7510165460" lon="-2.9411200527">
        <ele>2.06</ele>
        <time>2018-11-12T10:28:23Z</time>
      </trkpt>
      <trkpt lat="36.7510120198" lon="-2.9411233217">
        <ele>2.06</ele>
        <time>2018-11-12T10:28:48Z</time>
      </trkpt>
      <trkpt lat="36.7510147020" lon="-2.9411282670">
        <ele>3.98</ele>
        <time>2018-11-12T10:29:11Z</time>
      </trkpt>
      <trkpt lat="36.7510222457" lon="-2.9411254171">
        <ele>3.50</ele>
        <time>2018-11-12T10:29:40Z</time>
      </trkpt>
      <trkpt lat="36.7510147858" lon="-2.9411271773">
        <ele>3.02</ele>
        <time>2018-11-12T10:30:08Z</time>
      </trkpt>
      <trkpt lat="36.7510182224" lon="-2.9411236569">
        <ele>2.54</ele>
        <time>2018-11-12T10:30:38Z</time>
      </trkpt>
      <trkpt lat="36.7510296218" lon="-2.9410734493">
        <ele>2.54</ele>
        <time>2018-11-12T10:30:47Z</time>
      </trkpt>
      <trkpt lat="36.7510643229" lon="-2.9409509059">
        <ele>3.50</ele>
        <time>2018-11-12T10:30:59Z</time>
      </trkpt>
      <trkpt lat="36.7510683462" lon="-2.9409281071">
        <ele>3.02</ele>
        <time>2018-11-12T10:31:06Z</time>
      </trkpt>
      <trkpt lat="36.7510859482" lon="-2.9407953378">
        <ele>3.02</ele>
        <time>2018-11-12T10:31:18Z</time>
      </trkpt>
      <trkpt lat="36.7511076573" lon="-2.9406779073">
        <ele>3.02</ele>
        <time>2018-11-12T10:31:28Z</time>
      </trkpt>
      <trkpt lat="36.7511240020" lon="-2.9405694455">
        <ele>3.02</ele>
        <time>2018-11-12T10:31:37Z</time>
      </trkpt>
      <trkpt lat="36.7511423584" lon="-2.9403749015">
        <ele>3.02</ele>
        <time>2018-11-12T10:31:51Z</time>
      </trkpt>
      <trkpt lat="36.7511570267" lon="-2.9402225185">
        <ele>3.02</ele>
        <time>2018-11-12T10:32:02Z</time>
      </trkpt>
      <trkpt lat="36.7511800770" lon="-2.9400817864">
        <ele>3.50</ele>
        <time>2018-11-12T10:32:13Z</time>
      </trkpt>
      <trkpt lat="36.7511960026" lon="-2.9399581533">
        <ele>3.98</ele>
        <time>2018-11-12T10:32:25Z</time>
      </trkpt>
      <trkpt lat="36.7512011994" lon="-2.9399048444">
        <ele>3.98</ele>
        <time>2018-11-12T10:32:35Z</time>
      </trkpt>
      <trkpt lat="36.7512157839" lon="-2.9397494439">
        <ele>3.50</ele>
        <time>2018-11-12T10:32:47Z</time>
      </trkpt>
      <trkpt lat="36.7512401752" lon="-2.9395887628">
        <ele>3.02</ele>
        <time>2018-11-12T10:33:00Z</time>
      </trkpt>
      <trkpt lat="36.7512519099" lon="-2.9394616932">
        <ele>3.02</ele>
        <time>2018-11-12T10:33:10Z</time>
      </trkpt>
      <trkpt lat="36.7512618005" lon="-2.9393155966">
        <ele>3.50</ele>
        <time>2018-11-12T10:33:21Z</time>
      </trkpt>
      <trkpt lat="36.7512780614" lon="-2.9391565081">
        <ele>3.02</ele>
        <time>2018-11-12T10:33:33Z</time>
      </trkpt>
      <trkpt lat="36.7512882873" lon="-2.9390280135">
        <ele>3.02</ele>
        <time>2018-11-12T10:33:44Z</time>
      </trkpt>
      <trkpt lat="36.7513027042" lon="-2.9388902150">
        <ele>2.54</ele>
        <time>2018-11-12T10:33:55Z</time>
      </trkpt>
      <trkpt lat="36.7513058055" lon="-2.9387758859">
        <ele>3.02</ele>
        <time>2018-11-12T10:34:05Z</time>
      </trkpt>
      <trkpt lat="36.7513006087" lon="-2.9387493990">
        <ele>3.02</ele>
        <time>2018-11-12T10:34:12Z</time>
      </trkpt>
      <trkpt lat="36.7513083201" lon="-2.9386359081">
        <ele>3.50</ele>
        <time>2018-11-12T10:34:22Z</time>
      </trkpt>
      <trkpt lat="36.7513410095" lon="-2.9385396838">
        <ele>3.50</ele>
        <time>2018-11-12T10:34:31Z</time>
      </trkpt>
      <trkpt lat="36.7513268441" lon="-2.9384488240">
        <ele>3.02</ele>
        <time>2018-11-12T10:34:39Z</time>
      </trkpt>
      <trkpt lat="36.7513089068" lon="-2.9383237660">
        <ele>3.02</ele>
        <time>2018-11-12T10:34:50Z</time>
      </trkpt>
      <trkpt lat="36.7513068952" lon="-2.9382697027">
        <ele>3.02</ele>
        <time>2018-11-12T10:34:59Z</time>
      </trkpt>
      <trkpt lat="36.7513001896" lon="-2.9381723050">
        <ele>2.54</ele>
        <time>2018-11-12T10:35:08Z</time>
      </trkpt>
      <trkpt lat="36.7512931488" lon="-2.9380811099">
        <ele>3.02</ele>
        <time>2018-11-12T10:35:20Z</time>
      </trkpt>
      <trkpt lat="36.7512898799" lon="-2.9380128812">
        <ele>3.02</ele>
        <time>2018-11-12T10:35:35Z</time>
      </trkpt>
      <trkpt lat="36.7512898799" lon="-2.9379303195">
        <ele>3.02</ele>
        <time>2018-11-12T10:35:43Z</time>
      </trkpt>
      <trkpt lat="36.7512776423" lon="-2.9377955385">
        <ele>3.02</ele>
        <time>2018-11-12T10:35:54Z</time>
      </trkpt>
      <trkpt lat="36.7512621358" lon="-2.9376729950">
        <ele>2.54</ele>
        <time>2018-11-12T10:36:05Z</time>
      </trkpt>
      <trkpt lat="36.7512476351" lon="-2.9375752620">
        <ele>2.54</ele>
        <time>2018-11-12T10:36:14Z</time>
      </trkpt>
      <trkpt lat="36.7512359004" lon="-2.9375278205">
        <ele>2.54</ele>
        <time>2018-11-12T10:36:24Z</time>
      </trkpt>
      <trkpt lat="36.7512307875" lon="-2.9374365415">
        <ele>2.54</ele>
        <time>2018-11-12T10:36:34Z</time>
      </trkpt>
      <trkpt lat="36.7512093298" lon="-2.9373310134">
        <ele>3.02</ele>
        <time>2018-11-12T10:36:44Z</time>
      </trkpt>
      <trkpt lat="36.7511920631" lon="-2.9372082185">
        <ele>2.54</ele>
        <time>2018-11-12T10:36:56Z</time>
      </trkpt>
      <trkpt lat="36.7511773948" lon="-2.9371199571">
        <ele>2.54</ele>
        <time>2018-11-12T10:37:05Z</time>
      </trkpt>
      <trkpt lat="36.7511713598" lon="-2.9370786343">
        <ele>3.50</ele>
        <time>2018-11-12T10:37:14Z</time>
      </trkpt>
      <trkpt lat="36.7511602957" lon="-2.9370213859">
        <ele>3.02</ele>
        <time>2018-11-12T10:37:21Z</time>
      </trkpt>
      <trkpt lat="36.7511518300" lon="-2.9369430989">
        <ele>2.54</ele>
        <time>2018-11-12T10:37:31Z</time>
      </trkpt>
      <trkpt lat="36.7511412688" lon="-2.9368603695">
        <ele>2.06</ele>
        <time>2018-11-12T10:37:41Z</time>
      </trkpt>
      <trkpt lat="36.7511209007" lon="-2.9367507342">
        <ele>2.06</ele>
        <time>2018-11-12T10:37:51Z</time>
      </trkpt>
      <trkpt lat="36.7511240020" lon="-2.9367048852">
        <ele>2.54</ele>
        <time>2018-11-12T10:37:59Z</time>
      </trkpt>
      <trkpt lat="36.7511147819" lon="-2.9365637340">
        <ele>2.54</ele>
        <time>2018-11-12T10:38:11Z</time>
      </trkpt>
      <trkpt lat="36.7511160392" lon="-2.9365532566">
        <ele>2.06</ele>
        <time>2018-11-12T10:38:20Z</time>
      </trkpt>
      <trkpt lat="36.7511130217" lon="-2.9365530051">
        <ele>2.54</ele>
        <time>2018-11-12T10:38:39Z</time>
      </trkpt>
      <trkpt lat="36.7511117645" lon="-2.9365235846">
        <ele>2.06</ele>
        <time>2018-11-12T10:38:53Z</time>
      </trkpt>
      <trkpt lat="36.7511092499" lon="-2.9364836030">
        <ele>2.54</ele>
        <time>2018-11-12T10:39:03Z</time>
      </trkpt>
      <trkpt lat="36.7511152010" lon="-2.9364668392">
        <ele>3.02</ele>
        <time>2018-11-12T10:39:19Z</time>
      </trkpt>
      <trkpt lat="36.7511180509" lon="-2.9363560304">
        <ele>2.54</ele>
        <time>2018-11-12T10:39:29Z</time>
      </trkpt>
      <trkpt lat="36.7511147819" lon="-2.9362478200">
        <ele>2.54</ele>
        <time>2018-11-12T10:39:40Z</time>
      </trkpt>
      <trkpt lat="36.7511203140" lon="-2.9361303896">
        <ele>2.06</ele>
        <time>2018-11-12T10:39:53Z</time>
      </trkpt>
      <trkpt lat="36.7511242535" lon="-2.9360293038">
        <ele>2.06</ele>
        <time>2018-11-12T10:40:04Z</time>
      </trkpt>
      <trkpt lat="36.7511282768" lon="-2.9359306488">
        <ele>1.58</ele>
        <time>2018-11-12T10:40:14Z</time>
      </trkpt>
      <trkpt lat="36.7511266842" lon="-2.9358250368">
        <ele>2.54</ele>
        <time>2018-11-12T10:40:25Z</time>
      </trkpt>
      <trkpt lat="36.7511194758" lon="-2.9357186705">
        <ele>2.54</ele>
        <time>2018-11-12T10:40:35Z</time>
      </trkpt>
      <trkpt lat="36.7511155363" lon="-2.9356323369">
        <ele>3.02</ele>
        <time>2018-11-12T10:40:44Z</time>
      </trkpt>
      <trkpt lat="36.7511075735" lon="-2.9355624318">
        <ele>3.50</ele>
        <time>2018-11-12T10:40:54Z</time>
      </trkpt>
      <trkpt lat="36.7511051428" lon="-2.9354905989">
        <ele>3.50</ele>
        <time>2018-11-12T10:41:02Z</time>
      </trkpt>
      <trkpt lat="36.7511094175" lon="-2.9353806283">
        <ele>3.02</ele>
        <time>2018-11-12T10:41:13Z</time>
      </trkpt>
      <trkpt lat="36.7510981858" lon="-2.9353196081">
        <ele>2.54</ele>
        <time>2018-11-12T10:41:20Z</time>
      </trkpt>
      <trkpt lat="36.7510842718" lon="-2.9352076259">
        <ele>3.02</ele>
        <time>2018-11-12T10:41:31Z</time>
      </trkpt>
      <trkpt lat="36.7510779854" lon="-2.9351291712">
        <ele>2.54</ele>
        <time>2018-11-12T10:41:39Z</time>
      </trkpt>
      <trkpt lat="36.7510683462" lon="-2.9350670613">
        <ele>3.02</ele>
        <time>2018-11-12T10:41:47Z</time>
      </trkpt>
      <trkpt lat="36.7510649096" lon="-2.9350371379">
        <ele>2.54</ele>
        <time>2018-11-12T10:41:59Z</time>
      </trkpt>
      <trkpt lat="36.7510646582" lon="-2.9349458590">
        <ele>3.02</ele>
        <time>2018-11-12T10:42:08Z</time>
      </trkpt>
      <trkpt lat="36.7510454636" lon="-2.9348326195">
        <ele>2.54</ele>
        <time>2018-11-12T10:42:18Z</time>
      </trkpt>
      <trkpt lat="36.7510196473" lon="-2.9346716870">
        <ele>2.06</ele>
        <time>2018-11-12T10:42:30Z</time>
      </trkpt>
      <trkpt lat="36.7509967647" lon="-2.9345564358">
        <ele>2.54</ele>
        <time>2018-11-12T10:42:39Z</time>
      </trkpt>
      <trkpt lat="36.7509772349" lon="-2.9344316293">
        <ele>2.06</ele>
        <time>2018-11-12T10:42:50Z</time>
      </trkpt>
      <trkpt lat="36.7509559449" lon="-2.9342887178">
        <ele>2.54</ele>
        <time>2018-11-12T10:43:01Z</time>
      </trkpt>
      <trkpt lat="36.7509295419" lon="-2.9341307189">
        <ele>2.54</ele>
        <time>2018-11-12T10:43:13Z</time>
      </trkpt>
      <trkpt lat="36.7509022169" lon="-2.9339972790">
        <ele>2.54</ele>
        <time>2018-11-12T10:43:24Z</time>
      </trkpt>
      <trkpt lat="36.7508795019" lon="-2.9338987917">
        <ele>2.06</ele>
        <time>2018-11-12T10:43:32Z</time>
      </trkpt>
      <trkpt lat="36.7508525960" lon="-2.9338098597">
        <ele>2.54</ele>
        <time>2018-11-12T10:43:41Z</time>
      </trkpt>
      <trkpt lat="36.7508502491" lon="-2.9337301478">
        <ele>2.54</ele>
        <time>2018-11-12T10:43:49Z</time>
      </trkpt>
      <trkpt lat="36.7508245166" lon="-2.9335970432">
        <ele>2.54</ele>
        <time>2018-11-12T10:43:59Z</time>
      </trkpt>
      <trkpt lat="36.7507946771" lon="-2.9334535450">
        <ele>2.54</ele>
        <time>2018-11-12T10:44:10Z</time>
      </trkpt>
      <trkpt lat="36.7507761531" lon="-2.9333594162">
        <ele>3.02</ele>
        <time>2018-11-12T10:44:20Z</time>
      </trkpt>
      <trkpt lat="36.7507784162" lon="-2.9333268106">
        <ele>3.02</ele>
        <time>2018-11-12T10:44:23Z</time>
      </trkpt>
      <trkpt lat="36.7507272866" lon="-2.9331806302">
        <ele>2.54</ele>
        <time>2018-11-12T10:44:35Z</time>
      </trkpt>
      <trkpt lat="36.7506859638" lon="-2.9330580030">
        <ele>2.54</ele>
        <time>2018-11-12T10:44:46Z</time>
      </trkpt>
      <trkpt lat="36.7506764084" lon="-2.9330092203">
        <ele>3.02</ele>
        <time>2018-11-12T10:44:54Z</time>
      </trkpt>
      <trkpt lat="36.7506690323" lon="-2.9329579230">
        <ele>3.02</ele>
        <time>2018-11-12T10:45:04Z</time>
      </trkpt>
      <trkpt lat="36.7506407853" lon="-2.9328094795">
        <ele>3.02</ele>
        <time>2018-11-12T10:45:15Z</time>
      </trkpt>
      <trkpt lat="36.7506279610" lon="-2.9327159375">
        <ele>2.54</ele>
        <time>2018-11-12T10:45:25Z</time>
      </trkpt>
      <trkpt lat="36.7506250273" lon="-2.9326481279">
        <ele>3.02</ele>
        <time>2018-11-12T10:45:32Z</time>
      </trkpt>
      <trkpt lat="36.7506110296" lon="-2.9325058870">
        <ele>3.02</ele>
        <time>2018-11-12T10:45:42Z</time>
      </trkpt>
      <trkpt lat="36.7506380193" lon="-2.9323257599">
        <ele>3.02</ele>
        <time>2018-11-12T10:45:54Z</time>
      </trkpt>
      <trkpt lat="36.7506751511" lon="-2.9321913980">
        <ele>3.50</ele>
        <time>2018-11-12T10:46:04Z</time>
      </trkpt>
      <trkpt lat="36.7506998777" lon="-2.9320679326">
        <ele>3.50</ele>
        <time>2018-11-12T10:46:13Z</time>
      </trkpt>
      <trkpt lat="36.7507405300" lon="-2.9318984505">
        <ele>3.50</ele>
        <time>2018-11-12T10:46:25Z</time>
      </trkpt>
      <trkpt lat="36.7507785838" lon="-2.9317640048">
        <ele>3.98</ele>
        <time>2018-11-12T10:46:35Z</time>
      </trkpt>
      <trkpt lat="36.7507989518" lon="-2.9316733964">
        <ele>3.98</ele>
        <time>2018-11-12T10:46:42Z</time>
      </trkpt>
      <trkpt lat="36.7507927492" lon="-2.9315888230">
        <ele>3.98</ele>
        <time>2018-11-12T10:46:49Z</time>
      </trkpt>
      <trkpt lat="36.7508488242" lon="-2.9314046726">
        <ele>3.50</ele>
        <time>2018-11-12T10:47:02Z</time>
      </trkpt>
      <trkpt lat="36.7508670967" lon="-2.9313404672">
        <ele>4.46</ele>
        <time>2018-11-12T10:47:11Z</time>
      </trkpt>
      <trkpt lat="36.7508751433" lon="-2.9313271400">
        <ele>3.50</ele>
        <time>2018-11-12T10:47:23Z</time>
      </trkpt>
      <trkpt lat="36.7508693598" lon="-2.9313361086">
        <ele>2.06</ele>
        <time>2018-11-12T10:47:44Z</time>
      </trkpt>
      <trkpt lat="36.7508680187" lon="-2.9313349351">
        <ele>1.58</ele>
        <time>2018-11-12T10:48:02Z</time>
      </trkpt>
      <trkpt lat="36.7508685216" lon="-2.9313468374">
        <ele>3.02</ele>
        <time>2018-11-12T10:48:23Z</time>
      </trkpt>
      <trkpt lat="36.7508732155" lon="-2.9313338455">
        <ele>3.50</ele>
        <time>2018-11-12T10:48:47Z</time>
      </trkpt>
      <trkpt lat="36.7508672643" lon="-2.9313372821">
        <ele>3.50</ele>
        <time>2018-11-12T10:49:13Z</time>
      </trkpt>
      <trkpt lat="36.7508657556" lon="-2.9313402157">
        <ele>3.98</ele>
        <time>2018-11-12T10:49:31Z</time>
      </trkpt>
      <trkpt lat="36.7508695275" lon="-2.9313346837">
        <ele>4.46</ele>
        <time>2018-11-12T10:49:49Z</time>
      </trkpt>
      <trkpt lat="36.7508687731" lon="-2.9313261341">
        <ele>4.94</ele>
        <time>2018-11-12T10:50:04Z</time>
      </trkpt>
      <trkpt lat="36.7508656718" lon="-2.9313302413">
        <ele>4.46</ele>
        <time>2018-11-12T10:50:20Z</time>
      </trkpt>
      <trkpt lat="36.7508603074" lon="-2.9313319176">
        <ele>3.98</ele>
        <time>2018-11-12T10:50:40Z</time>
      </trkpt>
      <trkpt lat="36.7508650012" lon="-2.9313330073">
        <ele>4.46</ele>
        <time>2018-11-12T10:51:01Z</time>
      </trkpt>
      <trkpt lat="36.7508667614" lon="-2.9313349351">
        <ele>3.98</ele>
        <time>2018-11-12T10:51:18Z</time>
      </trkpt>
      <trkpt lat="36.7508680187" lon="-2.9313349351">
        <ele>4.46</ele>
        <time>2018-11-12T10:51:35Z</time>
      </trkpt>
      <trkpt lat="36.7508695275" lon="-2.9313396290">
        <ele>4.94</ele>
        <time>2018-11-12T10:51:51Z</time>
      </trkpt>
      <trkpt lat="36.7508621514" lon="-2.9313419759">
        <ele>4.94</ele>
        <time>2018-11-12T10:52:08Z</time>
      </trkpt>
      <trkpt lat="36.7508632410" lon="-2.9313335940">
        <ele>4.94</ele>
        <time>2018-11-12T10:52:29Z</time>
      </trkpt>
      <trkpt lat="36.7508711200" lon="-2.9313325044">
        <ele>3.98</ele>
        <time>2018-11-12T10:52:48Z</time>
      </trkpt>
      <trkpt lat="36.7508626543" lon="-2.9313415568">
        <ele>3.02</ele>
        <time>2018-11-12T10:53:12Z</time>
      </trkpt>
      <trkpt lat="36.7508661747" lon="-2.9313425627">
        <ele>3.98</ele>
        <time>2018-11-12T10:53:39Z</time>
      </trkpt>
      <trkpt lat="36.7508550268" lon="-2.9313402995">
        <ele>3.50</ele>
        <time>2018-11-12T10:54:03Z</time>
      </trkpt>
      <trkpt lat="36.7508589663" lon="-2.9313328397">
        <ele>3.50</ele>
        <time>2018-11-12T10:54:21Z</time>
      </trkpt>
      <trkpt lat="36.7508624028" lon="-2.9313348513">
        <ele>4.46</ele>
        <time>2018-11-12T10:54:40Z</time>
      </trkpt>
      <trkpt lat="36.7508605588" lon="-2.9313303251">
        <ele>5.91</ele>
        <time>2018-11-12T10:55:04Z</time>
      </trkpt>
      <trkpt lat="36.7508604750" lon="-2.9313362762">
        <ele>4.94</ele>
        <time>2018-11-12T10:55:23Z</time>
      </trkpt>
      <trkpt lat="36.7508548591" lon="-2.9313382041">
        <ele>5.42</ele>
        <time>2018-11-12T10:55:40Z</time>
      </trkpt>
      <trkpt lat="36.7508585472" lon="-2.9313418083">
        <ele>3.50</ele>
        <time>2018-11-12T10:56:01Z</time>
      </trkpt>
      <trkpt lat="36.7508665100" lon="-2.9313415568">
        <ele>3.98</ele>
        <time>2018-11-12T10:56:23Z</time>
      </trkpt>
      <trkpt lat="36.7508630734" lon="-2.9313317500">
        <ele>3.02</ele>
        <time>2018-11-12T10:56:42Z</time>
      </trkpt>
      <trkpt lat="36.7508637439" lon="-2.9313513637">
        <ele>1.10</ele>
        <time>2018-11-12T10:57:02Z</time>
      </trkpt>
      <trkpt lat="36.7508610617" lon="-2.9313405510">
        <ele>2.54</ele>
        <time>2018-11-12T10:57:18Z</time>
      </trkpt>
      <trkpt lat="36.7508574575" lon="-2.9313348513">
        <ele>2.06</ele>
        <time>2018-11-12T10:57:40Z</time>
      </trkpt>
      <trkpt lat="36.7508662585" lon="-2.9313378688">
        <ele>2.06</ele>
        <time>2018-11-12T10:58:01Z</time>
      </trkpt>
      <trkpt lat="36.7508636601" lon="-2.9313408863">
        <ele>2.06</ele>
        <time>2018-11-12T10:58:20Z</time>
      </trkpt>
      <trkpt lat="36.7508610617" lon="-2.9313291516">
        <ele>1.58</ele>
        <time>2018-11-12T10:58:44Z</time>
      </trkpt>
      <trkpt lat="36.7508617323" lon="-2.9313338455">
        <ele>1.58</ele>
        <time>2018-11-12T10:59:07Z</time>
      </trkpt>
      <trkpt lat="36.7508625705" lon="-2.9313321691">
        <ele>2.06</ele>
        <time>2018-11-12T10:59:27Z</time>
      </trkpt>
      <trkpt lat="36.7508704495" lon="-2.9313267209">
        <ele>2.54</ele>
        <time>2018-11-12T10:59:44Z</time>
      </trkpt>
      <trkpt lat="36.7508689407" lon="-2.9313333426">
        <ele>2.06</ele>
        <time>2018-11-12T11:00:00Z</time>
      </trkpt>
      <trkpt lat="36.7508642469" lon="-2.9313320853">
        <ele>2.06</ele>
        <time>2018-11-12T11:00:21Z</time>
      </trkpt>
      <trkpt lat="36.7508610617" lon="-2.9313413892">
        <ele>2.54</ele>
        <time>2018-11-12T11:00:42Z</time>
      </trkpt>
      <trkpt lat="36.7508600559" lon="-2.9313401319">
        <ele>3.02</ele>
        <time>2018-11-12T11:00:59Z</time>
      </trkpt>
      <trkpt lat="36.7508607265" lon="-2.9313386232">
        <ele>3.02</ele>
        <time>2018-11-12T11:01:11Z</time>
      </trkpt>
      <trkpt lat="36.7508545239" lon="-2.9313562252">
        <ele>3.50</ele>
        <time>2018-11-12T11:01:19Z</time>
      </trkpt>
      <trkpt lat="36.7508133687" lon="-2.9315210134">
        <ele>3.02</ele>
        <time>2018-11-12T11:01:30Z</time>
      </trkpt>
      <trkpt lat="36.7507935036" lon="-2.9316741508">
        <ele>3.02</ele>
        <time>2018-11-12T11:01:40Z</time>
      </trkpt>
      <trkpt lat="36.7507761531" lon="-2.9318239354">
        <ele>3.50</ele>
        <time>2018-11-12T11:01:50Z</time>
      </trkpt>
      <trkpt lat="36.7507387698" lon="-2.9319668468">
        <ele>3.50</ele>
        <time>2018-11-12T11:02:01Z</time>
      </trkpt>
      <trkpt lat="36.7507477384" lon="-2.9320299625">
        <ele>4.46</ele>
        <time>2018-11-12T11:02:09Z</time>
      </trkpt>
      <trkpt lat="36.7507979460" lon="-2.9320619814">
        <ele>4.94</ele>
        <time>2018-11-12T11:02:18Z</time>
      </trkpt>
      <trkpt lat="36.7508101836" lon="-2.9320670944">
        <ele>4.94</ele>
        <time>2018-11-12T11:02:27Z</time>
      </trkpt>
      <trkpt lat="36.7508522607" lon="-2.9321001191">
        <ele>5.91</ele>
        <time>2018-11-12T11:02:35Z</time>
      </trkpt>
      <trkpt lat="36.7508794181" lon="-2.9321176372">
        <ele>6.39</ele>
        <time>2018-11-12T11:02:43Z</time>
      </trkpt>
      <trkpt lat="36.7508720420" lon="-2.9321140330">
        <ele>6.39</ele>
        <time>2018-11-12T11:02:56Z</time>
      </trkpt>
      <trkpt lat="36.7508795019" lon="-2.9321224988">
        <ele>6.39</ele>
        <time>2018-11-12T11:03:30Z</time>
      </trkpt>
      <trkpt lat="36.7508852854" lon="-2.9321074113">
        <ele>5.42</ele>
        <time>2018-11-12T11:03:51Z</time>
      </trkpt>
      <trkpt lat="36.7508762330" lon="-2.9321230855">
        <ele>5.91</ele>
        <time>2018-11-12T11:04:15Z</time>
      </trkpt>
      <trkpt lat="36.7508758139" lon="-2.9321248457">
        <ele>5.42</ele>
        <time>2018-11-12T11:04:39Z</time>
      </trkpt>
      <trkpt lat="36.7508924939" lon="-2.9321138654">
        <ele>4.46</ele>
        <time>2018-11-12T11:05:03Z</time>
      </trkpt>
      <trkpt lat="36.7508863751" lon="-2.9321065731">
        <ele>5.42</ele>
        <time>2018-11-12T11:05:14Z</time>
      </trkpt>
      <trkpt lat="36.7508884706" lon="-2.9321199842">
        <ele>5.91</ele>
        <time>2018-11-12T11:05:23Z</time>
      </trkpt>
      <trkpt lat="36.7508817650" lon="-2.9321153741">
        <ele>6.39</ele>
        <time>2018-11-12T11:05:35Z</time>
      </trkpt>
      <trkpt lat="36.7508848663" lon="-2.9321146198">
        <ele>6.39</ele>
        <time>2018-11-12T11:06:02Z</time>
      </trkpt>
      <trkpt lat="36.7508800048" lon="-2.9321162123">
        <ele>5.42</ele>
        <time>2018-11-12T11:06:24Z</time>
      </trkpt>
      <trkpt lat="36.7508852016" lon="-2.9321184754">
        <ele>5.91</ele>
        <time>2018-11-12T11:06:49Z</time>
      </trkpt>
      <trkpt lat="36.7508876324" lon="-2.9321161285">
        <ele>4.94</ele>
        <time>2018-11-12T11:07:13Z</time>
      </trkpt>
      <trkpt lat="36.7508888897" lon="-2.9321107641">
        <ele>5.91</ele>
        <time>2018-11-12T11:07:31Z</time>
      </trkpt>
      <trkpt lat="36.7508975230" lon="-2.9321924876">
        <ele>5.91</ele>
        <time>2018-11-12T11:07:37Z</time>
      </trkpt>
      <trkpt lat="36.7509230878" lon="-2.9323966708">
        <ele>6.87</ele>
        <time>2018-11-12T11:07:48Z</time>
      </trkpt>
      <trkpt lat="36.7509727087" lon="-2.9323991854">
        <ele>7.35</ele>
        <time>2018-11-12T11:07:55Z</time>
      </trkpt>
      <trkpt lat="36.7509845272" lon="-2.9323860258">
        <ele>7.35</ele>
        <time>2018-11-12T11:08:01Z</time>
      </trkpt>
      <trkpt lat="36.7510147858" lon="-2.9323528334">
        <ele>8.79</ele>
        <time>2018-11-12T11:08:10Z</time>
      </trkpt>
      <trkpt lat="36.7510286160" lon="-2.9323271010">
        <ele>9.75</ele>
        <time>2018-11-12T11:08:17Z</time>
      </trkpt>
      <trkpt lat="36.7510489002" lon="-2.9322875384">
        <ele>10.23</ele>
        <time>2018-11-12T11:08:26Z</time>
      </trkpt>
      <trkpt lat="36.7510675918" lon="-2.9322773125">
        <ele>10.71</ele>
        <time>2018-11-12T11:08:32Z</time>
      </trkpt>
      <trkpt lat="36.7510913964" lon="-2.9322487302">
        <ele>11.19</ele>
        <time>2018-11-12T11:08:40Z</time>
      </trkpt>
      <trkpt lat="36.7511154525" lon="-2.9321699403">
        <ele>13.12</ele>
        <time>2018-11-12T11:08:49Z</time>
      </trkpt>
      <trkpt lat="36.7511279415" lon="-2.9321054835">
        <ele>14.08</ele>
        <time>2018-11-12T11:08:58Z</time>
      </trkpt>
      <trkpt lat="36.7511591222" lon="-2.9320645798">
        <ele>15.04</ele>
        <time>2018-11-12T11:09:03Z</time>
      </trkpt>
      <trkpt lat="36.7511897162" lon="-2.9320224188">
        <ele>15.04</ele>
        <time>2018-11-12T11:09:11Z</time>
      </trkpt>
      <trkpt lat="36.7512432765" lon="-2.9319306370">
        <ele>15.52</ele>
        <time>2018-11-12T11:09:18Z</time>
      </trkpt>
      <trkpt lat="36.7512774747" lon="-2.9317376018">
        <ele>16.96</ele>
        <time>2018-11-12T11:09:27Z</time>
      </trkpt>
      <trkpt lat="36.7513390817" lon="-2.9316136334">
        <ele>16.96</ele>
        <time>2018-11-12T11:09:33Z</time>
      </trkpt>
      <trkpt lat="36.7515349668" lon="-2.9315174092">
        <ele>17.92</ele>
        <time>2018-11-12T11:09:41Z</time>
      </trkpt>
      <trkpt lat="36.7517693248" lon="-2.9313984700">
        <ele>19.84</ele>
        <time>2018-11-12T11:09:50Z</time>
      </trkpt>
      <trkpt lat="36.7519849073" lon="-2.9312810395">
        <ele>21.29</ele>
        <time>2018-11-12T11:09:58Z</time>
      </trkpt>
      <trkpt lat="36.7523074429" lon="-2.9311112221">
        <ele>22.73</ele>
        <time>2018-11-12T11:10:09Z</time>
      </trkpt>
      <trkpt lat="36.7523996439" lon="-2.9310351145">
        <ele>23.21</ele>
        <time>2018-11-12T11:10:13Z</time>
      </trkpt>
      <trkpt lat="36.7525489256" lon="-2.9309723340">
        <ele>23.21</ele>
        <time>2018-11-12T11:10:19Z</time>
      </trkpt>
      <trkpt lat="36.7525557987" lon="-2.9309497867">
        <ele>23.21</ele>
        <time>2018-11-12T11:10:20Z</time>
      </trkpt>
      <trkpt lat="36.7525907513" lon="-2.9308462702">
        <ele>22.25</ele>
        <time>2018-11-12T11:10:28Z</time>
      </trkpt>
      <trkpt lat="36.7525808606" lon="-2.9308289196">
        <ele>22.25</ele>
        <time>2018-11-12T11:10:40Z</time>
      </trkpt>
      <trkpt lat="36.7525923438" lon="-2.9308290873">
        <ele>24.65</ele>
        <time>2018-11-12T11:11:03Z</time>
      </trkpt>
      <trkpt lat="36.7525781784" lon="-2.9308527242">
        <ele>25.13</ele>
        <time>2018-11-12T11:11:20Z</time>
      </trkpt>
      <trkpt lat="36.7525782622" lon="-2.9308573343">
        <ele>22.25</ele>
        <time>2018-11-12T11:11:39Z</time>
      </trkpt>
      <trkpt lat="36.7525870632" lon="-2.9308508802">
        <ele>22.73</ele>
        <time>2018-11-12T11:11:57Z</time>
      </trkpt>
      <trkpt lat="36.7525852192" lon="-2.9308466893">
        <ele>21.77</ele>
        <time>2018-11-12T11:12:13Z</time>
      </trkpt>
      <trkpt lat="36.7525863089" lon="-2.9308525566">
        <ele>23.69</ele>
        <time>2018-11-12T11:12:32Z</time>
      </trkpt>
      <trkpt lat="36.7525765859" lon="-2.9308458511">
        <ele>22.25</ele>
        <time>2018-11-12T11:12:47Z</time>
      </trkpt>
      <trkpt lat="36.7525802739" lon="-2.9308491200">
        <ele>21.77</ele>
        <time>2018-11-12T11:13:01Z</time>
      </trkpt>
      <trkpt lat="36.7526114546" lon="-2.9307731800">
        <ele>21.77</ele>
        <time>2018-11-12T11:13:06Z</time>
      </trkpt>
      <trkpt lat="36.7526430544" lon="-2.9305623751">
        <ele>22.25</ele>
        <time>2018-11-12T11:13:12Z</time>
      </trkpt>
      <trkpt lat="36.7526714690" lon="-2.9302581958">
        <ele>22.73</ele>
        <time>2018-11-12T11:13:20Z</time>
      </trkpt>
      <trkpt lat="36.7526852991" lon="-2.9300994426">
        <ele>22.73</ele>
        <time>2018-11-12T11:13:23Z</time>
      </trkpt>
      <trkpt lat="36.7527422123" lon="-2.9297536891">
        <ele>22.73</ele>
        <time>2018-11-12T11:13:29Z</time>
      </trkpt>
      <trkpt lat="36.7528557871" lon="-2.9292302392">
        <ele>22.73</ele>
        <time>2018-11-12T11:13:38Z</time>
      </trkpt>
      <trkpt lat="36.7529614829" lon="-2.9288266506">
        <ele>22.73</ele>
        <time>2018-11-12T11:13:47Z</time>
      </trkpt>
      <trkpt lat="36.7530649155" lon="-2.9284189548">
        <ele>23.21</ele>
        <time>2018-11-12T11:13:58Z</time>
      </trkpt>
      <trkpt lat="36.7531346530" lon="-2.9281233251">
        <ele>23.21</ele>
        <time>2018-11-12T11:14:06Z</time>
      </trkpt>
      <trkpt lat="36.7532270215" lon="-2.9277503304">
        <ele>22.25</ele>
        <time>2018-11-12T11:14:13Z</time>
      </trkpt>
      <trkpt lat="36.7533137742" lon="-2.9272141401">
        <ele>22.25</ele>
        <time>2018-11-12T11:14:21Z</time>
      </trkpt>
      <trkpt lat="36.7533042189" lon="-2.9266086314">
        <ele>22.25</ele>
        <time>2018-11-12T11:14:29Z</time>
      </trkpt>
      <trkpt lat="36.7531790771" lon="-2.9258272704">
        <ele>21.77</ele>
        <time>2018-11-12T11:14:39Z</time>
      </trkpt>
      <trkpt lat="36.7530209105" lon="-2.9248831328">
        <ele>21.29</ele>
        <time>2018-11-12T11:14:51Z</time>
      </trkpt>
      <trkpt lat="36.7530135345" lon="-2.9244822264">
        <ele>22.25</ele>
        <time>2018-11-12T11:14:57Z</time>
      </trkpt>
      <trkpt lat="36.7530785780" lon="-2.9239408392">
        <ele>22.73</ele>
        <time>2018-11-12T11:15:06Z</time>
      </trkpt>
      <trkpt lat="36.7532019597" lon="-2.9233423714">
        <ele>22.25</ele>
        <time>2018-11-12T11:15:15Z</time>
      </trkpt>
      <trkpt lat="36.7533418536" lon="-2.9226798657">
        <ele>22.73</ele>
        <time>2018-11-12T11:15:25Z</time>
      </trkpt>
      <trkpt lat="36.7534327134" lon="-2.9222551547">
        <ele>23.21</ele>
        <time>2018-11-12T11:15:33Z</time>
      </trkpt>
      <trkpt lat="36.7535098270" lon="-2.9218853451">
        <ele>23.21</ele>
        <time>2018-11-12T11:15:42Z</time>
      </trkpt>
      <trkpt lat="36.7535807379" lon="-2.9215318803">
        <ele>23.69</ele>
        <time>2018-11-12T11:15:51Z</time>
      </trkpt>
      <trkpt lat="36.7536666524" lon="-2.9210900702">
        <ele>22.73</ele>
        <time>2018-11-12T11:15:59Z</time>
      </trkpt>
      <trkpt lat="36.7537080590" lon="-2.9205592442">
        <ele>22.25</ele>
        <time>2018-11-12T11:16:07Z</time>
      </trkpt>
      <trkpt lat="36.7536114156" lon="-2.9198137578">
        <ele>23.69</ele>
        <time>2018-11-12T11:16:18Z</time>
      </trkpt>
      <trkpt lat="36.7534977570" lon="-2.9191473965">
        <ele>25.61</ele>
        <time>2018-11-12T11:16:29Z</time>
      </trkpt>
      <trkpt lat="36.7534602899" lon="-2.9186378606">
        <ele>27.53</ele>
        <time>2018-11-12T11:16:38Z</time>
      </trkpt>
      <trkpt lat="36.7534996010" lon="-2.9180216230">
        <ele>28.98</ele>
        <time>2018-11-12T11:16:49Z</time>
      </trkpt>
      <trkpt lat="36.7535989266" lon="-2.9175059684">
        <ele>29.94</ele>
        <time>2018-11-12T11:16:58Z</time>
      </trkpt>
      <trkpt lat="36.7537855078" lon="-2.9167656787">
        <ele>31.38</ele>
        <time>2018-11-12T11:17:11Z</time>
      </trkpt>
      <trkpt lat="36.7538568377" lon="-2.9162133113">
        <ele>32.34</ele>
        <time>2018-11-12T11:17:21Z</time>
      </trkpt>
      <trkpt lat="36.7538299318" lon="-2.9156507179">
        <ele>32.34</ele>
        <time>2018-11-12T11:17:31Z</time>
      </trkpt>
      <trkpt lat="36.7537411675" lon="-2.9151824210">
        <ele>31.86</ele>
        <time>2018-11-12T11:17:40Z</time>
      </trkpt>
      <trkpt lat="36.7536530737" lon="-2.9149375018">
        <ele>30.90</ele>
        <time>2018-11-12T11:17:46Z</time>
      </trkpt>
      <trkpt lat="36.7535935622" lon="-2.9148056544">
        <ele>30.42</ele>
        <time>2018-11-12T11:17:49Z</time>
      </trkpt>
      <trkpt lat="36.7535036243" lon="-2.9146780819">
        <ele>29.94</ele>
        <time>2018-11-12T11:17:52Z</time>
      </trkpt>
      <trkpt lat="36.7533422727" lon="-2.9143660236">
        <ele>28.50</ele>
        <time>2018-11-12T11:17:58Z</time>
      </trkpt>
      <trkpt lat="36.7533132713" lon="-2.9143286403">
        <ele>28.02</ele>
        <time>2018-11-12T11:17:59Z</time>
      </trkpt>
      <trkpt lat="36.7532778997" lon="-2.9143098649">
        <ele>27.53</ele>
        <time>2018-11-12T11:18:00Z</time>
      </trkpt>
      <trkpt lat="36.7531837709" lon="-2.9143391177">
        <ele>26.57</ele>
        <time>2018-11-12T11:18:02Z</time>
      </trkpt>
      <trkpt lat="36.7527205031" lon="-2.9146217555">
        <ele>22.25</ele>
        <time>2018-11-12T11:18:10Z</time>
      </trkpt>
      <trkpt lat="36.7524529528" lon="-2.9147618171">
        <ele>21.29</ele>
        <time>2018-11-12T11:18:15Z</time>
      </trkpt>
      <trkpt lat="36.7523616739" lon="-2.9148225859">
        <ele>21.29</ele>
        <time>2018-11-12T11:18:19Z</time>
      </trkpt>
      <trkpt lat="36.7523311637" lon="-2.9148466419">
        <ele>20.81</ele>
        <time>2018-11-12T11:18:20Z</time>
      </trkpt>
      <trkpt lat="36.7522158287" lon="-2.9150580335">
        <ele>19.84</ele>
        <time>2018-11-12T11:18:25Z</time>
      </trkpt>
      <trkpt lat="36.7520254757" lon="-2.9150684271">
        <ele>19.36</ele>
        <time>2018-11-12T11:18:29Z</time>
      </trkpt>
      <trkpt lat="36.7518607713" lon="-2.9151141085">
        <ele>18.88</ele>
        <time>2018-11-12T11:18:32Z</time>
      </trkpt>
      <trkpt lat="36.7513346393" lon="-2.9154166114">
        <ele>17.92</ele>
        <time>2018-11-12T11:18:41Z</time>
      </trkpt>
      <trkpt lat="36.7508123629" lon="-2.9157150071">
        <ele>16.00</ele>
        <time>2018-11-12T11:18:49Z</time>
      </trkpt>
      <trkpt lat="36.7502759211" lon="-2.9160175100">
        <ele>14.56</ele>
        <time>2018-11-12T11:18:57Z</time>
      </trkpt>
      <trkpt lat="36.7500428203" lon="-2.9161742516">
        <ele>14.56</ele>
        <time>2018-11-12T11:19:03Z</time>
      </trkpt>
      <trkpt lat="36.7499014176" lon="-2.9162220284">
        <ele>14.08</ele>
        <time>2018-11-12T11:19:09Z</time>
      </trkpt>
      <trkpt lat="36.7498782836" lon="-2.9162403848">
        <ele>14.08</ele>
        <time>2018-11-12T11:19:10Z</time>
      </trkpt>
      <trkpt lat="36.7498553172" lon="-2.9162607528">
        <ele>14.08</ele>
        <time>2018-11-12T11:19:11Z</time>
      </trkpt>
      <trkpt lat="36.7498376314" lon="-2.9162720684">
        <ele>13.60</ele>
        <time>2018-11-12T11:19:12Z</time>
      </trkpt>
      <trkpt lat="36.7496987432" lon="-2.9163813684">
        <ele>12.63</ele>
        <time>2018-11-12T11:19:20Z</time>
      </trkpt>
      <trkpt lat="36.7496782076" lon="-2.9163744953">
        <ele>12.15</ele>
        <time>2018-11-12T11:19:21Z</time>
      </trkpt>
      <trkpt lat="36.7496616114" lon="-2.9163651075">
        <ele>12.15</ele>
        <time>2018-11-12T11:19:22Z</time>
      </trkpt>
      <trkpt lat="36.7496446799" lon="-2.9163480923">
        <ele>11.67</ele>
        <time>2018-11-12T11:19:23Z</time>
      </trkpt>
      <trkpt lat="36.7496304307" lon="-2.9163277242">
        <ele>11.67</ele>
        <time>2018-11-12T11:19:24Z</time>
      </trkpt>
      <trkpt lat="36.7495711707" lon="-2.9162031692">
        <ele>11.19</ele>
        <time>2018-11-12T11:19:31Z</time>
      </trkpt>
      <trkpt lat="36.7495032772" lon="-2.9160228744">
        <ele>9.75</ele>
        <time>2018-11-12T11:19:39Z</time>
      </trkpt>
      <trkpt lat="36.7493775487" lon="-2.9157489538">
        <ele>8.79</ele>
        <time>2018-11-12T11:19:51Z</time>
      </trkpt>
      <trkpt lat="36.7493627965" lon="-2.9157057870">
        <ele>8.79</ele>
        <time>2018-11-12T11:19:53Z</time>
      </trkpt>
      <trkpt lat="36.7493492179" lon="-2.9156864248">
        <ele>8.79</ele>
        <time>2018-11-12T11:19:54Z</time>
      </trkpt>
      <trkpt lat="36.7493340466" lon="-2.9156727623">
        <ele>8.79</ele>
        <time>2018-11-12T11:19:55Z</time>
      </trkpt>
      <trkpt lat="36.7492751218" lon="-2.9156973213">
        <ele>7.83</ele>
        <time>2018-11-12T11:19:59Z</time>
      </trkpt>
      <trkpt lat="36.7492077313" lon="-2.9156021029">
        <ele>6.39</ele>
        <time>2018-11-12T11:20:03Z</time>
      </trkpt>
      <trkpt lat="36.7491393350" lon="-2.9155219719">
        <ele>5.91</ele>
        <time>2018-11-12T11:20:07Z</time>
      </trkpt>
      <trkpt lat="36.7491267622" lon="-2.9154903721">
        <ele>5.91</ele>
        <time>2018-11-12T11:20:14Z</time>
      </trkpt>
      <trkpt lat="36.7491352279" lon="-2.9154950660">
        <ele>6.87</ele>
        <time>2018-11-12T11:20:36Z</time>
      </trkpt>
      <trkpt lat="36.7491372395" lon="-2.9154949822">
        <ele>8.31</ele>
        <time>2018-11-12T11:21:01Z</time>
      </trkpt>
      <trkpt lat="36.7491317075" lon="-2.9154852591">
        <ele>8.31</ele>
        <time>2018-11-12T11:21:26Z</time>
      </trkpt>
      <trkpt lat="36.7491321266" lon="-2.9154825769">
        <ele>8.31</ele>
        <time>2018-11-12T11:21:50Z</time>
      </trkpt>
      <trkpt lat="36.7491298635" lon="-2.9154834989">
        <ele>8.31</ele>
        <time>2018-11-12T11:22:10Z</time>
      </trkpt>
      <trkpt lat="36.7491329648" lon="-2.9154951498">
        <ele>8.31</ele>
        <time>2018-11-12T11:22:29Z</time>
      </trkpt>
      <trkpt lat="36.7491350602" lon="-2.9154940601">
        <ele>7.35</ele>
        <time>2018-11-12T11:22:50Z</time>
      </trkpt>
      <trkpt lat="36.7491339706" lon="-2.9154923838">
        <ele>6.39</ele>
        <time>2018-11-12T11:23:08Z</time>
      </trkpt>
      <trkpt lat="36.7491412628" lon="-2.9154969100">
        <ele>6.87</ele>
        <time>2018-11-12T11:23:29Z</time>
      </trkpt>
      <trkpt lat="36.7491358984" lon="-2.9154947307">
        <ele>6.87</ele>
        <time>2018-11-12T11:23:47Z</time>
      </trkpt>
      <trkpt lat="36.7491343897" lon="-2.9154889472">
        <ele>6.87</ele>
        <time>2018-11-12T11:24:04Z</time>
      </trkpt>
      <trkpt lat="36.7491312884" lon="-2.9154862650">
        <ele>7.35</ele>
        <time>2018-11-12T11:24:24Z</time>
      </trkpt>
      <trkpt lat="36.7491291091" lon="-2.9154913779">
        <ele>7.83</ele>
        <time>2018-11-12T11:24:49Z</time>
      </trkpt>
      <trkpt lat="36.7491281871" lon="-2.9154922161">
        <ele>7.35</ele>
        <time>2018-11-12T11:25:09Z</time>
      </trkpt>
      <trkpt lat="36.7491371557" lon="-2.9154924676">
        <ele>7.35</ele>
        <time>2018-11-12T11:25:27Z</time>
      </trkpt>
      <trkpt lat="36.7491371557" lon="-2.9154901206">
        <ele>7.83</ele>
        <time>2018-11-12T11:25:48Z</time>
      </trkpt>
      <trkpt lat="36.7491375748" lon="-2.9154891148">
        <ele>7.35</ele>
        <time>2018-11-12T11:26:07Z</time>
      </trkpt>
      <trkpt lat="36.7491355632" lon="-2.9154890310">
        <ele>7.83</ele>
        <time>2018-11-12T11:26:25Z</time>
      </trkpt>
      <trkpt lat="36.7491376586" lon="-2.9154840857">
        <ele>7.35</ele>
        <time>2018-11-12T11:26:45Z</time>
      </trkpt>
      <trkpt lat="36.7491321266" lon="-2.9154817387">
        <ele>8.31</ele>
        <time>2018-11-12T11:27:06Z</time>
      </trkpt>
      <trkpt lat="36.7491283547" lon="-2.9154817387">
        <ele>8.79</ele>
        <time>2018-11-12T11:27:24Z</time>
      </trkpt>
      <trkpt lat="36.7491390835" lon="-2.9154812358">
        <ele>8.31</ele>
        <time>2018-11-12T11:27:43Z</time>
      </trkpt>
      <trkpt lat="36.7491333000" lon="-2.9154818226">
        <ele>8.79</ele>
        <time>2018-11-12T11:28:01Z</time>
      </trkpt>
      <trkpt lat="36.7491298635" lon="-2.9154875223">
        <ele>8.79</ele>
        <time>2018-11-12T11:28:21Z</time>
      </trkpt>
      <trkpt lat="36.7491245829" lon="-2.9154871870">
        <ele>8.79</ele>
        <time>2018-11-12T11:28:41Z</time>
      </trkpt>
      <trkpt lat="36.7491320428" lon="-2.9154940601">
        <ele>7.83</ele>
        <time>2018-11-12T11:29:02Z</time>
      </trkpt>
      <trkpt lat="36.7491332162" lon="-2.9154849239">
        <ele>8.31</ele>
        <time>2018-11-12T11:29:20Z</time>
      </trkpt>
      <trkpt lat="36.7491327133" lon="-2.9154886957">
        <ele>8.31</ele>
        <time>2018-11-12T11:29:40Z</time>
      </trkpt>
      <trkpt lat="36.7491275165" lon="-2.9154855106">
        <ele>8.31</ele>
        <time>2018-11-12T11:30:00Z</time>
      </trkpt>
      <trkpt lat="36.7491237447" lon="-2.9154802300">
        <ele>8.31</ele>
        <time>2018-11-12T11:30:23Z</time>
      </trkpt>
      <trkpt lat="36.7491207272" lon="-2.9154803138">
        <ele>8.79</ele>
        <time>2018-11-12T11:30:41Z</time>
      </trkpt>
      <trkpt lat="36.7491167877" lon="-2.9154823255">
        <ele>8.79</ele>
        <time>2018-11-12T11:31:00Z</time>
      </trkpt>
      <trkpt lat="36.7491156980" lon="-2.9154786374">
        <ele>8.79</ele>
        <time>2018-11-12T11:31:20Z</time>
      </trkpt>
      <trkpt lat="36.7491229903" lon="-2.9154776316">
        <ele>9.27</ele>
        <time>2018-11-12T11:31:40Z</time>
      </trkpt>
      <trkpt lat="36.7491125967" lon="-2.9154799785">
        <ele>7.35</ele>
        <time>2018-11-12T11:32:02Z</time>
      </trkpt>
      <trkpt lat="36.7491153628" lon="-2.9154899530">
        <ele>7.35</ele>
        <time>2018-11-12T11:32:16Z</time>
      </trkpt>
      <trkpt lat="36.7491148598" lon="-2.9154850915">
        <ele>6.87</ele>
        <time>2018-11-12T11:32:17Z</time>
      </trkpt>
      <trkpt lat="36.7490213178" lon="-2.9153271765">
        <ele>6.87</ele>
        <time>2018-11-12T11:32:25Z</time>
      </trkpt>
      <trkpt lat="36.7488997802" lon="-2.9151400924">
        <ele>6.87</ele>
        <time>2018-11-12T11:32:34Z</time>
      </trkpt>
      <trkpt lat="36.7487667594" lon="-2.9149183910">
        <ele>6.39</ele>
        <time>2018-11-12T11:32:44Z</time>
      </trkpt>
      <trkpt lat="36.7486567888" lon="-2.9147551116">
        <ele>6.87</ele>
        <time>2018-11-12T11:32:52Z</time>
      </trkpt>
      <trkpt lat="36.7485295516" lon="-2.9145412892">
        <ele>6.39</ele>
        <time>2018-11-12T11:33:00Z</time>
      </trkpt>
      <trkpt lat="36.7483821977" lon="-2.9143215157">
        <ele>6.39</ele>
        <time>2018-11-12T11:33:08Z</time>
      </trkpt>
      <trkpt lat="36.7482291441" lon="-2.9140968807">
        <ele>5.91</ele>
        <time>2018-11-12T11:33:16Z</time>
      </trkpt>
      <trkpt lat="36.7480284814" lon="-2.9138090461">
        <ele>5.42</ele>
        <time>2018-11-12T11:33:26Z</time>
      </trkpt>
      <trkpt lat="36.7480106279" lon="-2.9137784522">
        <ele>5.42</ele>
        <time>2018-11-12T11:33:27Z</time>
      </trkpt>
      <trkpt lat="36.7480327561" lon="-2.9136595968">
        <ele>5.42</ele>
        <time>2018-11-12T11:33:31Z</time>
      </trkpt>
      <trkpt lat="36.7482145596" lon="-2.9134910367">
        <ele>6.39</ele>
        <time>2018-11-12T11:33:40Z</time>
      </trkpt>
      <trkpt lat="36.7482513562" lon="-2.9134435952">
        <ele>6.87</ele>
        <time>2018-11-12T11:33:46Z</time>
      </trkpt>
      <trkpt lat="36.7482666112" lon="-2.9134363867">
        <ele>6.39</ele>
        <time>2018-11-12T11:34:03Z</time>
      </trkpt>
      <trkpt lat="36.7482998874" lon="-2.9133539926">
        <ele>7.83</ele>
        <time>2018-11-12T11:34:09Z</time>
      </trkpt>
      <trkpt lat="36.7482893262" lon="-2.9133309424">
        <ele>7.83</ele>
        <time>2018-11-12T11:34:10Z</time>
      </trkpt>
      <trkpt lat="36.7481677048" lon="-2.9130815808">
        <ele>7.35</ele>
        <time>2018-11-12T11:34:18Z</time>
      </trkpt>
      <trkpt lat="36.7480390426" lon="-2.9128659144">
        <ele>6.87</ele>
        <time>2018-11-12T11:34:26Z</time>
      </trkpt>
      <trkpt lat="36.7479845602" lon="-2.9127285350">
        <ele>6.87</ele>
        <time>2018-11-12T11:34:32Z</time>
      </trkpt>
      <trkpt lat="36.7480257154" lon="-2.9127285350">
        <ele>6.87</ele>
        <time>2018-11-12T11:34:35Z</time>
      </trkpt>
      <trkpt lat="36.7480404675" lon="-2.9127540160">
        <ele>6.87</ele>
        <time>2018-11-12T11:34:36Z</time>
      </trkpt>
      <trkpt lat="36.7480541300" lon="-2.9127835203">
        <ele>6.87</ele>
        <time>2018-11-12T11:34:37Z</time>
      </trkpt>
      <trkpt lat="36.7480680440" lon="-2.9128148686">
        <ele>6.87</ele>
        <time>2018-11-12T11:34:38Z</time>
      </trkpt>
      <trkpt lat="36.7480864841" lon="-2.9128495697">
        <ele>6.87</ele>
        <time>2018-11-12T11:34:39Z</time>
      </trkpt>
      <trkpt lat="36.7482525297" lon="-2.9131594487">
        <ele>6.39</ele>
        <time>2018-11-12T11:34:47Z</time>
      </trkpt>
      <trkpt lat="36.7483541183" lon="-2.9133640509">
        <ele>6.87</ele>
        <time>2018-11-12T11:34:53Z</time>
      </trkpt>
      <trkpt lat="36.7483915854" lon="-2.9133689124">
        <ele>6.87</ele>
        <time>2018-11-12T11:34:54Z</time>
      </trkpt>
      <trkpt lat="36.7484200001" lon="-2.9133503046">
        <ele>6.87</ele>
        <time>2018-11-12T11:34:55Z</time>
      </trkpt>
      <trkpt lat="36.7484433018" lon="-2.9133254942">
        <ele>6.39</ele>
        <time>2018-11-12T11:34:56Z</time>
      </trkpt>
      <trkpt lat="36.7484699562" lon="-2.9132972471">
        <ele>6.39</ele>
        <time>2018-11-12T11:34:57Z</time>
      </trkpt>
      <trkpt lat="36.7484981194" lon="-2.9132703412">
        <ele>6.39</ele>
        <time>2018-11-12T11:34:58Z</time>
      </trkpt>
      <trkpt lat="36.7485230975" lon="-2.9132408369">
        <ele>6.39</ele>
        <time>2018-11-12T11:34:59Z</time>
      </trkpt>
      <trkpt lat="36.7485484947" lon="-2.9132099077">
        <ele>6.87</ele>
        <time>2018-11-12T11:35:00Z</time>
      </trkpt>
      <trkpt lat="36.7487991136" lon="-2.9128478933">
        <ele>8.31</ele>
        <time>2018-11-12T11:35:10Z</time>
      </trkpt>
      <trkpt lat="36.7489211541" lon="-2.9125886410">
        <ele>9.27</ele>
        <time>2018-11-12T11:35:16Z</time>
      </trkpt>
      <trkpt lat="36.7490889598" lon="-2.9121019877">
        <ele>9.75</ele>
        <time>2018-11-12T11:35:27Z</time>
      </trkpt>
      <trkpt lat="36.7492135148" lon="-2.9118542187">
        <ele>11.19</ele>
        <time>2018-11-12T11:35:34Z</time>
      </trkpt>
      <trkpt lat="36.7492776364" lon="-2.9115549847">
        <ele>11.67</ele>
        <time>2018-11-12T11:35:41Z</time>
      </trkpt>
      <trkpt lat="36.7493098229" lon="-2.9110327922">
        <ele>12.63</ele>
        <time>2018-11-12T11:35:52Z</time>
      </trkpt>
      <trkpt lat="36.7493149359" lon="-2.9108512402">
        <ele>13.12</ele>
        <time>2018-11-12T11:35:58Z</time>
      </trkpt>
      <trkpt lat="36.7493031174" lon="-2.9107967578">
        <ele>12.63</ele>
        <time>2018-11-12T11:36:03Z</time>
      </trkpt>
      <trkpt lat="36.7493131757" lon="-2.9107830115">
        <ele>12.63</ele>
        <time>2018-11-12T11:36:16Z</time>
      </trkpt>
      <trkpt lat="36.7493153550" lon="-2.9107663315">
        <ele>12.63</ele>
        <time>2018-11-12T11:36:17Z</time>
      </trkpt>
      <trkpt lat="36.7492954899" lon="-2.9105425347">
        <ele>13.12</ele>
        <time>2018-11-12T11:36:23Z</time>
      </trkpt>
      <trkpt lat="36.7492638901" lon="-2.9100676998">
        <ele>14.56</ele>
        <time>2018-11-12T11:36:32Z</time>
      </trkpt>
      <trkpt lat="36.7492772173" lon="-2.9099599924">
        <ele>15.04</ele>
        <time>2018-11-12T11:36:34Z</time>
      </trkpt>
      <trkpt lat="36.7492902093" lon="-2.9099089466">
        <ele>15.04</ele>
        <time>2018-11-12T11:36:35Z</time>
      </trkpt>
      <trkpt lat="36.7494331207" lon="-2.9094683100">
        <ele>16.00</ele>
        <time>2018-11-12T11:36:44Z</time>
      </trkpt>
      <trkpt lat="36.7495605256" lon="-2.9090495501">
        <ele>17.44</ele>
        <time>2018-11-12T11:36:53Z</time>
      </trkpt>
      <trkpt lat="36.7495359667" lon="-2.9087882861">
        <ele>17.92</ele>
        <time>2018-11-12T11:36:59Z</time>
      </trkpt>
      <trkpt lat="36.7495103180" lon="-2.9084224999">
        <ele>19.36</ele>
        <time>2018-11-12T11:37:07Z</time>
      </trkpt>
      <trkpt lat="36.7494555004" lon="-2.9080857988">
        <ele>20.32</ele>
        <time>2018-11-12T11:37:15Z</time>
      </trkpt>
      <trkpt lat="36.7493520677" lon="-2.9078335874">
        <ele>22.25</ele>
        <time>2018-11-12T11:37:23Z</time>
      </trkpt>
      <trkpt lat="36.7492237408" lon="-2.9075605888">
        <ele>22.73</ele>
        <time>2018-11-12T11:37:31Z</time>
      </trkpt>
      <trkpt lat="36.7491099145" lon="-2.9073210340">
        <ele>22.73</ele>
        <time>2018-11-12T11:37:38Z</time>
      </trkpt>
      <trkpt lat="36.7489679251" lon="-2.9070268292">
        <ele>22.73</ele>
        <time>2018-11-12T11:37:47Z</time>
      </trkpt>
      <trkpt lat="36.7487938330" lon="-2.9066738673">
        <ele>24.65</ele>
        <time>2018-11-12T11:37:57Z</time>
      </trkpt>
      <trkpt lat="36.7486181483" lon="-2.9063009564">
        <ele>25.13</ele>
        <time>2018-11-12T11:38:08Z</time>
      </trkpt>
      <trkpt lat="36.7484652624" lon="-2.9059700388">
        <ele>25.13</ele>
        <time>2018-11-12T11:38:17Z</time>
      </trkpt>
      <trkpt lat="36.7484053317" lon="-2.9057837930">
        <ele>25.61</ele>
        <time>2018-11-12T11:38:22Z</time>
      </trkpt>
      <trkpt lat="36.7484144680" lon="-2.9057511874">
        <ele>26.09</ele>
        <time>2018-11-12T11:38:23Z</time>
      </trkpt>
      <trkpt lat="36.7484334949" lon="-2.9057193361">
        <ele>26.57</ele>
        <time>2018-11-12T11:38:24Z</time>
      </trkpt>
      <trkpt lat="36.7486821022" lon="-2.9055266362">
        <ele>28.50</ele>
        <time>2018-11-12T11:38:33Z</time>
      </trkpt>
      <trkpt lat="36.7488908954" lon="-2.9053582437">
        <ele>30.90</ele>
        <time>2018-11-12T11:38:41Z</time>
      </trkpt>
      <trkpt lat="36.7489412706" lon="-2.9051750153">
        <ele>32.34</ele>
        <time>2018-11-12T11:38:46Z</time>
      </trkpt>
      <trkpt lat="36.7488509137" lon="-2.9049706645">
        <ele>32.34</ele>
        <time>2018-11-12T11:38:52Z</time>
      </trkpt>
      <trkpt lat="36.7487209104" lon="-2.9047130048">
        <ele>32.34</ele>
        <time>2018-11-12T11:38:59Z</time>
      </trkpt>
      <trkpt lat="36.7486040667" lon="-2.9042892996">
        <ele>32.34</ele>
        <time>2018-11-12T11:39:08Z</time>
      </trkpt>
      <trkpt lat="36.7484231852" lon="-2.9038831964">
        <ele>30.42</ele>
        <time>2018-11-12T11:39:15Z</time>
      </trkpt>
      <trkpt lat="36.7481212690" lon="-2.9033774324">
        <ele>28.50</ele>
        <time>2018-11-12T11:39:23Z</time>
      </trkpt>
      <trkpt lat="36.7477382999" lon="-2.9027601890">
        <ele>26.09</ele>
        <time>2018-11-12T11:39:32Z</time>
      </trkpt>
      <trkpt lat="36.7476480268" lon="-2.9026379809">
        <ele>26.09</ele>
        <time>2018-11-12T11:39:34Z</time>
      </trkpt>
      <trkpt lat="36.7475937121" lon="-2.9025829118">
        <ele>26.09</ele>
        <time>2018-11-12T11:39:35Z</time>
      </trkpt>
      <trkpt lat="36.7475365475" lon="-2.9025326204">
        <ele>26.09</ele>
        <time>2018-11-12T11:39:36Z</time>
      </trkpt>
      <trkpt lat="36.7474818975" lon="-2.9024902079">
        <ele>26.09</ele>
        <time>2018-11-12T11:39:37Z</time>
      </trkpt>
      <trkpt lat="36.7474277504" lon="-2.9024531599">
        <ele>26.09</ele>
        <time>2018-11-12T11:39:38Z</time>
      </trkpt>
      <trkpt lat="36.7472756188" lon="-2.9023785610">
        <ele>26.57</ele>
        <time>2018-11-12T11:39:41Z</time>
      </trkpt>
      <trkpt lat="36.7472209688" lon="-2.9023646470">
        <ele>26.09</ele>
        <time>2018-11-12T11:39:42Z</time>
      </trkpt>
      <trkpt lat="36.7471681628" lon="-2.9023557622">
        <ele>26.09</ele>
        <time>2018-11-12T11:39:43Z</time>
      </trkpt>
      <trkpt lat="36.7467449605" lon="-2.9022887908">
        <ele>25.13</ele>
        <time>2018-11-12T11:39:50Z</time>
      </trkpt>
      <trkpt lat="36.7466820125" lon="-2.9022723623">
        <ele>24.65</ele>
        <time>2018-11-12T11:39:51Z</time>
      </trkpt>
      <trkpt lat="36.7461607419" lon="-2.9020171333">
        <ele>23.69</ele>
        <time>2018-11-12T11:39:59Z</time>
      </trkpt>
      <trkpt lat="36.7456451710" lon="-2.9017535225">
        <ele>23.69</ele>
        <time>2018-11-12T11:40:08Z</time>
      </trkpt>
      <trkpt lat="36.7448398378" lon="-2.9013316613">
        <ele>23.21</ele>
        <time>2018-11-12T11:40:21Z</time>
      </trkpt>
      <trkpt lat="36.7443841975" lon="-2.9010640271">
        <ele>23.21</ele>
        <time>2018-11-12T11:40:29Z</time>
      </trkpt>
      <trkpt lat="36.7438300699" lon="-2.9007297568">
        <ele>22.73</ele>
        <time>2018-11-12T11:40:39Z</time>
      </trkpt>
      <trkpt lat="36.7433705740" lon="-2.9004101548">
        <ele>22.73</ele>
        <time>2018-11-12T11:40:48Z</time>
      </trkpt>
      <trkpt lat="36.7429622076" lon="-2.9000999406">
        <ele>21.77</ele>
        <time>2018-11-12T11:40:57Z</time>
      </trkpt>
      <trkpt lat="36.7424830981" lon="-2.8997516725">
        <ele>20.81</ele>
        <time>2018-11-12T11:41:06Z</time>
      </trkpt>
      <trkpt lat="36.7418230232" lon="-2.8992556315">
        <ele>18.88</ele>
        <time>2018-11-12T11:41:17Z</time>
      </trkpt>
      <trkpt lat="36.7410388961" lon="-2.8986463510">
        <ele>16.00</ele>
        <time>2018-11-12T11:41:30Z</time>
      </trkpt>
      <trkpt lat="36.7404385842" lon="-2.8981184587">
        <ele>14.08</ele>
        <time>2018-11-12T11:41:40Z</time>
      </trkpt>
      <trkpt lat="36.7396381125" lon="-2.8974321485">
        <ele>11.19</ele>
        <time>2018-11-12T11:41:52Z</time>
      </trkpt>
      <trkpt lat="36.7388680670" lon="-2.8967710678">
        <ele>8.79</ele>
        <time>2018-11-12T11:42:03Z</time>
      </trkpt>
      <trkpt lat="36.7382639833" lon="-2.8962531500">
        <ele>6.87</ele>
        <time>2018-11-12T11:42:12Z</time>
      </trkpt>
      <trkpt lat="36.7379751429" lon="-2.8960055485">
        <ele>6.87</ele>
        <time>2018-11-12T11:42:18Z</time>
      </trkpt>
      <trkpt lat="36.7377663497" lon="-2.8958757967">
        <ele>5.91</ele>
        <time>2018-11-12T11:42:24Z</time>
      </trkpt>
      <trkpt lat="36.7376106977" lon="-2.8957636468">
        <ele>6.39</ele>
        <time>2018-11-12T11:42:30Z</time>
      </trkpt>
      <trkpt lat="36.7374282237" lon="-2.8956157062">
        <ele>6.39</ele>
        <time>2018-11-12T11:42:38Z</time>
      </trkpt>
      <trkpt lat="36.7374381982" lon="-2.8956240881">
        <ele>6.39</ele>
        <time>2018-11-12T11:42:55Z</time>
      </trkpt>
      <trkpt lat="36.7374367733" lon="-2.8956260160">
        <ele>6.39</ele>
        <time>2018-11-12T11:43:13Z</time>
      </trkpt>
      <trkpt lat="36.7373947799" lon="-2.8955788258">
        <ele>6.39</ele>
        <time>2018-11-12T11:43:22Z</time>
      </trkpt>
      <trkpt lat="36.7372038402" lon="-2.8954035603">
        <ele>5.91</ele>
        <time>2018-11-12T11:43:32Z</time>
      </trkpt>
      <trkpt lat="36.7369920295" lon="-2.8951971140">
        <ele>5.42</ele>
        <time>2018-11-12T11:43:44Z</time>
      </trkpt>
      <trkpt lat="36.7368476931" lon="-2.8950596508">
        <ele>5.42</ele>
        <time>2018-11-12T11:43:54Z</time>
      </trkpt>
      <trkpt lat="36.7366358824" lon="-2.8948589880">
        <ele>5.42</ele>
        <time>2018-11-12T11:44:02Z</time>
      </trkpt>
      <trkpt lat="36.7363339663" lon="-2.8945597541">
        <ele>5.42</ele>
        <time>2018-11-12T11:44:12Z</time>
      </trkpt>
      <trkpt lat="36.7361167073" lon="-2.8943440877">
        <ele>4.94</ele>
        <time>2018-11-12T11:44:20Z</time>
      </trkpt>
      <trkpt lat="36.7358496599" lon="-2.8940753639">
        <ele>4.94</ele>
        <time>2018-11-12T11:44:30Z</time>
      </trkpt>
      <trkpt lat="36.7355730571" lon="-2.8937959950">
        <ele>4.94</ele>
        <time>2018-11-12T11:44:39Z</time>
      </trkpt>
      <trkpt lat="36.7352420557" lon="-2.8934620600">
        <ele>4.46</ele>
        <time>2018-11-12T11:44:49Z</time>
      </trkpt>
      <trkpt lat="36.7349938676" lon="-2.8932182305">
        <ele>5.42</ele>
        <time>2018-11-12T11:44:56Z</time>
      </trkpt>
      <trkpt lat="36.7345818970" lon="-2.8928114567">
        <ele>4.46</ele>
        <time>2018-11-12T11:45:07Z</time>
      </trkpt>
      <trkpt lat="36.7342387419" lon="-2.8924587462">
        <ele>4.46</ele>
        <time>2018-11-12T11:45:17Z</time>
      </trkpt>
      <trkpt lat="36.7339300364" lon="-2.8921451792">
        <ele>4.46</ele>
        <time>2018-11-12T11:45:27Z</time>
      </trkpt>
      <trkpt lat="36.7336914875" lon="-2.8919071332">
        <ele>4.46</ele>
        <time>2018-11-12T11:45:35Z</time>
      </trkpt>
      <trkpt lat="36.7334273737" lon="-2.8916401695">
        <ele>4.46</ele>
        <time>2018-11-12T11:45:44Z</time>
      </trkpt>
      <trkpt lat="36.7332107015" lon="-2.8914253414">
        <ele>4.46</ele>
        <time>2018-11-12T11:45:51Z</time>
      </trkpt>
      <trkpt lat="36.7328946199" lon="-2.8911020514">
        <ele>4.94</ele>
        <time>2018-11-12T11:46:02Z</time>
      </trkpt>
      <trkpt lat="36.7326533049" lon="-2.8908279631">
        <ele>4.94</ele>
        <time>2018-11-12T11:46:12Z</time>
      </trkpt>
      <trkpt lat="36.7324640416" lon="-2.8905884083">
        <ele>4.94</ele>
        <time>2018-11-12T11:46:20Z</time>
      </trkpt>
      <trkpt lat="36.7323922087" lon="-2.8905343451">
        <ele>4.46</ele>
        <time>2018-11-12T11:46:22Z</time>
      </trkpt>
      <trkpt lat="36.7323511373" lon="-2.8905128874">
        <ele>4.94</ele>
        <time>2018-11-12T11:46:23Z</time>
      </trkpt>
      <trkpt lat="36.7322188709" lon="-2.8904504422">
        <ele>4.94</ele>
        <time>2018-11-12T11:46:26Z</time>
      </trkpt>
      <trkpt lat="36.7321944796" lon="-2.8904304933">
        <ele>4.94</ele>
        <time>2018-11-12T11:46:27Z</time>
      </trkpt>
      <trkpt lat="36.7321605328" lon="-2.8903980553">
        <ele>4.94</ele>
        <time>2018-11-12T11:46:28Z</time>
      </trkpt>
      <trkpt lat="36.7318592034" lon="-2.8900457639">
        <ele>4.94</ele>
        <time>2018-11-12T11:46:39Z</time>
      </trkpt>
      <trkpt lat="36.7317763064" lon="-2.8899870068">
        <ele>4.94</ele>
        <time>2018-11-12T11:46:42Z</time>
      </trkpt>
      <trkpt lat="36.7317463830" lon="-2.8899911139">
        <ele>4.94</ele>
        <time>2018-11-12T11:46:43Z</time>
      </trkpt>
      <trkpt lat="36.7316288687" lon="-2.8900294192">
        <ele>5.42</ele>
        <time>2018-11-12T11:46:47Z</time>
      </trkpt>
      <trkpt lat="36.7316012084" lon="-2.8900207859">
        <ele>5.42</ele>
        <time>2018-11-12T11:46:48Z</time>
      </trkpt>
      <trkpt lat="36.7315730453" lon="-2.8900027648">
        <ele>5.91</ele>
        <time>2018-11-12T11:46:49Z</time>
      </trkpt>
      <trkpt lat="36.7315429542" lon="-2.8899768647">
        <ele>5.91</ele>
        <time>2018-11-12T11:46:50Z</time>
      </trkpt>
      <trkpt lat="36.7315168027" lon="-2.8899504617">
        <ele>5.91</ele>
        <time>2018-11-12T11:46:51Z</time>
      </trkpt>
      <trkpt lat="36.7312017269" lon="-2.8896236513">
        <ele>5.42</ele>
        <time>2018-11-12T11:47:02Z</time>
      </trkpt>
      <trkpt lat="36.7308682110" lon="-2.8892755508">
        <ele>5.42</ele>
        <time>2018-11-12T11:47:13Z</time>
      </trkpt>
      <trkpt lat="36.7305662110" lon="-2.8889562003">
        <ele>4.94</ele>
        <time>2018-11-12T11:47:23Z</time>
      </trkpt>
      <trkpt lat="36.7304105591" lon="-2.8886801843">
        <ele>5.42</ele>
        <time>2018-11-12T11:47:30Z</time>
      </trkpt>
      <trkpt lat="36.7303808872" lon="-2.8886454832">
        <ele>5.42</ele>
        <time>2018-11-12T11:47:31Z</time>
      </trkpt>
      <trkpt lat="36.7303485330" lon="-2.8886144701">
        <ele>5.42</ele>
        <time>2018-11-12T11:47:32Z</time>
      </trkpt>
      <trkpt lat="36.7299954873" lon="-2.8882770985">
        <ele>6.39</ele>
        <time>2018-11-12T11:47:43Z</time>
      </trkpt>
      <trkpt lat="36.7297513224" lon="-2.8879638668">
        <ele>6.39</ele>
        <time>2018-11-12T11:47:53Z</time>
      </trkpt>
      <trkpt lat="36.7295483965" lon="-2.8877142537">
        <ele>6.87</ele>
        <time>2018-11-12T11:48:01Z</time>
      </trkpt>
      <trkpt lat="36.7292607296" lon="-2.8874255810">
        <ele>6.87</ele>
        <time>2018-11-12T11:48:12Z</time>
      </trkpt>
      <trkpt lat="36.7291891482" lon="-2.8872507345">
        <ele>6.87</ele>
        <time>2018-11-12T11:48:18Z</time>
      </trkpt>
      <trkpt lat="36.7291873042" lon="-2.8872346412">
        <ele>6.87</ele>
        <time>2018-11-12T11:48:19Z</time>
      </trkpt>
      <trkpt lat="36.7291852925" lon="-2.8872182965">
        <ele>7.83</ele>
        <time>2018-11-12T11:48:25Z</time>
      </trkpt>
      <trkpt lat="36.7291979492" lon="-2.8872369044">
        <ele>6.87</ele>
        <time>2018-11-12T11:48:37Z</time>
      </trkpt>
      <trkpt lat="36.7291865498" lon="-2.8872096632">
        <ele>6.87</ele>
        <time>2018-11-12T11:48:50Z</time>
      </trkpt>
      <trkpt lat="36.7291925009" lon="-2.8871943243">
        <ele>7.83</ele>
        <time>2018-11-12T11:48:58Z</time>
      </trkpt>
      <trkpt lat="36.7291852087" lon="-2.8871815000">
        <ele>7.83</ele>
        <time>2018-11-12T11:48:59Z</time>
      </trkpt>
      <trkpt lat="36.7291736417" lon="-2.8871721961">
        <ele>8.31</ele>
        <time>2018-11-12T11:49:00Z</time>
      </trkpt>
      <trkpt lat="36.7291599791" lon="-2.8871613834">
        <ele>8.31</ele>
        <time>2018-11-12T11:49:01Z</time>
      </trkpt>
      <trkpt lat="36.7291449755" lon="-2.8871470504">
        <ele>8.31</ele>
        <time>2018-11-12T11:49:02Z</time>
      </trkpt>
      <trkpt lat="36.7290500086" lon="-2.8870522510">
        <ele>7.83</ele>
        <time>2018-11-12T11:49:09Z</time>
      </trkpt>
      <trkpt lat="36.7288800236" lon="-2.8868714534">
        <ele>8.31</ele>
        <time>2018-11-12T11:49:19Z</time>
      </trkpt>
      <trkpt lat="36.7287681252" lon="-2.8867356665">
        <ele>7.83</ele>
        <time>2018-11-12T11:49:26Z</time>
      </trkpt>
      <trkpt lat="36.7285995651" lon="-2.8865800146">
        <ele>7.35</ele>
        <time>2018-11-12T11:49:37Z</time>
      </trkpt>
      <trkpt lat="36.7284612637" lon="-2.8864114545">
        <ele>7.83</ele>
        <time>2018-11-12T11:49:44Z</time>
      </trkpt>
      <trkpt lat="36.7282195296" lon="-2.8861601651">
        <ele>8.31</ele>
        <time>2018-11-12T11:49:54Z</time>
      </trkpt>
      <trkpt lat="36.7279803939" lon="-2.8859009966">
        <ele>7.83</ele>
        <time>2018-11-12T11:50:04Z</time>
      </trkpt>
      <trkpt lat="36.7277415097" lon="-2.8856505454">
        <ele>7.83</ele>
        <time>2018-11-12T11:50:13Z</time>
      </trkpt>
      <trkpt lat="36.7274787370" lon="-2.8853687458">
        <ele>7.35</ele>
        <time>2018-11-12T11:50:22Z</time>
      </trkpt>
      <trkpt lat="36.7272267770" lon="-2.8851092421">
        <ele>6.87</ele>
        <time>2018-11-12T11:50:31Z</time>
      </trkpt>
      <trkpt lat="36.7269403674" lon="-2.8847815096">
        <ele>6.39</ele>
        <time>2018-11-12T11:50:42Z</time>
      </trkpt>
      <trkpt lat="36.7267914210" lon="-2.8846063279">
        <ele>5.91</ele>
        <time>2018-11-12T11:50:48Z</time>
      </trkpt>
      <trkpt lat="36.7266672011" lon="-2.8843940981">
        <ele>6.39</ele>
        <time>2018-11-12T11:50:55Z</time>
      </trkpt>
      <trkpt lat="36.7265535425" lon="-2.8842182457">
        <ele>6.39</ele>
        <time>2018-11-12T11:51:02Z</time>
      </trkpt>
      <trkpt lat="36.7265491001" lon="-2.8841931839">
        <ele>6.39</ele>
        <time>2018-11-12T11:51:03Z</time>
      </trkpt>
      <trkpt lat="36.7265522014" lon="-2.8841647692">
        <ele>6.39</ele>
        <time>2018-11-12T11:51:04Z</time>
      </trkpt>
      <trkpt lat="36.7265602481" lon="-2.8841342591">
        <ele>6.39</ele>
        <time>2018-11-12T11:51:05Z</time>
      </trkpt>
      <trkpt lat="36.7266828753" lon="-2.8838701453">
        <ele>6.39</ele>
        <time>2018-11-12T11:51:14Z</time>
      </trkpt>
      <trkpt lat="36.7268197518" lon="-2.8836766910">
        <ele>6.39</ele>
        <time>2018-11-12T11:51:22Z</time>
      </trkpt>
      <trkpt lat="36.7268804368" lon="-2.8835820593">
        <ele>7.35</ele>
        <time>2018-11-12T11:51:27Z</time>
      </trkpt>
      <trkpt lat="36.7268790118" lon="-2.8835556563">
        <ele>7.83</ele>
        <time>2018-11-12T11:51:28Z</time>
      </trkpt>
      <trkpt lat="36.7268651817" lon="-2.8835318517">
        <ele>7.83</ele>
        <time>2018-11-12T11:51:29Z</time>
      </trkpt>
      <trkpt lat="36.7268442269" lon="-2.8835084662">
        <ele>8.31</ele>
        <time>2018-11-12T11:51:30Z</time>
      </trkpt>
      <trkpt lat="36.7268238589" lon="-2.8834868409">
        <ele>8.31</ele>
        <time>2018-11-12T11:51:31Z</time>
      </trkpt>
      <trkpt lat="36.7266158201" lon="-2.8832522314">
        <ele>9.27</ele>
        <time>2018-11-12T11:51:40Z</time>
      </trkpt>
      <trkpt lat="36.7264563125" lon="-2.8830925561">
        <ele>8.31</ele>
        <time>2018-11-12T11:51:47Z</time>
      </trkpt>
      <trkpt lat="36.7264377885" lon="-2.8830653988">
        <ele>8.31</ele>
        <time>2018-11-12T11:51:48Z</time>
      </trkpt>
      <trkpt lat="36.7264195997" lon="-2.8830280155">
        <ele>7.83</ele>
        <time>2018-11-12T11:51:49Z</time>
      </trkpt>
      <trkpt lat="36.7263988126" lon="-2.8829896264">
        <ele>7.35</ele>
        <time>2018-11-12T11:51:50Z</time>
      </trkpt>
      <trkpt lat="36.7263709847" lon="-2.8829509020">
        <ele>7.35</ele>
        <time>2018-11-12T11:51:51Z</time>
      </trkpt>
      <trkpt lat="36.7263398040" lon="-2.8829141892">
        <ele>6.87</ele>
        <time>2018-11-12T11:51:52Z</time>
      </trkpt>
      <trkpt lat="36.7263067793" lon="-2.8828794882">
        <ele>6.87</ele>
        <time>2018-11-12T11:51:53Z</time>
      </trkpt>
      <trkpt lat="36.7262756824" lon="-2.8828482237">
        <ele>6.87</ele>
        <time>2018-11-12T11:51:54Z</time>
      </trkpt>
      <trkpt lat="36.7259872612" lon="-2.8825452179">
        <ele>6.87</ele>
        <time>2018-11-12T11:52:02Z</time>
      </trkpt>
      <trkpt lat="36.7256798968" lon="-2.8822204191">
        <ele>6.87</ele>
        <time>2018-11-12T11:52:10Z</time>
      </trkpt>
      <trkpt lat="36.7252856120" lon="-2.8817986418">
        <ele>6.39</ele>
        <time>2018-11-12T11:52:20Z</time>
      </trkpt>
      <trkpt lat="36.7250177264" lon="-2.8815139923">
        <ele>6.39</ele>
        <time>2018-11-12T11:52:28Z</time>
      </trkpt>
      <trkpt lat="36.7245990504" lon="-2.8810691647">
        <ele>6.39</ele>
        <time>2018-11-12T11:52:39Z</time>
      </trkpt>
      <trkpt lat="36.7241588328" lon="-2.8805866186">
        <ele>5.42</ele>
        <time>2018-11-12T11:52:50Z</time>
      </trkpt>
      <trkpt lat="36.7237111554" lon="-2.8801006358">
        <ele>5.42</ele>
        <time>2018-11-12T11:53:01Z</time>
      </trkpt>
      <trkpt lat="36.7233905476" lon="-2.8797514457">
        <ele>5.42</ele>
        <time>2018-11-12T11:53:09Z</time>
      </trkpt>
      <trkpt lat="36.7228906509" lon="-2.8792832326">
        <ele>5.42</ele>
        <time>2018-11-12T11:53:20Z</time>
      </trkpt>
      <trkpt lat="36.7224155646" lon="-2.8788475413">
        <ele>5.42</ele>
        <time>2018-11-12T11:53:31Z</time>
      </trkpt>
      <trkpt lat="36.7219125666" lon="-2.8783839382">
        <ele>5.91</ele>
        <time>2018-11-12T11:53:43Z</time>
      </trkpt>
      <trkpt lat="36.7215417512" lon="-2.8780448064">
        <ele>5.42</ele>
        <time>2018-11-12T11:53:52Z</time>
      </trkpt>
      <trkpt lat="36.7210984323" lon="-2.8776335903">
        <ele>5.42</ele>
        <time>2018-11-12T11:54:02Z</time>
      </trkpt>
      <trkpt lat="36.7207375914" lon="-2.8773046844">
        <ele>5.42</ele>
        <time>2018-11-12T11:54:10Z</time>
      </trkpt>
      <trkpt lat="36.7202369403" lon="-2.8768456075">
        <ele>5.42</ele>
        <time>2018-11-12T11:54:21Z</time>
      </trkpt>
      <trkpt lat="36.7196972296" lon="-2.8763391729">
        <ele>4.94</ele>
        <time>2018-11-12T11:54:33Z</time>
      </trkpt>
      <trkpt lat="36.7193744425" lon="-2.8760395199">
        <ele>4.94</ele>
        <time>2018-11-12T11:54:41Z</time>
      </trkpt>
      <trkpt lat="36.7189816665" lon="-2.8756898269">
        <ele>4.94</ele>
        <time>2018-11-12T11:54:50Z</time>
      </trkpt>
      <trkpt lat="36.7184212524" lon="-2.8751860745">
        <ele>4.94</ele>
        <time>2018-11-12T11:55:02Z</time>
      </trkpt>
      <trkpt lat="36.7181644309" lon="-2.8749499563">
        <ele>4.94</ele>
        <time>2018-11-12T11:55:08Z</time>
      </trkpt>
      <trkpt lat="36.7181244493" lon="-2.8749181051">
        <ele>4.94</ele>
        <time>2018-11-12T11:55:09Z</time>
      </trkpt>
      <trkpt lat="36.7180848867" lon="-2.8748804703">
        <ele>4.94</ele>
        <time>2018-11-12T11:55:10Z</time>
      </trkpt>
      <trkpt lat="36.7178290710" lon="-2.8746432625">
        <ele>5.42</ele>
        <time>2018-11-12T11:55:18Z</time>
      </trkpt>
      <trkpt lat="36.7175172642" lon="-2.8743623011">
        <ele>5.42</ele>
        <time>2018-11-12T11:55:26Z</time>
      </trkpt>
      <trkpt lat="36.7170961574" lon="-2.8739751410">
        <ele>5.42</ele>
        <time>2018-11-12T11:55:36Z</time>
      </trkpt>
      <trkpt lat="36.7166820914" lon="-2.8736020625">
        <ele>4.94</ele>
        <time>2018-11-12T11:55:45Z</time>
      </trkpt>
      <trkpt lat="36.7162774131" lon="-2.8732299898">
        <ele>5.42</ele>
        <time>2018-11-12T11:55:54Z</time>
      </trkpt>
      <trkpt lat="36.7158682924" lon="-2.8728616051">
        <ele>4.94</ele>
        <time>2018-11-12T11:56:04Z</time>
      </trkpt>
      <trkpt lat="36.7154315114" lon="-2.8724655602">
        <ele>4.94</ele>
        <time>2018-11-12T11:56:14Z</time>
      </trkpt>
      <trkpt lat="36.7149448581" lon="-2.8720315453">
        <ele>5.42</ele>
        <time>2018-11-12T11:56:25Z</time>
      </trkpt>
      <trkpt lat="36.7144976836" lon="-2.8716291301">
        <ele>5.42</ele>
        <time>2018-11-12T11:56:35Z</time>
      </trkpt>
      <trkpt lat="36.7141340766" lon="-2.8712969553">
        <ele>5.42</ele>
        <time>2018-11-12T11:56:44Z</time>
      </trkpt>
      <trkpt lat="36.7137914244" lon="-2.8709899262">
        <ele>5.42</ele>
        <time>2018-11-12T11:56:52Z</time>
      </trkpt>
      <trkpt lat="36.7133517936" lon="-2.8706050292">
        <ele>5.42</ele>
        <time>2018-11-12T11:57:02Z</time>
      </trkpt>
      <trkpt lat="36.7128209677" lon="-2.8701308649">
        <ele>4.46</ele>
        <time>2018-11-12T11:57:14Z</time>
      </trkpt>
      <trkpt lat="36.7122929078" lon="-2.8696582094">
        <ele>4.94</ele>
        <time>2018-11-12T11:57:26Z</time>
      </trkpt>
      <trkpt lat="36.7119681928" lon="-2.8693598136">
        <ele>4.94</ele>
        <time>2018-11-12T11:57:34Z</time>
      </trkpt>
      <trkpt lat="36.7116164882" lon="-2.8690470010">
        <ele>4.94</ele>
        <time>2018-11-12T11:57:43Z</time>
      </trkpt>
      <trkpt lat="36.7113069445" lon="-2.8687698953">
        <ele>5.42</ele>
        <time>2018-11-12T11:57:51Z</time>
      </trkpt>
      <trkpt lat="36.7107046209" lon="-2.8682237305">
        <ele>5.42</ele>
        <time>2018-11-12T11:58:05Z</time>
      </trkpt>
      <trkpt lat="36.7101685982" lon="-2.8677462135">
        <ele>5.91</ele>
        <time>2018-11-12T11:58:17Z</time>
      </trkpt>
      <trkpt lat="36.7094950285" lon="-2.8671396989">
        <ele>5.42</ele>
        <time>2018-11-12T11:58:31Z</time>
      </trkpt>
      <trkpt lat="36.7088518851" lon="-2.8665626887">
        <ele>5.42</ele>
        <time>2018-11-12T11:58:44Z</time>
      </trkpt>
      <trkpt lat="36.7082927283" lon="-2.8660639655">
        <ele>4.94</ele>
        <time>2018-11-12T11:58:55Z</time>
      </trkpt>
      <trkpt lat="36.7077230942" lon="-2.8655554354">
        <ele>5.42</ele>
        <time>2018-11-12T11:59:07Z</time>
      </trkpt>
      <trkpt lat="36.7072899174" lon="-2.8651582170">
        <ele>5.91</ele>
        <time>2018-11-12T11:59:17Z</time>
      </trkpt>
      <trkpt lat="36.7069795355" lon="-2.8648702987">
        <ele>5.91</ele>
        <time>2018-11-12T11:59:26Z</time>
      </trkpt>
      <trkpt lat="36.7066210415" lon="-2.8645190131">
        <ele>5.91</ele>
        <time>2018-11-12T11:59:36Z</time>
      </trkpt>
      <trkpt lat="36.7060186341" lon="-2.8639321961">
        <ele>5.42</ele>
        <time>2018-11-12T11:59:51Z</time>
      </trkpt>
      <trkpt lat="36.7054876406" lon="-2.8634176310">
        <ele>5.42</ele>
        <time>2018-11-12T12:00:03Z</time>
      </trkpt>
      <trkpt lat="36.7050079443" lon="-2.8629448079">
        <ele>4.94</ele>
        <time>2018-11-12T12:00:14Z</time>
      </trkpt>
      <trkpt lat="36.7046418227" lon="-2.8625887446">
        <ele>5.42</ele>
        <time>2018-11-12T12:00:23Z</time>
      </trkpt>
      <trkpt lat="36.7043271661" lon="-2.8622768540">
        <ele>4.94</ele>
        <time>2018-11-12T12:00:32Z</time>
      </trkpt>
      <trkpt lat="36.7040379066" lon="-2.8619961441">
        <ele>5.42</ele>
        <time>2018-11-12T12:00:41Z</time>
      </trkpt>
      <trkpt lat="36.7038471345" lon="-2.8618062939">
        <ele>5.42</ele>
        <time>2018-11-12T12:00:48Z</time>
      </trkpt>
      <trkpt lat="36.7035869602" lon="-2.8615407553">
        <ele>5.42</ele>
        <time>2018-11-12T12:00:57Z</time>
      </trkpt>
      <trkpt lat="36.7032337468" lon="-2.8611730412">
        <ele>5.91</ele>
        <time>2018-11-12T12:01:07Z</time>
      </trkpt>
      <trkpt lat="36.7028509453" lon="-2.8607680276">
        <ele>5.42</ele>
        <time>2018-11-12T12:01:17Z</time>
      </trkpt>
      <trkpt lat="36.7024173494" lon="-2.8603133932">
        <ele>5.42</ele>
        <time>2018-11-12T12:01:28Z</time>
      </trkpt>
      <trkpt lat="36.7021012679" lon="-2.8599771112">
        <ele>5.91</ele>
        <time>2018-11-12T12:01:36Z</time>
      </trkpt>
      <trkpt lat="36.7016245052" lon="-2.8594291024">
        <ele>5.42</ele>
        <time>2018-11-12T12:01:48Z</time>
      </trkpt>
      <trkpt lat="36.7012272868" lon="-2.8589188121">
        <ele>5.42</ele>
        <time>2018-11-12T12:01:58Z</time>
      </trkpt>
      <trkpt lat="36.7008354329" lon="-2.8582880739">
        <ele>4.94</ele>
        <time>2018-11-12T12:02:09Z</time>
      </trkpt>
      <trkpt lat="36.7005116399" lon="-2.8576164320">
        <ele>4.46</ele>
        <time>2018-11-12T12:02:20Z</time>
      </trkpt>
      <trkpt lat="36.7002772819" lon="-2.8569970932">
        <ele>4.46</ele>
        <time>2018-11-12T12:02:30Z</time>
      </trkpt>
      <trkpt lat="36.7000642978" lon="-2.8562894091">
        <ele>4.46</ele>
        <time>2018-11-12T12:02:41Z</time>
      </trkpt>
      <trkpt lat="36.6999768745" lon="-2.8558985610">
        <ele>4.94</ele>
        <time>2018-11-12T12:02:47Z</time>
      </trkpt>
      <trkpt lat="36.6998503078" lon="-2.8549660742">
        <ele>6.39</ele>
        <time>2018-11-12T12:03:01Z</time>
      </trkpt>
      <trkpt lat="36.6998192947" lon="-2.8545949236">
        <ele>7.83</ele>
        <time>2018-11-12T12:03:09Z</time>
      </trkpt>
      <trkpt lat="36.6997999325" lon="-2.8543734737">
        <ele>8.31</ele>
        <time>2018-11-12T12:03:16Z</time>
      </trkpt>
      <trkpt lat="36.6997913830" lon="-2.8541360144">
        <ele>8.31</ele>
        <time>2018-11-12T12:03:22Z</time>
      </trkpt>
      <trkpt lat="36.6997685842" lon="-2.8539148159">
        <ele>8.79</ele>
        <time>2018-11-12T12:03:28Z</time>
      </trkpt>
      <trkpt lat="36.6997569334" lon="-2.8538859822">
        <ele>8.79</ele>
        <time>2018-11-12T12:03:33Z</time>
      </trkpt>
      <trkpt lat="36.6997602023" lon="-2.8538863175">
        <ele>8.31</ele>
        <time>2018-11-12T12:03:43Z</time>
      </trkpt>
      <trkpt lat="36.6997586936" lon="-2.8538920172">
        <ele>8.79</ele>
        <time>2018-11-12T12:04:11Z</time>
      </trkpt>
      <trkpt lat="36.6997587774" lon="-2.8538941965">
        <ele>8.31</ele>
        <time>2018-11-12T12:04:31Z</time>
      </trkpt>
      <trkpt lat="36.6997596994" lon="-2.8538827971">
        <ele>9.27</ele>
        <time>2018-11-12T12:04:57Z</time>
      </trkpt>
      <trkpt lat="36.6997552570" lon="-2.8538821265">
        <ele>8.79</ele>
        <time>2018-11-12T12:05:27Z</time>
      </trkpt>
      <trkpt lat="36.6997587774" lon="-2.8538760915">
        <ele>8.79</ele>
        <time>2018-11-12T12:05:52Z</time>
      </trkpt>
      <trkpt lat="36.6997618787" lon="-2.8538843058">
        <ele>8.31</ele>
        <time>2018-11-12T12:06:16Z</time>
      </trkpt>
      <trkpt lat="36.6997607052" lon="-2.8538883291">
        <ele>8.31</ele>
        <time>2018-11-12T12:06:38Z</time>
      </trkpt>
      <trkpt lat="36.6997631360" lon="-2.8538900055">
        <ele>8.31</ele>
        <time>2018-11-12T12:07:03Z</time>
      </trkpt>
      <trkpt lat="36.6997632198" lon="-2.8538764268">
        <ele>8.79</ele>
        <time>2018-11-12T12:07:15Z</time>
      </trkpt>
      <trkpt lat="36.6997707635" lon="-2.8538472578">
        <ele>9.75</ele>
        <time>2018-11-12T12:07:22Z</time>
      </trkpt>
      <trkpt lat="36.6997645609" lon="-2.8537973017">
        <ele>9.75</ele>
        <time>2018-11-12T12:07:28Z</time>
      </trkpt>
      <trkpt lat="36.6997528262" lon="-2.8536101338">
        <ele>9.75</ele>
        <time>2018-11-12T12:07:34Z</time>
      </trkpt>
      <trkpt lat="36.6997012775" lon="-2.8532471973">
        <ele>10.23</ele>
        <time>2018-11-12T12:07:42Z</time>
      </trkpt>
      <trkpt lat="36.6996857710" lon="-2.8531953134">
        <ele>10.71</ele>
        <time>2018-11-12T12:07:43Z</time>
      </trkpt>
      <trkpt lat="36.6996685043" lon="-2.8531476203">
        <ele>10.71</ele>
        <time>2018-11-12T12:07:44Z</time>
      </trkpt>
      <trkpt lat="36.6995609645" lon="-2.8528888710">
        <ele>10.71</ele>
        <time>2018-11-12T12:07:50Z</time>
      </trkpt>
      <trkpt lat="36.6995357350" lon="-2.8528458718">
        <ele>10.71</ele>
        <time>2018-11-12T12:07:51Z</time>
      </trkpt>
      <trkpt lat="36.6993110161" lon="-2.8524971008">
        <ele>11.19</ele>
        <time>2018-11-12T12:07:58Z</time>
      </trkpt>
      <trkpt lat="36.6991594713" lon="-2.8521502577">
        <ele>11.67</ele>
        <time>2018-11-12T12:08:05Z</time>
      </trkpt>
      <trkpt lat="36.6991380975" lon="-2.8520448972">
        <ele>11.67</ele>
        <time>2018-11-12T12:08:07Z</time>
      </trkpt>
      <trkpt lat="36.6991348285" lon="-2.8515697271">
        <ele>10.23</ele>
        <time>2018-11-12T12:08:15Z</time>
      </trkpt>
      <trkpt lat="36.6991429590" lon="-2.8515191004">
        <ele>9.75</ele>
        <time>2018-11-12T12:08:16Z</time>
      </trkpt>
      <trkpt lat="36.6992695257" lon="-2.8511055373">
        <ele>8.31</ele>
        <time>2018-11-12T12:08:23Z</time>
      </trkpt>
      <trkpt lat="36.6994459648" lon="-2.8506182134">
        <ele>6.87</ele>
        <time>2018-11-12T12:08:30Z</time>
      </trkpt>
      <trkpt lat="36.6996881180" lon="-2.8499685321">
        <ele>6.39</ele>
        <time>2018-11-12T12:08:39Z</time>
      </trkpt>
      <trkpt lat="36.6998767946" lon="-2.8494498599">
        <ele>6.87</ele>
        <time>2018-11-12T12:08:47Z</time>
      </trkpt>
      <trkpt lat="36.7000975739" lon="-2.8488793876">
        <ele>6.87</ele>
        <time>2018-11-12T12:08:56Z</time>
      </trkpt>
      <trkpt lat="36.7003512941" lon="-2.8482045606">
        <ele>7.83</ele>
        <time>2018-11-12T12:09:07Z</time>
      </trkpt>
      <trkpt lat="36.7006229516" lon="-2.8474957030">
        <ele>7.83</ele>
        <time>2018-11-12T12:09:19Z</time>
      </trkpt>
      <trkpt lat="36.7008183338" lon="-2.8469670564">
        <ele>7.83</ele>
        <time>2018-11-12T12:09:28Z</time>
      </trkpt>
      <trkpt lat="36.7010966130" lon="-2.8462277725">
        <ele>8.31</ele>
        <time>2018-11-12T12:09:40Z</time>
      </trkpt>
      <trkpt lat="36.7013731319" lon="-2.8456267901">
        <ele>9.27</ele>
        <time>2018-11-12T12:09:51Z</time>
      </trkpt>
      <trkpt lat="36.7015940789" lon="-2.8451833036">
        <ele>10.23</ele>
        <time>2018-11-12T12:10:00Z</time>
      </trkpt>
      <trkpt lat="36.7017762177" lon="-2.8447507136">
        <ele>10.71</ele>
        <time>2018-11-12T12:10:09Z</time>
      </trkpt>
      <trkpt lat="36.7018785607" lon="-2.8443304449">
        <ele>11.19</ele>
        <time>2018-11-12T12:10:17Z</time>
      </trkpt>
      <trkpt lat="36.7019068077" lon="-2.8441395052">
        <ele>10.71</ele>
        <time>2018-11-12T12:10:23Z</time>
      </trkpt>
      <trkpt lat="36.7019916326" lon="-2.8437417839">
        <ele>11.67</ele>
        <time>2018-11-12T12:10:32Z</time>
      </trkpt>
      <trkpt lat="36.7020011041" lon="-2.8434777539">
        <ele>12.15</ele>
        <time>2018-11-12T12:10:38Z</time>
      </trkpt>
      <trkpt lat="36.7020714283" lon="-2.8430190124">
        <ele>13.12</ele>
        <time>2018-11-12T12:10:47Z</time>
      </trkpt>
      <trkpt lat="36.7021332029" lon="-2.8426812217">
        <ele>13.60</ele>
        <time>2018-11-12T12:10:55Z</time>
      </trkpt>
      <trkpt lat="36.7021611147" lon="-2.8424420021">
        <ele>14.56</ele>
        <time>2018-11-12T12:11:00Z</time>
      </trkpt>
      <trkpt lat="36.7021525651" lon="-2.8423902858">
        <ele>14.56</ele>
        <time>2018-11-12T12:11:01Z</time>
      </trkpt>
      <trkpt lat="36.7021444347" lon="-2.8423368931">
        <ele>14.56</ele>
        <time>2018-11-12T12:11:02Z</time>
      </trkpt>
      <trkpt lat="36.7021031119" lon="-2.8420053050">
        <ele>14.56</ele>
        <time>2018-11-12T12:11:08Z</time>
      </trkpt>
      <trkpt lat="36.7020731885" lon="-2.8415999562">
        <ele>16.00</ele>
        <time>2018-11-12T12:11:16Z</time>
      </trkpt>
      <trkpt lat="36.7020468693" lon="-2.8414975293">
        <ele>16.00</ele>
        <time>2018-11-12T12:11:18Z</time>
      </trkpt>
      <trkpt lat="36.7018833384" lon="-2.8409549687">
        <ele>16.00</ele>
        <time>2018-11-12T12:11:28Z</time>
      </trkpt>
      <trkpt lat="36.7018722743" lon="-2.8408952896">
        <ele>16.00</ele>
        <time>2018-11-12T12:11:29Z</time>
      </trkpt>
      <trkpt lat="36.7018647306" lon="-2.8408346046">
        <ele>16.00</ele>
        <time>2018-11-12T12:11:30Z</time>
      </trkpt>
      <trkpt lat="36.7018618807" lon="-2.8407718241">
        <ele>16.00</ele>
        <time>2018-11-12T12:11:31Z</time>
      </trkpt>
      <trkpt lat="36.7018643953" lon="-2.8407160845">
        <ele>16.00</ele>
        <time>2018-11-12T12:11:32Z</time>
      </trkpt>
      <trkpt lat="36.7018703464" lon="-2.8406581655">
        <ele>16.00</ele>
        <time>2018-11-12T12:11:33Z</time>
      </trkpt>
      <trkpt lat="36.7018789798" lon="-2.8406001627">
        <ele>16.00</ele>
        <time>2018-11-12T12:11:34Z</time>
      </trkpt>
      <trkpt lat="36.7018902116" lon="-2.8405424953">
        <ele>16.00</ele>
        <time>2018-11-12T12:11:35Z</time>
      </trkpt>
      <trkpt lat="36.7019514833" lon="-2.8402362205">
        <ele>15.04</ele>
        <time>2018-11-12T12:11:42Z</time>
      </trkpt>
      <trkpt lat="36.7019380722" lon="-2.8401332069">
        <ele>14.56</ele>
        <time>2018-11-12T12:11:50Z</time>
      </trkpt>
      <trkpt lat="36.7019455321" lon="-2.8401006851">
        <ele>14.56</ele>
        <time>2018-11-12T12:11:57Z</time>
      </trkpt>
      <trkpt lat="36.7019391619" lon="-2.8401049599">
        <ele>14.08</ele>
        <time>2018-11-12T12:12:10Z</time>
      </trkpt>
      <trkpt lat="36.7019403353" lon="-2.8401048761">
        <ele>14.56</ele>
        <time>2018-11-12T12:12:28Z</time>
      </trkpt>
      <trkpt lat="36.7019419279" lon="-2.8401025292">
        <ele>15.52</ele>
        <time>2018-11-12T12:12:41Z</time>
      </trkpt>
      <trkpt lat="36.7019595299" lon="-2.8401066363">
        <ele>15.52</ele>
        <time>2018-11-12T12:12:48Z</time>
      </trkpt>
      <trkpt lat="36.7019700073" lon="-2.8401119169">
        <ele>15.52</ele>
        <time>2018-11-12T12:12:49Z</time>
      </trkpt>
      <trkpt lat="36.7019894533" lon="-2.8401104920">
        <ele>15.52</ele>
        <time>2018-11-12T12:12:51Z</time>
      </trkpt>
      <trkpt lat="36.7019961588" lon="-2.8401020262">
        <ele>15.52</ele>
        <time>2018-11-12T12:12:52Z</time>
      </trkpt>
      <trkpt lat="36.7019979190" lon="-2.8400892019">
        <ele>15.52</ele>
        <time>2018-11-12T12:12:53Z</time>
      </trkpt>
      <trkpt lat="36.7019983381" lon="-2.8400725219">
        <ele>15.52</ele>
        <time>2018-11-12T12:12:54Z</time>
      </trkpt>
      <trkpt lat="36.7019993439" lon="-2.8400510643">
        <ele>15.52</ele>
        <time>2018-11-12T12:12:55Z</time>
      </trkpt>
      <trkpt lat="36.7020233162" lon="-2.8398617171">
        <ele>14.56</ele>
        <time>2018-11-12T12:13:01Z</time>
      </trkpt>
      <trkpt lat="36.7020291835" lon="-2.8397196438">
        <ele>14.08</ele>
        <time>2018-11-12T12:13:04Z</time>
      </trkpt>
      <trkpt lat="36.7020379007" lon="-2.8392792586">
        <ele>12.15</ele>
        <time>2018-11-12T12:13:11Z</time>
      </trkpt>
      <trkpt lat="36.7021524813" lon="-2.8387419786">
        <ele>8.31</ele>
        <time>2018-11-12T12:13:17Z</time>
      </trkpt>
      <trkpt lat="36.7023859173" lon="-2.8378758766">
        <ele>4.94</ele>
        <time>2018-11-12T12:13:25Z</time>
      </trkpt>
      <trkpt lat="36.7027065251" lon="-2.8369678650">
        <ele>3.98</ele>
        <time>2018-11-12T12:13:34Z</time>
      </trkpt>
      <trkpt lat="36.7030309886" lon="-2.8362299222">
        <ele>3.50</ele>
        <time>2018-11-12T12:13:43Z</time>
      </trkpt>
      <trkpt lat="36.7033517640" lon="-2.8355919756">
        <ele>3.50</ele>
        <time>2018-11-12T12:13:52Z</time>
      </trkpt>
      <trkpt lat="36.7036691029" lon="-2.8350396920">
        <ele>3.98</ele>
        <time>2018-11-12T12:14:01Z</time>
      </trkpt>
      <trkpt lat="36.7040109169" lon="-2.8344398830">
        <ele>4.94</ele>
        <time>2018-11-12T12:14:13Z</time>
      </trkpt>
      <trkpt lat="36.7041144334" lon="-2.8342450876">
        <ele>4.94</ele>
        <time>2018-11-12T12:14:19Z</time>
      </trkpt>
      <trkpt lat="36.7041420937" lon="-2.8341527190">
        <ele>4.94</ele>
        <time>2018-11-12T12:14:26Z</time>
      </trkpt>
      <trkpt lat="36.7042280082" lon="-2.8339647967">
        <ele>4.94</ele>
        <time>2018-11-12T12:14:34Z</time>
      </trkpt>
      <trkpt lat="36.7043582629" lon="-2.8336454462">
        <ele>4.94</ele>
        <time>2018-11-12T12:14:44Z</time>
      </trkpt>
      <trkpt lat="36.7044796329" lon="-2.8333243355">
        <ele>5.42</ele>
        <time>2018-11-12T12:14:54Z</time>
      </trkpt>
      <trkpt lat="36.7045282479" lon="-2.8331463877">
        <ele>5.42</ele>
        <time>2018-11-12T12:15:02Z</time>
      </trkpt>
      <trkpt lat="36.7046057805" lon="-2.8329014685">
        <ele>5.91</ele>
        <time>2018-11-12T12:15:09Z</time>
      </trkpt>
      <trkpt lat="36.7047092970" lon="-2.8325179964">
        <ele>6.39</ele>
        <time>2018-11-12T12:15:18Z</time>
      </trkpt>
      <trkpt lat="36.7048134003" lon="-2.8320924472">
        <ele>6.87</ele>
        <time>2018-11-12T12:15:28Z</time>
      </trkpt>
      <trkpt lat="36.7048708163" lon="-2.8318297584">
        <ele>6.39</ele>
        <time>2018-11-12T12:15:35Z</time>
      </trkpt>
      <trkpt lat="36.7049165815" lon="-2.8316406626">
        <ele>6.39</ele>
        <time>2018-11-12T12:15:39Z</time>
      </trkpt>
      <trkpt lat="36.7049369495" lon="-2.8315951489">
        <ele>6.39</ele>
        <time>2018-11-12T12:15:40Z</time>
      </trkpt>
      <trkpt lat="36.7049646936" lon="-2.8315592743">
        <ele>6.39</ele>
        <time>2018-11-12T12:15:41Z</time>
      </trkpt>
      <trkpt lat="36.7049886659" lon="-2.8315221425">
        <ele>6.39</ele>
        <time>2018-11-12T12:15:42Z</time>
      </trkpt>
      <trkpt lat="36.7049998138" lon="-2.8314773832">
        <ele>6.39</ele>
        <time>2018-11-12T12:15:43Z</time>
      </trkpt>
      <trkpt lat="36.7050069384" lon="-2.8314295225">
        <ele>6.39</ele>
        <time>2018-11-12T12:15:44Z</time>
      </trkpt>
      <trkpt lat="36.7050921824" lon="-2.8309747204">
        <ele>6.39</ele>
        <time>2018-11-12T12:15:54Z</time>
      </trkpt>
      <trkpt lat="36.7051547114" lon="-2.8306441382">
        <ele>6.39</ele>
        <time>2018-11-12T12:16:02Z</time>
      </trkpt>
      <trkpt lat="36.7052357644" lon="-2.8302188404">
        <ele>6.39</ele>
        <time>2018-11-12T12:16:11Z</time>
      </trkpt>
      <trkpt lat="36.7053351738" lon="-2.8296865895">
        <ele>5.91</ele>
        <time>2018-11-12T12:16:22Z</time>
      </trkpt>
      <trkpt lat="36.7053524405" lon="-2.8295824025">
        <ele>5.91</ele>
        <time>2018-11-12T12:16:27Z</time>
      </trkpt>
      <trkpt lat="36.7053564638" lon="-2.8295900300">
        <ele>4.94</ele>
        <time>2018-11-12T12:16:43Z</time>
      </trkpt>
      <trkpt lat="36.7053661030" lon="-2.8295714222">
        <ele>4.94</ele>
        <time>2018-11-12T12:16:47Z</time>
      </trkpt>
      <trkpt lat="36.7053726409" lon="-2.8295513894">
        <ele>4.94</ele>
        <time>2018-11-12T12:16:48Z</time>
      </trkpt>
      <trkpt lat="36.7053790949" lon="-2.8295256570">
        <ele>4.94</ele>
        <time>2018-11-12T12:16:49Z</time>
      </trkpt>
      <trkpt lat="36.7053833697" lon="-2.8294965718">
        <ele>4.94</ele>
        <time>2018-11-12T12:16:50Z</time>
      </trkpt>
      <trkpt lat="36.7053887341" lon="-2.8294612840">
        <ele>4.94</ele>
        <time>2018-11-12T12:16:51Z</time>
      </trkpt>
      <trkpt lat="36.7054511793" lon="-2.8291086573">
        <ele>4.94</ele>
        <time>2018-11-12T12:17:00Z</time>
      </trkpt>
      <trkpt lat="36.7055238504" lon="-2.8287186474">
        <ele>4.94</ele>
        <time>2018-11-12T12:17:09Z</time>
      </trkpt>
      <trkpt lat="36.7055883072" lon="-2.8284029849">
        <ele>5.42</ele>
        <time>2018-11-12T12:17:18Z</time>
      </trkpt>
      <trkpt lat="36.7056511715" lon="-2.8280611709">
        <ele>5.91</ele>
        <time>2018-11-12T12:17:28Z</time>
      </trkpt>
      <trkpt lat="36.7057047319" lon="-2.8277574945">
        <ele>5.91</ele>
        <time>2018-11-12T12:17:36Z</time>
      </trkpt>
      <trkpt lat="36.7057660036" lon="-2.8274371382">
        <ele>6.87</ele>
        <time>2018-11-12T12:17:45Z</time>
      </trkpt>
      <trkpt lat="36.7058198992" lon="-2.8271257505">
        <ele>7.35</ele>
        <time>2018-11-12T12:17:54Z</time>
      </trkpt>
      <trkpt lat="36.7058821768" lon="-2.8268167935">
        <ele>7.35</ele>
        <time>2018-11-12T12:18:03Z</time>
      </trkpt>
      <trkpt lat="36.7059403472" lon="-2.8264883067">
        <ele>7.35</ele>
        <time>2018-11-12T12:18:13Z</time>
      </trkpt>
      <trkpt lat="36.7060106713" lon="-2.8261342552">
        <ele>6.87</ele>
        <time>2018-11-12T12:18:23Z</time>
      </trkpt>
      <trkpt lat="36.7060711049" lon="-2.8258086182">
        <ele>6.87</ele>
        <time>2018-11-12T12:18:31Z</time>
      </trkpt>
      <trkpt lat="36.7061389145" lon="-2.8254388925">
        <ele>6.39</ele>
        <time>2018-11-12T12:18:41Z</time>
      </trkpt>
      <trkpt lat="36.7061995156" lon="-2.8251163568">
        <ele>6.39</ele>
        <time>2018-11-12T12:18:50Z</time>
      </trkpt>
      <trkpt lat="36.7062568478" lon="-2.8248172067">
        <ele>6.87</ele>
        <time>2018-11-12T12:18:57Z</time>
      </trkpt>
      <trkpt lat="36.7063283455" lon="-2.8243499994">
        <ele>6.39</ele>
        <time>2018-11-12T12:19:06Z</time>
      </trkpt>
      <trkpt lat="36.7064122483" lon="-2.8238097019">
        <ele>6.39</ele>
        <time>2018-11-12T12:19:16Z</time>
      </trkpt>
      <trkpt lat="36.7064834945" lon="-2.8233498707">
        <ele>5.91</ele>
        <time>2018-11-12T12:19:25Z</time>
      </trkpt>
      <trkpt lat="36.7065637931" lon="-2.8228353057">
        <ele>4.94</ele>
        <time>2018-11-12T12:19:35Z</time>
      </trkpt>
      <trkpt lat="36.7066459358" lon="-2.8223280329">
        <ele>5.42</ele>
        <time>2018-11-12T12:19:44Z</time>
      </trkpt>
      <trkpt lat="36.7067284975" lon="-2.8218045831">
        <ele>5.91</ele>
        <time>2018-11-12T12:19:53Z</time>
      </trkpt>
      <trkpt lat="36.7068341095" lon="-2.8211266547">
        <ele>4.94</ele>
        <time>2018-11-12T12:20:04Z</time>
      </trkpt>
      <trkpt lat="36.7069001589" lon="-2.8205775563">
        <ele>4.94</ele>
        <time>2018-11-12T12:20:13Z</time>
      </trkpt>
      <trkpt lat="36.7069681361" lon="-2.8199603129">
        <ele>5.42</ele>
        <time>2018-11-12T12:20:23Z</time>
      </trkpt>
      <trkpt lat="36.7070223670" lon="-2.8193658683">
        <ele>5.91</ele>
        <time>2018-11-12T12:20:33Z</time>
      </trkpt>
      <trkpt lat="36.7070605047" lon="-2.8188750241">
        <ele>6.39</ele>
        <time>2018-11-12T12:20:42Z</time>
      </trkpt>
      <trkpt lat="36.7070800345" lon="-2.8184724413">
        <ele>6.39</ele>
        <time>2018-11-12T12:20:50Z</time>
      </trkpt>
      <trkpt lat="36.7070998158" lon="-2.8180214111">
        <ele>6.39</ele>
        <time>2018-11-12T12:20:58Z</time>
      </trkpt>
      <trkpt lat="36.7071097903" lon="-2.8173372801">
        <ele>6.39</ele>
        <time>2018-11-12T12:21:09Z</time>
      </trkpt>
      <trkpt lat="36.7071070243" lon="-2.8167052008">
        <ele>5.91</ele>
        <time>2018-11-12T12:21:19Z</time>
      </trkpt>
      <trkpt lat="36.7070892546" lon="-2.8161321301">
        <ele>6.39</ele>
        <time>2018-11-12T12:21:28Z</time>
      </trkpt>
      <trkpt lat="36.7070660368" lon="-2.8155847918">
        <ele>6.87</ele>
        <time>2018-11-12T12:21:37Z</time>
      </trkpt>
      <trkpt lat="36.7070308328" lon="-2.8150113020">
        <ele>7.35</ele>
        <time>2018-11-12T12:21:47Z</time>
      </trkpt>
      <trkpt lat="36.7069890071" lon="-2.8144095652">
        <ele>7.35</ele>
        <time>2018-11-12T12:21:57Z</time>
      </trkpt>
      <trkpt lat="36.7069256399" lon="-2.8136749752">
        <ele>6.39</ele>
        <time>2018-11-12T12:22:09Z</time>
      </trkpt>
      <trkpt lat="36.7068660446" lon="-2.8131963685">
        <ele>5.91</ele>
        <time>2018-11-12T12:22:17Z</time>
      </trkpt>
      <trkpt lat="36.7067603488" lon="-2.8124668915">
        <ele>4.94</ele>
        <time>2018-11-12T12:22:29Z</time>
      </trkpt>
      <trkpt lat="36.7066528928" lon="-2.8118628077">
        <ele>4.94</ele>
        <time>2018-11-12T12:22:39Z</time>
      </trkpt>
      <trkpt lat="36.7065901123" lon="-2.8116489016">
        <ele>4.46</ele>
        <time>2018-11-12T12:22:43Z</time>
      </trkpt>
      <trkpt lat="36.7064829916" lon="-2.8111738991">
        <ele>4.46</ele>
        <time>2018-11-12T12:22:51Z</time>
      </trkpt>
      <trkpt lat="36.7063661478" lon="-2.8106408101">
        <ele>4.94</ele>
        <time>2018-11-12T12:23:00Z</time>
      </trkpt>
      <trkpt lat="36.7062343005" lon="-2.8100903705">
        <ele>4.94</ele>
        <time>2018-11-12T12:23:10Z</time>
      </trkpt>
      <trkpt lat="36.7060545925" lon="-2.8094133642">
        <ele>5.42</ele>
        <time>2018-11-12T12:23:22Z</time>
      </trkpt>
      <trkpt lat="36.7058846913" lon="-2.8088271338">
        <ele>5.42</ele>
        <time>2018-11-12T12:23:32Z</time>
      </trkpt>
      <trkpt lat="36.7057063244" lon="-2.8082148358">
        <ele>4.94</ele>
        <time>2018-11-12T12:23:42Z</time>
      </trkpt>
      <trkpt lat="36.7055012193" lon="-2.8074427787">
        <ele>5.42</ele>
        <time>2018-11-12T12:23:54Z</time>
      </trkpt>
      <trkpt lat="36.7053198349" lon="-2.8068670258">
        <ele>5.91</ele>
        <time>2018-11-12T12:24:03Z</time>
      </trkpt>
      <trkpt lat="36.7050981335" lon="-2.8061705735">
        <ele>5.42</ele>
        <time>2018-11-12T12:24:14Z</time>
      </trkpt>
      <trkpt lat="36.7048973031" lon="-2.8055609576">
        <ele>5.42</ele>
        <time>2018-11-12T12:24:24Z</time>
      </trkpt>
      <trkpt lat="36.7046821397" lon="-2.8049447201">
        <ele>5.42</ele>
        <time>2018-11-12T12:24:34Z</time>
      </trkpt>
      <trkpt lat="36.7044940498" lon="-2.8044166602">
        <ele>5.42</ele>
        <time>2018-11-12T12:24:43Z</time>
      </trkpt>
      <trkpt lat="36.7042981647" lon="-2.8038837388">
        <ele>5.42</ele>
        <time>2018-11-12T12:24:52Z</time>
      </trkpt>
      <trkpt lat="36.7040027026" lon="-2.8031162079">
        <ele>5.42</ele>
        <time>2018-11-12T12:25:05Z</time>
      </trkpt>
      <trkpt lat="36.7037681770" lon="-2.8025184944">
        <ele>5.91</ele>
        <time>2018-11-12T12:25:15Z</time>
      </trkpt>
      <trkpt lat="36.7034967709" lon="-2.8018551506">
        <ele>5.42</ele>
        <time>2018-11-12T12:25:26Z</time>
      </trkpt>
      <trkpt lat="36.7033151351" lon="-2.8014336247">
        <ele>4.94</ele>
        <time>2018-11-12T12:25:34Z</time>
      </trkpt>
      <trkpt lat="36.7030955292" lon="-2.8009370808">
        <ele>4.46</ele>
        <time>2018-11-12T12:25:43Z</time>
      </trkpt>
      <trkpt lat="36.7027894221" lon="-2.8002675343">
        <ele>4.94</ele>
        <time>2018-11-12T12:25:55Z</time>
      </trkpt>
      <trkpt lat="36.7025793716" lon="-2.7998265624">
        <ele>4.94</ele>
        <time>2018-11-12T12:26:04Z</time>
      </trkpt>
      <trkpt lat="36.7024900205" lon="-2.7996609360">
        <ele>5.42</ele>
        <time>2018-11-12T12:26:08Z</time>
      </trkpt>
      <trkpt lat="36.7024624441" lon="-2.7996234689">
        <ele>5.42</ele>
        <time>2018-11-12T12:26:09Z</time>
      </trkpt>
      <trkpt lat="36.7024385557" lon="-2.7995801345">
        <ele>5.42</ele>
        <time>2018-11-12T12:26:10Z</time>
      </trkpt>
      <trkpt lat="36.7022190336" lon="-2.7991670743">
        <ele>5.42</ele>
        <time>2018-11-12T12:26:19Z</time>
      </trkpt>
      <trkpt lat="36.7021932174" lon="-2.7991245780">
        <ele>4.94</ele>
        <time>2018-11-12T12:26:20Z</time>
      </trkpt>
      <trkpt lat="36.7021652218" lon="-2.7990790643">
        <ele>4.94</ele>
        <time>2018-11-12T12:26:21Z</time>
      </trkpt>
      <trkpt lat="36.7018477991" lon="-2.7985193208">
        <ele>4.94</ele>
        <time>2018-11-12T12:26:33Z</time>
      </trkpt>
      <trkpt lat="36.7015710287" lon="-2.7980405465">
        <ele>4.46</ele>
        <time>2018-11-12T12:26:43Z</time>
      </trkpt>
      <trkpt lat="36.7012496665" lon="-2.7974777855">
        <ele>4.46</ele>
        <time>2018-11-12T12:26:55Z</time>
      </trkpt>
      <trkpt lat="36.7009458225" lon="-2.7969773021">
        <ele>4.46</ele>
        <time>2018-11-12T12:27:06Z</time>
      </trkpt>
      <trkpt lat="36.7008809466" lon="-2.7969047986">
        <ele>4.46</ele>
        <time>2018-11-12T12:27:08Z</time>
      </trkpt>
      <trkpt lat="36.7008483410" lon="-2.7968581952">
        <ele>4.46</ele>
        <time>2018-11-12T12:27:09Z</time>
      </trkpt>
      <trkpt lat="36.7005373724" lon="-2.7963414509">
        <ele>5.42</ele>
        <time>2018-11-12T12:27:20Z</time>
      </trkpt>
      <trkpt lat="36.7004683893" lon="-2.7961794287">
        <ele>5.42</ele>
        <time>2018-11-12T12:27:24Z</time>
      </trkpt>
      <trkpt lat="36.7005056050" lon="-2.7960796840">
        <ele>5.42</ele>
        <time>2018-11-12T12:27:27Z</time>
      </trkpt>
      <trkpt lat="36.7004941218" lon="-2.7960471623">
        <ele>5.42</ele>
        <time>2018-11-12T12:27:28Z</time>
      </trkpt>
      <trkpt lat="36.7004807945" lon="-2.7960226033">
        <ele>5.42</ele>
        <time>2018-11-12T12:27:29Z</time>
      </trkpt>
      <trkpt lat="36.7003377993" lon="-2.7957722358">
        <ele>5.42</ele>
        <time>2018-11-12T12:27:36Z</time>
      </trkpt>
      <trkpt lat="36.7000588495" lon="-2.7953199483">
        <ele>4.94</ele>
        <time>2018-11-12T12:27:46Z</time>
      </trkpt>
      <trkpt lat="36.6997662373" lon="-2.7948443592">
        <ele>4.46</ele>
        <time>2018-11-12T12:27:56Z</time>
      </trkpt>
      <trkpt lat="36.6994523350" lon="-2.7943248488">
        <ele>4.46</ele>
        <time>2018-11-12T12:28:07Z</time>
      </trkpt>
      <trkpt lat="36.6994395107" lon="-2.7942751441">
        <ele>4.46</ele>
        <time>2018-11-12T12:28:08Z</time>
      </trkpt>
      <trkpt lat="36.6994354874" lon="-2.7942220028">
        <ele>4.46</ele>
        <time>2018-11-12T12:28:09Z</time>
      </trkpt>
      <trkpt lat="36.6994318832" lon="-2.7941672690">
        <ele>4.46</ele>
        <time>2018-11-12T12:28:10Z</time>
      </trkpt>
      <trkpt lat="36.6994246747" lon="-2.7941116132">
        <ele>4.46</ele>
        <time>2018-11-12T12:28:11Z</time>
      </trkpt>
      <trkpt lat="36.6994159576" lon="-2.7940551192">
        <ele>4.46</ele>
        <time>2018-11-12T12:28:12Z</time>
      </trkpt>
      <trkpt lat="36.6993949190" lon="-2.7939388622">
        <ele>4.46</ele>
        <time>2018-11-12T12:28:14Z</time>
      </trkpt>
      <trkpt lat="36.6993781552" lon="-2.7938835416">
        <ele>4.46</ele>
        <time>2018-11-12T12:28:15Z</time>
      </trkpt>
      <trkpt lat="36.6993550211" lon="-2.7938329149">
        <ele>4.94</ele>
        <time>2018-11-12T12:28:16Z</time>
      </trkpt>
      <trkpt lat="36.6993243434" lon="-2.7937894128">
        <ele>4.94</ele>
        <time>2018-11-12T12:28:17Z</time>
      </trkpt>
      <trkpt lat="36.6992875468" lon="-2.7937554661">
        <ele>4.94</ele>
        <time>2018-11-12T12:28:18Z</time>
      </trkpt>
      <trkpt lat="36.6992470622" lon="-2.7937251236">
        <ele>4.94</ele>
        <time>2018-11-12T12:28:19Z</time>
      </trkpt>
      <trkpt lat="36.6991621535" lon="-2.7936656121">
        <ele>4.94</ele>
        <time>2018-11-12T12:28:21Z</time>
      </trkpt>
      <trkpt lat="36.6989869718" lon="-2.7933731675">
        <ele>4.46</ele>
        <time>2018-11-12T12:28:27Z</time>
      </trkpt>
      <trkpt lat="36.6988680325" lon="-2.7931326069">
        <ele>3.98</ele>
        <time>2018-11-12T12:28:32Z</time>
      </trkpt>
      <trkpt lat="36.6986884922" lon="-2.7928137593">
        <ele>3.98</ele>
        <time>2018-11-12T12:28:39Z</time>
      </trkpt>
      <trkpt lat="36.6987094469" lon="-2.7926806547">
        <ele>3.98</ele>
        <time>2018-11-12T12:28:42Z</time>
      </trkpt>
      <trkpt lat="36.6987122968" lon="-2.7925896272">
        <ele>3.98</ele>
        <time>2018-11-12T12:28:44Z</time>
      </trkpt>
      <trkpt lat="36.6987386998" lon="-2.7924027946">
        <ele>4.46</ele>
        <time>2018-11-12T12:28:50Z</time>
      </trkpt>
      <trkpt lat="36.6988650989" lon="-2.7922468912">
        <ele>3.98</ele>
        <time>2018-11-12T12:28:56Z</time>
      </trkpt>
      <trkpt lat="36.6991542745" lon="-2.7919925004">
        <ele>4.94</ele>
        <time>2018-11-12T12:29:05Z</time>
      </trkpt>
      <trkpt lat="36.6995262634" lon="-2.7916586492">
        <ele>6.87</ele>
        <time>2018-11-12T12:29:15Z</time>
      </trkpt>
      <trkpt lat="36.6996046342" lon="-2.7915885765">
        <ele>7.35</ele>
        <time>2018-11-12T12:29:18Z</time>
      </trkpt>
      <trkpt lat="36.6996002756" lon="-2.7913587447">
        <ele>7.35</ele>
        <time>2018-11-12T12:29:24Z</time>
      </trkpt>
      <trkpt lat="36.6995846014" lon="-2.7912392188">
        <ele>6.87</ele>
        <time>2018-11-12T12:29:28Z</time>
      </trkpt>
      <trkpt lat="36.6995963361" lon="-2.7912047692">
        <ele>6.87</ele>
        <time>2018-11-12T12:29:29Z</time>
      </trkpt>
      <trkpt lat="36.6996193025" lon="-2.7908643801">
        <ele>6.39</ele>
        <time>2018-11-12T12:29:36Z</time>
      </trkpt>
      <trkpt lat="36.6995570250" lon="-2.7903058100">
        <ele>5.91</ele>
        <time>2018-11-12T12:29:46Z</time>
      </trkpt>
      <trkpt lat="36.6995387524" lon="-2.7900505811">
        <ele>5.42</ele>
        <time>2018-11-12T12:29:51Z</time>
      </trkpt>
      <trkpt lat="36.6994210705" lon="-2.7899758145">
        <ele>5.42</ele>
        <time>2018-11-12T12:29:56Z</time>
      </trkpt>
      <trkpt lat="36.6993437894" lon="-2.7899780776">
        <ele>4.94</ele>
        <time>2018-11-12T12:29:58Z</time>
      </trkpt>
      <trkpt lat="36.6989666875" lon="-2.7899650019">
        <ele>4.46</ele>
        <time>2018-11-12T12:30:07Z</time>
      </trkpt>
      <trkpt lat="36.6988942679" lon="-2.7899729647">
        <ele>4.46</ele>
        <time>2018-11-12T12:30:11Z</time>
      </trkpt>
      <trkpt lat="36.6988992132" lon="-2.7899676841">
        <ele>4.46</ele>
        <time>2018-11-12T12:30:18Z</time>
      </trkpt>
      <trkpt lat="36.6988460720" lon="-2.7898653410">
        <ele>4.94</ele>
        <time>2018-11-12T12:30:23Z</time>
      </trkpt>
      <trkpt lat="36.6988539509" lon="-2.7894581482">
        <ele>3.98</ele>
        <time>2018-11-12T12:30:31Z</time>
      </trkpt>
      <trkpt lat="36.6988591477" lon="-2.7890859917">
        <ele>3.98</ele>
        <time>2018-11-12T12:30:39Z</time>
      </trkpt>
      <trkpt lat="36.6989018116" lon="-2.7888106462">
        <ele>3.98</ele>
        <time>2018-11-12T12:30:45Z</time>
      </trkpt>
      <trkpt lat="36.6990400292" lon="-2.7887170203">
        <ele>4.94</ele>
        <time>2018-11-12T12:30:51Z</time>
      </trkpt>
      <trkpt lat="36.6992696095" lon="-2.7887212951">
        <ele>6.87</ele>
        <time>2018-11-12T12:31:00Z</time>
      </trkpt>
      <trkpt lat="36.6994439531" lon="-2.7887196187">
        <ele>5.91</ele>
        <time>2018-11-12T12:31:06Z</time>
      </trkpt>
      <trkpt lat="36.6994981002" lon="-2.7887118235">
        <ele>6.39</ele>
        <time>2018-11-12T12:31:08Z</time>
      </trkpt>
      <trkpt lat="36.6994855274" lon="-2.7887610253">
        <ele>5.91</ele>
        <time>2018-11-12T12:31:13Z</time>
      </trkpt>
      <trkpt lat="36.6993050650" lon="-2.7887726761">
        <ele>3.02</ele>
        <time>2018-11-12T12:31:21Z</time>
      </trkpt>
      <trkpt lat="36.6992946714" lon="-2.7887745202">
        <ele>2.54</ele>
        <time>2018-11-12T12:31:27Z</time>
      </trkpt>
      <trkpt lat="36.6992971022" lon="-2.7887386456">
        <ele>2.54</ele>
        <time>2018-11-12T12:31:47Z</time>
      </trkpt>
      <trkpt lat="36.6992904805" lon="-2.7885640506">
        <ele>-9.96</ele>
        <time>2018-11-13T08:22:06Z</time>
      </trkpt>
      <trkpt lat="36.6993032210" lon="-2.7885995060">
        <ele>-18.61</ele>
        <time>2018-11-13T08:22:18Z</time>
      </trkpt>
      <trkpt lat="36.6993076634" lon="-2.7885959018">
        <ele>-16.69</ele>
        <time>2018-11-13T08:22:31Z</time>
      </trkpt>
      <trkpt lat="36.6992987785" lon="-2.7886670642">
        <ele>-9.48</ele>
        <time>2018-11-13T08:22:44Z</time>
      </trkpt>
      <trkpt lat="36.6992887203" lon="-2.7886834089">
        <ele>-6.59</ele>
        <time>2018-11-13T08:22:51Z</time>
      </trkpt>
      <trkpt lat="36.6993517522" lon="-2.7888511308">
        <ele>-8.03</ele>
        <time>2018-11-13T08:23:59Z</time>
      </trkpt>
      <trkpt lat="36.6993079148" lon="-2.7888229676">
        <ele>-9.96</ele>
        <time>2018-11-13T08:24:08Z</time>
      </trkpt>
      <trkpt lat="36.6993170511" lon="-2.7887568343">
        <ele>-10.92</ele>
        <time>2018-11-13T08:24:13Z</time>
      </trkpt>
      <trkpt lat="36.6993120220" lon="-2.7887321915">
        <ele>-14.28</ele>
        <time>2018-11-13T08:24:26Z</time>
      </trkpt>
      <trkpt lat="36.6993717849" lon="-2.7887632046">
        <ele>-3.23</ele>
        <time>2018-11-13T08:24:32Z</time>
      </trkpt>
      <trkpt lat="36.6994876228" lon="-2.7887707483">
        <ele>1.10</ele>
        <time>2018-11-13T08:24:39Z</time>
      </trkpt>
      <trkpt lat="36.6995865293" lon="-2.7887741011">
        <ele>3.98</ele>
        <time>2018-11-13T08:24:46Z</time>
      </trkpt>
      <trkpt lat="36.6995352320" lon="-2.7886846662">
        <ele>4.94</ele>
        <time>2018-11-13T08:24:50Z</time>
      </trkpt>
      <trkpt lat="36.6994258482" lon="-2.7886996698">
        <ele>4.46</ele>
        <time>2018-11-13T08:24:55Z</time>
      </trkpt>
      <trkpt lat="36.6991246026" lon="-2.7887031902">
        <ele>6.87</ele>
        <time>2018-11-13T08:25:04Z</time>
      </trkpt>
      <trkpt lat="36.6989371832" lon="-2.7887067106">
        <ele>7.35</ele>
        <time>2018-11-13T08:25:09Z</time>
      </trkpt>
      <trkpt lat="36.6988599859" lon="-2.7887840755">
        <ele>9.27</ele>
        <time>2018-11-13T08:25:13Z</time>
      </trkpt>
      <trkpt lat="36.6988349240" lon="-2.7888466883">
        <ele>9.75</ele>
        <time>2018-11-13T08:25:16Z</time>
      </trkpt>
      <trkpt lat="36.6986941081" lon="-2.7888899390">
        <ele>10.23</ele>
        <time>2018-11-13T08:25:24Z</time>
      </trkpt>
      <trkpt lat="36.6985936090" lon="-2.7888850775">
        <ele>11.19</ele>
        <time>2018-11-13T08:25:31Z</time>
      </trkpt>
      <trkpt lat="36.6985764261" lon="-2.7888911124">
        <ele>11.19</ele>
        <time>2018-11-13T08:25:36Z</time>
      </trkpt>
      <trkpt lat="36.6985434853" lon="-2.7888538130">
        <ele>11.19</ele>
        <time>2018-11-13T08:25:39Z</time>
      </trkpt>
      <trkpt lat="36.6985254642" lon="-2.7888273261">
        <ele>11.19</ele>
        <time>2018-11-13T08:25:40Z</time>
      </trkpt>
      <trkpt lat="36.6985026654" lon="-2.7888129093">
        <ele>11.19</ele>
        <time>2018-11-13T08:25:41Z</time>
      </trkpt>
      <trkpt lat="36.6984728258" lon="-2.7888060361">
        <ele>10.71</ele>
        <time>2018-11-13T08:25:42Z</time>
      </trkpt>
      <trkpt lat="36.6984429024" lon="-2.7888074610">
        <ele>10.71</ele>
        <time>2018-11-13T08:25:43Z</time>
      </trkpt>
      <trkpt lat="36.6984118894" lon="-2.7888137475">
        <ele>10.71</ele>
        <time>2018-11-13T08:25:44Z</time>
      </trkpt>
      <trkpt lat="36.6981602646" lon="-2.7888108138">
        <ele>10.71</ele>
        <time>2018-11-13T08:25:52Z</time>
      </trkpt>
      <trkpt lat="36.6980813071" lon="-2.7888237219">
        <ele>10.71</ele>
        <time>2018-11-13T08:25:55Z</time>
      </trkpt>
      <trkpt lat="36.6980660520" lon="-2.7888522204">
        <ele>11.19</ele>
        <time>2018-11-13T08:25:56Z</time>
      </trkpt>
      <trkpt lat="36.6980630346" lon="-2.7888875082">
        <ele>11.19</ele>
        <time>2018-11-13T08:25:57Z</time>
      </trkpt>
      <trkpt lat="36.6980648786" lon="-2.7889284119">
        <ele>11.19</ele>
        <time>2018-11-13T08:25:58Z</time>
      </trkpt>
      <trkpt lat="36.6980677284" lon="-2.7889735065">
        <ele>11.19</ele>
        <time>2018-11-13T08:25:59Z</time>
      </trkpt>
      <trkpt lat="36.6980671417" lon="-2.7893345151">
        <ele>10.23</ele>
        <time>2018-11-13T08:26:07Z</time>
      </trkpt>
      <trkpt lat="36.6979977395" lon="-2.7895386983">
        <ele>9.27</ele>
        <time>2018-11-13T08:26:12Z</time>
      </trkpt>
      <trkpt lat="36.6979303490" lon="-2.7896183264">
        <ele>8.79</ele>
        <time>2018-11-13T08:26:17Z</time>
      </trkpt>
      <trkpt lat="36.6979289241" lon="-2.7896324079">
        <ele>8.31</ele>
        <time>2018-11-13T08:26:24Z</time>
      </trkpt>
      <trkpt lat="36.6978778783" lon="-2.7896847948">
        <ele>8.79</ele>
        <time>2018-11-13T08:26:33Z</time>
      </trkpt>
      <trkpt lat="36.6976630501" lon="-2.7898787521">
        <ele>8.31</ele>
        <time>2018-11-13T08:26:42Z</time>
      </trkpt>
      <trkpt lat="36.6974344756" lon="-2.7900802530">
        <ele>7.83</ele>
        <time>2018-11-13T08:26:52Z</time>
      </trkpt>
      <trkpt lat="36.6972462181" lon="-2.7902627271">
        <ele>7.35</ele>
        <time>2018-11-13T08:27:01Z</time>
      </trkpt>
      <trkpt lat="36.6970928293" lon="-2.7903949097">
        <ele>7.35</ele>
        <time>2018-11-13T08:27:09Z</time>
      </trkpt>
      <trkpt lat="36.6969230957" lon="-2.7904073149">
        <ele>7.83</ele>
        <time>2018-11-13T08:27:16Z</time>
      </trkpt>
      <trkpt lat="36.6967705451" lon="-2.7903149463">
        <ele>7.35</ele>
        <time>2018-11-13T08:27:23Z</time>
      </trkpt>
      <trkpt lat="36.6966810264" lon="-2.7901076619">
        <ele>5.91</ele>
        <time>2018-11-13T08:27:30Z</time>
      </trkpt>
      <trkpt lat="36.6966658551" lon="-2.7898173127">
        <ele>5.91</ele>
        <time>2018-11-13T08:27:39Z</time>
      </trkpt>
      <trkpt lat="36.6966706328" lon="-2.7895176597">
        <ele>5.91</ele>
        <time>2018-11-13T08:27:46Z</time>
      </trkpt>
      <trkpt lat="36.6966768354" lon="-2.7890250552">
        <ele>5.91</ele>
        <time>2018-11-13T08:27:56Z</time>
      </trkpt>
      <trkpt lat="36.6966850497" lon="-2.7884998452">
        <ele>5.91</ele>
        <time>2018-11-13T08:28:07Z</time>
      </trkpt>
      <trkpt lat="36.6967050824" lon="-2.7884617075">
        <ele>5.91</ele>
        <time>2018-11-13T08:28:08Z</time>
      </trkpt>
      <trkpt lat="36.6967330780" lon="-2.7884381544">
        <ele>5.91</ele>
        <time>2018-11-13T08:28:09Z</time>
      </trkpt>
      <trkpt lat="36.6967655998" lon="-2.7884264197">
        <ele>5.91</ele>
        <time>2018-11-13T08:28:10Z</time>
      </trkpt>
      <trkpt lat="36.6967987921" lon="-2.7884230670">
        <ele>6.39</ele>
        <time>2018-11-13T08:28:11Z</time>
      </trkpt>
      <trkpt lat="36.6968287993" lon="-2.7884161100">
        <ele>6.39</ele>
        <time>2018-11-13T08:28:12Z</time>
      </trkpt>
      <trkpt lat="36.6968510952" lon="-2.7883944008">
        <ele>6.39</ele>
        <time>2018-11-13T08:28:13Z</time>
      </trkpt>
      <trkpt lat="36.6968603991" lon="-2.7883571852">
        <ele>6.39</ele>
        <time>2018-11-13T08:28:14Z</time>
      </trkpt>
      <trkpt lat="36.6968607344" lon="-2.7883135155">
        <ele>6.39</ele>
        <time>2018-11-13T08:28:15Z</time>
      </trkpt>
      <trkpt lat="36.6968598962" lon="-2.7878616471">
        <ele>6.39</ele>
        <time>2018-11-13T08:28:24Z</time>
      </trkpt>
      <trkpt lat="36.6968527716" lon="-2.7878149599">
        <ele>6.39</ele>
        <time>2018-11-13T08:28:25Z</time>
      </trkpt>
      <trkpt lat="36.6968336608" lon="-2.7877749782">
        <ele>6.39</ele>
        <time>2018-11-13T08:28:26Z</time>
      </trkpt>
      <trkpt lat="36.6965874005" lon="-2.7874862216">
        <ele>6.39</ele>
        <time>2018-11-13T08:28:34Z</time>
      </trkpt>
      <trkpt lat="36.6965536214" lon="-2.7874947712">
        <ele>6.39</ele>
        <time>2018-11-13T08:28:35Z</time>
      </trkpt>
      <trkpt lat="36.6965229437" lon="-2.7875219285">
        <ele>6.39</ele>
        <time>2018-11-13T08:28:36Z</time>
      </trkpt>
      <trkpt lat="36.6962928604" lon="-2.7878100984">
        <ele>5.42</ele>
        <time>2018-11-13T08:28:44Z</time>
      </trkpt>
      <trkpt lat="36.6962599196" lon="-2.7878954262">
        <ele>5.42</ele>
        <time>2018-11-13T08:28:46Z</time>
      </trkpt>
      <trkpt lat="36.6962574050" lon="-2.7879447956">
        <ele>5.42</ele>
        <time>2018-11-13T08:28:47Z</time>
      </trkpt>
      <trkpt lat="36.6962583270" lon="-2.7879955061">
        <ele>5.42</ele>
        <time>2018-11-13T08:28:48Z</time>
      </trkpt>
      <trkpt lat="36.6962247156" lon="-2.7884435188">
        <ele>5.42</ele>
        <time>2018-11-13T08:28:57Z</time>
      </trkpt>
      <trkpt lat="36.6962047666" lon="-2.7884918824">
        <ele>5.42</ele>
        <time>2018-11-13T08:28:58Z</time>
      </trkpt>
      <trkpt lat="36.6961806267" lon="-2.7885316964">
        <ele>5.42</ele>
        <time>2018-11-13T08:28:59Z</time>
      </trkpt>
      <trkpt lat="36.6961496975" lon="-2.7885688283">
        <ele>5.42</ele>
        <time>2018-11-13T08:29:00Z</time>
      </trkpt>
      <trkpt lat="36.6961152479" lon="-2.7885965724">
        <ele>5.91</ele>
        <time>2018-11-13T08:29:01Z</time>
      </trkpt>
      <trkpt lat="36.6960783675" lon="-2.7886146773">
        <ele>5.91</ele>
        <time>2018-11-13T08:29:02Z</time>
      </trkpt>
      <trkpt lat="36.6960417386" lon="-2.7886195388">
        <ele>5.91</ele>
        <time>2018-11-13T08:29:03Z</time>
      </trkpt>
      <trkpt lat="36.6960083786" lon="-2.7886155993">
        <ele>5.91</ele>
        <time>2018-11-13T08:29:04Z</time>
      </trkpt>
      <trkpt lat="36.6959756892" lon="-2.7886092290">
        <ele>5.91</ele>
        <time>2018-11-13T08:29:05Z</time>
      </trkpt>
      <trkpt lat="36.6957339551" lon="-2.7886228077">
        <ele>6.39</ele>
        <time>2018-11-13T08:29:11Z</time>
      </trkpt>
      <trkpt lat="36.6954854317" lon="-2.7886027750">
        <ele>6.87</ele>
        <time>2018-11-13T08:29:17Z</time>
      </trkpt>
      <trkpt lat="36.6954488028" lon="-2.7885838319">
        <ele>6.39</ele>
        <time>2018-11-13T08:29:18Z</time>
      </trkpt>
      <trkpt lat="36.6954127606" lon="-2.7885567583">
        <ele>6.39</ele>
        <time>2018-11-13T08:29:19Z</time>
      </trkpt>
      <trkpt lat="36.6953792330" lon="-2.7885180339">
        <ele>6.39</ele>
        <time>2018-11-13T08:29:20Z</time>
      </trkpt>
      <trkpt lat="36.6953563504" lon="-2.7884761244">
        <ele>6.39</ele>
        <time>2018-11-13T08:29:21Z</time>
      </trkpt>
      <trkpt lat="36.6953369044" lon="-2.7884270903">
        <ele>5.91</ele>
        <time>2018-11-13T08:29:22Z</time>
      </trkpt>
      <trkpt lat="36.6953188833" lon="-2.7883725241">
        <ele>5.91</ele>
        <time>2018-11-13T08:29:23Z</time>
      </trkpt>
      <trkpt lat="36.6953067295" lon="-2.7883226518">
        <ele>5.91</ele>
        <time>2018-11-13T08:29:24Z</time>
      </trkpt>
      <trkpt lat="36.6952983476" lon="-2.7882681694">
        <ele>5.42</ele>
        <time>2018-11-13T08:29:25Z</time>
      </trkpt>
      <trkpt lat="36.6952968389" lon="-2.7882178780">
        <ele>5.42</ele>
        <time>2018-11-13T08:29:26Z</time>
      </trkpt>
      <trkpt lat="36.6952990182" lon="-2.7881613001">
        <ele>5.91</ele>
        <time>2018-11-13T08:29:27Z</time>
      </trkpt>
      <trkpt lat="36.6953014489" lon="-2.7881092485">
        <ele>5.91</ele>
        <time>2018-11-13T08:29:28Z</time>
      </trkpt>
      <trkpt lat="36.6953028738" lon="-2.7880542632">
        <ele>5.91</ele>
        <time>2018-11-13T08:29:29Z</time>
      </trkpt>
      <trkpt lat="36.6953053884" lon="-2.7878981922">
        <ele>5.91</ele>
        <time>2018-11-13T08:29:32Z</time>
      </trkpt>
      <trkpt lat="36.6952979285" lon="-2.7878528461">
        <ele>5.91</ele>
        <time>2018-11-13T08:29:33Z</time>
      </trkpt>
      <trkpt lat="36.6952827573" lon="-2.7878097631">
        <ele>5.91</ele>
        <time>2018-11-13T08:29:34Z</time>
      </trkpt>
      <trkpt lat="36.6952612158" lon="-2.7877692785">
        <ele>5.91</ele>
        <time>2018-11-13T08:29:35Z</time>
      </trkpt>
      <trkpt lat="36.6952325497" lon="-2.7877320629">
        <ele>5.42</ele>
        <time>2018-11-13T08:29:36Z</time>
      </trkpt>
      <trkpt lat="36.6952012852" lon="-2.7877023071">
        <ele>5.42</ele>
        <time>2018-11-13T08:29:37Z</time>
      </trkpt>
      <trkpt lat="36.6951640695" lon="-2.7876800951">
        <ele>4.94</ele>
        <time>2018-11-13T08:29:38Z</time>
      </trkpt>
      <trkpt lat="36.6951271892" lon="-2.7876677737">
        <ele>4.94</ele>
        <time>2018-11-13T08:29:39Z</time>
      </trkpt>
      <trkpt lat="36.6950881295" lon="-2.7876552846">
        <ele>4.94</ele>
        <time>2018-11-13T08:29:40Z</time>
      </trkpt>
      <trkpt lat="36.6950555239" lon="-2.7876394428">
        <ele>4.94</ele>
        <time>2018-11-13T08:29:41Z</time>
      </trkpt>
      <trkpt lat="36.6950227506" lon="-2.7876158897">
        <ele>5.42</ele>
        <time>2018-11-13T08:29:42Z</time>
      </trkpt>
      <trkpt lat="36.6949972697" lon="-2.7875868883">
        <ele>5.42</ele>
        <time>2018-11-13T08:29:43Z</time>
      </trkpt>
      <trkpt lat="36.6949789971" lon="-2.7875509299">
        <ele>5.42</ele>
        <time>2018-11-13T08:29:44Z</time>
      </trkpt>
      <trkpt lat="36.6949673463" lon="-2.7875156421">
        <ele>5.91</ele>
        <time>2018-11-13T08:29:45Z</time>
      </trkpt>
      <trkpt lat="36.6949559469" lon="-2.7874902450">
        <ele>5.91</ele>
        <time>2018-11-13T08:29:46Z</time>
      </trkpt>
      <trkpt lat="36.6949391831" lon="-2.7874649316">
        <ele>6.39</ele>
        <time>2018-11-13T08:29:47Z</time>
      </trkpt>
      <trkpt lat="36.6949225869" lon="-2.7874401212">
        <ele>6.39</ele>
        <time>2018-11-13T08:29:48Z</time>
      </trkpt>
      <trkpt lat="36.6947699524" lon="-2.7872151509">
        <ele>5.91</ele>
        <time>2018-11-13T08:29:56Z</time>
      </trkpt>
      <trkpt lat="36.6945762467" lon="-2.7869564854">
        <ele>4.94</ele>
        <time>2018-11-13T08:30:06Z</time>
      </trkpt>
      <trkpt lat="36.6943746619" lon="-2.7866747696">
        <ele>4.46</ele>
        <time>2018-11-13T08:30:16Z</time>
      </trkpt>
      <trkpt lat="36.6943503544" lon="-2.7866155095">
        <ele>4.46</ele>
        <time>2018-11-13T08:30:18Z</time>
      </trkpt>
      <trkpt lat="36.6943501029" lon="-2.7865834907">
        <ele>4.46</ele>
        <time>2018-11-13T08:30:19Z</time>
      </trkpt>
      <trkpt lat="36.6943558864" lon="-2.7865538187">
        <ele>4.46</ele>
        <time>2018-11-13T08:30:20Z</time>
      </trkpt>
      <trkpt lat="36.6943660285" lon="-2.7864701673">
        <ele>4.46</ele>
        <time>2018-11-13T08:30:23Z</time>
      </trkpt>
      <trkpt lat="36.6943513602" lon="-2.7864422556">
        <ele>4.94</ele>
        <time>2018-11-13T08:30:24Z</time>
      </trkpt>
      <trkpt lat="36.6941551398" lon="-2.7861918043">
        <ele>5.42</ele>
        <time>2018-11-13T08:30:33Z</time>
      </trkpt>
      <trkpt lat="36.6940414812" lon="-2.7859728690">
        <ele>5.42</ele>
        <time>2018-11-13T08:30:40Z</time>
      </trkpt>
      <trkpt lat="36.6938830633" lon="-2.7856666781">
        <ele>5.42</ele>
        <time>2018-11-13T08:30:49Z</time>
      </trkpt>
      <trkpt lat="36.6937538981" lon="-2.7854338288">
        <ele>5.42</ele>
        <time>2018-11-13T08:30:56Z</time>
      </trkpt>
      <trkpt lat="36.6934691649" lon="-2.7850546315">
        <ele>5.42</ele>
        <time>2018-11-13T08:31:08Z</time>
      </trkpt>
      <trkpt lat="36.6932428535" lon="-2.7847662941">
        <ele>4.94</ele>
        <time>2018-11-13T08:31:19Z</time>
      </trkpt>
      <trkpt lat="36.6930911411" lon="-2.7845694032">
        <ele>5.42</ele>
        <time>2018-11-13T08:31:27Z</time>
      </trkpt>
      <trkpt lat="36.6929151211" lon="-2.7843527310">
        <ele>5.42</ele>
        <time>2018-11-13T08:31:37Z</time>
      </trkpt>
      <trkpt lat="36.6929073259" lon="-2.7843315247">
        <ele>5.42</ele>
        <time>2018-11-13T08:31:38Z</time>
      </trkpt>
      <trkpt lat="36.6928926576" lon="-2.7843136713">
        <ele>5.42</ele>
        <time>2018-11-13T08:31:39Z</time>
      </trkpt>
      <trkpt lat="36.6928765643" lon="-2.7842947282">
        <ele>5.42</ele>
        <time>2018-11-13T08:31:40Z</time>
      </trkpt>
      <trkpt lat="36.6928623989" lon="-2.7842750307">
        <ele>5.42</ele>
        <time>2018-11-13T08:31:41Z</time>
      </trkpt>
      <trkpt lat="36.6928531788" lon="-2.7842512261">
        <ele>5.42</ele>
        <time>2018-11-13T08:31:42Z</time>
      </trkpt>
      <trkpt lat="36.6928486526" lon="-2.7842230629">
        <ele>5.42</ele>
        <time>2018-11-13T08:31:43Z</time>
      </trkpt>
      <trkpt lat="36.6928406060" lon="-2.7841959894">
        <ele>5.91</ele>
        <time>2018-11-13T08:31:44Z</time>
      </trkpt>
      <trkpt lat="36.6928225849" lon="-2.7841715142">
        <ele>5.91</ele>
        <time>2018-11-13T08:31:45Z</time>
      </trkpt>
      <trkpt lat="36.6928034741" lon="-2.7841460332">
        <ele>5.91</ele>
        <time>2018-11-13T08:31:46Z</time>
      </trkpt>
      <trkpt lat="36.6927843634" lon="-2.7841193788">
        <ele>5.91</ele>
        <time>2018-11-13T08:31:47Z</time>
      </trkpt>
      <trkpt lat="36.6927620675" lon="-2.7840896230">
        <ele>5.91</ele>
        <time>2018-11-13T08:31:48Z</time>
      </trkpt>
      <trkpt lat="36.6925828625" lon="-2.7838470507">
        <ele>6.39</ele>
        <time>2018-11-13T08:31:57Z</time>
      </trkpt>
      <trkpt lat="36.6924167331" lon="-2.7836253494">
        <ele>6.87</ele>
        <time>2018-11-13T08:32:06Z</time>
      </trkpt>
      <trkpt lat="36.6922276374" lon="-2.7833593078">
        <ele>6.39</ele>
        <time>2018-11-13T08:32:15Z</time>
      </trkpt>
      <trkpt lat="36.6920073610" lon="-2.7830876503">
        <ele>6.87</ele>
        <time>2018-11-13T08:32:24Z</time>
      </trkpt>
      <trkpt lat="36.6918458417" lon="-2.7828654461">
        <ele>6.39</ele>
        <time>2018-11-13T08:32:31Z</time>
      </trkpt>
      <trkpt lat="36.6918345261" lon="-2.7828521188">
        <ele>6.39</ele>
        <time>2018-11-13T08:32:32Z</time>
      </trkpt>
      <trkpt lat="36.6918219533" lon="-2.7828442398">
        <ele>6.39</ele>
        <time>2018-11-13T08:32:33Z</time>
      </trkpt>
      <trkpt lat="36.6918091290" lon="-2.7828385402">
        <ele>6.39</ele>
        <time>2018-11-13T08:32:34Z</time>
      </trkpt>
      <trkpt lat="36.6917990707" lon="-2.7828285657">
        <ele>6.87</ele>
        <time>2018-11-13T08:32:35Z</time>
      </trkpt>
      <trkpt lat="36.6917890962" lon="-2.7828177530">
        <ele>6.87</ele>
        <time>2018-11-13T08:32:36Z</time>
      </trkpt>
      <trkpt lat="36.6916923691" lon="-2.7826856542">
        <ele>6.87</ele>
        <time>2018-11-13T08:32:46Z</time>
      </trkpt>
      <trkpt lat="36.6916061193" lon="-2.7825710736">
        <ele>6.87</ele>
        <time>2018-11-13T08:32:53Z</time>
      </trkpt>
      <trkpt lat="36.6914259084" lon="-2.7823438402">
        <ele>6.39</ele>
        <time>2018-11-13T08:33:03Z</time>
      </trkpt>
      <trkpt lat="36.6912627127" lon="-2.7821246535">
        <ele>6.87</ele>
        <time>2018-11-13T08:33:12Z</time>
      </trkpt>
      <trkpt lat="36.6910443641" lon="-2.7818307001">
        <ele>7.35</ele>
        <time>2018-11-13T08:33:22Z</time>
      </trkpt>
      <trkpt lat="36.6908775643" lon="-2.7816042211">
        <ele>7.35</ele>
        <time>2018-11-13T08:33:31Z</time>
      </trkpt>
      <trkpt lat="36.6907254327" lon="-2.7814118564">
        <ele>7.83</ele>
        <time>2018-11-13T08:33:41Z</time>
      </trkpt>
      <trkpt lat="36.6905516759" lon="-2.7811875567">
        <ele>7.83</ele>
        <time>2018-11-13T08:33:51Z</time>
      </trkpt>
      <trkpt lat="36.6903052479" lon="-2.7808672842">
        <ele>7.35</ele>
        <time>2018-11-13T08:34:03Z</time>
      </trkpt>
      <trkpt lat="36.6901018191" lon="-2.7805979736">
        <ele>6.87</ele>
        <time>2018-11-13T08:34:13Z</time>
      </trkpt>
      <trkpt lat="36.6900198441" lon="-2.7804224566">
        <ele>7.35</ele>
        <time>2018-11-13T08:34:20Z</time>
      </trkpt>
      <trkpt lat="36.6900308244" lon="-2.7804007474">
        <ele>7.35</ele>
        <time>2018-11-13T08:34:21Z</time>
      </trkpt>
      <trkpt lat="36.6900464986" lon="-2.7803877555">
        <ele>7.35</ele>
        <time>2018-11-13T08:34:22Z</time>
      </trkpt>
      <trkpt lat="36.6900675371" lon="-2.7803808823">
        <ele>7.35</ele>
        <time>2018-11-13T08:34:23Z</time>
      </trkpt>
      <trkpt lat="36.6900883242" lon="-2.7803753503">
        <ele>7.35</ele>
        <time>2018-11-13T08:34:24Z</time>
      </trkpt>
      <trkpt lat="36.6901045013" lon="-2.7803671360">
        <ele>7.35</ele>
        <time>2018-11-13T08:34:25Z</time>
      </trkpt>
      <trkpt lat="36.6901236959" lon="-2.7803585865">
        <ele>7.35</ele>
        <time>2018-11-13T08:34:26Z</time>
      </trkpt>
      <trkpt lat="36.6902366001" lon="-2.7802977338">
        <ele>7.35</ele>
        <time>2018-11-13T08:34:32Z</time>
      </trkpt>
      <trkpt lat="36.6902436409" lon="-2.7802714147">
        <ele>7.35</ele>
        <time>2018-11-13T08:34:33Z</time>
      </trkpt>
      <trkpt lat="36.6902455688" lon="-2.7802503761">
        <ele>7.35</ele>
        <time>2018-11-13T08:34:34Z</time>
      </trkpt>
      <trkpt lat="36.6902475804" lon="-2.7802260686">
        <ele>7.35</ele>
        <time>2018-11-13T08:34:35Z</time>
      </trkpt>
      <trkpt lat="36.6902505141" lon="-2.7802028507">
        <ele>7.35</ele>
        <time>2018-11-13T08:34:36Z</time>
      </trkpt>
      <trkpt lat="36.6903261188" lon="-2.7801067941">
        <ele>7.35</ele>
        <time>2018-11-13T08:34:42Z</time>
      </trkpt>
      <trkpt lat="36.6904712934" lon="-2.7800026070">
        <ele>6.39</ele>
        <time>2018-11-13T08:34:51Z</time>
      </trkpt>
      <trkpt lat="36.6906895582" lon="-2.7798834164">
        <ele>5.91</ele>
        <time>2018-11-13T08:34:58Z</time>
      </trkpt>
      <trkpt lat="36.6909735370" lon="-2.7796939015">
        <ele>5.91</ele>
        <time>2018-11-13T08:35:07Z</time>
      </trkpt>
      <trkpt lat="36.6912648920" lon="-2.7795151155">
        <ele>5.42</ele>
        <time>2018-11-13T08:35:16Z</time>
      </trkpt>
      <trkpt lat="36.6915133316" lon="-2.7793122735">
        <ele>6.39</ele>
        <time>2018-11-13T08:35:25Z</time>
      </trkpt>
      <trkpt lat="36.6916213743" lon="-2.7790960204">
        <ele>5.91</ele>
        <time>2018-11-13T08:35:32Z</time>
      </trkpt>
      <trkpt lat="36.6916541476" lon="-2.7789167315">
        <ele>6.87</ele>
        <time>2018-11-13T08:35:38Z</time>
      </trkpt>
      <trkpt lat="36.6916386411" lon="-2.7787706349">
        <ele>6.87</ele>
        <time>2018-11-13T08:35:44Z</time>
      </trkpt>
      <trkpt lat="36.6915831529" lon="-2.7786283940">
        <ele>6.39</ele>
        <time>2018-11-13T08:35:52Z</time>
      </trkpt>
      <trkpt lat="36.6915900260" lon="-2.7786283940">
        <ele>5.42</ele>
        <time>2018-11-13T08:36:01Z</time>
      </trkpt>
      <trkpt lat="36.6915922891" lon="-2.7786330879">
        <ele>4.46</ele>
        <time>2018-11-13T08:36:17Z</time>
      </trkpt>
      <trkpt lat="36.6915878467" lon="-2.7786316629">
        <ele>4.94</ele>
        <time>2018-11-13T08:36:32Z</time>
      </trkpt>
      <trkpt lat="36.6915867571" lon="-2.7786192577">
        <ele>6.87</ele>
        <time>2018-11-13T08:36:54Z</time>
      </trkpt>
      <trkpt lat="36.6915800516" lon="-2.7786197606">
        <ele>7.35</ele>
        <time>2018-11-13T08:37:12Z</time>
      </trkpt>
      <trkpt lat="36.6915848292" lon="-2.7786195092">
        <ele>6.87</ele>
        <time>2018-11-13T08:37:25Z</time>
      </trkpt>
      <trkpt lat="36.6915432550" lon="-2.7785591595">
        <ele>6.39</ele>
        <time>2018-11-13T08:37:33Z</time>
      </trkpt>
      <trkpt lat="36.6914539877" lon="-2.7783933654">
        <ele>5.91</ele>
        <time>2018-11-13T08:37:40Z</time>
      </trkpt>
      <trkpt lat="36.6913275048" lon="-2.7782134898">
        <ele>5.42</ele>
        <time>2018-11-13T08:37:47Z</time>
      </trkpt>
      <trkpt lat="36.6912086494" lon="-2.7779544890">
        <ele>4.94</ele>
        <time>2018-11-13T08:37:54Z</time>
      </trkpt>
      <trkpt lat="36.6910964157" lon="-2.7775307000">
        <ele>4.94</ele>
        <time>2018-11-13T08:38:04Z</time>
      </trkpt>
      <trkpt lat="36.6910490580" lon="-2.7772582881">
        <ele>4.46</ele>
        <time>2018-11-13T08:38:11Z</time>
      </trkpt>
      <trkpt lat="36.6910592839" lon="-2.7769992035">
        <ele>4.46</ele>
        <time>2018-11-13T08:38:18Z</time>
      </trkpt>
      <trkpt lat="36.6910433583" lon="-2.7768417913">
        <ele>4.94</ele>
        <time>2018-11-13T08:38:26Z</time>
      </trkpt>
      <trkpt lat="36.6908953339" lon="-2.7766765002">
        <ele>4.46</ele>
        <time>2018-11-13T08:38:34Z</time>
      </trkpt>
      <trkpt lat="36.6907426994" lon="-2.7765991352">
        <ele>3.98</ele>
        <time>2018-11-13T08:38:41Z</time>
      </trkpt>
      <trkpt lat="36.6907090042" lon="-2.7766018175">
        <ele>4.46</ele>
        <time>2018-11-13T08:38:47Z</time>
      </trkpt>
      <trkpt lat="36.6907070763" lon="-2.7765965369">
        <ele>4.46</ele>
        <time>2018-11-13T08:38:59Z</time>
      </trkpt>
      <trkpt lat="36.6907009576" lon="-2.7765858918">
        <ele>4.46</ele>
        <time>2018-11-13T08:39:00Z</time>
      </trkpt>
      <trkpt lat="36.6907159612" lon="-2.7765660267">
        <ele>4.94</ele>
        <time>2018-11-13T08:39:03Z</time>
      </trkpt>
      <trkpt lat="36.6908410192" lon="-2.7766198386">
        <ele>4.46</ele>
        <time>2018-11-13T08:39:10Z</time>
      </trkpt>
      <trkpt lat="36.6909931507" lon="-2.7767507639">
        <ele>4.46</ele>
        <time>2018-11-13T08:39:18Z</time>
      </trkpt>
      <trkpt lat="36.6911060549" lon="-2.7768763248">
        <ele>4.46</ele>
        <time>2018-11-13T08:39:26Z</time>
      </trkpt>
      <trkpt lat="36.6912309453" lon="-2.7768727206">
        <ele>4.46</ele>
        <time>2018-11-13T08:39:34Z</time>
      </trkpt>
      <trkpt lat="36.6912447754" lon="-2.7768667694">
        <ele>4.46</ele>
        <time>2018-11-13T08:39:35Z</time>
      </trkpt>
      <trkpt lat="36.6912623774" lon="-2.7768625785">
        <ele>4.46</ele>
        <time>2018-11-13T08:39:36Z</time>
      </trkpt>
      <trkpt lat="36.6912837513" lon="-2.7768596448">
        <ele>4.46</ele>
        <time>2018-11-13T08:39:37Z</time>
      </trkpt>
      <trkpt lat="36.6913078912" lon="-2.7768588066">
        <ele>4.46</ele>
        <time>2018-11-13T08:39:38Z</time>
      </trkpt>
      <trkpt lat="36.6913288459" lon="-2.7768603154">
        <ele>4.46</ele>
        <time>2018-11-13T08:39:39Z</time>
      </trkpt>
      <trkpt lat="36.6915518884" lon="-2.7768137120">
        <ele>4.94</ele>
        <time>2018-11-13T08:39:48Z</time>
      </trkpt>
      <trkpt lat="36.6918041836" lon="-2.7767411247">
        <ele>4.94</ele>
        <time>2018-11-13T08:39:57Z</time>
      </trkpt>
      <trkpt lat="36.6919917706" lon="-2.7767132130">
        <ele>4.94</ele>
        <time>2018-11-13T08:40:05Z</time>
      </trkpt>
      <trkpt lat="36.6921372805" lon="-2.7767326590">
        <ele>4.94</ele>
        <time>2018-11-13T08:40:12Z</time>
      </trkpt>
      <trkpt lat="36.6923200898" lon="-2.7767628338">
        <ele>4.46</ele>
        <time>2018-11-13T08:40:20Z</time>
      </trkpt>
      <trkpt lat="36.6925349180" lon="-2.7767947689">
        <ele>4.94</ele>
        <time>2018-11-13T08:40:31Z</time>
      </trkpt>
      <trkpt lat="36.6927108541" lon="-2.7767354250">
        <ele>4.94</ele>
        <time>2018-11-13T08:40:39Z</time>
      </trkpt>
      <trkpt lat="36.6928603873" lon="-2.7766304836">
        <ele>4.94</ele>
        <time>2018-11-13T08:40:47Z</time>
      </trkpt>
      <trkpt lat="36.6928721219" lon="-2.7766114566">
        <ele>4.94</ele>
        <time>2018-11-13T08:40:48Z</time>
      </trkpt>
      <trkpt lat="36.6928884666" lon="-2.7765919268">
        <ele>4.94</ele>
        <time>2018-11-13T08:40:49Z</time>
      </trkpt>
      <trkpt lat="36.6929067392" lon="-2.7765772585">
        <ele>4.94</ele>
        <time>2018-11-13T08:40:50Z</time>
      </trkpt>
      <trkpt lat="36.6929294541" lon="-2.7765646856">
        <ele>4.94</ele>
        <time>2018-11-13T08:40:51Z</time>
      </trkpt>
      <trkpt lat="36.6929501574" lon="-2.7765513584">
        <ele>4.94</ele>
        <time>2018-11-13T08:40:52Z</time>
      </trkpt>
      <trkpt lat="36.6929705255" lon="-2.7765341755">
        <ele>4.46</ele>
        <time>2018-11-13T08:40:53Z</time>
      </trkpt>
      <trkpt lat="36.6929877922" lon="-2.7765171602">
        <ele>4.46</ele>
        <time>2018-11-13T08:40:54Z</time>
      </trkpt>
      <trkpt lat="36.6930216551" lon="-2.7765024919">
        <ele>4.94</ele>
        <time>2018-11-13T08:40:59Z</time>
      </trkpt>
      <trkpt lat="36.6930532549" lon="-2.7764963731">
        <ele>4.94</ele>
        <time>2018-11-13T08:41:06Z</time>
      </trkpt>
      <trkpt lat="36.6931745410" lon="-2.7764371969">
        <ele>5.42</ele>
        <time>2018-11-13T08:41:16Z</time>
      </trkpt>
      <trkpt lat="36.6933114175" lon="-2.7764087822">
        <ele>5.42</ele>
        <time>2018-11-13T08:41:26Z</time>
      </trkpt>
      <trkpt lat="36.6934849229" lon="-2.7763496898">
        <ele>6.39</ele>
        <time>2018-11-13T08:41:39Z</time>
      </trkpt>
      <trkpt lat="36.6936169378" lon="-2.7762867417">
        <ele>6.39</ele>
        <time>2018-11-13T08:41:50Z</time>
      </trkpt>
      <trkpt lat="36.6937046964" lon="-2.7762957104">
        <ele>6.87</ele>
        <time>2018-11-13T08:41:57Z</time>
      </trkpt>
      <trkpt lat="36.6937168501" lon="-2.7762952913">
        <ele>6.87</ele>
        <time>2018-11-13T08:41:58Z</time>
      </trkpt>
      <trkpt lat="36.6938266531" lon="-2.7763170004">
        <ele>6.87</ele>
        <time>2018-11-13T08:42:08Z</time>
      </trkpt>
      <trkpt lat="36.6939408984" lon="-2.7763489354">
        <ele>6.87</ele>
        <time>2018-11-13T08:42:19Z</time>
      </trkpt>
      <trkpt lat="36.6940470971" lon="-2.7764092851">
        <ele>6.39</ele>
        <time>2018-11-13T08:42:30Z</time>
      </trkpt>
      <trkpt lat="36.6941512842" lon="-2.7765003126">
        <ele>5.42</ele>
        <time>2018-11-13T08:42:41Z</time>
      </trkpt>
      <trkpt lat="36.6942053474" lon="-2.7765113767">
        <ele>5.42</ele>
        <time>2018-11-13T08:42:48Z</time>
      </trkpt>
      <trkpt lat="36.6942030005" lon="-2.7765089460">
        <ele>4.94</ele>
        <time>2018-11-13T08:43:03Z</time>
      </trkpt>
      <trkpt lat="36.6942061018" lon="-2.7765112929">
        <ele>3.98</ele>
        <time>2018-11-13T08:43:20Z</time>
      </trkpt>
      <trkpt lat="36.6942111310" lon="-2.7765137237">
        <ele>3.98</ele>
        <time>2018-11-13T08:43:32Z</time>
      </trkpt>
      <trkpt lat="36.6942127235" lon="-2.7765072696">
        <ele>3.98</ele>
        <time>2018-11-13T08:43:40Z</time>
      </trkpt>
      <trkpt lat="36.6942096222" lon="-2.7765056770">
        <ele>4.46</ele>
        <time>2018-11-13T08:43:50Z</time>
      </trkpt>
      <trkpt lat="36.6942078620" lon="-2.7765061799">
        <ele>3.02</ele>
        <time>2018-11-13T08:44:09Z</time>
      </trkpt>
      <trkpt lat="36.6942004021" lon="-2.7765086107">
        <ele>3.50</ele>
        <time>2018-11-13T08:44:23Z</time>
      </trkpt>
      <trkpt lat="36.6942120530" lon="-2.7765319962">
        <ele>3.50</ele>
        <time>2018-11-13T08:44:31Z</time>
      </trkpt>
      <trkpt lat="36.6942144837" lon="-2.7765305713">
        <ele>3.50</ele>
        <time>2018-11-13T08:44:36Z</time>
      </trkpt>
      <trkpt lat="36.6942175850" lon="-2.7765966207">
        <ele>3.50</ele>
        <time>2018-11-13T08:44:39Z</time>
      </trkpt>
      <trkpt lat="36.6941891704" lon="-2.7768693678">
        <ele>3.50</ele>
        <time>2018-11-13T08:44:46Z</time>
      </trkpt>
      <trkpt lat="36.6941802017" lon="-2.7771124430">
        <ele>3.50</ele>
        <time>2018-11-13T08:44:53Z</time>
      </trkpt>
      <trkpt lat="36.6940869950" lon="-2.7773799933">
        <ele>3.50</ele>
        <time>2018-11-13T08:45:01Z</time>
      </trkpt>
      <trkpt lat="36.6939368751" lon="-2.7776212245">
        <ele>3.50</ele>
        <time>2018-11-13T08:45:08Z</time>
      </trkpt>
      <trkpt lat="36.6937729251" lon="-2.7778728493">
        <ele>3.98</ele>
        <time>2018-11-13T08:45:15Z</time>
      </trkpt>
      <trkpt lat="36.6936396528" lon="-2.7780357096">
        <ele>4.46</ele>
        <time>2018-11-13T08:45:21Z</time>
      </trkpt>
      <trkpt lat="36.6934716795" lon="-2.7780884318">
        <ele>4.94</ele>
        <time>2018-11-13T08:45:26Z</time>
      </trkpt>
      <trkpt lat="36.6932111699" lon="-2.7781862486">
        <ele>5.42</ele>
        <time>2018-11-13T08:45:33Z</time>
      </trkpt>
      <trkpt lat="36.6931745410" lon="-2.7782139927">
        <ele>5.42</ele>
        <time>2018-11-13T08:45:34Z</time>
      </trkpt>
      <trkpt lat="36.6929208208" lon="-2.7785055991">
        <ele>5.42</ele>
        <time>2018-11-13T08:45:43Z</time>
      </trkpt>
      <trkpt lat="36.6927929968" lon="-2.7787542902">
        <ele>4.94</ele>
        <time>2018-11-13T08:45:51Z</time>
      </trkpt>
      <trkpt lat="36.6927061602" lon="-2.7788841259">
        <ele>4.94</ele>
        <time>2018-11-13T08:45:56Z</time>
      </trkpt>
      <trkpt lat="36.6927066632" lon="-2.7789060026">
        <ele>4.94</ele>
        <time>2018-11-13T08:45:57Z</time>
      </trkpt>
      <trkpt lat="36.6927093454" lon="-2.7789127920">
        <ele>4.94</ele>
        <time>2018-11-13T08:46:02Z</time>
      </trkpt>
      <trkpt lat="36.6927074175" lon="-2.7789176535">
        <ele>5.42</ele>
        <time>2018-11-13T08:46:24Z</time>
      </trkpt>
      <trkpt lat="36.6927086748" lon="-2.7789149713">
        <ele>4.46</ele>
        <time>2018-11-13T08:46:41Z</time>
      </trkpt>
      <trkpt lat="36.6927157156" lon="-2.7789402008">
        <ele>4.94</ele>
        <time>2018-11-13T08:46:48Z</time>
      </trkpt>
      <trkpt lat="36.6927316412" lon="-2.7789385244">
        <ele>4.94</ele>
        <time>2018-11-13T08:46:49Z</time>
      </trkpt>
      <trkpt lat="36.6927486565" lon="-2.7789248619">
        <ele>4.94</ele>
        <time>2018-11-13T08:46:50Z</time>
      </trkpt>
      <trkpt lat="36.6927666776" lon="-2.7789085172">
        <ele>4.94</ele>
        <time>2018-11-13T08:46:51Z</time>
      </trkpt>
      <trkpt lat="36.6927919071" lon="-2.7788952738">
        <ele>4.94</ele>
        <time>2018-11-13T08:46:52Z</time>
      </trkpt>
      <trkpt lat="36.6928225849" lon="-2.7788799349">
        <ele>4.94</ele>
        <time>2018-11-13T08:46:53Z</time>
      </trkpt>
      <trkpt lat="36.6928543523" lon="-2.7788638417">
        <ele>4.94</ele>
        <time>2018-11-13T08:46:54Z</time>
      </trkpt>
      <trkpt lat="36.6928837728" lon="-2.7788521070">
        <ele>4.46</ele>
        <time>2018-11-13T08:46:55Z</time>
      </trkpt>
      <trkpt lat="36.6929104272" lon="-2.7788423840">
        <ele>4.46</ele>
        <time>2018-11-13T08:46:56Z</time>
      </trkpt>
      <trkpt lat="36.6931406781" lon="-2.7787361015">
        <ele>4.94</ele>
        <time>2018-11-13T08:47:06Z</time>
      </trkpt>
      <trkpt lat="36.6931594536" lon="-2.7787313238">
        <ele>4.94</ele>
        <time>2018-11-13T08:47:07Z</time>
      </trkpt>
      <trkpt lat="36.6931858566" lon="-2.7787252050">
        <ele>4.94</ele>
        <time>2018-11-13T08:47:08Z</time>
      </trkpt>
      <trkpt lat="36.6934363078" lon="-2.7785931062">
        <ele>5.91</ele>
        <time>2018-11-13T08:47:16Z</time>
      </trkpt>
      <trkpt lat="36.6938183550" lon="-2.7784050163">
        <ele>5.91</ele>
        <time>2018-11-13T08:47:26Z</time>
      </trkpt>
      <trkpt lat="36.6944282223" lon="-2.7781121526">
        <ele>6.39</ele>
        <time>2018-11-13T08:47:41Z</time>
      </trkpt>
      <trkpt lat="36.6949248500" lon="-2.7778733522">
        <ele>6.87</ele>
        <time>2018-11-13T08:47:53Z</time>
      </trkpt>
      <trkpt lat="36.6952726990" lon="-2.7777266689">
        <ele>7.35</ele>
        <time>2018-11-13T08:48:02Z</time>
      </trkpt>
      <trkpt lat="36.6956669837" lon="-2.7776767127">
        <ele>7.35</ele>
        <time>2018-11-13T08:48:12Z</time>
      </trkpt>
      <trkpt lat="36.6957504675" lon="-2.7776713483">
        <ele>7.35</ele>
        <time>2018-11-13T08:48:15Z</time>
      </trkpt>
      <trkpt lat="36.6957711708" lon="-2.7776530758">
        <ele>7.35</ele>
        <time>2018-11-13T08:48:16Z</time>
      </trkpt>
      <trkpt lat="36.6957824863" lon="-2.7776258346">
        <ele>7.35</ele>
        <time>2018-11-13T08:48:17Z</time>
      </trkpt>
      <trkpt lat="36.6957869288" lon="-2.7775852662">
        <ele>7.83</ele>
        <time>2018-11-13T08:48:18Z</time>
      </trkpt>
      <trkpt lat="36.6957836598" lon="-2.7775500622">
        <ele>7.83</ele>
        <time>2018-11-13T08:48:19Z</time>
      </trkpt>
      <trkpt lat="36.6957787145" lon="-2.7775186300">
        <ele>7.83</ele>
        <time>2018-11-13T08:48:20Z</time>
      </trkpt>
      <trkpt lat="36.6958182771" lon="-2.7773377486">
        <ele>7.83</ele>
        <time>2018-11-13T08:48:26Z</time>
      </trkpt>
      <trkpt lat="36.6960255615" lon="-2.7771525923">
        <ele>8.31</ele>
        <time>2018-11-13T08:48:34Z</time>
      </trkpt>
      <trkpt lat="36.6962598357" lon="-2.7770562004">
        <ele>8.79</ele>
        <time>2018-11-13T08:48:41Z</time>
      </trkpt>
      <trkpt lat="36.6964858957" lon="-2.7769654244">
        <ele>9.27</ele>
        <time>2018-11-13T08:48:49Z</time>
      </trkpt>
      <trkpt lat="36.6966477502" lon="-2.7767923381">
        <ele>10.23</ele>
        <time>2018-11-13T08:48:56Z</time>
      </trkpt>
      <trkpt lat="36.6967477463" lon="-2.7766255382">
        <ele>9.75</ele>
        <time>2018-11-13T08:49:03Z</time>
      </trkpt>
      <trkpt lat="36.6967787594" lon="-2.7764126379">
        <ele>9.75</ele>
        <time>2018-11-13T08:49:10Z</time>
      </trkpt>
      <trkpt lat="36.6967176553" lon="-2.7761799563">
        <ele>9.27</ele>
        <time>2018-11-13T08:49:18Z</time>
      </trkpt>
      <trkpt lat="36.6966051701" lon="-2.7759056166">
        <ele>8.31</ele>
        <time>2018-11-13T08:49:28Z</time>
      </trkpt>
      <trkpt lat="36.6965049226" lon="-2.7756484598">
        <ele>7.83</ele>
        <time>2018-11-13T08:49:37Z</time>
      </trkpt>
      <trkpt lat="36.6963968799" lon="-2.7753602061">
        <ele>7.35</ele>
        <time>2018-11-13T08:49:46Z</time>
      </trkpt>
      <trkpt lat="36.6963882465" lon="-2.7751294523">
        <ele>7.35</ele>
        <time>2018-11-13T08:49:53Z</time>
      </trkpt>
      <trkpt lat="36.6963309143" lon="-2.7747600619">
        <ele>7.35</ele>
        <time>2018-11-13T08:50:02Z</time>
      </trkpt>
      <trkpt lat="36.6962750070" lon="-2.7742867358">
        <ele>7.83</ele>
        <time>2018-11-13T08:50:12Z</time>
      </trkpt>
      <trkpt lat="36.6962414794" lon="-2.7737830672">
        <ele>8.79</ele>
        <time>2018-11-13T08:50:23Z</time>
      </trkpt>
      <trkpt lat="36.6962015815" lon="-2.7734489646">
        <ele>8.31</ele>
        <time>2018-11-13T08:50:31Z</time>
      </trkpt>
      <trkpt lat="36.6960846540" lon="-2.7730323002">
        <ele>7.83</ele>
        <time>2018-11-13T08:50:40Z</time>
      </trkpt>
      <trkpt lat="36.6960131563" lon="-2.7726601437">
        <ele>7.83</ele>
        <time>2018-11-13T08:50:48Z</time>
      </trkpt>
      <trkpt lat="36.6959433351" lon="-2.7725012228">
        <ele>7.83</ele>
        <time>2018-11-13T08:50:53Z</time>
      </trkpt>
      <trkpt lat="36.6957540717" lon="-2.7724087704">
        <ele>7.83</ele>
        <time>2018-11-13T08:51:00Z</time>
      </trkpt>
      <trkpt lat="36.6956627090" lon="-2.7722637635">
        <ele>7.83</ele>
        <time>2018-11-13T08:51:06Z</time>
      </trkpt>
      <trkpt lat="36.6956149321" lon="-2.7720074449">
        <ele>7.83</ele>
        <time>2018-11-13T08:51:13Z</time>
      </trkpt>
      <trkpt lat="36.6956436820" lon="-2.7717597596">
        <ele>8.79</ele>
        <time>2018-11-13T08:51:21Z</time>
      </trkpt>
      <trkpt lat="36.6956501361" lon="-2.7716916986">
        <ele>9.27</ele>
        <time>2018-11-13T08:51:23Z</time>
      </trkpt>
      <trkpt lat="36.6955283470" lon="-2.7715408243">
        <ele>8.79</ele>
        <time>2018-11-13T08:51:30Z</time>
      </trkpt>
      <trkpt lat="36.6954426002" lon="-2.7715260722">
        <ele>8.31</ele>
        <time>2018-11-13T08:51:32Z</time>
      </trkpt>
      <trkpt lat="36.6953086574" lon="-2.7714752778">
        <ele>7.83</ele>
        <time>2018-11-13T08:51:36Z</time>
      </trkpt>
      <trkpt lat="36.6952151991" lon="-2.7712342981">
        <ele>7.83</ele>
        <time>2018-11-13T08:51:42Z</time>
      </trkpt>
      <trkpt lat="36.6952766385" lon="-2.7708753850">
        <ele>8.79</ele>
        <time>2018-11-13T08:51:51Z</time>
      </trkpt>
      <trkpt lat="36.6952164564" lon="-2.7707517520">
        <ele>7.83</ele>
        <time>2018-11-13T08:51:58Z</time>
      </trkpt>
      <trkpt lat="36.6951028816" lon="-2.7706551086">
        <ele>7.35</ele>
        <time>2018-11-13T08:52:07Z</time>
      </trkpt>
      <trkpt lat="36.6950788256" lon="-2.7706125285">
        <ele>7.35</ele>
        <time>2018-11-13T08:52:13Z</time>
      </trkpt>
      <trkpt lat="36.6950294562" lon="-2.7705588844">
        <ele>8.31</ele>
        <time>2018-11-13T08:52:21Z</time>
      </trkpt>
      <trkpt lat="36.6950213257" lon="-2.7705577109">
        <ele>8.31</ele>
        <time>2018-11-13T08:52:22Z</time>
      </trkpt>
      <trkpt lat="36.6949866246" lon="-2.7705841977">
        <ele>8.31</ele>
        <time>2018-11-13T08:52:30Z</time>
      </trkpt>
      <trkpt lat="36.6949790809" lon="-2.7705891430">
        <ele>8.31</ele>
        <time>2018-11-13T08:52:31Z</time>
      </trkpt>
      <trkpt lat="36.6948499996" lon="-2.7706056554">
        <ele>8.31</ele>
        <time>2018-11-13T08:52:39Z</time>
      </trkpt>
      <trkpt lat="36.6947152186" lon="-2.7706396021">
        <ele>7.35</ele>
        <time>2018-11-13T08:52:46Z</time>
      </trkpt>
      <trkpt lat="36.6946817748" lon="-2.7706524264">
        <ele>6.87</ele>
        <time>2018-11-13T08:52:48Z</time>
      </trkpt>
      <trkpt lat="36.6946631670" lon="-2.7706484869">
        <ele>6.87</ele>
        <time>2018-11-13T08:52:49Z</time>
      </trkpt>
      <trkpt lat="36.6946493369" lon="-2.7706401888">
        <ele>6.87</ele>
        <time>2018-11-13T08:52:50Z</time>
      </trkpt>
      <trkpt lat="36.6946399491" lon="-2.7706246823">
        <ele>6.87</ele>
        <time>2018-11-13T08:52:51Z</time>
      </trkpt>
      <trkpt lat="36.6946323216" lon="-2.7706054877">
        <ele>6.39</ele>
        <time>2018-11-13T08:52:52Z</time>
      </trkpt>
      <trkpt lat="36.6946264543" lon="-2.7705597226">
        <ele>6.39</ele>
        <time>2018-11-13T08:52:55Z</time>
      </trkpt>
      <trkpt lat="36.6946452297" lon="-2.7704115305">
        <ele>6.39</ele>
        <time>2018-11-13T08:53:03Z</time>
      </trkpt>
      <trkpt lat="36.6946538631" lon="-2.7702759951">
        <ele>7.35</ele>
        <time>2018-11-13T08:53:12Z</time>
      </trkpt>
      <trkpt lat="36.6946533602" lon="-2.7702220157">
        <ele>7.35</ele>
        <time>2018-11-13T08:53:19Z</time>
      </trkpt>
      <trkpt lat="36.6946772486" lon="-2.7701423038">
        <ele>7.83</ele>
        <time>2018-11-13T08:53:28Z</time>
      </trkpt>
      <trkpt lat="36.6946894862" lon="-2.7700087801">
        <ele>7.35</ele>
        <time>2018-11-13T08:53:38Z</time>
      </trkpt>
      <trkpt lat="36.6946753208" lon="-2.7698831353">
        <ele>7.35</ele>
        <time>2018-11-13T08:53:47Z</time>
      </trkpt>
      <trkpt lat="36.6946774162" lon="-2.7698724065">
        <ele>7.83</ele>
        <time>2018-11-13T08:53:54Z</time>
      </trkpt>
      <trkpt lat="36.6946747340" lon="-2.7698720712">
        <ele>7.35</ele>
        <time>2018-11-13T08:54:12Z</time>
      </trkpt>
      <trkpt lat="36.6946700402" lon="-2.7698711492">
        <ele>8.31</ele>
        <time>2018-11-13T08:54:38Z</time>
      </trkpt>
      <trkpt lat="36.6946786735" lon="-2.7698666230">
        <ele>8.79</ele>
        <time>2018-11-13T08:55:00Z</time>
      </trkpt>
      <trkpt lat="36.6946746502" lon="-2.7698630188">
        <ele>7.83</ele>
        <time>2018-11-13T08:55:09Z</time>
      </trkpt>
      <trkpt lat="36.6946680285" lon="-2.7697735000">
        <ele>7.35</ele>
        <time>2018-11-13T08:55:14Z</time>
      </trkpt>
      <trkpt lat="36.6946392786" lon="-2.7695372980">
        <ele>7.35</ele>
        <time>2018-11-13T08:55:23Z</time>
      </trkpt>
      <trkpt lat="36.6945562977" lon="-2.7692229766">
        <ele>6.87</ele>
        <time>2018-11-13T08:55:33Z</time>
      </trkpt>
      <trkpt lat="36.6944719758" lon="-2.7689356450">
        <ele>7.35</ele>
        <time>2018-11-13T08:55:43Z</time>
      </trkpt>
      <trkpt lat="36.6944010649" lon="-2.7687314618">
        <ele>6.87</ele>
        <time>2018-11-13T08:55:51Z</time>
      </trkpt>
      <trkpt lat="36.6943022422" lon="-2.7686260175">
        <ele>5.91</ele>
        <time>2018-11-13T08:55:58Z</time>
      </trkpt>
      <trkpt lat="36.6942998115" lon="-2.7686165459">
        <ele>5.91</ele>
        <time>2018-11-13T08:55:59Z</time>
      </trkpt>
      <trkpt lat="36.6942966264" lon="-2.7686021291">
        <ele>5.91</ele>
        <time>2018-11-13T08:56:00Z</time>
      </trkpt>
      <trkpt lat="36.6942838021" lon="-2.7685696073">
        <ele>5.91</ele>
        <time>2018-11-13T08:56:02Z</time>
      </trkpt>
      <trkpt lat="36.6942716483" lon="-2.7685549390">
        <ele>5.91</ele>
        <time>2018-11-13T08:56:03Z</time>
      </trkpt>
      <trkpt lat="36.6942579858" lon="-2.7685345709">
        <ele>5.91</ele>
        <time>2018-11-13T08:56:04Z</time>
      </trkpt>
      <trkpt lat="36.6942396294" lon="-2.7685052343">
        <ele>5.91</ele>
        <time>2018-11-13T08:56:05Z</time>
      </trkpt>
      <trkpt lat="36.6942201834" lon="-2.7684802562">
        <ele>5.91</ele>
        <time>2018-11-13T08:56:06Z</time>
      </trkpt>
      <trkpt lat="36.6940954607" lon="-2.7682987042">
        <ele>5.91</ele>
        <time>2018-11-13T08:56:14Z</time>
      </trkpt>
      <trkpt lat="36.6940073669" lon="-2.7681096084">
        <ele>5.91</ele>
        <time>2018-11-13T08:56:22Z</time>
      </trkpt>
      <trkpt lat="36.6939238831" lon="-2.7679478377">
        <ele>4.94</ele>
        <time>2018-11-13T08:56:29Z</time>
      </trkpt>
      <trkpt lat="36.6938192770" lon="-2.7677741647">
        <ele>4.46</ele>
        <time>2018-11-13T08:56:37Z</time>
      </trkpt>
      <trkpt lat="36.6937541496" lon="-2.7675714903">
        <ele>3.98</ele>
        <time>2018-11-13T08:56:45Z</time>
      </trkpt>
      <trkpt lat="36.6936762817" lon="-2.7673493698">
        <ele>3.98</ele>
        <time>2018-11-13T08:56:54Z</time>
      </trkpt>
      <trkpt lat="36.6936531477" lon="-2.7671659738">
        <ele>3.98</ele>
        <time>2018-11-13T08:57:00Z</time>
      </trkpt>
      <trkpt lat="36.6937052831" lon="-2.7670185361">
        <ele>3.98</ele>
        <time>2018-11-13T08:57:06Z</time>
      </trkpt>
      <trkpt lat="36.6937456001" lon="-2.7669410035">
        <ele>4.46</ele>
        <time>2018-11-13T08:57:10Z</time>
      </trkpt>
      <trkpt lat="36.6937580891" lon="-2.7668837551">
        <ele>4.94</ele>
        <time>2018-11-13T08:57:14Z</time>
      </trkpt>
      <trkpt lat="36.6938130744" lon="-2.7667230740">
        <ele>4.94</ele>
        <time>2018-11-13T08:57:22Z</time>
      </trkpt>
      <trkpt lat="36.6938077938" lon="-2.7665740438">
        <ele>4.46</ele>
        <time>2018-11-13T08:57:29Z</time>
      </trkpt>
      <trkpt lat="36.6937569156" lon="-2.7664176375">
        <ele>3.98</ele>
        <time>2018-11-13T08:57:35Z</time>
      </trkpt>
      <trkpt lat="36.6937714163" lon="-2.7661839500">
        <ele>3.98</ele>
        <time>2018-11-13T08:57:44Z</time>
      </trkpt>
      <trkpt lat="36.6937989928" lon="-2.7658921760">
        <ele>4.46</ele>
        <time>2018-11-13T08:57:54Z</time>
      </trkpt>
      <trkpt lat="36.6938334424" lon="-2.7656050958">
        <ele>4.46</ele>
        <time>2018-11-13T08:58:04Z</time>
      </trkpt>
      <trkpt lat="36.6938474402" lon="-2.7653380483">
        <ele>4.94</ele>
        <time>2018-11-13T08:58:13Z</time>
      </trkpt>
      <trkpt lat="36.6938488651" lon="-2.7650117408">
        <ele>4.94</ele>
        <time>2018-11-13T08:58:24Z</time>
      </trkpt>
      <trkpt lat="36.6938347835" lon="-2.7647959068">
        <ele>4.94</ele>
        <time>2018-11-13T08:58:32Z</time>
      </trkpt>
      <trkpt lat="36.6938248929" lon="-2.7645659074">
        <ele>5.42</ele>
        <time>2018-11-13T08:58:41Z</time>
      </trkpt>
      <trkpt lat="36.6938297544" lon="-2.7642925736">
        <ele>5.42</ele>
        <time>2018-11-13T08:58:50Z</time>
      </trkpt>
      <trkpt lat="36.6937999148" lon="-2.7639736421">
        <ele>5.42</ele>
        <time>2018-11-13T08:58:59Z</time>
      </trkpt>
      <trkpt lat="36.6937081330" lon="-2.7636653557">
        <ele>4.94</ele>
        <time>2018-11-13T08:59:08Z</time>
      </trkpt>
      <trkpt lat="36.6936360486" lon="-2.7634445764">
        <ele>4.46</ele>
        <time>2018-11-13T08:59:15Z</time>
      </trkpt>
      <trkpt lat="36.6934770439" lon="-2.7632272337">
        <ele>4.94</ele>
        <time>2018-11-13T08:59:23Z</time>
      </trkpt>
      <trkpt lat="36.6933430173" lon="-2.7629707474">
        <ele>4.94</ele>
        <time>2018-11-13T08:59:31Z</time>
      </trkpt>
      <trkpt lat="36.6932508163" lon="-2.7628221363">
        <ele>5.42</ele>
        <time>2018-11-13T08:59:38Z</time>
      </trkpt>
      <trkpt lat="36.6931700986" lon="-2.7626282629">
        <ele>4.46</ele>
        <time>2018-11-13T08:59:46Z</time>
      </trkpt>
      <trkpt lat="36.6931331344" lon="-2.7624265943">
        <ele>4.46</ele>
        <time>2018-11-13T08:59:52Z</time>
      </trkpt>
      <trkpt lat="36.6930747125" lon="-2.7621766459">
        <ele>4.46</ele>
        <time>2018-11-13T09:00:01Z</time>
      </trkpt>
      <trkpt lat="36.6929768957" lon="-2.7618623246">
        <ele>3.98</ele>
        <time>2018-11-13T09:00:11Z</time>
      </trkpt>
      <trkpt lat="36.6929110978" lon="-2.7616747376">
        <ele>4.46</ele>
        <time>2018-11-13T09:00:17Z</time>
      </trkpt>
      <trkpt lat="36.6928316373" lon="-2.7615029085">
        <ele>3.98</ele>
        <time>2018-11-13T09:00:23Z</time>
      </trkpt>
      <trkpt lat="36.6928316373" lon="-2.7614711411">
        <ele>3.98</ele>
        <time>2018-11-13T09:00:24Z</time>
      </trkpt>
      <trkpt lat="36.6928293742" lon="-2.7614367753">
        <ele>4.46</ele>
        <time>2018-11-13T09:00:25Z</time>
      </trkpt>
      <trkpt lat="36.6928141192" lon="-2.7613689657">
        <ele>3.98</ele>
        <time>2018-11-13T09:00:27Z</time>
      </trkpt>
      <trkpt lat="36.6927992832" lon="-2.7613335941">
        <ele>3.98</ele>
        <time>2018-11-13T09:00:28Z</time>
      </trkpt>
      <trkpt lat="36.6927427053" lon="-2.7609883435">
        <ele>4.94</ele>
        <time>2018-11-13T09:00:36Z</time>
      </trkpt>
      <trkpt lat="36.6926746443" lon="-2.7607366350">
        <ele>5.42</ele>
        <time>2018-11-13T09:00:43Z</time>
      </trkpt>
      <trkpt lat="36.6926597245" lon="-2.7607329469">
        <ele>5.42</ele>
        <time>2018-11-13T09:00:48Z</time>
      </trkpt>
      <trkpt lat="36.6926652566" lon="-2.7607440110">
        <ele>5.42</ele>
        <time>2018-11-13T09:01:01Z</time>
      </trkpt>
      <trkpt lat="36.6926594730" lon="-2.7607448492">
        <ele>5.91</ele>
        <time>2018-11-13T09:01:17Z</time>
      </trkpt>
      <trkpt lat="36.6926616523" lon="-2.7607391495">
        <ele>5.42</ele>
        <time>2018-11-13T09:01:37Z</time>
      </trkpt>
      <trkpt lat="36.6926667653" lon="-2.7607388142">
        <ele>5.42</ele>
        <time>2018-11-13T09:01:47Z</time>
      </trkpt>
      <trkpt lat="36.6926653404" lon="-2.7607483696">
        <ele>5.42</ele>
        <time>2018-11-13T09:02:01Z</time>
      </trkpt>
      <trkpt lat="36.6926617362" lon="-2.7607392333">
        <ele>4.94</ele>
        <time>2018-11-13T09:02:18Z</time>
      </trkpt>
      <trkpt lat="36.6926590540" lon="-2.7607255708">
        <ele>4.94</ele>
        <time>2018-11-13T09:02:22Z</time>
      </trkpt>
      <trkpt lat="36.6926537734" lon="-2.7607111540">
        <ele>4.94</ele>
        <time>2018-11-13T09:02:23Z</time>
      </trkpt>
      <trkpt lat="36.6926466487" lon="-2.7606970724">
        <ele>4.94</ele>
        <time>2018-11-13T09:02:24Z</time>
      </trkpt>
      <trkpt lat="36.6926368419" lon="-2.7606763691">
        <ele>4.94</ele>
        <time>2018-11-13T09:02:25Z</time>
      </trkpt>
      <trkpt lat="36.6926249396" lon="-2.7606467810">
        <ele>4.94</ele>
        <time>2018-11-13T09:02:26Z</time>
      </trkpt>
      <trkpt lat="36.6925635841" lon="-2.7604132611">
        <ele>5.42</ele>
        <time>2018-11-13T09:02:33Z</time>
      </trkpt>
      <trkpt lat="36.6924729757" lon="-2.7601629775">
        <ele>5.91</ele>
        <time>2018-11-13T09:02:40Z</time>
      </trkpt>
      <trkpt lat="36.6923326626" lon="-2.7599929925">
        <ele>4.94</ele>
        <time>2018-11-13T09:02:46Z</time>
      </trkpt>
      <trkpt lat="36.6922004800" lon="-2.7598326467">
        <ele>4.46</ele>
        <time>2018-11-13T09:02:53Z</time>
      </trkpt>
      <trkpt lat="36.6921220254" lon="-2.7596960217">
        <ele>4.46</ele>
        <time>2018-11-13T09:02:59Z</time>
      </trkpt>
      <trkpt lat="36.6920040082" lon="-2.7595232707">
        <ele>3.98</ele>
        <time>2018-11-13T09:03:08Z</time>
      </trkpt>
      <trkpt lat="36.6918553133" lon="-2.7592980489">
        <ele>3.98</ele>
        <time>2018-11-13T09:03:16Z</time>
      </trkpt>
      <trkpt lat="36.6917540599" lon="-2.7591214422">
        <ele>3.98</ele>
        <time>2018-11-13T09:03:23Z</time>
      </trkpt>
      <trkpt lat="36.6916142497" lon="-2.7589103859">
        <ele>4.46</ele>
        <time>2018-11-13T09:03:30Z</time>
      </trkpt>
      <trkpt lat="36.6914753616" lon="-2.7586921211">
        <ele>4.46</ele>
        <time>2018-11-13T09:03:39Z</time>
      </trkpt>
      <trkpt lat="36.6913192067" lon="-2.7584012691">
        <ele>3.98</ele>
        <time>2018-11-13T09:03:48Z</time>
      </trkpt>
      <trkpt lat="36.6911851801" lon="-2.7581551764">
        <ele>3.50</ele>
        <time>2018-11-13T09:03:55Z</time>
      </trkpt>
      <trkpt lat="36.6910055559" lon="-2.7578561101">
        <ele>3.50</ele>
        <time>2018-11-13T09:04:04Z</time>
      </trkpt>
      <trkpt lat="36.6908604652" lon="-2.7575821895">
        <ele>3.98</ele>
        <time>2018-11-13T09:04:11Z</time>
      </trkpt>
      <trkpt lat="36.6906945873" lon="-2.7572518587">
        <ele>3.98</ele>
        <time>2018-11-13T09:04:19Z</time>
      </trkpt>
      <trkpt lat="36.6905179806" lon="-2.7569863200">
        <ele>3.98</ele>
        <time>2018-11-13T09:04:26Z</time>
      </trkpt>
      <trkpt lat="36.6904009692" lon="-2.7567859925">
        <ele>3.98</ele>
        <time>2018-11-13T09:04:32Z</time>
      </trkpt>
      <trkpt lat="36.6902797669" lon="-2.7565761097">
        <ele>4.46</ele>
        <time>2018-11-13T09:04:38Z</time>
      </trkpt>
      <trkpt lat="36.6901878174" lon="-2.7564081363">
        <ele>4.46</ele>
        <time>2018-11-13T09:04:43Z</time>
      </trkpt>
      <trkpt lat="36.6900589876" lon="-2.7561190445">
        <ele>3.98</ele>
        <time>2018-11-13T09:04:52Z</time>
      </trkpt>
      <trkpt lat="36.6900074389" lon="-2.7559015341">
        <ele>3.98</ele>
        <time>2018-11-13T09:05:00Z</time>
      </trkpt>
      <trkpt lat="36.6899904236" lon="-2.7555822674">
        <ele>4.46</ele>
        <time>2018-11-13T09:05:09Z</time>
      </trkpt>
      <trkpt lat="36.6899917647" lon="-2.7552596480">
        <ele>4.46</ele>
        <time>2018-11-13T09:05:18Z</time>
      </trkpt>
      <trkpt lat="36.6899817903" lon="-2.7550250385">
        <ele>4.94</ele>
        <time>2018-11-13T09:05:25Z</time>
      </trkpt>
      <trkpt lat="36.6899741627" lon="-2.7547265589">
        <ele>5.91</ele>
        <time>2018-11-13T09:05:33Z</time>
      </trkpt>
      <trkpt lat="36.6899434850" lon="-2.7544640377">
        <ele>6.39</ele>
        <time>2018-11-13T09:05:41Z</time>
      </trkpt>
      <trkpt lat="36.6899143159" lon="-2.7542566694">
        <ele>6.87</ele>
        <time>2018-11-13T09:05:49Z</time>
      </trkpt>
      <trkpt lat="36.6898847278" lon="-2.7540435176">
        <ele>6.87</ele>
        <time>2018-11-13T09:05:56Z</time>
      </trkpt>
      <trkpt lat="36.6898556426" lon="-2.7538423520">
        <ele>6.87</ele>
        <time>2018-11-13T09:06:03Z</time>
      </trkpt>
      <trkpt lat="36.6898518708" lon="-2.7536424436">
        <ele>7.35</ele>
        <time>2018-11-13T09:06:10Z</time>
      </trkpt>
      <trkpt lat="36.6898628511" lon="-2.7535107639">
        <ele>7.35</ele>
        <time>2018-11-13T09:06:16Z</time>
      </trkpt>
      <trkpt lat="36.6898820456" lon="-2.7532696165">
        <ele>7.35</ele>
        <time>2018-11-13T09:06:24Z</time>
      </trkpt>
      <trkpt lat="36.6898921877" lon="-2.7529003937">
        <ele>7.83</ele>
        <time>2018-11-13T09:06:34Z</time>
      </trkpt>
      <trkpt lat="36.6898798663" lon="-2.7528135572">
        <ele>7.83</ele>
        <time>2018-11-13T09:06:39Z</time>
      </trkpt>
      <trkpt lat="36.6898861527" lon="-2.7528174967">
        <ele>7.83</ele>
        <time>2018-11-13T09:06:52Z</time>
      </trkpt>
      <trkpt lat="36.6898810398" lon="-2.7528166585">
        <ele>7.83</ele>
        <time>2018-11-13T09:07:08Z</time>
      </trkpt>
      <trkpt lat="36.6898801178" lon="-2.7527798619">
        <ele>7.35</ele>
        <time>2018-11-13T09:07:15Z</time>
      </trkpt>
      <trkpt lat="36.6898557264" lon="-2.7525757626">
        <ele>6.87</ele>
        <time>2018-11-13T09:07:24Z</time>
      </trkpt>
      <trkpt lat="36.6898351070" lon="-2.7522638720">
        <ele>6.39</ele>
        <time>2018-11-13T09:07:35Z</time>
      </trkpt>
      <trkpt lat="36.6898374539" lon="-2.7520346269">
        <ele>6.39</ele>
        <time>2018-11-13T09:07:43Z</time>
      </trkpt>
      <trkpt lat="36.6898532119" lon="-2.7518751193">
        <ele>5.91</ele>
        <time>2018-11-13T09:07:50Z</time>
      </trkpt>
      <trkpt lat="36.6898667905" lon="-2.7516758814">
        <ele>6.39</ele>
        <time>2018-11-13T09:07:57Z</time>
      </trkpt>
      <trkpt lat="36.6898982227" lon="-2.7515091654">
        <ele>6.39</ele>
        <time>2018-11-13T09:08:04Z</time>
      </trkpt>
      <trkpt lat="36.6899511125" lon="-2.7511984482">
        <ele>6.39</ele>
        <time>2018-11-13T09:08:12Z</time>
      </trkpt>
      <trkpt lat="36.6900330037" lon="-2.7509237733">
        <ele>6.39</ele>
        <time>2018-11-13T09:08:20Z</time>
      </trkpt>
      <trkpt lat="36.6901194211" lon="-2.7506507747">
        <ele>6.87</ele>
        <time>2018-11-13T09:08:28Z</time>
      </trkpt>
      <trkpt lat="36.6902057547" lon="-2.7503708191">
        <ele>6.87</ele>
        <time>2018-11-13T09:08:36Z</time>
      </trkpt>
      <trkpt lat="36.6902474966" lon="-2.7501129080">
        <ele>7.35</ele>
        <time>2018-11-13T09:08:44Z</time>
      </trkpt>
      <trkpt lat="36.6902467422" lon="-2.7497840859">
        <ele>7.83</ele>
        <time>2018-11-13T09:08:53Z</time>
      </trkpt>
      <trkpt lat="36.6902545374" lon="-2.7495397534">
        <ele>7.83</ele>
        <time>2018-11-13T09:09:01Z</time>
      </trkpt>
      <trkpt lat="36.6902662721" lon="-2.7491653338">
        <ele>7.35</ele>
        <time>2018-11-13T09:09:10Z</time>
      </trkpt>
      <trkpt lat="36.6902826168" lon="-2.7488624956">
        <ele>7.35</ele>
        <time>2018-11-13T09:09:19Z</time>
      </trkpt>
      <trkpt lat="36.6902757436" lon="-2.7485338412">
        <ele>6.87</ele>
        <time>2018-11-13T09:09:28Z</time>
      </trkpt>
      <trkpt lat="36.6902803537" lon="-2.7482657880">
        <ele>6.87</ele>
        <time>2018-11-13T09:09:36Z</time>
      </trkpt>
      <trkpt lat="36.6903073434" lon="-2.7479804680">
        <ele>6.39</ele>
        <time>2018-11-13T09:09:45Z</time>
      </trkpt>
      <trkpt lat="36.6903337464" lon="-2.7476808988">
        <ele>5.42</ele>
        <time>2018-11-13T09:09:53Z</time>
      </trkpt>
      <trkpt lat="36.6903580539" lon="-2.7473563515">
        <ele>4.94</ele>
        <time>2018-11-13T09:10:01Z</time>
      </trkpt>
      <trkpt lat="36.6903547011" lon="-2.7471286990">
        <ele>4.46</ele>
        <time>2018-11-13T09:10:07Z</time>
      </trkpt>
      <trkpt lat="36.6903959401" lon="-2.7470587939">
        <ele>4.46</ele>
        <time>2018-11-13T09:10:12Z</time>
      </trkpt>
      <trkpt lat="36.6904256959" lon="-2.7470242605">
        <ele>4.46</ele>
        <time>2018-11-13T09:10:18Z</time>
      </trkpt>
      <trkpt lat="36.6904433817" lon="-2.7470062394">
        <ele>4.46</ele>
        <time>2018-11-13T09:10:24Z</time>
      </trkpt>
      <trkpt lat="36.6904528532" lon="-2.7470094245">
        <ele>4.46</ele>
        <time>2018-11-13T09:10:33Z</time>
      </trkpt>
      <trkpt lat="36.6904856265" lon="-2.7469859552">
        <ele>4.46</ele>
        <time>2018-11-13T09:10:42Z</time>
      </trkpt>
      <trkpt lat="36.6904969420" lon="-2.7469632402">
        <ele>4.94</ele>
        <time>2018-11-13T09:10:48Z</time>
      </trkpt>
      <trkpt lat="36.6905157175" lon="-2.7469452191">
        <ele>4.94</ele>
        <time>2018-11-13T09:10:59Z</time>
      </trkpt>
      <trkpt lat="36.6905148793" lon="-2.7469456382">
        <ele>4.46</ele>
        <time>2018-11-13T09:11:11Z</time>
      </trkpt>
      <trkpt lat="36.6905114427" lon="-2.7469484881">
        <ele>3.50</ele>
        <time>2018-11-13T09:11:22Z</time>
      </trkpt>
      <trkpt lat="36.6905230097" lon="-2.7469364181">
        <ele>3.50</ele>
        <time>2018-11-13T09:11:32Z</time>
      </trkpt>
      <trkpt lat="36.6905512568" lon="-2.7468998730">
        <ele>3.50</ele>
        <time>2018-11-13T09:11:35Z</time>
      </trkpt>
      <trkpt lat="36.6905696131" lon="-2.7468869649">
        <ele>3.50</ele>
        <time>2018-11-13T09:11:36Z</time>
      </trkpt>
      <trkpt lat="36.6905874666" lon="-2.7468704525">
        <ele>3.50</ele>
        <time>2018-11-13T09:11:37Z</time>
      </trkpt>
      <trkpt lat="36.6907292046" lon="-2.7467259485">
        <ele>4.46</ele>
        <time>2018-11-13T09:11:45Z</time>
      </trkpt>
      <trkpt lat="36.6907618102" lon="-2.7465675306">
        <ele>3.98</ele>
        <time>2018-11-13T09:11:51Z</time>
      </trkpt>
      <trkpt lat="36.6908042226" lon="-2.7463845536">
        <ele>3.98</ele>
        <time>2018-11-13T09:11:57Z</time>
      </trkpt>
      <trkpt lat="36.6908710264" lon="-2.7461819630">
        <ele>4.46</ele>
        <time>2018-11-13T09:12:04Z</time>
      </trkpt>
      <trkpt lat="36.6908388399" lon="-2.7459668834">
        <ele>4.46</ele>
        <time>2018-11-13T09:12:11Z</time>
      </trkpt>
      <trkpt lat="36.6907935776" lon="-2.7457370516">
        <ele>3.98</ele>
        <time>2018-11-13T09:12:18Z</time>
      </trkpt>
      <trkpt lat="36.6908149514" lon="-2.7455409151">
        <ele>4.46</ele>
        <time>2018-11-13T09:12:24Z</time>
      </trkpt>
      <trkpt lat="36.6908336431" lon="-2.7453404199">
        <ele>4.94</ele>
        <time>2018-11-13T09:12:30Z</time>
      </trkpt>
      <trkpt lat="36.6908571124" lon="-2.7452523261">
        <ele>4.94</ele>
        <time>2018-11-13T09:12:33Z</time>
      </trkpt>
      <trkpt lat="36.6908290330" lon="-2.7450312953">
        <ele>4.94</ele>
        <time>2018-11-13T09:12:39Z</time>
      </trkpt>
      <trkpt lat="36.6907747183" lon="-2.7448585443">
        <ele>4.94</ele>
        <time>2018-11-13T09:12:45Z</time>
      </trkpt>
      <trkpt lat="36.6907263547" lon="-2.7446514275">
        <ele>4.94</ele>
        <time>2018-11-13T09:12:51Z</time>
      </trkpt>
      <trkpt lat="36.6907694377" lon="-2.7444184106">
        <ele>5.42</ele>
        <time>2018-11-13T09:12:58Z</time>
      </trkpt>
      <trkpt lat="36.6907861177" lon="-2.7441488486">
        <ele>5.42</ele>
        <time>2018-11-13T09:13:06Z</time>
      </trkpt>
      <trkpt lat="36.6908007860" lon="-2.7439066954">
        <ele>5.42</ele>
        <time>2018-11-13T09:13:12Z</time>
      </trkpt>
      <trkpt lat="36.6908094194" lon="-2.7437756862">
        <ele>4.94</ele>
        <time>2018-11-13T09:13:16Z</time>
      </trkpt>
      <trkpt lat="36.6907580383" lon="-2.7436684817">
        <ele>4.94</ele>
        <time>2018-11-13T09:13:20Z</time>
      </trkpt>
      <trkpt lat="36.6907146201" lon="-2.7434189525">
        <ele>5.91</ele>
        <time>2018-11-13T09:13:27Z</time>
      </trkpt>
      <trkpt lat="36.6906507500" lon="-2.7431622148">
        <ele>5.91</ele>
        <time>2018-11-13T09:13:34Z</time>
      </trkpt>
      <trkpt lat="36.6905205790" lon="-2.7430701815">
        <ele>5.42</ele>
        <time>2018-11-13T09:13:39Z</time>
      </trkpt>
      <trkpt lat="36.6902382765" lon="-2.7430138551">
        <ele>5.42</ele>
        <time>2018-11-13T09:13:46Z</time>
      </trkpt>
      <trkpt lat="36.6902171541" lon="-2.7429934870">
        <ele>5.42</ele>
        <time>2018-11-13T09:13:47Z</time>
      </trkpt>
      <trkpt lat="36.6901615821" lon="-2.7429170441">
        <ele>5.42</ele>
        <time>2018-11-13T09:13:50Z</time>
      </trkpt>
      <trkpt lat="36.6900801100" lon="-2.7427572012">
        <ele>5.42</ele>
        <time>2018-11-13T09:13:56Z</time>
      </trkpt>
      <trkpt lat="36.6900186706" lon="-2.7425640821">
        <ele>5.42</ele>
        <time>2018-11-13T09:14:04Z</time>
      </trkpt>
      <trkpt lat="36.6900128871" lon="-2.7425390203">
        <ele>5.42</ele>
        <time>2018-11-13T09:14:05Z</time>
      </trkpt>
      <trkpt lat="36.6899759229" lon="-2.7424927521">
        <ele>5.42</ele>
        <time>2018-11-13T09:14:08Z</time>
      </trkpt>
      <trkpt lat="36.6899568960" lon="-2.7424827777">
        <ele>5.42</ele>
        <time>2018-11-13T09:14:09Z</time>
      </trkpt>
      <trkpt lat="36.6899304092" lon="-2.7424766589">
        <ele>4.94</ele>
        <time>2018-11-13T09:14:10Z</time>
      </trkpt>
      <trkpt lat="36.6899037547" lon="-2.7424732223">
        <ele>4.94</ele>
        <time>2018-11-13T09:14:11Z</time>
      </trkpt>
      <trkpt lat="36.6897294950" lon="-2.7424780000">
        <ele>4.94</ele>
        <time>2018-11-13T09:14:17Z</time>
      </trkpt>
      <trkpt lat="36.6895756032" lon="-2.7424655948">
        <ele>4.46</ele>
        <time>2018-11-13T09:14:24Z</time>
      </trkpt>
      <trkpt lat="36.6895320173" lon="-2.7424287982">
        <ele>4.46</ele>
        <time>2018-11-13T09:14:27Z</time>
      </trkpt>
      <trkpt lat="36.6895177681" lon="-2.7422524430">
        <ele>4.46</ele>
        <time>2018-11-13T09:14:33Z</time>
      </trkpt>
      <trkpt lat="36.6895155050" lon="-2.7418969665">
        <ele>4.46</ele>
        <time>2018-11-13T09:14:42Z</time>
      </trkpt>
      <trkpt lat="36.6895069554" lon="-2.7416579984">
        <ele>3.98</ele>
        <time>2018-11-13T09:14:49Z</time>
      </trkpt>
      <trkpt lat="36.6895225458" lon="-2.7415083814">
        <ele>4.46</ele>
        <time>2018-11-13T09:14:56Z</time>
      </trkpt>
      <trkpt lat="36.6895135771" lon="-2.7413596027">
        <ele>5.42</ele>
        <time>2018-11-13T09:15:05Z</time>
      </trkpt>
      <trkpt lat="36.6894966457" lon="-2.7410317864">
        <ele>5.42</ele>
        <time>2018-11-13T09:15:15Z</time>
      </trkpt>
      <trkpt lat="36.6894958913" lon="-2.7408296987">
        <ele>4.94</ele>
        <time>2018-11-13T09:15:22Z</time>
      </trkpt>
      <trkpt lat="36.6894798819" lon="-2.7405841928">
        <ele>5.42</ele>
        <time>2018-11-13T09:15:31Z</time>
      </trkpt>
      <trkpt lat="36.6894703265" lon="-2.7402797621">
        <ele>5.91</ele>
        <time>2018-11-13T09:15:42Z</time>
      </trkpt>
      <trkpt lat="36.6894513834" lon="-2.7400526963">
        <ele>6.39</ele>
        <time>2018-11-13T09:15:50Z</time>
      </trkpt>
      <trkpt lat="36.6894253995" lon="-2.7397091221">
        <ele>6.39</ele>
        <time>2018-11-13T09:15:58Z</time>
      </trkpt>
      <trkpt lat="36.6894130781" lon="-2.7393963933">
        <ele>6.39</ele>
        <time>2018-11-13T09:16:05Z</time>
      </trkpt>
      <trkpt lat="36.6893884353" lon="-2.7390083112">
        <ele>5.91</ele>
        <time>2018-11-13T09:16:13Z</time>
      </trkpt>
      <trkpt lat="36.6893584281" lon="-2.7383909840">
        <ele>6.39</ele>
        <time>2018-11-13T09:16:26Z</time>
      </trkpt>
      <trkpt lat="36.6893393174" lon="-2.7379998006">
        <ele>5.91</ele>
        <time>2018-11-13T09:16:34Z</time>
      </trkpt>
      <trkpt lat="36.6893298458" lon="-2.7374600060">
        <ele>5.91</ele>
        <time>2018-11-13T09:16:45Z</time>
      </trkpt>
      <trkpt lat="36.6892993357" lon="-2.7368578501">
        <ele>6.87</ele>
        <time>2018-11-13T09:16:57Z</time>
      </trkpt>
      <trkpt lat="36.6892928816" lon="-2.7364788204">
        <ele>7.35</ele>
        <time>2018-11-13T09:17:05Z</time>
      </trkpt>
      <trkpt lat="36.6892785486" lon="-2.7360493317">
        <ele>7.35</ele>
        <time>2018-11-13T09:17:14Z</time>
      </trkpt>
      <trkpt lat="36.6892659757" lon="-2.7356084436">
        <ele>8.31</ele>
        <time>2018-11-13T09:17:24Z</time>
      </trkpt>
      <trkpt lat="36.6892446857" lon="-2.7352488600">
        <ele>8.31</ele>
        <time>2018-11-13T09:17:33Z</time>
      </trkpt>
      <trkpt lat="36.6892323643" lon="-2.7349756099">
        <ele>8.31</ele>
        <time>2018-11-13T09:17:41Z</time>
      </trkpt>
      <trkpt lat="36.6892268322" lon="-2.7346232347">
        <ele>7.83</ele>
        <time>2018-11-13T09:17:51Z</time>
      </trkpt>
      <trkpt lat="36.6892238986" lon="-2.7345726918">
        <ele>7.83</ele>
        <time>2018-11-13T09:17:57Z</time>
      </trkpt>
      <trkpt lat="36.6892204620" lon="-2.7344353124">
        <ele>7.83</ele>
        <time>2018-11-13T09:18:03Z</time>
      </trkpt>
      <trkpt lat="36.6892008483" lon="-2.7341522556">
        <ele>8.31</ele>
        <time>2018-11-13T09:18:13Z</time>
      </trkpt>
      <trkpt lat="36.6891951486" lon="-2.7338790055">
        <ele>7.83</ele>
        <time>2018-11-13T09:18:20Z</time>
      </trkpt>
      <trkpt lat="36.6891821567" lon="-2.7334272210">
        <ele>7.35</ele>
        <time>2018-11-13T09:18:29Z</time>
      </trkpt>
      <trkpt lat="36.6891517304" lon="-2.7330170944">
        <ele>7.35</ele>
        <time>2018-11-13T09:18:37Z</time>
      </trkpt>
      <trkpt lat="36.6891548317" lon="-2.7327222191">
        <ele>6.87</ele>
        <time>2018-11-13T09:18:44Z</time>
      </trkpt>
      <trkpt lat="36.6891428456" lon="-2.7323695086">
        <ele>6.39</ele>
        <time>2018-11-13T09:18:51Z</time>
      </trkpt>
      <trkpt lat="36.6891248245" lon="-2.7319580410">
        <ele>6.39</ele>
        <time>2018-11-13T09:18:59Z</time>
      </trkpt>
      <trkpt lat="36.6890964098" lon="-2.7316090185">
        <ele>6.87</ele>
        <time>2018-11-13T09:19:06Z</time>
      </trkpt>
      <trkpt lat="36.6890874412" lon="-2.7312726527">
        <ele>6.87</ele>
        <time>2018-11-13T09:19:14Z</time>
      </trkpt>
      <trkpt lat="36.6890680790" lon="-2.7307739295">
        <ele>6.39</ele>
        <time>2018-11-13T09:19:22Z</time>
      </trkpt>
      <trkpt lat="36.6890385747" lon="-2.7302513178">
        <ele>6.39</ele>
        <time>2018-11-13T09:19:32Z</time>
      </trkpt>
      <trkpt lat="36.6890399158" lon="-2.7299432829">
        <ele>6.39</ele>
        <time>2018-11-13T09:19:39Z</time>
      </trkpt>
      <trkpt lat="36.6890683305" lon="-2.7295922488">
        <ele>6.39</ele>
        <time>2018-11-13T09:19:47Z</time>
      </trkpt>
      <trkpt lat="36.6891253274" lon="-2.7292176615">
        <ele>7.35</ele>
        <time>2018-11-13T09:19:56Z</time>
      </trkpt>
      <trkpt lat="36.6892130021" lon="-2.7286886796">
        <ele>7.83</ele>
        <time>2018-11-13T09:20:07Z</time>
      </trkpt>
      <trkpt lat="36.6892632935" lon="-2.7283282578">
        <ele>7.83</ele>
        <time>2018-11-13T09:20:15Z</time>
      </trkpt>
      <trkpt lat="36.6893565841" lon="-2.7279552631">
        <ele>7.35</ele>
        <time>2018-11-13T09:20:23Z</time>
      </trkpt>
      <trkpt lat="36.6894331947" lon="-2.7274264488">
        <ele>6.87</ele>
        <time>2018-11-13T09:20:33Z</time>
      </trkpt>
      <trkpt lat="36.6894717515" lon="-2.7270422224">
        <ele>6.39</ele>
        <time>2018-11-13T09:20:41Z</time>
      </trkpt>
      <trkpt lat="36.6894795466" lon="-2.7269902546">
        <ele>6.39</ele>
        <time>2018-11-13T09:20:42Z</time>
      </trkpt>
      <trkpt lat="36.6895124875" lon="-2.7268377878">
        <ele>6.39</ele>
        <time>2018-11-13T09:20:45Z</time>
      </trkpt>
      <trkpt lat="36.6895745136" lon="-2.7265378833">
        <ele>5.91</ele>
        <time>2018-11-13T09:20:52Z</time>
      </trkpt>
      <trkpt lat="36.6896564886" lon="-2.7261005994">
        <ele>5.91</ele>
        <time>2018-11-13T09:21:02Z</time>
      </trkpt>
      <trkpt lat="36.6896899324" lon="-2.7258728631">
        <ele>5.91</ele>
        <time>2018-11-13T09:21:09Z</time>
      </trkpt>
      <trkpt lat="36.6897658724" lon="-2.7255845256">
        <ele>5.91</ele>
        <time>2018-11-13T09:21:18Z</time>
      </trkpt>
      <trkpt lat="36.6898645274" lon="-2.7251833677">
        <ele>6.39</ele>
        <time>2018-11-13T09:21:29Z</time>
      </trkpt>
      <trkpt lat="36.6899438202" lon="-2.7248171624">
        <ele>6.39</ele>
        <time>2018-11-13T09:21:38Z</time>
      </trkpt>
      <trkpt lat="36.6899693012" lon="-2.7246197686">
        <ele>6.39</ele>
        <time>2018-11-13T09:21:44Z</time>
      </trkpt>
      <trkpt lat="36.6900525335" lon="-2.7243733406">
        <ele>5.91</ele>
        <time>2018-11-13T09:21:52Z</time>
      </trkpt>
      <trkpt lat="36.6901066806" lon="-2.7241003420">
        <ele>5.91</ele>
        <time>2018-11-13T09:22:00Z</time>
      </trkpt>
      <trkpt lat="36.6901824530" lon="-2.7237643953">
        <ele>5.91</ele>
        <time>2018-11-13T09:22:07Z</time>
      </trkpt>
      <trkpt lat="36.6902473290" lon="-2.7233762294">
        <ele>5.91</ele>
        <time>2018-11-13T09:22:16Z</time>
      </trkpt>
      <trkpt lat="36.6903159767" lon="-2.7230179030">
        <ele>5.91</ele>
        <time>2018-11-13T09:22:24Z</time>
      </trkpt>
      <trkpt lat="36.6904348321" lon="-2.7225435711">
        <ele>4.94</ele>
        <time>2018-11-13T09:22:34Z</time>
      </trkpt>
      <trkpt lat="36.6904914938" lon="-2.7223201096">
        <ele>4.94</ele>
        <time>2018-11-13T09:22:40Z</time>
      </trkpt>
      <trkpt lat="36.6906026378" lon="-2.7219303511">
        <ele>4.94</ele>
        <time>2018-11-13T09:22:51Z</time>
      </trkpt>
      <trkpt lat="36.6906936653" lon="-2.7215060592">
        <ele>4.94</ele>
        <time>2018-11-13T09:23:02Z</time>
      </trkpt>
      <trkpt lat="36.6906940844" lon="-2.7213672549">
        <ele>4.94</ele>
        <time>2018-11-13T09:23:07Z</time>
      </trkpt>
      <trkpt lat="36.6906955931" lon="-2.7213698532">
        <ele>4.94</ele>
        <time>2018-11-13T09:23:13Z</time>
      </trkpt>
      <trkpt lat="36.6906881332" lon="-2.7213754691">
        <ele>5.42</ele>
        <time>2018-11-13T09:23:31Z</time>
      </trkpt>
      <trkpt lat="36.6906879656" lon="-2.7213721164">
        <ele>4.94</ele>
        <time>2018-11-13T09:23:54Z</time>
      </trkpt>
      <trkpt lat="36.6906977724" lon="-2.7213632315">
        <ele>5.42</ele>
        <time>2018-11-13T09:24:01Z</time>
      </trkpt>
      <trkpt lat="36.6907007899" lon="-2.7213574480">
        <ele>5.42</ele>
        <time>2018-11-13T09:24:02Z</time>
      </trkpt>
      <trkpt lat="36.6907384247" lon="-2.7212458849">
        <ele>5.42</ele>
        <time>2018-11-13T09:24:07Z</time>
      </trkpt>
      <trkpt lat="36.6908020433" lon="-2.7209883090">
        <ele>4.94</ele>
        <time>2018-11-13T09:24:15Z</time>
      </trkpt>
      <trkpt lat="36.6908834316" lon="-2.7207324933">
        <ele>4.46</ele>
        <time>2018-11-13T09:24:23Z</time>
      </trkpt>
      <trkpt lat="36.6909494810" lon="-2.7203851473">
        <ele>4.94</ele>
        <time>2018-11-13T09:24:31Z</time>
      </trkpt>
      <trkpt lat="36.6910325456" lon="-2.7199100610">
        <ele>5.42</ele>
        <time>2018-11-13T09:24:41Z</time>
      </trkpt>
      <trkpt lat="36.6911079828" lon="-2.7195783053">
        <ele>5.91</ele>
        <time>2018-11-13T09:24:50Z</time>
      </trkpt>
      <trkpt lat="36.6911628842" lon="-2.7193549275">
        <ele>5.42</ele>
        <time>2018-11-13T09:24:56Z</time>
      </trkpt>
      <trkpt lat="36.6912312806" lon="-2.7189399395">
        <ele>5.42</ele>
        <time>2018-11-13T09:25:06Z</time>
      </trkpt>
      <trkpt lat="36.6912919655" lon="-2.7186614927">
        <ele>5.42</ele>
        <time>2018-11-13T09:25:13Z</time>
      </trkpt>
      <trkpt lat="36.6913244035" lon="-2.7185196709">
        <ele>4.94</ele>
        <time>2018-11-13T09:25:20Z</time>
      </trkpt>
      <trkpt lat="36.6913610324" lon="-2.7184661943">
        <ele>4.94</ele>
        <time>2018-11-13T09:25:28Z</time>
      </trkpt>
      <trkpt lat="36.6913724318" lon="-2.7184589021">
        <ele>5.42</ele>
        <time>2018-11-13T09:25:34Z</time>
      </trkpt>
      <trkpt lat="36.6913639661" lon="-2.7184335887">
        <ele>6.39</ele>
        <time>2018-11-13T09:25:40Z</time>
      </trkpt>
      <trkpt lat="36.6913612001" lon="-2.7184169088">
        <ele>6.39</ele>
        <time>2018-11-13T09:25:41Z</time>
      </trkpt>
      <trkpt lat="36.6913569253" lon="-2.7183957864">
        <ele>6.39</ele>
        <time>2018-11-13T09:25:42Z</time>
      </trkpt>
      <trkpt lat="36.6913517285" lon="-2.7183698025">
        <ele>6.39</ele>
        <time>2018-11-13T09:25:43Z</time>
      </trkpt>
      <trkpt lat="36.6913501360" lon="-2.7183413878">
        <ele>6.87</ele>
        <time>2018-11-13T09:25:44Z</time>
      </trkpt>
      <trkpt lat="36.6913521476" lon="-2.7183131408">
        <ele>6.87</ele>
        <time>2018-11-13T09:25:45Z</time>
      </trkpt>
      <trkpt lat="36.6913556680" lon="-2.7182844747">
        <ele>6.87</ele>
        <time>2018-11-13T09:25:46Z</time>
      </trkpt>
      <trkpt lat="36.6913627088" lon="-2.7182551380">
        <ele>6.87</ele>
        <time>2018-11-13T09:25:47Z</time>
      </trkpt>
      <trkpt lat="36.6913711745" lon="-2.7182254661">
        <ele>6.87</ele>
        <time>2018-11-13T09:25:48Z</time>
      </trkpt>
      <trkpt lat="36.6913783830" lon="-2.7181941178">
        <ele>6.87</ele>
        <time>2018-11-13T09:25:49Z</time>
      </trkpt>
      <trkpt lat="36.6914634593" lon="-2.7179118153">
        <ele>6.87</ele>
        <time>2018-11-13T09:25:57Z</time>
      </trkpt>
      <trkpt lat="36.6915382259" lon="-2.7175246552">
        <ele>6.87</ele>
        <time>2018-11-13T09:26:07Z</time>
      </trkpt>
      <trkpt lat="36.6916080471" lon="-2.7171969227">
        <ele>6.87</ele>
        <time>2018-11-13T09:26:16Z</time>
      </trkpt>
      <trkpt lat="36.6916790418" lon="-2.7167645842">
        <ele>6.87</ele>
        <time>2018-11-13T09:26:27Z</time>
      </trkpt>
      <trkpt lat="36.6917465162" lon="-2.7163431421">
        <ele>6.87</ele>
        <time>2018-11-13T09:26:36Z</time>
      </trkpt>
      <trkpt lat="36.6918056086" lon="-2.7160145715">
        <ele>6.87</ele>
        <time>2018-11-13T09:26:44Z</time>
      </trkpt>
      <trkpt lat="36.6918565705" lon="-2.7157051954">
        <ele>7.35</ele>
        <time>2018-11-13T09:26:52Z</time>
      </trkpt>
      <trkpt lat="36.6919379588" lon="-2.7153054625">
        <ele>7.83</ele>
        <time>2018-11-13T09:27:01Z</time>
      </trkpt>
      <trkpt lat="36.6920315847" lon="-2.7148292027">
        <ele>7.83</ele>
        <time>2018-11-13T09:27:11Z</time>
      </trkpt>
      <trkpt lat="36.6921284795" lon="-2.7144078445">
        <ele>7.83</ele>
        <time>2018-11-13T09:27:20Z</time>
      </trkpt>
      <trkpt lat="36.6922782641" lon="-2.7138462570">
        <ele>7.83</ele>
        <time>2018-11-13T09:27:31Z</time>
      </trkpt>
      <trkpt lat="36.6923700459" lon="-2.7134812251">
        <ele>7.83</ele>
        <time>2018-11-13T09:27:39Z</time>
      </trkpt>
      <trkpt lat="36.6924438905" lon="-2.7131904569">
        <ele>7.83</ele>
        <time>2018-11-13T09:27:46Z</time>
      </trkpt>
      <trkpt lat="36.6925702896" lon="-2.7126389276">
        <ele>7.35</ele>
        <time>2018-11-13T09:27:57Z</time>
      </trkpt>
      <trkpt lat="36.6926719621" lon="-2.7122896537">
        <ele>7.35</ele>
        <time>2018-11-13T09:28:05Z</time>
      </trkpt>
      <trkpt lat="36.6927739698" lon="-2.7120230254">
        <ele>7.35</ele>
        <time>2018-11-13T09:28:12Z</time>
      </trkpt>
      <trkpt lat="36.6928247642" lon="-2.7118420601">
        <ele>7.35</ele>
        <time>2018-11-13T09:28:19Z</time>
      </trkpt>
      <trkpt lat="36.6928789113" lon="-2.7116630226">
        <ele>7.83</ele>
        <time>2018-11-13T09:28:27Z</time>
      </trkpt>
      <trkpt lat="36.6929212399" lon="-2.7115279064">
        <ele>7.83</ele>
        <time>2018-11-13T09:28:34Z</time>
      </trkpt>
      <trkpt lat="36.6929727886" lon="-2.7113300096">
        <ele>8.31</ele>
        <time>2018-11-13T09:28:42Z</time>
      </trkpt>
      <trkpt lat="36.6930210683" lon="-2.7110646386">
        <ele>8.31</ele>
        <time>2018-11-13T09:28:48Z</time>
      </trkpt>
      <trkpt lat="36.6931278538" lon="-2.7107035462">
        <ele>8.31</ele>
        <time>2018-11-13T09:28:56Z</time>
      </trkpt>
      <trkpt lat="36.6932555102" lon="-2.7102612332">
        <ele>8.31</ele>
        <time>2018-11-13T09:29:05Z</time>
      </trkpt>
      <trkpt lat="36.6933581047" lon="-2.7098946925">
        <ele>7.83</ele>
        <time>2018-11-13T09:29:13Z</time>
      </trkpt>
      <trkpt lat="36.6934325360" lon="-2.7094907686">
        <ele>7.83</ele>
        <time>2018-11-13T09:29:22Z</time>
      </trkpt>
      <trkpt lat="36.6935309395" lon="-2.7092792094">
        <ele>8.79</ele>
        <time>2018-11-13T09:29:28Z</time>
      </trkpt>
      <trkpt lat="36.6935983300" lon="-2.7090978250">
        <ele>8.79</ele>
        <time>2018-11-13T09:29:32Z</time>
      </trkpt>
      <trkpt lat="36.6938172653" lon="-2.7086399216">
        <ele>8.31</ele>
        <time>2018-11-13T09:29:41Z</time>
      </trkpt>
      <trkpt lat="36.6939986497" lon="-2.7082448825">
        <ele>7.83</ele>
        <time>2018-11-13T09:29:49Z</time>
      </trkpt>
      <trkpt lat="36.6942343488" lon="-2.7077590674">
        <ele>7.83</ele>
        <time>2018-11-13T09:29:58Z</time>
      </trkpt>
      <trkpt lat="36.6945028212" lon="-2.7071828954">
        <ele>7.35</ele>
        <time>2018-11-13T09:30:08Z</time>
      </trkpt>
      <trkpt lat="36.6948297992" lon="-2.7064963337">
        <ele>6.39</ele>
        <time>2018-11-13T09:30:19Z</time>
      </trkpt>
      <trkpt lat="36.6951552685" lon="-2.7057947684">
        <ele>6.39</ele>
        <time>2018-11-13T09:30:30Z</time>
      </trkpt>
      <trkpt lat="36.6954201367" lon="-2.7052207757">
        <ele>5.91</ele>
        <time>2018-11-13T09:30:39Z</time>
      </trkpt>
      <trkpt lat="36.6957919579" lon="-2.7045661490">
        <ele>5.91</ele>
        <time>2018-11-13T09:30:50Z</time>
      </trkpt>
      <trkpt lat="36.6961292457" lon="-2.7041537594">
        <ele>5.42</ele>
        <time>2018-11-13T09:30:59Z</time>
      </trkpt>
      <trkpt lat="36.6965299845" lon="-2.7036976162">
        <ele>5.42</ele>
        <time>2018-11-13T09:31:09Z</time>
      </trkpt>
      <trkpt lat="36.6969222575" lon="-2.7032266371">
        <ele>5.42</ele>
        <time>2018-11-13T09:31:19Z</time>
      </trkpt>
      <trkpt lat="36.6969654243" lon="-2.7031733282">
        <ele>5.91</ele>
        <time>2018-11-13T09:31:20Z</time>
      </trkpt>
      <trkpt lat="36.6970753949" lon="-2.7030197717">
        <ele>5.91</ele>
        <time>2018-11-13T09:31:23Z</time>
      </trkpt>
      <trkpt lat="36.6971059050" lon="-2.7029642835">
        <ele>5.91</ele>
        <time>2018-11-13T09:31:24Z</time>
      </trkpt>
      <trkpt lat="36.6973700188" lon="-2.7023493871">
        <ele>6.39</ele>
        <time>2018-11-13T09:31:34Z</time>
      </trkpt>
      <trkpt lat="36.6975979228" lon="-2.7017985284">
        <ele>6.39</ele>
        <time>2018-11-13T09:31:43Z</time>
      </trkpt>
      <trkpt lat="36.6978828236" lon="-2.7011133078">
        <ele>6.39</ele>
        <time>2018-11-13T09:31:54Z</time>
      </trkpt>
      <trkpt lat="36.6981155891" lon="-2.7005509660">
        <ele>5.91</ele>
        <time>2018-11-13T09:32:03Z</time>
      </trkpt>
      <trkpt lat="36.6984183434" lon="-2.6998351514">
        <ele>5.42</ele>
        <time>2018-11-13T09:32:14Z</time>
      </trkpt>
      <trkpt lat="36.6987501830" lon="-2.6990433969">
        <ele>6.39</ele>
        <time>2018-11-13T09:32:26Z</time>
      </trkpt>
      <trkpt lat="36.6990284622" lon="-2.6983841602">
        <ele>6.39</ele>
        <time>2018-11-13T09:32:36Z</time>
      </trkpt>
      <trkpt lat="36.6993264388" lon="-2.6976779010">
        <ele>5.91</ele>
        <time>2018-11-13T09:32:47Z</time>
      </trkpt>
      <trkpt lat="36.6995376628" lon="-2.6971308142">
        <ele>6.39</ele>
        <time>2018-11-13T09:32:56Z</time>
      </trkpt>
      <trkpt lat="36.6998482961" lon="-2.6964028459">
        <ele>6.39</ele>
        <time>2018-11-13T09:33:07Z</time>
      </trkpt>
      <trkpt lat="36.7000822350" lon="-2.6958275959">
        <ele>6.87</ele>
        <time>2018-11-13T09:33:15Z</time>
      </trkpt>
      <trkpt lat="36.7004020885" lon="-2.6950729731">
        <ele>5.91</ele>
        <time>2018-11-13T09:33:25Z</time>
      </trkpt>
      <trkpt lat="36.7007099558" lon="-2.6943485253">
        <ele>5.91</ele>
        <time>2018-11-13T09:33:35Z</time>
      </trkpt>
      <trkpt lat="36.7010365147" lon="-2.6935671642">
        <ele>5.91</ele>
        <time>2018-11-13T09:33:46Z</time>
      </trkpt>
      <trkpt lat="36.7013467290" lon="-2.6928389445">
        <ele>5.91</ele>
        <time>2018-11-13T09:33:57Z</time>
      </trkpt>
      <trkpt lat="36.7016466334" lon="-2.6921069529">
        <ele>5.42</ele>
        <time>2018-11-13T09:34:08Z</time>
      </trkpt>
      <trkpt lat="36.7019344680" lon="-2.6914204750">
        <ele>5.42</ele>
        <time>2018-11-13T09:34:18Z</time>
      </trkpt>
      <trkpt lat="36.7022601888" lon="-2.6906441431">
        <ele>5.42</ele>
        <time>2018-11-13T09:34:29Z</time>
      </trkpt>
      <trkpt lat="36.7024908587" lon="-2.6901101321">
        <ele>4.94</ele>
        <time>2018-11-13T09:34:38Z</time>
      </trkpt>
      <trkpt lat="36.7027563974" lon="-2.6894535776">
        <ele>4.94</ele>
        <time>2018-11-13T09:34:48Z</time>
      </trkpt>
      <trkpt lat="36.7029865645" lon="-2.6889111008">
        <ele>4.46</ele>
        <time>2018-11-13T09:34:56Z</time>
      </trkpt>
      <trkpt lat="36.7033073399" lon="-2.6881262194">
        <ele>4.46</ele>
        <time>2018-11-13T09:35:08Z</time>
      </trkpt>
      <trkpt lat="36.7036232539" lon="-2.6873686630">
        <ele>4.94</ele>
        <time>2018-11-13T09:35:19Z</time>
      </trkpt>
      <trkpt lat="36.7038413510" lon="-2.6868437883">
        <ele>5.42</ele>
        <time>2018-11-13T09:35:27Z</time>
      </trkpt>
      <trkpt lat="36.7040867731" lon="-2.6862514392">
        <ele>5.42</ele>
        <time>2018-11-13T09:35:36Z</time>
      </trkpt>
      <trkpt lat="36.7043740209" lon="-2.6855808031">
        <ele>5.42</ele>
        <time>2018-11-13T09:35:46Z</time>
      </trkpt>
      <trkpt lat="36.7046491988" lon="-2.6849177107">
        <ele>5.42</ele>
        <time>2018-11-13T09:35:56Z</time>
      </trkpt>
      <trkpt lat="36.7049141508" lon="-2.6842818595">
        <ele>4.94</ele>
        <time>2018-11-13T09:36:06Z</time>
      </trkpt>
      <trkpt lat="36.7051730677" lon="-2.6836612634">
        <ele>4.94</ele>
        <time>2018-11-13T09:36:15Z</time>
      </trkpt>
      <trkpt lat="36.7055405304" lon="-2.6827848516">
        <ele>4.94</ele>
        <time>2018-11-13T09:36:28Z</time>
      </trkpt>
      <trkpt lat="36.7058022134" lon="-2.6821521018">
        <ele>5.42</ele>
        <time>2018-11-13T09:36:37Z</time>
      </trkpt>
      <trkpt lat="36.7060848512" lon="-2.6814871654">
        <ele>5.91</ele>
        <time>2018-11-13T09:36:47Z</time>
      </trkpt>
      <trkpt lat="36.7063234001" lon="-2.6809100714">
        <ele>5.42</ele>
        <time>2018-11-13T09:36:56Z</time>
      </trkpt>
      <trkpt lat="36.7065312713" lon="-2.6804254297">
        <ele>5.42</ele>
        <time>2018-11-13T09:37:04Z</time>
      </trkpt>
      <trkpt lat="36.7067350354" lon="-2.6799273770">
        <ele>4.94</ele>
        <time>2018-11-13T09:37:12Z</time>
      </trkpt>
      <trkpt lat="36.7069688067" lon="-2.6793621853">
        <ele>3.98</ele>
        <time>2018-11-13T09:37:21Z</time>
      </trkpt>
      <trkpt lat="36.7071520351" lon="-2.6789077185">
        <ele>3.98</ele>
        <time>2018-11-13T09:37:29Z</time>
      </trkpt>
      <trkpt lat="36.7074555438" lon="-2.6781914011">
        <ele>4.46</ele>
        <time>2018-11-13T09:37:40Z</time>
      </trkpt>
      <trkpt lat="36.7077449709" lon="-2.6774938591">
        <ele>4.94</ele>
        <time>2018-11-13T09:37:51Z</time>
      </trkpt>
      <trkpt lat="36.7080593761" lon="-2.6767258253">
        <ele>5.42</ele>
        <time>2018-11-13T09:38:03Z</time>
      </trkpt>
      <trkpt lat="36.7083085701" lon="-2.6761320513">
        <ele>5.42</ele>
        <time>2018-11-13T09:38:12Z</time>
      </trkpt>
      <trkpt lat="36.7085702531" lon="-2.6755054202">
        <ele>5.42</ele>
        <time>2018-11-13T09:38:22Z</time>
      </trkpt>
      <trkpt lat="36.7088171840" lon="-2.6749095507">
        <ele>4.94</ele>
        <time>2018-11-13T09:38:32Z</time>
      </trkpt>
      <trkpt lat="36.7090223730" lon="-2.6744042896">
        <ele>5.42</ele>
        <time>2018-11-13T09:38:40Z</time>
      </trkpt>
      <trkpt lat="36.7093197629" lon="-2.6736772433">
        <ele>6.39</ele>
        <time>2018-11-13T09:38:51Z</time>
      </trkpt>
      <trkpt lat="36.7095498461" lon="-2.6731221098">
        <ele>6.87</ele>
        <time>2018-11-13T09:39:00Z</time>
      </trkpt>
      <trkpt lat="36.7098432127" lon="-2.6724048704">
        <ele>6.87</ele>
        <time>2018-11-13T09:39:11Z</time>
      </trkpt>
      <trkpt lat="36.7100927420" lon="-2.6717951708">
        <ele>6.87</ele>
        <time>2018-11-13T09:39:20Z</time>
      </trkpt>
      <trkpt lat="36.7103712726" lon="-2.6711060945">
        <ele>6.39</ele>
        <time>2018-11-13T09:39:30Z</time>
      </trkpt>
      <trkpt lat="36.7105467897" lon="-2.6706734207">
        <ele>6.39</ele>
        <time>2018-11-13T09:39:37Z</time>
      </trkpt>
      <trkpt lat="36.7107630428" lon="-2.6701327879">
        <ele>6.39</ele>
        <time>2018-11-13T09:39:46Z</time>
      </trkpt>
      <trkpt lat="36.7108768690" lon="-2.6698104199">
        <ele>6.87</ele>
        <time>2018-11-13T09:39:53Z</time>
      </trkpt>
      <trkpt lat="36.7108723428" lon="-2.6697622240">
        <ele>6.39</ele>
        <time>2018-11-13T09:39:54Z</time>
      </trkpt>
      <trkpt lat="36.7108632065" lon="-2.6696593780">
        <ele>5.91</ele>
        <time>2018-11-13T09:39:56Z</time>
      </trkpt>
      <trkpt lat="36.7108250689" lon="-2.6694325637">
        <ele>4.94</ele>
        <time>2018-11-13T09:40:01Z</time>
      </trkpt>
      <trkpt lat="36.7107994203" lon="-2.6694089267">
        <ele>4.94</ele>
        <time>2018-11-13T09:40:02Z</time>
      </trkpt>
      <trkpt lat="36.7107693292" lon="-2.6693898160">
        <ele>4.94</ele>
        <time>2018-11-13T09:40:03Z</time>
      </trkpt>
      <trkpt lat="36.7107369751" lon="-2.6693768241">
        <ele>4.94</ele>
        <time>2018-11-13T09:40:04Z</time>
      </trkpt>
      <trkpt lat="36.7107061297" lon="-2.6693659276">
        <ele>4.94</ele>
        <time>2018-11-13T09:40:05Z</time>
      </trkpt>
      <trkpt lat="36.7106749490" lon="-2.6693499181">
        <ele>4.94</ele>
        <time>2018-11-13T09:40:06Z</time>
      </trkpt>
      <trkpt lat="36.7106441874" lon="-2.6693304721">
        <ele>4.94</ele>
        <time>2018-11-13T09:40:07Z</time>
      </trkpt>
      <trkpt lat="36.7105245776" lon="-2.6692743972">
        <ele>4.46</ele>
        <time>2018-11-13T09:40:12Z</time>
      </trkpt>
      <trkpt lat="36.7104904633" lon="-2.6692570467">
        <ele>4.46</ele>
        <time>2018-11-13T09:40:15Z</time>
      </trkpt>
      <trkpt lat="36.7104766332" lon="-2.6692552026">
        <ele>3.98</ele>
        <time>2018-11-13T09:40:16Z</time>
      </trkpt>
      <trkpt lat="36.7104727775" lon="-2.6692588907">
        <ele>4.46</ele>
        <time>2018-11-13T09:40:22Z</time>
      </trkpt>
      <trkpt lat="36.7104856018" lon="-2.6692655124">
        <ele>4.94</ele>
        <time>2018-11-13T09:40:31Z</time>
      </trkpt>
      <trkpt lat="36.7104973365" lon="-2.6692610700">
        <ele>4.94</ele>
        <time>2018-11-13T09:40:37Z</time>
      </trkpt>
      <trkpt lat="36.7106129229" lon="-2.6693091821">
        <ele>5.42</ele>
        <time>2018-11-13T09:40:43Z</time>
      </trkpt>
      <trkpt lat="36.7107793037" lon="-2.6693958510">
        <ele>5.42</ele>
        <time>2018-11-13T09:40:50Z</time>
      </trkpt>
      <trkpt lat="36.7109843250" lon="-2.6694663428">
        <ele>6.39</ele>
        <time>2018-11-13T09:40:56Z</time>
      </trkpt>
      <trkpt lat="36.7110751849" lon="-2.6694029756">
        <ele>6.87</ele>
        <time>2018-11-13T09:40:59Z</time>
      </trkpt>
      <trkpt lat="36.7110859975" lon="-2.6693713758">
        <ele>6.87</ele>
        <time>2018-11-13T09:41:00Z</time>
      </trkpt>
      <trkpt lat="36.7110978998" lon="-2.6693379320">
        <ele>6.87</ele>
        <time>2018-11-13T09:41:01Z</time>
      </trkpt>
      <trkpt lat="36.7111088801" lon="-2.6693033986">
        <ele>7.35</ele>
        <time>2018-11-13T09:41:02Z</time>
      </trkpt>
      <trkpt lat="36.7111191899" lon="-2.6692717988">
        <ele>7.35</ele>
        <time>2018-11-13T09:41:03Z</time>
      </trkpt>
      <trkpt lat="36.7111267336" lon="-2.6692447253">
        <ele>7.35</ele>
        <time>2018-11-13T09:41:04Z</time>
      </trkpt>
      <trkpt lat="36.7111320980" lon="-2.6692386065">
        <ele>7.35</ele>
        <time>2018-11-13T09:41:08Z</time>
      </trkpt>
      <trkpt lat="36.7111260630" lon="-2.6692368463">
        <ele>6.87</ele>
        <time>2018-11-13T09:41:23Z</time>
      </trkpt>
      <trkpt lat="36.7111366242" lon="-2.6692240220">
        <ele>7.35</ele>
        <time>2018-11-13T09:41:35Z</time>
      </trkpt>
      <trkpt lat="36.7111465149" lon="-2.6692104433">
        <ele>7.35</ele>
        <time>2018-11-13T09:41:36Z</time>
      </trkpt>
      <trkpt lat="36.7111538071" lon="-2.6691966131">
        <ele>7.35</ele>
        <time>2018-11-13T09:41:37Z</time>
      </trkpt>
      <trkpt lat="36.7111608479" lon="-2.6691837888">
        <ele>7.35</ele>
        <time>2018-11-13T09:41:38Z</time>
      </trkpt>
      <trkpt lat="36.7111693136" lon="-2.6691694558">
        <ele>7.35</ele>
        <time>2018-11-13T09:41:39Z</time>
      </trkpt>
      <trkpt lat="36.7111778632" lon="-2.6691456512">
        <ele>7.35</ele>
        <time>2018-11-13T09:41:40Z</time>
      </trkpt>
      <trkpt lat="36.7111906875" lon="-2.6691145543">
        <ele>7.35</ele>
        <time>2018-11-13T09:41:41Z</time>
      </trkpt>
      <trkpt lat="36.7113086209" lon="-2.6688201819">
        <ele>7.35</ele>
        <time>2018-11-13T09:41:48Z</time>
      </trkpt>
      <trkpt lat="36.7115130555" lon="-2.6683114003">
        <ele>7.83</ele>
        <time>2018-11-13T09:41:58Z</time>
      </trkpt>
      <trkpt lat="36.7117132153" lon="-2.6678040437">
        <ele>7.35</ele>
        <time>2018-11-13T09:42:08Z</time>
      </trkpt>
      <trkpt lat="36.7119377665" lon="-2.6672687754">
        <ele>7.83</ele>
        <time>2018-11-13T09:42:18Z</time>
      </trkpt>
      <trkpt lat="36.7121111881" lon="-2.6668401249">
        <ele>7.83</ele>
        <time>2018-11-13T09:42:27Z</time>
      </trkpt>
      <trkpt lat="36.7122102622" lon="-2.6665860694">
        <ele>7.35</ele>
        <time>2018-11-13T09:42:33Z</time>
      </trkpt>
      <trkpt lat="36.7122114357" lon="-2.6665752567">
        <ele>7.35</ele>
        <time>2018-11-13T09:42:38Z</time>
      </trkpt>
      <trkpt lat="36.7122111842" lon="-2.6665901765">
        <ele>7.83</ele>
        <time>2018-11-13T09:42:52Z</time>
      </trkpt>
      <trkpt lat="36.7122076638" lon="-2.6665775198">
        <ele>8.31</ele>
        <time>2018-11-13T09:43:16Z</time>
      </trkpt>
      <trkpt lat="36.7122146208" lon="-2.6665739156">
        <ele>7.83</ele>
        <time>2018-11-13T09:43:30Z</time>
      </trkpt>
      <trkpt lat="36.7122212425" lon="-2.6665649470">
        <ele>7.35</ele>
        <time>2018-11-13T09:43:37Z</time>
      </trkpt>
      <trkpt lat="36.7122305464" lon="-2.6665465906">
        <ele>7.35</ele>
        <time>2018-11-13T09:43:38Z</time>
      </trkpt>
      <trkpt lat="36.7123155389" lon="-2.6663341932">
        <ele>7.83</ele>
        <time>2018-11-13T09:43:44Z</time>
      </trkpt>
      <trkpt lat="36.7124644015" lon="-2.6659707539">
        <ele>7.83</ele>
        <time>2018-11-13T09:43:51Z</time>
      </trkpt>
      <trkpt lat="36.7126161139" lon="-2.6655986812">
        <ele>7.83</ele>
        <time>2018-11-13T09:43:59Z</time>
      </trkpt>
      <trkpt lat="36.7127995938" lon="-2.6651517581">
        <ele>7.83</ele>
        <time>2018-11-13T09:44:08Z</time>
      </trkpt>
      <trkpt lat="36.7130046990" lon="-2.6646534540">
        <ele>6.87</ele>
        <time>2018-11-13T09:44:19Z</time>
      </trkpt>
      <trkpt lat="36.7131932918" lon="-2.6641912758">
        <ele>7.35</ele>
        <time>2018-11-13T09:44:28Z</time>
      </trkpt>
      <trkpt lat="36.7134719901" lon="-2.6635127608">
        <ele>6.87</ele>
        <time>2018-11-13T09:44:40Z</time>
      </trkpt>
      <trkpt lat="36.7136636842" lon="-2.6630447153">
        <ele>6.87</ele>
        <time>2018-11-13T09:44:48Z</time>
      </trkpt>
      <trkpt lat="36.7139160633" lon="-2.6625328325">
        <ele>6.87</ele>
        <time>2018-11-13T09:44:56Z</time>
      </trkpt>
      <trkpt lat="36.7143276986" lon="-2.6619835664">
        <ele>6.39</ele>
        <time>2018-11-13T09:45:05Z</time>
      </trkpt>
      <trkpt lat="36.7149463668" lon="-2.6612542570">
        <ele>5.91</ele>
        <time>2018-11-13T09:45:17Z</time>
      </trkpt>
      <trkpt lat="36.7156187631" lon="-2.6604485046">
        <ele>5.91</ele>
        <time>2018-11-13T09:45:30Z</time>
      </trkpt>
      <trkpt lat="36.7162039038" lon="-2.6597429998">
        <ele>5.42</ele>
        <time>2018-11-13T09:45:41Z</time>
      </trkpt>
      <trkpt lat="36.7167138588" lon="-2.6591369044">
        <ele>5.42</ele>
        <time>2018-11-13T09:45:51Z</time>
      </trkpt>
      <trkpt lat="36.7172552459" lon="-2.6584855467">
        <ele>5.91</ele>
        <time>2018-11-13T09:46:02Z</time>
      </trkpt>
      <trkpt lat="36.7178863194" lon="-2.6577321813">
        <ele>5.91</ele>
        <time>2018-11-13T09:46:15Z</time>
      </trkpt>
      <trkpt lat="36.7182580568" lon="-2.6572999265">
        <ele>6.39</ele>
        <time>2018-11-13T09:46:23Z</time>
      </trkpt>
      <trkpt lat="36.7186164670" lon="-2.6569993515">
        <ele>7.83</ele>
        <time>2018-11-13T09:46:31Z</time>
      </trkpt>
      <trkpt lat="36.7189804092" lon="-2.6567961741">
        <ele>8.79</ele>
        <time>2018-11-13T09:46:39Z</time>
      </trkpt>
      <trkpt lat="36.7193606962" lon="-2.6565936673">
        <ele>9.27</ele>
        <time>2018-11-13T09:46:48Z</time>
      </trkpt>
      <trkpt lat="36.7196479440" lon="-2.6564400271">
        <ele>10.23</ele>
        <time>2018-11-13T09:46:55Z</time>
      </trkpt>
      <trkpt lat="36.7201028299" lon="-2.6561892405">
        <ele>11.19</ele>
        <time>2018-11-13T09:47:06Z</time>
      </trkpt>
      <trkpt lat="36.7203335837" lon="-2.6560595725">
        <ele>11.67</ele>
        <time>2018-11-13T09:47:12Z</time>
      </trkpt>
      <trkpt lat="36.7204886489" lon="-2.6559556369">
        <ele>12.15</ele>
        <time>2018-11-13T09:47:16Z</time>
      </trkpt>
      <trkpt lat="36.7206817679" lon="-2.6557828858">
        <ele>12.63</ele>
        <time>2018-11-13T09:47:21Z</time>
      </trkpt>
      <trkpt lat="36.7210206483" lon="-2.6553988270">
        <ele>13.12</ele>
        <time>2018-11-13T09:47:30Z</time>
      </trkpt>
      <trkpt lat="36.7214381509" lon="-2.6548963320">
        <ele>13.12</ele>
        <time>2018-11-13T09:47:41Z</time>
      </trkpt>
      <trkpt lat="36.7217539810" lon="-2.6545168832">
        <ele>13.60</ele>
        <time>2018-11-13T09:47:51Z</time>
      </trkpt>
      <trkpt lat="36.7219476867" lon="-2.6542935055">
        <ele>13.60</ele>
        <time>2018-11-13T09:47:57Z</time>
      </trkpt>
      <trkpt lat="36.7223333381" lon="-2.6540205069">
        <ele>13.60</ele>
        <time>2018-11-13T09:48:07Z</time>
      </trkpt>
      <trkpt lat="36.7227007169" lon="-2.6538186707">
        <ele>13.60</ele>
        <time>2018-11-13T09:48:16Z</time>
      </trkpt>
      <trkpt lat="36.7230328918" lon="-2.6536366157">
        <ele>13.12</ele>
        <time>2018-11-13T09:48:24Z</time>
      </trkpt>
      <trkpt lat="36.7231178842" lon="-2.6535942871">
        <ele>13.12</ele>
        <time>2018-11-13T09:48:26Z</time>
      </trkpt>
      <trkpt lat="36.7235295195" lon="-2.6534755155">
        <ele>13.60</ele>
        <time>2018-11-13T09:48:35Z</time>
      </trkpt>
      <trkpt lat="36.7237148434" lon="-2.6534601767">
        <ele>13.60</ele>
        <time>2018-11-13T09:48:38Z</time>
      </trkpt>
      <trkpt lat="36.7242322583" lon="-2.6534533873">
        <ele>12.63</ele>
        <time>2018-11-13T09:48:45Z</time>
      </trkpt>
      <trkpt lat="36.7249421217" lon="-2.6534317620">
        <ele>11.67</ele>
        <time>2018-11-13T09:48:54Z</time>
      </trkpt>
      <trkpt lat="36.7255475465" lon="-2.6532159280">
        <ele>9.27</ele>
        <time>2018-11-13T09:49:02Z</time>
      </trkpt>
      <trkpt lat="36.7262250558" lon="-2.6529333740">
        <ele>7.35</ele>
        <time>2018-11-13T09:49:10Z</time>
      </trkpt>
      <trkpt lat="36.7270314787" lon="-2.6526049711">
        <ele>6.87</ele>
        <time>2018-11-13T09:49:20Z</time>
      </trkpt>
      <trkpt lat="36.7279602773" lon="-2.6522194874">
        <ele>6.87</ele>
        <time>2018-11-13T09:49:32Z</time>
      </trkpt>
      <trkpt lat="36.7283546459" lon="-2.6519655995">
        <ele>6.87</ele>
        <time>2018-11-13T09:49:38Z</time>
      </trkpt>
      <trkpt lat="36.7290267069" lon="-2.6513649523">
        <ele>6.39</ele>
        <time>2018-11-13T09:49:49Z</time>
      </trkpt>
      <trkpt lat="36.7295478098" lon="-2.6507416740">
        <ele>5.91</ele>
        <time>2018-11-13T09:49:59Z</time>
      </trkpt>
      <trkpt lat="36.7297664937" lon="-2.6502512489">
        <ele>5.91</ele>
        <time>2018-11-13T09:50:06Z</time>
      </trkpt>
      <trkpt lat="36.7300020251" lon="-2.6495752484">
        <ele>5.42</ele>
        <time>2018-11-13T09:50:16Z</time>
      </trkpt>
      <trkpt lat="36.7302906979" lon="-2.6487560011">
        <ele>6.39</ele>
        <time>2018-11-13T09:50:28Z</time>
      </trkpt>
      <trkpt lat="36.7305767722" lon="-2.6479548588">
        <ele>6.87</ele>
        <time>2018-11-13T09:50:40Z</time>
      </trkpt>
      <trkpt lat="36.7308170814" lon="-2.6472912636">
        <ele>7.83</ele>
        <time>2018-11-13T09:50:50Z</time>
      </trkpt>
      <trkpt lat="36.7311124597" lon="-2.6464688312">
        <ele>9.75</ele>
        <time>2018-11-13T09:51:03Z</time>
      </trkpt>
      <trkpt lat="36.7313408665" lon="-2.6457858738">
        <ele>10.23</ele>
        <time>2018-11-13T09:51:14Z</time>
      </trkpt>
      <trkpt lat="36.7313596420" lon="-2.6456405316">
        <ele>10.23</ele>
        <time>2018-11-13T09:51:16Z</time>
      </trkpt>
      <trkpt lat="36.7313607316" lon="-2.6455673575">
        <ele>10.23</ele>
        <time>2018-11-13T09:51:17Z</time>
      </trkpt>
      <trkpt lat="36.7312890664" lon="-2.6449972205">
        <ele>8.79</ele>
        <time>2018-11-13T09:51:24Z</time>
      </trkpt>
      <trkpt lat="36.7311256193" lon="-2.6441383269">
        <ele>7.83</ele>
        <time>2018-11-13T09:51:35Z</time>
      </trkpt>
      <trkpt lat="36.7309935205" lon="-2.6433863863">
        <ele>7.35</ele>
        <time>2018-11-13T09:51:45Z</time>
      </trkpt>
      <trkpt lat="36.7309288122" lon="-2.6425296720">
        <ele>7.35</ele>
        <time>2018-11-13T09:51:56Z</time>
      </trkpt>
      <trkpt lat="36.7308503576" lon="-2.6416722033">
        <ele>6.87</ele>
        <time>2018-11-13T09:52:07Z</time>
      </trkpt>
      <trkpt lat="36.7308350187" lon="-2.6415999513">
        <ele>6.87</ele>
        <time>2018-11-13T09:52:08Z</time>
      </trkpt>
      <trkpt lat="36.7308076937" lon="-2.6415312197">
        <ele>6.87</ele>
        <time>2018-11-13T09:52:09Z</time>
      </trkpt>
      <trkpt lat="36.7307717353" lon="-2.6414764859">
        <ele>6.87</ele>
        <time>2018-11-13T09:52:10Z</time>
      </trkpt>
      <trkpt lat="36.7306652013" lon="-2.6413156372">
        <ele>6.39</ele>
        <time>2018-11-13T09:52:13Z</time>
      </trkpt>
      <trkpt lat="36.7306372896" lon="-2.6412517671">
        <ele>6.39</ele>
        <time>2018-11-13T09:52:14Z</time>
      </trkpt>
      <trkpt lat="36.7306135688" lon="-2.6411824487">
        <ele>6.39</ele>
        <time>2018-11-13T09:52:15Z</time>
      </trkpt>
      <trkpt lat="36.7305990681" lon="-2.6411309838">
        <ele>6.39</ele>
        <time>2018-11-13T09:52:16Z</time>
      </trkpt>
      <trkpt lat="36.7305821367" lon="-2.6410657726">
        <ele>6.39</ele>
        <time>2018-11-13T09:52:17Z</time>
      </trkpt>
      <trkpt lat="36.7305581644" lon="-2.6409946941">
        <ele>6.39</ele>
        <time>2018-11-13T09:52:18Z</time>
      </trkpt>
      <trkpt lat="36.7303672247" lon="-2.6405858248">
        <ele>6.39</ele>
        <time>2018-11-13T09:52:26Z</time>
      </trkpt>
      <trkpt lat="36.7300527357" lon="-2.6401615329">
        <ele>6.39</ele>
        <time>2018-11-13T09:52:35Z</time>
      </trkpt>
      <trkpt lat="36.7297158670" lon="-2.6398576051">
        <ele>6.39</ele>
        <time>2018-11-13T09:52:44Z</time>
      </trkpt>
      <trkpt lat="36.7294196505" lon="-2.6396505721">
        <ele>5.91</ele>
        <time>2018-11-13T09:52:52Z</time>
      </trkpt>
      <trkpt lat="36.7291249428" lon="-2.6394996140">
        <ele>5.42</ele>
        <time>2018-11-13T09:53:00Z</time>
      </trkpt>
      <trkpt lat="36.7289954424" lon="-2.6394241769">
        <ele>4.94</ele>
        <time>2018-11-13T09:53:07Z</time>
      </trkpt>
      <trkpt lat="36.7287345137" lon="-2.6392877195">
        <ele>4.94</ele>
        <time>2018-11-13T09:53:15Z</time>
      </trkpt>
      <trkpt lat="36.7283313442" lon="-2.6390578039">
        <ele>6.39</ele>
        <time>2018-11-13T09:53:25Z</time>
      </trkpt>
      <trkpt lat="36.7278712615" lon="-2.6388068497">
        <ele>6.39</ele>
        <time>2018-11-13T09:53:35Z</time>
      </trkpt>
      <trkpt lat="36.7273642402" lon="-2.6384960487">
        <ele>5.91</ele>
        <time>2018-11-13T09:53:46Z</time>
      </trkpt>
      <trkpt lat="36.7270520981" lon="-2.6383232139">
        <ele>6.39</ele>
        <time>2018-11-13T09:53:54Z</time>
      </trkpt>
      <trkpt lat="36.7270259466" lon="-2.6383532211">
        <ele>6.39</ele>
        <time>2018-11-13T09:53:55Z</time>
      </trkpt>
      <trkpt lat="36.7270105239" lon="-2.6383912750">
        <ele>6.39</ele>
        <time>2018-11-13T09:53:56Z</time>
      </trkpt>
      <trkpt lat="36.7269953527" lon="-2.6384393871">
        <ele>6.39</ele>
        <time>2018-11-13T09:53:57Z</time>
      </trkpt>
      <trkpt lat="36.7269795947" lon="-2.6384845655">
        <ele>6.39</ele>
        <time>2018-11-13T09:53:58Z</time>
      </trkpt>
      <trkpt lat="36.7267711367" lon="-2.6389789302">
        <ele>6.87</ele>
        <time>2018-11-13T09:54:08Z</time>
      </trkpt>
      <trkpt lat="36.7266621720" lon="-2.6391905732">
        <ele>6.87</ele>
        <time>2018-11-13T09:54:13Z</time>
      </trkpt>
      <trkpt lat="36.7266354337" lon="-2.6392268669">
        <ele>6.87</ele>
        <time>2018-11-13T09:54:14Z</time>
      </trkpt>
      <trkpt lat="36.7263017502" lon="-2.6396388374">
        <ele>6.39</ele>
        <time>2018-11-13T09:54:24Z</time>
      </trkpt>
      <trkpt lat="36.7259882670" lon="-2.6400280930">
        <ele>7.35</ele>
        <time>2018-11-13T09:54:33Z</time>
      </trkpt>
      <trkpt lat="36.7256214749" lon="-2.6404896006">
        <ele>8.31</ele>
        <time>2018-11-13T09:54:43Z</time>
      </trkpt>
      <trkpt lat="36.7252715304" lon="-2.6409055106">
        <ele>8.31</ele>
        <time>2018-11-13T09:54:52Z</time>
      </trkpt>
      <trkpt lat="36.7252229154" lon="-2.6409316622">
        <ele>7.83</ele>
        <time>2018-11-13T09:54:53Z</time>
      </trkpt>
      <trkpt lat="36.7246826179" lon="-2.6411582250">
        <ele>6.87</ele>
        <time>2018-11-13T09:55:03Z</time>
      </trkpt>
      <trkpt lat="36.7240965553" lon="-2.6414049044">
        <ele>6.87</ele>
        <time>2018-11-13T09:55:14Z</time>
      </trkpt>
      <trkpt lat="36.7237461079" lon="-2.6415511686">
        <ele>6.87</ele>
        <time>2018-11-13T09:55:22Z</time>
      </trkpt>
      <trkpt lat="36.7235379014" lon="-2.6416589599">
        <ele>6.87</ele>
        <time>2018-11-13T09:55:29Z</time>
      </trkpt>
      <trkpt lat="36.7235272564" lon="-2.6416582055">
        <ele>6.39</ele>
        <time>2018-11-13T09:55:36Z</time>
      </trkpt>
      <trkpt lat="36.7235244904" lon="-2.6416603848">
        <ele>5.91</ele>
        <time>2018-11-13T09:55:52Z</time>
      </trkpt>
      <trkpt lat="36.7235218082" lon="-2.6416603010">
        <ele>6.87</ele>
        <time>2018-11-13T09:56:08Z</time>
      </trkpt>
      <trkpt lat="36.7234954052" lon="-2.6416639052">
        <ele>5.91</ele>
        <time>2018-11-13T09:56:20Z</time>
      </trkpt>
      <trkpt lat="36.7234821618" lon="-2.6416634023">
        <ele>5.91</ele>
        <time>2018-11-13T09:56:21Z</time>
      </trkpt>
      <trkpt lat="36.7234700080" lon="-2.6416644920">
        <ele>5.91</ele>
        <time>2018-11-13T09:56:22Z</time>
      </trkpt>
      <trkpt lat="36.7234475445" lon="-2.6416707784">
        <ele>5.42</ele>
        <time>2018-11-13T09:56:29Z</time>
      </trkpt>
      <trkpt lat="36.7233443633" lon="-2.6417063177">
        <ele>5.42</ele>
        <time>2018-11-13T09:56:34Z</time>
      </trkpt>
      <trkpt lat="36.7230872065" lon="-2.6418112591">
        <ele>5.91</ele>
        <time>2018-11-13T09:56:40Z</time>
      </trkpt>
      <trkpt lat="36.7226880603" lon="-2.6419801544">
        <ele>5.91</ele>
        <time>2018-11-13T09:56:48Z</time>
      </trkpt>
      <trkpt lat="36.7222914286" lon="-2.6421404164">
        <ele>5.42</ele>
        <time>2018-11-13T09:56:56Z</time>
      </trkpt>
      <trkpt lat="36.7218685616" lon="-2.6423226390">
        <ele>5.91</ele>
        <time>2018-11-13T09:57:05Z</time>
      </trkpt>
      <trkpt lat="36.7214359716" lon="-2.6425041072">
        <ele>6.39</ele>
        <time>2018-11-13T09:57:14Z</time>
      </trkpt>
      <trkpt lat="36.7208873760" lon="-2.6427351125">
        <ele>6.39</ele>
        <time>2018-11-13T09:57:25Z</time>
      </trkpt>
      <trkpt lat="36.7203882337" lon="-2.6429400500">
        <ele>6.87</ele>
        <time>2018-11-13T09:57:35Z</time>
      </trkpt>
      <trkpt lat="36.7200055160" lon="-2.6430647727">
        <ele>7.35</ele>
        <time>2018-11-13T09:57:44Z</time>
      </trkpt>
      <trkpt lat="36.7199637741" lon="-2.6430480927">
        <ele>7.35</ele>
        <time>2018-11-13T09:57:45Z</time>
      </trkpt>
      <trkpt lat="36.7199272290" lon="-2.6430205163">
        <ele>7.35</ele>
        <time>2018-11-13T09:57:46Z</time>
      </trkpt>
      <trkpt lat="36.7198943719" lon="-2.6429864019">
        <ele>7.83</ele>
        <time>2018-11-13T09:57:47Z</time>
      </trkpt>
      <trkpt lat="36.7198607605" lon="-2.6429465879">
        <ele>7.83</ele>
        <time>2018-11-13T09:57:48Z</time>
      </trkpt>
      <trkpt lat="36.7195784580" lon="-2.6425968949">
        <ele>8.31</ele>
        <time>2018-11-13T09:57:56Z</time>
      </trkpt>
      <trkpt lat="36.7191563454" lon="-2.6420851797">
        <ele>8.31</ele>
        <time>2018-11-13T09:58:07Z</time>
      </trkpt>
      <trkpt lat="36.7187782377" lon="-2.6416349877">
        <ele>8.79</ele>
        <time>2018-11-13T09:58:17Z</time>
      </trkpt>
      <trkpt lat="36.7183438037" lon="-2.6411065925">
        <ele>8.79</ele>
        <time>2018-11-13T09:58:28Z</time>
      </trkpt>
      <trkpt lat="36.7178700585" lon="-2.6405353658">
        <ele>8.31</ele>
        <time>2018-11-13T09:58:40Z</time>
      </trkpt>
      <trkpt lat="36.7174563278" lon="-2.6400154363">
        <ele>7.83</ele>
        <time>2018-11-13T09:58:51Z</time>
      </trkpt>
      <trkpt lat="36.7171410006" lon="-2.6396262646">
        <ele>7.83</ele>
        <time>2018-11-13T09:59:00Z</time>
      </trkpt>
      <trkpt lat="36.7168471310" lon="-2.6392643340">
        <ele>7.35</ele>
        <time>2018-11-13T09:59:09Z</time>
      </trkpt>
      <trkpt lat="36.7166222446" lon="-2.6389437262">
        <ele>7.35</ele>
        <time>2018-11-13T09:59:16Z</time>
      </trkpt>
      <trkpt lat="36.7165975180" lon="-2.6388847176">
        <ele>7.35</ele>
        <time>2018-11-13T09:59:17Z</time>
      </trkpt>
      <trkpt lat="36.7165848613" lon="-2.6388260443">
        <ele>7.35</ele>
        <time>2018-11-13T09:59:18Z</time>
      </trkpt>
      <trkpt lat="36.7165810894" lon="-2.6387608331">
        <ele>7.35</ele>
        <time>2018-11-13T09:59:19Z</time>
      </trkpt>
      <trkpt lat="36.7166543473" lon="-2.6385024190">
        <ele>7.35</ele>
        <time>2018-11-13T09:59:23Z</time>
      </trkpt>
      <trkpt lat="36.7167254258" lon="-2.6383845694">
        <ele>6.87</ele>
        <time>2018-11-13T09:59:25Z</time>
      </trkpt>
      <trkpt lat="36.7171871848" lon="-2.6377980877">
        <ele>6.87</ele>
        <time>2018-11-13T09:59:37Z</time>
      </trkpt>
      <trkpt lat="36.7172884382" lon="-2.6376741193">
        <ele>6.87</ele>
        <time>2018-11-13T09:59:40Z</time>
      </trkpt>
      <trkpt lat="36.7172891088" lon="-2.6374787372">
        <ele>6.87</ele>
        <time>2018-11-13T09:59:44Z</time>
      </trkpt>
      <trkpt lat="36.7169125099" lon="-2.6370375976">
        <ele>7.83</ele>
        <time>2018-11-13T09:59:54Z</time>
      </trkpt>
      <trkpt lat="36.7164411116" lon="-2.6364881638">
        <ele>7.83</ele>
        <time>2018-11-13T10:00:06Z</time>
      </trkpt>
      <trkpt lat="36.7160042468" lon="-2.6359458547">
        <ele>7.83</ele>
        <time>2018-11-13T10:00:18Z</time>
      </trkpt>
      <trkpt lat="36.7157382891" lon="-2.6356375683">
        <ele>7.35</ele>
        <time>2018-11-13T10:00:27Z</time>
      </trkpt>
      <trkpt lat="36.7154577468" lon="-2.6352822594">
        <ele>6.39</ele>
        <time>2018-11-13T10:00:37Z</time>
      </trkpt>
      <trkpt lat="36.7154210340" lon="-2.6352331415">
        <ele>6.39</ele>
        <time>2018-11-13T10:00:39Z</time>
      </trkpt>
      <trkpt lat="36.7153756879" lon="-2.6351580396">
        <ele>6.39</ele>
        <time>2018-11-13T10:00:43Z</time>
      </trkpt>
      <trkpt lat="36.7153153382" lon="-2.6350578759">
        <ele>6.39</ele>
        <time>2018-11-13T10:00:48Z</time>
      </trkpt>
      <trkpt lat="36.7153170984" lon="-2.6350334007">
        <ele>6.39</ele>
        <time>2018-11-13T10:00:49Z</time>
      </trkpt>
      <trkpt lat="36.7153292522" lon="-2.6350122783">
        <ele>6.39</ele>
        <time>2018-11-13T10:00:50Z</time>
      </trkpt>
      <trkpt lat="36.7153383046" lon="-2.6349940058">
        <ele>6.39</ele>
        <time>2018-11-13T10:00:51Z</time>
      </trkpt>
      <trkpt lat="36.7153458484" lon="-2.6349777449">
        <ele>6.39</ele>
        <time>2018-11-13T10:00:52Z</time>
      </trkpt>
      <trkpt lat="36.7153526377" lon="-2.6349665970">
        <ele>6.87</ele>
        <time>2018-11-13T10:00:53Z</time>
      </trkpt>
      <trkpt lat="36.7153728381" lon="-2.6349349134">
        <ele>6.87</ele>
        <time>2018-11-13T10:01:01Z</time>
      </trkpt>
      <trkpt lat="36.7153745983" lon="-2.6349355839">
        <ele>6.39</ele>
        <time>2018-11-13T10:01:11Z</time>
      </trkpt>
      <trkpt lat="36.7153785378" lon="-2.6349273697">
        <ele>5.91</ele>
        <time>2018-11-13T10:01:34Z</time>
      </trkpt>
      <trkpt lat="36.7153787054" lon="-2.6349300519">
        <ele>5.42</ele>
        <time>2018-11-13T10:01:53Z</time>
      </trkpt>
      <trkpt lat="36.7153751850" lon="-2.6349322312">
        <ele>5.91</ele>
        <time>2018-11-13T10:02:07Z</time>
      </trkpt>
      <trkpt lat="36.7153765261" lon="-2.6349225920">
        <ele>4.94</ele>
        <time>2018-11-13T10:02:23Z</time>
      </trkpt>
      <trkpt lat="36.7153800465" lon="-2.6349119470">
        <ele>4.94</ele>
        <time>2018-11-13T10:02:39Z</time>
      </trkpt>
      <trkpt lat="36.7153832316" lon="-2.6349111088">
        <ele>3.98</ele>
        <time>2018-11-13T10:03:01Z</time>
      </trkpt>
      <trkpt lat="36.7153824773" lon="-2.6349072531">
        <ele>3.50</ele>
        <time>2018-11-13T10:03:18Z</time>
      </trkpt>
      <trkpt lat="36.7153825611" lon="-2.6349100191">
        <ele>3.02</ele>
        <time>2018-11-13T10:03:33Z</time>
      </trkpt>
      <trkpt lat="36.7153859977" lon="-2.6349051576">
        <ele>2.54</ele>
        <time>2018-11-13T10:03:46Z</time>
      </trkpt>
      <trkpt lat="36.7153847404" lon="-2.6348984521">
        <ele>1.10</ele>
        <time>2018-11-13T10:04:04Z</time>
      </trkpt>
      <trkpt lat="36.7153862491" lon="-2.6349054929">
        <ele>1.10</ele>
        <time>2018-11-13T10:04:20Z</time>
      </trkpt>
      <trkpt lat="36.7153875902" lon="-2.6349059958">
        <ele>1.58</ele>
        <time>2018-11-13T10:04:34Z</time>
      </trkpt>
      <trkpt lat="36.7153870035" lon="-2.6349109411">
        <ele>2.06</ele>
        <time>2018-11-13T10:04:56Z</time>
      </trkpt>
      <trkpt lat="36.7153888475" lon="-2.6349102706">
        <ele>2.06</ele>
        <time>2018-11-13T10:05:13Z</time>
      </trkpt>
      <trkpt lat="36.7153831478" lon="-2.6349116117">
        <ele>2.54</ele>
        <time>2018-11-13T10:05:31Z</time>
      </trkpt>
      <trkpt lat="36.7153811362" lon="-2.6349189878">
        <ele>3.02</ele>
        <time>2018-11-13T10:05:41Z</time>
      </trkpt>
      <trkpt lat="36.7153852433" lon="-2.6349277049">
        <ele>3.02</ele>
        <time>2018-11-13T10:05:52Z</time>
      </trkpt>
      <trkpt lat="36.7153770290" lon="-2.6349562872">
        <ele>3.02</ele>
        <time>2018-11-13T10:05:59Z</time>
      </trkpt>
      <trkpt lat="36.7153652105" lon="-2.6349687763">
        <ele>3.02</ele>
        <time>2018-11-13T10:06:00Z</time>
      </trkpt>
      <trkpt lat="36.7153547332" lon="-2.6349844504">
        <ele>3.50</ele>
        <time>2018-11-13T10:06:01Z</time>
      </trkpt>
      <trkpt lat="36.7153409030" lon="-2.6350059919">
        <ele>3.50</ele>
        <time>2018-11-13T10:06:02Z</time>
      </trkpt>
      <trkpt lat="36.7153315153" lon="-2.6350319758">
        <ele>3.50</ele>
        <time>2018-11-13T10:06:03Z</time>
      </trkpt>
      <trkpt lat="36.7153504584" lon="-2.6350893080">
        <ele>3.98</ele>
        <time>2018-11-13T10:06:05Z</time>
      </trkpt>
      <trkpt lat="36.7154230457" lon="-2.6351470593">
        <ele>4.46</ele>
        <time>2018-11-13T10:06:08Z</time>
      </trkpt>
      <trkpt lat="36.7154429108" lon="-2.6351355761">
        <ele>4.46</ele>
        <time>2018-11-13T10:06:09Z</time>
      </trkpt>
      <trkpt lat="36.7154663801" lon="-2.6351059042">
        <ele>4.46</ele>
        <time>2018-11-13T10:06:10Z</time>
      </trkpt>
      <trkpt lat="36.7154945433" lon="-2.6350740530">
        <ele>4.46</ele>
        <time>2018-11-13T10:06:11Z</time>
      </trkpt>
      <trkpt lat="36.7155213654" lon="-2.6350424532">
        <ele>4.94</ele>
        <time>2018-11-13T10:06:12Z</time>
      </trkpt>
      <trkpt lat="36.7155483551" lon="-2.6350138709">
        <ele>4.94</ele>
        <time>2018-11-13T10:06:13Z</time>
      </trkpt>
      <trkpt lat="36.7155788653" lon="-2.6349810138">
        <ele>4.94</ele>
        <time>2018-11-13T10:06:14Z</time>
      </trkpt>
      <trkpt lat="36.7159537040" lon="-2.6345756650">
        <ele>5.91</ele>
        <time>2018-11-13T10:06:26Z</time>
      </trkpt>
      <trkpt lat="36.7161881458" lon="-2.6343220286">
        <ele>5.42</ele>
        <time>2018-11-13T10:06:33Z</time>
      </trkpt>
      <trkpt lat="36.7162232660" lon="-2.6342761796">
        <ele>5.42</ele>
        <time>2018-11-13T10:06:34Z</time>
      </trkpt>
      <trkpt lat="36.7165741324" lon="-2.6337885205">
        <ele>4.94</ele>
        <time>2018-11-13T10:06:45Z</time>
      </trkpt>
      <trkpt lat="36.7169001885" lon="-2.6333351433">
        <ele>4.94</ele>
        <time>2018-11-13T10:06:55Z</time>
      </trkpt>
      <trkpt lat="36.7172268312" lon="-2.6329533476">
        <ele>5.42</ele>
        <time>2018-11-13T10:07:05Z</time>
      </trkpt>
      <trkpt lat="36.7175702378" lon="-2.6325578894">
        <ele>5.42</ele>
        <time>2018-11-13T10:07:15Z</time>
      </trkpt>
      <trkpt lat="36.7178998981" lon="-2.6321644429">
        <ele>5.91</ele>
        <time>2018-11-13T10:07:25Z</time>
      </trkpt>
      <trkpt lat="36.7182769999" lon="-2.6316948887">
        <ele>6.39</ele>
        <time>2018-11-13T10:07:36Z</time>
      </trkpt>
      <trkpt lat="36.7186407745" lon="-2.6312445290">
        <ele>5.91</ele>
        <time>2018-11-13T10:07:47Z</time>
      </trkpt>
      <trkpt lat="36.7190134339" lon="-2.6307953428">
        <ele>5.42</ele>
        <time>2018-11-13T10:07:58Z</time>
      </trkpt>
      <trkpt lat="36.7193066329" lon="-2.6305038203">
        <ele>5.42</ele>
        <time>2018-11-13T10:08:07Z</time>
      </trkpt>
      <trkpt lat="36.7194183636" lon="-2.6304101944">
        <ele>4.94</ele>
        <time>2018-11-13T10:08:10Z</time>
      </trkpt>
      <trkpt lat="36.7198003270" lon="-2.6300121378">
        <ele>4.46</ele>
        <time>2018-11-13T10:08:20Z</time>
      </trkpt>
      <trkpt lat="36.7199449986" lon="-2.6298627723">
        <ele>4.46</ele>
        <time>2018-11-13T10:08:24Z</time>
      </trkpt>
      <trkpt lat="36.7199682165" lon="-2.6298165880">
        <ele>4.46</ele>
        <time>2018-11-13T10:08:25Z</time>
      </trkpt>
      <trkpt lat="36.7199754249" lon="-2.6297619380">
        <ele>4.46</ele>
        <time>2018-11-13T10:08:26Z</time>
      </trkpt>
      <trkpt lat="36.7200278956" lon="-2.6295541506">
        <ele>4.46</ele>
        <time>2018-11-13T10:08:31Z</time>
      </trkpt>
      <trkpt lat="36.7202475853" lon="-2.6293314435">
        <ele>4.46</ele>
        <time>2018-11-13T10:08:38Z</time>
      </trkpt>
      <trkpt lat="36.7205518484" lon="-2.6290130150">
        <ele>4.94</ele>
        <time>2018-11-13T10:08:47Z</time>
      </trkpt>
      <trkpt lat="36.7206597235" lon="-2.6288891304">
        <ele>5.42</ele>
        <time>2018-11-13T10:08:50Z</time>
      </trkpt>
      <trkpt lat="36.7206859589" lon="-2.6288470533">
        <ele>4.94</ele>
        <time>2018-11-13T10:08:51Z</time>
      </trkpt>
      <trkpt lat="36.7209869530" lon="-2.6283391099">
        <ele>5.91</ele>
        <time>2018-11-13T10:09:01Z</time>
      </trkpt>
      <trkpt lat="36.7210192233" lon="-2.6282974519">
        <ele>5.91</ele>
        <time>2018-11-13T10:09:02Z</time>
      </trkpt>
      <trkpt lat="36.7211695109" lon="-2.6281102002">
        <ele>5.42</ele>
        <time>2018-11-13T10:09:06Z</time>
      </trkpt>
      <trkpt lat="36.7214422580" lon="-2.6277462579">
        <ele>6.39</ele>
        <time>2018-11-13T10:09:14Z</time>
      </trkpt>
      <trkpt lat="36.7217973154" lon="-2.6273831539">
        <ele>5.91</ele>
        <time>2018-11-13T10:09:23Z</time>
      </trkpt>
      <trkpt lat="36.7221834697" lon="-2.6270508952">
        <ele>6.39</ele>
        <time>2018-11-13T10:09:32Z</time>
      </trkpt>
      <trkpt lat="36.7222529557" lon="-2.6269719377">
        <ele>6.39</ele>
        <time>2018-11-13T10:09:34Z</time>
      </trkpt>
      <trkpt lat="36.7225281335" lon="-2.6265344024">
        <ele>6.87</ele>
        <time>2018-11-13T10:09:43Z</time>
      </trkpt>
      <trkpt lat="36.7227247730" lon="-2.6261779200">
        <ele>7.35</ele>
        <time>2018-11-13T10:09:50Z</time>
      </trkpt>
      <trkpt lat="36.7227435485" lon="-2.6261140499">
        <ele>7.35</ele>
        <time>2018-11-13T10:09:51Z</time>
      </trkpt>
      <trkpt lat="36.7228717916" lon="-2.6256890874">
        <ele>7.83</ele>
        <time>2018-11-13T10:09:58Z</time>
      </trkpt>
      <trkpt lat="36.7228959315" lon="-2.6256430708">
        <ele>7.83</ele>
        <time>2018-11-13T10:09:59Z</time>
      </trkpt>
      <trkpt lat="36.7229265254" lon="-2.6256004907">
        <ele>7.83</ele>
        <time>2018-11-13T10:10:00Z</time>
      </trkpt>
      <trkpt lat="36.7229574546" lon="-2.6255574916">
        <ele>8.31</ele>
        <time>2018-11-13T10:10:01Z</time>
      </trkpt>
      <trkpt lat="36.7229867913" lon="-2.6255154982">
        <ele>8.31</ele>
        <time>2018-11-13T10:10:02Z</time>
      </trkpt>
      <trkpt lat="36.7232587002" lon="-2.6251630392">
        <ele>6.87</ele>
        <time>2018-11-13T10:10:11Z</time>
      </trkpt>
      <trkpt lat="36.7235146835" lon="-2.6248176210">
        <ele>6.87</ele>
        <time>2018-11-13T10:10:20Z</time>
      </trkpt>
      <trkpt lat="36.7238142528" lon="-2.6244281977">
        <ele>6.87</ele>
        <time>2018-11-13T10:10:30Z</time>
      </trkpt>
      <trkpt lat="36.7240837310" lon="-2.6240547001">
        <ele>7.35</ele>
        <time>2018-11-13T10:10:40Z</time>
      </trkpt>
      <trkpt lat="36.7242627684" lon="-2.6238272153">
        <ele>8.31</ele>
        <time>2018-11-13T10:10:48Z</time>
      </trkpt>
      <trkpt lat="36.7243462522" lon="-2.6237174124">
        <ele>7.83</ele>
        <time>2018-11-13T10:10:53Z</time>
      </trkpt>
      <trkpt lat="36.7243679613" lon="-2.6237132214">
        <ele>7.83</ele>
        <time>2018-11-13T10:10:54Z</time>
      </trkpt>
      <trkpt lat="36.7243855633" lon="-2.6237186696">
        <ele>7.83</ele>
        <time>2018-11-13T10:10:55Z</time>
      </trkpt>
      <trkpt lat="36.7244056799" lon="-2.6237297338">
        <ele>7.35</ele>
        <time>2018-11-13T10:11:00Z</time>
      </trkpt>
      <trkpt lat="36.7244185042" lon="-2.6237221900">
        <ele>6.39</ele>
        <time>2018-11-13T10:11:13Z</time>
      </trkpt>
      <trkpt lat="36.7244086973" lon="-2.6237489283">
        <ele>7.35</ele>
        <time>2018-11-13T10:11:27Z</time>
      </trkpt>
      <trkpt lat="36.7244048417" lon="-2.6237536222">
        <ele>5.91</ele>
        <time>2018-11-13T10:11:47Z</time>
      </trkpt>
      <trkpt lat="36.7244052608" lon="-2.6237603277">
        <ele>5.91</ele>
        <time>2018-11-13T10:12:06Z</time>
      </trkpt>
      <trkpt lat="36.7244080268" lon="-2.6237601601">
        <ele>7.35</ele>
        <time>2018-11-13T10:12:21Z</time>
      </trkpt>
      <trkpt lat="36.7244044226" lon="-2.6237497665">
        <ele>7.35</ele>
        <time>2018-11-13T10:12:35Z</time>
      </trkpt>
      <trkpt lat="36.7243977170" lon="-2.6237402111">
        <ele>8.79</ele>
        <time>2018-11-13T10:12:54Z</time>
      </trkpt>
      <trkpt lat="36.7243983876" lon="-2.6237611659">
        <ele>9.27</ele>
        <time>2018-11-13T10:13:09Z</time>
      </trkpt>
      <trkpt lat="36.7243908439" lon="-2.6237604115">
        <ele>10.71</ele>
        <time>2018-11-13T10:13:25Z</time>
      </trkpt>
      <trkpt lat="36.7244053446" lon="-2.6237611659">
        <ele>9.75</ele>
        <time>2018-11-13T10:13:37Z</time>
      </trkpt>
      <trkpt lat="36.7244161572" lon="-2.6237583160">
        <ele>8.79</ele>
        <time>2018-11-13T10:13:53Z</time>
      </trkpt>
      <trkpt lat="36.7244192585" lon="-2.6237313263">
        <ele>7.35</ele>
        <time>2018-11-13T10:14:01Z</time>
      </trkpt>
      <trkpt lat="36.7244287301" lon="-2.6237217709">
        <ele>6.87</ele>
        <time>2018-11-13T10:14:03Z</time>
      </trkpt>
      <trkpt lat="36.7244294845" lon="-2.6237091143">
        <ele>6.87</ele>
        <time>2018-11-13T10:14:04Z</time>
      </trkpt>
      <trkpt lat="36.7244415544" lon="-2.6236096211">
        <ele>7.35</ele>
        <time>2018-11-13T10:14:10Z</time>
      </trkpt>
      <trkpt lat="36.7244592402" lon="-2.6235875767">
        <ele>7.35</ele>
        <time>2018-11-13T10:14:11Z</time>
      </trkpt>
      <trkpt lat="36.7244775966" lon="-2.6235632692">
        <ele>7.35</ele>
        <time>2018-11-13T10:14:12Z</time>
      </trkpt>
      <trkpt lat="36.7244981322" lon="-2.6235369500">
        <ele>7.83</ele>
        <time>2018-11-13T10:14:13Z</time>
      </trkpt>
      <trkpt lat="36.7245178297" lon="-2.6235114690">
        <ele>7.83</ele>
        <time>2018-11-13T10:14:14Z</time>
      </trkpt>
      <trkpt lat="36.7245388683" lon="-2.6234843116">
        <ele>7.83</ele>
        <time>2018-11-13T10:14:15Z</time>
      </trkpt>
      <trkpt lat="36.7245583981" lon="-2.6234590821">
        <ele>7.83</ele>
        <time>2018-11-13T10:14:16Z</time>
      </trkpt>
      <trkpt lat="36.7246948555" lon="-2.6232757699">
        <ele>8.31</ele>
        <time>2018-11-13T10:14:24Z</time>
      </trkpt>
      <trkpt lat="36.7248354200" lon="-2.6231068745">
        <ele>7.83</ele>
        <time>2018-11-13T10:14:32Z</time>
      </trkpt>
      <trkpt lat="36.7250451352" lon="-2.6228830777">
        <ele>8.31</ele>
        <time>2018-11-13T10:14:39Z</time>
      </trkpt>
      <trkpt lat="36.7254937347" lon="-2.6224395074">
        <ele>7.83</ele>
        <time>2018-11-13T10:14:51Z</time>
      </trkpt>
      <trkpt lat="36.7256757896" lon="-2.6222649124">
        <ele>7.35</ele>
        <time>2018-11-13T10:14:56Z</time>
      </trkpt>
      <trkpt lat="36.7258508038" lon="-2.6220937539">
        <ele>7.35</ele>
        <time>2018-11-13T10:15:01Z</time>
      </trkpt>
      <trkpt lat="36.7258776259" lon="-2.6220526826">
        <ele>7.35</ele>
        <time>2018-11-13T10:15:02Z</time>
      </trkpt>
      <trkpt lat="36.7259040289" lon="-2.6220095158">
        <ele>7.35</ele>
        <time>2018-11-13T10:15:03Z</time>
      </trkpt>
      <trkpt lat="36.7259341199" lon="-2.6219707914">
        <ele>7.35</ele>
        <time>2018-11-13T10:15:04Z</time>
      </trkpt>
      <trkpt lat="36.7259704974" lon="-2.6219344139">
        <ele>7.35</ele>
        <time>2018-11-13T10:15:05Z</time>
      </trkpt>
      <trkpt lat="36.7260082159" lon="-2.6219003834">
        <ele>7.35</ele>
        <time>2018-11-13T10:15:06Z</time>
      </trkpt>
      <trkpt lat="36.7263051867" lon="-2.6216174103">
        <ele>7.35</ele>
        <time>2018-11-13T10:15:14Z</time>
      </trkpt>
      <trkpt lat="36.7266592383" lon="-2.6212852355">
        <ele>7.35</ele>
        <time>2018-11-13T10:15:23Z</time>
      </trkpt>
      <trkpt lat="36.7270851228" lon="-2.6208751928">
        <ele>6.87</ele>
        <time>2018-11-13T10:15:34Z</time>
      </trkpt>
      <trkpt lat="36.7274456285" lon="-2.6205311995">
        <ele>6.87</ele>
        <time>2018-11-13T10:15:44Z</time>
      </trkpt>
      <trkpt lat="36.7278467864" lon="-2.6201409381">
        <ele>5.91</ele>
        <time>2018-11-13T10:15:55Z</time>
      </trkpt>
      <trkpt lat="36.7279880214" lon="-2.6200372539">
        <ele>5.91</ele>
        <time>2018-11-13T10:15:59Z</time>
      </trkpt>
      <trkpt lat="36.7280234769" lon="-2.6200464740">
        <ele>5.91</ele>
        <time>2018-11-13T10:16:00Z</time>
      </trkpt>
      <trkpt lat="36.7280551605" lon="-2.6200675126">
        <ele>5.91</ele>
        <time>2018-11-13T10:16:01Z</time>
      </trkpt>
      <trkpt lat="36.7280894425" lon="-2.6200879645">
        <ele>5.91</ele>
        <time>2018-11-13T10:16:02Z</time>
      </trkpt>
      <trkpt lat="36.7281224672" lon="-2.6200880483">
        <ele>5.91</ele>
        <time>2018-11-13T10:16:03Z</time>
      </trkpt>
      <trkpt lat="36.7281519715" lon="-2.6200685184">
        <ele>5.91</ele>
        <time>2018-11-13T10:16:04Z</time>
      </trkpt>
      <trkpt lat="36.7281797156" lon="-2.6200396009">
        <ele>6.39</ele>
        <time>2018-11-13T10:16:05Z</time>
      </trkpt>
      <trkpt lat="36.7281991616" lon="-2.6200052351">
        <ele>6.39</ele>
        <time>2018-11-13T10:16:06Z</time>
      </trkpt>
      <trkpt lat="36.7282031011" lon="-2.6199631579">
        <ele>6.39</ele>
        <time>2018-11-13T10:16:07Z</time>
      </trkpt>
      <trkpt lat="36.7281920370" lon="-2.6199261937">
        <ele>6.39</ele>
        <time>2018-11-13T10:16:08Z</time>
      </trkpt>
      <trkpt lat="36.7281765305" lon="-2.6198861282">
        <ele>6.39</ele>
        <time>2018-11-13T10:16:09Z</time>
      </trkpt>
      <trkpt lat="36.7281707469" lon="-2.6198442187">
        <ele>6.39</ele>
        <time>2018-11-13T10:16:10Z</time>
      </trkpt>
      <trkpt lat="36.7281833198" lon="-2.6198070031">
        <ele>6.39</ele>
        <time>2018-11-13T10:16:11Z</time>
      </trkpt>
      <trkpt lat="36.7282101419" lon="-2.6197740622">
        <ele>6.39</ele>
        <time>2018-11-13T10:16:12Z</time>
      </trkpt>
      <trkpt lat="36.7282394785" lon="-2.6197451446">
        <ele>6.87</ele>
        <time>2018-11-13T10:16:13Z</time>
      </trkpt>
      <trkpt lat="36.7283367086" lon="-2.6196531951">
        <ele>6.87</ele>
        <time>2018-11-13T10:16:16Z</time>
      </trkpt>
      <trkpt lat="36.7286838870" lon="-2.6193449926">
        <ele>7.35</ele>
        <time>2018-11-13T10:16:26Z</time>
      </trkpt>
      <trkpt lat="36.7289253697" lon="-2.6190947089">
        <ele>7.35</ele>
        <time>2018-11-13T10:16:33Z</time>
      </trkpt>
      <trkpt lat="36.7292583827" lon="-2.6187226363">
        <ele>7.35</ele>
        <time>2018-11-13T10:16:43Z</time>
      </trkpt>
      <trkpt lat="36.7295639869" lon="-2.6183714345">
        <ele>8.31</ele>
        <time>2018-11-13T10:16:53Z</time>
      </trkpt>
      <trkpt lat="36.7297142744" lon="-2.6182096638">
        <ele>8.31</ele>
        <time>2018-11-13T10:16:58Z</time>
      </trkpt>
      <trkpt lat="36.7297509871" lon="-2.6181843504">
        <ele>8.31</ele>
        <time>2018-11-13T10:16:59Z</time>
      </trkpt>
      <trkpt lat="36.7299973313" lon="-2.6180742960">
        <ele>8.31</ele>
        <time>2018-11-13T10:17:06Z</time>
      </trkpt>
      <trkpt lat="36.7300296854" lon="-2.6180831809">
        <ele>8.31</ele>
        <time>2018-11-13T10:17:07Z</time>
      </trkpt>
      <trkpt lat="36.7300575133" lon="-2.6180734579">
        <ele>8.31</ele>
        <time>2018-11-13T10:17:08Z</time>
      </trkpt>
      <trkpt lat="36.7300897837" lon="-2.6180524193">
        <ele>8.79</ele>
        <time>2018-11-13T10:17:09Z</time>
      </trkpt>
      <trkpt lat="36.7301218025" lon="-2.6180328894">
        <ele>8.79</ele>
        <time>2018-11-13T10:17:10Z</time>
      </trkpt>
      <trkpt lat="36.7303800490" lon="-2.6178574562">
        <ele>8.79</ele>
        <time>2018-11-13T10:17:17Z</time>
      </trkpt>
      <trkpt lat="36.7307693884" lon="-2.6176035684">
        <ele>8.79</ele>
        <time>2018-11-13T10:17:26Z</time>
      </trkpt>
      <trkpt lat="36.7309255432" lon="-2.6174824499">
        <ele>8.79</ele>
        <time>2018-11-13T10:17:30Z</time>
      </trkpt>
      <trkpt lat="36.7309697159" lon="-2.6174583100">
        <ele>8.79</ele>
        <time>2018-11-13T10:17:31Z</time>
      </trkpt>
      <trkpt lat="36.7310122959" lon="-2.6174383610">
        <ele>8.79</ele>
        <time>2018-11-13T10:17:32Z</time>
      </trkpt>
      <trkpt lat="36.7310547922" lon="-2.6174117066">
        <ele>8.79</ele>
        <time>2018-11-13T10:17:33Z</time>
      </trkpt>
      <trkpt lat="36.7310944386" lon="-2.6173842978">
        <ele>8.31</ele>
        <time>2018-11-13T10:17:34Z</time>
      </trkpt>
      <trkpt lat="36.7313261982" lon="-2.6172162406">
        <ele>8.79</ele>
        <time>2018-11-13T10:17:40Z</time>
      </trkpt>
      <trkpt lat="36.7313546967" lon="-2.6171745826">
        <ele>8.79</ele>
        <time>2018-11-13T10:17:41Z</time>
      </trkpt>
      <trkpt lat="36.7313818540" lon="-2.6171330921">
        <ele>8.79</ele>
        <time>2018-11-13T10:17:42Z</time>
      </trkpt>
      <trkpt lat="36.7314145435" lon="-2.6170977205">
        <ele>8.79</ele>
        <time>2018-11-13T10:17:43Z</time>
      </trkpt>
      <trkpt lat="36.7314464785" lon="-2.6170572359">
        <ele>9.27</ele>
        <time>2018-11-13T10:17:44Z</time>
      </trkpt>
      <trkpt lat="36.7314757314" lon="-2.6170183439">
        <ele>9.27</ele>
        <time>2018-11-13T10:17:45Z</time>
      </trkpt>
      <trkpt lat="36.7315109354" lon="-2.6169888396">
        <ele>8.79</ele>
        <time>2018-11-13T10:17:46Z</time>
      </trkpt>
      <trkpt lat="36.7315487377" lon="-2.6169646159">
        <ele>8.79</ele>
        <time>2018-11-13T10:17:47Z</time>
      </trkpt>
      <trkpt lat="36.7319651507" lon="-2.6167116500">
        <ele>7.83</ele>
        <time>2018-11-13T10:17:57Z</time>
      </trkpt>
      <trkpt lat="36.7324343696" lon="-2.6164361369">
        <ele>7.35</ele>
        <time>2018-11-13T10:18:08Z</time>
      </trkpt>
      <trkpt lat="36.7328635231" lon="-2.6161767170">
        <ele>7.35</ele>
        <time>2018-11-13T10:18:18Z</time>
      </trkpt>
      <trkpt lat="36.7333034053" lon="-2.6159119327">
        <ele>6.87</ele>
        <time>2018-11-13T10:18:28Z</time>
      </trkpt>
      <trkpt lat="36.7338161264" lon="-2.6156086754">
        <ele>6.87</ele>
        <time>2018-11-13T10:18:40Z</time>
      </trkpt>
      <trkpt lat="36.7342301924" lon="-2.6153572183">
        <ele>6.87</ele>
        <time>2018-11-13T10:18:50Z</time>
      </trkpt>
      <trkpt lat="36.7345671449" lon="-2.6151520293">
        <ele>6.39</ele>
        <time>2018-11-13T10:18:58Z</time>
      </trkpt>
      <trkpt lat="36.7350313347" lon="-2.6148756780">
        <ele>5.91</ele>
        <time>2018-11-13T10:19:08Z</time>
      </trkpt>
      <trkpt lat="36.7355380207" lon="-2.6145744324">
        <ele>5.91</ele>
        <time>2018-11-13T10:19:19Z</time>
      </trkpt>
      <trkpt lat="36.7358583771" lon="-2.6143803075">
        <ele>5.91</ele>
        <time>2018-11-13T10:19:27Z</time>
      </trkpt>
      <trkpt lat="36.7360259313" lon="-2.6142856758">
        <ele>6.39</ele>
        <time>2018-11-13T10:19:37Z</time>
      </trkpt>
      <trkpt lat="36.7362412624" lon="-2.6141582709">
        <ele>6.87</ele>
        <time>2018-11-13T10:19:47Z</time>
      </trkpt>
      <trkpt lat="36.7366344575" lon="-2.6139136031">
        <ele>6.87</ele>
        <time>2018-11-13T10:20:00Z</time>
      </trkpt>
      <trkpt lat="36.7369258963" lon="-2.6137366612">
        <ele>6.87</ele>
        <time>2018-11-13T10:20:10Z</time>
      </trkpt>
      <trkpt lat="36.7373499367" lon="-2.6134909876">
        <ele>6.87</ele>
        <time>2018-11-13T10:20:22Z</time>
      </trkpt>
      <trkpt lat="36.7375579756" lon="-2.6134287938">
        <ele>6.87</ele>
        <time>2018-11-13T10:20:29Z</time>
      </trkpt>
      <trkpt lat="36.7377298884" lon="-2.6134079229">
        <ele>7.35</ele>
        <time>2018-11-13T10:20:36Z</time>
      </trkpt>
      <trkpt lat="36.7380013783" lon="-2.6133232657">
        <ele>7.83</ele>
        <time>2018-11-13T10:20:46Z</time>
      </trkpt>
      <trkpt lat="36.7382261809" lon="-2.6132515166">
        <ele>8.31</ele>
        <time>2018-11-13T10:20:56Z</time>
      </trkpt>
      <trkpt lat="36.7384694237" lon="-2.6131660212">
        <ele>8.31</ele>
        <time>2018-11-13T10:21:04Z</time>
      </trkpt>
      <trkpt lat="36.7387953121" lon="-2.6130563859">
        <ele>9.27</ele>
        <time>2018-11-13T10:21:14Z</time>
      </trkpt>
      <trkpt lat="36.7390744295" lon="-2.6129666995">
        <ele>9.27</ele>
        <time>2018-11-13T10:21:21Z</time>
      </trkpt>
      <trkpt lat="36.7394051794" lon="-2.6128626801">
        <ele>8.79</ele>
        <time>2018-11-13T10:21:29Z</time>
      </trkpt>
      <trkpt lat="36.7395780981" lon="-2.6128058508">
        <ele>8.79</ele>
        <time>2018-11-13T10:21:33Z</time>
      </trkpt>
      <trkpt lat="36.7396607436" lon="-2.6127848960">
        <ele>8.31</ele>
        <time>2018-11-13T10:21:35Z</time>
      </trkpt>
      <trkpt lat="36.7398399487" lon="-2.6127033401">
        <ele>8.31</ele>
        <time>2018-11-13T10:21:40Z</time>
      </trkpt>
      <trkpt lat="36.7399584688" lon="-2.6126224548">
        <ele>8.31</ele>
        <time>2018-11-13T10:21:44Z</time>
      </trkpt>
      <trkpt lat="36.7399904039" lon="-2.6126333512">
        <ele>8.31</ele>
        <time>2018-11-13T10:21:45Z</time>
      </trkpt>
      <trkpt lat="36.7400193214" lon="-2.6126578264">
        <ele>8.31</ele>
        <time>2018-11-13T10:21:46Z</time>
      </trkpt>
      <trkpt lat="36.7401818465" lon="-2.6127805375">
        <ele>7.83</ele>
        <time>2018-11-13T10:21:52Z</time>
      </trkpt>
      <trkpt lat="36.7402169667" lon="-2.6127714012">
        <ele>7.83</ele>
        <time>2018-11-13T10:21:53Z</time>
      </trkpt>
      <trkpt lat="36.7404706031" lon="-2.6127087884">
        <ele>7.83</ele>
        <time>2018-11-13T10:22:00Z</time>
      </trkpt>
      <trkpt lat="36.7407041229" lon="-2.6125863288">
        <ele>7.83</ele>
        <time>2018-11-13T10:22:07Z</time>
      </trkpt>
      <trkpt lat="36.7407410033" lon="-2.6125698164">
        <ele>7.83</ele>
        <time>2018-11-13T10:22:08Z</time>
      </trkpt>
      <trkpt lat="36.7410793807" lon="-2.6124436688">
        <ele>8.79</ele>
        <time>2018-11-13T10:22:16Z</time>
      </trkpt>
      <trkpt lat="36.7415129766" lon="-2.6122810598">
        <ele>9.75</ele>
        <time>2018-11-13T10:22:27Z</time>
      </trkpt>
      <trkpt lat="36.7419648450" lon="-2.6121163554">
        <ele>9.75</ele>
        <time>2018-11-13T10:22:37Z</time>
      </trkpt>
      <trkpt lat="36.7424121033" lon="-2.6119519025">
        <ele>9.27</ele>
        <time>2018-11-13T10:22:47Z</time>
      </trkpt>
      <trkpt lat="36.7428793944" lon="-2.6117935684">
        <ele>8.79</ele>
        <time>2018-11-13T10:22:58Z</time>
      </trkpt>
      <trkpt lat="36.7431259900" lon="-2.6117314585">
        <ele>8.31</ele>
        <time>2018-11-13T10:23:04Z</time>
      </trkpt>
      <trkpt lat="36.7431634571" lon="-2.6117398404">
        <ele>7.83</ele>
        <time>2018-11-13T10:23:05Z</time>
      </trkpt>
      <trkpt lat="36.7432027683" lon="-2.6117431093">
        <ele>7.83</ele>
        <time>2018-11-13T10:23:06Z</time>
      </trkpt>
      <trkpt lat="36.7432403192" lon="-2.6117328834">
        <ele>8.31</ele>
        <time>2018-11-13T10:23:07Z</time>
      </trkpt>
      <trkpt lat="36.7432786245" lon="-2.6117184665">
        <ele>8.31</ele>
        <time>2018-11-13T10:23:08Z</time>
      </trkpt>
      <trkpt lat="36.7434465978" lon="-2.6116307918">
        <ele>8.31</ele>
        <time>2018-11-13T10:23:13Z</time>
      </trkpt>
      <trkpt lat="36.7434858251" lon="-2.6116169617">
        <ele>8.31</ele>
        <time>2018-11-13T10:23:14Z</time>
      </trkpt>
      <trkpt lat="36.7439780105" lon="-2.6114720386">
        <ele>8.31</ele>
        <time>2018-11-13T10:23:25Z</time>
      </trkpt>
      <trkpt lat="36.7445340659" lon="-2.6112976111">
        <ele>7.83</ele>
        <time>2018-11-13T10:23:37Z</time>
      </trkpt>
      <trkpt lat="36.7450209707" lon="-2.6111470722">
        <ele>8.31</ele>
        <time>2018-11-13T10:23:48Z</time>
      </trkpt>
      <trkpt lat="36.7455148324" lon="-2.6109871455">
        <ele>8.31</ele>
        <time>2018-11-13T10:23:59Z</time>
      </trkpt>
      <trkpt lat="36.7460694630" lon="-2.6107842196">
        <ele>8.31</ele>
        <time>2018-11-13T10:24:11Z</time>
      </trkpt>
      <trkpt lat="36.7461881507" lon="-2.6107410528">
        <ele>8.31</ele>
        <time>2018-11-13T10:24:14Z</time>
      </trkpt>
      <trkpt lat="36.7462241929" lon="-2.6107188407">
        <ele>8.31</ele>
        <time>2018-11-13T10:24:15Z</time>
      </trkpt>
      <trkpt lat="36.7462593131" lon="-2.6106873248">
        <ele>8.79</ele>
        <time>2018-11-13T10:24:16Z</time>
      </trkpt>
      <trkpt lat="36.7462926731" lon="-2.6106600836">
        <ele>8.79</ele>
        <time>2018-11-13T10:24:17Z</time>
      </trkpt>
      <trkpt lat="36.7463277094" lon="-2.6106408890">
        <ele>9.27</ele>
        <time>2018-11-13T10:24:18Z</time>
      </trkpt>
      <trkpt lat="36.7463636678" lon="-2.6106262207">
        <ele>9.27</ele>
        <time>2018-11-13T10:24:19Z</time>
      </trkpt>
      <trkpt lat="36.7466952559" lon="-2.6105111372">
        <ele>9.75</ele>
        <time>2018-11-13T10:24:28Z</time>
      </trkpt>
      <trkpt lat="36.7471353896" lon="-2.6103247236">
        <ele>10.23</ele>
        <time>2018-11-13T10:24:39Z</time>
      </trkpt>
      <trkpt lat="36.7474893574" lon="-2.6101748552">
        <ele>9.75</ele>
        <time>2018-11-13T10:24:47Z</time>
      </trkpt>
      <trkpt lat="36.7478051875" lon="-2.6100370567">
        <ele>9.75</ele>
        <time>2018-11-13T10:24:54Z</time>
      </trkpt>
      <trkpt lat="36.7480413895" lon="-2.6099320315">
        <ele>9.27</ele>
        <time>2018-11-13T10:24:59Z</time>
      </trkpt>
      <trkpt lat="36.7480869871" lon="-2.6098995097">
        <ele>9.27</ele>
        <time>2018-11-13T10:25:00Z</time>
      </trkpt>
      <trkpt lat="36.7483282182" lon="-2.6096999366">
        <ele>9.75</ele>
        <time>2018-11-13T10:25:06Z</time>
      </trkpt>
      <trkpt lat="36.7483687866" lon="-2.6096680015">
        <ele>10.23</ele>
        <time>2018-11-13T10:25:07Z</time>
      </trkpt>
      <trkpt lat="36.7487968504" lon="-2.6093836874">
        <ele>9.75</ele>
        <time>2018-11-13T10:25:17Z</time>
      </trkpt>
      <trkpt lat="36.7491969187" lon="-2.6092210785">
        <ele>9.75</ele>
        <time>2018-11-13T10:25:26Z</time>
      </trkpt>
      <trkpt lat="36.7495330330" lon="-2.6090152189">
        <ele>10.23</ele>
        <time>2018-11-13T10:25:34Z</time>
      </trkpt>
      <trkpt lat="36.7499961331" lon="-2.6087002270">
        <ele>12.63</ele>
        <time>2018-11-13T10:25:45Z</time>
      </trkpt>
      <trkpt lat="36.7504443973" lon="-2.6084005740">
        <ele>12.63</ele>
        <time>2018-11-13T10:25:56Z</time>
      </trkpt>
      <trkpt lat="36.7508658394" lon="-2.6081085484">
        <ele>13.12</ele>
        <time>2018-11-13T10:26:06Z</time>
      </trkpt>
      <trkpt lat="36.7512415163" lon="-2.6078545768">
        <ele>13.12</ele>
        <time>2018-11-13T10:26:15Z</time>
      </trkpt>
      <trkpt lat="36.7516219709" lon="-2.6076611225">
        <ele>13.60</ele>
        <time>2018-11-13T10:26:24Z</time>
      </trkpt>
      <trkpt lat="36.7520073708" lon="-2.6075130980">
        <ele>13.60</ele>
        <time>2018-11-13T10:26:33Z</time>
      </trkpt>
      <trkpt lat="36.7523408029" lon="-2.6074123476">
        <ele>13.60</ele>
        <time>2018-11-13T10:26:41Z</time>
      </trkpt>
      <trkpt lat="36.7527554557" lon="-2.6073044725">
        <ele>14.56</ele>
        <time>2018-11-13T10:26:50Z</time>
      </trkpt>
      <trkpt lat="36.7531692702" lon="-2.6071944181">
        <ele>16.00</ele>
        <time>2018-11-13T10:26:59Z</time>
      </trkpt>
      <trkpt lat="36.7533827573" lon="-2.6070959307">
        <ele>16.48</ele>
        <time>2018-11-13T10:27:04Z</time>
      </trkpt>
      <trkpt lat="36.7534264270" lon="-2.6070826035">
        <ele>16.48</ele>
        <time>2018-11-13T10:27:05Z</time>
      </trkpt>
      <trkpt lat="36.7535192985" lon="-2.6070619840">
        <ele>16.00</ele>
        <time>2018-11-13T10:27:07Z</time>
      </trkpt>
      <trkpt lat="36.7535599507" lon="-2.6070427895">
        <ele>16.00</ele>
        <time>2018-11-13T10:27:08Z</time>
      </trkpt>
      <trkpt lat="36.7537446041" lon="-2.6068850420">
        <ele>15.04</ele>
        <time>2018-11-13T10:27:14Z</time>
      </trkpt>
      <trkpt lat="36.7538042832" lon="-2.6068273745">
        <ele>14.56</ele>
        <time>2018-11-13T10:27:19Z</time>
      </trkpt>
      <trkpt lat="36.7538047023" lon="-2.6068199985">
        <ele>14.56</ele>
        <time>2018-11-13T10:27:26Z</time>
      </trkpt>
      <trkpt lat="36.7538065463" lon="-2.6068153046">
        <ele>13.60</ele>
        <time>2018-11-13T10:27:34Z</time>
      </trkpt>
      <trkpt lat="36.7538103182" lon="-2.6068181545">
        <ele>13.60</ele>
        <time>2018-11-13T10:27:45Z</time>
      </trkpt>
      <trkpt lat="36.7538759485" lon="-2.6067858841">
        <ele>13.12</ele>
        <time>2018-11-13T10:27:52Z</time>
      </trkpt>
      <trkpt lat="36.7539980728" lon="-2.6067272108">
        <ele>13.12</ele>
        <time>2018-11-13T10:27:57Z</time>
      </trkpt>
      <trkpt lat="36.7542056087" lon="-2.6066363510">
        <ele>12.15</ele>
        <time>2018-11-13T10:28:03Z</time>
      </trkpt>
      <trkpt lat="36.7545573134" lon="-2.6064968761">
        <ele>9.27</ele>
        <time>2018-11-13T10:28:10Z</time>
      </trkpt>
      <trkpt lat="36.7546751630" lon="-2.6064957026">
        <ele>8.79</ele>
        <time>2018-11-13T10:28:13Z</time>
      </trkpt>
      <trkpt lat="36.7547123786" lon="-2.6065176632">
        <ele>9.27</ele>
        <time>2018-11-13T10:28:14Z</time>
      </trkpt>
      <trkpt lat="36.7547480017" lon="-2.6065459102">
        <ele>9.27</ele>
        <time>2018-11-13T10:28:15Z</time>
      </trkpt>
      <trkpt lat="36.7547806073" lon="-2.6065796893">
        <ele>9.27</ele>
        <time>2018-11-13T10:28:16Z</time>
      </trkpt>
      <trkpt lat="36.7548089381" lon="-2.6066158153">
        <ele>9.27</ele>
        <time>2018-11-13T10:28:17Z</time>
      </trkpt>
      <trkpt lat="36.7550170608" lon="-2.6068220101">
        <ele>11.19</ele>
        <time>2018-11-13T10:28:25Z</time>
      </trkpt>
      <trkpt lat="36.7551141232" lon="-2.6068790071">
        <ele>11.19</ele>
        <time>2018-11-13T10:28:30Z</time>
      </trkpt>
      <trkpt lat="36.7551242653" lon="-2.6068785880">
        <ele>11.19</ele>
        <time>2018-11-13T10:28:31Z</time>
      </trkpt>
      <trkpt lat="36.7551379278" lon="-2.6068558730">
        <ele>11.67</ele>
        <time>2018-11-13T10:28:36Z</time>
      </trkpt>
      <trkpt lat="36.7552800011" lon="-2.6069261134">
        <ele>12.63</ele>
        <time>2018-11-13T10:28:45Z</time>
      </trkpt>
      <trkpt lat="36.7555036303" lon="-2.6069661789">
        <ele>13.60</ele>
        <time>2018-11-13T10:28:52Z</time>
      </trkpt>
      <trkpt lat="36.7559100688" lon="-2.6070109382">
        <ele>12.63</ele>
        <time>2018-11-13T10:29:02Z</time>
      </trkpt>
      <trkpt lat="36.7564134020" lon="-2.6070137881">
        <ele>13.12</ele>
        <time>2018-11-13T10:29:14Z</time>
      </trkpt>
      <trkpt lat="36.7566821259" lon="-2.6069685258">
        <ele>13.12</ele>
        <time>2018-11-13T10:29:21Z</time>
      </trkpt>
      <trkpt lat="36.7568019032" lon="-2.6069406141">
        <ele>13.60</ele>
        <time>2018-11-13T10:29:24Z</time>
      </trkpt>
      <trkpt lat="36.7568403762" lon="-2.6069371775">
        <ele>13.12</ele>
        <time>2018-11-13T10:29:25Z</time>
      </trkpt>
      <trkpt lat="36.7571376823" lon="-2.6068551186">
        <ele>15.04</ele>
        <time>2018-11-13T10:29:34Z</time>
      </trkpt>
      <trkpt lat="36.7571500037" lon="-2.6068399474">
        <ele>15.52</ele>
        <time>2018-11-13T10:29:35Z</time>
      </trkpt>
      <trkpt lat="36.7571667675" lon="-2.6068258658">
        <ele>15.52</ele>
        <time>2018-11-13T10:29:36Z</time>
      </trkpt>
      <trkpt lat="36.7571830284" lon="-2.6068148017">
        <ele>15.52</ele>
        <time>2018-11-13T10:29:37Z</time>
      </trkpt>
      <trkpt lat="36.7572018038" lon="-2.6068076771">
        <ele>16.00</ele>
        <time>2018-11-13T10:29:38Z</time>
      </trkpt>
      <trkpt lat="36.7572221719" lon="-2.6068026479">
        <ele>16.00</ele>
        <time>2018-11-13T10:29:39Z</time>
      </trkpt>
      <trkpt lat="36.7573373392" lon="-2.6067578048">
        <ele>16.00</ele>
        <time>2018-11-13T10:29:44Z</time>
      </trkpt>
      <trkpt lat="36.7573484872" lon="-2.6067386102">
        <ele>16.00</ele>
        <time>2018-11-13T10:29:45Z</time>
      </trkpt>
      <trkpt lat="36.7573577072" lon="-2.6067203376">
        <ele>16.00</ele>
        <time>2018-11-13T10:29:46Z</time>
      </trkpt>
      <trkpt lat="36.7573739681" lon="-2.6067054179">
        <ele>16.00</ele>
        <time>2018-11-13T10:29:47Z</time>
      </trkpt>
      <trkpt lat="36.7573952582" lon="-2.6066940185">
        <ele>16.00</ele>
        <time>2018-11-13T10:29:48Z</time>
      </trkpt>
      <trkpt lat="36.7574180569" lon="-2.6066833735">
        <ele>16.00</ele>
        <time>2018-11-13T10:29:49Z</time>
      </trkpt>
      <trkpt lat="36.7574422807" lon="-2.6066740695">
        <ele>15.52</ele>
        <time>2018-11-13T10:29:50Z</time>
      </trkpt>
      <trkpt lat="36.7576880381" lon="-2.6065957826">
        <ele>15.04</ele>
        <time>2018-11-13T10:30:00Z</time>
      </trkpt>
      <trkpt lat="36.7577695101" lon="-2.6065475028">
        <ele>14.56</ele>
        <time>2018-11-13T10:30:04Z</time>
      </trkpt>
      <trkpt lat="36.7577921413" lon="-2.6065563038">
        <ele>14.08</ele>
        <time>2018-11-13T10:30:05Z</time>
      </trkpt>
      <trkpt lat="36.7578140181" lon="-2.6065724809">
        <ele>14.08</ele>
        <time>2018-11-13T10:30:06Z</time>
      </trkpt>
      <trkpt lat="36.7578400020" lon="-2.6065921783">
        <ele>14.08</ele>
        <time>2018-11-13T10:30:07Z</time>
      </trkpt>
      <trkpt lat="36.7578692548" lon="-2.6066072658">
        <ele>14.08</ele>
        <time>2018-11-13T10:30:08Z</time>
      </trkpt>
      <trkpt lat="36.7579060514" lon="-2.6066174079">
        <ele>14.08</ele>
        <time>2018-11-13T10:30:09Z</time>
      </trkpt>
      <trkpt lat="36.7579439376" lon="-2.6066178270">
        <ele>14.08</ele>
        <time>2018-11-13T10:30:10Z</time>
      </trkpt>
      <trkpt lat="36.7579842545" lon="-2.6066070143">
        <ele>14.08</ele>
        <time>2018-11-13T10:30:11Z</time>
      </trkpt>
      <trkpt lat="36.7580252420" lon="-2.6065940224">
        <ele>14.08</ele>
        <time>2018-11-13T10:30:12Z</time>
      </trkpt>
      <trkpt lat="36.7581858393" lon="-2.6065406296">
        <ele>14.56</ele>
        <time>2018-11-13T10:30:16Z</time>
      </trkpt>
      <trkpt lat="36.7582246475" lon="-2.6065324154">
        <ele>14.56</ele>
        <time>2018-11-13T10:30:17Z</time>
      </trkpt>
      <trkpt lat="36.7582641263" lon="-2.6065238658">
        <ele>14.08</ele>
        <time>2018-11-13T10:30:18Z</time>
      </trkpt>
      <trkpt lat="36.7584433313" lon="-2.6065516938">
        <ele>13.60</ele>
        <time>2018-11-13T10:30:24Z</time>
      </trkpt>
      <trkpt lat="36.7585050222" lon="-2.6067241933">
        <ele>15.04</ele>
        <time>2018-11-13T10:30:30Z</time>
      </trkpt>
      <trkpt lat="36.7585570738" lon="-2.6069061644">
        <ele>16.96</ele>
        <time>2018-11-13T10:30:37Z</time>
      </trkpt>
      <trkpt lat="36.7586579081" lon="-2.6069065835">
        <ele>17.44</ele>
        <time>2018-11-13T10:30:41Z</time>
      </trkpt>
      <trkpt lat="36.7589941900" lon="-2.6068039890">
        <ele>19.36</ele>
        <time>2018-11-13T10:30:50Z</time>
      </trkpt>
      <trkpt lat="36.7592220102" lon="-2.6067482494">
        <ele>20.81</ele>
        <time>2018-11-13T10:30:55Z</time>
      </trkpt>
      <trkpt lat="36.7592728045" lon="-2.6067427173">
        <ele>20.81</ele>
        <time>2018-11-13T10:30:56Z</time>
      </trkpt>
      <trkpt lat="36.7593187373" lon="-2.6067380235">
        <ele>20.81</ele>
        <time>2018-11-13T10:30:57Z</time>
      </trkpt>
      <trkpt lat="36.7593666818" lon="-2.6067283005">
        <ele>20.81</ele>
        <time>2018-11-13T10:30:58Z</time>
      </trkpt>
      <trkpt lat="36.7594106868" lon="-2.6067159791">
        <ele>20.81</ele>
        <time>2018-11-13T10:30:59Z</time>
      </trkpt>
      <trkpt lat="36.7594582122" lon="-2.6067023166">
        <ele>20.81</ele>
        <time>2018-11-13T10:31:00Z</time>
      </trkpt>
      <trkpt lat="36.7599900439" lon="-2.6065711398">
        <ele>22.73</ele>
        <time>2018-11-13T10:31:12Z</time>
      </trkpt>
      <trkpt lat="36.7603903636" lon="-2.6064709760">
        <ele>23.21</ele>
        <time>2018-11-13T10:31:21Z</time>
      </trkpt>
      <trkpt lat="36.7605902720" lon="-2.6064230315">
        <ele>23.69</ele>
        <time>2018-11-13T10:31:25Z</time>
      </trkpt>
      <trkpt lat="36.7606428266" lon="-2.6064130571">
        <ele>23.69</ele>
        <time>2018-11-13T10:31:26Z</time>
      </trkpt>
      <trkpt lat="36.7611453217" lon="-2.6062942017">
        <ele>20.32</ele>
        <time>2018-11-13T10:31:36Z</time>
      </trkpt>
      <trkpt lat="36.7614766583" lon="-2.6061885897">
        <ele>15.04</ele>
        <time>2018-11-13T10:31:44Z</time>
      </trkpt>
      <trkpt lat="36.7614873871" lon="-2.6061492786">
        <ele>15.04</ele>
        <time>2018-11-13T10:31:45Z</time>
      </trkpt>
      <trkpt lat="36.7614787538" lon="-2.6061132364">
        <ele>14.56</ele>
        <time>2018-11-13T10:31:46Z</time>
      </trkpt>
      <trkpt lat="36.7614774965" lon="-2.6060895994">
        <ele>14.56</ele>
        <time>2018-11-13T10:31:47Z</time>
      </trkpt>
      <trkpt lat="36.7614869680" lon="-2.6060667168">
        <ele>14.08</ele>
        <time>2018-11-13T10:31:48Z</time>
      </trkpt>
      <trkpt lat="36.7615048215" lon="-2.6060523000">
        <ele>14.08</ele>
        <time>2018-11-13T10:31:49Z</time>
      </trkpt>
      <trkpt lat="36.7615336552" lon="-2.6060466003">
        <ele>13.60</ele>
        <time>2018-11-13T10:31:50Z</time>
      </trkpt>
      <trkpt lat="36.7615680210" lon="-2.6060416549">
        <ele>13.12</ele>
        <time>2018-11-13T10:31:51Z</time>
      </trkpt>
      <trkpt lat="36.7616043147" lon="-2.6060349494">
        <ele>12.63</ele>
        <time>2018-11-13T10:31:52Z</time>
      </trkpt>
      <trkpt lat="36.7619229108" lon="-2.6059429999">
        <ele>10.23</ele>
        <time>2018-11-13T10:31:59Z</time>
      </trkpt>
      <trkpt lat="36.7623083107" lon="-2.6058705803">
        <ele>9.75</ele>
        <time>2018-11-13T10:32:09Z</time>
      </trkpt>
      <trkpt lat="36.7626832332" lon="-2.6057931315">
        <ele>9.27</ele>
        <time>2018-11-13T10:32:20Z</time>
      </trkpt>
      <trkpt lat="36.7630236223" lon="-2.6057150960">
        <ele>9.27</ele>
        <time>2018-11-13T10:32:29Z</time>
      </trkpt>
      <trkpt lat="36.7632982135" lon="-2.6056472864">
        <ele>8.31</ele>
        <time>2018-11-13T10:32:37Z</time>
      </trkpt>
      <trkpt lat="36.7633208446" lon="-2.6056191232">
        <ele>8.31</ele>
        <time>2018-11-13T10:32:38Z</time>
      </trkpt>
      <trkpt lat="36.7633439787" lon="-2.6055948995">
        <ele>8.31</ele>
        <time>2018-11-13T10:32:39Z</time>
      </trkpt>
      <trkpt lat="36.7633713037" lon="-2.6055779681">
        <ele>8.31</ele>
        <time>2018-11-13T10:32:43Z</time>
      </trkpt>
      <trkpt lat="36.7633604072" lon="-2.6055975817">
        <ele>8.79</ele>
        <time>2018-11-13T10:32:55Z</time>
      </trkpt>
      <trkpt lat="36.7633552104" lon="-2.6056224760">
        <ele>8.31</ele>
        <time>2018-11-13T10:33:19Z</time>
      </trkpt>
      <trkpt lat="36.7633751594" lon="-2.6055964082">
        <ele>6.87</ele>
        <time>2018-11-13T10:33:36Z</time>
      </trkpt>
      <trkpt lat="36.7633677833" lon="-2.6056136750">
        <ele>5.42</ele>
        <time>2018-11-13T10:33:52Z</time>
      </trkpt>
      <trkpt lat="36.7633725610" lon="-2.6056052931">
        <ele>5.91</ele>
        <time>2018-11-13T10:34:05Z</time>
      </trkpt>
      <trkpt lat="36.7634033225" lon="-2.6055943128">
        <ele>6.39</ele>
        <time>2018-11-13T10:34:08Z</time>
      </trkpt>
      <trkpt lat="36.7634150572" lon="-2.6055934746">
        <ele>6.39</ele>
        <time>2018-11-13T10:34:09Z</time>
      </trkpt>
      <trkpt lat="36.7634297255" lon="-2.6055946480">
        <ele>6.87</ele>
        <time>2018-11-13T10:34:10Z</time>
      </trkpt>
      <trkpt lat="36.7635494191" lon="-2.6056181174">
        <ele>6.87</ele>
        <time>2018-11-13T10:34:16Z</time>
      </trkpt>
      <trkpt lat="36.7636800092" lon="-2.6056000963">
        <ele>7.35</ele>
        <time>2018-11-13T10:34:19Z</time>
      </trkpt>
      <trkpt lat="36.7637274507" lon="-2.6055853441">
        <ele>7.35</ele>
        <time>2018-11-13T10:34:20Z</time>
      </trkpt>
      <trkpt lat="36.7642079014" lon="-2.6054657344">
        <ele>6.87</ele>
        <time>2018-11-13T10:34:29Z</time>
      </trkpt>
      <trkpt lat="36.7647806369" lon="-2.6053362340">
        <ele>5.91</ele>
        <time>2018-11-13T10:34:40Z</time>
      </trkpt>
      <trkpt lat="36.7652765941" lon="-2.6052278560">
        <ele>5.42</ele>
        <time>2018-11-13T10:34:50Z</time>
      </trkpt>
      <trkpt lat="36.7657058313" lon="-2.6051285304">
        <ele>5.42</ele>
        <time>2018-11-13T10:34:59Z</time>
      </trkpt>
      <trkpt lat="36.7661265191" lon="-2.6050381735">
        <ele>5.42</ele>
        <time>2018-11-13T10:35:07Z</time>
      </trkpt>
      <trkpt lat="36.7666207161" lon="-2.6049292088">
        <ele>5.42</ele>
        <time>2018-11-13T10:35:17Z</time>
      </trkpt>
      <trkpt lat="36.7668067105" lon="-2.6048805937">
        <ele>5.91</ele>
        <time>2018-11-13T10:35:21Z</time>
      </trkpt>
      <trkpt lat="36.7668493744" lon="-2.6048577949">
        <ele>5.42</ele>
        <time>2018-11-13T10:35:22Z</time>
      </trkpt>
      <trkpt lat="36.7670049425" lon="-2.6047718804">
        <ele>5.91</ele>
        <time>2018-11-13T10:35:26Z</time>
      </trkpt>
      <trkpt lat="36.7670434993" lon="-2.6047516800">
        <ele>5.91</ele>
        <time>2018-11-13T10:35:27Z</time>
      </trkpt>
      <trkpt lat="36.7670836486" lon="-2.6047402807">
        <ele>5.91</ele>
        <time>2018-11-13T10:35:28Z</time>
      </trkpt>
      <trkpt lat="36.7672108021" lon="-2.6047309767">
        <ele>6.39</ele>
        <time>2018-11-13T10:35:31Z</time>
      </trkpt>
      <trkpt lat="36.7675962020" lon="-2.6045640092">
        <ele>5.91</ele>
        <time>2018-11-13T10:35:40Z</time>
      </trkpt>
      <trkpt lat="36.7680796701" lon="-2.6043212693">
        <ele>6.39</ele>
        <time>2018-11-13T10:35:51Z</time>
      </trkpt>
      <trkpt lat="36.7683978472" lon="-2.6041616779">
        <ele>6.87</ele>
        <time>2018-11-13T10:35:58Z</time>
      </trkpt>
      <trkpt lat="36.7688203789" lon="-2.6039505377">
        <ele>7.83</ele>
        <time>2018-11-13T10:36:07Z</time>
      </trkpt>
      <trkpt lat="36.7692332715" lon="-2.6037409902">
        <ele>8.31</ele>
        <time>2018-11-13T10:36:16Z</time>
      </trkpt>
      <trkpt lat="36.7697443161" lon="-2.6034891978">
        <ele>7.83</ele>
        <time>2018-11-13T10:36:27Z</time>
      </trkpt>
      <trkpt lat="36.7701437138" lon="-2.6032859366">
        <ele>7.35</ele>
        <time>2018-11-13T10:36:37Z</time>
      </trkpt>
      <trkpt lat="36.7702514213" lon="-2.6032359805">
        <ele>6.87</ele>
        <time>2018-11-13T10:36:40Z</time>
      </trkpt>
      <trkpt lat="36.7703006230" lon="-2.6030671690">
        <ele>6.39</ele>
        <time>2018-11-13T10:36:45Z</time>
      </trkpt>
      <trkpt lat="36.7704213224" lon="-2.6029752195">
        <ele>6.39</ele>
        <time>2018-11-13T10:36:49Z</time>
      </trkpt>
      <trkpt lat="36.7705058958" lon="-2.6029764768">
        <ele>5.91</ele>
        <time>2018-11-13T10:36:51Z</time>
      </trkpt>
      <trkpt lat="36.7707843427" lon="-2.6029379200">
        <ele>4.94</ele>
        <time>2018-11-13T10:36:58Z</time>
      </trkpt>
      <trkpt lat="36.7712325230" lon="-2.6027434599">
        <ele>4.94</ele>
        <time>2018-11-13T10:37:08Z</time>
      </trkpt>
      <trkpt lat="36.7714263964" lon="-2.6026630774">
        <ele>4.46</ele>
        <time>2018-11-13T10:37:12Z</time>
      </trkpt>
      <trkpt lat="36.7717111297" lon="-2.6024635043">
        <ele>4.94</ele>
        <time>2018-11-13T10:37:19Z</time>
      </trkpt>
      <trkpt lat="36.7718894128" lon="-2.6022755820">
        <ele>5.42</ele>
        <time>2018-11-13T10:37:26Z</time>
      </trkpt>
      <trkpt lat="36.7719982099" lon="-2.6023321599">
        <ele>5.91</ele>
        <time>2018-11-13T10:37:31Z</time>
      </trkpt>
      <trkpt lat="36.7721346673" lon="-2.6023400389">
        <ele>6.87</ele>
        <time>2018-11-13T10:37:36Z</time>
      </trkpt>
      <trkpt lat="36.7724450491" lon="-2.6021709759">
        <ele>6.87</ele>
        <time>2018-11-13T10:37:45Z</time>
      </trkpt>
      <trkpt lat="36.7728192173" lon="-2.6019522920">
        <ele>7.83</ele>
        <time>2018-11-13T10:37:54Z</time>
      </trkpt>
      <trkpt lat="36.7731933016" lon="-2.6017268188">
        <ele>8.31</ele>
        <time>2018-11-13T10:38:03Z</time>
      </trkpt>
      <trkpt lat="36.7736719083" lon="-2.6014340390">
        <ele>7.35</ele>
        <time>2018-11-13T10:38:14Z</time>
      </trkpt>
      <trkpt lat="36.7739588208" lon="-2.6012645569">
        <ele>7.35</ele>
        <time>2018-11-13T10:38:22Z</time>
      </trkpt>
      <trkpt lat="36.7742184084" lon="-2.6011168677">
        <ele>6.87</ele>
        <time>2018-11-13T10:38:29Z</time>
      </trkpt>
      <trkpt lat="36.7745642457" lon="-2.6009058952">
        <ele>6.39</ele>
        <time>2018-11-13T10:38:38Z</time>
      </trkpt>
      <trkpt lat="36.7748783156" lon="-2.6007173024">
        <ele>6.87</ele>
        <time>2018-11-13T10:38:47Z</time>
      </trkpt>
      <trkpt lat="36.7752646375" lon="-2.6004905719">
        <ele>6.87</ele>
        <time>2018-11-13T10:38:58Z</time>
      </trkpt>
      <trkpt lat="36.7755414080" lon="-2.6003200002">
        <ele>7.35</ele>
        <time>2018-11-13T10:39:06Z</time>
      </trkpt>
      <trkpt lat="36.7758570705" lon="-2.6001291443">
        <ele>7.35</ele>
        <time>2018-11-13T10:39:15Z</time>
      </trkpt>
      <trkpt lat="36.7760878243" lon="-2.5999885798">
        <ele>7.35</ele>
        <time>2018-11-13T10:39:23Z</time>
      </trkpt>
      <trkpt lat="36.7762994673" lon="-2.5998543855">
        <ele>7.35</ele>
        <time>2018-11-13T10:39:31Z</time>
      </trkpt>
      <trkpt lat="36.7764814384" lon="-2.5997279864">
        <ele>6.87</ele>
        <time>2018-11-13T10:39:38Z</time>
      </trkpt>
      <trkpt lat="36.7766242661" lon="-2.5996243861">
        <ele>6.39</ele>
        <time>2018-11-13T10:39:44Z</time>
      </trkpt>
      <trkpt lat="36.7767052352" lon="-2.5994853303">
        <ele>6.39</ele>
        <time>2018-11-13T10:39:49Z</time>
      </trkpt>
      <trkpt lat="36.7767572869" lon="-2.5994067919">
        <ele>6.39</ele>
        <time>2018-11-13T10:39:52Z</time>
      </trkpt>
      <trkpt lat="36.7767835222" lon="-2.5993976556">
        <ele>6.39</ele>
        <time>2018-11-13T10:39:53Z</time>
      </trkpt>
      <trkpt lat="36.7768106796" lon="-2.5993950572">
        <ele>6.39</ele>
        <time>2018-11-13T10:39:54Z</time>
      </trkpt>
      <trkpt lat="36.7768349871" lon="-2.5993936323">
        <ele>6.39</ele>
        <time>2018-11-13T10:39:55Z</time>
      </trkpt>
      <trkpt lat="36.7768594623" lon="-2.5993865915">
        <ele>6.39</ele>
        <time>2018-11-13T10:39:56Z</time>
      </trkpt>
      <trkpt lat="36.7768805008" lon="-2.5993779581">
        <ele>6.39</ele>
        <time>2018-11-13T10:39:57Z</time>
      </trkpt>
      <trkpt lat="36.7769138608" lon="-2.5993704982">
        <ele>6.39</ele>
        <time>2018-11-13T10:39:59Z</time>
      </trkpt>
      <trkpt lat="36.7769239191" lon="-2.5993773714">
        <ele>5.91</ele>
        <time>2018-11-13T10:40:05Z</time>
      </trkpt>
      <trkpt lat="36.7769262660" lon="-2.5993760303">
        <ele>6.87</ele>
        <time>2018-11-13T10:40:17Z</time>
      </trkpt>
      <trkpt lat="36.7769248411" lon="-2.5993648823">
        <ele>8.79</ele>
        <time>2018-11-13T10:40:38Z</time>
      </trkpt>
    </trkseg>
  </trk>
</gpx>
